<?xml version="1.0" encoding="UTF-8" standalone="no" ?>
<gpx xmlns="http://www.topografix.com/GPX/1/1" xmlns:xsi="http://www.w3.org/2001/XMLSchema-instance" xsi:schemaLocation="http://www.topografix.com/GPX/1/1 http://www.topografix.com/GPX/1/1/gpx.xsd" version="1.1" creator="VisuGPX - https://www.visugpx.com">
  <metadata>
    <name>Prévisionnel en Transcaucasie</name>
    <desc><![CDATA[Prévisionnel en Transcaucasie]]></desc>
  </metadata>
  <trk>
    <name><![CDATA[Batoumi - Tbilissi]]></name>
    <extensions>
      <line xmlns="http://www.topografix.com/GPX/gpx_style/0/2">
        <color>0000FF</color>
        <width>4</width>
      </line>
    </extensions>
    <trkseg>
      <trkpt lat="41.63782" lon="41.62709">
        <ele>6.112969</ele>
        <time>2021-08-14T17:58:13.365Z</time>
      </trkpt>
      <trkpt lat="41.63782" lon="41.62709">
        <ele>6.112969</ele>
        <time>2021-08-14T17:58:13.365Z</time>
      </trkpt>
      <trkpt lat="41.63782" lon="41.62709">
        <ele>6.112969</ele>
        <time>2021-08-14T17:58:13.373Z</time>
      </trkpt>
      <trkpt lat="41.63771" lon="41.62717">
        <ele>6.112969</ele>
        <time>2021-08-14T17:58:15.988Z</time>
      </trkpt>
      <trkpt lat="41.63858" lon="41.62863">
        <ele>5.939172</ele>
        <time>2021-08-14T17:58:46.142Z</time>
      </trkpt>
      <trkpt lat="41.63882" lon="41.62914">
        <ele>5.815052</ele>
        <time>2021-08-14T17:58:56.141Z</time>
      </trkpt>
      <trkpt lat="41.6391" lon="41.62994">
        <ele>5.631912</ele>
        <time>2021-08-14T17:59:11.426Z</time>
      </trkpt>
      <trkpt lat="41.6396" lon="41.63141">
        <ele>5.797897</ele>
        <time>2021-08-14T17:59:41.070Z</time>
      </trkpt>
      <trkpt lat="41.64004" lon="41.63278">
        <ele>5.94034</ele>
        <time>2021-08-14T18:00:06.895Z</time>
      </trkpt>
      <trkpt lat="41.64061" lon="41.63449">
        <ele>6.038532</ele>
        <time>2021-08-14T18:00:40.623Z</time>
      </trkpt>
      <trkpt lat="41.64092" lon="41.63512">
        <ele>5.917928</ele>
        <time>2021-08-14T18:00:53.698Z</time>
      </trkpt>
      <trkpt lat="41.64098" lon="41.63534">
        <ele>5.881912</ele>
        <time>2021-08-14T18:00:57.460Z</time>
      </trkpt>
      <trkpt lat="41.64116" lon="41.63599">
        <ele>5.770052</ele>
        <time>2021-08-14T18:01:08.974Z</time>
      </trkpt>
      <trkpt lat="41.64127" lon="41.63637">
        <ele>5.705716</ele>
        <time>2021-08-14T18:01:15.703Z</time>
      </trkpt>
      <trkpt lat="41.6417" lon="41.63783">
        <ele>5.504568</ele>
        <time>2021-08-14T18:01:41.933Z</time>
      </trkpt>
      <trkpt lat="41.6421" lon="41.63913">
        <ele>5.408167</ele>
        <time>2021-08-14T18:02:06.348Z</time>
      </trkpt>
      <trkpt lat="41.64245" lon="41.64032">
        <ele>5.545655</ele>
        <time>2021-08-14T18:02:30.074Z</time>
      </trkpt>
      <trkpt lat="41.64266" lon="41.64158">
        <ele>5.564003</ele>
        <time>2021-08-14T18:02:52.629Z</time>
      </trkpt>
      <trkpt lat="41.64268" lon="41.64169">
        <ele>5.547329</ele>
        <time>2021-08-14T18:02:54.804Z</time>
      </trkpt>
      <trkpt lat="41.64295" lon="41.64337">
        <ele>5.312893</ele>
        <time>2021-08-14T18:03:23.559Z</time>
      </trkpt>
      <trkpt lat="41.64297" lon="41.64345">
        <ele>5.301432</ele>
        <time>2021-08-14T18:03:24.873Z</time>
      </trkpt>
      <trkpt lat="41.64306" lon="41.64341">
        <ele>5.271287</ele>
        <time>2021-08-14T18:03:27.045Z</time>
      </trkpt>
      <trkpt lat="41.64314" lon="41.6434">
        <ele>5.245916</ele>
        <time>2021-08-14T18:03:28.859Z</time>
      </trkpt>
      <trkpt lat="41.64337" lon="41.64341">
        <ele>5.174902</ele>
        <time>2021-08-14T18:03:33.778Z</time>
      </trkpt>
      <trkpt lat="41.6439" lon="41.64355">
        <ele>5.004783</ele>
        <time>2021-08-14T18:03:45.952Z</time>
      </trkpt>
      <trkpt lat="41.64379" lon="41.64404">
        <ele>4.882945</ele>
        <time>2021-08-14T18:03:54.290Z</time>
      </trkpt>
      <trkpt lat="41.64366" lon="41.64466">
        <ele>4.731886</ele>
        <time>2021-08-14T18:04:04.594Z</time>
      </trkpt>
      <trkpt lat="41.6444" lon="41.6447">
        <ele>4.558198</ele>
        <time>2021-08-14T18:04:20.033Z</time>
      </trkpt>
      <trkpt lat="41.64429" lon="41.64564">
        <ele>4.391415</ele>
        <time>2021-08-14T18:04:35.410Z</time>
      </trkpt>
      <trkpt lat="41.64424" lon="41.6461">
        <ele>4.313359</ele>
        <time>2021-08-14T18:04:43.403Z</time>
      </trkpt>
      <trkpt lat="41.64508" lon="41.64626">
        <ele>4.411694</ele>
        <time>2021-08-14T18:05:02.497Z</time>
      </trkpt>
      <trkpt lat="41.64505" lon="41.64643">
        <ele>4.427162</ele>
        <time>2021-08-14T18:05:05.512Z</time>
      </trkpt>
      <trkpt lat="41.64496" lon="41.64683">
        <ele>4.462891</ele>
        <time>2021-08-14T18:05:12.542Z</time>
      </trkpt>
      <trkpt lat="41.64487" lon="41.64724">
        <ele>4.499593</ele>
        <time>2021-08-14T18:05:19.981Z</time>
      </trkpt>
      <trkpt lat="41.64481" lon="41.64754">
        <ele>4.538712</ele>
        <time>2021-08-14T18:05:25.511Z</time>
      </trkpt>
      <trkpt lat="41.64477" lon="41.64774">
        <ele>4.587504</ele>
        <time>2021-08-14T18:05:29.219Z</time>
      </trkpt>
      <trkpt lat="41.64445" lon="41.64906">
        <ele>4.922095</ele>
        <time>2021-08-14T18:05:54.136Z</time>
      </trkpt>
      <trkpt lat="41.64457" lon="41.64908">
        <ele>4.962372</ele>
        <time>2021-08-14T18:05:56.962Z</time>
      </trkpt>
      <trkpt lat="41.64463" lon="41.64909">
        <ele>4.981039</ele>
        <time>2021-08-14T18:05:58.258Z</time>
      </trkpt>
      <trkpt lat="41.64528" lon="41.64914">
        <ele>5.206829</ele>
        <time>2021-08-14T18:06:13.888Z</time>
      </trkpt>
      <trkpt lat="41.64531" lon="41.64914">
        <ele>5.218272</ele>
        <time>2021-08-14T18:06:14.723Z</time>
      </trkpt>
      <trkpt lat="41.6453" lon="41.64928">
        <ele>5.257871</ele>
        <time>2021-08-14T18:06:17.303Z</time>
      </trkpt>
      <trkpt lat="41.64529" lon="41.64957">
        <ele>5.341974</ele>
        <time>2021-08-14T18:06:22.959Z</time>
      </trkpt>
      <trkpt lat="41.6454" lon="41.65028">
        <ele>5.546399</ele>
        <time>2021-08-14T18:06:36.337Z</time>
      </trkpt>
      <trkpt lat="41.64547" lon="41.65066">
        <ele>5.65876</ele>
        <time>2021-08-14T18:06:43.532Z</time>
      </trkpt>
      <trkpt lat="41.6456" lon="41.65143">
        <ele>5.77141</ele>
        <time>2021-08-14T18:06:56.584Z</time>
      </trkpt>
      <trkpt lat="41.64564" lon="41.65163">
        <ele>5.764484</ele>
        <time>2021-08-14T18:07:00.109Z</time>
      </trkpt>
      <trkpt lat="41.6457" lon="41.65201">
        <ele>5.751386</ele>
        <time>2021-08-14T18:07:07.004Z</time>
      </trkpt>
      <trkpt lat="41.64588" lon="41.65305">
        <ele>5.715537</ele>
        <time>2021-08-14T18:07:24.750Z</time>
      </trkpt>
      <trkpt lat="41.6459" lon="41.65311">
        <ele>5.713173</ele>
        <time>2021-08-14T18:07:25.954Z</time>
      </trkpt>
      <trkpt lat="41.64592" lon="41.65314">
        <ele>5.711838</ele>
        <time>2021-08-14T18:07:26.485Z</time>
      </trkpt>
      <trkpt lat="41.64593" lon="41.65316">
        <ele>5.710885</ele>
        <time>2021-08-14T18:07:26.966Z</time>
      </trkpt>
      <trkpt lat="41.64596" lon="41.65318">
        <ele>5.709349</ele>
        <time>2021-08-14T18:07:27.712Z</time>
      </trkpt>
      <trkpt lat="41.64594" lon="41.65331">
        <ele>5.704853</ele>
        <time>2021-08-14T18:07:29.919Z</time>
      </trkpt>
      <trkpt lat="41.64592" lon="41.65345">
        <ele>5.69016</ele>
        <time>2021-08-14T18:07:32.080Z</time>
      </trkpt>
      <trkpt lat="41.64591" lon="41.65355">
        <ele>5.668222</ele>
        <time>2021-08-14T18:07:33.804Z</time>
      </trkpt>
      <trkpt lat="41.6459" lon="41.65371">
        <ele>5.636422</ele>
        <time>2021-08-14T18:07:36.281Z</time>
      </trkpt>
      <trkpt lat="41.64589" lon="41.6544">
        <ele>5.497172</ele>
        <time>2021-08-14T18:07:47.196Z</time>
      </trkpt>
      <trkpt lat="41.64604" lon="41.65651">
        <ele>5.281948</ele>
        <time>2021-08-14T18:08:21.431Z</time>
      </trkpt>
      <trkpt lat="41.64635" lon="41.65861">
        <ele>5.574739</ele>
        <time>2021-08-14T18:08:59.111Z</time>
      </trkpt>
      <trkpt lat="41.6464" lon="41.65895">
        <ele>5.685039</ele>
        <time>2021-08-14T18:09:05.554Z</time>
      </trkpt>
      <trkpt lat="41.64642" lon="41.6592">
        <ele>5.764376</ele>
        <time>2021-08-14T18:09:10.343Z</time>
      </trkpt>
      <trkpt lat="41.64643" lon="41.65944">
        <ele>5.839164</ele>
        <time>2021-08-14T18:09:14.897Z</time>
      </trkpt>
      <trkpt lat="41.64643" lon="41.65964">
        <ele>5.90367</ele>
        <time>2021-08-14T18:09:18.654Z</time>
      </trkpt>
      <trkpt lat="41.64644" lon="41.66087">
        <ele>6.324879</ele>
        <time>2021-08-14T18:09:41.599Z</time>
      </trkpt>
      <trkpt lat="41.64651" lon="41.66151">
        <ele>6.593516</ele>
        <time>2021-08-14T18:09:53.216Z</time>
      </trkpt>
      <trkpt lat="41.64665" lon="41.66205">
        <ele>6.833071</ele>
        <time>2021-08-14T18:10:03.837Z</time>
      </trkpt>
      <trkpt lat="41.64683" lon="41.66219">
        <ele>6.949496</ele>
        <time>2021-08-14T18:10:08.838Z</time>
      </trkpt>
      <trkpt lat="41.64694" lon="41.66217">
        <ele>7.009434</ele>
        <time>2021-08-14T18:10:11.812Z</time>
      </trkpt>
      <trkpt lat="41.64705" lon="41.66214">
        <ele>7.070514</ele>
        <time>2021-08-14T18:10:14.670Z</time>
      </trkpt>
      <trkpt lat="41.64735" lon="41.66201">
        <ele>7.217034</ele>
        <time>2021-08-14T18:10:23.041Z</time>
      </trkpt>
      <trkpt lat="41.6475" lon="41.66195">
        <ele>7.253105</ele>
        <time>2021-08-14T18:10:26.982Z</time>
      </trkpt>
      <trkpt lat="41.64763" lon="41.66194">
        <ele>7.281297</ele>
        <time>2021-08-14T18:10:31.148Z</time>
      </trkpt>
      <trkpt lat="41.64783" lon="41.66197">
        <ele>7.32804</ele>
        <time>2021-08-14T18:10:35.930Z</time>
      </trkpt>
      <trkpt lat="41.64868" lon="41.6629">
        <ele>7.578707</ele>
        <time>2021-08-14T18:11:00.199Z</time>
      </trkpt>
      <trkpt lat="41.64882" lon="41.66305">
        <ele>7.598846</ele>
        <time>2021-08-14T18:11:04.931Z</time>
      </trkpt>
      <trkpt lat="41.6489" lon="41.66329">
        <ele>7.580146</ele>
        <time>2021-08-14T18:11:08.681Z</time>
      </trkpt>
      <trkpt lat="41.64936" lon="41.66468">
        <ele>7.468449</ele>
        <time>2021-08-14T18:11:34.430Z</time>
      </trkpt>
      <trkpt lat="41.64955" lon="41.66525">
        <ele>7.406563</ele>
        <time>2021-08-14T18:11:44.333Z</time>
      </trkpt>
      <trkpt lat="41.64958" lon="41.66538">
        <ele>7.370674</ele>
        <time>2021-08-14T18:11:46.411Z</time>
      </trkpt>
      <trkpt lat="41.64992" lon="41.66612">
        <ele>7.139023</ele>
        <time>2021-08-14T18:12:00.307Z</time>
      </trkpt>
      <trkpt lat="41.65014" lon="41.6666">
        <ele>6.988854</ele>
        <time>2021-08-14T18:12:09.678Z</time>
      </trkpt>
      <trkpt lat="41.65029" lon="41.66692">
        <ele>6.888995</ele>
        <time>2021-08-14T18:12:15.944Z</time>
      </trkpt>
      <trkpt lat="41.65052" lon="41.66739">
        <ele>6.654461</ele>
        <time>2021-08-14T18:12:24.608Z</time>
      </trkpt>
      <trkpt lat="41.65066" lon="41.66766">
        <ele>6.402797</ele>
        <time>2021-08-14T18:12:29.491Z</time>
      </trkpt>
      <trkpt lat="41.65113" lon="41.66829">
        <ele>5.742634</ele>
        <time>2021-08-14T18:12:41.852Z</time>
      </trkpt>
      <trkpt lat="41.65147" lon="41.66868">
        <ele>5.290183</ele>
        <time>2021-08-14T18:12:50.698Z</time>
      </trkpt>
      <trkpt lat="41.65153" lon="41.66876">
        <ele>5.202063</ele>
        <time>2021-08-14T18:12:52.526Z</time>
      </trkpt>
      <trkpt lat="41.65188" lon="41.66915">
        <ele>5.028905</ele>
        <time>2021-08-14T18:13:02.211Z</time>
      </trkpt>
      <trkpt lat="41.652" lon="41.66931">
        <ele>5.058823</ele>
        <time>2021-08-14T18:13:05.717Z</time>
      </trkpt>
      <trkpt lat="41.6528" lon="41.67037">
        <ele>5.269401</ele>
        <time>2021-08-14T18:13:32.290Z</time>
      </trkpt>
      <trkpt lat="41.65373" lon="41.67159">
        <ele>6.220569</ele>
        <time>2021-08-14T18:14:07.267Z</time>
      </trkpt>
      <trkpt lat="41.65424" lon="41.67227">
        <ele>6.849664</ele>
        <time>2021-08-14T18:14:26.327Z</time>
      </trkpt>
      <trkpt lat="41.65485" lon="41.67309">
        <ele>7.637217</ele>
        <time>2021-08-14T18:14:49.991Z</time>
      </trkpt>
      <trkpt lat="41.65571" lon="41.67423">
        <ele>8.592247</ele>
        <time>2021-08-14T18:15:22.351Z</time>
      </trkpt>
      <trkpt lat="41.65597" lon="41.6745">
        <ele>8.678004</ele>
        <time>2021-08-14T18:15:30.829Z</time>
      </trkpt>
      <trkpt lat="41.65766" lon="41.67595">
        <ele>8.609338</ele>
        <time>2021-08-14T18:16:15.478Z</time>
      </trkpt>
      <trkpt lat="41.65803" lon="41.67627">
        <ele>8.393093</ele>
        <time>2021-08-14T18:16:24.296Z</time>
      </trkpt>
      <trkpt lat="41.65824" lon="41.67645">
        <ele>8.268294</ele>
        <time>2021-08-14T18:16:29.095Z</time>
      </trkpt>
      <trkpt lat="41.65925" lon="41.6773">
        <ele>7.587901</ele>
        <time>2021-08-14T18:16:53.132Z</time>
      </trkpt>
      <trkpt lat="41.65939" lon="41.67743">
        <ele>7.485885</ele>
        <time>2021-08-14T18:16:56.492Z</time>
      </trkpt>
      <trkpt lat="41.65941" lon="41.67747">
        <ele>7.468612</ele>
        <time>2021-08-14T18:16:57.106Z</time>
      </trkpt>
      <trkpt lat="41.65945" lon="41.67751">
        <ele>7.435022</ele>
        <time>2021-08-14T18:16:58.337Z</time>
      </trkpt>
      <trkpt lat="41.65948" lon="41.67751">
        <ele>7.417779</ele>
        <time>2021-08-14T18:16:58.996Z</time>
      </trkpt>
      <trkpt lat="41.6596" lon="41.6776">
        <ele>7.33648</ele>
        <time>2021-08-14T18:17:01.805Z</time>
      </trkpt>
      <trkpt lat="41.65989" lon="41.67784">
        <ele>7.134324</ele>
        <time>2021-08-14T18:17:09.177Z</time>
      </trkpt>
      <trkpt lat="41.6604" lon="41.67827">
        <ele>7.238964</ele>
        <time>2021-08-14T18:17:23.130Z</time>
      </trkpt>
      <trkpt lat="41.66054" lon="41.67838">
        <ele>7.322335</ele>
        <time>2021-08-14T18:17:27.036Z</time>
      </trkpt>
      <trkpt lat="41.66094" lon="41.67878">
        <ele>7.571413</ele>
        <time>2021-08-14T18:17:40.073Z</time>
      </trkpt>
      <trkpt lat="41.6611" lon="41.67898">
        <ele>7.683889</ele>
        <time>2021-08-14T18:17:45.996Z</time>
      </trkpt>
      <trkpt lat="41.66124" lon="41.67906">
        <ele>7.75931</ele>
        <time>2021-08-14T18:17:49.988Z</time>
      </trkpt>
      <trkpt lat="41.66134" lon="41.67916">
        <ele>7.823144</ele>
        <time>2021-08-14T18:17:53.450Z</time>
      </trkpt>
      <trkpt lat="41.66202" lon="41.67998">
        <ele>8.437672</ele>
        <time>2021-08-14T18:18:15.995Z</time>
      </trkpt>
      <trkpt lat="41.66208" lon="41.68005">
        <ele>8.494204</ele>
        <time>2021-08-14T18:18:17.864Z</time>
      </trkpt>
      <trkpt lat="41.66231" lon="41.68034">
        <ele>8.723049</ele>
        <time>2021-08-14T18:18:26.283Z</time>
      </trkpt>
      <trkpt lat="41.66286" lon="41.68101">
        <ele>9.236334</ele>
        <time>2021-08-14T18:18:47.148Z</time>
      </trkpt>
      <trkpt lat="41.66321" lon="41.68143">
        <ele>9.291809</ele>
        <time>2021-08-14T18:18:58.071Z</time>
      </trkpt>
      <trkpt lat="41.66347" lon="41.68173">
        <ele>9.33217</ele>
        <time>2021-08-14T18:19:05.457Z</time>
      </trkpt>
      <trkpt lat="41.66366" lon="41.68201">
        <ele>9.365555</ele>
        <time>2021-08-14T18:19:11.734Z</time>
      </trkpt>
      <trkpt lat="41.66371" lon="41.68208">
        <ele>9.374361</ele>
        <time>2021-08-14T18:19:13.212Z</time>
      </trkpt>
      <trkpt lat="41.66383" lon="41.68223">
        <ele>9.393934</ele>
        <time>2021-08-14T18:19:17.174Z</time>
      </trkpt>
      <trkpt lat="41.66395" lon="41.6824">
        <ele>9.414299</ele>
        <time>2021-08-14T18:19:20.767Z</time>
      </trkpt>
      <trkpt lat="41.66412" lon="41.68266">
        <ele>9.438093</ele>
        <time>2021-08-14T18:19:27.012Z</time>
      </trkpt>
      <trkpt lat="41.66429" lon="41.68291">
        <ele>9.278551</ele>
        <time>2021-08-14T18:19:32.329Z</time>
      </trkpt>
      <trkpt lat="41.66449" lon="41.68322">
        <ele>9.075045</ele>
        <time>2021-08-14T18:19:39.014Z</time>
      </trkpt>
      <trkpt lat="41.66456" lon="41.68333">
        <ele>9.00129</ele>
        <time>2021-08-14T18:19:41.667Z</time>
      </trkpt>
      <trkpt lat="41.66498" lon="41.68405">
        <ele>8.558735</ele>
        <time>2021-08-14T18:19:55.011Z</time>
      </trkpt>
      <trkpt lat="41.66505" lon="41.68416">
        <ele>8.487819</ele>
        <time>2021-08-14T18:19:57.181Z</time>
      </trkpt>
      <trkpt lat="41.66513" lon="41.68429">
        <ele>8.405917</ele>
        <time>2021-08-14T18:19:59.571Z</time>
      </trkpt>
      <trkpt lat="41.66519" lon="41.68436">
        <ele>8.354498</ele>
        <time>2021-08-14T18:20:01.090Z</time>
      </trkpt>
      <trkpt lat="41.66524" lon="41.68443">
        <ele>8.30308</ele>
        <time>2021-08-14T18:20:02.651Z</time>
      </trkpt>
      <trkpt lat="41.66575" lon="41.68487">
        <ele>8.617892</ele>
        <time>2021-08-14T18:20:15.118Z</time>
      </trkpt>
      <trkpt lat="41.66588" lon="41.68496">
        <ele>8.708251</ele>
        <time>2021-08-14T18:20:18.100Z</time>
      </trkpt>
      <trkpt lat="41.66629" lon="41.68525">
        <ele>9.001718</ele>
        <time>2021-08-14T18:20:29.231Z</time>
      </trkpt>
      <trkpt lat="41.66656" lon="41.68545">
        <ele>9.195983</ele>
        <time>2021-08-14T18:20:38.361Z</time>
      </trkpt>
      <trkpt lat="41.66668" lon="41.68553">
        <ele>9.285584</ele>
        <time>2021-08-14T18:20:43.097Z</time>
      </trkpt>
      <trkpt lat="41.66679" lon="41.6856">
        <ele>9.360644</ele>
        <time>2021-08-14T18:20:47.177Z</time>
      </trkpt>
      <trkpt lat="41.66714" lon="41.68583">
        <ele>10.624459</ele>
        <time>2021-08-14T18:21:00.873Z</time>
      </trkpt>
      <trkpt lat="41.66723" lon="41.68589">
        <ele>11.055832</ele>
        <time>2021-08-14T18:21:04.639Z</time>
      </trkpt>
      <trkpt lat="41.66809" lon="41.68659">
        <ele>14.970319</ele>
        <time>2021-08-14T18:21:47.510Z</time>
      </trkpt>
      <trkpt lat="41.66877" lon="41.68714">
        <ele>18.256965</ele>
        <time>2021-08-14T18:22:26.611Z</time>
      </trkpt>
      <trkpt lat="41.66894" lon="41.68728">
        <ele>19.082262</ele>
        <time>2021-08-14T18:22:36.564Z</time>
      </trkpt>
      <trkpt lat="41.66938" lon="41.68763">
        <ele>21.228282</ele>
        <time>2021-08-14T18:22:58.426Z</time>
      </trkpt>
      <trkpt lat="41.66962" lon="41.68782">
        <ele>22.436085</ele>
        <time>2021-08-14T18:23:10.523Z</time>
      </trkpt>
      <trkpt lat="41.67095" lon="41.6887">
        <ele>26.189552</ele>
        <time>2021-08-14T18:24:05.409Z</time>
      </trkpt>
      <trkpt lat="41.6715" lon="41.68927">
        <ele>27.544617</ele>
        <time>2021-08-14T18:24:25.003Z</time>
      </trkpt>
      <trkpt lat="41.67165" lon="41.68951">
        <ele>26.833531</ele>
        <time>2021-08-14T18:24:29.674Z</time>
      </trkpt>
      <trkpt lat="41.67175" lon="41.68979">
        <ele>26.074071</ele>
        <time>2021-08-14T18:24:34.086Z</time>
      </trkpt>
      <trkpt lat="41.67178" lon="41.68997">
        <ele>25.629095</ele>
        <time>2021-08-14T18:24:36.426Z</time>
      </trkpt>
      <trkpt lat="41.67179" lon="41.69011">
        <ele>25.275723</ele>
        <time>2021-08-14T18:24:38.277Z</time>
      </trkpt>
      <trkpt lat="41.67178" lon="41.69048">
        <ele>24.368494</ele>
        <time>2021-08-14T18:24:42.809Z</time>
      </trkpt>
      <trkpt lat="41.67192" lon="41.69095">
        <ele>23.149382</ele>
        <time>2021-08-14T18:24:48.757Z</time>
      </trkpt>
      <trkpt lat="41.67204" lon="41.6911">
        <ele>22.577447</ele>
        <time>2021-08-14T18:24:51.507Z</time>
      </trkpt>
      <trkpt lat="41.67225" lon="41.69133">
        <ele>21.706227</ele>
        <time>2021-08-14T18:24:55.740Z</time>
      </trkpt>
      <trkpt lat="41.67251" lon="41.69161">
        <ele>20.675313</ele>
        <time>2021-08-14T18:25:01.075Z</time>
      </trkpt>
      <trkpt lat="41.67266" lon="41.69179">
        <ele>20.059033</ele>
        <time>2021-08-14T18:25:04.313Z</time>
      </trkpt>
      <trkpt lat="41.67289" lon="41.69205">
        <ele>19.133453</ele>
        <time>2021-08-14T18:25:09.246Z</time>
      </trkpt>
      <trkpt lat="41.67293" lon="41.69211">
        <ele>18.945131</ele>
        <time>2021-08-14T18:25:10.345Z</time>
      </trkpt>
      <trkpt lat="41.67318" lon="41.6924">
        <ele>17.933056</ele>
        <time>2021-08-14T18:25:15.962Z</time>
      </trkpt>
      <trkpt lat="41.67398" lon="41.69331">
        <ele>15.957005</ele>
        <time>2021-08-14T18:25:36.464Z</time>
      </trkpt>
      <trkpt lat="41.67426" lon="41.69362">
        <ele>15.819063</ele>
        <time>2021-08-14T18:25:46.288Z</time>
      </trkpt>
      <trkpt lat="41.67429" lon="41.69366">
        <ele>15.802335</ele>
        <time>2021-08-14T18:25:47.625Z</time>
      </trkpt>
      <trkpt lat="41.67447" lon="41.69387">
        <ele>15.70923</ele>
        <time>2021-08-14T18:25:53.358Z</time>
      </trkpt>
      <trkpt lat="41.6754" lon="41.69493">
        <ele>14.697967</ele>
        <time>2021-08-14T18:26:18.791Z</time>
      </trkpt>
      <trkpt lat="41.67588" lon="41.69548">
        <ele>13.826239</ele>
        <time>2021-08-14T18:26:30.320Z</time>
      </trkpt>
      <trkpt lat="41.67614" lon="41.69577">
        <ele>13.352285</ele>
        <time>2021-08-14T18:26:36.638Z</time>
      </trkpt>
      <trkpt lat="41.67644" lon="41.69609">
        <ele>12.863895</ele>
        <time>2021-08-14T18:26:43.833Z</time>
      </trkpt>
      <trkpt lat="41.67683" lon="41.69649">
        <ele>12.432999</ele>
        <time>2021-08-14T18:26:53.273Z</time>
      </trkpt>
      <trkpt lat="41.67689" lon="41.69655">
        <ele>12.364048</ele>
        <time>2021-08-14T18:26:54.789Z</time>
      </trkpt>
      <trkpt lat="41.67707" lon="41.69673">
        <ele>12.168986</ele>
        <time>2021-08-14T18:26:59.232Z</time>
      </trkpt>
      <trkpt lat="41.67725" lon="41.6969">
        <ele>11.971363</ele>
        <time>2021-08-14T18:27:03.962Z</time>
      </trkpt>
      <trkpt lat="41.67748" lon="41.6971">
        <ele>11.729818</ele>
        <time>2021-08-14T18:27:09.610Z</time>
      </trkpt>
      <trkpt lat="41.67756" lon="41.69716">
        <ele>11.652966</ele>
        <time>2021-08-14T18:27:11.533Z</time>
      </trkpt>
      <trkpt lat="41.67761" lon="41.69721">
        <ele>11.597291</ele>
        <time>2021-08-14T18:27:12.826Z</time>
      </trkpt>
      <trkpt lat="41.6777" lon="41.69728">
        <ele>11.509325</ele>
        <time>2021-08-14T18:27:14.890Z</time>
      </trkpt>
      <trkpt lat="41.67787" lon="41.69739">
        <ele>11.365162</ele>
        <time>2021-08-14T18:27:19.059Z</time>
      </trkpt>
      <trkpt lat="41.67803" lon="41.69746">
        <ele>11.404268</ele>
        <time>2021-08-14T18:27:22.604Z</time>
      </trkpt>
      <trkpt lat="41.67813" lon="41.69751">
        <ele>11.429283</ele>
        <time>2021-08-14T18:27:24.879Z</time>
      </trkpt>
      <trkpt lat="41.6782" lon="41.69754">
        <ele>11.446051</ele>
        <time>2021-08-14T18:27:26.579Z</time>
      </trkpt>
      <trkpt lat="41.67852" lon="41.69762">
        <ele>11.51979</ele>
        <time>2021-08-14T18:27:33.570Z</time>
      </trkpt>
      <trkpt lat="41.67855" lon="41.69762">
        <ele>11.528454</ele>
        <time>2021-08-14T18:27:34.546Z</time>
      </trkpt>
      <trkpt lat="41.67863" lon="41.69764">
        <ele>11.545621</ele>
        <time>2021-08-14T18:27:36.176Z</time>
      </trkpt>
      <trkpt lat="41.67917" lon="41.69779">
        <ele>11.672957</ele>
        <time>2021-08-14T18:27:49.057Z</time>
      </trkpt>
      <trkpt lat="41.67968" lon="41.69792">
        <ele>11.858956</ele>
        <time>2021-08-14T18:28:03.107Z</time>
      </trkpt>
      <trkpt lat="41.68037" lon="41.69816">
        <ele>12.609581</ele>
        <time>2021-08-14T18:28:22.803Z</time>
      </trkpt>
      <trkpt lat="41.68048" lon="41.69819">
        <ele>12.721102</ele>
        <time>2021-08-14T18:28:25.834Z</time>
      </trkpt>
      <trkpt lat="41.6808" lon="41.69836">
        <ele>13.084337</ele>
        <time>2021-08-14T18:28:35.689Z</time>
      </trkpt>
      <trkpt lat="41.68147" lon="41.69869">
        <ele>13.710702</ele>
        <time>2021-08-14T18:28:55.830Z</time>
      </trkpt>
      <trkpt lat="41.68248" lon="41.69932">
        <ele>14.047839</ele>
        <time>2021-08-14T18:29:22.777Z</time>
      </trkpt>
      <trkpt lat="41.68342" lon="41.70008">
        <ele>14.531867</ele>
        <time>2021-08-14T18:29:45.982Z</time>
      </trkpt>
      <trkpt lat="41.68387" lon="41.70044">
        <ele>14.829241</ele>
        <time>2021-08-14T18:29:58.806Z</time>
      </trkpt>
      <trkpt lat="41.68421" lon="41.7007">
        <ele>15.050541</ele>
        <time>2021-08-14T18:30:10.200Z</time>
      </trkpt>
      <trkpt lat="41.68477" lon="41.70113">
        <ele>15.58184</ele>
        <time>2021-08-14T18:30:29.022Z</time>
      </trkpt>
      <trkpt lat="41.68529" lon="41.70158">
        <ele>16.233011</ele>
        <time>2021-08-14T18:30:48.382Z</time>
      </trkpt>
      <trkpt lat="41.68553" lon="41.70182">
        <ele>16.551263</ele>
        <time>2021-08-14T18:30:57.036Z</time>
      </trkpt>
      <trkpt lat="41.68571" lon="41.70204">
        <ele>16.805166</ele>
        <time>2021-08-14T18:31:02.780Z</time>
      </trkpt>
      <trkpt lat="41.6859" lon="41.70228">
        <ele>17.081957</ele>
        <time>2021-08-14T18:31:09.465Z</time>
      </trkpt>
      <trkpt lat="41.68598" lon="41.70244">
        <ele>17.176243</ele>
        <time>2021-08-14T18:31:12.599Z</time>
      </trkpt>
      <trkpt lat="41.68607" lon="41.70294">
        <ele>17.390155</ele>
        <time>2021-08-14T18:31:20.571Z</time>
      </trkpt>
      <trkpt lat="41.68614" lon="41.70312">
        <ele>17.471911</ele>
        <time>2021-08-14T18:31:23.610Z</time>
      </trkpt>
      <trkpt lat="41.68623" lon="41.70327">
        <ele>17.556232</ele>
        <time>2021-08-14T18:31:26.373Z</time>
      </trkpt>
      <trkpt lat="41.68662" lon="41.70375">
        <ele>17.849781</ele>
        <time>2021-08-14T18:31:38.547Z</time>
      </trkpt>
      <trkpt lat="41.6868" lon="41.70415">
        <ele>18.044575</ele>
        <time>2021-08-14T18:31:48.819Z</time>
      </trkpt>
      <trkpt lat="41.68685" lon="41.70436">
        <ele>18.273687</ele>
        <time>2021-08-14T18:31:54.646Z</time>
      </trkpt>
      <trkpt lat="41.6869" lon="41.70469">
        <ele>19.411457</ele>
        <time>2021-08-14T18:32:04.148Z</time>
      </trkpt>
      <trkpt lat="41.68694" lon="41.70506">
        <ele>20.687591</ele>
        <time>2021-08-14T18:32:14.997Z</time>
      </trkpt>
      <trkpt lat="41.68696" lon="41.7053">
        <ele>21.516185</ele>
        <time>2021-08-14T18:32:23.640Z</time>
      </trkpt>
      <trkpt lat="41.68697" lon="41.70578">
        <ele>23.174956</ele>
        <time>2021-08-14T18:32:40.341Z</time>
      </trkpt>
      <trkpt lat="41.68698" lon="41.70689">
        <ele>27.307551</ele>
        <time>2021-08-14T18:33:23.364Z</time>
      </trkpt>
      <trkpt lat="41.68702" lon="41.70797">
        <ele>32.937556</ele>
        <time>2021-08-14T18:34:08.791Z</time>
      </trkpt>
      <trkpt lat="41.68726" lon="41.70929">
        <ele>40.293776</ele>
        <time>2021-08-14T18:35:08.312Z</time>
      </trkpt>
      <trkpt lat="41.68755" lon="41.71007">
        <ele>45.901144</ele>
        <time>2021-08-14T18:35:50.256Z</time>
      </trkpt>
      <trkpt lat="41.68825" lon="41.71146">
        <ele>56.907486</ele>
        <time>2021-08-14T18:37:15.432Z</time>
      </trkpt>
      <trkpt lat="41.68862" lon="41.71236">
        <ele>64.16128</ele>
        <time>2021-08-14T18:38:08.675Z</time>
      </trkpt>
      <trkpt lat="41.68878" lon="41.71298">
        <ele>68.78319</ele>
        <time>2021-08-14T18:38:42.750Z</time>
      </trkpt>
      <trkpt lat="41.68921" lon="41.71458">
        <ele>81.004931</ele>
        <time>2021-08-14T18:40:13.305Z</time>
      </trkpt>
      <trkpt lat="41.68944" lon="41.71535">
        <ele>87.034164</ele>
        <time>2021-08-14T18:40:58.314Z</time>
      </trkpt>
      <trkpt lat="41.68973" lon="41.71638">
        <ele>93.001786</ele>
        <time>2021-08-14T18:41:54.165Z</time>
      </trkpt>
      <trkpt lat="41.68986" lon="41.71676">
        <ele>95.047826</ele>
        <time>2021-08-14T18:42:12.739Z</time>
      </trkpt>
      <trkpt lat="41.69019" lon="41.71762">
        <ele>99.769805</ele>
        <time>2021-08-14T18:42:49.726Z</time>
      </trkpt>
      <trkpt lat="41.69321" lon="41.72412">
        <ele>105.499967</ele>
        <time>2021-08-14T18:45:25.594Z</time>
      </trkpt>
      <trkpt lat="41.69334" lon="41.72441">
        <ele>104.666949</ele>
        <time>2021-08-14T18:45:29.780Z</time>
      </trkpt>
      <trkpt lat="41.69376" lon="41.7251">
        <ele>102.501023</ele>
        <time>2021-08-14T18:45:40.692Z</time>
      </trkpt>
      <trkpt lat="41.69391" lon="41.7253">
        <ele>101.814915</ele>
        <time>2021-08-14T18:45:44.063Z</time>
      </trkpt>
      <trkpt lat="41.69396" lon="41.72538">
        <ele>101.550585</ele>
        <time>2021-08-14T18:45:45.385Z</time>
      </trkpt>
      <trkpt lat="41.6941" lon="41.72556">
        <ele>100.939901</ele>
        <time>2021-08-14T18:45:48.427Z</time>
      </trkpt>
      <trkpt lat="41.69452" lon="41.72604">
        <ele>98.898524</ele>
        <time>2021-08-14T18:45:57.485Z</time>
      </trkpt>
      <trkpt lat="41.69532" lon="41.72673">
        <ele>95.059911</ele>
        <time>2021-08-14T18:46:13.370Z</time>
      </trkpt>
      <trkpt lat="41.69567" lon="41.72697">
        <ele>93.4969</ele>
        <time>2021-08-14T18:46:20.098Z</time>
      </trkpt>
      <trkpt lat="41.69601" lon="41.72716">
        <ele>91.59181</ele>
        <time>2021-08-14T18:46:26.180Z</time>
      </trkpt>
      <trkpt lat="41.69722" lon="41.7276">
        <ele>84.475794</ele>
        <time>2021-08-14T18:46:45.482Z</time>
      </trkpt>
      <trkpt lat="41.69814" lon="41.728">
        <ele>77.762683</ele>
        <time>2021-08-14T18:46:59.947Z</time>
      </trkpt>
      <trkpt lat="41.69846" lon="41.72818">
        <ele>75.234953</ele>
        <time>2021-08-14T18:47:04.987Z</time>
      </trkpt>
      <trkpt lat="41.6992" lon="41.72877">
        <ele>68.781084</ele>
        <time>2021-08-14T18:47:17.759Z</time>
      </trkpt>
      <trkpt lat="41.70002" lon="41.72973">
        <ele>60.212511</ele>
        <time>2021-08-14T18:47:33.849Z</time>
      </trkpt>
      <trkpt lat="41.70037" lon="41.73029">
        <ele>55.914015</ele>
        <time>2021-08-14T18:47:41.881Z</time>
      </trkpt>
      <trkpt lat="41.70062" lon="41.73077">
        <ele>52.170246</ele>
        <time>2021-08-14T18:47:48.288Z</time>
      </trkpt>
      <trkpt lat="41.70095" lon="41.73158">
        <ele>46.267212</ele>
        <time>2021-08-14T18:47:58.157Z</time>
      </trkpt>
      <trkpt lat="41.70113" lon="41.73207">
        <ele>42.772142</ele>
        <time>2021-08-14T18:48:04.023Z</time>
      </trkpt>
      <trkpt lat="41.70137" lon="41.73272">
        <ele>38.777198</ele>
        <time>2021-08-14T18:48:11.992Z</time>
      </trkpt>
      <trkpt lat="41.70159" lon="41.73332">
        <ele>36.168945</ele>
        <time>2021-08-14T18:48:19.588Z</time>
      </trkpt>
      <trkpt lat="41.7017" lon="41.7336">
        <ele>34.927128</ele>
        <time>2021-08-14T18:48:23.290Z</time>
      </trkpt>
      <trkpt lat="41.70184" lon="41.73395">
        <ele>33.42332</ele>
        <time>2021-08-14T18:48:27.951Z</time>
      </trkpt>
      <trkpt lat="41.70206" lon="41.73441">
        <ele>31.274475</ele>
        <time>2021-08-14T18:48:34.903Z</time>
      </trkpt>
      <trkpt lat="41.70187" lon="41.73381">
        <ele>30.096022</ele>
        <time>2021-08-14T18:48:43.738Z</time>
      </trkpt>
      <trkpt lat="41.70174" lon="41.73344">
        <ele>29.766047</ele>
        <time>2021-08-14T18:48:50.023Z</time>
      </trkpt>
      <trkpt lat="41.70185" lon="41.73354">
        <ele>29.623442</ele>
        <time>2021-08-14T18:48:52.790Z</time>
      </trkpt>
      <trkpt lat="41.70201" lon="41.73356">
        <ele>29.457321</ele>
        <time>2021-08-14T18:48:56.112Z</time>
      </trkpt>
      <trkpt lat="41.70208" lon="41.73352">
        <ele>29.372423</ele>
        <time>2021-08-14T18:48:57.800Z</time>
      </trkpt>
      <trkpt lat="41.70208" lon="41.73394">
        <ele>29.034932</ele>
        <time>2021-08-14T18:49:04.488Z</time>
      </trkpt>
      <trkpt lat="41.70221" lon="41.73435">
        <ele>28.680794</ele>
        <time>2021-08-14T18:49:11.623Z</time>
      </trkpt>
      <trkpt lat="41.70241" lon="41.73481">
        <ele>28.155961</ele>
        <time>2021-08-14T18:49:19.767Z</time>
      </trkpt>
      <trkpt lat="41.70265" lon="41.73513">
        <ele>27.656029</ele>
        <time>2021-08-14T18:49:26.392Z</time>
      </trkpt>
      <trkpt lat="41.70305" lon="41.73552">
        <ele>26.924822</ele>
        <time>2021-08-14T18:49:35.887Z</time>
      </trkpt>
      <trkpt lat="41.70371" lon="41.736">
        <ele>25.788754</ele>
        <time>2021-08-14T18:49:49.575Z</time>
      </trkpt>
      <trkpt lat="41.70386" lon="41.73604">
        <ele>25.372275</ele>
        <time>2021-08-14T18:49:52.332Z</time>
      </trkpt>
      <trkpt lat="41.70413" lon="41.73601">
        <ele>24.62921</ele>
        <time>2021-08-14T18:49:57.279Z</time>
      </trkpt>
      <trkpt lat="41.70448" lon="41.73593">
        <ele>23.671583</ele>
        <time>2021-08-14T18:50:03.490Z</time>
      </trkpt>
      <trkpt lat="41.70495" lon="41.73582">
        <ele>22.390297</ele>
        <time>2021-08-14T18:50:11.595Z</time>
      </trkpt>
      <trkpt lat="41.70574" lon="41.73564">
        <ele>20.35205</ele>
        <time>2021-08-14T18:50:25.570Z</time>
      </trkpt>
      <trkpt lat="41.70607" lon="41.73553">
        <ele>19.596525</ele>
        <time>2021-08-14T18:50:31.568Z</time>
      </trkpt>
      <trkpt lat="41.70616" lon="41.73541">
        <ele>19.332285</ele>
        <time>2021-08-14T18:50:33.687Z</time>
      </trkpt>
      <trkpt lat="41.70797" lon="41.73392">
        <ele>15.329034</ele>
        <time>2021-08-14T18:51:13.522Z</time>
      </trkpt>
      <trkpt lat="41.70829" lon="41.73383">
        <ele>14.80719</ele>
        <time>2021-08-14T18:51:19.853Z</time>
      </trkpt>
      <trkpt lat="41.70904" lon="41.73375">
        <ele>13.772498</ele>
        <time>2021-08-14T18:51:34.274Z</time>
      </trkpt>
      <trkpt lat="41.70949" lon="41.7337">
        <ele>13.23436</ele>
        <time>2021-08-14T18:51:43.069Z</time>
      </trkpt>
      <trkpt lat="41.71029" lon="41.73362">
        <ele>12.294354</ele>
        <time>2021-08-14T18:51:58.752Z</time>
      </trkpt>
      <trkpt lat="41.71079" lon="41.73354">
        <ele>11.797654</ele>
        <time>2021-08-14T18:52:08.837Z</time>
      </trkpt>
      <trkpt lat="41.71223" lon="41.73288">
        <ele>10.48469</ele>
        <time>2021-08-14T18:52:39.051Z</time>
      </trkpt>
      <trkpt lat="41.71237" lon="41.73286">
        <ele>10.439774</ele>
        <time>2021-08-14T18:52:42.262Z</time>
      </trkpt>
      <trkpt lat="41.71246" lon="41.73288">
        <ele>10.407212</ele>
        <time>2021-08-14T18:52:44.832Z</time>
      </trkpt>
      <trkpt lat="41.7125" lon="41.7329">
        <ele>10.396162</ele>
        <time>2021-08-14T18:52:45.515Z</time>
      </trkpt>
      <trkpt lat="41.71255" lon="41.73292">
        <ele>10.378545</ele>
        <time>2021-08-14T18:52:46.578Z</time>
      </trkpt>
      <trkpt lat="41.71278" lon="41.73313">
        <ele>10.28742</ele>
        <time>2021-08-14T18:52:53.036Z</time>
      </trkpt>
      <trkpt lat="41.71292" lon="41.73327">
        <ele>10.231032</ele>
        <time>2021-08-14T18:52:56.528Z</time>
      </trkpt>
      <trkpt lat="41.71296" lon="41.73331">
        <ele>10.212874</ele>
        <time>2021-08-14T18:52:58.044Z</time>
      </trkpt>
      <trkpt lat="41.71308" lon="41.73342">
        <ele>10.166839</ele>
        <time>2021-08-14T18:53:01.372Z</time>
      </trkpt>
      <trkpt lat="41.71319" lon="41.73352">
        <ele>10.125001</ele>
        <time>2021-08-14T18:53:03.933Z</time>
      </trkpt>
      <trkpt lat="41.71335" lon="41.73366">
        <ele>10.061771</ele>
        <time>2021-08-14T18:53:08.254Z</time>
      </trkpt>
      <trkpt lat="41.71373" lon="41.73401">
        <ele>9.909468</ele>
        <time>2021-08-14T18:53:17.706Z</time>
      </trkpt>
      <trkpt lat="41.7138" lon="41.73404">
        <ele>9.871824</ele>
        <time>2021-08-14T18:53:19.238Z</time>
      </trkpt>
      <trkpt lat="41.71394" lon="41.73403">
        <ele>9.805121</ele>
        <time>2021-08-14T18:53:22.423Z</time>
      </trkpt>
      <trkpt lat="41.714" lon="41.73401">
        <ele>9.770875</ele>
        <time>2021-08-14T18:53:24.003Z</time>
      </trkpt>
      <trkpt lat="41.71419" lon="41.73393">
        <ele>9.673987</ele>
        <time>2021-08-14T18:53:28.259Z</time>
      </trkpt>
      <trkpt lat="41.71433" lon="41.73383">
        <ele>9.596449</ele>
        <time>2021-08-14T18:53:31.988Z</time>
      </trkpt>
      <trkpt lat="41.71447" lon="41.73369">
        <ele>9.508473</ele>
        <time>2021-08-14T18:53:36.072Z</time>
      </trkpt>
      <trkpt lat="41.71456" lon="41.73354">
        <ele>9.439672</ele>
        <time>2021-08-14T18:53:38.985Z</time>
      </trkpt>
      <trkpt lat="41.71465" lon="41.73338">
        <ele>9.364726</ele>
        <time>2021-08-14T18:53:42.322Z</time>
      </trkpt>
      <trkpt lat="41.71475" lon="41.73315">
        <ele>9.265194</ele>
        <time>2021-08-14T18:53:46.193Z</time>
      </trkpt>
      <trkpt lat="41.71486" lon="41.73292">
        <ele>9.168256</ele>
        <time>2021-08-14T18:53:50.196Z</time>
      </trkpt>
      <trkpt lat="41.71495" lon="41.73277">
        <ele>9.09829</ele>
        <time>2021-08-14T18:53:52.876Z</time>
      </trkpt>
      <trkpt lat="41.71503" lon="41.73266">
        <ele>9.040708</ele>
        <time>2021-08-14T18:53:55.162Z</time>
      </trkpt>
      <trkpt lat="41.71539" lon="41.73238">
        <ele>9.011693</ele>
        <time>2021-08-14T18:54:03.846Z</time>
      </trkpt>
      <trkpt lat="41.7155" lon="41.73236">
        <ele>9.007179</ele>
        <time>2021-08-14T18:54:06.265Z</time>
      </trkpt>
      <trkpt lat="41.71564" lon="41.73238">
        <ele>9.001924</ele>
        <time>2021-08-14T18:54:09.008Z</time>
      </trkpt>
      <trkpt lat="41.71583" lon="41.73246">
        <ele>8.993882</ele>
        <time>2021-08-14T18:54:13.955Z</time>
      </trkpt>
      <trkpt lat="41.71601" lon="41.73255">
        <ele>8.986399</ele>
        <time>2021-08-14T18:54:18.155Z</time>
      </trkpt>
      <trkpt lat="41.71672" lon="41.73291">
        <ele>8.956764</ele>
        <time>2021-08-14T18:54:37.650Z</time>
      </trkpt>
      <trkpt lat="41.71708" lon="41.7331">
        <ele>8.971079</ele>
        <time>2021-08-14T18:54:46.461Z</time>
      </trkpt>
      <trkpt lat="41.71793" lon="41.73327">
        <ele>9.00331</ele>
        <time>2021-08-14T18:55:05.184Z</time>
      </trkpt>
      <trkpt lat="41.71818" lon="41.73327">
        <ele>9.012813</ele>
        <time>2021-08-14T18:55:10.885Z</time>
      </trkpt>
      <trkpt lat="41.71859" lon="41.7333">
        <ele>9.009493</ele>
        <time>2021-08-14T18:55:19.753Z</time>
      </trkpt>
      <trkpt lat="41.71889" lon="41.73333">
        <ele>8.964206</ele>
        <time>2021-08-14T18:55:26.357Z</time>
      </trkpt>
      <trkpt lat="41.72027" lon="41.73336">
        <ele>8.758754</ele>
        <time>2021-08-14T18:55:55.923Z</time>
      </trkpt>
      <trkpt lat="41.72062" lon="41.73339">
        <ele>8.953647</ele>
        <time>2021-08-14T18:56:04.461Z</time>
      </trkpt>
      <trkpt lat="41.72094" lon="41.73343">
        <ele>9.145906</ele>
        <time>2021-08-14T18:56:12.258Z</time>
      </trkpt>
      <trkpt lat="41.7216" lon="41.73342">
        <ele>9.535909</ele>
        <time>2021-08-14T18:56:28.519Z</time>
      </trkpt>
      <trkpt lat="41.72219" lon="41.73333">
        <ele>10.071932</ele>
        <time>2021-08-14T18:56:43.396Z</time>
      </trkpt>
      <trkpt lat="41.72413" lon="41.73312">
        <ele>14.045999</ele>
        <time>2021-08-14T18:57:52.488Z</time>
      </trkpt>
      <trkpt lat="41.72458" lon="41.73306">
        <ele>14.287599</ele>
        <time>2021-08-14T18:58:07.069Z</time>
      </trkpt>
      <trkpt lat="41.72534" lon="41.73295">
        <ele>14.688485</ele>
        <time>2021-08-14T18:58:23.510Z</time>
      </trkpt>
      <trkpt lat="41.72564" lon="41.7329">
        <ele>14.853576</ele>
        <time>2021-08-14T18:58:29.777Z</time>
      </trkpt>
      <trkpt lat="41.72575" lon="41.73286">
        <ele>14.630356</ele>
        <time>2021-08-14T18:58:31.738Z</time>
      </trkpt>
      <trkpt lat="41.72595" lon="41.7328">
        <ele>14.065353</ele>
        <time>2021-08-14T18:58:35.861Z</time>
      </trkpt>
      <trkpt lat="41.72611" lon="41.73275">
        <ele>13.639497</ele>
        <time>2021-08-14T18:58:38.703Z</time>
      </trkpt>
      <trkpt lat="41.72638" lon="41.73266">
        <ele>12.9083</ele>
        <time>2021-08-14T18:58:43.567Z</time>
      </trkpt>
      <trkpt lat="41.7269" lon="41.73235">
        <ele>11.404706</ele>
        <time>2021-08-14T18:58:53.050Z</time>
      </trkpt>
      <trkpt lat="41.72729" lon="41.73179">
        <ele>10.005824</ele>
        <time>2021-08-14T18:59:02.685Z</time>
      </trkpt>
      <trkpt lat="41.72752" lon="41.73145">
        <ele>9.539511</ele>
        <time>2021-08-14T18:59:09.085Z</time>
      </trkpt>
      <trkpt lat="41.72765" lon="41.7313">
        <ele>9.31005</ele>
        <time>2021-08-14T18:59:12.424Z</time>
      </trkpt>
      <trkpt lat="41.728" lon="41.73113">
        <ele>8.802564</ele>
        <time>2021-08-14T18:59:19.842Z</time>
      </trkpt>
      <trkpt lat="41.7284" lon="41.73113">
        <ele>8.268079</ele>
        <time>2021-08-14T18:59:27.708Z</time>
      </trkpt>
      <trkpt lat="41.7298" lon="41.73136">
        <ele>7.558793</ele>
        <time>2021-08-14T18:59:57.029Z</time>
      </trkpt>
      <trkpt lat="41.73065" lon="41.73151">
        <ele>7.501951</ele>
        <time>2021-08-14T19:00:17.302Z</time>
      </trkpt>
      <trkpt lat="41.73106" lon="41.73163">
        <ele>7.977037</ele>
        <time>2021-08-14T19:00:28.432Z</time>
      </trkpt>
      <trkpt lat="41.73174" lon="41.7319">
        <ele>8.776609</ele>
        <time>2021-08-14T19:00:48.639Z</time>
      </trkpt>
      <trkpt lat="41.73301" lon="41.73249">
        <ele>10.143765</ele>
        <time>2021-08-14T19:01:28.053Z</time>
      </trkpt>
      <trkpt lat="41.73322" lon="41.73265">
        <ele>10.367967</ele>
        <time>2021-08-14T19:01:34.492Z</time>
      </trkpt>
      <trkpt lat="41.73363" lon="41.73286">
        <ele>10.770356</ele>
        <time>2021-08-14T19:01:45.603Z</time>
      </trkpt>
      <trkpt lat="41.73551" lon="41.73383">
        <ele>12.435858</ele>
        <time>2021-08-14T19:02:34.306Z</time>
      </trkpt>
      <trkpt lat="41.73676" lon="41.73444">
        <ele>15.965744</ele>
        <time>2021-08-14T19:03:20.902Z</time>
      </trkpt>
      <trkpt lat="41.73757" lon="41.73484">
        <ele>18.231122</ele>
        <time>2021-08-14T19:03:59.289Z</time>
      </trkpt>
      <trkpt lat="41.7382" lon="41.73521">
        <ele>19.243634</ele>
        <time>2021-08-14T19:04:24.415Z</time>
      </trkpt>
      <trkpt lat="41.73874" lon="41.73541">
        <ele>20.06174</ele>
        <time>2021-08-14T19:04:38.006Z</time>
      </trkpt>
      <trkpt lat="41.7392" lon="41.73554">
        <ele>20.519018</ele>
        <time>2021-08-14T19:04:47.301Z</time>
      </trkpt>
      <trkpt lat="41.73937" lon="41.7356">
        <ele>20.441509</ele>
        <time>2021-08-14T19:04:50.358Z</time>
      </trkpt>
      <trkpt lat="41.73973" lon="41.73579">
        <ele>20.276714</ele>
        <time>2021-08-14T19:04:58.394Z</time>
      </trkpt>
      <trkpt lat="41.74061" lon="41.73639">
        <ele>19.856742</ele>
        <time>2021-08-14T19:05:18.971Z</time>
      </trkpt>
      <trkpt lat="41.74083" lon="41.73654">
        <ele>19.909107</ele>
        <time>2021-08-14T19:05:24.044Z</time>
      </trkpt>
      <trkpt lat="41.74087" lon="41.73657">
        <ele>19.943386</ele>
        <time>2021-08-14T19:05:27.611Z</time>
      </trkpt>
      <trkpt lat="41.74181" lon="41.73731">
        <ele>20.810479</ele>
        <time>2021-08-14T19:06:02.004Z</time>
      </trkpt>
      <trkpt lat="41.74203" lon="41.73757">
        <ele>21.046831</ele>
        <time>2021-08-14T19:06:08.509Z</time>
      </trkpt>
      <trkpt lat="41.74254" lon="41.73847">
        <ele>20.403486</ele>
        <time>2021-08-14T19:06:25.354Z</time>
      </trkpt>
      <trkpt lat="41.74279" lon="41.73865">
        <ele>20.010837</ele>
        <time>2021-08-14T19:06:30.744Z</time>
      </trkpt>
      <trkpt lat="41.74284" lon="41.73868">
        <ele>19.943681</ele>
        <time>2021-08-14T19:06:31.510Z</time>
      </trkpt>
      <trkpt lat="41.74285" lon="41.73869">
        <ele>19.925551</ele>
        <time>2021-08-14T19:06:31.857Z</time>
      </trkpt>
      <trkpt lat="41.74343" lon="41.73901">
        <ele>19.057233</ele>
        <time>2021-08-14T19:06:43.656Z</time>
      </trkpt>
      <trkpt lat="41.74404" lon="41.73936">
        <ele>18.295597</ele>
        <time>2021-08-14T19:06:55.942Z</time>
      </trkpt>
      <trkpt lat="41.74433" lon="41.73954">
        <ele>17.968766</ele>
        <time>2021-08-14T19:07:01.934Z</time>
      </trkpt>
      <trkpt lat="41.74501" lon="41.73996">
        <ele>17.200565</ele>
        <time>2021-08-14T19:07:18.254Z</time>
      </trkpt>
      <trkpt lat="41.74573" lon="41.74053">
        <ele>16.692853</ele>
        <time>2021-08-14T19:07:34.898Z</time>
      </trkpt>
      <trkpt lat="41.7467" lon="41.74107">
        <ele>16.292088</ele>
        <time>2021-08-14T19:07:56.178Z</time>
      </trkpt>
      <trkpt lat="41.74673" lon="41.74108">
        <ele>16.280768</ele>
        <time>2021-08-14T19:07:56.639Z</time>
      </trkpt>
      <trkpt lat="41.74723" lon="41.74129">
        <ele>17.76817</ele>
        <time>2021-08-14T19:08:12.240Z</time>
      </trkpt>
      <trkpt lat="41.74758" lon="41.74142">
        <ele>19.367552</ele>
        <time>2021-08-14T19:08:25.981Z</time>
      </trkpt>
      <trkpt lat="41.74853" lon="41.74177">
        <ele>23.682222</ele>
        <time>2021-08-14T19:09:15.778Z</time>
      </trkpt>
      <trkpt lat="41.74994" lon="41.74243">
        <ele>34.604469</ele>
        <time>2021-08-14T19:10:49.736Z</time>
      </trkpt>
      <trkpt lat="41.75007" lon="41.74262">
        <ele>36.000881</ele>
        <time>2021-08-14T19:11:01.025Z</time>
      </trkpt>
      <trkpt lat="41.75024" lon="41.74316">
        <ele>38.647012</ele>
        <time>2021-08-14T19:11:26.227Z</time>
      </trkpt>
      <trkpt lat="41.75031" lon="41.74396">
        <ele>41.407123</ele>
        <time>2021-08-14T19:11:56.266Z</time>
      </trkpt>
      <trkpt lat="41.75041" lon="41.74421">
        <ele>42.358615</ele>
        <time>2021-08-14T19:12:05.232Z</time>
      </trkpt>
      <trkpt lat="41.75076" lon="41.74431">
        <ele>44.012218</ele>
        <time>2021-08-14T19:12:19.572Z</time>
      </trkpt>
      <trkpt lat="41.7512" lon="41.74452">
        <ele>45.998175</ele>
        <time>2021-08-14T19:12:36.084Z</time>
      </trkpt>
      <trkpt lat="41.75194" lon="41.7452">
        <ele>48.200905</ele>
        <time>2021-08-14T19:13:05.177Z</time>
      </trkpt>
      <trkpt lat="41.75206" lon="41.74546">
        <ele>48.741088</ele>
        <time>2021-08-14T19:13:12.725Z</time>
      </trkpt>
      <trkpt lat="41.75215" lon="41.74568">
        <ele>49.205047</ele>
        <time>2021-08-14T19:13:18.480Z</time>
      </trkpt>
      <trkpt lat="41.75225" lon="41.74595">
        <ele>49.753009</ele>
        <time>2021-08-14T19:13:26.433Z</time>
      </trkpt>
      <trkpt lat="41.75261" lon="41.74663">
        <ele>52.257824</ele>
        <time>2021-08-14T19:13:50.123Z</time>
      </trkpt>
      <trkpt lat="41.75279" lon="41.74711">
        <ele>54.165067</ele>
        <time>2021-08-14T19:14:08.044Z</time>
      </trkpt>
      <trkpt lat="41.75295" lon="41.74729">
        <ele>55.125672</ele>
        <time>2021-08-14T19:14:17.217Z</time>
      </trkpt>
      <trkpt lat="41.75367" lon="41.74781">
        <ele>59.175082</ele>
        <time>2021-08-14T19:14:58.712Z</time>
      </trkpt>
      <trkpt lat="41.75391" lon="41.74822">
        <ele>62.48976</ele>
        <time>2021-08-14T19:15:19.618Z</time>
      </trkpt>
      <trkpt lat="41.75436" lon="41.74853">
        <ele>66.714138</ele>
        <time>2021-08-14T19:15:52.577Z</time>
      </trkpt>
      <trkpt lat="41.75474" lon="41.74867">
        <ele>70.063958</ele>
        <time>2021-08-14T19:16:19.967Z</time>
      </trkpt>
      <trkpt lat="41.75488" lon="41.74877">
        <ele>71.423294</ele>
        <time>2021-08-14T19:16:30.828Z</time>
      </trkpt>
      <trkpt lat="41.75508" lon="41.74916">
        <ele>74.610057</ele>
        <time>2021-08-14T19:16:55.900Z</time>
      </trkpt>
      <trkpt lat="41.75514" lon="41.74935">
        <ele>76.439019</ele>
        <time>2021-08-14T19:17:06.756Z</time>
      </trkpt>
      <trkpt lat="41.75521" lon="41.74949">
        <ele>77.954395</ele>
        <time>2021-08-14T19:17:17.095Z</time>
      </trkpt>
      <trkpt lat="41.7554" lon="41.74989">
        <ele>82.234099</ele>
        <time>2021-08-14T19:17:44.501Z</time>
      </trkpt>
      <trkpt lat="41.75559" lon="41.75075">
        <ele>90.328105</ele>
        <time>2021-08-14T19:18:41.435Z</time>
      </trkpt>
      <trkpt lat="41.75592" lon="41.75125">
        <ele>96.315534</ele>
        <time>2021-08-14T19:19:28.422Z</time>
      </trkpt>
      <trkpt lat="41.75595" lon="41.75151">
        <ele>98.689299</ele>
        <time>2021-08-14T19:19:45.842Z</time>
      </trkpt>
      <trkpt lat="41.75586" lon="41.75212">
        <ele>104.378433</ele>
        <time>2021-08-14T19:20:26.804Z</time>
      </trkpt>
      <trkpt lat="41.75559" lon="41.75252">
        <ele>109.260227</ele>
        <time>2021-08-14T19:21:01.646Z</time>
      </trkpt>
      <trkpt lat="41.75554" lon="41.75265">
        <ele>110.543262</ele>
        <time>2021-08-14T19:21:11.008Z</time>
      </trkpt>
      <trkpt lat="41.75557" lon="41.75323">
        <ele>115.816939</ele>
        <time>2021-08-14T19:21:46.867Z</time>
      </trkpt>
      <trkpt lat="41.75532" lon="41.75431">
        <ele>120.492658</ele>
        <time>2021-08-14T19:22:39.415Z</time>
      </trkpt>
      <trkpt lat="41.75536" lon="41.75452">
        <ele>121.176631</ele>
        <time>2021-08-14T19:22:46.901Z</time>
      </trkpt>
      <trkpt lat="41.75574" lon="41.75534">
        <ele>124.293895</ele>
        <time>2021-08-14T19:23:08.384Z</time>
      </trkpt>
      <trkpt lat="41.75594" lon="41.75558">
        <ele>125.141662</ele>
        <time>2021-08-14T19:23:13.509Z</time>
      </trkpt>
      <trkpt lat="41.75603" lon="41.75567">
        <ele>125.098449</ele>
        <time>2021-08-14T19:23:15.867Z</time>
      </trkpt>
      <trkpt lat="41.75607" lon="41.7557">
        <ele>125.077193</ele>
        <time>2021-08-14T19:23:16.771Z</time>
      </trkpt>
      <trkpt lat="41.75628" lon="41.75587">
        <ele>124.979478</ele>
        <time>2021-08-14T19:23:22.205Z</time>
      </trkpt>
      <trkpt lat="41.75672" lon="41.75633">
        <ele>124.755745</ele>
        <time>2021-08-14T19:23:33.050Z</time>
      </trkpt>
      <trkpt lat="41.75688" lon="41.7566">
        <ele>124.651689</ele>
        <time>2021-08-14T19:23:38.187Z</time>
      </trkpt>
      <trkpt lat="41.75711" lon="41.75702">
        <ele>124.494056</ele>
        <time>2021-08-14T19:23:45.884Z</time>
      </trkpt>
      <trkpt lat="41.75728" lon="41.75726">
        <ele>124.745371</ele>
        <time>2021-08-14T19:23:52.997Z</time>
      </trkpt>
      <trkpt lat="41.75741" lon="41.75735">
        <ele>125.128953</ele>
        <time>2021-08-14T19:23:57.026Z</time>
      </trkpt>
      <trkpt lat="41.75769" lon="41.75737">
        <ele>125.879651</ele>
        <time>2021-08-14T19:24:06.829Z</time>
      </trkpt>
      <trkpt lat="41.7578" lon="41.75746">
        <ele>126.196488</ele>
        <time>2021-08-14T19:24:10.959Z</time>
      </trkpt>
      <trkpt lat="41.7579" lon="41.75779">
        <ele>126.903391</ele>
        <time>2021-08-14T19:24:21.028Z</time>
      </trkpt>
      <trkpt lat="41.75807" lon="41.75909">
        <ele>129.235176</ele>
        <time>2021-08-14T19:25:01.930Z</time>
      </trkpt>
      <trkpt lat="41.75816" lon="41.75931">
        <ele>129.379908</ele>
        <time>2021-08-14T19:25:09.627Z</time>
      </trkpt>
      <trkpt lat="41.75828" lon="41.75954">
        <ele>129.534747</ele>
        <time>2021-08-14T19:25:15.755Z</time>
      </trkpt>
      <trkpt lat="41.7584" lon="41.7597">
        <ele>129.670503</ele>
        <time>2021-08-14T19:25:23.007Z</time>
      </trkpt>
      <trkpt lat="41.75855" lon="41.75977">
        <ele>129.786412</ele>
        <time>2021-08-14T19:25:26.804Z</time>
      </trkpt>
      <trkpt lat="41.75872" lon="41.75975">
        <ele>129.918455</ele>
        <time>2021-08-14T19:25:31.006Z</time>
      </trkpt>
      <trkpt lat="41.75959" lon="41.75941">
        <ele>129.908092</ele>
        <time>2021-08-14T19:25:48.905Z</time>
      </trkpt>
      <trkpt lat="41.75993" lon="41.75951">
        <ele>128.26897</ele>
        <time>2021-08-14T19:25:55.178Z</time>
      </trkpt>
      <trkpt lat="41.76015" lon="41.75948">
        <ele>127.191652</ele>
        <time>2021-08-14T19:25:58.776Z</time>
      </trkpt>
      <trkpt lat="41.76035" lon="41.75942">
        <ele>126.221971</ele>
        <time>2021-08-14T19:26:02.052Z</time>
      </trkpt>
      <trkpt lat="41.76057" lon="41.75945">
        <ele>125.158902</ele>
        <time>2021-08-14T19:26:05.563Z</time>
      </trkpt>
      <trkpt lat="41.76115" lon="41.75973">
        <ele>122.234505</ele>
        <time>2021-08-14T19:26:14.834Z</time>
      </trkpt>
      <trkpt lat="41.76135" lon="41.75975">
        <ele>120.659874</ele>
        <time>2021-08-14T19:26:17.817Z</time>
      </trkpt>
      <trkpt lat="41.76168" lon="41.75961">
        <ele>117.418592</ele>
        <time>2021-08-14T19:26:22.906Z</time>
      </trkpt>
      <trkpt lat="41.76193" lon="41.75934">
        <ele>114.442062</ele>
        <time>2021-08-14T19:26:27.627Z</time>
      </trkpt>
      <trkpt lat="41.76205" lon="41.75913">
        <ele>112.661817</ele>
        <time>2021-08-14T19:26:30.417Z</time>
      </trkpt>
      <trkpt lat="41.76225" lon="41.7584">
        <ele>107.314703</ele>
        <time>2021-08-14T19:26:38.639Z</time>
      </trkpt>
      <trkpt lat="41.76255" lon="41.75768">
        <ele>101.279844</ele>
        <time>2021-08-14T19:26:47.297Z</time>
      </trkpt>
      <trkpt lat="41.76254" lon="41.75748">
        <ele>99.784605</ele>
        <time>2021-08-14T19:26:49.371Z</time>
      </trkpt>
      <trkpt lat="41.76239" lon="41.75696">
        <ele>95.550975</ele>
        <time>2021-08-14T19:26:55.284Z</time>
      </trkpt>
      <trkpt lat="41.76239" lon="41.75645">
        <ele>91.708848</ele>
        <time>2021-08-14T19:27:00.672Z</time>
      </trkpt>
      <trkpt lat="41.76251" lon="41.75543">
        <ele>85.731375</ele>
        <time>2021-08-14T19:27:11.878Z</time>
      </trkpt>
      <trkpt lat="41.76237" lon="41.75458">
        <ele>82.722635</ele>
        <time>2021-08-14T19:27:22.143Z</time>
      </trkpt>
      <trkpt lat="41.76235" lon="41.75442">
        <ele>82.131152</ele>
        <time>2021-08-14T19:27:24.028Z</time>
      </trkpt>
      <trkpt lat="41.76237" lon="41.75424">
        <ele>81.508704</ele>
        <time>2021-08-14T19:27:27.526Z</time>
      </trkpt>
      <trkpt lat="41.76245" lon="41.75395">
        <ele>80.419389</ele>
        <time>2021-08-14T19:27:31.315Z</time>
      </trkpt>
      <trkpt lat="41.76253" lon="41.75383">
        <ele>79.874553</ele>
        <time>2021-08-14T19:27:34.946Z</time>
      </trkpt>
      <trkpt lat="41.76273" lon="41.75367">
        <ele>78.833095</ele>
        <time>2021-08-14T19:27:38.871Z</time>
      </trkpt>
      <trkpt lat="41.76294" lon="41.75365">
        <ele>78.49569</ele>
        <time>2021-08-14T19:27:44.625Z</time>
      </trkpt>
      <trkpt lat="41.76321" lon="41.7538">
        <ele>78.041703</ele>
        <time>2021-08-14T19:27:50.249Z</time>
      </trkpt>
      <trkpt lat="41.76366" lon="41.7543">
        <ele>77.122036</ele>
        <time>2021-08-14T19:28:01.434Z</time>
      </trkpt>
      <trkpt lat="41.764" lon="41.75452">
        <ele>76.524118</ele>
        <time>2021-08-14T19:28:08.596Z</time>
      </trkpt>
      <trkpt lat="41.76415" lon="41.75453">
        <ele>76.297329</ele>
        <time>2021-08-14T19:28:11.303Z</time>
      </trkpt>
      <trkpt lat="41.76482" lon="41.75384">
        <ele>74.212511</ele>
        <time>2021-08-14T19:28:26.728Z</time>
      </trkpt>
      <trkpt lat="41.76562" lon="41.75337">
        <ele>71.853934</ele>
        <time>2021-08-14T19:28:41.657Z</time>
      </trkpt>
      <trkpt lat="41.76579" lon="41.75332">
        <ele>71.3898</ele>
        <time>2021-08-14T19:28:44.579Z</time>
      </trkpt>
      <trkpt lat="41.76586" lon="41.7534">
        <ele>71.144067</ele>
        <time>2021-08-14T19:28:46.142Z</time>
      </trkpt>
      <trkpt lat="41.76581" lon="41.75355">
        <ele>70.799398</ele>
        <time>2021-08-14T19:28:48.271Z</time>
      </trkpt>
      <trkpt lat="41.76506" lon="41.75414">
        <ele>68.31914</ele>
        <time>2021-08-14T19:29:03.750Z</time>
      </trkpt>
      <trkpt lat="41.7648" lon="41.75448">
        <ele>67.292624</ele>
        <time>2021-08-14T19:29:10.026Z</time>
      </trkpt>
      <trkpt lat="41.76462" lon="41.75504">
        <ele>66.005207</ele>
        <time>2021-08-14T19:29:17.842Z</time>
      </trkpt>
      <trkpt lat="41.76463" lon="41.75519">
        <ele>65.716132</ele>
        <time>2021-08-14T19:29:19.744Z</time>
      </trkpt>
      <trkpt lat="41.76476" lon="41.75527">
        <ele>65.345893</ele>
        <time>2021-08-14T19:29:22.184Z</time>
      </trkpt>
      <trkpt lat="41.76501" lon="41.75513">
        <ele>64.648272</ele>
        <time>2021-08-14T19:29:26.785Z</time>
      </trkpt>
      <trkpt lat="41.76626" lon="41.75413">
        <ele>60.806316</ele>
        <time>2021-08-14T19:29:52.981Z</time>
      </trkpt>
      <trkpt lat="41.76649" lon="41.75389">
        <ele>59.969519</ele>
        <time>2021-08-14T19:29:58.168Z</time>
      </trkpt>
      <trkpt lat="41.76672" lon="41.75364">
        <ele>59.09447</ele>
        <time>2021-08-14T19:30:03.692Z</time>
      </trkpt>
      <trkpt lat="41.76687" lon="41.75359">
        <ele>58.648335</ele>
        <time>2021-08-14T19:30:06.206Z</time>
      </trkpt>
      <trkpt lat="41.7671" lon="41.75361">
        <ele>57.970549</ele>
        <time>2021-08-14T19:30:10.305Z</time>
      </trkpt>
      <trkpt lat="41.7672" lon="41.75371">
        <ele>57.607518</ele>
        <time>2021-08-14T19:30:12.345Z</time>
      </trkpt>
      <trkpt lat="41.76729" lon="41.75382">
        <ele>57.265212</ele>
        <time>2021-08-14T19:30:14.443Z</time>
      </trkpt>
      <trkpt lat="41.76748" lon="41.75415">
        <ele>56.349412</ele>
        <time>2021-08-14T19:30:19.689Z</time>
      </trkpt>
      <trkpt lat="41.76758" lon="41.75429">
        <ele>55.704415</ele>
        <time>2021-08-14T19:30:22.232Z</time>
      </trkpt>
      <trkpt lat="41.76766" lon="41.75439">
        <ele>55.102068</ele>
        <time>2021-08-14T19:30:23.882Z</time>
      </trkpt>
      <trkpt lat="41.76792" lon="41.75456">
        <ele>53.49066</ele>
        <time>2021-08-14T19:30:28.820Z</time>
      </trkpt>
      <trkpt lat="41.76901" lon="41.75484">
        <ele>47.274718</ele>
        <time>2021-08-14T19:30:45.833Z</time>
      </trkpt>
      <trkpt lat="41.76979" lon="41.75551">
        <ele>41.476499</ele>
        <time>2021-08-14T19:30:59.764Z</time>
      </trkpt>
      <trkpt lat="41.77005" lon="41.75563">
        <ele>39.746857</ele>
        <time>2021-08-14T19:31:03.921Z</time>
      </trkpt>
      <trkpt lat="41.77011" lon="41.75566">
        <ele>39.344351</ele>
        <time>2021-08-14T19:31:04.826Z</time>
      </trkpt>
      <trkpt lat="41.77041" lon="41.75579">
        <ele>37.279594</ele>
        <time>2021-08-14T19:31:09.774Z</time>
      </trkpt>
      <trkpt lat="41.77146" lon="41.75636">
        <ele>30.967043</ele>
        <time>2021-08-14T19:31:27.099Z</time>
      </trkpt>
      <trkpt lat="41.77217" lon="41.75638">
        <ele>27.341093</ele>
        <time>2021-08-14T19:31:38.390Z</time>
      </trkpt>
      <trkpt lat="41.77248" lon="41.75649">
        <ele>25.711358</ele>
        <time>2021-08-14T19:31:43.561Z</time>
      </trkpt>
      <trkpt lat="41.77351" lon="41.75729">
        <ele>21.466321</ele>
        <time>2021-08-14T19:32:03.608Z</time>
      </trkpt>
      <trkpt lat="41.77386" lon="41.75765">
        <ele>19.919621</ele>
        <time>2021-08-14T19:32:11.259Z</time>
      </trkpt>
      <trkpt lat="41.77428" lon="41.75814">
        <ele>18.433737</ele>
        <time>2021-08-14T19:32:20.664Z</time>
      </trkpt>
      <trkpt lat="41.77524" lon="41.75921">
        <ele>15.758213</ele>
        <time>2021-08-14T19:32:43.150Z</time>
      </trkpt>
      <trkpt lat="41.77552" lon="41.75949">
        <ele>15.362451</ele>
        <time>2021-08-14T19:32:50.039Z</time>
      </trkpt>
      <trkpt lat="41.77638" lon="41.76033">
        <ele>15.969421</ele>
        <time>2021-08-14T19:33:18.136Z</time>
      </trkpt>
      <trkpt lat="41.77743" lon="41.76136">
        <ele>15.633056</ele>
        <time>2021-08-14T19:33:55.361Z</time>
      </trkpt>
      <trkpt lat="41.77848" lon="41.7624">
        <ele>13.930377</ele>
        <time>2021-08-14T19:34:18.866Z</time>
      </trkpt>
      <trkpt lat="41.77897" lon="41.76289">
        <ele>11.957095</ele>
        <time>2021-08-14T19:34:29.027Z</time>
      </trkpt>
      <trkpt lat="41.77899" lon="41.76291">
        <ele>11.894979</ele>
        <time>2021-08-14T19:34:29.296Z</time>
      </trkpt>
      <trkpt lat="41.77904" lon="41.76296">
        <ele>11.68466</ele>
        <time>2021-08-14T19:34:30.424Z</time>
      </trkpt>
      <trkpt lat="41.77911" lon="41.76302">
        <ele>11.413313</ele>
        <time>2021-08-14T19:34:31.889Z</time>
      </trkpt>
      <trkpt lat="41.77921" lon="41.76311">
        <ele>11.014299</ele>
        <time>2021-08-14T19:34:33.945Z</time>
      </trkpt>
      <trkpt lat="41.77996" lon="41.76358">
        <ele>8.601717</ele>
        <time>2021-08-14T19:34:48.148Z</time>
      </trkpt>
      <trkpt lat="41.78061" lon="41.76386">
        <ele>7.586881</ele>
        <time>2021-08-14T19:35:00.665Z</time>
      </trkpt>
      <trkpt lat="41.78197" lon="41.7644">
        <ele>6.114326</ele>
        <time>2021-08-14T19:35:29.251Z</time>
      </trkpt>
      <trkpt lat="41.78233" lon="41.76455">
        <ele>6.109728</ele>
        <time>2021-08-14T19:35:37.647Z</time>
      </trkpt>
      <trkpt lat="41.78292" lon="41.76478">
        <ele>6.102125</ele>
        <time>2021-08-14T19:35:53.025Z</time>
      </trkpt>
      <trkpt lat="41.78297" lon="41.7648">
        <ele>6.101547</ele>
        <time>2021-08-14T19:35:53.971Z</time>
      </trkpt>
      <trkpt lat="41.78415" lon="41.76529">
        <ele>6.108956</ele>
        <time>2021-08-14T19:36:23.223Z</time>
      </trkpt>
      <trkpt lat="41.78519" lon="41.76571">
        <ele>5.984885</ele>
        <time>2021-08-14T19:36:46.806Z</time>
      </trkpt>
      <trkpt lat="41.78629" lon="41.76616">
        <ele>5.202379</ele>
        <time>2021-08-14T19:37:09.750Z</time>
      </trkpt>
      <trkpt lat="41.78639" lon="41.7662">
        <ele>5.135819</ele>
        <time>2021-08-14T19:37:11.641Z</time>
      </trkpt>
      <trkpt lat="41.78829" lon="41.76698">
        <ele>4.520648</ele>
        <time>2021-08-14T19:37:54.725Z</time>
      </trkpt>
      <trkpt lat="41.78901" lon="41.76729">
        <ele>4.288572</ele>
        <time>2021-08-14T19:38:11.411Z</time>
      </trkpt>
      <trkpt lat="41.78973" lon="41.76767">
        <ele>4.039143</ele>
        <time>2021-08-14T19:38:27.785Z</time>
      </trkpt>
      <trkpt lat="41.79034" lon="41.768">
        <ele>3.833948</ele>
        <time>2021-08-14T19:38:41.379Z</time>
      </trkpt>
      <trkpt lat="41.79136" lon="41.76859">
        <ele>3.501218</ele>
        <time>2021-08-14T19:39:04.919Z</time>
      </trkpt>
      <trkpt lat="41.7925" lon="41.76934">
        <ele>3.583176</ele>
        <time>2021-08-14T19:39:33.443Z</time>
      </trkpt>
      <trkpt lat="41.79408" lon="41.77038">
        <ele>4.012538</ele>
        <time>2021-08-14T19:40:16.784Z</time>
      </trkpt>
      <trkpt lat="41.79539" lon="41.77108">
        <ele>4.026027</ele>
        <time>2021-08-14T19:40:48.630Z</time>
      </trkpt>
      <trkpt lat="41.79578" lon="41.77131">
        <ele>3.799983</ele>
        <time>2021-08-14T19:40:57.566Z</time>
      </trkpt>
      <trkpt lat="41.79671" lon="41.77197">
        <ele>3.21344</ele>
        <time>2021-08-14T19:41:18.880Z</time>
      </trkpt>
      <trkpt lat="41.79798" lon="41.77272">
        <ele>1.920878</ele>
        <time>2021-08-14T19:41:46.213Z</time>
      </trkpt>
      <trkpt lat="41.79865" lon="41.7731">
        <ele>1.690934</ele>
        <time>2021-08-14T19:42:01.194Z</time>
      </trkpt>
      <trkpt lat="41.79914" lon="41.77343">
        <ele>1.814065</ele>
        <time>2021-08-14T19:42:13.455Z</time>
      </trkpt>
      <trkpt lat="41.79997" lon="41.77399">
        <ele>2.077736</ele>
        <time>2021-08-14T19:42:37.298Z</time>
      </trkpt>
      <trkpt lat="41.80028" lon="41.77417">
        <ele>2.44127</ele>
        <time>2021-08-14T19:42:46.814Z</time>
      </trkpt>
      <trkpt lat="41.80142" lon="41.77493">
        <ele>3.836908</ele>
        <time>2021-08-14T19:43:23.258Z</time>
      </trkpt>
      <trkpt lat="41.8019" lon="41.77524">
        <ele>4.016994</ele>
        <time>2021-08-14T19:43:37.033Z</time>
      </trkpt>
      <trkpt lat="41.80233" lon="41.77549">
        <ele>4.066</ele>
        <time>2021-08-14T19:43:47.845Z</time>
      </trkpt>
      <trkpt lat="41.80298" lon="41.77583">
        <ele>4.139955</ele>
        <time>2021-08-14T19:44:03.004Z</time>
      </trkpt>
      <trkpt lat="41.80317" lon="41.77593">
        <ele>4.16183</ele>
        <time>2021-08-14T19:44:07.417Z</time>
      </trkpt>
      <trkpt lat="41.80332" lon="41.77601">
        <ele>4.082515</ele>
        <time>2021-08-14T19:44:10.618Z</time>
      </trkpt>
      <trkpt lat="41.80409" lon="41.77644">
        <ele>3.584222</ele>
        <time>2021-08-14T19:44:27.895Z</time>
      </trkpt>
      <trkpt lat="41.80429" lon="41.77656">
        <ele>3.453476</ele>
        <time>2021-08-14T19:44:32.406Z</time>
      </trkpt>
      <trkpt lat="41.80448" lon="41.77667">
        <ele>3.330739</ele>
        <time>2021-08-14T19:44:36.609Z</time>
      </trkpt>
      <trkpt lat="41.80497" lon="41.77565">
        <ele>2.916727</ele>
        <time>2021-08-14T19:44:56.150Z</time>
      </trkpt>
      <trkpt lat="41.80504" lon="41.77557">
        <ele>2.884127</ele>
        <time>2021-08-14T19:44:58.190Z</time>
      </trkpt>
      <trkpt lat="41.80568" lon="41.77531">
        <ele>2.650767</ele>
        <time>2021-08-14T19:45:12.886Z</time>
      </trkpt>
      <trkpt lat="41.80593" lon="41.77515">
        <ele>2.554188</ele>
        <time>2021-08-14T19:45:19.100Z</time>
      </trkpt>
      <trkpt lat="41.80659" lon="41.77467">
        <ele>2.642866</ele>
        <time>2021-08-14T19:45:36.667Z</time>
      </trkpt>
      <trkpt lat="41.80688" lon="41.77438">
        <ele>2.774223</ele>
        <time>2021-08-14T19:45:45.729Z</time>
      </trkpt>
      <trkpt lat="41.80705" lon="41.77446">
        <ele>2.837418</ele>
        <time>2021-08-14T19:45:50.488Z</time>
      </trkpt>
      <trkpt lat="41.80809" lon="41.77492">
        <ele>3.24081</ele>
        <time>2021-08-14T19:46:18.724Z</time>
      </trkpt>
      <trkpt lat="41.80845" lon="41.77508">
        <ele>3.388293</ele>
        <time>2021-08-14T19:46:28.757Z</time>
      </trkpt>
      <trkpt lat="41.8091" lon="41.77537">
        <ele>3.648638</ele>
        <time>2021-08-14T19:46:45.564Z</time>
      </trkpt>
      <trkpt lat="41.8094" lon="41.77547">
        <ele>3.766626</ele>
        <time>2021-08-14T19:46:53.124Z</time>
      </trkpt>
      <trkpt lat="41.81074" lon="41.77603">
        <ele>4.01859</ele>
        <time>2021-08-14T19:47:27.085Z</time>
      </trkpt>
      <trkpt lat="41.8111" lon="41.77611">
        <ele>4.078818</ele>
        <time>2021-08-14T19:47:35.884Z</time>
      </trkpt>
      <trkpt lat="41.81123" lon="41.77612">
        <ele>4.09218</ele>
        <time>2021-08-14T19:47:39.167Z</time>
      </trkpt>
      <trkpt lat="41.81151" lon="41.77617">
        <ele>3.894712</ele>
        <time>2021-08-14T19:47:45.526Z</time>
      </trkpt>
      <trkpt lat="41.81172" lon="41.77621">
        <ele>3.744593</ele>
        <time>2021-08-14T19:47:50.194Z</time>
      </trkpt>
      <trkpt lat="41.81217" lon="41.77631">
        <ele>3.414402</ele>
        <time>2021-08-14T19:48:00.098Z</time>
      </trkpt>
      <trkpt lat="41.81279" lon="41.7764">
        <ele>2.968266</ele>
        <time>2021-08-14T19:48:12.817Z</time>
      </trkpt>
      <trkpt lat="41.81315" lon="41.77589">
        <ele>2.632888</ele>
        <time>2021-08-14T19:48:22.952Z</time>
      </trkpt>
      <trkpt lat="41.81346" lon="41.77545">
        <ele>2.360717</ele>
        <time>2021-08-14T19:48:32.265Z</time>
      </trkpt>
      <trkpt lat="41.81364" lon="41.77526">
        <ele>2.221347</ele>
        <time>2021-08-14T19:48:36.851Z</time>
      </trkpt>
      <trkpt lat="41.81399" lon="41.77491">
        <ele>1.960137</ele>
        <time>2021-08-14T19:48:46.005Z</time>
      </trkpt>
      <trkpt lat="41.81499" lon="41.77416">
        <ele>2.322207</ele>
        <time>2021-08-14T19:49:12.206Z</time>
      </trkpt>
      <trkpt lat="41.81528" lon="41.774">
        <ele>2.564451</ele>
        <time>2021-08-14T19:49:21.077Z</time>
      </trkpt>
      <trkpt lat="41.81542" lon="41.77398">
        <ele>2.667614</ele>
        <time>2021-08-14T19:49:25.149Z</time>
      </trkpt>
      <trkpt lat="41.81631" lon="41.77411">
        <ele>3.443144</ele>
        <time>2021-08-14T19:49:50.930Z</time>
      </trkpt>
      <trkpt lat="41.81639" lon="41.77412">
        <ele>3.522273</ele>
        <time>2021-08-14T19:49:53.207Z</time>
      </trkpt>
      <trkpt lat="41.81741" lon="41.77427">
        <ele>4.584879</ele>
        <time>2021-08-14T19:50:20.787Z</time>
      </trkpt>
      <trkpt lat="41.81853" lon="41.77442">
        <ele>5.654764</ele>
        <time>2021-08-14T19:50:51.204Z</time>
      </trkpt>
      <trkpt lat="41.81989" lon="41.77466">
        <ele>6.701951</ele>
        <time>2021-08-14T19:51:27.428Z</time>
      </trkpt>
      <trkpt lat="41.81998" lon="41.77468">
        <ele>6.732827</ele>
        <time>2021-08-14T19:51:30.213Z</time>
      </trkpt>
      <trkpt lat="41.82032" lon="41.77482">
        <ele>6.844027</ele>
        <time>2021-08-14T19:51:39.221Z</time>
      </trkpt>
      <trkpt lat="41.82042" lon="41.77487">
        <ele>6.876572</ele>
        <time>2021-08-14T19:51:42.017Z</time>
      </trkpt>
      <trkpt lat="41.82093" lon="41.77514">
        <ele>7.0464</ele>
        <time>2021-08-14T19:51:54.637Z</time>
      </trkpt>
      <trkpt lat="41.82107" lon="41.77523">
        <ele>7.093186</ele>
        <time>2021-08-14T19:51:58.193Z</time>
      </trkpt>
      <trkpt lat="41.82166" lon="41.77542">
        <ele>6.742898</ele>
        <time>2021-08-14T19:52:10.912Z</time>
      </trkpt>
      <trkpt lat="41.82229" lon="41.77554">
        <ele>6.062585</ele>
        <time>2021-08-14T19:52:23.303Z</time>
      </trkpt>
      <trkpt lat="41.82289" lon="41.77565">
        <ele>5.423302</ele>
        <time>2021-08-14T19:52:34.628Z</time>
      </trkpt>
      <trkpt lat="41.82358" lon="41.77572">
        <ele>5.034928</ele>
        <time>2021-08-14T19:52:48.304Z</time>
      </trkpt>
      <trkpt lat="41.82416" lon="41.77579">
        <ele>4.797112</ele>
        <time>2021-08-14T19:53:00.506Z</time>
      </trkpt>
      <trkpt lat="41.825" lon="41.77586">
        <ele>4.666716</ele>
        <time>2021-08-14T19:53:19.982Z</time>
      </trkpt>
      <trkpt lat="41.82613" lon="41.77601">
        <ele>5.71466</ele>
        <time>2021-08-14T19:53:50.606Z</time>
      </trkpt>
      <trkpt lat="41.82648" lon="41.77606">
        <ele>6.040299</ele>
        <time>2021-08-14T19:54:00.579Z</time>
      </trkpt>
      <trkpt lat="41.82728" lon="41.77619">
        <ele>6.965344</ele>
        <time>2021-08-14T19:54:23.777Z</time>
      </trkpt>
      <trkpt lat="41.82863" lon="41.77643">
        <ele>8.372786</ele>
        <time>2021-08-14T19:55:02.558Z</time>
      </trkpt>
      <trkpt lat="41.82897" lon="41.7765">
        <ele>8.41996</ele>
        <time>2021-08-14T19:55:11.172Z</time>
      </trkpt>
      <trkpt lat="41.82909" lon="41.77652">
        <ele>8.437184</ele>
        <time>2021-08-14T19:55:14.239Z</time>
      </trkpt>
      <trkpt lat="41.8296" lon="41.77661">
        <ele>8.50648</ele>
        <time>2021-08-14T19:55:25.445Z</time>
      </trkpt>
      <trkpt lat="41.83041" lon="41.77677">
        <ele>8.445125</ele>
        <time>2021-08-14T19:55:42.664Z</time>
      </trkpt>
      <trkpt lat="41.8311" lon="41.77687">
        <ele>7.973511</ele>
        <time>2021-08-14T19:55:56.583Z</time>
      </trkpt>
      <trkpt lat="41.83253" lon="41.77711">
        <ele>7.283457</ele>
        <time>2021-08-14T19:56:26.232Z</time>
      </trkpt>
      <trkpt lat="41.83423" lon="41.77737">
        <ele>7.256001</ele>
        <time>2021-08-14T19:57:04.741Z</time>
      </trkpt>
      <trkpt lat="41.8359" lon="41.77765">
        <ele>7.794207</ele>
        <time>2021-08-14T19:57:46.384Z</time>
      </trkpt>
      <trkpt lat="41.83706" lon="41.77783">
        <ele>8.029458</ele>
        <time>2021-08-14T19:58:13.958Z</time>
      </trkpt>
      <trkpt lat="41.83753" lon="41.7779">
        <ele>7.982143</ele>
        <time>2021-08-14T19:58:24.112Z</time>
      </trkpt>
      <trkpt lat="41.83851" lon="41.77803">
        <ele>7.438402</ele>
        <time>2021-08-14T19:58:44.309Z</time>
      </trkpt>
      <trkpt lat="41.83911" lon="41.77811">
        <ele>7.102537</ele>
        <time>2021-08-14T19:58:56.485Z</time>
      </trkpt>
      <trkpt lat="41.84142" lon="41.77842">
        <ele>6.023175</ele>
        <time>2021-08-14T19:59:45.082Z</time>
      </trkpt>
      <trkpt lat="41.84147" lon="41.77842">
        <ele>6.010651</ele>
        <time>2021-08-14T19:59:46.173Z</time>
      </trkpt>
      <trkpt lat="41.84182" lon="41.77847">
        <ele>5.924385</ele>
        <time>2021-08-14T19:59:53.636Z</time>
      </trkpt>
      <trkpt lat="41.84361" lon="41.77868">
        <ele>5.649235</ele>
        <time>2021-08-14T20:00:33.122Z</time>
      </trkpt>
      <trkpt lat="41.8451" lon="41.77885">
        <ele>5.580874</ele>
        <time>2021-08-14T20:01:06.259Z</time>
      </trkpt>
      <trkpt lat="41.84726" lon="41.77913">
        <ele>5.638668</ele>
        <time>2021-08-14T20:01:54.171Z</time>
      </trkpt>
      <trkpt lat="41.84813" lon="41.7792">
        <ele>5.72068</ele>
        <time>2021-08-14T20:02:14.370Z</time>
      </trkpt>
      <trkpt lat="41.84894" lon="41.77926">
        <ele>5.721864</ele>
        <time>2021-08-14T20:02:34.045Z</time>
      </trkpt>
      <trkpt lat="41.8493" lon="41.7793">
        <ele>5.722402</ele>
        <time>2021-08-14T20:02:42.247Z</time>
      </trkpt>
      <trkpt lat="41.85035" lon="41.7794">
        <ele>5.601998</ele>
        <time>2021-08-14T20:03:04.422Z</time>
      </trkpt>
      <trkpt lat="41.85131" lon="41.77949">
        <ele>5.353221</ele>
        <time>2021-08-14T20:03:24.996Z</time>
      </trkpt>
      <trkpt lat="41.85197" lon="41.77955">
        <ele>5.336255</ele>
        <time>2021-08-14T20:03:39.131Z</time>
      </trkpt>
      <trkpt lat="41.85375" lon="41.77967">
        <ele>5.774755</ele>
        <time>2021-08-14T20:04:22.677Z</time>
      </trkpt>
      <trkpt lat="41.85451" lon="41.7797">
        <ele>5.864168</ele>
        <time>2021-08-14T20:04:40.121Z</time>
      </trkpt>
      <trkpt lat="41.85493" lon="41.77972">
        <ele>5.914405</ele>
        <time>2021-08-14T20:04:49.608Z</time>
      </trkpt>
      <trkpt lat="41.85583" lon="41.77975">
        <ele>5.911594</ele>
        <time>2021-08-14T20:05:09.332Z</time>
      </trkpt>
      <trkpt lat="41.85636" lon="41.77976">
        <ele>5.869951</ele>
        <time>2021-08-14T20:05:21.014Z</time>
      </trkpt>
      <trkpt lat="41.85714" lon="41.77975">
        <ele>5.802107</ele>
        <time>2021-08-14T20:05:38.199Z</time>
      </trkpt>
      <trkpt lat="41.85821" lon="41.77973">
        <ele>5.6087</ele>
        <time>2021-08-14T20:06:01.624Z</time>
      </trkpt>
      <trkpt lat="41.85892" lon="41.77972">
        <ele>5.475278</ele>
        <time>2021-08-14T20:06:16.705Z</time>
      </trkpt>
      <trkpt lat="41.86076" lon="41.7797">
        <ele>4.865212</ele>
        <time>2021-08-14T20:06:55.837Z</time>
      </trkpt>
      <trkpt lat="41.86135" lon="41.77969">
        <ele>4.812791</ele>
        <time>2021-08-14T20:07:08.647Z</time>
      </trkpt>
      <trkpt lat="41.86202" lon="41.77969">
        <ele>4.7537</ele>
        <time>2021-08-14T20:07:23.177Z</time>
      </trkpt>
      <trkpt lat="41.86259" lon="41.77968">
        <ele>4.743964</ele>
        <time>2021-08-14T20:07:36.083Z</time>
      </trkpt>
      <trkpt lat="41.86332" lon="41.77966">
        <ele>4.928422</ele>
        <time>2021-08-14T20:07:53.693Z</time>
      </trkpt>
      <trkpt lat="41.86339" lon="41.77965">
        <ele>4.945475</ele>
        <time>2021-08-14T20:07:55.191Z</time>
      </trkpt>
      <trkpt lat="41.86467" lon="41.77942">
        <ele>5.272153</ele>
        <time>2021-08-14T20:08:25.981Z</time>
      </trkpt>
      <trkpt lat="41.86623" lon="41.77913">
        <ele>5.615546</ele>
        <time>2021-08-14T20:09:02.843Z</time>
      </trkpt>
      <trkpt lat="41.86639" lon="41.7791">
        <ele>5.615202</ele>
        <time>2021-08-14T20:09:06.467Z</time>
      </trkpt>
      <trkpt lat="41.86727" lon="41.77894">
        <ele>5.613362</ele>
        <time>2021-08-14T20:09:25.932Z</time>
      </trkpt>
      <trkpt lat="41.86854" lon="41.7787">
        <ele>5.831169</ele>
        <time>2021-08-14T20:09:54.034Z</time>
      </trkpt>
      <trkpt lat="41.86913" lon="41.77858">
        <ele>6.009459</ele>
        <time>2021-08-14T20:10:08.173Z</time>
      </trkpt>
      <trkpt lat="41.86957" lon="41.77849">
        <ele>6.143713</ele>
        <time>2021-08-14T20:10:20.003Z</time>
      </trkpt>
      <trkpt lat="41.87011" lon="41.7784">
        <ele>6.559376</ele>
        <time>2021-08-14T20:10:34.527Z</time>
      </trkpt>
      <trkpt lat="41.8702" lon="41.77839">
        <ele>6.636351</ele>
        <time>2021-08-14T20:10:37.048Z</time>
      </trkpt>
      <trkpt lat="41.87067" lon="41.7783">
        <ele>7.013149</ele>
        <time>2021-08-14T20:10:50.213Z</time>
      </trkpt>
      <trkpt lat="41.87122" lon="41.77814">
        <ele>7.462665</ele>
        <time>2021-08-14T20:11:05.399Z</time>
      </trkpt>
      <trkpt lat="41.87238" lon="41.77765">
        <ele>7.189018</ele>
        <time>2021-08-14T20:11:32.636Z</time>
      </trkpt>
      <trkpt lat="41.87367" lon="41.7771">
        <ele>6.186575</ele>
        <time>2021-08-14T20:11:59.112Z</time>
      </trkpt>
      <trkpt lat="41.87448" lon="41.77675">
        <ele>5.168461</ele>
        <time>2021-08-14T20:12:15.716Z</time>
      </trkpt>
      <trkpt lat="41.87548" lon="41.77632">
        <ele>4.202228</ele>
        <time>2021-08-14T20:12:36.500Z</time>
      </trkpt>
      <trkpt lat="41.87583" lon="41.77616">
        <ele>3.90433</ele>
        <time>2021-08-14T20:12:43.905Z</time>
      </trkpt>
      <trkpt lat="41.87629" lon="41.776">
        <ele>3.529134</ele>
        <time>2021-08-14T20:12:53.536Z</time>
      </trkpt>
      <trkpt lat="41.87684" lon="41.77584">
        <ele>3.356585</ele>
        <time>2021-08-14T20:13:05.411Z</time>
      </trkpt>
      <trkpt lat="41.87752" lon="41.77566">
        <ele>3.401492</ele>
        <time>2021-08-14T20:13:20.746Z</time>
      </trkpt>
      <trkpt lat="41.87867" lon="41.77538">
        <ele>3.769684</ele>
        <time>2021-08-14T20:13:49.154Z</time>
      </trkpt>
      <trkpt lat="41.87886" lon="41.77535">
        <ele>3.923688</ele>
        <time>2021-08-14T20:13:54.153Z</time>
      </trkpt>
      <trkpt lat="41.87955" lon="41.77523">
        <ele>4.493244</ele>
        <time>2021-08-14T20:14:12.751Z</time>
      </trkpt>
      <trkpt lat="41.88101" lon="41.77504">
        <ele>6.27617</ele>
        <time>2021-08-14T20:14:53.589Z</time>
      </trkpt>
      <trkpt lat="41.88163" lon="41.77494">
        <ele>7.184831</ele>
        <time>2021-08-14T20:15:12.700Z</time>
      </trkpt>
      <trkpt lat="41.88185" lon="41.77491">
        <ele>7.497404</ele>
        <time>2021-08-14T20:15:19.920Z</time>
      </trkpt>
      <trkpt lat="41.88297" lon="41.77472">
        <ele>9.138757</ele>
        <time>2021-08-14T20:15:55.418Z</time>
      </trkpt>
      <trkpt lat="41.88392" lon="41.77458">
        <ele>10.059902</ele>
        <time>2021-08-14T20:16:21.876Z</time>
      </trkpt>
      <trkpt lat="41.8856" lon="41.77435">
        <ele>9.462098</ele>
        <time>2021-08-14T20:16:57.180Z</time>
      </trkpt>
      <trkpt lat="41.88741" lon="41.77407">
        <ele>7.567488</ele>
        <time>2021-08-14T20:17:31.850Z</time>
      </trkpt>
      <trkpt lat="41.89059" lon="41.77361">
        <ele>7.409146</ele>
        <time>2021-08-14T20:18:45.705Z</time>
      </trkpt>
      <trkpt lat="41.89331" lon="41.77324">
        <ele>6.519818</ele>
        <time>2021-08-14T20:19:42.759Z</time>
      </trkpt>
      <trkpt lat="41.8941" lon="41.7732">
        <ele>6.378933</ele>
        <time>2021-08-14T20:20:00.307Z</time>
      </trkpt>
      <trkpt lat="41.8949" lon="41.7733">
        <ele>6.12967</ele>
        <time>2021-08-14T20:20:18.783Z</time>
      </trkpt>
      <trkpt lat="41.89598" lon="41.77335">
        <ele>5.712139</ele>
        <time>2021-08-14T20:20:41.963Z</time>
      </trkpt>
      <trkpt lat="41.89791" lon="41.77359">
        <ele>3.555664</ele>
        <time>2021-08-14T20:21:19.354Z</time>
      </trkpt>
      <trkpt lat="41.89854" lon="41.77365">
        <ele>2.842365</ele>
        <time>2021-08-14T20:21:31.498Z</time>
      </trkpt>
      <trkpt lat="41.89893" lon="41.77368">
        <ele>2.401326</ele>
        <time>2021-08-14T20:21:39.154Z</time>
      </trkpt>
      <trkpt lat="41.90245" lon="41.77402">
        <ele>-0.594262</ele>
        <time>2021-08-14T20:22:49.832Z</time>
      </trkpt>
      <trkpt lat="41.90312" lon="41.77409">
        <ele>-0.955176</ele>
        <time>2021-08-14T20:23:04.078Z</time>
      </trkpt>
      <trkpt lat="41.90534" lon="41.77412">
        <ele>-0.755599</ele>
        <time>2021-08-14T20:23:55.391Z</time>
      </trkpt>
      <trkpt lat="41.90645" lon="41.77412">
        <ele>-0.442513</ele>
        <time>2021-08-14T20:24:22.089Z</time>
      </trkpt>
      <trkpt lat="41.90884" lon="41.77409">
        <ele>-0.04417</ele>
        <time>2021-08-14T20:25:17.641Z</time>
      </trkpt>
      <trkpt lat="41.91084" lon="41.77409">
        <ele>-0.542685</ele>
        <time>2021-08-14T20:26:00.150Z</time>
      </trkpt>
      <trkpt lat="41.91172" lon="41.77407">
        <ele>-0.680263</ele>
        <time>2021-08-14T20:26:18.907Z</time>
      </trkpt>
      <trkpt lat="41.91236" lon="41.77406">
        <ele>-0.770191</ele>
        <time>2021-08-14T20:26:33.299Z</time>
      </trkpt>
      <trkpt lat="41.91331" lon="41.77407">
        <ele>-0.202293</ele>
        <time>2021-08-14T20:26:56.633Z</time>
      </trkpt>
      <trkpt lat="41.91321" lon="41.77385">
        <ele>-0.08652</ele>
        <time>2021-08-14T20:27:01.744Z</time>
      </trkpt>
      <trkpt lat="41.91301" lon="41.77302">
        <ele>0.307225</ele>
        <time>2021-08-14T20:27:19.693Z</time>
      </trkpt>
      <trkpt lat="41.91295" lon="41.77266">
        <ele>0.55182</ele>
        <time>2021-08-14T20:27:27.355Z</time>
      </trkpt>
      <trkpt lat="41.91295" lon="41.77246">
        <ele>0.687563</ele>
        <time>2021-08-14T20:27:31.482Z</time>
      </trkpt>
      <trkpt lat="41.91298" lon="41.7723">
        <ele>0.79797</ele>
        <time>2021-08-14T20:27:35.185Z</time>
      </trkpt>
      <trkpt lat="41.91304" lon="41.7722">
        <ele>0.885938</ele>
        <time>2021-08-14T20:27:37.834Z</time>
      </trkpt>
      <trkpt lat="41.91351" lon="41.77202">
        <ele>1.330191</ele>
        <time>2021-08-14T20:27:51.497Z</time>
      </trkpt>
      <trkpt lat="41.91366" lon="41.77182">
        <ele>1.521362</ele>
        <time>2021-08-14T20:27:57.553Z</time>
      </trkpt>
      <trkpt lat="41.91432" lon="41.77167">
        <ele>2.039056</ele>
        <time>2021-08-14T20:28:15.690Z</time>
      </trkpt>
      <trkpt lat="41.91467" lon="41.77166">
        <ele>2.226969</ele>
        <time>2021-08-14T20:28:24.722Z</time>
      </trkpt>
      <trkpt lat="41.91542" lon="41.77134">
        <ele>2.638954</ele>
        <time>2021-08-14T20:28:44.487Z</time>
      </trkpt>
      <trkpt lat="41.91692" lon="41.7713">
        <ele>3.331146</ele>
        <time>2021-08-14T20:29:22.622Z</time>
      </trkpt>
      <trkpt lat="41.91878" lon="41.77085">
        <ele>4.146717</ele>
        <time>2021-08-14T20:30:10.622Z</time>
      </trkpt>
      <trkpt lat="41.91933" lon="41.77083">
        <ele>4.382983</ele>
        <time>2021-08-14T20:30:24.261Z</time>
      </trkpt>
      <trkpt lat="41.91966" lon="41.77073">
        <ele>4.512801</ele>
        <time>2021-08-14T20:30:32.721Z</time>
      </trkpt>
      <trkpt lat="41.92121" lon="41.77056">
        <ele>5.071196</ele>
        <time>2021-08-14T20:31:11.812Z</time>
      </trkpt>
      <trkpt lat="41.92154" lon="41.77045">
        <ele>5.139269</ele>
        <time>2021-08-14T20:31:20.194Z</time>
      </trkpt>
      <trkpt lat="41.92199" lon="41.77025">
        <ele>5.2308</ele>
        <time>2021-08-14T20:31:31.225Z</time>
      </trkpt>
      <trkpt lat="41.92219" lon="41.77017">
        <ele>5.273296</ele>
        <time>2021-08-14T20:31:36.617Z</time>
      </trkpt>
      <trkpt lat="41.9225" lon="41.77011">
        <ele>5.334203</ele>
        <time>2021-08-14T20:31:44.080Z</time>
      </trkpt>
      <trkpt lat="41.92266" lon="41.77003">
        <ele>5.368223</ele>
        <time>2021-08-14T20:31:48.255Z</time>
      </trkpt>
      <trkpt lat="41.92334" lon="41.77007">
        <ele>5.505644</ele>
        <time>2021-08-14T20:32:04.318Z</time>
      </trkpt>
      <trkpt lat="41.92349" lon="41.77008">
        <ele>5.535928</ele>
        <time>2021-08-14T20:32:07.587Z</time>
      </trkpt>
      <trkpt lat="41.92359" lon="41.77009">
        <ele>5.557078</ele>
        <time>2021-08-14T20:32:10.233Z</time>
      </trkpt>
      <trkpt lat="41.92402" lon="41.7701">
        <ele>5.645142</ele>
        <time>2021-08-14T20:32:20.303Z</time>
      </trkpt>
      <trkpt lat="41.92501" lon="41.76996">
        <ele>5.886257</ele>
        <time>2021-08-14T20:32:45.284Z</time>
      </trkpt>
      <trkpt lat="41.92549" lon="41.76996">
        <ele>6.043401</ele>
        <time>2021-08-14T20:32:57.002Z</time>
      </trkpt>
      <trkpt lat="41.92665" lon="41.76978">
        <ele>6.437614</ele>
        <time>2021-08-14T20:33:25.859Z</time>
      </trkpt>
      <trkpt lat="41.93018" lon="41.76933">
        <ele>7.748328</ele>
        <time>2021-08-14T20:34:54.734Z</time>
      </trkpt>
      <trkpt lat="41.93057" lon="41.76921">
        <ele>7.798778</ele>
        <time>2021-08-14T20:35:04.699Z</time>
      </trkpt>
      <trkpt lat="41.93129" lon="41.76914">
        <ele>7.888094</ele>
        <time>2021-08-14T20:35:21.806Z</time>
      </trkpt>
      <trkpt lat="41.93183" lon="41.76911">
        <ele>7.955008</ele>
        <time>2021-08-14T20:35:34.206Z</time>
      </trkpt>
      <trkpt lat="41.93344" lon="41.76885">
        <ele>7.873516</ele>
        <time>2021-08-14T20:36:11.145Z</time>
      </trkpt>
      <trkpt lat="41.93369" lon="41.76884">
        <ele>7.859346</ele>
        <time>2021-08-14T20:36:16.986Z</time>
      </trkpt>
      <trkpt lat="41.9342" lon="41.76881">
        <ele>7.974194</ele>
        <time>2021-08-14T20:36:29.462Z</time>
      </trkpt>
      <trkpt lat="41.93512" lon="41.76874">
        <ele>8.179903</ele>
        <time>2021-08-14T20:36:51.886Z</time>
      </trkpt>
      <trkpt lat="41.93636" lon="41.7686">
        <ele>8.231088</ele>
        <time>2021-08-14T20:37:22.930Z</time>
      </trkpt>
      <trkpt lat="41.93702" lon="41.76854">
        <ele>8.209104</ele>
        <time>2021-08-14T20:37:38.536Z</time>
      </trkpt>
      <trkpt lat="41.93758" lon="41.76867">
        <ele>7.690318</ele>
        <time>2021-08-14T20:37:50.373Z</time>
      </trkpt>
      <trkpt lat="41.93792" lon="41.76879">
        <ele>7.126202</ele>
        <time>2021-08-14T20:37:57.417Z</time>
      </trkpt>
      <trkpt lat="41.93814" lon="41.76901">
        <ele>6.680281</ele>
        <time>2021-08-14T20:38:03.112Z</time>
      </trkpt>
      <trkpt lat="41.93817" lon="41.76948">
        <ele>6.10691</ele>
        <time>2021-08-14T20:38:09.883Z</time>
      </trkpt>
      <trkpt lat="41.93817" lon="41.76956">
        <ele>6.017599</ele>
        <time>2021-08-14T20:38:10.769Z</time>
      </trkpt>
      <trkpt lat="41.93818" lon="41.76985">
        <ele>5.663882</ele>
        <time>2021-08-14T20:38:15.102Z</time>
      </trkpt>
      <trkpt lat="41.93832" lon="41.77078">
        <ele>4.450522</ele>
        <time>2021-08-14T20:38:28.308Z</time>
      </trkpt>
      <trkpt lat="41.9385" lon="41.77145">
        <ele>3.499245</ele>
        <time>2021-08-14T20:38:38.210Z</time>
      </trkpt>
      <trkpt lat="41.93934" lon="41.77132">
        <ele>2.081969</ele>
        <time>2021-08-14T20:38:54.813Z</time>
      </trkpt>
      <trkpt lat="41.94048" lon="41.77118">
        <ele>2.068694</ele>
        <time>2021-08-14T20:39:19.786Z</time>
      </trkpt>
      <trkpt lat="41.94153" lon="41.77102">
        <ele>2.303938</ele>
        <time>2021-08-14T20:39:46.528Z</time>
      </trkpt>
      <trkpt lat="41.94323" lon="41.77081">
        <ele>2.980219</ele>
        <time>2021-08-14T20:40:29.161Z</time>
      </trkpt>
      <trkpt lat="41.94434" lon="41.7707">
        <ele>2.831386</ele>
        <time>2021-08-14T20:40:53.454Z</time>
      </trkpt>
      <trkpt lat="41.94586" lon="41.7706">
        <ele>1.962622</ele>
        <time>2021-08-14T20:41:24.291Z</time>
      </trkpt>
      <trkpt lat="41.94839" lon="41.77043">
        <ele>0.545278</ele>
        <time>2021-08-14T20:42:16.505Z</time>
      </trkpt>
      <trkpt lat="41.95178" lon="41.7704">
        <ele>0.387763</ele>
        <time>2021-08-14T20:43:31.309Z</time>
      </trkpt>
      <trkpt lat="41.95253" lon="41.77046">
        <ele>0.891158</ele>
        <time>2021-08-14T20:43:50.638Z</time>
      </trkpt>
      <trkpt lat="41.95377" lon="41.77079">
        <ele>1.824083</ele>
        <time>2021-08-14T20:44:24.552Z</time>
      </trkpt>
      <trkpt lat="41.9572" lon="41.77203">
        <ele>4.288029</ele>
        <time>2021-08-14T20:45:55.485Z</time>
      </trkpt>
      <trkpt lat="41.9577" lon="41.77222">
        <ele>4.522432</ele>
        <time>2021-08-14T20:46:08.682Z</time>
      </trkpt>
      <trkpt lat="41.95821" lon="41.77242">
        <ele>4.764403</ele>
        <time>2021-08-14T20:46:21.688Z</time>
      </trkpt>
      <trkpt lat="41.95874" lon="41.7726">
        <ele>5.011406</ele>
        <time>2021-08-14T20:46:34.878Z</time>
      </trkpt>
      <trkpt lat="41.95885" lon="41.77265">
        <ele>5.060701</ele>
        <time>2021-08-14T20:46:37.564Z</time>
      </trkpt>
      <trkpt lat="41.95927" lon="41.77277">
        <ele>5.016233</ele>
        <time>2021-08-14T20:46:47.348Z</time>
      </trkpt>
      <trkpt lat="41.95974" lon="41.77283">
        <ele>4.96797</ele>
        <time>2021-08-14T20:46:57.650Z</time>
      </trkpt>
      <trkpt lat="41.96252" lon="41.77307">
        <ele>4.437693</ele>
        <time>2021-08-14T20:47:57.487Z</time>
      </trkpt>
      <trkpt lat="41.9632" lon="41.7731">
        <ele>4.395312</ele>
        <time>2021-08-14T20:48:12.491Z</time>
      </trkpt>
      <trkpt lat="41.96429" lon="41.77317">
        <ele>4.346324</ele>
        <time>2021-08-14T20:48:36.632Z</time>
      </trkpt>
      <trkpt lat="41.96605" lon="41.77329">
        <ele>4.69052</ele>
        <time>2021-08-14T20:49:17.305Z</time>
      </trkpt>
      <trkpt lat="41.96643" lon="41.77337">
        <ele>4.964429</ele>
        <time>2021-08-14T20:49:26.680Z</time>
      </trkpt>
      <trkpt lat="41.96679" lon="41.77351">
        <ele>5.234445</ele>
        <time>2021-08-14T20:49:36.257Z</time>
      </trkpt>
      <trkpt lat="41.96744" lon="41.77391">
        <ele>5.7395</ele>
        <time>2021-08-14T20:49:54.762Z</time>
      </trkpt>
      <trkpt lat="41.96786" lon="41.77435">
        <ele>6.31968</ele>
        <time>2021-08-14T20:50:09.804Z</time>
      </trkpt>
      <trkpt lat="41.96812" lon="41.77485">
        <ele>7.01254</ele>
        <time>2021-08-14T20:50:23.093Z</time>
      </trkpt>
      <trkpt lat="41.96827" lon="41.77556">
        <ele>7.849918</ele>
        <time>2021-08-14T20:50:39.294Z</time>
      </trkpt>
      <trkpt lat="41.9683" lon="41.77599">
        <ele>8.33944</ele>
        <time>2021-08-14T20:50:49.301Z</time>
      </trkpt>
      <trkpt lat="41.96831" lon="41.77648">
        <ele>9.080239</ele>
        <time>2021-08-14T20:51:01.100Z</time>
      </trkpt>
      <trkpt lat="41.9683" lon="41.777">
        <ele>10.216789</ele>
        <time>2021-08-14T20:51:13.724Z</time>
      </trkpt>
      <trkpt lat="41.9683" lon="41.77761">
        <ele>11.531496</ele>
        <time>2021-08-14T20:51:28.736Z</time>
      </trkpt>
      <trkpt lat="41.96828" lon="41.77835">
        <ele>13.150805</ele>
        <time>2021-08-14T20:51:50.254Z</time>
      </trkpt>
      <trkpt lat="41.96828" lon="41.77944">
        <ele>16.039566</ele>
        <time>2021-08-14T20:52:27.262Z</time>
      </trkpt>
      <trkpt lat="41.96832" lon="41.77978">
        <ele>17.048815</ele>
        <time>2021-08-14T20:52:38.810Z</time>
      </trkpt>
      <trkpt lat="41.9686" lon="41.7807">
        <ele>19.943959</ele>
        <time>2021-08-14T20:53:10.491Z</time>
      </trkpt>
      <trkpt lat="41.96866" lon="41.78088">
        <ele>20.526569</ele>
        <time>2021-08-14T20:53:17.246Z</time>
      </trkpt>
      <trkpt lat="41.969" lon="41.78149">
        <ele>21.456335</ele>
        <time>2021-08-14T20:53:34.821Z</time>
      </trkpt>
      <trkpt lat="41.9692" lon="41.78168">
        <ele>21.693865</ele>
        <time>2021-08-14T20:53:43.106Z</time>
      </trkpt>
      <trkpt lat="41.96977" lon="41.78201">
        <ele>22.296212</ele>
        <time>2021-08-14T20:54:00.231Z</time>
      </trkpt>
      <trkpt lat="41.97002" lon="41.7821">
        <ele>22.552528</ele>
        <time>2021-08-14T20:54:05.220Z</time>
      </trkpt>
      <trkpt lat="41.9703" lon="41.7822">
        <ele>22.752562</ele>
        <time>2021-08-14T20:54:10.830Z</time>
      </trkpt>
      <trkpt lat="41.97084" lon="41.78218">
        <ele>22.50703</ele>
        <time>2021-08-14T20:54:21.633Z</time>
      </trkpt>
      <trkpt lat="41.97669" lon="41.7821">
        <ele>19.963517</ele>
        <time>2021-08-14T20:56:25.262Z</time>
      </trkpt>
      <trkpt lat="41.97781" lon="41.78212">
        <ele>19.103267</ele>
        <time>2021-08-14T20:56:49.805Z</time>
      </trkpt>
      <trkpt lat="41.97889" lon="41.78227">
        <ele>17.309967</ele>
        <time>2021-08-14T20:57:10.350Z</time>
      </trkpt>
      <trkpt lat="41.97949" lon="41.78251">
        <ele>15.778322</ele>
        <time>2021-08-14T20:57:21.049Z</time>
      </trkpt>
      <trkpt lat="41.9802" lon="41.78277">
        <ele>13.240425</ele>
        <time>2021-08-14T20:57:33.266Z</time>
      </trkpt>
      <trkpt lat="41.98141" lon="41.78314">
        <ele>9.801006</ele>
        <time>2021-08-14T20:57:54.110Z</time>
      </trkpt>
      <trkpt lat="41.98165" lon="41.7832">
        <ele>9.398057</ele>
        <time>2021-08-14T20:57:58.441Z</time>
      </trkpt>
      <trkpt lat="41.98267" lon="41.78351">
        <ele>7.629192</ele>
        <time>2021-08-14T20:58:19.419Z</time>
      </trkpt>
      <trkpt lat="41.98289" lon="41.78357">
        <ele>7.597019</ele>
        <time>2021-08-14T20:58:24.381Z</time>
      </trkpt>
      <trkpt lat="41.98419" lon="41.78397">
        <ele>7.878152</ele>
        <time>2021-08-14T20:58:56.809Z</time>
      </trkpt>
      <trkpt lat="41.98502" lon="41.7841">
        <ele>7.995801</ele>
        <time>2021-08-14T20:59:16.278Z</time>
      </trkpt>
      <trkpt lat="41.98532" lon="41.7841">
        <ele>8.027658</ele>
        <time>2021-08-14T20:59:23.117Z</time>
      </trkpt>
      <trkpt lat="41.98585" lon="41.784">
        <ele>8.083911</ele>
        <time>2021-08-14T20:59:34.980Z</time>
      </trkpt>
      <trkpt lat="41.98608" lon="41.78389">
        <ele>8.109446</ele>
        <time>2021-08-14T20:59:40.387Z</time>
      </trkpt>
      <trkpt lat="41.98624" lon="41.7838">
        <ele>8.132393</ele>
        <time>2021-08-14T20:59:44.295Z</time>
      </trkpt>
      <trkpt lat="41.98648" lon="41.78359">
        <ele>8.383106</ele>
        <time>2021-08-14T20:59:50.779Z</time>
      </trkpt>
      <trkpt lat="41.98685" lon="41.7833">
        <ele>8.759762</ele>
        <time>2021-08-14T21:00:00.761Z</time>
      </trkpt>
      <trkpt lat="41.98711" lon="41.78303">
        <ele>9.045665</ele>
        <time>2021-08-14T21:00:08.796Z</time>
      </trkpt>
      <trkpt lat="41.98785" lon="41.78234">
        <ele>10.053377</ele>
        <time>2021-08-14T21:00:36.170Z</time>
      </trkpt>
      <trkpt lat="41.9883" lon="41.78192">
        <ele>11.352766</ele>
        <time>2021-08-14T21:00:54.840Z</time>
      </trkpt>
      <trkpt lat="41.98864" lon="41.78168">
        <ele>12.255563</ele>
        <time>2021-08-14T21:01:08.341Z</time>
      </trkpt>
      <trkpt lat="41.98918" lon="41.78138">
        <ele>13.623836</ele>
        <time>2021-08-14T21:01:28.995Z</time>
      </trkpt>
      <trkpt lat="41.98964" lon="41.78128">
        <ele>14.400669</ele>
        <time>2021-08-14T21:01:45.941Z</time>
      </trkpt>
      <trkpt lat="41.99131" lon="41.78125">
        <ele>16.078374</ele>
        <time>2021-08-14T21:02:33.393Z</time>
      </trkpt>
      <trkpt lat="41.99237" lon="41.7813">
        <ele>14.398935</ele>
        <time>2021-08-14T21:02:52.872Z</time>
      </trkpt>
      <trkpt lat="41.99239" lon="41.78093">
        <ele>13.962185</ele>
        <time>2021-08-14T21:02:57.700Z</time>
      </trkpt>
      <trkpt lat="41.99244" lon="41.78067">
        <ele>13.647421</ele>
        <time>2021-08-14T21:03:01.513Z</time>
      </trkpt>
      <trkpt lat="41.99247" lon="41.78055">
        <ele>13.481989</ele>
        <time>2021-08-14T21:03:03.083Z</time>
      </trkpt>
      <trkpt lat="41.99253" lon="41.7804">
        <ele>13.251845</ele>
        <time>2021-08-14T21:03:05.464Z</time>
      </trkpt>
      <trkpt lat="41.99265" lon="41.78027">
        <ele>12.987462</ele>
        <time>2021-08-14T21:03:08.136Z</time>
      </trkpt>
      <trkpt lat="41.99295" lon="41.78013">
        <ele>12.408108</ele>
        <time>2021-08-14T21:03:13.794Z</time>
      </trkpt>
      <trkpt lat="41.99476" lon="41.77971">
        <ele>9.771842</ele>
        <time>2021-08-14T21:03:48.693Z</time>
      </trkpt>
      <trkpt lat="41.99542" lon="41.77955">
        <ele>9.240721</ele>
        <time>2021-08-14T21:04:02.779Z</time>
      </trkpt>
      <trkpt lat="41.99603" lon="41.77943">
        <ele>8.852844</ele>
        <time>2021-08-14T21:04:15.921Z</time>
      </trkpt>
      <trkpt lat="41.99656" lon="41.77937">
        <ele>8.767107</ele>
        <time>2021-08-14T21:04:27.464Z</time>
      </trkpt>
      <trkpt lat="41.99702" lon="41.77941">
        <ele>8.691871</ele>
        <time>2021-08-14T21:04:37.734Z</time>
      </trkpt>
      <trkpt lat="41.99816" lon="41.77929">
        <ele>8.507214</ele>
        <time>2021-08-14T21:05:03.026Z</time>
      </trkpt>
      <trkpt lat="41.9984" lon="41.77922">
        <ele>8.468324</ele>
        <time>2021-08-14T21:05:08.223Z</time>
      </trkpt>
      <trkpt lat="41.99884" lon="41.77892">
        <ele>8.38759</ele>
        <time>2021-08-14T21:05:19.066Z</time>
      </trkpt>
      <trkpt lat="41.99904" lon="41.77874">
        <ele>8.348808</ele>
        <time>2021-08-14T21:05:24.195Z</time>
      </trkpt>
      <trkpt lat="41.99914" lon="41.77854">
        <ele>8.319516</ele>
        <time>2021-08-14T21:05:28.074Z</time>
      </trkpt>
      <trkpt lat="41.9994" lon="41.77878">
        <ele>8.264698</ele>
        <time>2021-08-14T21:05:35.111Z</time>
      </trkpt>
      <trkpt lat="41.99968" lon="41.77914">
        <ele>8.193231</ele>
        <time>2021-08-14T21:05:43.703Z</time>
      </trkpt>
      <trkpt lat="42.00062" lon="41.77896">
        <ele>8.018543</ele>
        <time>2021-08-14T21:06:05.017Z</time>
      </trkpt>
      <trkpt lat="42.00081" lon="41.77879">
        <ele>7.975152</ele>
        <time>2021-08-14T21:06:10.491Z</time>
      </trkpt>
      <trkpt lat="42.00261" lon="41.77858">
        <ele>8.237616</ele>
        <time>2021-08-14T21:06:53.275Z</time>
      </trkpt>
      <trkpt lat="42.00327" lon="41.77859">
        <ele>8.454037</ele>
        <time>2021-08-14T21:07:09.734Z</time>
      </trkpt>
      <trkpt lat="42.00397" lon="41.77879">
        <ele>8.696456</ele>
        <time>2021-08-14T21:07:27.627Z</time>
      </trkpt>
      <trkpt lat="42.00502" lon="41.77919">
        <ele>8.807594</ele>
        <time>2021-08-14T21:07:54.965Z</time>
      </trkpt>
      <trkpt lat="42.00559" lon="41.77957">
        <ele>8.752218</ele>
        <time>2021-08-14T21:08:09.465Z</time>
      </trkpt>
      <trkpt lat="42.00601" lon="41.77974">
        <ele>8.714549</ele>
        <time>2021-08-14T21:08:19.067Z</time>
      </trkpt>
      <trkpt lat="42.00656" lon="41.77972">
        <ele>8.432368</ele>
        <time>2021-08-14T21:08:31.077Z</time>
      </trkpt>
      <trkpt lat="42.00727" lon="41.77964">
        <ele>7.991761</ele>
        <time>2021-08-14T21:08:46.248Z</time>
      </trkpt>
      <trkpt lat="42.00797" lon="41.77942">
        <ele>7.554542</ele>
        <time>2021-08-14T21:09:01.602Z</time>
      </trkpt>
      <trkpt lat="42.00839" lon="41.77846">
        <ele>7.141738</ele>
        <time>2021-08-14T21:09:19.735Z</time>
      </trkpt>
      <trkpt lat="42.00861" lon="41.77756">
        <ele>6.790685</ele>
        <time>2021-08-14T21:09:35.259Z</time>
      </trkpt>
      <trkpt lat="42.00863" lon="41.77744">
        <ele>6.746901</ele>
        <time>2021-08-14T21:09:37.156Z</time>
      </trkpt>
      <trkpt lat="42.00872" lon="41.7768">
        <ele>6.497151</ele>
        <time>2021-08-14T21:09:47.837Z</time>
      </trkpt>
      <trkpt lat="42.00876" lon="41.7767">
        <ele>6.453534</ele>
        <time>2021-08-14T21:09:49.657Z</time>
      </trkpt>
      <trkpt lat="42.00887" lon="41.77637">
        <ele>6.313633</ele>
        <time>2021-08-14T21:09:55.531Z</time>
      </trkpt>
      <trkpt lat="42.00987" lon="41.77379">
        <ele>5.109591</ele>
        <time>2021-08-14T21:10:42.421Z</time>
      </trkpt>
      <trkpt lat="42.0102" lon="41.77322">
        <ele>4.790577</ele>
        <time>2021-08-14T21:10:54.075Z</time>
      </trkpt>
      <trkpt lat="42.01034" lon="41.77289">
        <ele>4.629567</ele>
        <time>2021-08-14T21:11:00.234Z</time>
      </trkpt>
      <trkpt lat="42.01094" lon="41.77046">
        <ele>3.670796</ele>
        <time>2021-08-14T21:11:41.700Z</time>
      </trkpt>
      <trkpt lat="42.01254" lon="41.77093">
        <ele>3.137288</ele>
        <time>2021-08-14T21:12:17.999Z</time>
      </trkpt>
      <trkpt lat="42.01564" lon="41.76964">
        <ele>2.615271</ele>
        <time>2021-08-14T21:13:31.787Z</time>
      </trkpt>
      <trkpt lat="42.01597" lon="41.76963">
        <ele>2.565421</ele>
        <time>2021-08-14T21:13:39.422Z</time>
      </trkpt>
      <trkpt lat="42.01835" lon="41.76479">
        <ele>1.690746</ele>
        <time>2021-08-14T21:15:13.223Z</time>
      </trkpt>
      <trkpt lat="42.01901" lon="41.76349">
        <ele>1.461835</ele>
        <time>2021-08-14T21:15:38.302Z</time>
      </trkpt>
      <trkpt lat="42.01966" lon="41.76217">
        <ele>1.475298</ele>
        <time>2021-08-14T21:16:04.020Z</time>
      </trkpt>
      <trkpt lat="42.02076" lon="41.76018">
        <ele>1.812445</ele>
        <time>2021-08-14T21:16:48.034Z</time>
      </trkpt>
      <trkpt lat="42.02131" lon="41.75936">
        <ele>1.86112</ele>
        <time>2021-08-14T21:17:07.215Z</time>
      </trkpt>
      <trkpt lat="42.02144" lon="41.75917">
        <ele>1.827143</ele>
        <time>2021-08-14T21:17:11.549Z</time>
      </trkpt>
      <trkpt lat="42.02317" lon="41.75664">
        <ele>1.306995</ele>
        <time>2021-08-14T21:18:05.896Z</time>
      </trkpt>
      <trkpt lat="42.02489" lon="41.75411">
        <ele>1.238824</ele>
        <time>2021-08-14T21:19:02.696Z</time>
      </trkpt>
      <trkpt lat="42.02553" lon="41.75323">
        <ele>1.495259</ele>
        <time>2021-08-14T21:19:24.449Z</time>
      </trkpt>
      <trkpt lat="42.02596" lon="41.75259">
        <ele>1.676263</ele>
        <time>2021-08-14T21:19:40.132Z</time>
      </trkpt>
      <trkpt lat="42.02809" lon="41.7494">
        <ele>2.335293</ele>
        <time>2021-08-14T21:20:54.307Z</time>
      </trkpt>
      <trkpt lat="42.02833" lon="41.74911">
        <ele>2.391221</ele>
        <time>2021-08-14T21:21:01.446Z</time>
      </trkpt>
      <trkpt lat="42.02937" lon="41.74787">
        <ele>2.644845</ele>
        <time>2021-08-14T21:21:33.008Z</time>
      </trkpt>
      <trkpt lat="42.02955" lon="41.74767">
        <ele>2.687232</ele>
        <time>2021-08-14T21:21:38.577Z</time>
      </trkpt>
      <trkpt lat="42.03075" lon="41.74637">
        <ele>3.144833</ele>
        <time>2021-08-14T21:22:16.254Z</time>
      </trkpt>
      <trkpt lat="42.03251" lon="41.74461">
        <ele>3.320232</ele>
        <time>2021-08-14T21:23:05.550Z</time>
      </trkpt>
      <trkpt lat="42.03372" lon="41.74321">
        <ele>3.060502</ele>
        <time>2021-08-14T21:23:40.031Z</time>
      </trkpt>
      <trkpt lat="42.03392" lon="41.74298">
        <ele>3.014101</ele>
        <time>2021-08-14T21:23:45.819Z</time>
      </trkpt>
      <trkpt lat="42.035" lon="41.74188">
        <ele>2.861222</ele>
        <time>2021-08-14T21:24:15.539Z</time>
      </trkpt>
      <trkpt lat="42.03726" lon="41.73969">
        <ele>2.591113</ele>
        <time>2021-08-14T21:25:16.185Z</time>
      </trkpt>
      <trkpt lat="42.0378" lon="41.73908">
        <ele>2.716473</ele>
        <time>2021-08-14T21:25:32.219Z</time>
      </trkpt>
      <trkpt lat="42.0391" lon="41.73755">
        <ele>3.287995</ele>
        <time>2021-08-14T21:26:15.035Z</time>
      </trkpt>
      <trkpt lat="42.03932" lon="41.7373">
        <ele>3.409457</ele>
        <time>2021-08-14T21:26:22.249Z</time>
      </trkpt>
      <trkpt lat="42.03996" lon="41.73657">
        <ele>3.535057</ele>
        <time>2021-08-14T21:26:41.905Z</time>
      </trkpt>
      <trkpt lat="42.04021" lon="41.73637">
        <ele>3.513659</ele>
        <time>2021-08-14T21:26:48.434Z</time>
      </trkpt>
      <trkpt lat="42.04041" lon="41.73623">
        <ele>3.497118</ele>
        <time>2021-08-14T21:26:53.347Z</time>
      </trkpt>
      <trkpt lat="42.04275" lon="41.73499">
        <ele>3.075843</ele>
        <time>2021-08-14T21:27:47.113Z</time>
      </trkpt>
      <trkpt lat="42.04707" lon="41.73262">
        <ele>4.442998</ele>
        <time>2021-08-14T21:29:38.710Z</time>
      </trkpt>
      <trkpt lat="42.04722" lon="41.73254">
        <ele>4.488287</ele>
        <time>2021-08-14T21:29:42.634Z</time>
      </trkpt>
      <trkpt lat="42.04865" lon="41.73178">
        <ele>4.533253</ele>
        <time>2021-08-14T21:30:18.066Z</time>
      </trkpt>
      <trkpt lat="42.05129" lon="41.73036">
        <ele>3.52147</ele>
        <time>2021-08-14T21:31:17.671Z</time>
      </trkpt>
      <trkpt lat="42.05267" lon="41.72962">
        <ele>3.024762</ele>
        <time>2021-08-14T21:31:49.158Z</time>
      </trkpt>
      <trkpt lat="42.05392" lon="41.72895">
        <ele>2.785138</ele>
        <time>2021-08-14T21:32:19.166Z</time>
      </trkpt>
      <trkpt lat="42.05598" lon="41.72777">
        <ele>2.042721</ele>
        <time>2021-08-14T21:33:06.947Z</time>
      </trkpt>
      <trkpt lat="42.05688" lon="41.7273">
        <ele>1.646866</ele>
        <time>2021-08-14T21:33:26.444Z</time>
      </trkpt>
      <trkpt lat="42.05728" lon="41.7271">
        <ele>1.472492</ele>
        <time>2021-08-14T21:33:35.378Z</time>
      </trkpt>
      <trkpt lat="42.05778" lon="41.72682">
        <ele>1.249601</ele>
        <time>2021-08-14T21:33:47.144Z</time>
      </trkpt>
      <trkpt lat="42.05882" lon="41.72625">
        <ele>1.351961</ele>
        <time>2021-08-14T21:34:13.472Z</time>
      </trkpt>
      <trkpt lat="42.0626" lon="41.7243">
        <ele>1.615774</ele>
        <time>2021-08-14T21:35:45.195Z</time>
      </trkpt>
      <trkpt lat="42.06421" lon="41.72347">
        <ele>1.324459</ele>
        <time>2021-08-14T21:36:22.330Z</time>
      </trkpt>
      <trkpt lat="42.06423" lon="41.72345">
        <ele>1.317828</ele>
        <time>2021-08-14T21:36:22.961Z</time>
      </trkpt>
      <trkpt lat="42.06506" lon="41.723">
        <ele>1.102185</ele>
        <time>2021-08-14T21:36:42.110Z</time>
      </trkpt>
      <trkpt lat="42.06544" lon="41.72275">
        <ele>0.989973</ele>
        <time>2021-08-14T21:36:51.240Z</time>
      </trkpt>
      <trkpt lat="42.06666" lon="41.72184">
        <ele>0.70823</ele>
        <time>2021-08-14T21:37:21.162Z</time>
      </trkpt>
      <trkpt lat="42.06685" lon="41.72168">
        <ele>0.684348</ele>
        <time>2021-08-14T21:37:26.148Z</time>
      </trkpt>
      <trkpt lat="42.06714" lon="41.72143">
        <ele>0.649277</ele>
        <time>2021-08-14T21:37:33.566Z</time>
      </trkpt>
      <trkpt lat="42.06756" lon="41.72107">
        <ele>0.597421</ele>
        <time>2021-08-14T21:37:44.702Z</time>
      </trkpt>
      <trkpt lat="42.06889" lon="41.71981">
        <ele>0.499941</ele>
        <time>2021-08-14T21:38:20.953Z</time>
      </trkpt>
      <trkpt lat="42.07161" lon="41.71726">
        <ele>0.242953</ele>
        <time>2021-08-14T21:39:32.127Z</time>
      </trkpt>
      <trkpt lat="42.07386" lon="41.71529">
        <ele>2.311137</ele>
        <time>2021-08-14T21:40:45.479Z</time>
      </trkpt>
      <trkpt lat="42.07477" lon="41.71463">
        <ele>3.034224</ele>
        <time>2021-08-14T21:41:12.920Z</time>
      </trkpt>
      <trkpt lat="42.07663" lon="41.71351">
        <ele>3.51685</ele>
        <time>2021-08-14T21:42:00.586Z</time>
      </trkpt>
      <trkpt lat="42.07892" lon="41.71223">
        <ele>2.475534</ele>
        <time>2021-08-14T21:42:52.068Z</time>
      </trkpt>
      <trkpt lat="42.07931" lon="41.71205">
        <ele>2.382707</ele>
        <time>2021-08-14T21:43:00.738Z</time>
      </trkpt>
      <trkpt lat="42.08022" lon="41.71163">
        <ele>2.16511</ele>
        <time>2021-08-14T21:43:21.809Z</time>
      </trkpt>
      <trkpt lat="42.08038" lon="41.71175">
        <ele>2.157134</ele>
        <time>2021-08-14T21:43:26.227Z</time>
      </trkpt>
      <trkpt lat="42.08065" lon="41.71201">
        <ele>2.155706</ele>
        <time>2021-08-14T21:43:34.256Z</time>
      </trkpt>
      <trkpt lat="42.08086" lon="41.71205">
        <ele>2.154777</ele>
        <time>2021-08-14T21:43:39.485Z</time>
      </trkpt>
      <trkpt lat="42.08114" lon="41.712">
        <ele>2.153595</ele>
        <time>2021-08-14T21:43:46.031Z</time>
      </trkpt>
      <trkpt lat="42.0816" lon="41.71179">
        <ele>2.151536</ele>
        <time>2021-08-14T21:43:57.427Z</time>
      </trkpt>
      <trkpt lat="42.08171" lon="41.71176">
        <ele>2.15105</ele>
        <time>2021-08-14T21:44:00.032Z</time>
      </trkpt>
      <trkpt lat="42.08369" lon="41.71084">
        <ele>1.462019</ele>
        <time>2021-08-14T21:44:46.239Z</time>
      </trkpt>
      <trkpt lat="42.08392" lon="41.7107">
        <ele>1.46313</ele>
        <time>2021-08-14T21:44:51.861Z</time>
      </trkpt>
      <trkpt lat="42.08451" lon="41.71036">
        <ele>1.465876</ele>
        <time>2021-08-14T21:45:06.143Z</time>
      </trkpt>
      <trkpt lat="42.08623" lon="41.70944">
        <ele>1.927364</ele>
        <time>2021-08-14T21:45:52.109Z</time>
      </trkpt>
      <trkpt lat="42.08709" lon="41.70904">
        <ele>2.332048</ele>
        <time>2021-08-14T21:46:16.465Z</time>
      </trkpt>
      <trkpt lat="42.08864" lon="41.70849">
        <ele>2.987042</ele>
        <time>2021-08-14T21:46:56.978Z</time>
      </trkpt>
      <trkpt lat="42.08892" lon="41.70844">
        <ele>3.057653</ele>
        <time>2021-08-14T21:47:03.476Z</time>
      </trkpt>
      <trkpt lat="42.08927" lon="41.70826">
        <ele>3.135384</ele>
        <time>2021-08-14T21:47:11.880Z</time>
      </trkpt>
      <trkpt lat="42.09008" lon="41.70796">
        <ele>3.312074</ele>
        <time>2021-08-14T21:47:31.299Z</time>
      </trkpt>
      <trkpt lat="42.09111" lon="41.70769">
        <ele>3.941109</ele>
        <time>2021-08-14T21:47:59.708Z</time>
      </trkpt>
      <trkpt lat="42.09103" lon="41.7075">
        <ele>4.071907</ele>
        <time>2021-08-14T21:48:04.322Z</time>
      </trkpt>
      <trkpt lat="42.09095" lon="41.70731">
        <ele>4.201812</ele>
        <time>2021-08-14T21:48:09.169Z</time>
      </trkpt>
      <trkpt lat="42.09079" lon="41.70694">
        <ele>4.458949</ele>
        <time>2021-08-14T21:48:17.953Z</time>
      </trkpt>
      <trkpt lat="42.09057" lon="41.70624">
        <ele>4.822988</ele>
        <time>2021-08-14T21:48:33.247Z</time>
      </trkpt>
      <trkpt lat="42.09119" lon="41.70592">
        <ele>4.681992</ele>
        <time>2021-08-14T21:48:49.445Z</time>
      </trkpt>
      <trkpt lat="42.0914" lon="41.70581">
        <ele>4.63285</ele>
        <time>2021-08-14T21:48:54.193Z</time>
      </trkpt>
      <trkpt lat="42.09194" lon="41.70554">
        <ele>4.510635</ele>
        <time>2021-08-14T21:49:05.649Z</time>
      </trkpt>
      <trkpt lat="42.09359" lon="41.70466">
        <ele>4.085616</ele>
        <time>2021-08-14T21:49:42.123Z</time>
      </trkpt>
      <trkpt lat="42.09385" lon="41.70453">
        <ele>4.03613</ele>
        <time>2021-08-14T21:49:49.367Z</time>
      </trkpt>
      <trkpt lat="42.094" lon="41.70446">
        <ele>4.288318</ele>
        <time>2021-08-14T21:49:54.763Z</time>
      </trkpt>
      <trkpt lat="42.0941" lon="41.70441">
        <ele>4.471488</ele>
        <time>2021-08-14T21:49:57.884Z</time>
      </trkpt>
      <trkpt lat="42.09553" lon="41.70374">
        <ele>6.918488</ele>
        <time>2021-08-14T21:50:46.477Z</time>
      </trkpt>
      <trkpt lat="42.09584" lon="41.7036">
        <ele>7.102097</ele>
        <time>2021-08-14T21:50:56.010Z</time>
      </trkpt>
      <trkpt lat="42.09654" lon="41.70336">
        <ele>7.474454</ele>
        <time>2021-08-14T21:51:14.653Z</time>
      </trkpt>
      <trkpt lat="42.0973" lon="41.70307">
        <ele>7.861847</ele>
        <time>2021-08-14T21:51:31.708Z</time>
      </trkpt>
      <trkpt lat="42.09778" lon="41.7029">
        <ele>7.732745</ele>
        <time>2021-08-14T21:51:42.176Z</time>
      </trkpt>
      <trkpt lat="42.09885" lon="41.70246">
        <ele>7.445263</ele>
        <time>2021-08-14T21:52:05.609Z</time>
      </trkpt>
      <trkpt lat="42.09994" lon="41.70203">
        <ele>8.011991</ele>
        <time>2021-08-14T21:52:33.236Z</time>
      </trkpt>
      <trkpt lat="42.1012" lon="41.70152">
        <ele>8.491797</ele>
        <time>2021-08-14T21:53:09.401Z</time>
      </trkpt>
      <trkpt lat="42.10223" lon="41.70107">
        <ele>8.446217</ele>
        <time>2021-08-14T21:53:32.938Z</time>
      </trkpt>
      <trkpt lat="42.10245" lon="41.70098">
        <ele>8.417459</ele>
        <time>2021-08-14T21:53:37.391Z</time>
      </trkpt>
      <trkpt lat="42.10343" lon="41.7006">
        <ele>6.919183</ele>
        <time>2021-08-14T21:53:56.919Z</time>
      </trkpt>
      <trkpt lat="42.10466" lon="41.70011">
        <ele>5.105255</ele>
        <time>2021-08-14T21:54:20.792Z</time>
      </trkpt>
      <trkpt lat="42.1051" lon="41.69993">
        <ele>4.47744</ele>
        <time>2021-08-14T21:54:29.815Z</time>
      </trkpt>
      <trkpt lat="42.10503" lon="41.70124">
        <ele>3.228748</ele>
        <time>2021-08-14T21:54:49.726Z</time>
      </trkpt>
      <trkpt lat="42.10524" lon="41.70121">
        <ele>3.041679</ele>
        <time>2021-08-14T21:54:53.924Z</time>
      </trkpt>
      <trkpt lat="42.10642" lon="41.70057">
        <ele>1.899399</ele>
        <time>2021-08-14T21:55:20.639Z</time>
      </trkpt>
      <trkpt lat="42.10648" lon="41.70059">
        <ele>1.844809</ele>
        <time>2021-08-14T21:55:21.824Z</time>
      </trkpt>
      <trkpt lat="42.10652" lon="41.70068">
        <ele>1.778957</ele>
        <time>2021-08-14T21:55:23.724Z</time>
      </trkpt>
      <trkpt lat="42.1068" lon="41.70163">
        <ele>1.630226</ele>
        <time>2021-08-14T21:55:41.027Z</time>
      </trkpt>
      <trkpt lat="42.10698" lon="41.70222">
        <ele>1.550111</ele>
        <time>2021-08-14T21:55:51.961Z</time>
      </trkpt>
      <trkpt lat="42.10706" lon="41.70217">
        <ele>1.536076</ele>
        <time>2021-08-14T21:55:53.775Z</time>
      </trkpt>
      <trkpt lat="42.108" lon="41.70163">
        <ele>1.474237</ele>
        <time>2021-08-14T21:56:17.330Z</time>
      </trkpt>
      <trkpt lat="42.10814" lon="41.70155">
        <ele>1.481511</ele>
        <time>2021-08-14T21:56:20.758Z</time>
      </trkpt>
      <trkpt lat="42.10829" lon="41.70148">
        <ele>1.488929</ele>
        <time>2021-08-14T21:56:24.717Z</time>
      </trkpt>
      <trkpt lat="42.10862" lon="41.7014">
        <ele>1.504904</ele>
        <time>2021-08-14T21:56:32.557Z</time>
      </trkpt>
      <trkpt lat="42.10904" lon="41.70146">
        <ele>1.52478</ele>
        <time>2021-08-14T21:56:42.570Z</time>
      </trkpt>
      <trkpt lat="42.10953" lon="41.70164">
        <ele>1.657722</ele>
        <time>2021-08-14T21:56:54.643Z</time>
      </trkpt>
      <trkpt lat="42.10957" lon="41.70175">
        <ele>1.693971</ele>
        <time>2021-08-14T21:56:57.157Z</time>
      </trkpt>
      <trkpt lat="42.10982" lon="41.70191">
        <ele>1.809683</ele>
        <time>2021-08-14T21:57:03.816Z</time>
      </trkpt>
      <trkpt lat="42.11018" lon="41.70188">
        <ele>1.962185</ele>
        <time>2021-08-14T21:57:13.140Z</time>
      </trkpt>
      <trkpt lat="42.11152" lon="41.70136">
        <ele>2.451229</ele>
        <time>2021-08-14T21:57:49.112Z</time>
      </trkpt>
      <trkpt lat="42.11217" lon="41.70125">
        <ele>2.626969</ele>
        <time>2021-08-14T21:58:05.018Z</time>
      </trkpt>
      <trkpt lat="42.11293" lon="41.7009">
        <ele>2.718585</ele>
        <time>2021-08-14T21:58:23.894Z</time>
      </trkpt>
      <trkpt lat="42.11396" lon="41.70011">
        <ele>2.495938</ele>
        <time>2021-08-14T21:58:50.759Z</time>
      </trkpt>
      <trkpt lat="42.1153" lon="41.69956">
        <ele>1.972944</ele>
        <time>2021-08-14T21:59:21.610Z</time>
      </trkpt>
      <trkpt lat="42.11569" lon="41.69936">
        <ele>1.793441</ele>
        <time>2021-08-14T21:59:30.629Z</time>
      </trkpt>
      <trkpt lat="42.11629" lon="41.6991">
        <ele>1.592584</ele>
        <time>2021-08-14T21:59:44.485Z</time>
      </trkpt>
      <trkpt lat="42.11642" lon="41.69914">
        <ele>1.567747</ele>
        <time>2021-08-14T21:59:47.301Z</time>
      </trkpt>
      <trkpt lat="42.11646" lon="41.69923">
        <ele>1.552219</ele>
        <time>2021-08-14T21:59:49.058Z</time>
      </trkpt>
      <trkpt lat="42.11652" lon="41.69947">
        <ele>1.515578</ele>
        <time>2021-08-14T21:59:53.114Z</time>
      </trkpt>
      <trkpt lat="42.11904" lon="41.69815">
        <ele>1.3</ele>
        <time>2021-08-14T22:00:55.736Z</time>
      </trkpt>
      <trkpt lat="42.11933" lon="41.69797">
        <ele>1.301855</ele>
        <time>2021-08-14T22:01:03.107Z</time>
      </trkpt>
      <trkpt lat="42.11977" lon="41.69772">
        <ele>1.308394</ele>
        <time>2021-08-14T22:01:14.213Z</time>
      </trkpt>
      <trkpt lat="42.12045" lon="41.69738">
        <ele>1.318344</ele>
        <time>2021-08-14T22:01:30.876Z</time>
      </trkpt>
      <trkpt lat="42.12053" lon="41.69734">
        <ele>1.319485</ele>
        <time>2021-08-14T22:01:32.702Z</time>
      </trkpt>
      <trkpt lat="42.1218" lon="41.69658">
        <ele>1.574174</ele>
        <time>2021-08-14T22:02:06.120Z</time>
      </trkpt>
      <trkpt lat="42.12197" lon="41.69647">
        <ele>1.62205</ele>
        <time>2021-08-14T22:02:10.835Z</time>
      </trkpt>
      <trkpt lat="42.12275" lon="41.69599">
        <ele>1.853457</ele>
        <time>2021-08-14T22:02:32.522Z</time>
      </trkpt>
      <trkpt lat="42.1243" lon="41.695">
        <ele>2.416127</ele>
        <time>2021-08-14T22:03:14.720Z</time>
      </trkpt>
      <trkpt lat="42.12441" lon="41.6949">
        <ele>2.468343</ele>
        <time>2021-08-14T22:03:17.948Z</time>
      </trkpt>
      <trkpt lat="42.12483" lon="41.69459">
        <ele>2.657329</ele>
        <time>2021-08-14T22:03:30.007Z</time>
      </trkpt>
      <trkpt lat="42.12534" lon="41.69415">
        <ele>2.895235</ele>
        <time>2021-08-14T22:03:45.459Z</time>
      </trkpt>
      <trkpt lat="42.12567" lon="41.69387">
        <ele>3.048834</ele>
        <time>2021-08-14T22:03:55.356Z</time>
      </trkpt>
      <trkpt lat="42.12632" lon="41.69333">
        <ele>3.074993</ele>
        <time>2021-08-14T22:04:14.281Z</time>
      </trkpt>
      <trkpt lat="42.12639" lon="41.69327">
        <ele>3.077343</ele>
        <time>2021-08-14T22:04:16.417Z</time>
      </trkpt>
      <trkpt lat="42.12782" lon="41.69211">
        <ele>2.738164</ele>
        <time>2021-08-14T22:04:53.672Z</time>
      </trkpt>
      <trkpt lat="42.1281" lon="41.69188">
        <ele>2.566524</ele>
        <time>2021-08-14T22:05:00.637Z</time>
      </trkpt>
      <trkpt lat="42.12833" lon="41.69169">
        <ele>2.430133</ele>
        <time>2021-08-14T22:05:06.163Z</time>
      </trkpt>
      <trkpt lat="42.12909" lon="41.69108">
        <ele>2.177819</ele>
        <time>2021-08-14T22:05:25.424Z</time>
      </trkpt>
      <trkpt lat="42.12971" lon="41.69061">
        <ele>2.197949</ele>
        <time>2021-08-14T22:05:41.889Z</time>
      </trkpt>
      <trkpt lat="42.13005" lon="41.69017">
        <ele>2.211338</ele>
        <time>2021-08-14T22:05:54.280Z</time>
      </trkpt>
      <trkpt lat="42.13076" lon="41.6907">
        <ele>2.318315</ele>
        <time>2021-08-14T22:06:14.795Z</time>
      </trkpt>
      <trkpt lat="42.13126" lon="41.69063">
        <ele>2.404673</ele>
        <time>2021-08-14T22:06:26.372Z</time>
      </trkpt>
      <trkpt lat="42.13133" lon="41.69062">
        <ele>2.41645</ele>
        <time>2021-08-14T22:06:27.816Z</time>
      </trkpt>
      <trkpt lat="42.13153" lon="41.6906">
        <ele>2.450369</ele>
        <time>2021-08-14T22:06:32.394Z</time>
      </trkpt>
      <trkpt lat="42.13183" lon="41.69056">
        <ele>2.502575</ele>
        <time>2021-08-14T22:06:39.092Z</time>
      </trkpt>
      <trkpt lat="42.13199" lon="41.69053">
        <ele>2.523654</ele>
        <time>2021-08-14T22:06:42.757Z</time>
      </trkpt>
      <trkpt lat="42.13214" lon="41.69054">
        <ele>2.498737</ele>
        <time>2021-08-14T22:06:45.829Z</time>
      </trkpt>
      <trkpt lat="42.13225" lon="41.69052">
        <ele>2.478891</ele>
        <time>2021-08-14T22:06:48.422Z</time>
      </trkpt>
      <trkpt lat="42.13233" lon="41.69049">
        <ele>2.464058</ele>
        <time>2021-08-14T22:06:50.261Z</time>
      </trkpt>
      <trkpt lat="42.13235" lon="41.69051">
        <ele>2.459187</ele>
        <time>2021-08-14T22:06:50.825Z</time>
      </trkpt>
      <trkpt lat="42.13238" lon="41.69052">
        <ele>2.454168</ele>
        <time>2021-08-14T22:06:51.425Z</time>
      </trkpt>
      <trkpt lat="42.13241" lon="41.69051">
        <ele>2.449215</ele>
        <time>2021-08-14T22:06:52.003Z</time>
      </trkpt>
      <trkpt lat="42.13243" lon="41.6905">
        <ele>2.446066</ele>
        <time>2021-08-14T22:06:52.395Z</time>
      </trkpt>
      <trkpt lat="42.13245" lon="41.69047">
        <ele>2.439747</ele>
        <time>2021-08-14T22:06:53.189Z</time>
      </trkpt>
      <trkpt lat="42.13246" lon="41.69044">
        <ele>2.436561</ele>
        <time>2021-08-14T22:06:53.587Z</time>
      </trkpt>
      <trkpt lat="42.13246" lon="41.69044">
        <ele>2.43604</ele>
        <time>2021-08-14T22:06:53.653Z</time>
      </trkpt>
      <trkpt lat="42.13263" lon="41.69043">
        <ele>2.405671</ele>
        <time>2021-08-14T22:06:57.584Z</time>
      </trkpt>
      <trkpt lat="42.13268" lon="41.69042">
        <ele>2.396716</ele>
        <time>2021-08-14T22:06:58.656Z</time>
      </trkpt>
      <trkpt lat="42.13272" lon="41.69039">
        <ele>2.388994</ele>
        <time>2021-08-14T22:06:59.591Z</time>
      </trkpt>
      <trkpt lat="42.13302" lon="41.69035">
        <ele>2.335645</ele>
        <time>2021-08-14T22:07:06.283Z</time>
      </trkpt>
      <trkpt lat="42.13316" lon="41.69029">
        <ele>2.310633</ele>
        <time>2021-08-14T22:07:09.488Z</time>
      </trkpt>
      <trkpt lat="42.13412" lon="41.68956">
        <ele>2.199305</ele>
        <time>2021-08-14T22:07:34.966Z</time>
      </trkpt>
      <trkpt lat="42.13466" lon="41.69017">
        <ele>2.182464</ele>
        <time>2021-08-14T22:07:51.684Z</time>
      </trkpt>
      <trkpt lat="42.13548" lon="41.68931">
        <ele>2.002604</ele>
        <time>2021-08-14T22:08:15.273Z</time>
      </trkpt>
      <trkpt lat="42.1363" lon="41.68835">
        <ele>1.624851</ele>
        <time>2021-08-14T22:08:39.334Z</time>
      </trkpt>
      <trkpt lat="42.13685" lon="41.68731">
        <ele>1.356675</ele>
        <time>2021-08-14T22:09:00.409Z</time>
      </trkpt>
      <trkpt lat="42.13711" lon="41.6868">
        <ele>1.236366</ele>
        <time>2021-08-14T22:09:10.621Z</time>
      </trkpt>
      <trkpt lat="42.13735" lon="41.6862">
        <ele>1.10101</ele>
        <time>2021-08-14T22:09:22.116Z</time>
      </trkpt>
      <trkpt lat="42.13739" lon="41.6862">
        <ele>1.09059</ele>
        <time>2021-08-14T22:09:22.960Z</time>
      </trkpt>
      <trkpt lat="42.13754" lon="41.68589">
        <ele>1.050186</ele>
        <time>2021-08-14T22:09:29.148Z</time>
      </trkpt>
      <trkpt lat="42.13855" lon="41.68414">
        <ele>0.893777</ele>
        <time>2021-08-14T22:10:06.736Z</time>
      </trkpt>
      <trkpt lat="42.13926" lon="41.68289">
        <ele>1.169445</ele>
        <time>2021-08-14T22:10:35.159Z</time>
      </trkpt>
      <trkpt lat="42.13955" lon="41.68315">
        <ele>1.251371</ele>
        <time>2021-08-14T22:10:43.502Z</time>
      </trkpt>
      <trkpt lat="42.1397" lon="41.68329">
        <ele>1.293363</ele>
        <time>2021-08-14T22:10:47.867Z</time>
      </trkpt>
      <trkpt lat="42.13991" lon="41.68344">
        <ele>1.357499</ele>
        <time>2021-08-14T22:10:53.538Z</time>
      </trkpt>
      <trkpt lat="42.14007" lon="41.68351">
        <ele>1.406291</ele>
        <time>2021-08-14T22:10:57.726Z</time>
      </trkpt>
      <trkpt lat="42.14021" lon="41.68356">
        <ele>1.446602</ele>
        <time>2021-08-14T22:11:01.113Z</time>
      </trkpt>
      <trkpt lat="42.14105" lon="41.68379">
        <ele>1.688113</ele>
        <time>2021-08-14T22:11:21.385Z</time>
      </trkpt>
      <trkpt lat="42.14299" lon="41.68317">
        <ele>2.121181</ele>
        <time>2021-08-14T22:12:07.935Z</time>
      </trkpt>
      <trkpt lat="42.14411" lon="41.68276">
        <ele>2.181931</ele>
        <time>2021-08-14T22:12:34.071Z</time>
      </trkpt>
      <trkpt lat="42.1456" lon="41.68224">
        <ele>2.065972</ele>
        <time>2021-08-14T22:13:08.206Z</time>
      </trkpt>
      <trkpt lat="42.14629" lon="41.6813">
        <ele>1.87648</ele>
        <time>2021-08-14T22:13:28.753Z</time>
      </trkpt>
      <trkpt lat="42.14673" lon="41.68065">
        <ele>1.999593</ele>
        <time>2021-08-14T22:13:43.199Z</time>
      </trkpt>
      <trkpt lat="42.14712" lon="41.68064">
        <ele>2.123881</ele>
        <time>2021-08-14T22:13:52.517Z</time>
      </trkpt>
      <trkpt lat="42.1473" lon="41.68064">
        <ele>2.181243</ele>
        <time>2021-08-14T22:13:56.851Z</time>
      </trkpt>
      <trkpt lat="42.14736" lon="41.68068">
        <ele>2.202856</ele>
        <time>2021-08-14T22:13:58.451Z</time>
      </trkpt>
      <trkpt lat="42.1475" lon="41.68068">
        <ele>2.245554</ele>
        <time>2021-08-14T22:14:01.767Z</time>
      </trkpt>
      <trkpt lat="42.14756" lon="41.68063">
        <ele>2.267271</ele>
        <time>2021-08-14T22:14:03.411Z</time>
      </trkpt>
      <trkpt lat="42.14761" lon="41.68057">
        <ele>2.290514</ele>
        <time>2021-08-14T22:14:05.185Z</time>
      </trkpt>
      <trkpt lat="42.14764" lon="41.68048">
        <ele>2.314023</ele>
        <time>2021-08-14T22:14:06.925Z</time>
      </trkpt>
      <trkpt lat="42.14801" lon="41.68003">
        <ele>2.552716</ele>
        <time>2021-08-14T22:14:19.836Z</time>
      </trkpt>
      <trkpt lat="42.14811" lon="41.67995">
        <ele>2.643374</ele>
        <time>2021-08-14T22:14:23.058Z</time>
      </trkpt>
      <trkpt lat="42.14933" lon="41.67903">
        <ele>3.749046</ele>
        <time>2021-08-14T22:15:01.323Z</time>
      </trkpt>
      <trkpt lat="42.14946" lon="41.67917">
        <ele>3.824968</ele>
        <time>2021-08-14T22:15:05.408Z</time>
      </trkpt>
      <trkpt lat="42.14954" lon="41.67932">
        <ele>3.771924</ele>
        <time>2021-08-14T22:15:08.700Z</time>
      </trkpt>
      <trkpt lat="42.14995" lon="41.68011">
        <ele>3.507804</ele>
        <time>2021-08-14T22:15:24.696Z</time>
      </trkpt>
      <trkpt lat="42.1503" lon="41.68069">
        <ele>3.301529</ele>
        <time>2021-08-14T22:15:36.585Z</time>
      </trkpt>
      <trkpt lat="42.15041" lon="41.68087">
        <ele>3.238519</ele>
        <time>2021-08-14T22:15:40.045Z</time>
      </trkpt>
      <trkpt lat="42.15212" lon="41.68302">
        <ele>1.624976</ele>
        <time>2021-08-14T22:16:29.570Z</time>
      </trkpt>
      <trkpt lat="42.15271" lon="41.68386">
        <ele>1.344196</ele>
        <time>2021-08-14T22:16:48.944Z</time>
      </trkpt>
      <trkpt lat="42.15302" lon="41.68442">
        <ele>1.17569</ele>
        <time>2021-08-14T22:17:00.784Z</time>
      </trkpt>
      <trkpt lat="42.15403" lon="41.68549">
        <ele>1.290523</ele>
        <time>2021-08-14T22:17:30.784Z</time>
      </trkpt>
      <trkpt lat="42.1545" lon="41.68579">
        <ele>1.34606</ele>
        <time>2021-08-14T22:17:43.209Z</time>
      </trkpt>
      <trkpt lat="42.15479" lon="41.68588">
        <ele>1.463361</ele>
        <time>2021-08-14T22:17:50.806Z</time>
      </trkpt>
      <trkpt lat="42.15533" lon="41.68595">
        <ele>1.706287</ele>
        <time>2021-08-14T22:18:05.049Z</time>
      </trkpt>
      <trkpt lat="42.15594" lon="41.686">
        <ele>1.981401</ele>
        <time>2021-08-14T22:18:20.497Z</time>
      </trkpt>
      <trkpt lat="42.156" lon="41.68603">
        <ele>2.009325</ele>
        <time>2021-08-14T22:18:22.202Z</time>
      </trkpt>
      <trkpt lat="42.15612" lon="41.68614">
        <ele>2.07507</ele>
        <time>2021-08-14T22:18:25.700Z</time>
      </trkpt>
      <trkpt lat="42.15616" lon="41.68621">
        <ele>2.105853</ele>
        <time>2021-08-14T22:18:27.481Z</time>
      </trkpt>
      <trkpt lat="42.15629" lon="41.68651">
        <ele>2.211358</ele>
        <time>2021-08-14T22:18:33.770Z</time>
      </trkpt>
      <trkpt lat="42.15632" lon="41.68656">
        <ele>2.227961</ele>
        <time>2021-08-14T22:18:34.792Z</time>
      </trkpt>
      <trkpt lat="42.15681" lon="41.68768">
        <ele>2.588933</ele>
        <time>2021-08-14T22:18:59.924Z</time>
      </trkpt>
      <trkpt lat="42.157" lon="41.68815">
        <ele>2.737815</ele>
        <time>2021-08-14T22:19:09.898Z</time>
      </trkpt>
      <trkpt lat="42.15709" lon="41.68833">
        <ele>2.797087</ele>
        <time>2021-08-14T22:19:13.462Z</time>
      </trkpt>
      <trkpt lat="42.15719" lon="41.68843">
        <ele>2.829405</ele>
        <time>2021-08-14T22:19:16.593Z</time>
      </trkpt>
      <trkpt lat="42.15747" lon="41.68865">
        <ele>2.78488</ele>
        <time>2021-08-14T22:19:24.068Z</time>
      </trkpt>
      <trkpt lat="42.15778" lon="41.68886">
        <ele>2.737215</ele>
        <time>2021-08-14T22:19:32.171Z</time>
      </trkpt>
      <trkpt lat="42.15787" lon="41.68891">
        <ele>2.724834</ele>
        <time>2021-08-14T22:19:34.537Z</time>
      </trkpt>
      <trkpt lat="42.1579" lon="41.68893">
        <ele>2.719367</ele>
        <time>2021-08-14T22:19:35.394Z</time>
      </trkpt>
      <trkpt lat="42.15921" lon="41.68964">
        <ele>2.255576</ele>
        <time>2021-08-14T22:20:06.928Z</time>
      </trkpt>
      <trkpt lat="42.16001" lon="41.69002">
        <ele>1.62085</ele>
        <time>2021-08-14T22:20:24.530Z</time>
      </trkpt>
      <trkpt lat="42.1604" lon="41.69021">
        <ele>1.307389</ele>
        <time>2021-08-14T22:20:33.277Z</time>
      </trkpt>
      <trkpt lat="42.1606" lon="41.69031">
        <ele>1.169305</ele>
        <time>2021-08-14T22:20:37.675Z</time>
      </trkpt>
      <trkpt lat="42.16092" lon="41.69046">
        <ele>0.970174</ele>
        <time>2021-08-14T22:20:44.877Z</time>
      </trkpt>
      <trkpt lat="42.16106" lon="41.69053">
        <ele>0.883413</ele>
        <time>2021-08-14T22:20:48.077Z</time>
      </trkpt>
      <trkpt lat="42.16153" lon="41.69076">
        <ele>0.593638</ele>
        <time>2021-08-14T22:20:58.751Z</time>
      </trkpt>
      <trkpt lat="42.16202" lon="41.69101">
        <ele>0.286581</ele>
        <time>2021-08-14T22:21:10.323Z</time>
      </trkpt>
      <trkpt lat="42.16286" lon="41.69142">
        <ele>0.053666</ele>
        <time>2021-08-14T22:21:30.693Z</time>
      </trkpt>
      <trkpt lat="42.16498" lon="41.69227">
        <ele>-0.397228</ele>
        <time>2021-08-14T22:22:20.836Z</time>
      </trkpt>
      <trkpt lat="42.16551" lon="41.69249">
        <ele>-0.51958</ele>
        <time>2021-08-14T22:22:33.090Z</time>
      </trkpt>
      <trkpt lat="42.16605" lon="41.69271">
        <ele>-0.71803</ele>
        <time>2021-08-14T22:22:45.640Z</time>
      </trkpt>
      <trkpt lat="42.16696" lon="41.69308">
        <ele>-1.077461</ele>
        <time>2021-08-14T22:23:06.518Z</time>
      </trkpt>
      <trkpt lat="42.16726" lon="41.6932">
        <ele>-1.196289</ele>
        <time>2021-08-14T22:23:13.377Z</time>
      </trkpt>
      <trkpt lat="42.1673" lon="41.69322">
        <ele>-1.215354</ele>
        <time>2021-08-14T22:23:14.509Z</time>
      </trkpt>
      <trkpt lat="42.16742" lon="41.69327">
        <ele>-1.249515</ele>
        <time>2021-08-14T22:23:17.273Z</time>
      </trkpt>
      <trkpt lat="42.16935" lon="41.69401">
        <ele>-1.634684</ele>
        <time>2021-08-14T22:24:02.154Z</time>
      </trkpt>
      <trkpt lat="42.17657" lon="41.69677">
        <ele>-0.4753</ele>
        <time>2021-08-14T22:27:03.041Z</time>
      </trkpt>
      <trkpt lat="42.18091" lon="41.69867">
        <ele>-0.113564</ele>
        <time>2021-08-14T22:28:49.701Z</time>
      </trkpt>
      <trkpt lat="42.18309" lon="41.70015">
        <ele>0.886106</ele>
        <time>2021-08-14T22:29:50.323Z</time>
      </trkpt>
      <trkpt lat="42.18474" lon="41.70145">
        <ele>2.36071</ele>
        <time>2021-08-14T22:30:44.634Z</time>
      </trkpt>
      <trkpt lat="42.18487" lon="41.7015">
        <ele>2.424072</ele>
        <time>2021-08-14T22:30:48.214Z</time>
      </trkpt>
      <trkpt lat="42.18506" lon="41.70151">
        <ele>2.516041</ele>
        <time>2021-08-14T22:30:53.717Z</time>
      </trkpt>
      <trkpt lat="42.1851" lon="41.70181">
        <ele>2.624981</ele>
        <time>2021-08-14T22:30:59.307Z</time>
      </trkpt>
      <trkpt lat="42.1854" lon="41.70284">
        <ele>2.883615</ele>
        <time>2021-08-14T22:31:17.807Z</time>
      </trkpt>
      <trkpt lat="42.18565" lon="41.70372">
        <ele>2.324375</ele>
        <time>2021-08-14T22:31:32.071Z</time>
      </trkpt>
      <trkpt lat="42.18571" lon="41.70399">
        <ele>2.151493</ele>
        <time>2021-08-14T22:31:36.299Z</time>
      </trkpt>
      <trkpt lat="42.18581" lon="41.70461">
        <ele>1.777013</ele>
        <time>2021-08-14T22:31:45.537Z</time>
      </trkpt>
      <trkpt lat="42.18589" lon="41.70508">
        <ele>1.511548</ele>
        <time>2021-08-14T22:31:52.546Z</time>
      </trkpt>
      <trkpt lat="42.18596" lon="41.70548">
        <ele>1.440474</ele>
        <time>2021-08-14T22:31:58.454Z</time>
      </trkpt>
      <trkpt lat="42.186" lon="41.70561">
        <ele>1.417466</ele>
        <time>2021-08-14T22:32:00.439Z</time>
      </trkpt>
      <trkpt lat="42.18605" lon="41.70572">
        <ele>1.393115</ele>
        <time>2021-08-14T22:32:02.508Z</time>
      </trkpt>
      <trkpt lat="42.18611" lon="41.70579">
        <ele>1.375494</ele>
        <time>2021-08-14T22:32:03.981Z</time>
      </trkpt>
      <trkpt lat="42.18743" lon="41.70728">
        <ele>1.544691</ele>
        <time>2021-08-14T22:32:44.190Z</time>
      </trkpt>
      <trkpt lat="42.18802" lon="41.70776">
        <ele>2.104301</ele>
        <time>2021-08-14T22:33:03.207Z</time>
      </trkpt>
      <trkpt lat="42.18815" lon="41.70781">
        <ele>2.21351</ele>
        <time>2021-08-14T22:33:07.134Z</time>
      </trkpt>
      <trkpt lat="42.18819" lon="41.70783">
        <ele>2.247603</ele>
        <time>2021-08-14T22:33:08.277Z</time>
      </trkpt>
      <trkpt lat="42.18837" lon="41.70786">
        <ele>2.396525</ele>
        <time>2021-08-14T22:33:13.408Z</time>
      </trkpt>
      <trkpt lat="42.18917" lon="41.70785">
        <ele>2.842241</ele>
        <time>2021-08-14T22:33:35.908Z</time>
      </trkpt>
      <trkpt lat="42.18929" lon="41.70785">
        <ele>2.900216</ele>
        <time>2021-08-14T22:33:39.231Z</time>
      </trkpt>
      <trkpt lat="42.18937" lon="41.70785">
        <ele>2.936508</ele>
        <time>2021-08-14T22:33:41.105Z</time>
      </trkpt>
      <trkpt lat="42.1899" lon="41.70784">
        <ele>3.188195</ele>
        <time>2021-08-14T22:33:53.877Z</time>
      </trkpt>
      <trkpt lat="42.19003" lon="41.70784">
        <ele>3.251353</ele>
        <time>2021-08-14T22:33:56.816Z</time>
      </trkpt>
      <trkpt lat="42.1901" lon="41.70784">
        <ele>3.284817</ele>
        <time>2021-08-14T22:33:58.311Z</time>
      </trkpt>
      <trkpt lat="42.1902" lon="41.70783">
        <ele>3.328178</ele>
        <time>2021-08-14T22:34:00.266Z</time>
      </trkpt>
      <trkpt lat="42.19034" lon="41.70783">
        <ele>3.394655</ele>
        <time>2021-08-14T22:34:03.362Z</time>
      </trkpt>
      <trkpt lat="42.19057" lon="41.70782">
        <ele>3.308337</ele>
        <time>2021-08-14T22:34:08.229Z</time>
      </trkpt>
      <trkpt lat="42.19173" lon="41.70776">
        <ele>2.720554</ele>
        <time>2021-08-14T22:34:32.325Z</time>
      </trkpt>
      <trkpt lat="42.19237" lon="41.70776">
        <ele>2.414717</ele>
        <time>2021-08-14T22:34:45.234Z</time>
      </trkpt>
      <trkpt lat="42.19463" lon="41.70772">
        <ele>1.541881</ele>
        <time>2021-08-14T22:35:33.280Z</time>
      </trkpt>
      <trkpt lat="42.19519" lon="41.70798">
        <ele>1.370477</ele>
        <time>2021-08-14T22:35:45.873Z</time>
      </trkpt>
      <trkpt lat="42.19557" lon="41.7083">
        <ele>1.238366</ele>
        <time>2021-08-14T22:35:55.787Z</time>
      </trkpt>
      <trkpt lat="42.1958" lon="41.70857">
        <ele>1.188524</ele>
        <time>2021-08-14T22:36:02.434Z</time>
      </trkpt>
      <trkpt lat="42.19595" lon="41.70875">
        <ele>1.166713</ele>
        <time>2021-08-14T22:36:06.750Z</time>
      </trkpt>
      <trkpt lat="42.19573" lon="41.70916">
        <ele>1.126142</ele>
        <time>2021-08-14T22:36:15.364Z</time>
      </trkpt>
      <trkpt lat="42.19585" lon="41.70937">
        <ele>1.104004</ele>
        <time>2021-08-14T22:36:20.182Z</time>
      </trkpt>
      <trkpt lat="42.20042" lon="41.72098">
        <ele>0.085252</ele>
        <time>2021-08-14T22:40:03.291Z</time>
      </trkpt>
      <trkpt lat="42.20067" lon="41.72151">
        <ele>0.037753</ele>
        <time>2021-08-14T22:40:13.889Z</time>
      </trkpt>
      <trkpt lat="42.20092" lon="41.72133">
        <ele>0.008397</ele>
        <time>2021-08-14T22:40:20.485Z</time>
      </trkpt>
      <trkpt lat="42.20096" lon="41.72145">
        <ele>-0.001239</ele>
        <time>2021-08-14T22:40:22.591Z</time>
      </trkpt>
      <trkpt lat="42.20108" lon="41.72179">
        <ele>-0.029562</ele>
        <time>2021-08-14T22:40:28.734Z</time>
      </trkpt>
      <trkpt lat="42.21285" lon="41.75352">
        <ele>-0.36165</ele>
        <time>2021-08-14T22:50:13.729Z</time>
      </trkpt>
      <trkpt lat="42.21317" lon="41.75453">
        <ele>-0.482242</ele>
        <time>2021-08-14T22:50:31.364Z</time>
      </trkpt>
      <trkpt lat="42.21298" lon="41.75479">
        <ele>-0.522564</ele>
        <time>2021-08-14T22:50:37.454Z</time>
      </trkpt>
      <trkpt lat="42.2135" lon="41.75699">
        <ele>-0.77951</ele>
        <time>2021-08-14T22:51:16.216Z</time>
      </trkpt>
      <trkpt lat="42.21652" lon="41.77025">
        <ele>0.204812</ele>
        <time>2021-08-14T22:55:19.072Z</time>
      </trkpt>
      <trkpt lat="42.2179" lon="41.77634">
        <ele>1.819032</ele>
        <time>2021-08-14T22:57:17.980Z</time>
      </trkpt>
      <trkpt lat="42.21911" lon="41.78151">
        <ele>2.327692</ele>
        <time>2021-08-14T22:58:54.145Z</time>
      </trkpt>
      <trkpt lat="42.21968" lon="41.78412">
        <ele>2.390566</ele>
        <time>2021-08-14T22:59:40.423Z</time>
      </trkpt>
      <trkpt lat="42.22028" lon="41.78664">
        <ele>2.554217</ele>
        <time>2021-08-14T23:00:27.639Z</time>
      </trkpt>
      <trkpt lat="42.22084" lon="41.78918">
        <ele>2.700688</ele>
        <time>2021-08-14T23:01:13.775Z</time>
      </trkpt>
      <trkpt lat="42.22126" lon="41.79169">
        <ele>2.972239</ele>
        <time>2021-08-14T23:01:58.442Z</time>
      </trkpt>
      <trkpt lat="42.22172" lon="41.79416">
        <ele>3.679451</ele>
        <time>2021-08-14T23:02:46.750Z</time>
      </trkpt>
      <trkpt lat="42.22177" lon="41.79462">
        <ele>3.833424</ele>
        <time>2021-08-14T23:02:55.484Z</time>
      </trkpt>
      <trkpt lat="42.22183" lon="41.79435">
        <ele>3.905816</ele>
        <time>2021-08-14T23:03:00.766Z</time>
      </trkpt>
      <trkpt lat="42.22187" lon="41.79412">
        <ele>3.940382</ele>
        <time>2021-08-14T23:03:05.116Z</time>
      </trkpt>
      <trkpt lat="42.22199" lon="41.79484">
        <ele>4.049877</ele>
        <time>2021-08-14T23:03:18.183Z</time>
      </trkpt>
      <trkpt lat="42.22269" lon="41.79751">
        <ele>4.175302</ele>
        <time>2021-08-14T23:04:05.588Z</time>
      </trkpt>
      <trkpt lat="42.22287" lon="41.79809">
        <ele>4.145357</ele>
        <time>2021-08-14T23:04:15.624Z</time>
      </trkpt>
      <trkpt lat="42.22315" lon="41.79904">
        <ele>4.01281</ele>
        <time>2021-08-14T23:04:31.992Z</time>
      </trkpt>
      <trkpt lat="42.22349" lon="41.80046">
        <ele>3.768849</ele>
        <time>2021-08-14T23:04:55.682Z</time>
      </trkpt>
      <trkpt lat="42.22457" lon="41.80544">
        <ele>3.511396</ele>
        <time>2021-08-14T23:06:21.251Z</time>
      </trkpt>
      <trkpt lat="42.225" lon="41.8075">
        <ele>3.031373</ele>
        <time>2021-08-14T23:06:54.779Z</time>
      </trkpt>
      <trkpt lat="42.22572" lon="41.81075">
        <ele>2.500882</ele>
        <time>2021-08-14T23:07:49.141Z</time>
      </trkpt>
      <trkpt lat="42.22585" lon="41.81146">
        <ele>2.459152</ele>
        <time>2021-08-14T23:08:01.060Z</time>
      </trkpt>
      <trkpt lat="42.22859" lon="41.82486">
        <ele>2.478491</ele>
        <time>2021-08-14T23:11:51.108Z</time>
      </trkpt>
      <trkpt lat="42.22885" lon="41.82616">
        <ele>2.454371</ele>
        <time>2021-08-14T23:12:13.805Z</time>
      </trkpt>
      <trkpt lat="42.22905" lon="41.82714">
        <ele>2.291098</ele>
        <time>2021-08-14T23:12:30.043Z</time>
      </trkpt>
      <trkpt lat="42.22953" lon="41.82955">
        <ele>2.120824</ele>
        <time>2021-08-14T23:13:09.349Z</time>
      </trkpt>
      <trkpt lat="42.23091" lon="41.83655">
        <ele>3.596096</ele>
        <time>2021-08-14T23:15:20.150Z</time>
      </trkpt>
      <trkpt lat="42.23301" lon="41.84724">
        <ele>2.899688</ele>
        <time>2021-08-14T23:18:19.579Z</time>
      </trkpt>
      <trkpt lat="42.23306" lon="41.84748">
        <ele>2.877377</ele>
        <time>2021-08-14T23:18:23.587Z</time>
      </trkpt>
      <trkpt lat="42.23316" lon="41.84797">
        <ele>2.923134</ele>
        <time>2021-08-14T23:18:32.031Z</time>
      </trkpt>
      <trkpt lat="42.23434" lon="41.85391">
        <ele>3.338819</ele>
        <time>2021-08-14T23:20:17.264Z</time>
      </trkpt>
      <trkpt lat="42.23523" lon="41.85898">
        <ele>1.880773</ele>
        <time>2021-08-14T23:21:38.379Z</time>
      </trkpt>
      <trkpt lat="42.23671" lon="41.86753">
        <ele>2.435852</ele>
        <time>2021-08-14T23:24:06.220Z</time>
      </trkpt>
      <trkpt lat="42.23741" lon="41.87188">
        <ele>3.470353</ele>
        <time>2021-08-14T23:25:25.959Z</time>
      </trkpt>
      <trkpt lat="42.23976" lon="41.88763">
        <ele>5.609537</ele>
        <time>2021-08-14T23:30:01.486Z</time>
      </trkpt>
      <trkpt lat="42.23928" lon="41.88739">
        <ele>5.718603</ele>
        <time>2021-08-14T23:30:13.797Z</time>
      </trkpt>
      <trkpt lat="42.23924" lon="41.88749">
        <ele>5.737525</ele>
        <time>2021-08-14T23:30:16.353Z</time>
      </trkpt>
      <trkpt lat="42.23922" lon="41.88759">
        <ele>5.754092</ele>
        <time>2021-08-14T23:30:18.582Z</time>
      </trkpt>
      <trkpt lat="42.23937" lon="41.88767">
        <ele>5.790033</ele>
        <time>2021-08-14T23:30:22.456Z</time>
      </trkpt>
      <trkpt lat="42.24173" lon="41.90324">
        <ele>8.322679</ele>
        <time>2021-08-14T23:35:08.887Z</time>
      </trkpt>
      <trkpt lat="42.24384" lon="41.91785">
        <ele>7.672781</ele>
        <time>2021-08-14T23:39:22.481Z</time>
      </trkpt>
      <trkpt lat="42.24386" lon="41.9182">
        <ele>7.731128</ele>
        <time>2021-08-14T23:39:28.812Z</time>
      </trkpt>
      <trkpt lat="42.24405" lon="41.91829">
        <ele>7.773642</ele>
        <time>2021-08-14T23:39:33.533Z</time>
      </trkpt>
      <trkpt lat="42.24428" lon="41.91837">
        <ele>7.827063</ele>
        <time>2021-08-14T23:39:39.435Z</time>
      </trkpt>
      <trkpt lat="42.24667" lon="41.93475">
        <ele>10.498918</ele>
        <time>2021-08-14T23:44:29.250Z</time>
      </trkpt>
      <trkpt lat="42.24779" lon="41.94253">
        <ele>11.069508</ele>
        <time>2021-08-14T23:46:41.537Z</time>
      </trkpt>
      <trkpt lat="42.2479" lon="41.94368">
        <ele>11.307544</ele>
        <time>2021-08-14T23:47:02.315Z</time>
      </trkpt>
      <trkpt lat="42.24792" lon="41.94386">
        <ele>11.396608</ele>
        <time>2021-08-14T23:47:05.660Z</time>
      </trkpt>
      <trkpt lat="42.2483" lon="41.94676">
        <ele>12.805448</ele>
        <time>2021-08-14T23:48:02.305Z</time>
      </trkpt>
      <trkpt lat="42.24872" lon="41.9496">
        <ele>13.487687</ele>
        <time>2021-08-14T23:48:55.523Z</time>
      </trkpt>
      <trkpt lat="42.24879" lon="41.95015">
        <ele>13.484797</ele>
        <time>2021-08-14T23:49:04.306Z</time>
      </trkpt>
      <trkpt lat="42.24912" lon="41.95247">
        <ele>12.57649</ele>
        <time>2021-08-14T23:49:39.878Z</time>
      </trkpt>
      <trkpt lat="42.24928" lon="41.95341">
        <ele>12.204391</ele>
        <time>2021-08-14T23:49:54.735Z</time>
      </trkpt>
      <trkpt lat="42.24949" lon="41.95429">
        <ele>12.030626</ele>
        <time>2021-08-14T23:50:09.502Z</time>
      </trkpt>
      <trkpt lat="42.24967" lon="41.95524">
        <ele>11.849323</ele>
        <time>2021-08-14T23:50:25.408Z</time>
      </trkpt>
      <trkpt lat="42.25034" lon="41.95997">
        <ele>11.975169</ele>
        <time>2021-08-14T23:51:45.931Z</time>
      </trkpt>
      <trkpt lat="42.25213" lon="41.97255">
        <ele>11.653276</ele>
        <time>2021-08-14T23:55:16.574Z</time>
      </trkpt>
      <trkpt lat="42.25258" lon="41.97573">
        <ele>11.429685</ele>
        <time>2021-08-14T23:56:08.766Z</time>
      </trkpt>
      <trkpt lat="42.25402" lon="41.9867">
        <ele>12.312208</ele>
        <time>2021-08-14T23:59:17.596Z</time>
      </trkpt>
      <trkpt lat="42.25488" lon="41.99246">
        <ele>12.962119</ele>
        <time>2021-08-15T00:00:57.735Z</time>
      </trkpt>
      <trkpt lat="42.25526" lon="41.99429">
        <ele>13.155895</ele>
        <time>2021-08-15T00:01:29.754Z</time>
      </trkpt>
      <trkpt lat="42.25599" lon="41.99936">
        <ele>13.950808</ele>
        <time>2021-08-15T00:02:59.155Z</time>
      </trkpt>
      <trkpt lat="42.25598" lon="41.99956">
        <ele>13.990871</ele>
        <time>2021-08-15T00:03:02.736Z</time>
      </trkpt>
      <trkpt lat="42.25584" lon="42">
        <ele>14.088076</ele>
        <time>2021-08-15T00:03:11.247Z</time>
      </trkpt>
      <trkpt lat="42.25582" lon="42.00022">
        <ele>14.131398</ele>
        <time>2021-08-15T00:03:14.988Z</time>
      </trkpt>
      <trkpt lat="42.25589" lon="42.00065">
        <ele>14.221612</ele>
        <time>2021-08-15T00:03:22.856Z</time>
      </trkpt>
      <trkpt lat="42.25637" lon="42.00168">
        <ele>14.383547</ele>
        <time>2021-08-15T00:03:43.992Z</time>
      </trkpt>
      <trkpt lat="42.25643" lon="42.00197">
        <ele>14.423032</ele>
        <time>2021-08-15T00:03:49.115Z</time>
      </trkpt>
      <trkpt lat="42.25752" lon="42.00983">
        <ele>14.970093</ele>
        <time>2021-08-15T00:06:03.047Z</time>
      </trkpt>
      <trkpt lat="42.25934" lon="42.02295">
        <ele>17.865123</ele>
        <time>2021-08-15T00:09:58.143Z</time>
      </trkpt>
      <trkpt lat="42.25947" lon="42.02421">
        <ele>18.10589</ele>
        <time>2021-08-15T00:10:20.273Z</time>
      </trkpt>
      <trkpt lat="42.2595" lon="42.02466">
        <ele>18.170405</ele>
        <time>2021-08-15T00:10:28.125Z</time>
      </trkpt>
      <trkpt lat="42.2596" lon="42.02601">
        <ele>18.306105</ele>
        <time>2021-08-15T00:10:51.496Z</time>
      </trkpt>
      <trkpt lat="42.25963" lon="42.02639">
        <ele>18.34405</ele>
        <time>2021-08-15T00:10:57.955Z</time>
      </trkpt>
      <trkpt lat="42.25964" lon="42.02677">
        <ele>18.382507</ele>
        <time>2021-08-15T00:11:04.486Z</time>
      </trkpt>
      <trkpt lat="42.25965" lon="42.02713">
        <ele>18.317479</ele>
        <time>2021-08-15T00:11:10.520Z</time>
      </trkpt>
      <trkpt lat="42.25974" lon="42.02958">
        <ele>17.692898</ele>
        <time>2021-08-15T00:11:48.666Z</time>
      </trkpt>
      <trkpt lat="42.25987" lon="42.03185">
        <ele>17.244271</ele>
        <time>2021-08-15T00:12:25.351Z</time>
      </trkpt>
      <trkpt lat="42.26008" lon="42.0332">
        <ele>16.892951</ele>
        <time>2021-08-15T00:12:46.940Z</time>
      </trkpt>
      <trkpt lat="42.2605" lon="42.03488">
        <ele>16.781638</ele>
        <time>2021-08-15T00:13:14.864Z</time>
      </trkpt>
      <trkpt lat="42.2616" lon="42.03934">
        <ele>18.324845</ele>
        <time>2021-08-15T00:14:41.769Z</time>
      </trkpt>
      <trkpt lat="42.26233" lon="42.04227">
        <ele>19.950549</ele>
        <time>2021-08-15T00:15:41.918Z</time>
      </trkpt>
      <trkpt lat="42.26372" lon="42.04195">
        <ele>20.739152</ele>
        <time>2021-08-15T00:16:18.050Z</time>
      </trkpt>
      <trkpt lat="42.26433" lon="42.04487">
        <ele>21.671815</ele>
        <time>2021-08-15T00:17:45.806Z</time>
      </trkpt>
      <trkpt lat="42.26518" lon="42.0486">
        <ele>23.089038</ele>
        <time>2021-08-15T00:19:40.297Z</time>
      </trkpt>
      <trkpt lat="42.26561" lon="42.05048">
        <ele>23.813647</ele>
        <time>2021-08-15T00:20:37.831Z</time>
      </trkpt>
      <trkpt lat="42.26599" lon="42.05244">
        <ele>24.765846</ele>
        <time>2021-08-15T00:21:37.845Z</time>
      </trkpt>
      <trkpt lat="42.26615" lon="42.05349">
        <ele>25.547404</ele>
        <time>2021-08-15T00:22:11.060Z</time>
      </trkpt>
      <trkpt lat="42.26664" lon="42.05345">
        <ele>26.125817</ele>
        <time>2021-08-15T00:22:24.756Z</time>
      </trkpt>
      <trkpt lat="42.26695" lon="42.05343">
        <ele>26.499045</ele>
        <time>2021-08-15T00:22:33.773Z</time>
      </trkpt>
      <trkpt lat="42.26728" lon="42.05694">
        <ele>29.841579</ele>
        <time>2021-08-15T00:23:52.517Z</time>
      </trkpt>
      <trkpt lat="42.26735" lon="42.05781">
        <ele>30.480642</ele>
        <time>2021-08-15T00:24:11.137Z</time>
      </trkpt>
      <trkpt lat="42.26749" lon="42.05947">
        <ele>31.400336</ele>
        <time>2021-08-15T00:24:44.672Z</time>
      </trkpt>
      <trkpt lat="42.2675" lon="42.05963">
        <ele>31.432682</ele>
        <time>2021-08-15T00:24:47.759Z</time>
      </trkpt>
      <trkpt lat="42.26763" lon="42.06065">
        <ele>31.653088</ele>
        <time>2021-08-15T00:25:06.663Z</time>
      </trkpt>
      <trkpt lat="42.2677" lon="42.06173">
        <ele>31.729641</ele>
        <time>2021-08-15T00:25:24.975Z</time>
      </trkpt>
      <trkpt lat="42.26774" lon="42.06213">
        <ele>31.665942</ele>
        <time>2021-08-15T00:25:31.492Z</time>
      </trkpt>
      <trkpt lat="42.26776" lon="42.06228">
        <ele>31.641634</ele>
        <time>2021-08-15T00:25:34.054Z</time>
      </trkpt>
      <trkpt lat="42.26777" lon="42.06238">
        <ele>31.626018</ele>
        <time>2021-08-15T00:25:35.593Z</time>
      </trkpt>
      <trkpt lat="42.26779" lon="42.06259">
        <ele>31.591099</ele>
        <time>2021-08-15T00:25:39.355Z</time>
      </trkpt>
      <trkpt lat="42.2678" lon="42.06271">
        <ele>31.573076</ele>
        <time>2021-08-15T00:25:41.363Z</time>
      </trkpt>
      <trkpt lat="42.2678" lon="42.06274">
        <ele>31.567163</ele>
        <time>2021-08-15T00:25:41.995Z</time>
      </trkpt>
      <trkpt lat="42.26781" lon="42.0628">
        <ele>31.557589</ele>
        <time>2021-08-15T00:25:42.882Z</time>
      </trkpt>
      <trkpt lat="42.26786" lon="42.06338">
        <ele>31.466015</ele>
        <time>2021-08-15T00:25:52.653Z</time>
      </trkpt>
      <trkpt lat="42.2679" lon="42.06385">
        <ele>31.405068</ele>
        <time>2021-08-15T00:26:00.577Z</time>
      </trkpt>
      <trkpt lat="42.26799" lon="42.06488">
        <ele>31.357639</ele>
        <time>2021-08-15T00:26:18.317Z</time>
      </trkpt>
      <trkpt lat="42.26812" lon="42.06597">
        <ele>31.30779</ele>
        <time>2021-08-15T00:26:37.239Z</time>
      </trkpt>
      <trkpt lat="42.26822" lon="42.06697">
        <ele>31.323262</ele>
        <time>2021-08-15T00:26:54.555Z</time>
      </trkpt>
      <trkpt lat="42.26842" lon="42.06909">
        <ele>31.643072</ele>
        <time>2021-08-15T00:27:31.239Z</time>
      </trkpt>
      <trkpt lat="42.26856" lon="42.07017">
        <ele>32.197749</ele>
        <time>2021-08-15T00:27:53.975Z</time>
      </trkpt>
      <trkpt lat="42.26871" lon="42.07204">
        <ele>32.371872</ele>
        <time>2021-08-15T00:28:32.454Z</time>
      </trkpt>
      <trkpt lat="42.26919" lon="42.0771">
        <ele>31.271707</ele>
        <time>2021-08-15T00:29:54.301Z</time>
      </trkpt>
      <trkpt lat="42.26949" lon="42.08016">
        <ele>31.096642</ele>
        <time>2021-08-15T00:30:45.297Z</time>
      </trkpt>
      <trkpt lat="42.26955" lon="42.08108">
        <ele>31.197117</ele>
        <time>2021-08-15T00:31:01.200Z</time>
      </trkpt>
      <trkpt lat="42.26963" lon="42.08164">
        <ele>31.29164</ele>
        <time>2021-08-15T00:31:11.006Z</time>
      </trkpt>
      <trkpt lat="42.26992" lon="42.08475">
        <ele>31.749765</ele>
        <time>2021-08-15T00:32:05.238Z</time>
      </trkpt>
      <trkpt lat="42.27005" lon="42.08621">
        <ele>31.900614</ele>
        <time>2021-08-15T00:32:30.018Z</time>
      </trkpt>
      <trkpt lat="42.27005" lon="42.08625">
        <ele>31.903631</ele>
        <time>2021-08-15T00:32:30.821Z</time>
      </trkpt>
      <trkpt lat="42.27012" lon="42.08697">
        <ele>31.960414</ele>
        <time>2021-08-15T00:32:42.816Z</time>
      </trkpt>
      <trkpt lat="42.27013" lon="42.08703">
        <ele>31.965329</ele>
        <time>2021-08-15T00:32:43.838Z</time>
      </trkpt>
      <trkpt lat="42.27025" lon="42.08837">
        <ele>32.251207</ele>
        <time>2021-08-15T00:33:07.225Z</time>
      </trkpt>
      <trkpt lat="42.2703" lon="42.08892">
        <ele>32.481661</ele>
        <time>2021-08-15T00:33:16.953Z</time>
      </trkpt>
      <trkpt lat="42.27055" lon="42.08885">
        <ele>32.621843</ele>
        <time>2021-08-15T00:33:23.348Z</time>
      </trkpt>
      <trkpt lat="42.27063" lon="42.08882">
        <ele>32.670199</ele>
        <time>2021-08-15T00:33:25.499Z</time>
      </trkpt>
      <trkpt lat="42.27082" lon="42.08877">
        <ele>32.777301</ele>
        <time>2021-08-15T00:33:30.464Z</time>
      </trkpt>
      <trkpt lat="42.27093" lon="42.08873">
        <ele>32.835959</ele>
        <time>2021-08-15T00:33:33.308Z</time>
      </trkpt>
      <trkpt lat="42.27155" lon="42.08854">
        <ele>33.334125</ele>
        <time>2021-08-15T00:33:50.551Z</time>
      </trkpt>
      <trkpt lat="42.27179" lon="42.08847">
        <ele>33.576835</ele>
        <time>2021-08-15T00:33:57.100Z</time>
      </trkpt>
      <trkpt lat="42.27323" lon="42.08804">
        <ele>35.074597</ele>
        <time>2021-08-15T00:34:38.278Z</time>
      </trkpt>
      <trkpt lat="42.27343" lon="42.08905">
        <ele>35.784542</ele>
        <time>2021-08-15T00:35:05.153Z</time>
      </trkpt>
      <trkpt lat="42.27365" lon="42.08915">
        <ele>35.999099</ele>
        <time>2021-08-15T00:35:13.051Z</time>
      </trkpt>
      <trkpt lat="42.27386" lon="42.08916">
        <ele>36.195838</ele>
        <time>2021-08-15T00:35:19.950Z</time>
      </trkpt>
      <trkpt lat="42.27411" lon="42.08907">
        <ele>36.428163</ele>
        <time>2021-08-15T00:35:28.273Z</time>
      </trkpt>
      <trkpt lat="42.27427" lon="42.08987">
        <ele>36.690868</ele>
        <time>2021-08-15T00:35:48.076Z</time>
      </trkpt>
      <trkpt lat="42.27434" lon="42.08995">
        <ele>36.720391</ele>
        <time>2021-08-15T00:35:50.763Z</time>
      </trkpt>
      <trkpt lat="42.27455" lon="42.08988">
        <ele>36.793904</ele>
        <time>2021-08-15T00:35:57.703Z</time>
      </trkpt>
      <trkpt lat="42.27461" lon="42.08994">
        <ele>36.819314</ele>
        <time>2021-08-15T00:36:00.033Z</time>
      </trkpt>
      <trkpt lat="42.27473" lon="42.09048">
        <ele>36.959854</ele>
        <time>2021-08-15T00:36:12.830Z</time>
      </trkpt>
      <trkpt lat="42.2753" lon="42.09023">
        <ele>37.143235</ele>
        <time>2021-08-15T00:36:26.765Z</time>
      </trkpt>
      <trkpt lat="42.27532" lon="42.09032">
        <ele>37.15774</ele>
        <time>2021-08-15T00:36:28.358Z</time>
      </trkpt>
      <trkpt lat="42.27537" lon="42.09052">
        <ele>37.188566</ele>
        <time>2021-08-15T00:36:31.890Z</time>
      </trkpt>
      <trkpt lat="42.27538" lon="42.09065">
        <ele>37.208482</ele>
        <time>2021-08-15T00:36:34.255Z</time>
      </trkpt>
      <trkpt lat="42.27536" lon="42.09079">
        <ele>37.229728</ele>
        <time>2021-08-15T00:36:36.651Z</time>
      </trkpt>
      <trkpt lat="42.27532" lon="42.0909">
        <ele>37.247569</ele>
        <time>2021-08-15T00:36:38.703Z</time>
      </trkpt>
      <trkpt lat="42.27531" lon="42.09094">
        <ele>37.252981</ele>
        <time>2021-08-15T00:36:39.354Z</time>
      </trkpt>
      <trkpt lat="42.27537" lon="42.09105">
        <ele>37.273225</ele>
        <time>2021-08-15T00:36:41.742Z</time>
      </trkpt>
      <trkpt lat="42.27539" lon="42.09106">
        <ele>37.278885</ele>
        <time>2021-08-15T00:36:42.405Z</time>
      </trkpt>
      <trkpt lat="42.27545" lon="42.0911">
        <ele>37.291754</ele>
        <time>2021-08-15T00:36:43.938Z</time>
      </trkpt>
      <trkpt lat="42.27551" lon="42.09116">
        <ele>37.307151</ele>
        <time>2021-08-15T00:36:45.647Z</time>
      </trkpt>
      <trkpt lat="42.27556" lon="42.09124">
        <ele>37.321998</ele>
        <time>2021-08-15T00:36:47.400Z</time>
      </trkpt>
      <trkpt lat="42.27601" lon="42.09258">
        <ele>37.616329</ele>
        <time>2021-08-15T00:37:12.991Z</time>
      </trkpt>
      <trkpt lat="42.27655" lon="42.09423">
        <ele>38.227546</ele>
        <time>2021-08-15T00:37:46.131Z</time>
      </trkpt>
      <trkpt lat="42.27668" lon="42.09462">
        <ele>38.372927</ele>
        <time>2021-08-15T00:37:53.970Z</time>
      </trkpt>
      <trkpt lat="42.27708" lon="42.09582">
        <ele>38.829762</ele>
        <time>2021-08-15T00:38:18.047Z</time>
      </trkpt>
      <trkpt lat="42.27759" lon="42.09749">
        <ele>39.374881</ele>
        <time>2021-08-15T00:38:50.555Z</time>
      </trkpt>
      <trkpt lat="42.27798" lon="42.09861">
        <ele>39.685911</ele>
        <time>2021-08-15T00:39:11.714Z</time>
      </trkpt>
      <trkpt lat="42.27867" lon="42.10037">
        <ele>40.402108</ele>
        <time>2021-08-15T00:39:48.778Z</time>
      </trkpt>
      <trkpt lat="42.27903" lon="42.10123">
        <ele>40.683185</ele>
        <time>2021-08-15T00:40:07.638Z</time>
      </trkpt>
      <trkpt lat="42.27952" lon="42.10251">
        <ele>40.684557</ele>
        <time>2021-08-15T00:40:31.331Z</time>
      </trkpt>
      <trkpt lat="42.27974" lon="42.10317">
        <ele>40.685256</ele>
        <time>2021-08-15T00:40:42.793Z</time>
      </trkpt>
      <trkpt lat="42.28013" lon="42.10415">
        <ele>40.599627</ele>
        <time>2021-08-15T00:41:00.365Z</time>
      </trkpt>
      <trkpt lat="42.28034" lon="42.10474">
        <ele>40.548954</ele>
        <time>2021-08-15T00:41:10.796Z</time>
      </trkpt>
      <trkpt lat="42.28062" lon="42.10576">
        <ele>40.651161</ele>
        <time>2021-08-15T00:41:29.751Z</time>
      </trkpt>
      <trkpt lat="42.28081" lon="42.10661">
        <ele>40.988424</ele>
        <time>2021-08-15T00:41:46.759Z</time>
      </trkpt>
      <trkpt lat="42.28114" lon="42.10778">
        <ele>41.449827</ele>
        <time>2021-08-15T00:42:10.198Z</time>
      </trkpt>
      <trkpt lat="42.28155" lon="42.10876">
        <ele>41.733209</ele>
        <time>2021-08-15T00:42:30.218Z</time>
      </trkpt>
      <trkpt lat="42.2822" lon="42.11033">
        <ele>42.37941</ele>
        <time>2021-08-15T00:43:01.244Z</time>
      </trkpt>
      <trkpt lat="42.28258" lon="42.11132">
        <ele>43.018197</ele>
        <time>2021-08-15T00:43:23.458Z</time>
      </trkpt>
      <trkpt lat="42.28297" lon="42.11225">
        <ele>43.642037</ele>
        <time>2021-08-15T00:43:45.454Z</time>
      </trkpt>
      <trkpt lat="42.28345" lon="42.11283">
        <ele>44.186918</ele>
        <time>2021-08-15T00:44:03.513Z</time>
      </trkpt>
      <trkpt lat="42.28382" lon="42.11344">
        <ele>44.681569</ele>
        <time>2021-08-15T00:44:19.775Z</time>
      </trkpt>
      <trkpt lat="42.28491" lon="42.11656">
        <ele>44.329913</ele>
        <time>2021-08-15T00:45:15.535Z</time>
      </trkpt>
      <trkpt lat="42.28501" lon="42.11683">
        <ele>44.142804</ele>
        <time>2021-08-15T00:45:19.890Z</time>
      </trkpt>
      <trkpt lat="42.28545" lon="42.11819">
        <ele>43.226934</ele>
        <time>2021-08-15T00:45:41.252Z</time>
      </trkpt>
      <trkpt lat="42.28569" lon="42.11884">
        <ele>43.266842</ele>
        <time>2021-08-15T00:45:52.237Z</time>
      </trkpt>
      <trkpt lat="42.28572" lon="42.11894">
        <ele>43.276999</ele>
        <time>2021-08-15T00:45:54.103Z</time>
      </trkpt>
      <trkpt lat="42.286" lon="42.11967">
        <ele>43.351907</ele>
        <time>2021-08-15T00:46:07.703Z</time>
      </trkpt>
      <trkpt lat="42.28653" lon="42.12055">
        <ele>43.728782</ele>
        <time>2021-08-15T00:46:30.826Z</time>
      </trkpt>
      <trkpt lat="42.28712" lon="42.12137">
        <ele>44.796929</ele>
        <time>2021-08-15T00:46:56.248Z</time>
      </trkpt>
      <trkpt lat="42.28719" lon="42.12146">
        <ele>44.911231</ele>
        <time>2021-08-15T00:46:59.352Z</time>
      </trkpt>
      <trkpt lat="42.28831" lon="42.12302">
        <ele>46.378401</ele>
        <time>2021-08-15T00:47:43.077Z</time>
      </trkpt>
      <trkpt lat="42.28886" lon="42.12378">
        <ele>46.916817</ele>
        <time>2021-08-15T00:48:01.533Z</time>
      </trkpt>
      <trkpt lat="42.29001" lon="42.12533">
        <ele>47.55647</ele>
        <time>2021-08-15T00:48:40.837Z</time>
      </trkpt>
      <trkpt lat="42.29117" lon="42.12689">
        <ele>47.96797</ele>
        <time>2021-08-15T00:49:21.320Z</time>
      </trkpt>
      <trkpt lat="42.29132" lon="42.12711">
        <ele>48.019584</ele>
        <time>2021-08-15T00:49:26.151Z</time>
      </trkpt>
      <trkpt lat="42.29139" lon="42.12726">
        <ele>48.051641</ele>
        <time>2021-08-15T00:49:29.040Z</time>
      </trkpt>
      <trkpt lat="42.29152" lon="42.1277">
        <ele>47.528774</ele>
        <time>2021-08-15T00:49:36.098Z</time>
      </trkpt>
      <trkpt lat="42.29156" lon="42.12867">
        <ele>46.435481</ele>
        <time>2021-08-15T00:49:50.049Z</time>
      </trkpt>
      <trkpt lat="42.29158" lon="42.12941">
        <ele>45.608118</ele>
        <time>2021-08-15T00:49:59.950Z</time>
      </trkpt>
      <trkpt lat="42.29165" lon="42.12998">
        <ele>44.854834</ele>
        <time>2021-08-15T00:50:07.534Z</time>
      </trkpt>
      <trkpt lat="42.29181" lon="42.13042">
        <ele>44.130281</ele>
        <time>2021-08-15T00:50:14.053Z</time>
      </trkpt>
      <trkpt lat="42.29216" lon="42.13149">
        <ele>42.427143</ele>
        <time>2021-08-15T00:50:29.747Z</time>
      </trkpt>
      <trkpt lat="42.29218" lon="42.13247">
        <ele>41.590277</ele>
        <time>2021-08-15T00:50:44.036Z</time>
      </trkpt>
      <trkpt lat="42.29229" lon="42.13331">
        <ele>41.311712</ele>
        <time>2021-08-15T00:50:57.172Z</time>
      </trkpt>
      <trkpt lat="42.29247" lon="42.13406">
        <ele>41.053864</ele>
        <time>2021-08-15T00:51:10.419Z</time>
      </trkpt>
      <trkpt lat="42.29277" lon="42.1346">
        <ele>41.083658</ele>
        <time>2021-08-15T00:51:22.320Z</time>
      </trkpt>
      <trkpt lat="42.29309" lon="42.13505">
        <ele>41.256143</ele>
        <time>2021-08-15T00:51:33.766Z</time>
      </trkpt>
      <trkpt lat="42.29316" lon="42.13517">
        <ele>41.29545</ele>
        <time>2021-08-15T00:51:36.331Z</time>
      </trkpt>
      <trkpt lat="42.29403" lon="42.13653">
        <ele>41.782607</ele>
        <time>2021-08-15T00:52:08.740Z</time>
      </trkpt>
      <trkpt lat="42.2943" lon="42.13703">
        <ele>41.945028</ele>
        <time>2021-08-15T00:52:19.362Z</time>
      </trkpt>
      <trkpt lat="42.29444" lon="42.13761">
        <ele>42.107109</ele>
        <time>2021-08-15T00:52:29.954Z</time>
      </trkpt>
      <trkpt lat="42.29452" lon="42.13823">
        <ele>42.272488</ele>
        <time>2021-08-15T00:52:41.326Z</time>
      </trkpt>
      <trkpt lat="42.29454" lon="42.13939">
        <ele>43.01733</ele>
        <time>2021-08-15T00:53:03.392Z</time>
      </trkpt>
      <trkpt lat="42.29463" lon="42.14007">
        <ele>43.460946</ele>
        <time>2021-08-15T00:53:17.547Z</time>
      </trkpt>
      <trkpt lat="42.29479" lon="42.14077">
        <ele>43.933064</ele>
        <time>2021-08-15T00:53:32.538Z</time>
      </trkpt>
      <trkpt lat="42.29512" lon="42.14191">
        <ele>44.758529</ele>
        <time>2021-08-15T00:53:58.273Z</time>
      </trkpt>
      <trkpt lat="42.29556" lon="42.14382">
        <ele>45.770961</ele>
        <time>2021-08-15T00:54:35.621Z</time>
      </trkpt>
      <trkpt lat="42.29583" lon="42.145">
        <ele>46.163436</ele>
        <time>2021-08-15T00:54:57.553Z</time>
      </trkpt>
      <trkpt lat="42.29623" lon="42.14635">
        <ele>46.340239</ele>
        <time>2021-08-15T00:55:22.856Z</time>
      </trkpt>
      <trkpt lat="42.29684" lon="42.14818">
        <ele>46.379983</ele>
        <time>2021-08-15T00:55:55.541Z</time>
      </trkpt>
      <trkpt lat="42.29753" lon="42.15014">
        <ele>46.334126</ele>
        <time>2021-08-15T00:56:30.769Z</time>
      </trkpt>
      <trkpt lat="42.29758" lon="42.15026">
        <ele>46.354731</ele>
        <time>2021-08-15T00:56:33.001Z</time>
      </trkpt>
      <trkpt lat="42.29771" lon="42.15063">
        <ele>46.417016</ele>
        <time>2021-08-15T00:56:40.138Z</time>
      </trkpt>
      <trkpt lat="42.29804" lon="42.15149">
        <ele>46.562475</ele>
        <time>2021-08-15T00:56:57.106Z</time>
      </trkpt>
      <trkpt lat="42.29875" lon="42.15342">
        <ele>47.572453</ele>
        <time>2021-08-15T00:57:37.671Z</time>
      </trkpt>
      <trkpt lat="42.29964" lon="42.15588">
        <ele>49.408517</ele>
        <time>2021-08-15T00:58:32.898Z</time>
      </trkpt>
      <trkpt lat="42.3003" lon="42.15764">
        <ele>50.41084</ele>
        <time>2021-08-15T00:59:11.115Z</time>
      </trkpt>
      <trkpt lat="42.30056" lon="42.15832">
        <ele>50.759823</ele>
        <time>2021-08-15T00:59:24.827Z</time>
      </trkpt>
      <trkpt lat="42.30082" lon="42.15909">
        <ele>50.916769</ele>
        <time>2021-08-15T00:59:39.530Z</time>
      </trkpt>
      <trkpt lat="42.30115" lon="42.15983">
        <ele>51.057159</ele>
        <time>2021-08-15T00:59:54.118Z</time>
      </trkpt>
      <trkpt lat="42.30161" lon="42.16055">
        <ele>51.235366</ele>
        <time>2021-08-15T01:00:10.425Z</time>
      </trkpt>
      <trkpt lat="42.30204" lon="42.16107">
        <ele>51.47799</ele>
        <time>2021-08-15T01:00:24.188Z</time>
      </trkpt>
      <trkpt lat="42.30249" lon="42.16149">
        <ele>51.709667</ele>
        <time>2021-08-15T01:00:37.648Z</time>
      </trkpt>
      <trkpt lat="42.30368" lon="42.16225">
        <ele>52.381727</ele>
        <time>2021-08-15T01:01:10.939Z</time>
      </trkpt>
      <trkpt lat="42.30399" lon="42.16245">
        <ele>52.575541</ele>
        <time>2021-08-15T01:01:19.380Z</time>
      </trkpt>
      <trkpt lat="42.3045" lon="42.16277">
        <ele>52.896315</ele>
        <time>2021-08-15T01:01:33.416Z</time>
      </trkpt>
      <trkpt lat="42.30534" lon="42.16329">
        <ele>53.427054</ele>
        <time>2021-08-15T01:01:56.683Z</time>
      </trkpt>
      <trkpt lat="42.307" lon="42.16434">
        <ele>54.48416</ele>
        <time>2021-08-15T01:02:42.545Z</time>
      </trkpt>
      <trkpt lat="42.3072" lon="42.16446">
        <ele>54.612751</ele>
        <time>2021-08-15T01:02:48.307Z</time>
      </trkpt>
      <trkpt lat="42.30746" lon="42.16463">
        <ele>54.777982</ele>
        <time>2021-08-15T01:02:55.664Z</time>
      </trkpt>
      <trkpt lat="42.30877" lon="42.16548">
        <ele>55.516399</ele>
        <time>2021-08-15T01:03:31.714Z</time>
      </trkpt>
      <trkpt lat="42.31025" lon="42.16641">
        <ele>56.378961</ele>
        <time>2021-08-15T01:04:11.094Z</time>
      </trkpt>
      <trkpt lat="42.31354" lon="42.16868">
        <ele>58.652369</ele>
        <time>2021-08-15T01:05:45.341Z</time>
      </trkpt>
      <trkpt lat="42.31362" lon="42.16873">
        <ele>58.718903</ele>
        <time>2021-08-15T01:05:47.792Z</time>
      </trkpt>
      <trkpt lat="42.31383" lon="42.16888">
        <ele>58.884914</ele>
        <time>2021-08-15T01:05:53.811Z</time>
      </trkpt>
      <trkpt lat="42.31952" lon="42.17273">
        <ele>63.375892</ele>
        <time>2021-08-15T01:08:37.303Z</time>
      </trkpt>
      <trkpt lat="42.32043" lon="42.17334">
        <ele>64.254327</ele>
        <time>2021-08-15T01:09:04.123Z</time>
      </trkpt>
      <trkpt lat="42.32105" lon="42.17379">
        <ele>64.924986</ele>
        <time>2021-08-15T01:09:23.724Z</time>
      </trkpt>
      <trkpt lat="42.32116" lon="42.17388">
        <ele>65.07246</ele>
        <time>2021-08-15T01:09:27.576Z</time>
      </trkpt>
      <trkpt lat="42.32202" lon="42.17445">
        <ele>66.114189</ele>
        <time>2021-08-15T01:09:54.976Z</time>
      </trkpt>
      <trkpt lat="42.32277" lon="42.17495">
        <ele>66.751334</ele>
        <time>2021-08-15T01:10:16.568Z</time>
      </trkpt>
      <trkpt lat="42.32305" lon="42.17514">
        <ele>66.904507</ele>
        <time>2021-08-15T01:10:24.565Z</time>
      </trkpt>
      <trkpt lat="42.32397" lon="42.17579">
        <ele>67.413233</ele>
        <time>2021-08-15T01:10:49.671Z</time>
      </trkpt>
      <trkpt lat="42.3241" lon="42.17588">
        <ele>67.432856</ele>
        <time>2021-08-15T01:10:52.784Z</time>
      </trkpt>
      <trkpt lat="42.32457" lon="42.17622">
        <ele>67.50787</ele>
        <time>2021-08-15T01:11:04.521Z</time>
      </trkpt>
      <trkpt lat="42.32517" lon="42.17663">
        <ele>67.60072</ele>
        <time>2021-08-15T01:11:19.539Z</time>
      </trkpt>
      <trkpt lat="42.32655" lon="42.17757">
        <ele>68.110051</ele>
        <time>2021-08-15T01:11:56.355Z</time>
      </trkpt>
      <trkpt lat="42.32799" lon="42.17852">
        <ele>69.014772</ele>
        <time>2021-08-15T01:12:36.493Z</time>
      </trkpt>
      <trkpt lat="42.32901" lon="42.17923">
        <ele>69.745289</ele>
        <time>2021-08-15T01:13:07.097Z</time>
      </trkpt>
      <trkpt lat="42.32984" lon="42.1798">
        <ele>70.173177</ele>
        <time>2021-08-15T01:13:29.606Z</time>
      </trkpt>
      <trkpt lat="42.3312" lon="42.18072">
        <ele>71.002554</ele>
        <time>2021-08-15T01:14:05.822Z</time>
      </trkpt>
      <trkpt lat="42.33262" lon="42.18173">
        <ele>72.314547</ele>
        <time>2021-08-15T01:14:48.680Z</time>
      </trkpt>
      <trkpt lat="42.33405" lon="42.18279">
        <ele>73.894174</ele>
        <time>2021-08-15T01:15:34.955Z</time>
      </trkpt>
      <trkpt lat="42.33513" lon="42.18356">
        <ele>74.75996</ele>
        <time>2021-08-15T01:16:05.413Z</time>
      </trkpt>
      <trkpt lat="42.33699" lon="42.1845">
        <ele>75.720987</ele>
        <time>2021-08-15T01:16:52.899Z</time>
      </trkpt>
      <trkpt lat="42.33936" lon="42.18571">
        <ele>78.107925</ele>
        <time>2021-08-15T01:18:03.968Z</time>
      </trkpt>
      <trkpt lat="42.34109" lon="42.18717">
        <ele>79.096422</ele>
        <time>2021-08-15T01:18:54.082Z</time>
      </trkpt>
      <trkpt lat="42.34267" lon="42.18852">
        <ele>79.36925</ele>
        <time>2021-08-15T01:19:34.384Z</time>
      </trkpt>
      <trkpt lat="42.34333" lon="42.18906">
        <ele>79.602932</ele>
        <time>2021-08-15T01:19:53.586Z</time>
      </trkpt>
      <trkpt lat="42.34419" lon="42.18977">
        <ele>80.644145</ele>
        <time>2021-08-15T01:20:21.853Z</time>
      </trkpt>
      <trkpt lat="42.34427" lon="42.18983">
        <ele>80.743609</ele>
        <time>2021-08-15T01:20:24.670Z</time>
      </trkpt>
      <trkpt lat="42.3464" lon="42.1914">
        <ele>83.1323</ele>
        <time>2021-08-15T01:21:31.913Z</time>
      </trkpt>
      <trkpt lat="42.34844" lon="42.19293">
        <ele>83.947926</ele>
        <time>2021-08-15T01:22:25.042Z</time>
      </trkpt>
      <trkpt lat="42.34854" lon="42.193">
        <ele>84.019566</ele>
        <time>2021-08-15T01:22:27.905Z</time>
      </trkpt>
      <trkpt lat="42.34922" lon="42.19355">
        <ele>84.509738</ele>
        <time>2021-08-15T01:22:48.262Z</time>
      </trkpt>
      <trkpt lat="42.34944" lon="42.19373">
        <ele>84.664855</ele>
        <time>2021-08-15T01:22:55.533Z</time>
      </trkpt>
      <trkpt lat="42.35056" lon="42.19447">
        <ele>86.407979</ele>
        <time>2021-08-15T01:23:32.016Z</time>
      </trkpt>
      <trkpt lat="42.3507" lon="42.19439">
        <ele>86.623117</ele>
        <time>2021-08-15T01:23:36.976Z</time>
      </trkpt>
      <trkpt lat="42.35186" lon="42.19394">
        <ele>88.485723</ele>
        <time>2021-08-15T01:24:12.500Z</time>
      </trkpt>
      <trkpt lat="42.35323" lon="42.19338">
        <ele>91.157755</ele>
        <time>2021-08-15T01:24:56.408Z</time>
      </trkpt>
      <trkpt lat="42.35369" lon="42.19321">
        <ele>92.32955</ele>
        <time>2021-08-15T01:25:11.980Z</time>
      </trkpt>
      <trkpt lat="42.35391" lon="42.19313">
        <ele>92.881288</ele>
        <time>2021-08-15T01:25:19.924Z</time>
      </trkpt>
      <trkpt lat="42.3546" lon="42.19312">
        <ele>94.66277</ele>
        <time>2021-08-15T01:25:45.249Z</time>
      </trkpt>
      <trkpt lat="42.35533" lon="42.19283">
        <ele>98.551617</ele>
        <time>2021-08-15T01:26:18.166Z</time>
      </trkpt>
      <trkpt lat="42.35542" lon="42.19278">
        <ele>99.014751</ele>
        <time>2021-08-15T01:26:22.160Z</time>
      </trkpt>
      <trkpt lat="42.35573" lon="42.1928">
        <ele>100.632626</ele>
        <time>2021-08-15T01:26:38.657Z</time>
      </trkpt>
      <trkpt lat="42.35617" lon="42.1923">
        <ele>103.575003</ele>
        <time>2021-08-15T01:27:11.011Z</time>
      </trkpt>
      <trkpt lat="42.35644" lon="42.19218">
        <ele>105.161881</ele>
        <time>2021-08-15T01:27:23.108Z</time>
      </trkpt>
      <trkpt lat="42.35646" lon="42.19215">
        <ele>105.337541</ele>
        <time>2021-08-15T01:27:25.381Z</time>
      </trkpt>
      <trkpt lat="42.35647" lon="42.19212">
        <ele>105.496284</ele>
        <time>2021-08-15T01:27:29.251Z</time>
      </trkpt>
      <trkpt lat="42.35648" lon="42.19142">
        <ele>108.387405</ele>
        <time>2021-08-15T01:27:55.208Z</time>
      </trkpt>
      <trkpt lat="42.35657" lon="42.19118">
        <ele>109.505584</ele>
        <time>2021-08-15T01:28:06.461Z</time>
      </trkpt>
      <trkpt lat="42.35748" lon="42.19087">
        <ele>114.271729</ele>
        <time>2021-08-15T01:28:52.090Z</time>
      </trkpt>
      <trkpt lat="42.35792" lon="42.19079">
        <ele>115.366665</ele>
        <time>2021-08-15T01:29:07.071Z</time>
      </trkpt>
      <trkpt lat="42.35824" lon="42.19084">
        <ele>116.163427</ele>
        <time>2021-08-15T01:29:17.072Z</time>
      </trkpt>
      <trkpt lat="42.35835" lon="42.19093">
        <ele>116.468867</ele>
        <time>2021-08-15T01:29:20.772Z</time>
      </trkpt>
      <trkpt lat="42.35842" lon="42.19102">
        <ele>116.707975</ele>
        <time>2021-08-15T01:29:23.705Z</time>
      </trkpt>
      <trkpt lat="42.35855" lon="42.19138">
        <ele>117.427642</ele>
        <time>2021-08-15T01:29:32.349Z</time>
      </trkpt>
      <trkpt lat="42.35886" lon="42.19168">
        <ele>118.446686</ele>
        <time>2021-08-15T01:29:44.034Z</time>
      </trkpt>
      <trkpt lat="42.35913" lon="42.19221">
        <ele>120.405426</ele>
        <time>2021-08-15T01:29:59.757Z</time>
      </trkpt>
      <trkpt lat="42.35933" lon="42.19245">
        <ele>121.520398</ele>
        <time>2021-08-15T01:30:09.878Z</time>
      </trkpt>
      <trkpt lat="42.35962" lon="42.19254">
        <ele>122.758922</ele>
        <time>2021-08-15T01:30:22.385Z</time>
      </trkpt>
      <trkpt lat="42.35995" lon="42.19258">
        <ele>124.134871</ele>
        <time>2021-08-15T01:30:38.251Z</time>
      </trkpt>
      <trkpt lat="42.36016" lon="42.19253">
        <ele>125.039802</ele>
        <time>2021-08-15T01:30:49.617Z</time>
      </trkpt>
      <trkpt lat="42.36042" lon="42.19235">
        <ele>126.701914</ele>
        <time>2021-08-15T01:31:05.761Z</time>
      </trkpt>
      <trkpt lat="42.36068" lon="42.19187">
        <ele>130.275434</ele>
        <time>2021-08-15T01:31:32.614Z</time>
      </trkpt>
      <trkpt lat="42.3612" lon="42.1913">
        <ele>135.664935</ele>
        <time>2021-08-15T01:32:16.564Z</time>
      </trkpt>
      <trkpt lat="42.36245" lon="42.18965">
        <ele>148.427279</ele>
        <time>2021-08-15T01:34:10.014Z</time>
      </trkpt>
      <trkpt lat="42.3632" lon="42.18814">
        <ele>152.93888</ele>
        <time>2021-08-15T01:35:08.147Z</time>
      </trkpt>
      <trkpt lat="42.3637" lon="42.18729">
        <ele>153.162139</ele>
        <time>2021-08-15T01:35:23.803Z</time>
      </trkpt>
      <trkpt lat="42.36406" lon="42.18683">
        <ele>152.131816</ele>
        <time>2021-08-15T01:35:31.794Z</time>
      </trkpt>
      <trkpt lat="42.36442" lon="42.1866">
        <ele>150.091897</ele>
        <time>2021-08-15T01:35:38.028Z</time>
      </trkpt>
      <trkpt lat="42.36492" lon="42.18667">
        <ele>147.548258</ele>
        <time>2021-08-15T01:35:45.710Z</time>
      </trkpt>
      <trkpt lat="42.36518" lon="42.18688">
        <ele>146.049447</ele>
        <time>2021-08-15T01:35:50.309Z</time>
      </trkpt>
      <trkpt lat="42.3656" lon="42.18739">
        <ele>143.891708</ele>
        <time>2021-08-15T01:35:59.387Z</time>
      </trkpt>
      <trkpt lat="42.36589" lon="42.1879">
        <ele>143.176172</ele>
        <time>2021-08-15T01:36:07.763Z</time>
      </trkpt>
      <trkpt lat="42.36626" lon="42.18904">
        <ele>141.806871</ele>
        <time>2021-08-15T01:36:26.978Z</time>
      </trkpt>
      <trkpt lat="42.36618" lon="42.18955">
        <ele>141.510721</ele>
        <time>2021-08-15T01:36:37.150Z</time>
      </trkpt>
      <trkpt lat="42.36632" lon="42.18991">
        <ele>141.548086</ele>
        <time>2021-08-15T01:36:45.549Z</time>
      </trkpt>
      <trkpt lat="42.36633" lon="42.19005">
        <ele>141.561016</ele>
        <time>2021-08-15T01:36:48.424Z</time>
      </trkpt>
      <trkpt lat="42.36611" lon="42.19082">
        <ele>141.636678</ele>
        <time>2021-08-15T01:37:03.668Z</time>
      </trkpt>
      <trkpt lat="42.36595" lon="42.19241">
        <ele>141.674245</ele>
        <time>2021-08-15T01:37:27.771Z</time>
      </trkpt>
      <trkpt lat="42.36609" lon="42.19364">
        <ele>141.610782</ele>
        <time>2021-08-15T01:37:47.146Z</time>
      </trkpt>
      <trkpt lat="42.3661" lon="42.19413">
        <ele>141.672392</ele>
        <time>2021-08-15T01:37:56.989Z</time>
      </trkpt>
      <trkpt lat="42.36616" lon="42.19423">
        <ele>141.832213</ele>
        <time>2021-08-15T01:38:00.054Z</time>
      </trkpt>
      <trkpt lat="42.36646" lon="42.19429">
        <ele>142.340109</ele>
        <time>2021-08-15T01:38:10.313Z</time>
      </trkpt>
      <trkpt lat="42.36672" lon="42.19425">
        <ele>142.775086</ele>
        <time>2021-08-15T01:38:19.379Z</time>
      </trkpt>
      <trkpt lat="42.36703" lon="42.19411">
        <ele>143.323314</ele>
        <time>2021-08-15T01:38:30.874Z</time>
      </trkpt>
      <trkpt lat="42.36743" lon="42.19375">
        <ele>144.139769</ele>
        <time>2021-08-15T01:38:47.546Z</time>
      </trkpt>
      <trkpt lat="42.36787" lon="42.19353">
        <ele>144.070493</ele>
        <time>2021-08-15T01:39:02.376Z</time>
      </trkpt>
      <trkpt lat="42.369" lon="42.19209">
        <ele>139.597706</ele>
        <time>2021-08-15T01:39:29.415Z</time>
      </trkpt>
      <trkpt lat="42.3692" lon="42.19205">
        <ele>138.158849</ele>
        <time>2021-08-15T01:39:32.310Z</time>
      </trkpt>
      <trkpt lat="42.3695" lon="42.19212">
        <ele>135.504495</ele>
        <time>2021-08-15T01:39:36.587Z</time>
      </trkpt>
      <trkpt lat="42.37001" lon="42.19194">
        <ele>130.853659</ele>
        <time>2021-08-15T01:39:44.213Z</time>
      </trkpt>
      <trkpt lat="42.37019" lon="42.19196">
        <ele>129.261886</ele>
        <time>2021-08-15T01:39:46.716Z</time>
      </trkpt>
      <trkpt lat="42.37023" lon="42.19197">
        <ele>128.943796</ele>
        <time>2021-08-15T01:39:47.216Z</time>
      </trkpt>
      <trkpt lat="42.37036" lon="42.192">
        <ele>127.736199</ele>
        <time>2021-08-15T01:39:49.311Z</time>
      </trkpt>
      <trkpt lat="42.37042" lon="42.19201">
        <ele>127.261171</ele>
        <time>2021-08-15T01:39:50.027Z</time>
      </trkpt>
      <trkpt lat="42.37113" lon="42.19217">
        <ele>121.659677</ele>
        <time>2021-08-15T01:40:00.261Z</time>
      </trkpt>
      <trkpt lat="42.3715" lon="42.19242">
        <ele>118.996167</ele>
        <time>2021-08-15T01:40:06.329Z</time>
      </trkpt>
      <trkpt lat="42.3717" lon="42.19243">
        <ele>117.771897</ele>
        <time>2021-08-15T01:40:09.152Z</time>
      </trkpt>
      <trkpt lat="42.37199" lon="42.1923">
        <ele>115.823238</ele>
        <time>2021-08-15T01:40:14.196Z</time>
      </trkpt>
      <trkpt lat="42.37203" lon="42.19228">
        <ele>115.529433</ele>
        <time>2021-08-15T01:40:14.880Z</time>
      </trkpt>
      <trkpt lat="42.37219" lon="42.19249">
        <ele>114.126287</ele>
        <time>2021-08-15T01:40:18.825Z</time>
      </trkpt>
      <trkpt lat="42.37272" lon="42.19291">
        <ele>111.577794</ele>
        <time>2021-08-15T01:40:29.368Z</time>
      </trkpt>
      <trkpt lat="42.37338" lon="42.19352">
        <ele>110.021089</ele>
        <time>2021-08-15T01:40:43.853Z</time>
      </trkpt>
      <trkpt lat="42.37348" lon="42.19362">
        <ele>109.783572</ele>
        <time>2021-08-15T01:40:46.185Z</time>
      </trkpt>
      <trkpt lat="42.37516" lon="42.19593">
        <ele>107.423491</ele>
        <time>2021-08-15T01:41:34.618Z</time>
      </trkpt>
      <trkpt lat="42.37562" lon="42.19677">
        <ele>107.683924</ele>
        <time>2021-08-15T01:41:52.481Z</time>
      </trkpt>
      <trkpt lat="42.3757" lon="42.19699">
        <ele>107.743217</ele>
        <time>2021-08-15T01:41:56.797Z</time>
      </trkpt>
      <trkpt lat="42.37578" lon="42.19723">
        <ele>107.809264</ele>
        <time>2021-08-15T01:42:01.695Z</time>
      </trkpt>
      <trkpt lat="42.37588" lon="42.19766">
        <ele>107.920935</ele>
        <time>2021-08-15T01:42:10.151Z</time>
      </trkpt>
      <trkpt lat="42.37591" lon="42.19784">
        <ele>107.966447</ele>
        <time>2021-08-15T01:42:13.787Z</time>
      </trkpt>
      <trkpt lat="42.376" lon="42.19829">
        <ele>108.21798</ele>
        <time>2021-08-15T01:42:22.843Z</time>
      </trkpt>
      <trkpt lat="42.37703" lon="42.20025">
        <ele>110.098551</ele>
        <time>2021-08-15T01:43:12.650Z</time>
      </trkpt>
      <trkpt lat="42.37711" lon="42.20042">
        <ele>110.220024</ele>
        <time>2021-08-15T01:43:17.029Z</time>
      </trkpt>
      <trkpt lat="42.37721" lon="42.20064">
        <ele>110.377206</ele>
        <time>2021-08-15T01:43:21.968Z</time>
      </trkpt>
      <trkpt lat="42.37753" lon="42.20149">
        <ele>110.945772</ele>
        <time>2021-08-15T01:43:40.708Z</time>
      </trkpt>
      <trkpt lat="42.37863" lon="42.20452">
        <ele>112.607065</ele>
        <time>2021-08-15T01:44:43.381Z</time>
      </trkpt>
      <trkpt lat="42.37865" lon="42.20458">
        <ele>112.654677</ele>
        <time>2021-08-15T01:44:45.313Z</time>
      </trkpt>
      <trkpt lat="42.37878" lon="42.20452">
        <ele>112.790553</ele>
        <time>2021-08-15T01:44:50.495Z</time>
      </trkpt>
      <trkpt lat="42.37967" lon="42.2043">
        <ele>113.641591</ele>
        <time>2021-08-15T01:45:27.257Z</time>
      </trkpt>
      <trkpt lat="42.37996" lon="42.20431">
        <ele>113.920828</ele>
        <time>2021-08-15T01:45:39.641Z</time>
      </trkpt>
      <trkpt lat="42.38057" lon="42.20455">
        <ele>114.76141</ele>
        <time>2021-08-15T01:46:07.804Z</time>
      </trkpt>
      <trkpt lat="42.38092" lon="42.20457">
        <ele>115.339136</ele>
        <time>2021-08-15T01:46:23.671Z</time>
      </trkpt>
      <trkpt lat="42.3812" lon="42.2045">
        <ele>115.822458</ele>
        <time>2021-08-15T01:46:37.212Z</time>
      </trkpt>
      <trkpt lat="42.38172" lon="42.20412">
        <ele>116.804121</ele>
        <time>2021-08-15T01:47:04.389Z</time>
      </trkpt>
      <trkpt lat="42.38195" lon="42.20402">
        <ele>117.213572</ele>
        <time>2021-08-15T01:47:15.680Z</time>
      </trkpt>
      <trkpt lat="42.38227" lon="42.20389">
        <ele>117.614894</ele>
        <time>2021-08-15T01:47:30.538Z</time>
      </trkpt>
      <trkpt lat="42.38259" lon="42.20379">
        <ele>118.012281</ele>
        <time>2021-08-15T01:47:45.153Z</time>
      </trkpt>
      <trkpt lat="42.3827" lon="42.20376">
        <ele>118.15202</ele>
        <time>2021-08-15T01:47:50.170Z</time>
      </trkpt>
      <trkpt lat="42.38299" lon="42.20361">
        <ele>118.527285</ele>
        <time>2021-08-15T01:48:03.703Z</time>
      </trkpt>
      <trkpt lat="42.38351" lon="42.20329">
        <ele>119.215824</ele>
        <time>2021-08-15T01:48:27.528Z</time>
      </trkpt>
      <trkpt lat="42.38382" lon="42.20292">
        <ele>119.512891</ele>
        <time>2021-08-15T01:48:44.126Z</time>
      </trkpt>
      <trkpt lat="42.38438" lon="42.20174">
        <ele>119.982471</ele>
        <time>2021-08-15T01:49:24.078Z</time>
      </trkpt>
      <trkpt lat="42.38476" lon="42.20128">
        <ele>120.228562</ele>
        <time>2021-08-15T01:49:43.825Z</time>
      </trkpt>
      <trkpt lat="42.38485" lon="42.20122">
        <ele>120.379036</ele>
        <time>2021-08-15T01:49:48.081Z</time>
      </trkpt>
      <trkpt lat="42.385" lon="42.20112">
        <ele>120.630024</ele>
        <time>2021-08-15T01:49:54.170Z</time>
      </trkpt>
      <trkpt lat="42.38589" lon="42.20055">
        <ele>122.134191</ele>
        <time>2021-08-15T01:50:36.942Z</time>
      </trkpt>
      <trkpt lat="42.38607" lon="42.20048">
        <ele>122.417112</ele>
        <time>2021-08-15T01:50:45.585Z</time>
      </trkpt>
      <trkpt lat="42.38648" lon="42.20046">
        <ele>123.173092</ele>
        <time>2021-08-15T01:51:05.988Z</time>
      </trkpt>
      <trkpt lat="42.38688" lon="42.20056">
        <ele>124.622594</ele>
        <time>2021-08-15T01:51:28.092Z</time>
      </trkpt>
      <trkpt lat="42.38749" lon="42.20098">
        <ele>127.04891</ele>
        <time>2021-08-15T01:52:07.607Z</time>
      </trkpt>
      <trkpt lat="42.38857" lon="42.20108">
        <ele>130.111616</ele>
        <time>2021-08-15T01:53:07.214Z</time>
      </trkpt>
      <trkpt lat="42.38894" lon="42.20104">
        <ele>130.806492</ele>
        <time>2021-08-15T01:53:26.021Z</time>
      </trkpt>
      <trkpt lat="42.39045" lon="42.20025">
        <ele>132.470964</ele>
        <time>2021-08-15T01:54:31.489Z</time>
      </trkpt>
      <trkpt lat="42.39105" lon="42.19977">
        <ele>132.28133</ele>
        <time>2021-08-15T01:54:56.239Z</time>
      </trkpt>
      <trkpt lat="42.39155" lon="42.1996">
        <ele>132.086358</ele>
        <time>2021-08-15T01:55:14.048Z</time>
      </trkpt>
      <trkpt lat="42.39197" lon="42.19964">
        <ele>131.474406</ele>
        <time>2021-08-15T01:55:28.532Z</time>
      </trkpt>
      <trkpt lat="42.39228" lon="42.1999">
        <ele>130.943075</ele>
        <time>2021-08-15T01:55:40.967Z</time>
      </trkpt>
      <trkpt lat="42.39294" lon="42.20076">
        <ele>129.61474</ele>
        <time>2021-08-15T01:56:11.337Z</time>
      </trkpt>
      <trkpt lat="42.39331" lon="42.20087">
        <ele>128.756309</ele>
        <time>2021-08-15T01:56:23.642Z</time>
      </trkpt>
      <trkpt lat="42.39343" lon="42.20084">
        <ele>128.482602</ele>
        <time>2021-08-15T01:56:27.340Z</time>
      </trkpt>
      <trkpt lat="42.39368" lon="42.20062">
        <ele>127.767684</ele>
        <time>2021-08-15T01:56:36.840Z</time>
      </trkpt>
      <trkpt lat="42.39414" lon="42.19993">
        <ele>126.151716</ele>
        <time>2021-08-15T01:56:58.347Z</time>
      </trkpt>
      <trkpt lat="42.39425" lon="42.19966">
        <ele>125.60771</ele>
        <time>2021-08-15T01:57:05.696Z</time>
      </trkpt>
      <trkpt lat="42.39437" lon="42.19912">
        <ele>125.240167</ele>
        <time>2021-08-15T01:57:19.163Z</time>
      </trkpt>
      <trkpt lat="42.39461" lon="42.19865">
        <ele>125.154282</ele>
        <time>2021-08-15T01:57:33.549Z</time>
      </trkpt>
      <trkpt lat="42.39488" lon="42.19842">
        <ele>125.089807</ele>
        <time>2021-08-15T01:57:44.945Z</time>
      </trkpt>
      <trkpt lat="42.39523" lon="42.1983">
        <ele>125.017808</ele>
        <time>2021-08-15T01:57:58.739Z</time>
      </trkpt>
      <trkpt lat="42.39609" lon="42.19819">
        <ele>126.243893</ele>
        <time>2021-08-15T01:58:39.093Z</time>
      </trkpt>
      <trkpt lat="42.39643" lon="42.19829">
        <ele>127.251726</ele>
        <time>2021-08-15T01:58:57.250Z</time>
      </trkpt>
      <trkpt lat="42.39804" lon="42.19925">
        <ele>132.300958</ele>
        <time>2021-08-15T02:00:33.435Z</time>
      </trkpt>
      <trkpt lat="42.39841" lon="42.19954">
        <ele>133.502739</ele>
        <time>2021-08-15T02:00:55.543Z</time>
      </trkpt>
      <trkpt lat="42.39886" lon="42.20009">
        <ele>135.191379</ele>
        <time>2021-08-15T02:01:24.814Z</time>
      </trkpt>
      <trkpt lat="42.3991" lon="42.20024">
        <ele>135.296991</ele>
        <time>2021-08-15T02:01:36.992Z</time>
      </trkpt>
      <trkpt lat="42.39985" lon="42.20051">
        <ele>135.541425</ele>
        <time>2021-08-15T02:02:07.812Z</time>
      </trkpt>
      <trkpt lat="42.40049" lon="42.2006">
        <ele>135.74533</ele>
        <time>2021-08-15T02:02:30.757Z</time>
      </trkpt>
      <trkpt lat="42.40072" lon="42.20054">
        <ele>135.622873</ele>
        <time>2021-08-15T02:02:38.967Z</time>
      </trkpt>
      <trkpt lat="42.40091" lon="42.20046">
        <ele>135.358932</ele>
        <time>2021-08-15T02:02:45.913Z</time>
      </trkpt>
      <trkpt lat="42.40109" lon="42.20032">
        <ele>135.083935</ele>
        <time>2021-08-15T02:02:52.824Z</time>
      </trkpt>
      <trkpt lat="42.40147" lon="42.19962">
        <ele>134.236658</ele>
        <time>2021-08-15T02:03:14.149Z</time>
      </trkpt>
      <trkpt lat="42.40231" lon="42.19821">
        <ele>132.184117</ele>
        <time>2021-08-15T02:03:58.966Z</time>
      </trkpt>
      <trkpt lat="42.40259" lon="42.19769">
        <ele>131.349579</ele>
        <time>2021-08-15T02:04:14.906Z</time>
      </trkpt>
      <trkpt lat="42.40273" lon="42.19748">
        <ele>130.996347</ele>
        <time>2021-08-15T02:04:21.647Z</time>
      </trkpt>
      <trkpt lat="42.40296" lon="42.19705">
        <ele>130.306737</ele>
        <time>2021-08-15T02:04:34.678Z</time>
      </trkpt>
      <trkpt lat="42.40341" lon="42.19643">
        <ele>128.609616</ele>
        <time>2021-08-15T02:04:55.059Z</time>
      </trkpt>
      <trkpt lat="42.4042" lon="42.19562">
        <ele>125.927524</ele>
        <time>2021-08-15T02:05:25.966Z</time>
      </trkpt>
      <trkpt lat="42.40489" lon="42.19479">
        <ele>124.149794</ele>
        <time>2021-08-15T02:05:54.281Z</time>
      </trkpt>
      <trkpt lat="42.40508" lon="42.19456">
        <ele>123.712612</ele>
        <time>2021-08-15T02:06:02.429Z</time>
      </trkpt>
      <trkpt lat="42.4054" lon="42.19427">
        <ele>123.051046</ele>
        <time>2021-08-15T02:06:15.450Z</time>
      </trkpt>
      <trkpt lat="42.40564" lon="42.19404">
        <ele>122.537377</ele>
        <time>2021-08-15T02:06:26.614Z</time>
      </trkpt>
      <trkpt lat="42.40609" lon="42.19352">
        <ele>123.252801</ele>
        <time>2021-08-15T02:06:50.526Z</time>
      </trkpt>
      <trkpt lat="42.40636" lon="42.19319">
        <ele>123.969634</ele>
        <time>2021-08-15T02:07:06.085Z</time>
      </trkpt>
      <trkpt lat="42.40663" lon="42.19294">
        <ele>124.638138</ele>
        <time>2021-08-15T02:07:22.117Z</time>
      </trkpt>
      <trkpt lat="42.40666" lon="42.19289">
        <ele>124.721351</ele>
        <time>2021-08-15T02:07:24.352Z</time>
      </trkpt>
      <trkpt lat="42.40663" lon="42.19277">
        <ele>124.91211</ele>
        <time>2021-08-15T02:07:27.793Z</time>
      </trkpt>
      <trkpt lat="42.40641" lon="42.19268">
        <ele>125.37604</ele>
        <time>2021-08-15T02:07:37.131Z</time>
      </trkpt>
      <trkpt lat="42.40636" lon="42.19255">
        <ele>125.579773</ele>
        <time>2021-08-15T02:07:41.655Z</time>
      </trkpt>
      <trkpt lat="42.40638" lon="42.19245">
        <ele>125.733757</ele>
        <time>2021-08-15T02:07:44.629Z</time>
      </trkpt>
      <trkpt lat="42.40697" lon="42.19032">
        <ele>132.212934</ele>
        <time>2021-08-15T02:08:54.450Z</time>
      </trkpt>
      <trkpt lat="42.40727" lon="42.18975">
        <ele>134.982577</ele>
        <time>2021-08-15T02:09:19.715Z</time>
      </trkpt>
      <trkpt lat="42.40731" lon="42.18958">
        <ele>135.804481</ele>
        <time>2021-08-15T02:09:26.411Z</time>
      </trkpt>
      <trkpt lat="42.40743" lon="42.18914">
        <ele>137.962232</ele>
        <time>2021-08-15T02:09:44.936Z</time>
      </trkpt>
      <trkpt lat="42.4075" lon="42.18887">
        <ele>139.274019</ele>
        <time>2021-08-15T02:09:56.545Z</time>
      </trkpt>
      <trkpt lat="42.40779" lon="42.1882">
        <ele>142.859953</ele>
        <time>2021-08-15T02:10:29.821Z</time>
      </trkpt>
      <trkpt lat="42.40773" lon="42.1881">
        <ele>143.451639</ele>
        <time>2021-08-15T02:10:35.710Z</time>
      </trkpt>
      <trkpt lat="42.40749" lon="42.18803">
        <ele>144.921628</ele>
        <time>2021-08-15T02:10:50.699Z</time>
      </trkpt>
      <trkpt lat="42.40734" lon="42.18788">
        <ele>146.014296</ele>
        <time>2021-08-15T02:11:02.838Z</time>
      </trkpt>
      <trkpt lat="42.40725" lon="42.18727">
        <ele>148.630065</ele>
        <time>2021-08-15T02:11:28.590Z</time>
      </trkpt>
      <trkpt lat="42.40731" lon="42.18617">
        <ele>153.323674</ele>
        <time>2021-08-15T02:12:09.454Z</time>
      </trkpt>
      <trkpt lat="42.4075" lon="42.18586">
        <ele>154.732949</ele>
        <time>2021-08-15T02:12:22.361Z</time>
      </trkpt>
      <trkpt lat="42.40761" lon="42.18524">
        <ele>155.497621</ele>
        <time>2021-08-15T02:12:40.580Z</time>
      </trkpt>
      <trkpt lat="42.40793" lon="42.18499">
        <ele>156.099548</ele>
        <time>2021-08-15T02:12:52.900Z</time>
      </trkpt>
      <trkpt lat="42.40811" lon="42.18475">
        <ele>156.506216</ele>
        <time>2021-08-15T02:13:00.143Z</time>
      </trkpt>
      <trkpt lat="42.40817" lon="42.18438">
        <ele>156.966342</ele>
        <time>2021-08-15T02:13:07.263Z</time>
      </trkpt>
      <trkpt lat="42.40806" lon="42.18414">
        <ele>157.310932</ele>
        <time>2021-08-15T02:13:12.109Z</time>
      </trkpt>
      <trkpt lat="42.40789" lon="42.18399">
        <ele>157.53658</ele>
        <time>2021-08-15T02:13:16.396Z</time>
      </trkpt>
      <trkpt lat="42.40739" lon="42.18381">
        <ele>157.358839</ele>
        <time>2021-08-15T02:13:27.121Z</time>
      </trkpt>
      <trkpt lat="42.40704" lon="42.18359">
        <ele>157.224769</ele>
        <time>2021-08-15T02:13:35.176Z</time>
      </trkpt>
      <trkpt lat="42.40694" lon="42.18341">
        <ele>157.167802</ele>
        <time>2021-08-15T02:13:38.673Z</time>
      </trkpt>
      <trkpt lat="42.40691" lon="42.18293">
        <ele>157.047006</ele>
        <time>2021-08-15T02:13:46.470Z</time>
      </trkpt>
      <trkpt lat="42.40677" lon="42.18243">
        <ele>157.135755</ele>
        <time>2021-08-15T02:13:56.242Z</time>
      </trkpt>
      <trkpt lat="42.40667" lon="42.18212">
        <ele>157.877246</ele>
        <time>2021-08-15T02:14:03.001Z</time>
      </trkpt>
      <trkpt lat="42.40644" lon="42.18166">
        <ele>159.124486</ele>
        <time>2021-08-15T02:14:15.824Z</time>
      </trkpt>
      <trkpt lat="42.40642" lon="42.18141">
        <ele>159.697292</ele>
        <time>2021-08-15T02:14:22.423Z</time>
      </trkpt>
      <trkpt lat="42.40651" lon="42.18026">
        <ele>162.283645</ele>
        <time>2021-08-15T02:14:59.778Z</time>
      </trkpt>
      <trkpt lat="42.40666" lon="42.1796">
        <ele>165.747324</ele>
        <time>2021-08-15T02:15:30.157Z</time>
      </trkpt>
      <trkpt lat="42.40668" lon="42.17903">
        <ele>168.644973</ele>
        <time>2021-08-15T02:15:55.084Z</time>
      </trkpt>
      <trkpt lat="42.40675" lon="42.17877">
        <ele>170.098302</ele>
        <time>2021-08-15T02:16:06.769Z</time>
      </trkpt>
      <trkpt lat="42.40679" lon="42.17863">
        <ele>170.880204</ele>
        <time>2021-08-15T02:16:14.751Z</time>
      </trkpt>
      <trkpt lat="42.40708" lon="42.17853">
        <ele>173.002402</ele>
        <time>2021-08-15T02:16:32.984Z</time>
      </trkpt>
      <trkpt lat="42.40726" lon="42.17848">
        <ele>174.257996</ele>
        <time>2021-08-15T02:16:43.872Z</time>
      </trkpt>
      <trkpt lat="42.40777" lon="42.17853">
        <ele>177.056457</ele>
        <time>2021-08-15T02:17:14.789Z</time>
      </trkpt>
      <trkpt lat="42.40821" lon="42.17819">
        <ele>179.59019</ele>
        <time>2021-08-15T02:17:44.085Z</time>
      </trkpt>
      <trkpt lat="42.40842" lon="42.1781">
        <ele>180.703175</ele>
        <time>2021-08-15T02:17:55.064Z</time>
      </trkpt>
      <trkpt lat="42.40857" lon="42.17814">
        <ele>181.494517</ele>
        <time>2021-08-15T02:18:01.695Z</time>
      </trkpt>
      <trkpt lat="42.40911" lon="42.17856">
        <ele>183.912803</ele>
        <time>2021-08-15T02:18:23.160Z</time>
      </trkpt>
      <trkpt lat="42.40988" lon="42.1786">
        <ele>183.162953</ele>
        <time>2021-08-15T02:18:40.695Z</time>
      </trkpt>
      <trkpt lat="42.4105" lon="42.17889">
        <ele>182.526449</ele>
        <time>2021-08-15T02:18:53.090Z</time>
      </trkpt>
      <trkpt lat="42.41102" lon="42.1792">
        <ele>181.617778</ele>
        <time>2021-08-15T02:19:03.173Z</time>
      </trkpt>
      <trkpt lat="42.41131" lon="42.17952">
        <ele>180.809239</ele>
        <time>2021-08-15T02:19:09.901Z</time>
      </trkpt>
      <trkpt lat="42.41186" lon="42.18048">
        <ele>178.907923</ele>
        <time>2021-08-15T02:19:26.752Z</time>
      </trkpt>
      <trkpt lat="42.41235" lon="42.18103">
        <ele>178.793431</ele>
        <time>2021-08-15T02:19:41.767Z</time>
      </trkpt>
      <trkpt lat="42.41253" lon="42.18136">
        <ele>179.048759</ele>
        <time>2021-08-15T02:19:50.385Z</time>
      </trkpt>
      <trkpt lat="42.41265" lon="42.18143">
        <ele>179.159192</ele>
        <time>2021-08-15T02:19:53.488Z</time>
      </trkpt>
      <trkpt lat="42.4127" lon="42.18147">
        <ele>179.200822</ele>
        <time>2021-08-15T02:19:55.450Z</time>
      </trkpt>
      <trkpt lat="42.41283" lon="42.18128">
        <ele>179.361061</ele>
        <time>2021-08-15T02:20:01.597Z</time>
      </trkpt>
      <trkpt lat="42.41307" lon="42.18099">
        <ele>179.628607</ele>
        <time>2021-08-15T02:20:11.848Z</time>
      </trkpt>
      <trkpt lat="42.41326" lon="42.18065">
        <ele>179.890341</ele>
        <time>2021-08-15T02:20:22.141Z</time>
      </trkpt>
      <trkpt lat="42.41378" lon="42.18006">
        <ele>179.143792</ele>
        <time>2021-08-15T02:20:41.614Z</time>
      </trkpt>
      <trkpt lat="42.41401" lon="42.17956">
        <ele>178.587223</ele>
        <time>2021-08-15T02:20:50.216Z</time>
      </trkpt>
      <trkpt lat="42.41415" lon="42.17905">
        <ele>178.071185</ele>
        <time>2021-08-15T02:20:57.639Z</time>
      </trkpt>
      <trkpt lat="42.41428" lon="42.17877">
        <ele>177.763296</ele>
        <time>2021-08-15T02:21:02.166Z</time>
      </trkpt>
      <trkpt lat="42.41431" lon="42.17865">
        <ele>177.639207</ele>
        <time>2021-08-15T02:21:03.718Z</time>
      </trkpt>
      <trkpt lat="42.41438" lon="42.17822">
        <ele>176.198483</ele>
        <time>2021-08-15T02:21:09.343Z</time>
      </trkpt>
      <trkpt lat="42.41452" lon="42.17794">
        <ele>175.075059</ele>
        <time>2021-08-15T02:21:13.594Z</time>
      </trkpt>
      <trkpt lat="42.41449" lon="42.17783">
        <ele>174.670886</ele>
        <time>2021-08-15T02:21:15.048Z</time>
      </trkpt>
      <trkpt lat="42.41417" lon="42.17735">
        <ele>172.522712</ele>
        <time>2021-08-15T02:21:22.819Z</time>
      </trkpt>
      <trkpt lat="42.41335" lon="42.17662">
        <ele>168.793133</ele>
        <time>2021-08-15T02:21:39.518Z</time>
      </trkpt>
      <trkpt lat="42.41299" lon="42.17614">
        <ele>167.688933</ele>
        <time>2021-08-15T02:21:48.453Z</time>
      </trkpt>
      <trkpt lat="42.4127" lon="42.17441">
        <ele>165.380887</ele>
        <time>2021-08-15T02:22:16.110Z</time>
      </trkpt>
      <trkpt lat="42.41272" lon="42.17351">
        <ele>165.119417</ele>
        <time>2021-08-15T02:22:32.313Z</time>
      </trkpt>
      <trkpt lat="42.41269" lon="42.17312">
        <ele>165.00612</ele>
        <time>2021-08-15T02:22:38.794Z</time>
      </trkpt>
      <trkpt lat="42.41276" lon="42.17293">
        <ele>164.945701</ele>
        <time>2021-08-15T02:22:42.871Z</time>
      </trkpt>
      <trkpt lat="42.41287" lon="42.17269">
        <ele>164.862338</ele>
        <time>2021-08-15T02:22:47.487Z</time>
      </trkpt>
      <trkpt lat="42.41291" lon="42.1726">
        <ele>164.829825</ele>
        <time>2021-08-15T02:22:49.986Z</time>
      </trkpt>
      <trkpt lat="42.41304" lon="42.17247">
        <ele>164.49935</ele>
        <time>2021-08-15T02:22:53.136Z</time>
      </trkpt>
      <trkpt lat="42.41368" lon="42.17156">
        <ele>161.154276</ele>
        <time>2021-08-15T02:23:10.860Z</time>
      </trkpt>
      <trkpt lat="42.41395" lon="42.17102">
        <ele>159.40602</ele>
        <time>2021-08-15T02:23:18.888Z</time>
      </trkpt>
      <trkpt lat="42.41402" lon="42.1709">
        <ele>159.012943</ele>
        <time>2021-08-15T02:23:20.600Z</time>
      </trkpt>
      <trkpt lat="42.41406" lon="42.17082">
        <ele>158.750173</ele>
        <time>2021-08-15T02:23:21.719Z</time>
      </trkpt>
      <trkpt lat="42.41435" lon="42.17008">
        <ele>154.438847</ele>
        <time>2021-08-15T02:23:31.603Z</time>
      </trkpt>
      <trkpt lat="42.41443" lon="42.16984">
        <ele>152.929742</ele>
        <time>2021-08-15T02:23:34.627Z</time>
      </trkpt>
      <trkpt lat="42.41446" lon="42.16952">
        <ele>151.1033</ele>
        <time>2021-08-15T02:23:38.222Z</time>
      </trkpt>
      <trkpt lat="42.4144" lon="42.16906">
        <ele>148.449274</ele>
        <time>2021-08-15T02:23:43.474Z</time>
      </trkpt>
      <trkpt lat="42.41441" lon="42.16874">
        <ele>146.597337</ele>
        <time>2021-08-15T02:23:47.156Z</time>
      </trkpt>
      <trkpt lat="42.41461" lon="42.16721">
        <ele>137.515497</ele>
        <time>2021-08-15T02:24:04.717Z</time>
      </trkpt>
      <trkpt lat="42.41468" lon="42.16636">
        <ele>132.43163</ele>
        <time>2021-08-15T02:24:14.662Z</time>
      </trkpt>
      <trkpt lat="42.41497" lon="42.16519">
        <ele>125.125283</ele>
        <time>2021-08-15T02:24:28.699Z</time>
      </trkpt>
      <trkpt lat="42.41503" lon="42.16398">
        <ele>117.866817</ele>
        <time>2021-08-15T02:24:42.331Z</time>
      </trkpt>
      <trkpt lat="42.41511" lon="42.16376">
        <ele>116.366328</ele>
        <time>2021-08-15T02:24:45.207Z</time>
      </trkpt>
      <trkpt lat="42.41518" lon="42.1635">
        <ele>114.932716</ele>
        <time>2021-08-15T02:24:48.374Z</time>
      </trkpt>
      <trkpt lat="42.41533" lon="42.16324">
        <ele>113.582813</ele>
        <time>2021-08-15T02:24:52.130Z</time>
      </trkpt>
      <trkpt lat="42.41594" lon="42.16206">
        <ele>107.662228</ele>
        <time>2021-08-15T02:25:09.048Z</time>
      </trkpt>
      <trkpt lat="42.41672" lon="42.16115">
        <ele>106.252803</ele>
        <time>2021-08-15T02:25:29.761Z</time>
      </trkpt>
      <trkpt lat="42.41709" lon="42.16088">
        <ele>106.790366</ele>
        <time>2021-08-15T02:25:41.855Z</time>
      </trkpt>
      <trkpt lat="42.41715" lon="42.16087">
        <ele>106.8749</ele>
        <time>2021-08-15T02:25:44.347Z</time>
      </trkpt>
      <trkpt lat="42.41719" lon="42.16086">
        <ele>106.934123</ele>
        <time>2021-08-15T02:25:45.876Z</time>
      </trkpt>
      <trkpt lat="42.41728" lon="42.16086">
        <ele>107.040217</ele>
        <time>2021-08-15T02:25:48.504Z</time>
      </trkpt>
      <trkpt lat="42.41732" lon="42.16086">
        <ele>107.099163</ele>
        <time>2021-08-15T02:25:51.075Z</time>
      </trkpt>
      <trkpt lat="42.41768" lon="42.16091">
        <ele>107.575847</ele>
        <time>2021-08-15T02:26:06.019Z</time>
      </trkpt>
      <trkpt lat="42.41781" lon="42.16101">
        <ele>107.762634</ele>
        <time>2021-08-15T02:26:11.887Z</time>
      </trkpt>
      <trkpt lat="42.4178" lon="42.1611">
        <ele>108.145718</ele>
        <time>2021-08-15T02:26:15.387Z</time>
      </trkpt>
      <trkpt lat="42.41762" lon="42.16138">
        <ele>109.817905</ele>
        <time>2021-08-15T02:26:28.747Z</time>
      </trkpt>
      <trkpt lat="42.41762" lon="42.16153">
        <ele>110.503285</ele>
        <time>2021-08-15T02:26:34.770Z</time>
      </trkpt>
      <trkpt lat="42.41768" lon="42.16164">
        <ele>111.135787</ele>
        <time>2021-08-15T02:26:40.628Z</time>
      </trkpt>
      <trkpt lat="42.41801" lon="42.16179">
        <ele>113.31326</ele>
        <time>2021-08-15T02:27:00.729Z</time>
      </trkpt>
      <trkpt lat="42.41838" lon="42.1621">
        <ele>115.995928</ele>
        <time>2021-08-15T02:27:25.480Z</time>
      </trkpt>
      <trkpt lat="42.41869" lon="42.16224">
        <ele>117.962386</ele>
        <time>2021-08-15T02:27:43.492Z</time>
      </trkpt>
      <trkpt lat="42.41904" lon="42.16226">
        <ele>119.948084</ele>
        <time>2021-08-15T02:28:03.732Z</time>
      </trkpt>
      <trkpt lat="42.41956" lon="42.16209">
        <ele>122.78833</ele>
        <time>2021-08-15T02:28:35.230Z</time>
      </trkpt>
      <trkpt lat="42.42049" lon="42.16193">
        <ele>127.652891</ele>
        <time>2021-08-15T02:29:18.574Z</time>
      </trkpt>
      <trkpt lat="42.42061" lon="42.16193">
        <ele>128.297512</ele>
        <time>2021-08-15T02:29:24.358Z</time>
      </trkpt>
      <trkpt lat="42.4207" lon="42.16195">
        <ele>128.364538</ele>
        <time>2021-08-15T02:29:27.179Z</time>
      </trkpt>
      <trkpt lat="42.42113" lon="42.16197">
        <ele>128.523623</ele>
        <time>2021-08-15T02:29:41.377Z</time>
      </trkpt>
      <trkpt lat="42.42174" lon="42.162">
        <ele>128.74996</ele>
        <time>2021-08-15T02:29:57.493Z</time>
      </trkpt>
      <trkpt lat="42.42205" lon="42.16179">
        <ele>128.878864</ele>
        <time>2021-08-15T02:30:04.866Z</time>
      </trkpt>
      <trkpt lat="42.42239" lon="42.1614">
        <ele>128.565904</ele>
        <time>2021-08-15T02:30:13.147Z</time>
      </trkpt>
      <trkpt lat="42.42261" lon="42.16132">
        <ele>127.71679</ele>
        <time>2021-08-15T02:30:17.346Z</time>
      </trkpt>
      <trkpt lat="42.42335" lon="42.16122">
        <ele>124.994395</ele>
        <time>2021-08-15T02:30:30.473Z</time>
      </trkpt>
      <trkpt lat="42.42418" lon="42.16139">
        <ele>121.586947</ele>
        <time>2021-08-15T02:30:44.634Z</time>
      </trkpt>
      <trkpt lat="42.42475" lon="42.16141">
        <ele>118.101406</ele>
        <time>2021-08-15T02:30:53.875Z</time>
      </trkpt>
      <trkpt lat="42.42508" lon="42.1614">
        <ele>116.064247</ele>
        <time>2021-08-15T02:30:59.172Z</time>
      </trkpt>
      <trkpt lat="42.42506" lon="42.16132">
        <ele>115.669764</ele>
        <time>2021-08-15T02:31:01.035Z</time>
      </trkpt>
      <trkpt lat="42.42533" lon="42.16113">
        <ele>113.839291</ele>
        <time>2021-08-15T02:31:05.526Z</time>
      </trkpt>
      <trkpt lat="42.42663" lon="42.16061">
        <ele>105.762599</ele>
        <time>2021-08-15T02:31:25.881Z</time>
      </trkpt>
      <trkpt lat="42.42733" lon="42.15992">
        <ele>100.759698</ele>
        <time>2021-08-15T02:31:39.392Z</time>
      </trkpt>
      <trkpt lat="42.42848" lon="42.15763">
        <ele>97.118307</ele>
        <time>2021-08-15T02:32:17.377Z</time>
      </trkpt>
      <trkpt lat="42.42852" lon="42.15755">
        <ele>97.174391</ele>
        <time>2021-08-15T02:32:19.920Z</time>
      </trkpt>
      <trkpt lat="42.42853" lon="42.15741">
        <ele>97.255035</ele>
        <time>2021-08-15T02:32:22.442Z</time>
      </trkpt>
      <trkpt lat="42.42852" lon="42.1572">
        <ele>97.378304</ele>
        <time>2021-08-15T02:32:25.715Z</time>
      </trkpt>
      <trkpt lat="42.42833" lon="42.15639">
        <ele>97.880318</ele>
        <time>2021-08-15T02:32:43.592Z</time>
      </trkpt>
      <trkpt lat="42.42803" lon="42.15549">
        <ele>98.756901</ele>
        <time>2021-08-15T02:33:07.503Z</time>
      </trkpt>
      <trkpt lat="42.42795" lon="42.1551">
        <ele>99.577685</ele>
        <time>2021-08-15T02:33:17.158Z</time>
      </trkpt>
      <trkpt lat="42.42794" lon="42.15501">
        <ele>99.761473</ele>
        <time>2021-08-15T02:33:19.265Z</time>
      </trkpt>
      <trkpt lat="42.42794" lon="42.15497">
        <ele>99.857555</ele>
        <time>2021-08-15T02:33:20.893Z</time>
      </trkpt>
      <trkpt lat="42.42793" lon="42.1538">
        <ele>102.225533</ele>
        <time>2021-08-15T02:33:51.319Z</time>
      </trkpt>
      <trkpt lat="42.42839" lon="42.15258">
        <ele>105.597859</ele>
        <time>2021-08-15T02:34:32.969Z</time>
      </trkpt>
      <trkpt lat="42.42868" lon="42.15146">
        <ele>108.877178</ele>
        <time>2021-08-15T02:35:09.407Z</time>
      </trkpt>
      <trkpt lat="42.42874" lon="42.15116">
        <ele>109.723264</ele>
        <time>2021-08-15T02:35:19.151Z</time>
      </trkpt>
      <trkpt lat="42.42878" lon="42.15095">
        <ele>110.162834</ele>
        <time>2021-08-15T02:35:24.930Z</time>
      </trkpt>
      <trkpt lat="42.42888" lon="42.15056">
        <ele>110.811989</ele>
        <time>2021-08-15T02:35:37.310Z</time>
      </trkpt>
      <trkpt lat="42.4289" lon="42.15046">
        <ele>110.977424</ele>
        <time>2021-08-15T02:35:40.906Z</time>
      </trkpt>
      <trkpt lat="42.42905" lon="42.15012">
        <ele>111.601792</ele>
        <time>2021-08-15T02:35:51.768Z</time>
      </trkpt>
      <trkpt lat="42.42965" lon="42.14948">
        <ele>113.218471</ele>
        <time>2021-08-15T02:36:18.026Z</time>
      </trkpt>
      <trkpt lat="42.42989" lon="42.14921">
        <ele>113.655833</ele>
        <time>2021-08-15T02:36:24.582Z</time>
      </trkpt>
      <trkpt lat="42.42996" lon="42.14916">
        <ele>113.394857</ele>
        <time>2021-08-15T02:36:26.165Z</time>
      </trkpt>
      <trkpt lat="42.43004" lon="42.14911">
        <ele>113.11453</ele>
        <time>2021-08-15T02:36:27.915Z</time>
      </trkpt>
      <trkpt lat="42.4302" lon="42.149">
        <ele>112.515557</ele>
        <time>2021-08-15T02:36:31.382Z</time>
      </trkpt>
      <trkpt lat="42.43082" lon="42.14842">
        <ele>110.091922</ele>
        <time>2021-08-15T02:36:44.289Z</time>
      </trkpt>
      <trkpt lat="42.43106" lon="42.14828">
        <ele>109.262634</ele>
        <time>2021-08-15T02:36:48.537Z</time>
      </trkpt>
      <trkpt lat="42.43124" lon="42.1482">
        <ele>108.643962</ele>
        <time>2021-08-15T02:36:51.487Z</time>
      </trkpt>
      <trkpt lat="42.43148" lon="42.14812">
        <ele>107.715638</ele>
        <time>2021-08-15T02:36:55.391Z</time>
      </trkpt>
      <trkpt lat="42.43201" lon="42.14771">
        <ele>104.119388</ele>
        <time>2021-08-15T02:37:04.623Z</time>
      </trkpt>
      <trkpt lat="42.43258" lon="42.14754">
        <ele>100.695451</ele>
        <time>2021-08-15T02:37:13.270Z</time>
      </trkpt>
      <trkpt lat="42.43314" lon="42.14748">
        <ele>97.352301</ele>
        <time>2021-08-15T02:37:22.140Z</time>
      </trkpt>
      <trkpt lat="42.43366" lon="42.14768">
        <ele>96.267954</ele>
        <time>2021-08-15T02:37:31.157Z</time>
      </trkpt>
      <trkpt lat="42.43381" lon="42.14771">
        <ele>95.958634</ele>
        <time>2021-08-15T02:37:33.779Z</time>
      </trkpt>
      <trkpt lat="42.43401" lon="42.14764">
        <ele>95.547999</ele>
        <time>2021-08-15T02:37:37.514Z</time>
      </trkpt>
      <trkpt lat="42.4341" lon="42.14757">
        <ele>95.331486</ele>
        <time>2021-08-15T02:37:39.391Z</time>
      </trkpt>
      <trkpt lat="42.43436" lon="42.14731">
        <ele>94.690222</ele>
        <time>2021-08-15T02:37:45.564Z</time>
      </trkpt>
      <trkpt lat="42.43464" lon="42.14704">
        <ele>94.00715</ele>
        <time>2021-08-15T02:37:52.922Z</time>
      </trkpt>
      <trkpt lat="42.43491" lon="42.14673">
        <ele>94.234062</ele>
        <time>2021-08-15T02:38:02.937Z</time>
      </trkpt>
      <trkpt lat="42.43524" lon="42.14611">
        <ele>95.476859</ele>
        <time>2021-08-15T02:38:20.953Z</time>
      </trkpt>
      <trkpt lat="42.43556" lon="42.14581">
        <ele>96.331434</ele>
        <time>2021-08-15T02:38:35.420Z</time>
      </trkpt>
      <trkpt lat="42.43581" lon="42.14565">
        <ele>96.9385</ele>
        <time>2021-08-15T02:38:45.963Z</time>
      </trkpt>
      <trkpt lat="42.43602" lon="42.14554">
        <ele>97.43033</ele>
        <time>2021-08-15T02:38:54.467Z</time>
      </trkpt>
      <trkpt lat="42.43655" lon="42.14528">
        <ele>98.422441</ele>
        <time>2021-08-15T02:39:15.497Z</time>
      </trkpt>
      <trkpt lat="42.43702" lon="42.14513">
        <ele>99.194237</ele>
        <time>2021-08-15T02:39:31.790Z</time>
      </trkpt>
      <trkpt lat="42.43777" lon="42.14509">
        <ele>100.414786</ele>
        <time>2021-08-15T02:39:52.294Z</time>
      </trkpt>
      <trkpt lat="42.438" lon="42.1451">
        <ele>100.463356</ele>
        <time>2021-08-15T02:39:57.711Z</time>
      </trkpt>
      <trkpt lat="42.43815" lon="42.1451">
        <ele>100.271434</ele>
        <time>2021-08-15T02:40:00.680Z</time>
      </trkpt>
      <trkpt lat="42.43921" lon="42.14501">
        <ele>98.883823</ele>
        <time>2021-08-15T02:40:20.643Z</time>
      </trkpt>
      <trkpt lat="42.43972" lon="42.14513">
        <ele>98.239342</ele>
        <time>2021-08-15T02:40:30.170Z</time>
      </trkpt>
      <trkpt lat="42.43991" lon="42.14508">
        <ele>98.12781</ele>
        <time>2021-08-15T02:40:33.653Z</time>
      </trkpt>
      <trkpt lat="42.4401" lon="42.14484">
        <ele>97.980335</ele>
        <time>2021-08-15T02:40:38.900Z</time>
      </trkpt>
      <trkpt lat="42.44018" lon="42.14473">
        <ele>97.919096</ele>
        <time>2021-08-15T02:40:40.721Z</time>
      </trkpt>
      <trkpt lat="42.44021" lon="42.1447">
        <ele>97.899417</ele>
        <time>2021-08-15T02:40:41.372Z</time>
      </trkpt>
      <trkpt lat="42.44049" lon="42.14443">
        <ele>97.702182</ele>
        <time>2021-08-15T02:40:48.275Z</time>
      </trkpt>
      <trkpt lat="42.44054" lon="42.14445">
        <ele>97.673476</ele>
        <time>2021-08-15T02:40:49.928Z</time>
      </trkpt>
      <trkpt lat="42.44161" lon="42.14478">
        <ele>98.30247</ele>
        <time>2021-08-15T02:41:16.265Z</time>
      </trkpt>
      <trkpt lat="42.44235" lon="42.14574">
        <ele>101.551904</ele>
        <time>2021-08-15T02:41:56.380Z</time>
      </trkpt>
      <trkpt lat="42.44325" lon="42.14629">
        <ele>106.20408</ele>
        <time>2021-08-15T02:42:43.484Z</time>
      </trkpt>
      <trkpt lat="42.44402" lon="42.14617">
        <ele>110.731179</ele>
        <time>2021-08-15T02:43:24.912Z</time>
      </trkpt>
      <trkpt lat="42.44489" lon="42.14568">
        <ele>116.299651</ele>
        <time>2021-08-15T02:44:16.723Z</time>
      </trkpt>
      <trkpt lat="42.44544" lon="42.14552">
        <ele>119.667442</ele>
        <time>2021-08-15T02:44:47.008Z</time>
      </trkpt>
      <trkpt lat="42.44691" lon="42.14566">
        <ele>126.982814</ele>
        <time>2021-08-15T02:45:58.822Z</time>
      </trkpt>
      <trkpt lat="42.44695" lon="42.14567">
        <ele>127.133956</ele>
        <time>2021-08-15T02:46:01.564Z</time>
      </trkpt>
      <trkpt lat="42.4471" lon="42.14569">
        <ele>127.762752</ele>
        <time>2021-08-15T02:46:07.498Z</time>
      </trkpt>
      <trkpt lat="42.44752" lon="42.14577">
        <ele>129.427065</ele>
        <time>2021-08-15T02:46:23.675Z</time>
      </trkpt>
      <trkpt lat="42.4482" lon="42.14613">
        <ele>131.812144</ele>
        <time>2021-08-15T02:46:49.219Z</time>
      </trkpt>
      <trkpt lat="42.44847" lon="42.14642">
        <ele>132.504533</ele>
        <time>2021-08-15T02:47:00.282Z</time>
      </trkpt>
      <trkpt lat="42.44859" lon="42.14665">
        <ele>132.919484</ele>
        <time>2021-08-15T02:47:06.585Z</time>
      </trkpt>
      <trkpt lat="42.44864" lon="42.14672">
        <ele>133.054931</ele>
        <time>2021-08-15T02:47:08.659Z</time>
      </trkpt>
      <trkpt lat="42.44867" lon="42.14676">
        <ele>133.142428</ele>
        <time>2021-08-15T02:47:09.779Z</time>
      </trkpt>
      <trkpt lat="42.44908" lon="42.14699">
        <ele>134.029751</ele>
        <time>2021-08-15T02:47:23.658Z</time>
      </trkpt>
      <trkpt lat="42.44964" lon="42.14711">
        <ele>135.247717</ele>
        <time>2021-08-15T02:47:41.602Z</time>
      </trkpt>
      <trkpt lat="42.44974" lon="42.14713">
        <ele>135.495341</ele>
        <time>2021-08-15T02:47:44.446Z</time>
      </trkpt>
      <trkpt lat="42.44983" lon="42.14716">
        <ele>135.751016</ele>
        <time>2021-08-15T02:47:48.413Z</time>
      </trkpt>
      <trkpt lat="42.4501" lon="42.14723">
        <ele>136.453632</ele>
        <time>2021-08-15T02:47:56.818Z</time>
      </trkpt>
      <trkpt lat="42.45047" lon="42.14744">
        <ele>137.507476</ele>
        <time>2021-08-15T02:48:11.128Z</time>
      </trkpt>
      <trkpt lat="42.45085" lon="42.14779">
        <ele>138.713148</ele>
        <time>2021-08-15T02:48:28.374Z</time>
      </trkpt>
      <trkpt lat="42.4516" lon="42.14808">
        <ele>140.942481</ele>
        <time>2021-08-15T02:48:57.965Z</time>
      </trkpt>
      <trkpt lat="42.45197" lon="42.14873">
        <ele>142.79733</ele>
        <time>2021-08-15T02:49:20.942Z</time>
      </trkpt>
      <trkpt lat="42.45285" lon="42.1496">
        <ele>145.830363</ele>
        <time>2021-08-15T02:50:01.552Z</time>
      </trkpt>
      <trkpt lat="42.45328" lon="42.14959">
        <ele>146.78279</ele>
        <time>2021-08-15T02:50:16.941Z</time>
      </trkpt>
      <trkpt lat="42.45371" lon="42.14944">
        <ele>147.764512</ele>
        <time>2021-08-15T02:50:31.818Z</time>
      </trkpt>
      <trkpt lat="42.45457" lon="42.14935">
        <ele>149.186071</ele>
        <time>2021-08-15T02:50:57.409Z</time>
      </trkpt>
      <trkpt lat="42.4555" lon="42.14963">
        <ele>149.697947</ele>
        <time>2021-08-15T02:51:20.786Z</time>
      </trkpt>
      <trkpt lat="42.45614" lon="42.14961">
        <ele>150.17972</ele>
        <time>2021-08-15T02:51:34.367Z</time>
      </trkpt>
      <trkpt lat="42.45678" lon="42.15">
        <ele>151.716538</ele>
        <time>2021-08-15T02:51:52.596Z</time>
      </trkpt>
      <trkpt lat="42.45705" lon="42.15017">
        <ele>152.355825</ele>
        <time>2021-08-15T02:52:02.087Z</time>
      </trkpt>
      <trkpt lat="42.45716" lon="42.15028">
        <ele>152.662394</ele>
        <time>2021-08-15T02:52:06.997Z</time>
      </trkpt>
      <trkpt lat="42.4575" lon="42.15109">
        <ele>154.352961</ele>
        <time>2021-08-15T02:52:37.412Z</time>
      </trkpt>
      <trkpt lat="42.4576" lon="42.15122">
        <ele>154.952438</ele>
        <time>2021-08-15T02:52:43.983Z</time>
      </trkpt>
      <trkpt lat="42.45773" lon="42.15132">
        <ele>155.536988</ele>
        <time>2021-08-15T02:52:51.036Z</time>
      </trkpt>
      <trkpt lat="42.45836" lon="42.15162">
        <ele>158.270347</ele>
        <time>2021-08-15T02:53:21.475Z</time>
      </trkpt>
      <trkpt lat="42.45856" lon="42.15171">
        <ele>159.148078</ele>
        <time>2021-08-15T02:53:31.237Z</time>
      </trkpt>
      <trkpt lat="42.45861" lon="42.15173">
        <ele>159.370233</ele>
        <time>2021-08-15T02:53:33.623Z</time>
      </trkpt>
      <trkpt lat="42.45915" lon="42.15186">
        <ele>161.344731</ele>
        <time>2021-08-15T02:53:56.992Z</time>
      </trkpt>
      <trkpt lat="42.4598" lon="42.15214">
        <ele>161.801185</ele>
        <time>2021-08-15T02:54:13.811Z</time>
      </trkpt>
      <trkpt lat="42.46078" lon="42.15218">
        <ele>162.462047</ele>
        <time>2021-08-15T02:54:33.828Z</time>
      </trkpt>
      <trkpt lat="42.46102" lon="42.15224">
        <ele>162.976687</ele>
        <time>2021-08-15T02:54:40.686Z</time>
      </trkpt>
      <trkpt lat="42.46116" lon="42.15232">
        <ele>163.37816</ele>
        <time>2021-08-15T02:54:44.961Z</time>
      </trkpt>
      <trkpt lat="42.46118" lon="42.15233">
        <ele>163.434118</ele>
        <time>2021-08-15T02:54:45.556Z</time>
      </trkpt>
      <trkpt lat="42.46119" lon="42.15234">
        <ele>163.484109</ele>
        <time>2021-08-15T02:54:46.113Z</time>
      </trkpt>
      <trkpt lat="42.46146" lon="42.15256">
        <ele>164.312061</ele>
        <time>2021-08-15T02:54:56.471Z</time>
      </trkpt>
      <trkpt lat="42.46188" lon="42.15286">
        <ele>165.540732</ele>
        <time>2021-08-15T02:55:13.539Z</time>
      </trkpt>
      <trkpt lat="42.46202" lon="42.1529">
        <ele>165.907055</ele>
        <time>2021-08-15T02:55:18.962Z</time>
      </trkpt>
      <trkpt lat="42.46218" lon="42.15295">
        <ele>166.356852</ele>
        <time>2021-08-15T02:55:25.825Z</time>
      </trkpt>
      <trkpt lat="42.46245" lon="42.15309">
        <ele>167.12236</ele>
        <time>2021-08-15T02:55:38.419Z</time>
      </trkpt>
      <trkpt lat="42.46307" lon="42.15355">
        <ele>170.068087</ele>
        <time>2021-08-15T02:56:11.712Z</time>
      </trkpt>
      <trkpt lat="42.46335" lon="42.15402">
        <ele>171.969648</ele>
        <time>2021-08-15T02:56:32.692Z</time>
      </trkpt>
      <trkpt lat="42.46377" lon="42.15497">
        <ele>174.983778</ele>
        <time>2021-08-15T02:57:06.979Z</time>
      </trkpt>
      <trkpt lat="42.4639" lon="42.15532">
        <ele>175.128433</ele>
        <time>2021-08-15T02:57:17.078Z</time>
      </trkpt>
      <trkpt lat="42.46399" lon="42.15547">
        <ele>175.199212</ele>
        <time>2021-08-15T02:57:21.872Z</time>
      </trkpt>
      <trkpt lat="42.46413" lon="42.15567">
        <ele>175.301676</ele>
        <time>2021-08-15T02:57:28.054Z</time>
      </trkpt>
      <trkpt lat="42.46429" lon="42.15579">
        <ele>175.390192</ele>
        <time>2021-08-15T02:57:33.382Z</time>
      </trkpt>
      <trkpt lat="42.46462" lon="42.15584">
        <ele>175.560377</ele>
        <time>2021-08-15T02:57:41.601Z</time>
      </trkpt>
      <trkpt lat="42.46468" lon="42.15584">
        <ele>175.590034</ele>
        <time>2021-08-15T02:57:43.762Z</time>
      </trkpt>
      <trkpt lat="42.46477" lon="42.1559">
        <ele>175.641817</ele>
        <time>2021-08-15T02:57:45.884Z</time>
      </trkpt>
      <trkpt lat="42.46579" lon="42.15671">
        <ele>170.537865</ele>
        <time>2021-08-15T02:58:06.230Z</time>
      </trkpt>
      <trkpt lat="42.46646" lon="42.1568">
        <ele>166.227148</ele>
        <time>2021-08-15T02:58:16.692Z</time>
      </trkpt>
      <trkpt lat="42.46681" lon="42.15674">
        <ele>163.783753</ele>
        <time>2021-08-15T02:58:21.987Z</time>
      </trkpt>
      <trkpt lat="42.46683" lon="42.15676">
        <ele>163.492519</ele>
        <time>2021-08-15T02:58:22.391Z</time>
      </trkpt>
      <trkpt lat="42.46685" lon="42.15672">
        <ele>163.144772</ele>
        <time>2021-08-15T02:58:22.872Z</time>
      </trkpt>
      <trkpt lat="42.46708" lon="42.15639">
        <ele>159.819499</ele>
        <time>2021-08-15T02:58:27.910Z</time>
      </trkpt>
      <trkpt lat="42.46716" lon="42.15616">
        <ele>157.971655</ele>
        <time>2021-08-15T02:58:30.745Z</time>
      </trkpt>
      <trkpt lat="42.46735" lon="42.15586">
        <ele>155.11195</ele>
        <time>2021-08-15T02:58:34.958Z</time>
      </trkpt>
      <trkpt lat="42.46788" lon="42.15579">
        <ele>149.832505</ele>
        <time>2021-08-15T02:58:42.856Z</time>
      </trkpt>
      <trkpt lat="42.46916" lon="42.15528">
        <ele>139.945772</ele>
        <time>2021-08-15T02:59:03.191Z</time>
      </trkpt>
      <trkpt lat="42.46934" lon="42.15527">
        <ele>138.77642</ele>
        <time>2021-08-15T02:59:06.103Z</time>
      </trkpt>
      <trkpt lat="42.46938" lon="42.15508">
        <ele>137.854389</ele>
        <time>2021-08-15T02:59:08.405Z</time>
      </trkpt>
      <trkpt lat="42.46948" lon="42.15486">
        <ele>136.599435</ele>
        <time>2021-08-15T02:59:11.715Z</time>
      </trkpt>
      <trkpt lat="42.46956" lon="42.1547">
        <ele>135.632815</ele>
        <time>2021-08-15T02:59:14.178Z</time>
      </trkpt>
      <trkpt lat="42.4696" lon="42.15461">
        <ele>135.149158</ele>
        <time>2021-08-15T02:59:15.552Z</time>
      </trkpt>
      <trkpt lat="42.46978" lon="42.15439">
        <ele>134.859381</ele>
        <time>2021-08-15T02:59:20.207Z</time>
      </trkpt>
      <trkpt lat="42.46986" lon="42.15415">
        <ele>135.034278</ele>
        <time>2021-08-15T02:59:23.996Z</time>
      </trkpt>
      <trkpt lat="42.46977" lon="42.15316">
        <ele>135.689932</ele>
        <time>2021-08-15T02:59:42.434Z</time>
      </trkpt>
      <trkpt lat="42.46989" lon="42.15298">
        <ele>135.853475</ele>
        <time>2021-08-15T02:59:49.607Z</time>
      </trkpt>
      <trkpt lat="42.47003" lon="42.1529">
        <ele>135.98639</ele>
        <time>2021-08-15T02:59:54.572Z</time>
      </trkpt>
      <trkpt lat="42.47013" lon="42.15288">
        <ele>136.074686</ele>
        <time>2021-08-15T02:59:58.973Z</time>
      </trkpt>
      <trkpt lat="42.47022" lon="42.15285">
        <ele>136.161791</ele>
        <time>2021-08-15T03:00:03.974Z</time>
      </trkpt>
      <trkpt lat="42.47099" lon="42.15271">
        <ele>139.430833</ele>
        <time>2021-08-15T03:00:38.584Z</time>
      </trkpt>
      <trkpt lat="42.47153" lon="42.15237">
        <ele>142.474923</ele>
        <time>2021-08-15T03:01:08.123Z</time>
      </trkpt>
      <trkpt lat="42.47182" lon="42.15227">
        <ele>144.006425</ele>
        <time>2021-08-15T03:01:23.559Z</time>
      </trkpt>
      <trkpt lat="42.47279" lon="42.15217">
        <ele>150.526144</ele>
        <time>2021-08-15T03:02:16.592Z</time>
      </trkpt>
      <trkpt lat="42.47339" lon="42.1523">
        <ele>154.910435</ele>
        <time>2021-08-15T03:02:53.598Z</time>
      </trkpt>
      <trkpt lat="42.47387" lon="42.15214">
        <ele>158.56228</ele>
        <time>2021-08-15T03:03:25.907Z</time>
      </trkpt>
      <trkpt lat="42.47456" lon="42.15173">
        <ele>162.781007</ele>
        <time>2021-08-15T03:04:15.588Z</time>
      </trkpt>
      <trkpt lat="42.47498" lon="42.1516">
        <ele>165.18234</ele>
        <time>2021-08-15T03:04:38.126Z</time>
      </trkpt>
      <trkpt lat="42.47532" lon="42.15159">
        <ele>167.10524</ele>
        <time>2021-08-15T03:04:53.107Z</time>
      </trkpt>
      <trkpt lat="42.4755" lon="42.15158">
        <ele>168.138955</ele>
        <time>2021-08-15T03:05:01.098Z</time>
      </trkpt>
      <trkpt lat="42.47549" lon="42.15151">
        <ele>168.416582</ele>
        <time>2021-08-15T03:05:02.623Z</time>
      </trkpt>
      <trkpt lat="42.47596" lon="42.15094">
        <ele>166.735253</ele>
        <time>2021-08-15T03:05:17.191Z</time>
      </trkpt>
      <trkpt lat="42.47608" lon="42.15078">
        <ele>166.1551</ele>
        <time>2021-08-15T03:05:20.166Z</time>
      </trkpt>
      <trkpt lat="42.47625" lon="42.15036">
        <ele>164.89243</ele>
        <time>2021-08-15T03:05:26.357Z</time>
      </trkpt>
      <trkpt lat="42.47674" lon="42.14973">
        <ele>162.48252</ele>
        <time>2021-08-15T03:05:36.999Z</time>
      </trkpt>
      <trkpt lat="42.47808" lon="42.14814">
        <ele>148.076047</ele>
        <time>2021-08-15T03:06:04.107Z</time>
      </trkpt>
      <trkpt lat="42.47863" lon="42.14766">
        <ele>144.320102</ele>
        <time>2021-08-15T03:06:14.274Z</time>
      </trkpt>
      <trkpt lat="42.47936" lon="42.14671">
        <ele>138.680406</ele>
        <time>2021-08-15T03:06:31.126Z</time>
      </trkpt>
      <trkpt lat="42.47957" lon="42.14655">
        <ele>137.530128</ele>
        <time>2021-08-15T03:06:35.532Z</time>
      </trkpt>
      <trkpt lat="42.48002" lon="42.14651">
        <ele>136.749477</ele>
        <time>2021-08-15T03:06:43.953Z</time>
      </trkpt>
      <trkpt lat="42.48026" lon="42.14627">
        <ele>136.250069</ele>
        <time>2021-08-15T03:06:49.561Z</time>
      </trkpt>
      <trkpt lat="42.4805" lon="42.14592">
        <ele>135.629498</ele>
        <time>2021-08-15T03:06:56.803Z</time>
      </trkpt>
      <trkpt lat="42.48103" lon="42.14562">
        <ele>134.639145</ele>
        <time>2021-08-15T03:07:09.053Z</time>
      </trkpt>
      <trkpt lat="42.48115" lon="42.14556">
        <ele>134.520389</ele>
        <time>2021-08-15T03:07:11.750Z</time>
      </trkpt>
      <trkpt lat="42.48116" lon="42.14543">
        <ele>134.510618</ele>
        <time>2021-08-15T03:07:13.835Z</time>
      </trkpt>
      <trkpt lat="42.48121" lon="42.14527">
        <ele>134.49701</ele>
        <time>2021-08-15T03:07:16.772Z</time>
      </trkpt>
      <trkpt lat="42.48115" lon="42.14508">
        <ele>134.481151</ele>
        <time>2021-08-15T03:07:20.202Z</time>
      </trkpt>
      <trkpt lat="42.48099" lon="42.14419">
        <ele>134.411635</ele>
        <time>2021-08-15T03:07:35.507Z</time>
      </trkpt>
      <trkpt lat="42.48097" lon="42.14332">
        <ele>134.344673</ele>
        <time>2021-08-15T03:07:50.746Z</time>
      </trkpt>
      <trkpt lat="42.4809" lon="42.14305">
        <ele>134.528469</ele>
        <time>2021-08-15T03:07:55.924Z</time>
      </trkpt>
      <trkpt lat="42.48092" lon="42.14249">
        <ele>135.012701</ele>
        <time>2021-08-15T03:08:06.926Z</time>
      </trkpt>
      <trkpt lat="42.48069" lon="42.14185">
        <ele>135.615585</ele>
        <time>2021-08-15T03:08:21.545Z</time>
      </trkpt>
      <trkpt lat="42.48065" lon="42.1418">
        <ele>135.679915</ele>
        <time>2021-08-15T03:08:23.129Z</time>
      </trkpt>
      <trkpt lat="42.48064" lon="42.14178">
        <ele>135.707794</ele>
        <time>2021-08-15T03:08:24.157Z</time>
      </trkpt>
      <trkpt lat="42.48017" lon="42.14136">
        <ele>136.359337</ele>
        <time>2021-08-15T03:08:41.378Z</time>
      </trkpt>
      <trkpt lat="42.48008" lon="42.14112">
        <ele>136.864701</ele>
        <time>2021-08-15T03:08:47.986Z</time>
      </trkpt>
      <trkpt lat="42.48009" lon="42.1409">
        <ele>137.358342</ele>
        <time>2021-08-15T03:08:53.110Z</time>
      </trkpt>
      <trkpt lat="42.48057" lon="42.13994">
        <ele>140.043952</ele>
        <time>2021-08-15T03:09:27.397Z</time>
      </trkpt>
      <trkpt lat="42.48057" lon="42.13956">
        <ele>140.919319</ele>
        <time>2021-08-15T03:09:38.956Z</time>
      </trkpt>
      <trkpt lat="42.48051" lon="42.13915">
        <ele>141.898662</ele>
        <time>2021-08-15T03:09:51.263Z</time>
      </trkpt>
      <trkpt lat="42.4805" lon="42.13907">
        <ele>142.093077</ele>
        <time>2021-08-15T03:09:54.236Z</time>
      </trkpt>
      <trkpt lat="42.4805" lon="42.13889">
        <ele>142.625873</ele>
        <time>2021-08-15T03:09:58.861Z</time>
      </trkpt>
      <trkpt lat="42.4805" lon="42.13879">
        <ele>142.924753</ele>
        <time>2021-08-15T03:10:01.801Z</time>
      </trkpt>
      <trkpt lat="42.4805" lon="42.13879">
        <ele>142.94123</ele>
        <time>2021-08-15T03:10:02.401Z</time>
      </trkpt>
      <trkpt lat="42.48069" lon="42.1385">
        <ele>144.082307</ele>
        <time>2021-08-15T03:10:15.144Z</time>
      </trkpt>
      <trkpt lat="42.48103" lon="42.13822">
        <ele>145.709225</ele>
        <time>2021-08-15T03:10:33.213Z</time>
      </trkpt>
      <trkpt lat="42.48161" lon="42.13762">
        <ele>148.679679</ele>
        <time>2021-08-15T03:11:05.846Z</time>
      </trkpt>
      <trkpt lat="42.48168" lon="42.13754">
        <ele>149.021591</ele>
        <time>2021-08-15T03:11:11.041Z</time>
      </trkpt>
      <trkpt lat="42.48175" lon="42.13746">
        <ele>149.375618</ele>
        <time>2021-08-15T03:11:14.180Z</time>
      </trkpt>
      <trkpt lat="42.48183" lon="42.13733">
        <ele>149.631979</ele>
        <time>2021-08-15T03:11:19.028Z</time>
      </trkpt>
      <trkpt lat="42.48196" lon="42.13689">
        <ele>150.325711</ele>
        <time>2021-08-15T03:11:32.114Z</time>
      </trkpt>
      <trkpt lat="42.482" lon="42.13655">
        <ele>150.838582</ele>
        <time>2021-08-15T03:11:41.568Z</time>
      </trkpt>
      <trkpt lat="42.48194" lon="42.13624">
        <ele>151.305062</ele>
        <time>2021-08-15T03:11:50.054Z</time>
      </trkpt>
      <trkpt lat="42.48159" lon="42.13531">
        <ele>152.84882</ele>
        <time>2021-08-15T03:12:12.384Z</time>
      </trkpt>
      <trkpt lat="42.48156" lon="42.13511">
        <ele>152.98882</ele>
        <time>2021-08-15T03:12:15.528Z</time>
      </trkpt>
      <trkpt lat="42.48161" lon="42.13472">
        <ele>153.089982</ele>
        <time>2021-08-15T03:12:21.740Z</time>
      </trkpt>
      <trkpt lat="42.48171" lon="42.13447">
        <ele>153.162992</ele>
        <time>2021-08-15T03:12:26.244Z</time>
      </trkpt>
      <trkpt lat="42.48175" lon="42.13436">
        <ele>153.194432</ele>
        <time>2021-08-15T03:12:29.897Z</time>
      </trkpt>
      <trkpt lat="42.4818" lon="42.13421">
        <ele>153.238185</ele>
        <time>2021-08-15T03:12:32.592Z</time>
      </trkpt>
      <trkpt lat="42.48187" lon="42.13395">
        <ele>153.3092</ele>
        <time>2021-08-15T03:12:38.259Z</time>
      </trkpt>
      <trkpt lat="42.48189" lon="42.1339">
        <ele>153.323355</ele>
        <time>2021-08-15T03:12:39.407Z</time>
      </trkpt>
      <trkpt lat="42.48228" lon="42.1332">
        <ele>153.546449</ele>
        <time>2021-08-15T03:12:55.134Z</time>
      </trkpt>
      <trkpt lat="42.48232" lon="42.1331">
        <ele>153.576958</ele>
        <time>2021-08-15T03:12:58.032Z</time>
      </trkpt>
      <trkpt lat="42.48238" lon="42.13298">
        <ele>153.643447</ele>
        <time>2021-08-15T03:13:00.348Z</time>
      </trkpt>
      <trkpt lat="42.48249" lon="42.13285">
        <ele>153.73475</ele>
        <time>2021-08-15T03:13:03.401Z</time>
      </trkpt>
      <trkpt lat="42.48243" lon="42.13275">
        <ele>153.797869</ele>
        <time>2021-08-15T03:13:07.318Z</time>
      </trkpt>
      <trkpt lat="42.48236" lon="42.13251">
        <ele>153.920819</ele>
        <time>2021-08-15T03:13:11.390Z</time>
      </trkpt>
      <trkpt lat="42.48225" lon="42.13115">
        <ele>154.589513</ele>
        <time>2021-08-15T03:13:40.047Z</time>
      </trkpt>
      <trkpt lat="42.48232" lon="42.1303">
        <ele>154.348323</ele>
        <time>2021-08-15T03:13:56.588Z</time>
      </trkpt>
      <trkpt lat="42.48213" lon="42.12848">
        <ele>152.776748</ele>
        <time>2021-08-15T03:14:23.848Z</time>
      </trkpt>
      <trkpt lat="42.48191" lon="42.12795">
        <ele>151.599211</ele>
        <time>2021-08-15T03:14:31.958Z</time>
      </trkpt>
      <trkpt lat="42.48186" lon="42.1276">
        <ele>150.833323</ele>
        <time>2021-08-15T03:14:36.659Z</time>
      </trkpt>
      <trkpt lat="42.48195" lon="42.12707">
        <ele>149.653567</ele>
        <time>2021-08-15T03:14:43.814Z</time>
      </trkpt>
      <trkpt lat="42.48225" lon="42.12638">
        <ele>147.931815</ele>
        <time>2021-08-15T03:14:54.676Z</time>
      </trkpt>
      <trkpt lat="42.48232" lon="42.12622">
        <ele>147.533846</ele>
        <time>2021-08-15T03:14:56.928Z</time>
      </trkpt>
      <trkpt lat="42.48212" lon="42.12554">
        <ele>146.023468</ele>
        <time>2021-08-15T03:15:07.030Z</time>
      </trkpt>
      <trkpt lat="42.48197" lon="42.12477">
        <ele>144.366989</ele>
        <time>2021-08-15T03:15:17.704Z</time>
      </trkpt>
      <trkpt lat="42.4819" lon="42.12369">
        <ele>142.086033</ele>
        <time>2021-08-15T03:15:32.775Z</time>
      </trkpt>
      <trkpt lat="42.48211" lon="42.11977">
        <ele>132.062051</ele>
        <time>2021-08-15T03:16:24.208Z</time>
      </trkpt>
      <trkpt lat="42.48212" lon="42.1194">
        <ele>131.067982</ele>
        <time>2021-08-15T03:16:28.899Z</time>
      </trkpt>
      <trkpt lat="42.48224" lon="42.11965">
        <ele>130.262425</ele>
        <time>2021-08-15T03:16:32.662Z</time>
      </trkpt>
      <trkpt lat="42.48253" lon="42.12005">
        <ele>129.489301</ele>
        <time>2021-08-15T03:16:39.956Z</time>
      </trkpt>
      <trkpt lat="42.48338" lon="42.12084">
        <ele>128.285492</ele>
        <time>2021-08-15T03:16:59.458Z</time>
      </trkpt>
      <trkpt lat="42.48377" lon="42.12175">
        <ele>129.428975</ele>
        <time>2021-08-15T03:17:25.763Z</time>
      </trkpt>
      <trkpt lat="42.48399" lon="42.1227">
        <ele>133.507235</ele>
        <time>2021-08-15T03:18:01.686Z</time>
      </trkpt>
      <trkpt lat="42.48412" lon="42.12289">
        <ele>134.527543</ele>
        <time>2021-08-15T03:18:12.435Z</time>
      </trkpt>
      <trkpt lat="42.48422" lon="42.12296">
        <ele>135.182793</ele>
        <time>2021-08-15T03:18:19.333Z</time>
      </trkpt>
      <trkpt lat="42.48595" lon="42.12342">
        <ele>147.817109</ele>
        <time>2021-08-15T03:20:14.042Z</time>
      </trkpt>
      <trkpt lat="42.48717" lon="42.12411">
        <ele>155.296237</ele>
        <time>2021-08-15T03:21:27.504Z</time>
      </trkpt>
      <trkpt lat="42.48817" lon="42.12477">
        <ele>159.347536</ele>
        <time>2021-08-15T03:22:09.030Z</time>
      </trkpt>
      <trkpt lat="42.4884" lon="42.12492">
        <ele>159.104632</ele>
        <time>2021-08-15T03:22:16.149Z</time>
      </trkpt>
      <trkpt lat="42.4886" lon="42.12506">
        <ele>158.898763</ele>
        <time>2021-08-15T03:22:21.207Z</time>
      </trkpt>
      <trkpt lat="42.48913" lon="42.1253">
        <ele>158.380065</ele>
        <time>2021-08-15T03:22:32.702Z</time>
      </trkpt>
      <trkpt lat="42.49006" lon="42.12556">
        <ele>156.168761</ele>
        <time>2021-08-15T03:22:49.819Z</time>
      </trkpt>
      <trkpt lat="42.49066" lon="42.12549">
        <ele>153.184378</ele>
        <time>2021-08-15T03:22:59.873Z</time>
      </trkpt>
      <trkpt lat="42.49147" lon="42.12518">
        <ele>148.979451</ele>
        <time>2021-08-15T03:23:13.526Z</time>
      </trkpt>
      <trkpt lat="42.49181" lon="42.1252">
        <ele>147.170042</ele>
        <time>2021-08-15T03:23:18.953Z</time>
      </trkpt>
      <trkpt lat="42.4922" lon="42.12525">
        <ele>145.012644</ele>
        <time>2021-08-15T03:23:25.459Z</time>
      </trkpt>
      <trkpt lat="42.49223" lon="42.12525">
        <ele>144.849385</ele>
        <time>2021-08-15T03:23:25.889Z</time>
      </trkpt>
      <trkpt lat="42.4936" lon="42.1256">
        <ele>137.976515</ele>
        <time>2021-08-15T03:23:49.010Z</time>
      </trkpt>
      <trkpt lat="42.49374" lon="42.12564">
        <ele>137.489185</ele>
        <time>2021-08-15T03:23:51.311Z</time>
      </trkpt>
      <trkpt lat="42.49408" lon="42.12573">
        <ele>136.330993</ele>
        <time>2021-08-15T03:23:57.416Z</time>
      </trkpt>
      <trkpt lat="42.49511" lon="42.12579">
        <ele>133.015489</ele>
        <time>2021-08-15T03:24:16.364Z</time>
      </trkpt>
      <trkpt lat="42.49513" lon="42.12579">
        <ele>133.015707</ele>
        <time>2021-08-15T03:24:16.674Z</time>
      </trkpt>
      <trkpt lat="42.49535" lon="42.12577">
        <ele>133.017984</ele>
        <time>2021-08-15T03:24:21.066Z</time>
      </trkpt>
      <trkpt lat="42.49659" lon="42.12566">
        <ele>133.030899</ele>
        <time>2021-08-15T03:24:51.112Z</time>
      </trkpt>
      <trkpt lat="42.49672" lon="42.12568">
        <ele>133.032253</ele>
        <time>2021-08-15T03:24:54.177Z</time>
      </trkpt>
      <trkpt lat="42.49682" lon="42.12574">
        <ele>133.033422</ele>
        <time>2021-08-15T03:24:59.215Z</time>
      </trkpt>
      <trkpt lat="42.49726" lon="42.1266">
        <ele>134.845383</ele>
        <time>2021-08-15T03:25:26.548Z</time>
      </trkpt>
      <trkpt lat="42.49742" lon="42.12678">
        <ele>135.359563</ele>
        <time>2021-08-15T03:25:33.775Z</time>
      </trkpt>
      <trkpt lat="42.49844" lon="42.12754">
        <ele>137.735963</ele>
        <time>2021-08-15T03:26:17.175Z</time>
      </trkpt>
      <trkpt lat="42.49857" lon="42.12763">
        <ele>137.901415</ele>
        <time>2021-08-15T03:26:22.034Z</time>
      </trkpt>
      <trkpt lat="42.49876" lon="42.12775">
        <ele>138.148385</ele>
        <time>2021-08-15T03:26:28.615Z</time>
      </trkpt>
      <trkpt lat="42.49913" lon="42.12793">
        <ele>138.586829</ele>
        <time>2021-08-15T03:26:39.933Z</time>
      </trkpt>
      <trkpt lat="42.49961" lon="42.12807">
        <ele>139.150961</ele>
        <time>2021-08-15T03:26:53.429Z</time>
      </trkpt>
      <trkpt lat="42.50002" lon="42.12831">
        <ele>139.065503</ele>
        <time>2021-08-15T03:27:02.888Z</time>
      </trkpt>
      <trkpt lat="42.5013" lon="42.12888">
        <ele>136.862731</ele>
        <time>2021-08-15T03:27:29.322Z</time>
      </trkpt>
      <trkpt lat="42.50136" lon="42.12889">
        <ele>136.776215</ele>
        <time>2021-08-15T03:27:30.276Z</time>
      </trkpt>
      <trkpt lat="42.50139" lon="42.12889">
        <ele>136.715834</ele>
        <time>2021-08-15T03:27:30.840Z</time>
      </trkpt>
      <trkpt lat="42.50217" lon="42.12857">
        <ele>135.980589</ele>
        <time>2021-08-15T03:27:46.281Z</time>
      </trkpt>
      <trkpt lat="42.50356" lon="42.12915">
        <ele>136.044763</ele>
        <time>2021-08-15T03:28:19.902Z</time>
      </trkpt>
      <trkpt lat="42.50358" lon="42.12917">
        <ele>136.11671</ele>
        <time>2021-08-15T03:28:21.197Z</time>
      </trkpt>
      <trkpt lat="42.50368" lon="42.12928">
        <ele>136.453428</ele>
        <time>2021-08-15T03:28:25.950Z</time>
      </trkpt>
      <trkpt lat="42.50383" lon="42.12951">
        <ele>137.080706</ele>
        <time>2021-08-15T03:28:33.231Z</time>
      </trkpt>
      <trkpt lat="42.50407" lon="42.13013">
        <ele>138.493507</ele>
        <time>2021-08-15T03:28:53.041Z</time>
      </trkpt>
      <trkpt lat="42.50426" lon="42.1304">
        <ele>139.254442</ele>
        <time>2021-08-15T03:29:04.214Z</time>
      </trkpt>
      <trkpt lat="42.50446" lon="42.13067">
        <ele>140.01878</ele>
        <time>2021-08-15T03:29:18.494Z</time>
      </trkpt>
      <trkpt lat="42.50465" lon="42.13089">
        <ele>141.041291</ele>
        <time>2021-08-15T03:29:31.542Z</time>
      </trkpt>
      <trkpt lat="42.50498" lon="42.13131">
        <ele>142.972334</ele>
        <time>2021-08-15T03:29:52.479Z</time>
      </trkpt>
      <trkpt lat="42.50503" lon="42.13147">
        <ele>143.503019</ele>
        <time>2021-08-15T03:29:56.711Z</time>
      </trkpt>
      <trkpt lat="42.50506" lon="42.13157">
        <ele>143.851821</ele>
        <time>2021-08-15T03:30:01.284Z</time>
      </trkpt>
      <trkpt lat="42.50508" lon="42.13167">
        <ele>144.159753</ele>
        <time>2021-08-15T03:30:05.445Z</time>
      </trkpt>
      <trkpt lat="42.50516" lon="42.13194">
        <ele>145.085045</ele>
        <time>2021-08-15T03:30:13.674Z</time>
      </trkpt>
      <trkpt lat="42.50521" lon="42.13201">
        <ele>145.373811</ele>
        <time>2021-08-15T03:30:17.507Z</time>
      </trkpt>
      <trkpt lat="42.50529" lon="42.13216">
        <ele>145.969483</ele>
        <time>2021-08-15T03:30:24.662Z</time>
      </trkpt>
      <trkpt lat="42.5055" lon="42.13239">
        <ele>147.088296</ele>
        <time>2021-08-15T03:30:35.571Z</time>
      </trkpt>
      <trkpt lat="42.50608" lon="42.13269">
        <ele>148.740771</ele>
        <time>2021-08-15T03:30:58.896Z</time>
      </trkpt>
      <trkpt lat="42.5065" lon="42.13312">
        <ele>149.894907</ele>
        <time>2021-08-15T03:31:18.316Z</time>
      </trkpt>
      <trkpt lat="42.50732" lon="42.13339">
        <ele>151.648032</ele>
        <time>2021-08-15T03:31:42.527Z</time>
      </trkpt>
      <trkpt lat="42.50757" lon="42.13356">
        <ele>151.872393</ele>
        <time>2021-08-15T03:31:50.819Z</time>
      </trkpt>
      <trkpt lat="42.50784" lon="42.13383">
        <ele>152.137799</ele>
        <time>2021-08-15T03:32:00.260Z</time>
      </trkpt>
      <trkpt lat="42.50791" lon="42.13395">
        <ele>152.227959</ele>
        <time>2021-08-15T03:32:03.258Z</time>
      </trkpt>
      <trkpt lat="42.50803" lon="42.13435">
        <ele>152.485184</ele>
        <time>2021-08-15T03:32:12.357Z</time>
      </trkpt>
      <trkpt lat="42.50813" lon="42.13472">
        <ele>152.716552</ele>
        <time>2021-08-15T03:32:20.340Z</time>
      </trkpt>
      <trkpt lat="42.5083" lon="42.1349">
        <ele>152.889248</ele>
        <time>2021-08-15T03:32:26.216Z</time>
      </trkpt>
      <trkpt lat="42.51073" lon="42.13625">
        <ele>152.357737</ele>
        <time>2021-08-15T03:33:26.223Z</time>
      </trkpt>
      <trkpt lat="42.51122" lon="42.1366">
        <ele>151.835432</ele>
        <time>2021-08-15T03:33:37.557Z</time>
      </trkpt>
      <trkpt lat="42.51128" lon="42.1366">
        <ele>151.779871</ele>
        <time>2021-08-15T03:33:38.758Z</time>
      </trkpt>
      <trkpt lat="42.51132" lon="42.13655">
        <ele>151.72634</ele>
        <time>2021-08-15T03:33:39.716Z</time>
      </trkpt>
      <trkpt lat="42.5114" lon="42.13607">
        <ele>151.388467</ele>
        <time>2021-08-15T03:33:46.888Z</time>
      </trkpt>
      <trkpt lat="42.51191" lon="42.13487">
        <ele>150.240499</ele>
        <time>2021-08-15T03:34:07.517Z</time>
      </trkpt>
      <trkpt lat="42.51293" lon="42.13412">
        <ele>148.778447</ele>
        <time>2021-08-15T03:34:31.944Z</time>
      </trkpt>
      <trkpt lat="42.51397" lon="42.13368">
        <ele>146.946665</ele>
        <time>2021-08-15T03:34:54.460Z</time>
      </trkpt>
      <trkpt lat="42.51424" lon="42.13371">
        <ele>146.477321</ele>
        <time>2021-08-15T03:34:59.470Z</time>
      </trkpt>
      <trkpt lat="42.51476" lon="42.13396">
        <ele>144.750045</ele>
        <time>2021-08-15T03:35:09.215Z</time>
      </trkpt>
      <trkpt lat="42.5151" lon="42.13413">
        <ele>143.334971</ele>
        <time>2021-08-15T03:35:15.415Z</time>
      </trkpt>
      <trkpt lat="42.51524" lon="42.13415">
        <ele>142.80225</ele>
        <time>2021-08-15T03:35:19.188Z</time>
      </trkpt>
      <trkpt lat="42.51549" lon="42.13405">
        <ele>141.781296</ele>
        <time>2021-08-15T03:35:27.210Z</time>
      </trkpt>
      <trkpt lat="42.516" lon="42.13377">
        <ele>139.637369</ele>
        <time>2021-08-15T03:35:43.355Z</time>
      </trkpt>
      <trkpt lat="42.51618" lon="42.13366">
        <ele>139.043304</ele>
        <time>2021-08-15T03:35:49.471Z</time>
      </trkpt>
      <trkpt lat="42.51664" lon="42.13338">
        <ele>138.395742</ele>
        <time>2021-08-15T03:36:04.320Z</time>
      </trkpt>
      <trkpt lat="42.51705" lon="42.13313">
        <ele>137.798418</ele>
        <time>2021-08-15T03:36:19.550Z</time>
      </trkpt>
      <trkpt lat="42.51769" lon="42.1328">
        <ele>136.909046</ele>
        <time>2021-08-15T03:36:46.307Z</time>
      </trkpt>
      <trkpt lat="42.51813" lon="42.13237">
        <ele>137.692578</ele>
        <time>2021-08-15T03:37:12.066Z</time>
      </trkpt>
      <trkpt lat="42.51854" lon="42.13197">
        <ele>138.669888</ele>
        <time>2021-08-15T03:37:35.623Z</time>
      </trkpt>
      <trkpt lat="42.51883" lon="42.13191">
        <ele>139.236755</ele>
        <time>2021-08-15T03:37:49.786Z</time>
      </trkpt>
      <trkpt lat="42.51902" lon="42.13212">
        <ele>139.724535</ele>
        <time>2021-08-15T03:37:58.693Z</time>
      </trkpt>
      <trkpt lat="42.51972" lon="42.13288">
        <ele>141.731207</ele>
        <time>2021-08-15T03:38:28.645Z</time>
      </trkpt>
      <trkpt lat="42.51979" lon="42.13304">
        <ele>142.040744</ele>
        <time>2021-08-15T03:38:33.156Z</time>
      </trkpt>
      <trkpt lat="42.52009" lon="42.13438">
        <ele>144.488049</ele>
        <time>2021-08-15T03:39:07.941Z</time>
      </trkpt>
      <trkpt lat="42.52014" lon="42.13453">
        <ele>144.99324</ele>
        <time>2021-08-15T03:39:12.875Z</time>
      </trkpt>
      <trkpt lat="42.52042" lon="42.1341">
        <ele>146.928556</ele>
        <time>2021-08-15T03:39:31.947Z</time>
      </trkpt>
      <trkpt lat="42.52058" lon="42.13383">
        <ele>148.110243</ele>
        <time>2021-08-15T03:39:42.270Z</time>
      </trkpt>
      <trkpt lat="42.52054" lon="42.13371">
        <ele>148.55408</ele>
        <time>2021-08-15T03:39:48.336Z</time>
      </trkpt>
      <trkpt lat="42.52055" lon="42.13311">
        <ele>150.605632</ele>
        <time>2021-08-15T03:40:09.070Z</time>
      </trkpt>
      <trkpt lat="42.52059" lon="42.13244">
        <ele>152.89973</ele>
        <time>2021-08-15T03:40:34.202Z</time>
      </trkpt>
      <trkpt lat="42.52071" lon="42.13229">
        <ele>153.625109</ele>
        <time>2021-08-15T03:40:46.998Z</time>
      </trkpt>
      <trkpt lat="42.52107" lon="42.13121">
        <ele>157.531708</ele>
        <time>2021-08-15T03:41:41.193Z</time>
      </trkpt>
      <trkpt lat="42.52113" lon="42.13106">
        <ele>158.074458</ele>
        <time>2021-08-15T03:41:49.891Z</time>
      </trkpt>
      <trkpt lat="42.52094" lon="42.13086">
        <ele>159.164146</ele>
        <time>2021-08-15T03:41:59.358Z</time>
      </trkpt>
      <trkpt lat="42.52072" lon="42.13056">
        <ele>160.546598</ele>
        <time>2021-08-15T03:42:12.391Z</time>
      </trkpt>
      <trkpt lat="42.52132" lon="42.12921">
        <ele>162.245901</ele>
        <time>2021-08-15T03:42:48.891Z</time>
      </trkpt>
      <trkpt lat="42.52144" lon="42.12893">
        <ele>162.536926</ele>
        <time>2021-08-15T03:42:54.762Z</time>
      </trkpt>
      <trkpt lat="42.52167" lon="42.12911">
        <ele>162.866632</ele>
        <time>2021-08-15T03:43:01.195Z</time>
      </trkpt>
      <trkpt lat="42.52186" lon="42.12916">
        <ele>163.10722</ele>
        <time>2021-08-15T03:43:05.701Z</time>
      </trkpt>
      <trkpt lat="42.52195" lon="42.12924">
        <ele>163.064225</ele>
        <time>2021-08-15T03:43:08.254Z</time>
      </trkpt>
      <trkpt lat="42.52231" lon="42.12854">
        <ele>162.605305</ele>
        <time>2021-08-15T03:43:22.457Z</time>
      </trkpt>
      <trkpt lat="42.52272" lon="42.12784">
        <ele>162.128649</ele>
        <time>2021-08-15T03:43:36.182Z</time>
      </trkpt>
      <trkpt lat="42.52292" lon="42.1275">
        <ele>161.895328</ele>
        <time>2021-08-15T03:43:42.689Z</time>
      </trkpt>
      <trkpt lat="42.52296" lon="42.12743">
        <ele>161.848575</ele>
        <time>2021-08-15T03:43:44.047Z</time>
      </trkpt>
      <trkpt lat="42.52316" lon="42.12704">
        <ele>161.257422</ele>
        <time>2021-08-15T03:43:51.099Z</time>
      </trkpt>
      <trkpt lat="42.52355" lon="42.12635">
        <ele>160.112694</ele>
        <time>2021-08-15T03:44:03.625Z</time>
      </trkpt>
      <trkpt lat="42.52385" lon="42.1259">
        <ele>159.322273</ele>
        <time>2021-08-15T03:44:12.152Z</time>
      </trkpt>
      <trkpt lat="42.52387" lon="42.12586">
        <ele>159.252369</ele>
        <time>2021-08-15T03:44:12.909Z</time>
      </trkpt>
      <trkpt lat="42.5241" lon="42.12546">
        <ele>158.576489</ele>
        <time>2021-08-15T03:44:20.144Z</time>
      </trkpt>
      <trkpt lat="42.52439" lon="42.12489">
        <ele>157.506795</ele>
        <time>2021-08-15T03:44:29.986Z</time>
      </trkpt>
      <trkpt lat="42.52442" lon="42.12469">
        <ele>157.204794</ele>
        <time>2021-08-15T03:44:32.758Z</time>
      </trkpt>
      <trkpt lat="42.52381" lon="42.12381">
        <ele>155.347271</ele>
        <time>2021-08-15T03:44:49.796Z</time>
      </trkpt>
      <trkpt lat="42.52371" lon="42.12371">
        <ele>155.082365</ele>
        <time>2021-08-15T03:44:52.181Z</time>
      </trkpt>
      <trkpt lat="42.52337" lon="42.12358">
        <ele>154.359369</ele>
        <time>2021-08-15T03:44:58.800Z</time>
      </trkpt>
      <trkpt lat="42.52315" lon="42.12322">
        <ele>153.650213</ele>
        <time>2021-08-15T03:45:05.409Z</time>
      </trkpt>
      <trkpt lat="42.52291" lon="42.12279">
        <ele>152.837977</ele>
        <time>2021-08-15T03:45:12.997Z</time>
      </trkpt>
      <trkpt lat="42.52338" lon="42.12234">
        <ele>151.669319</ele>
        <time>2021-08-15T03:45:31.423Z</time>
      </trkpt>
      <trkpt lat="42.52346" lon="42.12221">
        <ele>151.408847</ele>
        <time>2021-08-15T03:45:35.482Z</time>
      </trkpt>
      <trkpt lat="42.52397" lon="42.12128">
        <ele>151.707994</ele>
        <time>2021-08-15T03:45:51.618Z</time>
      </trkpt>
      <trkpt lat="42.52397" lon="42.12109">
        <ele>151.808574</ele>
        <time>2021-08-15T03:45:57.556Z</time>
      </trkpt>
      <trkpt lat="42.52377" lon="42.12034">
        <ele>152.236417</ele>
        <time>2021-08-15T03:46:24.538Z</time>
      </trkpt>
      <trkpt lat="42.52374" lon="42.11987">
        <ele>152.597215</ele>
        <time>2021-08-15T03:46:42.473Z</time>
      </trkpt>
      <trkpt lat="42.52374" lon="42.11946">
        <ele>154.75241</ele>
        <time>2021-08-15T03:46:58.233Z</time>
      </trkpt>
      <trkpt lat="42.52385" lon="42.11946">
        <ele>155.560756</ele>
        <time>2021-08-15T03:47:05.620Z</time>
      </trkpt>
      <trkpt lat="42.52449" lon="42.11942">
        <ele>160.127629</ele>
        <time>2021-08-15T03:47:39.227Z</time>
      </trkpt>
      <trkpt lat="42.52573" lon="42.1192">
        <ele>169.420098</ele>
        <time>2021-08-15T03:49:11.701Z</time>
      </trkpt>
      <trkpt lat="42.52584" lon="42.11924">
        <ele>170.294658</ele>
        <time>2021-08-15T03:49:17.984Z</time>
      </trkpt>
      <trkpt lat="42.5259" lon="42.11942">
        <ele>171.43789</ele>
        <time>2021-08-15T03:49:30.968Z</time>
      </trkpt>
      <trkpt lat="42.52632" lon="42.11997">
        <ele>176.015515</ele>
        <time>2021-08-15T03:50:04.079Z</time>
      </trkpt>
      <trkpt lat="42.52647" lon="42.12013">
        <ele>177.494328</ele>
        <time>2021-08-15T03:50:18.050Z</time>
      </trkpt>
      <trkpt lat="42.52654" lon="42.12007">
        <ele>178.178589</ele>
        <time>2021-08-15T03:50:21.133Z</time>
      </trkpt>
      <trkpt lat="42.52708" lon="42.11995">
        <ele>178.870271</ele>
        <time>2021-08-15T03:50:46.554Z</time>
      </trkpt>
      <trkpt lat="42.5274" lon="42.1201">
        <ele>178.299805</ele>
        <time>2021-08-15T03:50:54.113Z</time>
      </trkpt>
      <trkpt lat="42.52753" lon="42.1201">
        <ele>178.076157</ele>
        <time>2021-08-15T03:50:56.633Z</time>
      </trkpt>
      <trkpt lat="42.52777" lon="42.12044">
        <ele>177.482799</ele>
        <time>2021-08-15T03:51:02.707Z</time>
      </trkpt>
      <trkpt lat="42.52784" lon="42.12061">
        <ele>177.234074</ele>
        <time>2021-08-15T03:51:05.129Z</time>
      </trkpt>
      <trkpt lat="42.52798" lon="42.12075">
        <ele>176.936175</ele>
        <time>2021-08-15T03:51:07.689Z</time>
      </trkpt>
      <trkpt lat="42.52832" lon="42.12095">
        <ele>176.025534</ele>
        <time>2021-08-15T03:51:13.170Z</time>
      </trkpt>
      <trkpt lat="42.52873" lon="42.12085">
        <ele>173.828177</ele>
        <time>2021-08-15T03:51:19.445Z</time>
      </trkpt>
      <trkpt lat="42.52926" lon="42.12005">
        <ele>169.716838</ele>
        <time>2021-08-15T03:51:31.562Z</time>
      </trkpt>
      <trkpt lat="42.52966" lon="42.1198">
        <ele>167.385092</ele>
        <time>2021-08-15T03:51:39.059Z</time>
      </trkpt>
      <trkpt lat="42.52976" lon="42.11977">
        <ele>167.115555</ele>
        <time>2021-08-15T03:51:40.553Z</time>
      </trkpt>
      <trkpt lat="42.52987" lon="42.11974">
        <ele>167.156439</ele>
        <time>2021-08-15T03:51:44.329Z</time>
      </trkpt>
      <trkpt lat="42.53107" lon="42.11962">
        <ele>167.589784</ele>
        <time>2021-08-15T03:52:13.327Z</time>
      </trkpt>
      <trkpt lat="42.53134" lon="42.11966">
        <ele>167.690066</ele>
        <time>2021-08-15T03:52:23.216Z</time>
      </trkpt>
      <trkpt lat="42.532" lon="42.11951">
        <ele>168.586796</ele>
        <time>2021-08-15T03:52:47.701Z</time>
      </trkpt>
      <trkpt lat="42.53332" lon="42.11935">
        <ele>170.740894</ele>
        <time>2021-08-15T03:53:26.458Z</time>
      </trkpt>
      <trkpt lat="42.53411" lon="42.11936">
        <ele>170.77885</ele>
        <time>2021-08-15T03:53:45.616Z</time>
      </trkpt>
      <trkpt lat="42.53463" lon="42.1193">
        <ele>170.803975</ele>
        <time>2021-08-15T03:53:57.710Z</time>
      </trkpt>
      <trkpt lat="42.53491" lon="42.11915">
        <ele>170.818047</ele>
        <time>2021-08-15T03:54:04.262Z</time>
      </trkpt>
      <trkpt lat="42.53585" lon="42.11897">
        <ele>168.786587</ele>
        <time>2021-08-15T03:54:22.027Z</time>
      </trkpt>
      <trkpt lat="42.53647" lon="42.11858">
        <ele>167.020732</ele>
        <time>2021-08-15T03:54:33.741Z</time>
      </trkpt>
      <trkpt lat="42.53653" lon="42.1185">
        <ele>166.805764</ele>
        <time>2021-08-15T03:54:35.241Z</time>
      </trkpt>
      <trkpt lat="42.53656" lon="42.11846">
        <ele>166.694781</ele>
        <time>2021-08-15T03:54:35.825Z</time>
      </trkpt>
      <trkpt lat="42.53678" lon="42.11807">
        <ele>165.845546</ele>
        <time>2021-08-15T03:54:41.854Z</time>
      </trkpt>
      <trkpt lat="42.53711" lon="42.11696">
        <ele>163.979598</ele>
        <time>2021-08-15T03:54:57.012Z</time>
      </trkpt>
      <trkpt lat="42.53772" lon="42.11637">
        <ele>162.402621</ele>
        <time>2021-08-15T03:55:11.014Z</time>
      </trkpt>
      <trkpt lat="42.53804" lon="42.11599">
        <ele>164.188624</ele>
        <time>2021-08-15T03:55:24.918Z</time>
      </trkpt>
      <trkpt lat="42.53859" lon="42.11517">
        <ele>167.7115</ele>
        <time>2021-08-15T03:56:00.744Z</time>
      </trkpt>
      <trkpt lat="42.5387" lon="42.1151">
        <ele>168.243831</ele>
        <time>2021-08-15T03:56:07.615Z</time>
      </trkpt>
      <trkpt lat="42.53895" lon="42.11509">
        <ele>169.317153</ele>
        <time>2021-08-15T03:56:21.126Z</time>
      </trkpt>
      <trkpt lat="42.53903" lon="42.11506">
        <ele>169.67217</ele>
        <time>2021-08-15T03:56:26.277Z</time>
      </trkpt>
      <trkpt lat="42.53917" lon="42.11503">
        <ele>170.460465</ele>
        <time>2021-08-15T03:56:35.864Z</time>
      </trkpt>
      <trkpt lat="42.53966" lon="42.11493">
        <ele>174.898871</ele>
        <time>2021-08-15T03:57:06.207Z</time>
      </trkpt>
      <trkpt lat="42.54016" lon="42.11468">
        <ele>179.792225</ele>
        <time>2021-08-15T03:57:44.828Z</time>
      </trkpt>
      <trkpt lat="42.54053" lon="42.1137">
        <ele>187.185007</ele>
        <time>2021-08-15T03:58:43.222Z</time>
      </trkpt>
      <trkpt lat="42.54077" lon="42.11329">
        <ele>190.746046</ele>
        <time>2021-08-15T03:59:08.844Z</time>
      </trkpt>
      <trkpt lat="42.54126" lon="42.11271">
        <ele>196.730738</ele>
        <time>2021-08-15T03:59:52.402Z</time>
      </trkpt>
      <trkpt lat="42.54204" lon="42.11218">
        <ele>205.160296</ele>
        <time>2021-08-15T04:00:52.568Z</time>
      </trkpt>
      <trkpt lat="42.54232" lon="42.11189">
        <ele>208.915248</ele>
        <time>2021-08-15T04:01:17.481Z</time>
      </trkpt>
      <trkpt lat="42.54247" lon="42.1116">
        <ele>211.689859</ele>
        <time>2021-08-15T04:01:36.366Z</time>
      </trkpt>
      <trkpt lat="42.54251" lon="42.11135">
        <ele>213.714781</ele>
        <time>2021-08-15T04:01:50.316Z</time>
      </trkpt>
      <trkpt lat="42.54249" lon="42.11111">
        <ele>215.682988</ele>
        <time>2021-08-15T04:02:04.104Z</time>
      </trkpt>
      <trkpt lat="42.54239" lon="42.11074">
        <ele>218.748332</ele>
        <time>2021-08-15T04:02:26.665Z</time>
      </trkpt>
      <trkpt lat="42.5424" lon="42.11057">
        <ele>220.148923</ele>
        <time>2021-08-15T04:02:37.167Z</time>
      </trkpt>
      <trkpt lat="42.54255" lon="42.11046">
        <ele>221.982305</ele>
        <time>2021-08-15T04:02:51.797Z</time>
      </trkpt>
      <trkpt lat="42.54277" lon="42.11046">
        <ele>224.914827</ele>
        <time>2021-08-15T04:03:11.173Z</time>
      </trkpt>
      <trkpt lat="42.54304" lon="42.11029">
        <ele>228.976788</ele>
        <time>2021-08-15T04:03:37.716Z</time>
      </trkpt>
      <trkpt lat="42.54338" lon="42.10994">
        <ele>234.762394</ele>
        <time>2021-08-15T04:04:16.740Z</time>
      </trkpt>
      <trkpt lat="42.5436" lon="42.10983">
        <ele>237.988141</ele>
        <time>2021-08-15T04:04:38.761Z</time>
      </trkpt>
      <trkpt lat="42.54372" lon="42.10967">
        <ele>240.191158</ele>
        <time>2021-08-15T04:04:53.754Z</time>
      </trkpt>
      <trkpt lat="42.54361" lon="42.10905">
        <ele>246.656187</ele>
        <time>2021-08-15T04:05:37.476Z</time>
      </trkpt>
      <trkpt lat="42.54368" lon="42.10812">
        <ele>255.348594</ele>
        <time>2021-08-15T04:06:42.469Z</time>
      </trkpt>
      <trkpt lat="42.54422" lon="42.10707">
        <ele>267.230649</ele>
        <time>2021-08-15T04:08:01.705Z</time>
      </trkpt>
      <trkpt lat="42.54446" lon="42.10673">
        <ele>270.918815</ele>
        <time>2021-08-15T04:08:26.844Z</time>
      </trkpt>
      <trkpt lat="42.54454" lon="42.10665">
        <ele>271.753782</ele>
        <time>2021-08-15T04:08:36.350Z</time>
      </trkpt>
      <trkpt lat="42.54477" lon="42.10663">
        <ele>273.6673</ele>
        <time>2021-08-15T04:08:49.648Z</time>
      </trkpt>
      <trkpt lat="42.5453" lon="42.10658">
        <ele>278.101488</ele>
        <time>2021-08-15T04:09:25.128Z</time>
      </trkpt>
      <trkpt lat="42.54581" lon="42.10638">
        <ele>282.533941</ele>
        <time>2021-08-15T04:09:57.823Z</time>
      </trkpt>
      <trkpt lat="42.54595" lon="42.10618">
        <ele>284.207393</ele>
        <time>2021-08-15T04:10:09.596Z</time>
      </trkpt>
      <trkpt lat="42.54617" lon="42.10529">
        <ele>287.257002</ele>
        <time>2021-08-15T04:10:40.526Z</time>
      </trkpt>
      <trkpt lat="42.54618" lon="42.10505">
        <ele>287.992883</ele>
        <time>2021-08-15T04:10:49.428Z</time>
      </trkpt>
      <trkpt lat="42.54618" lon="42.1048">
        <ele>288.718853</ele>
        <time>2021-08-15T04:10:55.845Z</time>
      </trkpt>
      <trkpt lat="42.54623" lon="42.10425">
        <ele>290.417048</ele>
        <time>2021-08-15T04:11:13.011Z</time>
      </trkpt>
      <trkpt lat="42.54634" lon="42.10402">
        <ele>291.237703</ele>
        <time>2021-08-15T04:11:20.511Z</time>
      </trkpt>
      <trkpt lat="42.54649" lon="42.10398">
        <ele>291.867298</ele>
        <time>2021-08-15T04:11:25.939Z</time>
      </trkpt>
      <trkpt lat="42.54704" lon="42.10392">
        <ele>292.40108</ele>
        <time>2021-08-15T04:11:44.107Z</time>
      </trkpt>
      <trkpt lat="42.54743" lon="42.10389">
        <ele>292.720959</ele>
        <time>2021-08-15T04:11:53.378Z</time>
      </trkpt>
      <trkpt lat="42.54778" lon="42.10386">
        <ele>293.004474</ele>
        <time>2021-08-15T04:12:01.429Z</time>
      </trkpt>
      <trkpt lat="42.54874" lon="42.10386">
        <ele>293.127781</ele>
        <time>2021-08-15T04:12:22.593Z</time>
      </trkpt>
      <trkpt lat="42.54991" lon="42.1037">
        <ele>292.261976</ele>
        <time>2021-08-15T04:12:46.130Z</time>
      </trkpt>
      <trkpt lat="42.5502" lon="42.10364">
        <ele>291.944457</ele>
        <time>2021-08-15T04:12:51.865Z</time>
      </trkpt>
      <trkpt lat="42.5503" lon="42.10362">
        <ele>291.749035</ele>
        <time>2021-08-15T04:12:53.806Z</time>
      </trkpt>
      <trkpt lat="42.55048" lon="42.10359">
        <ele>291.392639</ele>
        <time>2021-08-15T04:12:57.510Z</time>
      </trkpt>
      <trkpt lat="42.55073" lon="42.10353">
        <ele>290.920824</ele>
        <time>2021-08-15T04:13:02.205Z</time>
      </trkpt>
      <trkpt lat="42.55188" lon="42.10351">
        <ele>288.710922</ele>
        <time>2021-08-15T04:13:23.077Z</time>
      </trkpt>
      <trkpt lat="42.55219" lon="42.10362">
        <ele>287.979908</ele>
        <time>2021-08-15T04:13:28.644Z</time>
      </trkpt>
      <trkpt lat="42.55247" lon="42.10385">
        <ele>287.221187</ele>
        <time>2021-08-15T04:13:34.516Z</time>
      </trkpt>
      <trkpt lat="42.55274" lon="42.10384">
        <ele>286.609949</ele>
        <time>2021-08-15T04:13:39.412Z</time>
      </trkpt>
      <trkpt lat="42.55278" lon="42.10383">
        <ele>286.521545</ele>
        <time>2021-08-15T04:13:40.032Z</time>
      </trkpt>
      <trkpt lat="42.55277" lon="42.10368">
        <ele>286.263378</ele>
        <time>2021-08-15T04:13:41.897Z</time>
      </trkpt>
      <trkpt lat="42.55274" lon="42.10306">
        <ele>285.213312</ele>
        <time>2021-08-15T04:13:50.199Z</time>
      </trkpt>
      <trkpt lat="42.55279" lon="42.10269">
        <ele>284.569771</ele>
        <time>2021-08-15T04:13:55.209Z</time>
      </trkpt>
      <trkpt lat="42.55293" lon="42.10232">
        <ele>284.406934</ele>
        <time>2021-08-15T04:14:01.057Z</time>
      </trkpt>
      <trkpt lat="42.55312" lon="42.10228">
        <ele>284.325582</ele>
        <time>2021-08-15T04:14:04.838Z</time>
      </trkpt>
      <trkpt lat="42.55384" lon="42.10242">
        <ele>284.009763</ele>
        <time>2021-08-15T04:14:20.026Z</time>
      </trkpt>
      <trkpt lat="42.55427" lon="42.10233">
        <ele>283.821918</ele>
        <time>2021-08-15T04:14:30.924Z</time>
      </trkpt>
      <trkpt lat="42.55468" lon="42.10217">
        <ele>283.825218</ele>
        <time>2021-08-15T04:14:42.671Z</time>
      </trkpt>
      <trkpt lat="42.55492" lon="42.10197">
        <ele>283.894776</ele>
        <time>2021-08-15T04:14:50.207Z</time>
      </trkpt>
      <trkpt lat="42.55541" lon="42.10103">
        <ele>284.110256</ele>
        <time>2021-08-15T04:15:10.699Z</time>
      </trkpt>
      <trkpt lat="42.55551" lon="42.10085">
        <ele>284.152936</ele>
        <time>2021-08-15T04:15:14.855Z</time>
      </trkpt>
      <trkpt lat="42.55558" lon="42.10062">
        <ele>284.198726</ele>
        <time>2021-08-15T04:15:18.448Z</time>
      </trkpt>
      <trkpt lat="42.5557" lon="42.10022">
        <ele>283.788806</ele>
        <time>2021-08-15T04:15:24.981Z</time>
      </trkpt>
      <trkpt lat="42.55576" lon="42.0997">
        <ele>283.198347</ele>
        <time>2021-08-15T04:15:32.357Z</time>
      </trkpt>
      <trkpt lat="42.55633" lon="42.09788">
        <ele>281.35286</ele>
        <time>2021-08-15T04:15:59.108Z</time>
      </trkpt>
      <trkpt lat="42.55639" lon="42.09764">
        <ele>281.29882</ele>
        <time>2021-08-15T04:16:02.514Z</time>
      </trkpt>
      <trkpt lat="42.55641" lon="42.09754">
        <ele>281.274714</ele>
        <time>2021-08-15T04:16:04.532Z</time>
      </trkpt>
      <trkpt lat="42.55647" lon="42.09685">
        <ele>281.12734</ele>
        <time>2021-08-15T04:16:15.381Z</time>
      </trkpt>
      <trkpt lat="42.55653" lon="42.09667">
        <ele>281.083856</ele>
        <time>2021-08-15T04:16:18.705Z</time>
      </trkpt>
      <trkpt lat="42.55708" lon="42.09579">
        <ele>281.221663</ele>
        <time>2021-08-15T04:16:42.084Z</time>
      </trkpt>
      <trkpt lat="42.55721" lon="42.09533">
        <ele>281.597033</ele>
        <time>2021-08-15T04:16:53.702Z</time>
      </trkpt>
      <trkpt lat="42.55724" lon="42.09513">
        <ele>281.749687</ele>
        <time>2021-08-15T04:16:58.574Z</time>
      </trkpt>
      <trkpt lat="42.55725" lon="42.09508">
        <ele>281.790942</ele>
        <time>2021-08-15T04:16:59.703Z</time>
      </trkpt>
      <trkpt lat="42.55724" lon="42.09487">
        <ele>281.9512</ele>
        <time>2021-08-15T04:17:03.870Z</time>
      </trkpt>
      <trkpt lat="42.55723" lon="42.09469">
        <ele>282.090125</ele>
        <time>2021-08-15T04:17:07.902Z</time>
      </trkpt>
      <trkpt lat="42.55723" lon="42.09464">
        <ele>282.126742</ele>
        <time>2021-08-15T04:17:09.124Z</time>
      </trkpt>
      <trkpt lat="42.55727" lon="42.0939">
        <ele>282.69415</ele>
        <time>2021-08-15T04:17:23.403Z</time>
      </trkpt>
      <trkpt lat="42.55737" lon="42.09329">
        <ele>282.217447</ele>
        <time>2021-08-15T04:17:34.125Z</time>
      </trkpt>
      <trkpt lat="42.55738" lon="42.09324">
        <ele>282.159525</ele>
        <time>2021-08-15T04:17:34.829Z</time>
      </trkpt>
      <trkpt lat="42.55762" lon="42.09253">
        <ele>281.270432</ele>
        <time>2021-08-15T04:17:45.883Z</time>
      </trkpt>
      <trkpt lat="42.55788" lon="42.09208">
        <ele>280.622554</ele>
        <time>2021-08-15T04:17:53.513Z</time>
      </trkpt>
      <trkpt lat="42.55809" lon="42.09169">
        <ele>280.075683</ele>
        <time>2021-08-15T04:17:59.746Z</time>
      </trkpt>
      <trkpt lat="42.55837" lon="42.09112">
        <ele>278.626537</ele>
        <time>2021-08-15T04:18:08.380Z</time>
      </trkpt>
      <trkpt lat="42.55861" lon="42.09069">
        <ele>277.448971</ele>
        <time>2021-08-15T04:18:15.126Z</time>
      </trkpt>
      <trkpt lat="42.55952" lon="42.08979">
        <ele>274.566103</ele>
        <time>2021-08-15T04:18:34.494Z</time>
      </trkpt>
      <trkpt lat="42.55996" lon="42.08914">
        <ele>274.154315</ele>
        <time>2021-08-15T04:18:46.850Z</time>
      </trkpt>
      <trkpt lat="42.56023" lon="42.08899">
        <ele>273.962907</ele>
        <time>2021-08-15T04:18:53.147Z</time>
      </trkpt>
      <trkpt lat="42.56091" lon="42.08919">
        <ele>273.597004</ele>
        <time>2021-08-15T04:19:10.645Z</time>
      </trkpt>
      <trkpt lat="42.56246" lon="42.08805">
        <ele>276.920056</ele>
        <time>2021-08-15T04:20:09.237Z</time>
      </trkpt>
      <trkpt lat="42.56378" lon="42.08739">
        <ele>278.503525</ele>
        <time>2021-08-15T04:20:50.750Z</time>
      </trkpt>
      <trkpt lat="42.56388" lon="42.08736">
        <ele>278.613357</ele>
        <time>2021-08-15T04:20:53.150Z</time>
      </trkpt>
      <trkpt lat="42.56413" lon="42.08732">
        <ele>278.900222</ele>
        <time>2021-08-15T04:20:58.934Z</time>
      </trkpt>
      <trkpt lat="42.56509" lon="42.08724">
        <ele>278.302186</ele>
        <time>2021-08-15T04:21:19.018Z</time>
      </trkpt>
      <trkpt lat="42.56544" lon="42.08728">
        <ele>278.060849</ele>
        <time>2021-08-15T04:21:25.672Z</time>
      </trkpt>
      <trkpt lat="42.56556" lon="42.08729">
        <ele>277.981823</ele>
        <time>2021-08-15T04:21:28.030Z</time>
      </trkpt>
      <trkpt lat="42.56558" lon="42.08729">
        <ele>277.965853</ele>
        <time>2021-08-15T04:21:28.371Z</time>
      </trkpt>
      <trkpt lat="42.56605" lon="42.08738">
        <ele>277.668392</ele>
        <time>2021-08-15T04:21:37.924Z</time>
      </trkpt>
      <trkpt lat="42.56659" lon="42.0876">
        <ele>277.479437</ele>
        <time>2021-08-15T04:21:49.545Z</time>
      </trkpt>
      <trkpt lat="42.56681" lon="42.08769">
        <ele>277.400226</ele>
        <time>2021-08-15T04:21:54.189Z</time>
      </trkpt>
      <trkpt lat="42.5671" lon="42.0878">
        <ele>277.299961</ele>
        <time>2021-08-15T04:22:00.422Z</time>
      </trkpt>
      <trkpt lat="42.56738" lon="42.08795">
        <ele>277.196145</ele>
        <time>2021-08-15T04:22:07.748Z</time>
      </trkpt>
      <trkpt lat="42.56768" lon="42.08801">
        <ele>277.093724</ele>
        <time>2021-08-15T04:22:15.124Z</time>
      </trkpt>
      <trkpt lat="42.56809" lon="42.08806">
        <ele>276.911757</ele>
        <time>2021-08-15T04:22:25.133Z</time>
      </trkpt>
      <trkpt lat="42.56838" lon="42.08802">
        <ele>276.785842</ele>
        <time>2021-08-15T04:22:32.266Z</time>
      </trkpt>
      <trkpt lat="42.5687" lon="42.08782">
        <ele>276.62711</ele>
        <time>2021-08-15T04:22:40.975Z</time>
      </trkpt>
      <trkpt lat="42.56874" lon="42.08779">
        <ele>276.607031</ele>
        <time>2021-08-15T04:22:41.934Z</time>
      </trkpt>
      <trkpt lat="42.56955" lon="42.08728">
        <ele>275.836939</ele>
        <time>2021-08-15T04:22:58.895Z</time>
      </trkpt>
      <trkpt lat="42.57004" lon="42.08691">
        <ele>274.412639</ele>
        <time>2021-08-15T04:23:08.853Z</time>
      </trkpt>
      <trkpt lat="42.57035" lon="42.08668">
        <ele>273.521722</ele>
        <time>2021-08-15T04:23:14.816Z</time>
      </trkpt>
      <trkpt lat="42.57179" lon="42.08568">
        <ele>270.895549</ele>
        <time>2021-08-15T04:23:43.278Z</time>
      </trkpt>
      <trkpt lat="42.57235" lon="42.08531">
        <ele>270.322529</ele>
        <time>2021-08-15T04:23:58.645Z</time>
      </trkpt>
      <trkpt lat="42.57268" lon="42.0851">
        <ele>270.258697</ele>
        <time>2021-08-15T04:24:08.803Z</time>
      </trkpt>
      <trkpt lat="42.57329" lon="42.08472">
        <ele>271.445142</ele>
        <time>2021-08-15T04:24:29.666Z</time>
      </trkpt>
      <trkpt lat="42.57353" lon="42.08467">
        <ele>271.880969</ele>
        <time>2021-08-15T04:24:38.484Z</time>
      </trkpt>
      <trkpt lat="42.57354" lon="42.08467">
        <ele>271.895291</ele>
        <time>2021-08-15T04:24:38.659Z</time>
      </trkpt>
      <trkpt lat="42.57424" lon="42.08464">
        <ele>273.117651</ele>
        <time>2021-08-15T04:25:01.787Z</time>
      </trkpt>
      <trkpt lat="42.57495" lon="42.08467">
        <ele>273.698873</ele>
        <time>2021-08-15T04:25:21.916Z</time>
      </trkpt>
      <trkpt lat="42.57561" lon="42.08466">
        <ele>274.16785</ele>
        <time>2021-08-15T04:25:37.752Z</time>
      </trkpt>
      <trkpt lat="42.57612" lon="42.0849">
        <ele>274.514379</ele>
        <time>2021-08-15T04:25:50.572Z</time>
      </trkpt>
      <trkpt lat="42.57704" lon="42.08532">
        <ele>274.333936</ele>
        <time>2021-08-15T04:26:11.853Z</time>
      </trkpt>
      <trkpt lat="42.57737" lon="42.08545">
        <ele>274.270715</ele>
        <time>2021-08-15T04:26:19.138Z</time>
      </trkpt>
      <trkpt lat="42.57786" lon="42.08565">
        <ele>274.15431</ele>
        <time>2021-08-15T04:26:29.922Z</time>
      </trkpt>
      <trkpt lat="42.57837" lon="42.08586">
        <ele>273.89637</ele>
        <time>2021-08-15T04:26:40.930Z</time>
      </trkpt>
      <trkpt lat="42.57978" lon="42.08588">
        <ele>273.180734</ele>
        <time>2021-08-15T04:27:10.390Z</time>
      </trkpt>
      <trkpt lat="42.57989" lon="42.0859">
        <ele>273.109723</ele>
        <time>2021-08-15T04:27:12.923Z</time>
      </trkpt>
      <trkpt lat="42.58007" lon="42.08594">
        <ele>272.999343</ele>
        <time>2021-08-15T04:27:16.724Z</time>
      </trkpt>
      <trkpt lat="42.58091" lon="42.08665">
        <ele>272.400342</ele>
        <time>2021-08-15T04:27:37.104Z</time>
      </trkpt>
      <trkpt lat="42.58172" lon="42.08724">
        <ele>271.655056</ele>
        <time>2021-08-15T04:27:55.861Z</time>
      </trkpt>
      <trkpt lat="42.58199" lon="42.08741">
        <ele>271.391254</ele>
        <time>2021-08-15T04:28:01.674Z</time>
      </trkpt>
      <trkpt lat="42.58215" lon="42.08752">
        <ele>271.230393</ele>
        <time>2021-08-15T04:28:05.179Z</time>
      </trkpt>
      <trkpt lat="42.58245" lon="42.0877">
        <ele>270.932851</ele>
        <time>2021-08-15T04:28:11.729Z</time>
      </trkpt>
      <trkpt lat="42.58275" lon="42.08778">
        <ele>270.651061</ele>
        <time>2021-08-15T04:28:17.954Z</time>
      </trkpt>
      <trkpt lat="42.58298" lon="42.08777">
        <ele>270.487438</ele>
        <time>2021-08-15T04:28:22.593Z</time>
      </trkpt>
      <trkpt lat="42.58322" lon="42.08766">
        <ele>270.329898</ele>
        <time>2021-08-15T04:28:27.644Z</time>
      </trkpt>
      <trkpt lat="42.58341" lon="42.08758">
        <ele>270.20549</ele>
        <time>2021-08-15T04:28:31.655Z</time>
      </trkpt>
      <trkpt lat="42.58349" lon="42.08754">
        <ele>270.15135</ele>
        <time>2021-08-15T04:28:33.407Z</time>
      </trkpt>
      <trkpt lat="42.58377" lon="42.0875">
        <ele>269.97929</ele>
        <time>2021-08-15T04:28:39.142Z</time>
      </trkpt>
      <trkpt lat="42.58548" lon="42.08763">
        <ele>268.875506</ele>
        <time>2021-08-15T04:29:15.311Z</time>
      </trkpt>
      <trkpt lat="42.58598" lon="42.08752">
        <ele>268.543753</ele>
        <time>2021-08-15T04:29:25.634Z</time>
      </trkpt>
      <trkpt lat="42.58629" lon="42.08737">
        <ele>268.323726</ele>
        <time>2021-08-15T04:29:32.354Z</time>
      </trkpt>
      <trkpt lat="42.58686" lon="42.08702">
        <ele>267.128939</ele>
        <time>2021-08-15T04:29:44.505Z</time>
      </trkpt>
      <trkpt lat="42.58734" lon="42.08676">
        <ele>266.081476</ele>
        <time>2021-08-15T04:29:53.561Z</time>
      </trkpt>
      <trkpt lat="42.58793" lon="42.08653">
        <ele>264.822616</ele>
        <time>2021-08-15T04:30:04.439Z</time>
      </trkpt>
      <trkpt lat="42.58798" lon="42.08656">
        <ele>264.696361</ele>
        <time>2021-08-15T04:30:05.438Z</time>
      </trkpt>
      <trkpt lat="42.5881" lon="42.0866">
        <ele>264.498596</ele>
        <time>2021-08-15T04:30:07.499Z</time>
      </trkpt>
      <trkpt lat="42.58827" lon="42.08675">
        <ele>264.226158</ele>
        <time>2021-08-15T04:30:11.204Z</time>
      </trkpt>
      <trkpt lat="42.5884" lon="42.08686">
        <ele>264.021318</ele>
        <time>2021-08-15T04:30:13.828Z</time>
      </trkpt>
      <trkpt lat="42.58869" lon="42.0871">
        <ele>263.559289</ele>
        <time>2021-08-15T04:30:20.106Z</time>
      </trkpt>
      <trkpt lat="42.58882" lon="42.08721">
        <ele>263.349969</ele>
        <time>2021-08-15T04:30:23.079Z</time>
      </trkpt>
      <trkpt lat="42.58895" lon="42.08732">
        <ele>263.1468</ele>
        <time>2021-08-15T04:30:25.920Z</time>
      </trkpt>
      <trkpt lat="42.58914" lon="42.08745">
        <ele>262.854128</ele>
        <time>2021-08-15T04:30:30.160Z</time>
      </trkpt>
      <trkpt lat="42.58964" lon="42.08751">
        <ele>262.172351</ele>
        <time>2021-08-15T04:30:40.402Z</time>
      </trkpt>
      <trkpt lat="42.59159" lon="42.08741">
        <ele>264.656265</ele>
        <time>2021-08-15T04:31:38.429Z</time>
      </trkpt>
      <trkpt lat="42.59163" lon="42.0874">
        <ele>264.694058</ele>
        <time>2021-08-15T04:31:40.198Z</time>
      </trkpt>
      <trkpt lat="42.5922" lon="42.0874">
        <ele>265.246365</ele>
        <time>2021-08-15T04:31:58.858Z</time>
      </trkpt>
      <trkpt lat="42.59279" lon="42.08741">
        <ele>265.8123</ele>
        <time>2021-08-15T04:32:15.656Z</time>
      </trkpt>
      <trkpt lat="42.59335" lon="42.08741">
        <ele>265.859436</ele>
        <time>2021-08-15T04:32:28.659Z</time>
      </trkpt>
      <trkpt lat="42.59358" lon="42.08742">
        <ele>264.918276</ele>
        <time>2021-08-15T04:32:33.000Z</time>
      </trkpt>
      <trkpt lat="42.59418" lon="42.08646">
        <ele>261.051508</ele>
        <time>2021-08-15T04:32:49.458Z</time>
      </trkpt>
      <trkpt lat="42.59439" lon="42.08631">
        <ele>260.064271</ele>
        <time>2021-08-15T04:32:53.343Z</time>
      </trkpt>
      <trkpt lat="42.59575" lon="42.08648">
        <ele>247.926238</ele>
        <time>2021-08-15T04:33:13.966Z</time>
      </trkpt>
      <trkpt lat="42.59624" lon="42.08627">
        <ele>242.633213</ele>
        <time>2021-08-15T04:33:21.420Z</time>
      </trkpt>
      <trkpt lat="42.59653" lon="42.08603">
        <ele>239.098238</ele>
        <time>2021-08-15T04:33:26.201Z</time>
      </trkpt>
      <trkpt lat="42.5968" lon="42.08537">
        <ele>232.686392</ele>
        <time>2021-08-15T04:33:34.214Z</time>
      </trkpt>
      <trkpt lat="42.597" lon="42.08519">
        <ele>229.935103</ele>
        <time>2021-08-15T04:33:37.648Z</time>
      </trkpt>
      <trkpt lat="42.59729" lon="42.08503">
        <ele>226.29337</ele>
        <time>2021-08-15T04:33:42.228Z</time>
      </trkpt>
      <trkpt lat="42.59731" lon="42.08478">
        <ele>224.151966</ele>
        <time>2021-08-15T04:33:44.955Z</time>
      </trkpt>
      <trkpt lat="42.59752" lon="42.08425">
        <ele>219.447492</ele>
        <time>2021-08-15T04:33:51.574Z</time>
      </trkpt>
      <trkpt lat="42.5976" lon="42.08418">
        <ele>219.143049</ele>
        <time>2021-08-15T04:33:52.914Z</time>
      </trkpt>
      <trkpt lat="42.59801" lon="42.08412">
        <ele>217.695725</ele>
        <time>2021-08-15T04:33:59.463Z</time>
      </trkpt>
      <trkpt lat="42.59807" lon="42.08407">
        <ele>217.448445</ele>
        <time>2021-08-15T04:34:00.640Z</time>
      </trkpt>
      <trkpt lat="42.59809" lon="42.0839">
        <ele>217.016949</ele>
        <time>2021-08-15T04:34:02.709Z</time>
      </trkpt>
      <trkpt lat="42.59839" lon="42.08407">
        <ele>215.921058</ele>
        <time>2021-08-15T04:34:08.261Z</time>
      </trkpt>
      <trkpt lat="42.59873" lon="42.08413">
        <ele>214.719943</ele>
        <time>2021-08-15T04:34:15.201Z</time>
      </trkpt>
      <trkpt lat="42.59894" lon="42.08423">
        <ele>213.958262</ele>
        <time>2021-08-15T04:34:20.847Z</time>
      </trkpt>
      <trkpt lat="42.59918" lon="42.08446">
        <ele>214.50657</ele>
        <time>2021-08-15T04:34:31.273Z</time>
      </trkpt>
      <trkpt lat="42.5999" lon="42.08441">
        <ele>220.249253</ele>
        <time>2021-08-15T04:35:09.489Z</time>
      </trkpt>
      <trkpt lat="42.60012" lon="42.08422">
        <ele>222.269669</ele>
        <time>2021-08-15T04:35:27.198Z</time>
      </trkpt>
      <trkpt lat="42.60019" lon="42.08403">
        <ele>223.529205</ele>
        <time>2021-08-15T04:35:38.761Z</time>
      </trkpt>
      <trkpt lat="42.59988" lon="42.08353">
        <ele>227.344735</ele>
        <time>2021-08-15T04:36:17.836Z</time>
      </trkpt>
      <trkpt lat="42.59985" lon="42.08329">
        <ele>229.512789</ele>
        <time>2021-08-15T04:36:33.553Z</time>
      </trkpt>
      <trkpt lat="42.59994" lon="42.0832">
        <ele>230.947184</ele>
        <time>2021-08-15T04:36:43.155Z</time>
      </trkpt>
      <trkpt lat="42.60027" lon="42.08314">
        <ele>235.39962</ele>
        <time>2021-08-15T04:37:13.267Z</time>
      </trkpt>
      <trkpt lat="42.60043" lon="42.08303">
        <ele>237.906441</ele>
        <time>2021-08-15T04:37:34.847Z</time>
      </trkpt>
      <trkpt lat="42.60098" lon="42.08227">
        <ele>248.516236</ele>
        <time>2021-08-15T04:38:49.726Z</time>
      </trkpt>
      <trkpt lat="42.60109" lon="42.08196">
        <ele>251.926949</ele>
        <time>2021-08-15T04:39:12.962Z</time>
      </trkpt>
      <trkpt lat="42.60107" lon="42.08159">
        <ele>253.610693</ele>
        <time>2021-08-15T04:39:31.192Z</time>
      </trkpt>
      <trkpt lat="42.60104" lon="42.08152">
        <ele>253.975403</ele>
        <time>2021-08-15T04:39:39.615Z</time>
      </trkpt>
      <trkpt lat="42.60122" lon="42.08132">
        <ele>255.298408</ele>
        <time>2021-08-15T04:39:52.457Z</time>
      </trkpt>
      <trkpt lat="42.60137" lon="42.08121">
        <ele>256.305339</ele>
        <time>2021-08-15T04:40:05.708Z</time>
      </trkpt>
      <trkpt lat="42.60225" lon="42.08105">
        <ele>261.494822</ele>
        <time>2021-08-15T04:40:43.645Z</time>
      </trkpt>
      <trkpt lat="42.6023" lon="42.08104">
        <ele>261.782669</ele>
        <time>2021-08-15T04:40:44.543Z</time>
      </trkpt>
      <trkpt lat="42.60235" lon="42.08103">
        <ele>262.046313</ele>
        <time>2021-08-15T04:40:46.247Z</time>
      </trkpt>
      <trkpt lat="42.60248" lon="42.08077">
        <ele>261.620311</ele>
        <time>2021-08-15T04:40:51.885Z</time>
      </trkpt>
      <trkpt lat="42.60273" lon="42.08049">
        <ele>259.644467</ele>
        <time>2021-08-15T04:40:57.177Z</time>
      </trkpt>
      <trkpt lat="42.60288" lon="42.0804">
        <ele>258.627886</ele>
        <time>2021-08-15T04:40:59.807Z</time>
      </trkpt>
      <trkpt lat="42.6038" lon="42.08042">
        <ele>252.985363</ele>
        <time>2021-08-15T04:41:13.657Z</time>
      </trkpt>
      <trkpt lat="42.60414" lon="42.08052">
        <ele>250.147797</ele>
        <time>2021-08-15T04:41:18.337Z</time>
      </trkpt>
      <trkpt lat="42.60436" lon="42.08034">
        <ele>246.65745</ele>
        <time>2021-08-15T04:41:21.863Z</time>
      </trkpt>
      <trkpt lat="42.6047" lon="42.07988">
        <ele>240.270375</ele>
        <time>2021-08-15T04:41:28.443Z</time>
      </trkpt>
      <trkpt lat="42.60517" lon="42.07987">
        <ele>233.954865</ele>
        <time>2021-08-15T04:41:34.889Z</time>
      </trkpt>
      <trkpt lat="42.60518" lon="42.07985">
        <ele>233.668022</ele>
        <time>2021-08-15T04:41:35.189Z</time>
      </trkpt>
      <trkpt lat="42.60515" lon="42.07977">
        <ele>232.86048</ele>
        <time>2021-08-15T04:41:35.987Z</time>
      </trkpt>
      <trkpt lat="42.60469" lon="42.07959">
        <ele>226.230162</ele>
        <time>2021-08-15T04:41:42.542Z</time>
      </trkpt>
      <trkpt lat="42.60466" lon="42.07953">
        <ele>225.29651</ele>
        <time>2021-08-15T04:41:43.375Z</time>
      </trkpt>
      <trkpt lat="42.60471" lon="42.07944">
        <ele>223.99519</ele>
        <time>2021-08-15T04:41:44.532Z</time>
      </trkpt>
      <trkpt lat="42.60496" lon="42.07941">
        <ele>220.087194</ele>
        <time>2021-08-15T04:41:47.831Z</time>
      </trkpt>
      <trkpt lat="42.60626" lon="42.07952">
        <ele>199.453565</ele>
        <time>2021-08-15T04:42:05.252Z</time>
      </trkpt>
      <trkpt lat="42.60642" lon="42.07945">
        <ele>197.566066</ele>
        <time>2021-08-15T04:42:07.487Z</time>
      </trkpt>
      <trkpt lat="42.60673" lon="42.07905">
        <ele>192.935204</ele>
        <time>2021-08-15T04:42:13.260Z</time>
      </trkpt>
      <trkpt lat="42.60683" lon="42.07894">
        <ele>191.523071</ele>
        <time>2021-08-15T04:42:15.047Z</time>
      </trkpt>
      <trkpt lat="42.60691" lon="42.07887">
        <ele>190.556045</ele>
        <time>2021-08-15T04:42:16.275Z</time>
      </trkpt>
      <trkpt lat="42.60705" lon="42.07869">
        <ele>188.407206</ele>
        <time>2021-08-15T04:42:19.011Z</time>
      </trkpt>
      <trkpt lat="42.60713" lon="42.07856">
        <ele>187.083809</ele>
        <time>2021-08-15T04:42:20.723Z</time>
      </trkpt>
      <trkpt lat="42.6072" lon="42.07842">
        <ele>185.710339</ele>
        <time>2021-08-15T04:42:22.520Z</time>
      </trkpt>
      <trkpt lat="42.60733" lon="42.07816">
        <ele>183.182285</ele>
        <time>2021-08-15T04:42:25.812Z</time>
      </trkpt>
      <trkpt lat="42.60743" lon="42.07793">
        <ele>181.06123</ele>
        <time>2021-08-15T04:42:28.634Z</time>
      </trkpt>
      <trkpt lat="42.60858" lon="42.07583">
        <ele>175.024231</ele>
        <time>2021-08-15T04:43:03.384Z</time>
      </trkpt>
      <trkpt lat="42.60887" lon="42.07529">
        <ele>175.30918</ele>
        <time>2021-08-15T04:43:16.344Z</time>
      </trkpt>
      <trkpt lat="42.60912" lon="42.07527">
        <ele>175.467581</ele>
        <time>2021-08-15T04:43:23.224Z</time>
      </trkpt>
      <trkpt lat="42.60927" lon="42.07525">
        <ele>175.566438</ele>
        <time>2021-08-15T04:43:27.542Z</time>
      </trkpt>
      <trkpt lat="42.60988" lon="42.07518">
        <ele>175.951955</ele>
        <time>2021-08-15T04:43:44.497Z</time>
      </trkpt>
      <trkpt lat="42.61057" lon="42.07511">
        <ele>176.605559</ele>
        <time>2021-08-15T04:44:03.742Z</time>
      </trkpt>
      <trkpt lat="42.61073" lon="42.07615">
        <ele>177.54471</ele>
        <time>2021-08-15T04:44:25.842Z</time>
      </trkpt>
      <trkpt lat="42.61142" lon="42.07626">
        <ele>178.430019</ele>
        <time>2021-08-15T04:44:45.639Z</time>
      </trkpt>
      <trkpt lat="42.61195" lon="42.07643">
        <ele>179.634028</ele>
        <time>2021-08-15T04:45:03.951Z</time>
      </trkpt>
      <trkpt lat="42.61224" lon="42.07642">
        <ele>180.280583</ele>
        <time>2021-08-15T04:45:13.730Z</time>
      </trkpt>
      <trkpt lat="42.6123" lon="42.07699">
        <ele>181.197889</ele>
        <time>2021-08-15T04:45:28.870Z</time>
      </trkpt>
      <trkpt lat="42.61251" lon="42.07725">
        <ele>181.83398</ele>
        <time>2021-08-15T04:45:38.855Z</time>
      </trkpt>
      <trkpt lat="42.61256" lon="42.07731">
        <ele>181.981235</ele>
        <time>2021-08-15T04:45:41.698Z</time>
      </trkpt>
      <trkpt lat="42.61265" lon="42.07751">
        <ele>182.393558</ele>
        <time>2021-08-15T04:45:47.868Z</time>
      </trkpt>
      <trkpt lat="42.6127" lon="42.07759">
        <ele>182.626064</ele>
        <time>2021-08-15T04:45:50.705Z</time>
      </trkpt>
      <trkpt lat="42.61307" lon="42.07754">
        <ele>183.71133</ele>
        <time>2021-08-15T04:46:04.492Z</time>
      </trkpt>
      <trkpt lat="42.6145" lon="42.07779">
        <ele>187.935283</ele>
        <time>2021-08-15T04:46:59.899Z</time>
      </trkpt>
      <trkpt lat="42.61542" lon="42.07787">
        <ele>190.636703</ele>
        <time>2021-08-15T04:47:33.925Z</time>
      </trkpt>
      <trkpt lat="42.61544" lon="42.07787">
        <ele>190.698745</ele>
        <time>2021-08-15T04:47:35.615Z</time>
      </trkpt>
      <trkpt lat="42.61595" lon="42.07789">
        <ele>192.202287</ele>
        <time>2021-08-15T04:47:54.718Z</time>
      </trkpt>
      <trkpt lat="42.61653" lon="42.0779">
        <ele>193.686596</ele>
        <time>2021-08-15T04:48:17.199Z</time>
      </trkpt>
      <trkpt lat="42.61736" lon="42.07813">
        <ele>195.637866</ele>
        <time>2021-08-15T04:48:47.069Z</time>
      </trkpt>
      <trkpt lat="42.61784" lon="42.07839">
        <ele>196.826328</ele>
        <time>2021-08-15T04:49:03.371Z</time>
      </trkpt>
      <trkpt lat="42.61852" lon="42.07885">
        <ele>197.802537</ele>
        <time>2021-08-15T04:49:26.229Z</time>
      </trkpt>
      <trkpt lat="42.61893" lon="42.07921">
        <ele>198.382729</ele>
        <time>2021-08-15T04:49:40.195Z</time>
      </trkpt>
      <trkpt lat="42.61908" lon="42.07941">
        <ele>198.625405</ele>
        <time>2021-08-15T04:49:46.073Z</time>
      </trkpt>
      <trkpt lat="42.61926" lon="42.07966">
        <ele>198.932077</ele>
        <time>2021-08-15T04:49:53.200Z</time>
      </trkpt>
      <trkpt lat="42.6196" lon="42.08001">
        <ele>199.369254</ele>
        <time>2021-08-15T04:50:04.896Z</time>
      </trkpt>
      <trkpt lat="42.62019" lon="42.08057">
        <ele>200.071032</ele>
        <time>2021-08-15T04:50:24.989Z</time>
      </trkpt>
      <trkpt lat="42.62068" lon="42.08088">
        <ele>200.592208</ele>
        <time>2021-08-15T04:50:39.969Z</time>
      </trkpt>
      <trkpt lat="42.62173" lon="42.08249">
        <ele>202.474276</ele>
        <time>2021-08-15T04:51:26.081Z</time>
      </trkpt>
      <trkpt lat="42.62175" lon="42.08265">
        <ele>202.623162</ele>
        <time>2021-08-15T04:51:29.730Z</time>
      </trkpt>
      <trkpt lat="42.62407" lon="42.08325">
        <ele>205.50422</ele>
        <time>2021-08-15T04:52:39.767Z</time>
      </trkpt>
      <trkpt lat="42.62427" lon="42.08326">
        <ele>205.648098</ele>
        <time>2021-08-15T04:52:45.305Z</time>
      </trkpt>
      <trkpt lat="42.62449" lon="42.08302">
        <ele>205.855349</ele>
        <time>2021-08-15T04:52:53.129Z</time>
      </trkpt>
      <trkpt lat="42.62462" lon="42.0827">
        <ele>206.048846</ele>
        <time>2021-08-15T04:53:00.318Z</time>
      </trkpt>
      <trkpt lat="42.62477" lon="42.08205">
        <ele>206.410931</ele>
        <time>2021-08-15T04:53:13.359Z</time>
      </trkpt>
      <trkpt lat="42.62484" lon="42.08189">
        <ele>206.510891</ele>
        <time>2021-08-15T04:53:16.863Z</time>
      </trkpt>
      <trkpt lat="42.6251" lon="42.08164">
        <ele>206.687167</ele>
        <time>2021-08-15T04:53:24.798Z</time>
      </trkpt>
      <trkpt lat="42.62541" lon="42.08162">
        <ele>206.767489</ele>
        <time>2021-08-15T04:53:32.487Z</time>
      </trkpt>
      <trkpt lat="42.62564" lon="42.08152">
        <ele>206.828665</ele>
        <time>2021-08-15T04:53:38.380Z</time>
      </trkpt>
      <trkpt lat="42.62574" lon="42.08079">
        <ele>206.968919</ele>
        <time>2021-08-15T04:53:51.932Z</time>
      </trkpt>
      <trkpt lat="42.62619" lon="42.07992">
        <ele>207.1411</ele>
        <time>2021-08-15T04:54:10.834Z</time>
      </trkpt>
      <trkpt lat="42.62636" lon="42.07944">
        <ele>207.18539</ele>
        <time>2021-08-15T04:54:20.104Z</time>
      </trkpt>
      <trkpt lat="42.62701" lon="42.07802">
        <ele>207.329663</ele>
        <time>2021-08-15T04:54:48.752Z</time>
      </trkpt>
      <trkpt lat="42.62747" lon="42.07603">
        <ele>207.861808</ele>
        <time>2021-08-15T04:55:25.779Z</time>
      </trkpt>
      <trkpt lat="42.6276" lon="42.07554">
        <ele>208.112742</ele>
        <time>2021-08-15T04:55:36.525Z</time>
      </trkpt>
      <trkpt lat="42.62872" lon="42.07746">
        <ele>210.18747</ele>
        <time>2021-08-15T04:56:30.366Z</time>
      </trkpt>
      <trkpt lat="42.62946" lon="42.07863">
        <ele>211.257789</ele>
        <time>2021-08-15T04:57:02.046Z</time>
      </trkpt>
      <trkpt lat="42.63004" lon="42.07954">
        <ele>212.09631</ele>
        <time>2021-08-15T04:57:25.965Z</time>
      </trkpt>
      <trkpt lat="42.63051" lon="42.08006">
        <ele>212.655877</ele>
        <time>2021-08-15T04:57:42.349Z</time>
      </trkpt>
      <trkpt lat="42.63069" lon="42.08028">
        <ele>212.885817</ele>
        <time>2021-08-15T04:57:49.263Z</time>
      </trkpt>
      <trkpt lat="42.63099" lon="42.08062">
        <ele>213.246593</ele>
        <time>2021-08-15T04:58:00.242Z</time>
      </trkpt>
      <trkpt lat="42.63123" lon="42.08095">
        <ele>213.622806</ele>
        <time>2021-08-15T04:58:10.124Z</time>
      </trkpt>
      <trkpt lat="42.63176" lon="42.08284">
        <ele>215.571927</ele>
        <time>2021-08-15T04:58:54.903Z</time>
      </trkpt>
      <trkpt lat="42.63186" lon="42.08308">
        <ele>215.832545</ele>
        <time>2021-08-15T04:59:01.099Z</time>
      </trkpt>
      <trkpt lat="42.63198" lon="42.0833">
        <ele>216.075513</ele>
        <time>2021-08-15T04:59:06.974Z</time>
      </trkpt>
      <trkpt lat="42.63228" lon="42.08351">
        <ele>216.480496</ele>
        <time>2021-08-15T04:59:16.815Z</time>
      </trkpt>
      <trkpt lat="42.6325" lon="42.08365">
        <ele>216.777277</ele>
        <time>2021-08-15T04:59:24.118Z</time>
      </trkpt>
      <trkpt lat="42.63275" lon="42.0838">
        <ele>217.102535</ele>
        <time>2021-08-15T04:59:31.832Z</time>
      </trkpt>
      <trkpt lat="42.63382" lon="42.08433">
        <ele>218.457654</ele>
        <time>2021-08-15T05:00:04.757Z</time>
      </trkpt>
      <trkpt lat="42.63416" lon="42.0845">
        <ele>218.876771</ele>
        <time>2021-08-15T05:00:14.548Z</time>
      </trkpt>
      <trkpt lat="42.63423" lon="42.08453">
        <ele>218.969837</ele>
        <time>2021-08-15T05:00:16.882Z</time>
      </trkpt>
      <trkpt lat="42.63573" lon="42.08533">
        <ele>221.010466</ele>
        <time>2021-08-15T05:01:04.090Z</time>
      </trkpt>
      <trkpt lat="42.63586" lon="42.08543">
        <ele>221.217266</ele>
        <time>2021-08-15T05:01:08.780Z</time>
      </trkpt>
      <trkpt lat="42.63672" lon="42.08612">
        <ele>222.627408</ele>
        <time>2021-08-15T05:01:39.546Z</time>
      </trkpt>
      <trkpt lat="42.63745" lon="42.08675">
        <ele>223.993622</ele>
        <time>2021-08-15T05:02:06.599Z</time>
      </trkpt>
      <trkpt lat="42.63811" lon="42.0874">
        <ele>225.282235</ele>
        <time>2021-08-15T05:02:31.861Z</time>
      </trkpt>
      <trkpt lat="42.63847" lon="42.08772">
        <ele>226.01155</ele>
        <time>2021-08-15T05:02:44.882Z</time>
      </trkpt>
      <trkpt lat="42.63874" lon="42.08799">
        <ele>226.598706</ele>
        <time>2021-08-15T05:02:55.511Z</time>
      </trkpt>
      <trkpt lat="42.63884" lon="42.08809">
        <ele>226.808724</ele>
        <time>2021-08-15T05:02:59.215Z</time>
      </trkpt>
      <trkpt lat="42.639" lon="42.08824">
        <ele>227.156156</ele>
        <time>2021-08-15T05:03:05.886Z</time>
      </trkpt>
      <trkpt lat="42.63952" lon="42.08867">
        <ele>228.205944</ele>
        <time>2021-08-15T05:03:25.471Z</time>
      </trkpt>
      <trkpt lat="42.63979" lon="42.08884">
        <ele>228.726959</ele>
        <time>2021-08-15T05:03:34.939Z</time>
      </trkpt>
      <trkpt lat="42.63985" lon="42.08887">
        <ele>228.827894</ele>
        <time>2021-08-15T05:03:37.005Z</time>
      </trkpt>
      <trkpt lat="42.64013" lon="42.08907">
        <ele>229.381073</ele>
        <time>2021-08-15T05:03:47.400Z</time>
      </trkpt>
      <trkpt lat="42.64023" lon="42.08914">
        <ele>229.578585</ele>
        <time>2021-08-15T05:03:51.416Z</time>
      </trkpt>
      <trkpt lat="42.64044" lon="42.08929">
        <ele>229.970919</ele>
        <time>2021-08-15T05:03:58.629Z</time>
      </trkpt>
      <trkpt lat="42.64122" lon="42.09003">
        <ele>231.603491</ele>
        <time>2021-08-15T05:04:28.942Z</time>
      </trkpt>
      <trkpt lat="42.64143" lon="42.0903">
        <ele>231.768354</ele>
        <time>2021-08-15T05:04:37.736Z</time>
      </trkpt>
      <trkpt lat="42.64167" lon="42.09062">
        <ele>231.945957</ele>
        <time>2021-08-15T05:04:47.426Z</time>
      </trkpt>
      <trkpt lat="42.64199" lon="42.09106">
        <ele>232.185779</ele>
        <time>2021-08-15T05:04:59.708Z</time>
      </trkpt>
      <trkpt lat="42.64236" lon="42.09069">
        <ele>232.429786</ele>
        <time>2021-08-15T05:05:11.501Z</time>
      </trkpt>
      <trkpt lat="42.64281" lon="42.09023">
        <ele>231.70173</ele>
        <time>2021-08-15T05:05:22.685Z</time>
      </trkpt>
      <trkpt lat="42.64333" lon="42.08952">
        <ele>229.581374</ele>
        <time>2021-08-15T05:05:35.611Z</time>
      </trkpt>
      <trkpt lat="42.64341" lon="42.08935">
        <ele>229.145682</ele>
        <time>2021-08-15T05:05:38.149Z</time>
      </trkpt>
      <trkpt lat="42.64359" lon="42.08899">
        <ele>228.210387</ele>
        <time>2021-08-15T05:05:43.280Z</time>
      </trkpt>
      <trkpt lat="42.64406" lon="42.08815">
        <ele>225.66432</ele>
        <time>2021-08-15T05:05:55.949Z</time>
      </trkpt>
      <trkpt lat="42.64421" lon="42.08796">
        <ele>224.922913</ele>
        <time>2021-08-15T05:05:59.295Z</time>
      </trkpt>
      <trkpt lat="42.64423" lon="42.08793">
        <ele>224.812793</ele>
        <time>2021-08-15T05:05:59.763Z</time>
      </trkpt>
      <trkpt lat="42.64431" lon="42.08783">
        <ele>224.452734</ele>
        <time>2021-08-15T05:06:01.590Z</time>
      </trkpt>
      <trkpt lat="42.64455" lon="42.08754">
        <ele>223.312491</ele>
        <time>2021-08-15T05:06:06.788Z</time>
      </trkpt>
      <trkpt lat="42.64463" lon="42.08747">
        <ele>222.977836</ele>
        <time>2021-08-15T05:06:08.472Z</time>
      </trkpt>
      <trkpt lat="42.64463" lon="42.08746">
        <ele>222.960288</ele>
        <time>2021-08-15T05:06:08.557Z</time>
      </trkpt>
      <trkpt lat="42.64472" lon="42.08738">
        <ele>222.565718</ele>
        <time>2021-08-15T05:06:10.482Z</time>
      </trkpt>
      <trkpt lat="42.64487" lon="42.08712">
        <ele>221.72602</ele>
        <time>2021-08-15T05:06:14.645Z</time>
      </trkpt>
      <trkpt lat="42.64527" lon="42.08532">
        <ele>219.354007</ele>
        <time>2021-08-15T05:06:40.983Z</time>
      </trkpt>
      <trkpt lat="42.64531" lon="42.08487">
        <ele>218.891717</ele>
        <time>2021-08-15T05:06:47.804Z</time>
      </trkpt>
      <trkpt lat="42.64533" lon="42.08458">
        <ele>218.591431</ele>
        <time>2021-08-15T05:06:52.344Z</time>
      </trkpt>
      <trkpt lat="42.64534" lon="42.08441">
        <ele>218.433119</ele>
        <time>2021-08-15T05:06:54.782Z</time>
      </trkpt>
      <trkpt lat="42.64543" lon="42.08291">
        <ele>217.323765</ele>
        <time>2021-08-15T05:07:16.637Z</time>
      </trkpt>
      <trkpt lat="42.64545" lon="42.08241">
        <ele>216.960106</ele>
        <time>2021-08-15T05:07:23.709Z</time>
      </trkpt>
      <trkpt lat="42.64545" lon="42.08234">
        <ele>216.907759</ele>
        <time>2021-08-15T05:07:24.759Z</time>
      </trkpt>
      <trkpt lat="42.64546" lon="42.0821">
        <ele>216.728328</ele>
        <time>2021-08-15T05:07:28.410Z</time>
      </trkpt>
      <trkpt lat="42.64548" lon="42.08178">
        <ele>216.667501</ele>
        <time>2021-08-15T05:07:33.068Z</time>
      </trkpt>
      <trkpt lat="42.64557" lon="42.08013">
        <ele>216.556886</ele>
        <time>2021-08-15T05:07:59.762Z</time>
      </trkpt>
      <trkpt lat="42.64557" lon="42.08008">
        <ele>216.553536</ele>
        <time>2021-08-15T05:08:00.527Z</time>
      </trkpt>
      <trkpt lat="42.6456" lon="42.07962">
        <ele>216.523299</ele>
        <time>2021-08-15T05:08:09.361Z</time>
      </trkpt>
      <trkpt lat="42.64569" lon="42.07906">
        <ele>216.94085</ele>
        <time>2021-08-15T05:08:20.421Z</time>
      </trkpt>
      <trkpt lat="42.64576" lon="42.07892">
        <ele>217.07142</ele>
        <time>2021-08-15T05:08:23.654Z</time>
      </trkpt>
      <trkpt lat="42.64593" lon="42.07883">
        <ele>217.253699</ele>
        <time>2021-08-15T05:08:29.092Z</time>
      </trkpt>
      <trkpt lat="42.64797" lon="42.07867">
        <ele>219.272481</ele>
        <time>2021-08-15T05:09:26.423Z</time>
      </trkpt>
      <trkpt lat="42.64817" lon="42.07864">
        <ele>219.464253</ele>
        <time>2021-08-15T05:09:31.471Z</time>
      </trkpt>
      <trkpt lat="42.64855" lon="42.07859">
        <ele>219.816742</ele>
        <time>2021-08-15T05:09:40.912Z</time>
      </trkpt>
      <trkpt lat="42.64916" lon="42.07856">
        <ele>220.432475</ele>
        <time>2021-08-15T05:09:56.972Z</time>
      </trkpt>
      <trkpt lat="42.64997" lon="42.07852">
        <ele>221.294897</ele>
        <time>2021-08-15T05:10:18.690Z</time>
      </trkpt>
      <trkpt lat="42.65004" lon="42.07852">
        <ele>221.369408</ele>
        <time>2021-08-15T05:10:20.841Z</time>
      </trkpt>
      <trkpt lat="42.65042" lon="42.0785">
        <ele>221.782394</ele>
        <time>2021-08-15T05:10:32.267Z</time>
      </trkpt>
      <trkpt lat="42.6512" lon="42.07844">
        <ele>222.683179</ele>
        <time>2021-08-15T05:10:54.529Z</time>
      </trkpt>
      <trkpt lat="42.65145" lon="42.07842">
        <ele>222.987847</ele>
        <time>2021-08-15T05:11:01.839Z</time>
      </trkpt>
      <trkpt lat="42.6516" lon="42.07841">
        <ele>223.164171</ele>
        <time>2021-08-15T05:11:05.999Z</time>
      </trkpt>
      <trkpt lat="42.65193" lon="42.07839">
        <ele>223.56099</ele>
        <time>2021-08-15T05:11:15.264Z</time>
      </trkpt>
      <trkpt lat="42.65218" lon="42.07844">
        <ele>223.87218</ele>
        <time>2021-08-15T05:11:22.378Z</time>
      </trkpt>
      <trkpt lat="42.65295" lon="42.07895">
        <ele>224.757398</ele>
        <time>2021-08-15T05:11:45.671Z</time>
      </trkpt>
      <trkpt lat="42.65302" lon="42.07901">
        <ele>224.840302</ele>
        <time>2021-08-15T05:11:47.766Z</time>
      </trkpt>
      <trkpt lat="42.65333" lon="42.07922">
        <ele>225.176085</ele>
        <time>2021-08-15T05:11:56.556Z</time>
      </trkpt>
      <trkpt lat="42.65492" lon="42.08047">
        <ele>226.75898</ele>
        <time>2021-08-15T05:12:47.726Z</time>
      </trkpt>
      <trkpt lat="42.65505" lon="42.0805">
        <ele>226.858221</ele>
        <time>2021-08-15T05:12:51.355Z</time>
      </trkpt>
      <trkpt lat="42.65527" lon="42.08056">
        <ele>227.036319</ele>
        <time>2021-08-15T05:12:57.498Z</time>
      </trkpt>
      <trkpt lat="42.65582" lon="42.0806">
        <ele>227.02487</ele>
        <time>2021-08-15T05:13:09.589Z</time>
      </trkpt>
      <trkpt lat="42.65598" lon="42.08059">
        <ele>226.835121</ele>
        <time>2021-08-15T05:13:13.114Z</time>
      </trkpt>
      <trkpt lat="42.65652" lon="42.08056">
        <ele>226.154825</ele>
        <time>2021-08-15T05:13:24.128Z</time>
      </trkpt>
      <trkpt lat="42.65682" lon="42.08051">
        <ele>225.782401</ele>
        <time>2021-08-15T05:13:29.985Z</time>
      </trkpt>
      <trkpt lat="42.6569" lon="42.08049">
        <ele>225.677955</ele>
        <time>2021-08-15T05:13:31.387Z</time>
      </trkpt>
      <trkpt lat="42.65753" lon="42.07984">
        <ele>224.513048</ele>
        <time>2021-08-15T05:13:45.393Z</time>
      </trkpt>
      <trkpt lat="42.65779" lon="42.0797">
        <ele>223.988767</ele>
        <time>2021-08-15T05:13:50.208Z</time>
      </trkpt>
      <trkpt lat="42.65825" lon="42.0796">
        <ele>223.113489</ele>
        <time>2021-08-15T05:13:58.433Z</time>
      </trkpt>
      <trkpt lat="42.65896" lon="42.07958">
        <ele>221.766918</ele>
        <time>2021-08-15T05:14:12.307Z</time>
      </trkpt>
      <trkpt lat="42.659" lon="42.07958">
        <ele>221.704945</ele>
        <time>2021-08-15T05:14:12.965Z</time>
      </trkpt>
      <trkpt lat="42.65944" lon="42.07955">
        <ele>222.240855</ele>
        <time>2021-08-15T05:14:22.549Z</time>
      </trkpt>
      <trkpt lat="42.65947" lon="42.0795">
        <ele>222.310377</ele>
        <time>2021-08-15T05:14:24.302Z</time>
      </trkpt>
      <trkpt lat="42.65954" lon="42.07886">
        <ele>222.936293</ele>
        <time>2021-08-15T05:14:36.620Z</time>
      </trkpt>
      <trkpt lat="42.6598" lon="42.07832">
        <ele>223.555293</ele>
        <time>2021-08-15T05:14:51.361Z</time>
      </trkpt>
      <trkpt lat="42.66096" lon="42.0771">
        <ele>227.601149</ele>
        <time>2021-08-15T05:15:49.913Z</time>
      </trkpt>
      <trkpt lat="42.66124" lon="42.07695">
        <ele>228.594074</ele>
        <time>2021-08-15T05:16:01.692Z</time>
      </trkpt>
      <trkpt lat="42.6613" lon="42.07692">
        <ele>228.789462</ele>
        <time>2021-08-15T05:16:04.163Z</time>
      </trkpt>
      <trkpt lat="42.66191" lon="42.07667">
        <ele>230.493863</ele>
        <time>2021-08-15T05:16:27.468Z</time>
      </trkpt>
      <trkpt lat="42.6622" lon="42.07665">
        <ele>231.088701</ele>
        <time>2021-08-15T05:16:37.710Z</time>
      </trkpt>
      <trkpt lat="42.66254" lon="42.07663">
        <ele>231.796788</ele>
        <time>2021-08-15T05:16:49.360Z</time>
      </trkpt>
      <trkpt lat="42.66321" lon="42.07664">
        <ele>233.165842</ele>
        <time>2021-08-15T05:17:09.285Z</time>
      </trkpt>
      <trkpt lat="42.66427" lon="42.07677">
        <ele>234.400771</ele>
        <time>2021-08-15T05:17:39.065Z</time>
      </trkpt>
      <trkpt lat="42.66436" lon="42.0768">
        <ele>234.488775</ele>
        <time>2021-08-15T05:17:41.639Z</time>
      </trkpt>
      <trkpt lat="42.66463" lon="42.07688">
        <ele>234.753106</ele>
        <time>2021-08-15T05:17:48.871Z</time>
      </trkpt>
      <trkpt lat="42.6655" lon="42.07716">
        <ele>235.36586</ele>
        <time>2021-08-15T05:18:11.936Z</time>
      </trkpt>
      <trkpt lat="42.66726" lon="42.07783">
        <ele>235.466372</ele>
        <time>2021-08-15T05:18:53.999Z</time>
      </trkpt>
      <trkpt lat="42.66858" lon="42.07849">
        <ele>234.45884</ele>
        <time>2021-08-15T05:19:21.292Z</time>
      </trkpt>
      <trkpt lat="42.66875" lon="42.07845">
        <ele>234.56615</ele>
        <time>2021-08-15T05:19:25.655Z</time>
      </trkpt>
      <trkpt lat="42.66885" lon="42.07848">
        <ele>234.654933</ele>
        <time>2021-08-15T05:19:27.746Z</time>
      </trkpt>
      <trkpt lat="42.66889" lon="42.07849">
        <ele>234.695449</ele>
        <time>2021-08-15T05:19:28.597Z</time>
      </trkpt>
      <trkpt lat="42.66918" lon="42.0787">
        <ele>234.989107</ele>
        <time>2021-08-15T05:19:37.080Z</time>
      </trkpt>
      <trkpt lat="42.66936" lon="42.07904">
        <ele>235.265397</ele>
        <time>2021-08-15T05:19:45.699Z</time>
      </trkpt>
      <trkpt lat="42.66948" lon="42.0795">
        <ele>235.584083</ele>
        <time>2021-08-15T05:19:56.466Z</time>
      </trkpt>
      <trkpt lat="42.66968" lon="42.07992">
        <ele>235.918488</ele>
        <time>2021-08-15T05:20:08.919Z</time>
      </trkpt>
      <trkpt lat="42.67013" lon="42.08057">
        <ele>236.255871</ele>
        <time>2021-08-15T05:20:27.969Z</time>
      </trkpt>
      <trkpt lat="42.67052" lon="42.08096">
        <ele>236.453192</ele>
        <time>2021-08-15T05:20:39.026Z</time>
      </trkpt>
      <trkpt lat="42.6707" lon="42.0811">
        <ele>236.537521</ele>
        <time>2021-08-15T05:20:45.634Z</time>
      </trkpt>
      <trkpt lat="42.67098" lon="42.08119">
        <ele>236.654885</ele>
        <time>2021-08-15T05:20:51.530Z</time>
      </trkpt>
      <trkpt lat="42.67149" lon="42.08135">
        <ele>236.669499</ele>
        <time>2021-08-15T05:21:02.168Z</time>
      </trkpt>
      <trkpt lat="42.67187" lon="42.08145">
        <ele>236.463436</ele>
        <time>2021-08-15T05:21:09.527Z</time>
      </trkpt>
      <trkpt lat="42.67236" lon="42.0816">
        <ele>236.195229</ele>
        <time>2021-08-15T05:21:18.749Z</time>
      </trkpt>
      <trkpt lat="42.67459" lon="42.08226">
        <ele>237.440757</ele>
        <time>2021-08-15T05:22:17.893Z</time>
      </trkpt>
      <trkpt lat="42.67485" lon="42.08247">
        <ele>237.89478</ele>
        <time>2021-08-15T05:22:28.210Z</time>
      </trkpt>
      <trkpt lat="42.67523" lon="42.08289">
        <ele>239.224718</ele>
        <time>2021-08-15T05:22:44.922Z</time>
      </trkpt>
      <trkpt lat="42.67533" lon="42.08299">
        <ele>239.555106</ele>
        <time>2021-08-15T05:22:48.874Z</time>
      </trkpt>
      <trkpt lat="42.67539" lon="42.08307">
        <ele>239.787034</ele>
        <time>2021-08-15T05:22:52.281Z</time>
      </trkpt>
      <trkpt lat="42.67546" lon="42.08316">
        <ele>240.042962</ele>
        <time>2021-08-15T05:22:55.622Z</time>
      </trkpt>
      <trkpt lat="42.67552" lon="42.08322">
        <ele>240.244226</ele>
        <time>2021-08-15T05:22:58.178Z</time>
      </trkpt>
      <trkpt lat="42.67563" lon="42.08337">
        <ele>240.66927</ele>
        <time>2021-08-15T05:23:03.706Z</time>
      </trkpt>
      <trkpt lat="42.67566" lon="42.0834">
        <ele>240.768226</ele>
        <time>2021-08-15T05:23:05.358Z</time>
      </trkpt>
      <trkpt lat="42.67584" lon="42.08361">
        <ele>241.415834</ele>
        <time>2021-08-15T05:23:13.713Z</time>
      </trkpt>
      <trkpt lat="42.67588" lon="42.08366">
        <ele>241.550865</ele>
        <time>2021-08-15T05:23:15.804Z</time>
      </trkpt>
      <trkpt lat="42.67613" lon="42.08394">
        <ele>242.429858</ele>
        <time>2021-08-15T05:23:28.159Z</time>
      </trkpt>
      <trkpt lat="42.67632" lon="42.08418">
        <ele>243.345111</ele>
        <time>2021-08-15T05:23:38.834Z</time>
      </trkpt>
      <trkpt lat="42.67654" lon="42.08469">
        <ele>244.932183</ele>
        <time>2021-08-15T05:23:56.883Z</time>
      </trkpt>
      <trkpt lat="42.67671" lon="42.08481">
        <ele>245.649762</ele>
        <time>2021-08-15T05:24:05.231Z</time>
      </trkpt>
      <trkpt lat="42.67765" lon="42.08489">
        <ele>249.113717</ele>
        <time>2021-08-15T05:24:43.091Z</time>
      </trkpt>
      <trkpt lat="42.67791" lon="42.08496">
        <ele>250.057463</ele>
        <time>2021-08-15T05:24:54.007Z</time>
      </trkpt>
      <trkpt lat="42.67893" lon="42.0853">
        <ele>253.749892</ele>
        <time>2021-08-15T05:25:36.718Z</time>
      </trkpt>
      <trkpt lat="42.6797" lon="42.08573">
        <ele>256.411291</ele>
        <time>2021-08-15T05:26:08.855Z</time>
      </trkpt>
      <trkpt lat="42.67992" lon="42.08589">
        <ele>257.087131</ele>
        <time>2021-08-15T05:26:18.146Z</time>
      </trkpt>
      <trkpt lat="42.68021" lon="42.08527">
        <ele>258.556844</ele>
        <time>2021-08-15T05:26:36.796Z</time>
      </trkpt>
      <trkpt lat="42.681" lon="42.08363">
        <ele>262.741683</ele>
        <time>2021-08-15T05:27:26.756Z</time>
      </trkpt>
      <trkpt lat="42.68105" lon="42.08355">
        <ele>262.978932</ele>
        <time>2021-08-15T05:27:29.877Z</time>
      </trkpt>
      <trkpt lat="42.68128" lon="42.08315">
        <ele>264.103537</ele>
        <time>2021-08-15T05:27:43.795Z</time>
      </trkpt>
      <trkpt lat="42.68198" lon="42.08244">
        <ele>267.067112</ele>
        <time>2021-08-15T05:28:19.209Z</time>
      </trkpt>
      <trkpt lat="42.68216" lon="42.08228">
        <ele>267.917356</ele>
        <time>2021-08-15T05:28:28.792Z</time>
      </trkpt>
      <trkpt lat="42.68245" lon="42.08201">
        <ele>269.304335</ele>
        <time>2021-08-15T05:28:43.550Z</time>
      </trkpt>
      <trkpt lat="42.68359" lon="42.08133">
        <ele>273.943469</ele>
        <time>2021-08-15T05:29:37.829Z</time>
      </trkpt>
      <trkpt lat="42.68568" lon="42.07936">
        <ele>279.827747</ele>
        <time>2021-08-15T05:31:07.201Z</time>
      </trkpt>
      <trkpt lat="42.68593" lon="42.07914">
        <ele>280.245801</ele>
        <time>2021-08-15T05:31:14.571Z</time>
      </trkpt>
      <trkpt lat="42.68602" lon="42.07907">
        <ele>280.393646</ele>
        <time>2021-08-15T05:31:16.665Z</time>
      </trkpt>
      <trkpt lat="42.68639" lon="42.07874">
        <ele>280.812982</ele>
        <time>2021-08-15T05:31:25.991Z</time>
      </trkpt>
      <trkpt lat="42.68718" lon="42.07821">
        <ele>280.31943</ele>
        <time>2021-08-15T05:31:43.504Z</time>
      </trkpt>
      <trkpt lat="42.68822" lon="42.07675">
        <ele>280.910867</ele>
        <time>2021-08-15T05:32:15.273Z</time>
      </trkpt>
      <trkpt lat="42.68844" lon="42.07618">
        <ele>281.65419</ele>
        <time>2021-08-15T05:32:30.814Z</time>
      </trkpt>
      <trkpt lat="42.68865" lon="42.07586">
        <ele>282.151541</ele>
        <time>2021-08-15T05:32:42.267Z</time>
      </trkpt>
      <trkpt lat="42.68871" lon="42.07575">
        <ele>282.303593</ele>
        <time>2021-08-15T05:32:45.782Z</time>
      </trkpt>
      <trkpt lat="42.68882" lon="42.07554">
        <ele>282.59932</ele>
        <time>2021-08-15T05:32:53.467Z</time>
      </trkpt>
      <trkpt lat="42.689" lon="42.07535">
        <ele>283.220258</ele>
        <time>2021-08-15T05:33:01.674Z</time>
      </trkpt>
      <trkpt lat="42.68903" lon="42.07532">
        <ele>283.33599</ele>
        <time>2021-08-15T05:33:04.518Z</time>
      </trkpt>
      <trkpt lat="42.69003" lon="42.07439">
        <ele>286.927517</ele>
        <time>2021-08-15T05:33:52.420Z</time>
      </trkpt>
      <trkpt lat="42.69063" lon="42.07406">
        <ele>288.222197</ele>
        <time>2021-08-15T05:34:12.869Z</time>
      </trkpt>
      <trkpt lat="42.69087" lon="42.07382">
        <ele>288.423284</ele>
        <time>2021-08-15T05:34:20.434Z</time>
      </trkpt>
      <trkpt lat="42.6911" lon="42.07348">
        <ele>288.658574</ele>
        <time>2021-08-15T05:34:28.885Z</time>
      </trkpt>
      <trkpt lat="42.69137" lon="42.07334">
        <ele>288.859447</ele>
        <time>2021-08-15T05:34:35.682Z</time>
      </trkpt>
      <trkpt lat="42.69151" lon="42.07327">
        <ele>288.962499</ele>
        <time>2021-08-15T05:34:39.006Z</time>
      </trkpt>
      <trkpt lat="42.69215" lon="42.07287">
        <ele>289.449417</ele>
        <time>2021-08-15T05:34:54.524Z</time>
      </trkpt>
      <trkpt lat="42.69308" lon="42.07207">
        <ele>290.220254</ele>
        <time>2021-08-15T05:35:20.427Z</time>
      </trkpt>
      <trkpt lat="42.69361" lon="42.07176">
        <ele>291.099283</ele>
        <time>2021-08-15T05:35:37.983Z</time>
      </trkpt>
      <trkpt lat="42.6943" lon="42.07102">
        <ele>294.809857</ele>
        <time>2021-08-15T05:36:10.050Z</time>
      </trkpt>
      <trkpt lat="42.69446" lon="42.07087">
        <ele>295.619984</ele>
        <time>2021-08-15T05:36:21.621Z</time>
      </trkpt>
      <trkpt lat="42.69457" lon="42.07076">
        <ele>296.211092</ele>
        <time>2021-08-15T05:36:26.903Z</time>
      </trkpt>
      <trkpt lat="42.69508" lon="42.07035">
        <ele>299.334201</ele>
        <time>2021-08-15T05:37:00.444Z</time>
      </trkpt>
      <trkpt lat="42.69532" lon="42.07012">
        <ele>301.866454</ele>
        <time>2021-08-15T05:37:14.566Z</time>
      </trkpt>
      <trkpt lat="42.69535" lon="42.07009">
        <ele>302.195569</ele>
        <time>2021-08-15T05:37:19.820Z</time>
      </trkpt>
      <trkpt lat="42.69539" lon="42.06991">
        <ele>303.385196</ele>
        <time>2021-08-15T05:37:27.013Z</time>
      </trkpt>
      <trkpt lat="42.6952" lon="42.06921">
        <ele>308.153917</ele>
        <time>2021-08-15T05:38:02.296Z</time>
      </trkpt>
      <trkpt lat="42.69496" lon="42.06876">
        <ele>311.684097</ele>
        <time>2021-08-15T05:38:32.866Z</time>
      </trkpt>
      <trkpt lat="42.69492" lon="42.06855">
        <ele>313.062021</ele>
        <time>2021-08-15T05:38:42.351Z</time>
      </trkpt>
      <trkpt lat="42.69499" lon="42.06803">
        <ele>317.122701</ele>
        <time>2021-08-15T05:39:14.355Z</time>
      </trkpt>
      <trkpt lat="42.6953" lon="42.06744">
        <ele>322.980985</ele>
        <time>2021-08-15T05:39:55.756Z</time>
      </trkpt>
      <trkpt lat="42.69543" lon="42.06664">
        <ele>329.490933</ele>
        <time>2021-08-15T05:40:39.534Z</time>
      </trkpt>
      <trkpt lat="42.69543" lon="42.06655">
        <ele>330.243506</ele>
        <time>2021-08-15T05:40:46.035Z</time>
      </trkpt>
      <trkpt lat="42.69543" lon="42.06652">
        <ele>330.41964</ele>
        <time>2021-08-15T05:40:47.242Z</time>
      </trkpt>
      <trkpt lat="42.69543" lon="42.06645">
        <ele>331.020097</ele>
        <time>2021-08-15T05:40:53.335Z</time>
      </trkpt>
      <trkpt lat="42.69543" lon="42.06615">
        <ele>333.431213</ele>
        <time>2021-08-15T05:41:07.908Z</time>
      </trkpt>
      <trkpt lat="42.69554" lon="42.06585">
        <ele>336.229886</ele>
        <time>2021-08-15T05:41:28.644Z</time>
      </trkpt>
      <trkpt lat="42.69618" lon="42.06547">
        <ele>344.204348</ele>
        <time>2021-08-15T05:42:26.189Z</time>
      </trkpt>
      <trkpt lat="42.69664" lon="42.06532">
        <ele>349.676863</ele>
        <time>2021-08-15T05:43:05.954Z</time>
      </trkpt>
      <trkpt lat="42.6969" lon="42.06441">
        <ele>356.761388</ele>
        <time>2021-08-15T05:43:59.575Z</time>
      </trkpt>
      <trkpt lat="42.69712" lon="42.06414">
        <ele>359.155175</ele>
        <time>2021-08-15T05:44:19.993Z</time>
      </trkpt>
      <trkpt lat="42.69752" lon="42.06391">
        <ele>362.663557</ele>
        <time>2021-08-15T05:44:47.743Z</time>
      </trkpt>
      <trkpt lat="42.69768" lon="42.06347">
        <ele>365.617412</ele>
        <time>2021-08-15T05:45:09.074Z</time>
      </trkpt>
      <trkpt lat="42.69769" lon="42.06302">
        <ele>368.257395</ele>
        <time>2021-08-15T05:45:26.280Z</time>
      </trkpt>
      <trkpt lat="42.69779" lon="42.06281">
        <ele>368.973815</ele>
        <time>2021-08-15T05:45:35.098Z</time>
      </trkpt>
      <trkpt lat="42.69819" lon="42.06275">
        <ele>370.25877</ele>
        <time>2021-08-15T05:45:52.200Z</time>
      </trkpt>
      <trkpt lat="42.69847" lon="42.06264">
        <ele>371.176189</ele>
        <time>2021-08-15T05:46:02.892Z</time>
      </trkpt>
      <trkpt lat="42.69887" lon="42.06231">
        <ele>372.634808</ele>
        <time>2021-08-15T05:46:19.933Z</time>
      </trkpt>
      <trkpt lat="42.69923" lon="42.06216">
        <ele>373.852336</ele>
        <time>2021-08-15T05:46:32.471Z</time>
      </trkpt>
      <trkpt lat="42.69977" lon="42.06163">
        <ele>374.001581</ele>
        <time>2021-08-15T05:46:49.150Z</time>
      </trkpt>
      <trkpt lat="42.69985" lon="42.06152">
        <ele>373.972608</ele>
        <time>2021-08-15T05:46:52.671Z</time>
      </trkpt>
      <trkpt lat="42.69986" lon="42.0615">
        <ele>373.968029</ele>
        <time>2021-08-15T05:46:52.950Z</time>
      </trkpt>
      <trkpt lat="42.69994" lon="42.06133">
        <ele>373.929968</ele>
        <time>2021-08-15T05:46:56.047Z</time>
      </trkpt>
      <trkpt lat="42.70031" lon="42.06096">
        <ele>373.811196</ele>
        <time>2021-08-15T05:47:05.846Z</time>
      </trkpt>
      <trkpt lat="42.70059" lon="42.06057">
        <ele>373.709527</ele>
        <time>2021-08-15T05:47:14.049Z</time>
      </trkpt>
      <trkpt lat="42.70064" lon="42.06054">
        <ele>373.694709</ele>
        <time>2021-08-15T05:47:15.070Z</time>
      </trkpt>
      <trkpt lat="42.7009" lon="42.06045">
        <ele>372.946005</ele>
        <time>2021-08-15T05:47:19.865Z</time>
      </trkpt>
      <trkpt lat="42.70104" lon="42.06034">
        <ele>372.441321</ele>
        <time>2021-08-15T05:47:22.571Z</time>
      </trkpt>
      <trkpt lat="42.70122" lon="42.05996">
        <ele>371.393758</ele>
        <time>2021-08-15T05:47:28.193Z</time>
      </trkpt>
      <trkpt lat="42.7017" lon="42.05969">
        <ele>369.740727</ele>
        <time>2021-08-15T05:47:37.186Z</time>
      </trkpt>
      <trkpt lat="42.70184" lon="42.05953">
        <ele>369.175929</ele>
        <time>2021-08-15T05:47:40.100Z</time>
      </trkpt>
      <trkpt lat="42.70185" lon="42.05952">
        <ele>369.133803</ele>
        <time>2021-08-15T05:47:40.285Z</time>
      </trkpt>
      <trkpt lat="42.70191" lon="42.05943">
        <ele>368.857945</ele>
        <time>2021-08-15T05:47:41.803Z</time>
      </trkpt>
      <trkpt lat="42.70214" lon="42.0594">
        <ele>368.122497</ele>
        <time>2021-08-15T05:47:45.781Z</time>
      </trkpt>
      <trkpt lat="42.70282" lon="42.05908">
        <ele>364.495792</ele>
        <time>2021-08-15T05:47:57.498Z</time>
      </trkpt>
      <trkpt lat="42.70412" lon="42.05862">
        <ele>357.144145</ele>
        <time>2021-08-15T05:48:18.341Z</time>
      </trkpt>
      <trkpt lat="42.70467" lon="42.05857">
        <ele>353.225898</ele>
        <time>2021-08-15T05:48:26.595Z</time>
      </trkpt>
      <trkpt lat="42.70512" lon="42.05834">
        <ele>349.922106</ele>
        <time>2021-08-15T05:48:33.595Z</time>
      </trkpt>
      <trkpt lat="42.70543" lon="42.05809">
        <ele>347.357087</ele>
        <time>2021-08-15T05:48:39.050Z</time>
      </trkpt>
      <trkpt lat="42.70572" lon="42.05795">
        <ele>345.356286</ele>
        <time>2021-08-15T05:48:43.848Z</time>
      </trkpt>
      <trkpt lat="42.70713" lon="42.05719">
        <ele>336.423906</ele>
        <time>2021-08-15T05:49:08.283Z</time>
      </trkpt>
      <trkpt lat="42.70793" lon="42.05693">
        <ele>333.196683</ele>
        <time>2021-08-15T05:49:22.544Z</time>
      </trkpt>
      <trkpt lat="42.70891" lon="42.0569">
        <ele>329.816172</ele>
        <time>2021-08-15T05:49:40.064Z</time>
      </trkpt>
      <trkpt lat="42.70901" lon="42.0569">
        <ele>329.481563</ele>
        <time>2021-08-15T05:49:41.861Z</time>
      </trkpt>
      <trkpt lat="42.71015" lon="42.05672">
        <ele>328.310087</ele>
        <time>2021-08-15T05:50:04.624Z</time>
      </trkpt>
      <trkpt lat="42.71102" lon="42.05654">
        <ele>327.789358</ele>
        <time>2021-08-15T05:50:26.923Z</time>
      </trkpt>
      <trkpt lat="42.71137" lon="42.05647">
        <ele>328.032358</ele>
        <time>2021-08-15T05:50:36.287Z</time>
      </trkpt>
      <trkpt lat="42.71205" lon="42.05645">
        <ele>328.49788</ele>
        <time>2021-08-15T05:50:54.717Z</time>
      </trkpt>
      <trkpt lat="42.71202" lon="42.05633">
        <ele>328.563061</ele>
        <time>2021-08-15T05:50:58.521Z</time>
      </trkpt>
      <trkpt lat="42.71156" lon="42.0554">
        <ele>328.972163</ele>
        <time>2021-08-15T05:51:32.314Z</time>
      </trkpt>
      <trkpt lat="42.71207" lon="42.0548">
        <ele>329.128933</ele>
        <time>2021-08-15T05:51:49.604Z</time>
      </trkpt>
      <trkpt lat="42.71257" lon="42.05414">
        <ele>329.289927</ele>
        <time>2021-08-15T05:52:05.550Z</time>
      </trkpt>
      <trkpt lat="42.71281" lon="42.0538">
        <ele>329.185976</ele>
        <time>2021-08-15T05:52:13.227Z</time>
      </trkpt>
      <trkpt lat="42.71366" lon="42.05263">
        <ele>328.585549</ele>
        <time>2021-08-15T05:52:39.239Z</time>
      </trkpt>
      <trkpt lat="42.71527" lon="42.05026">
        <ele>327.727264</ele>
        <time>2021-08-15T05:53:30.862Z</time>
      </trkpt>
      <trkpt lat="42.7157" lon="42.04961">
        <ele>328.200555</ele>
        <time>2021-08-15T05:53:47.664Z</time>
      </trkpt>
      <trkpt lat="42.71625" lon="42.04883">
        <ele>328.789407</ele>
        <time>2021-08-15T05:54:11.020Z</time>
      </trkpt>
      <trkpt lat="42.71635" lon="42.04878">
        <ele>328.861951</ele>
        <time>2021-08-15T05:54:14.131Z</time>
      </trkpt>
      <trkpt lat="42.71784" lon="42.04873">
        <ele>331.148185</ele>
        <time>2021-08-15T05:55:00.928Z</time>
      </trkpt>
      <trkpt lat="42.71804" lon="42.04865">
        <ele>331.470928</ele>
        <time>2021-08-15T05:55:07.305Z</time>
      </trkpt>
      <trkpt lat="42.71829" lon="42.04827">
        <ele>331.995542</ele>
        <time>2021-08-15T05:55:18.755Z</time>
      </trkpt>
      <trkpt lat="42.71833" lon="42.0483">
        <ele>332.052137</ele>
        <time>2021-08-15T05:55:20.008Z</time>
      </trkpt>
      <trkpt lat="42.71836" lon="42.0483">
        <ele>332.100341</ele>
        <time>2021-08-15T05:55:21.106Z</time>
      </trkpt>
      <trkpt lat="42.7184" lon="42.04829">
        <ele>332.147745</ele>
        <time>2021-08-15T05:55:22.193Z</time>
      </trkpt>
      <trkpt lat="42.71843" lon="42.04827">
        <ele>332.197145</ele>
        <time>2021-08-15T05:55:23.233Z</time>
      </trkpt>
      <trkpt lat="42.71846" lon="42.04822">
        <ele>332.259156</ele>
        <time>2021-08-15T05:55:24.586Z</time>
      </trkpt>
      <trkpt lat="42.71846" lon="42.04817">
        <ele>332.307089</ele>
        <time>2021-08-15T05:55:25.609Z</time>
      </trkpt>
      <trkpt lat="42.71846" lon="42.04812">
        <ele>332.355267</ele>
        <time>2021-08-15T05:55:26.627Z</time>
      </trkpt>
      <trkpt lat="42.7209" lon="42.04706">
        <ele>335.338763</ele>
        <time>2021-08-15T05:56:42.096Z</time>
      </trkpt>
      <trkpt lat="42.72121" lon="42.04706">
        <ele>335.651707</ele>
        <time>2021-08-15T05:56:50.514Z</time>
      </trkpt>
      <trkpt lat="42.72194" lon="42.04734">
        <ele>335.385969</ele>
        <time>2021-08-15T05:57:09.208Z</time>
      </trkpt>
      <trkpt lat="42.72201" lon="42.04692">
        <ele>335.116524</ele>
        <time>2021-08-15T05:57:16.169Z</time>
      </trkpt>
      <trkpt lat="42.72208" lon="42.04601">
        <ele>334.553374</ele>
        <time>2021-08-15T05:57:29.911Z</time>
      </trkpt>
      <trkpt lat="42.72203" lon="42.04569">
        <ele>334.35579</ele>
        <time>2021-08-15T05:57:34.430Z</time>
      </trkpt>
      <trkpt lat="42.72152" lon="42.04478">
        <ele>331.580424</ele>
        <time>2021-08-15T05:57:49.810Z</time>
      </trkpt>
      <trkpt lat="42.72145" lon="42.04436">
        <ele>330.544201</ele>
        <time>2021-08-15T05:57:55.270Z</time>
      </trkpt>
      <trkpt lat="42.72148" lon="42.044">
        <ele>329.645836</ele>
        <time>2021-08-15T05:58:00.018Z</time>
      </trkpt>
      <trkpt lat="42.72168" lon="42.04306">
        <ele>326.703033</ele>
        <time>2021-08-15T05:58:12.557Z</time>
      </trkpt>
      <trkpt lat="42.72173" lon="42.04286">
        <ele>325.939135</ele>
        <time>2021-08-15T05:58:15.154Z</time>
      </trkpt>
      <trkpt lat="42.7218" lon="42.04275">
        <ele>325.40657</ele>
        <time>2021-08-15T05:58:17.026Z</time>
      </trkpt>
      <trkpt lat="42.72196" lon="42.04271">
        <ele>324.579415</ele>
        <time>2021-08-15T05:58:19.968Z</time>
      </trkpt>
      <trkpt lat="42.72211" lon="42.0428">
        <ele>323.75342</ele>
        <time>2021-08-15T05:58:22.800Z</time>
      </trkpt>
      <trkpt lat="42.72263" lon="42.04334">
        <ele>320.545138</ele>
        <time>2021-08-15T05:58:33.655Z</time>
      </trkpt>
      <trkpt lat="42.72281" lon="42.04346">
        <ele>319.52485</ele>
        <time>2021-08-15T05:58:37.095Z</time>
      </trkpt>
      <trkpt lat="42.72351" lon="42.04357">
        <ele>312.695787</ele>
        <time>2021-08-15T05:58:47.546Z</time>
      </trkpt>
      <trkpt lat="42.7242" lon="42.04396">
        <ele>305.280403</ele>
        <time>2021-08-15T05:58:58.720Z</time>
      </trkpt>
      <trkpt lat="42.72433" lon="42.04396">
        <ele>304.027635</ele>
        <time>2021-08-15T05:59:00.522Z</time>
      </trkpt>
      <trkpt lat="42.72441" lon="42.04391">
        <ele>303.121427</ele>
        <time>2021-08-15T05:59:01.781Z</time>
      </trkpt>
      <trkpt lat="42.72494" lon="42.0429">
        <ele>294.528408</ele>
        <time>2021-08-15T05:59:15.213Z</time>
      </trkpt>
      <trkpt lat="42.72507" lon="42.04249">
        <ele>291.498155</ele>
        <time>2021-08-15T05:59:20.031Z</time>
      </trkpt>
      <trkpt lat="42.7251" lon="42.0423">
        <ele>290.165237</ele>
        <time>2021-08-15T05:59:22.065Z</time>
      </trkpt>
      <trkpt lat="42.7261" lon="42.04312">
        <ele>282.762023</ele>
        <time>2021-08-15T05:59:41.140Z</time>
      </trkpt>
      <trkpt lat="42.72644" lon="42.04349">
        <ele>281.17552</ele>
        <time>2021-08-15T05:59:48.935Z</time>
      </trkpt>
      <trkpt lat="42.72717" lon="42.04172">
        <ele>277.190833</ele>
        <time>2021-08-15T06:00:17.908Z</time>
      </trkpt>
      <trkpt lat="42.72739" lon="42.04189">
        <ele>276.766997</ele>
        <time>2021-08-15T06:00:22.588Z</time>
      </trkpt>
      <trkpt lat="42.72765" lon="42.04209">
        <ele>276.267464</ele>
        <time>2021-08-15T06:00:28.099Z</time>
      </trkpt>
      <trkpt lat="42.72782" lon="42.04222">
        <ele>275.932619</ele>
        <time>2021-08-15T06:00:31.837Z</time>
      </trkpt>
      <trkpt lat="42.72795" lon="42.04227">
        <ele>275.705913</ele>
        <time>2021-08-15T06:00:34.305Z</time>
      </trkpt>
      <trkpt lat="42.72805" lon="42.0423">
        <ele>275.522545</ele>
        <time>2021-08-15T06:00:36.370Z</time>
      </trkpt>
      <trkpt lat="42.72824" lon="42.04224">
        <ele>275.362527</ele>
        <time>2021-08-15T06:00:39.942Z</time>
      </trkpt>
      <trkpt lat="42.72852" lon="42.04204">
        <ele>275.278957</ele>
        <time>2021-08-15T06:00:46.320Z</time>
      </trkpt>
      <trkpt lat="42.72879" lon="42.04177">
        <ele>275.188755</ele>
        <time>2021-08-15T06:00:53.421Z</time>
      </trkpt>
      <trkpt lat="42.72957" lon="42.04095">
        <ele>274.926667</ele>
        <time>2021-08-15T06:01:15.396Z</time>
      </trkpt>
      <trkpt lat="42.72964" lon="42.04086">
        <ele>275.003962</ele>
        <time>2021-08-15T06:01:18.806Z</time>
      </trkpt>
      <trkpt lat="42.7298" lon="42.04053">
        <ele>275.565613</ele>
        <time>2021-08-15T06:01:25.869Z</time>
      </trkpt>
      <trkpt lat="42.7298" lon="42.03995">
        <ele>276.378577</ele>
        <time>2021-08-15T06:01:38.491Z</time>
      </trkpt>
      <trkpt lat="42.72974" lon="42.03944">
        <ele>277.114769</ele>
        <time>2021-08-15T06:01:50.542Z</time>
      </trkpt>
      <trkpt lat="42.72921" lon="42.03698">
        <ele>282.481741</ele>
        <time>2021-08-15T06:03:01.902Z</time>
      </trkpt>
      <trkpt lat="42.72916" lon="42.03653">
        <ele>283.591839</ele>
        <time>2021-08-15T06:03:15.334Z</time>
      </trkpt>
      <trkpt lat="42.72912" lon="42.03569">
        <ele>286.259487</ele>
        <time>2021-08-15T06:03:40.615Z</time>
      </trkpt>
      <trkpt lat="42.72905" lon="42.03397">
        <ele>292.513438</ele>
        <time>2021-08-15T06:04:39.191Z</time>
      </trkpt>
      <trkpt lat="42.7294" lon="42.03291">
        <ele>299.696264</ele>
        <time>2021-08-15T06:05:29.383Z</time>
      </trkpt>
      <trkpt lat="42.7296" lon="42.03202">
        <ele>306.028798</ele>
        <time>2021-08-15T06:06:16.817Z</time>
      </trkpt>
      <trkpt lat="42.72991" lon="42.03145">
        <ele>310.807782</ele>
        <time>2021-08-15T06:07:02.438Z</time>
      </trkpt>
      <trkpt lat="42.73011" lon="42.03128">
        <ele>312.941418</ele>
        <time>2021-08-15T06:07:21.459Z</time>
      </trkpt>
      <trkpt lat="42.73029" lon="42.03124">
        <ele>314.595927</ele>
        <time>2021-08-15T06:07:39.172Z</time>
      </trkpt>
      <trkpt lat="42.73059" lon="42.03129">
        <ele>317.316706</ele>
        <time>2021-08-15T06:08:00.461Z</time>
      </trkpt>
      <trkpt lat="42.73076" lon="42.03137">
        <ele>318.863877</ele>
        <time>2021-08-15T06:08:12.653Z</time>
      </trkpt>
      <trkpt lat="42.73086" lon="42.0315">
        <ele>320.155499</ele>
        <time>2021-08-15T06:08:20.047Z</time>
      </trkpt>
      <trkpt lat="42.73091" lon="42.03159">
        <ele>320.907063</ele>
        <time>2021-08-15T06:08:29.454Z</time>
      </trkpt>
      <trkpt lat="42.73095" lon="42.03168">
        <ele>321.582458</ele>
        <time>2021-08-15T06:08:33.178Z</time>
      </trkpt>
      <trkpt lat="42.73101" lon="42.032">
        <ele>323.736212</ele>
        <time>2021-08-15T06:08:45.870Z</time>
      </trkpt>
      <trkpt lat="42.73095" lon="42.03239">
        <ele>326.09856</ele>
        <time>2021-08-15T06:08:59.665Z</time>
      </trkpt>
      <trkpt lat="42.73025" lon="42.03374">
        <ele>329.499625</ele>
        <time>2021-08-15T06:09:44.953Z</time>
      </trkpt>
      <trkpt lat="42.73005" lon="42.0343">
        <ele>330.76633</ele>
        <time>2021-08-15T06:09:54.970Z</time>
      </trkpt>
      <trkpt lat="42.72996" lon="42.03485">
        <ele>332.315547</ele>
        <time>2021-08-15T06:10:06.180Z</time>
      </trkpt>
      <trkpt lat="42.73126" lon="42.03995">
        <ele>351.531189</ele>
        <time>2021-08-15T06:13:11.748Z</time>
      </trkpt>
      <trkpt lat="42.73135" lon="42.04015">
        <ele>352.695822</ele>
        <time>2021-08-15T06:13:22.721Z</time>
      </trkpt>
      <trkpt lat="42.73166" lon="42.04054">
        <ele>355.476314</ele>
        <time>2021-08-15T06:13:48.638Z</time>
      </trkpt>
      <trkpt lat="42.73232" lon="42.04109">
        <ele>360.342373</ele>
        <time>2021-08-15T06:14:35.368Z</time>
      </trkpt>
      <trkpt lat="42.73246" lon="42.04119">
        <ele>361.292836</ele>
        <time>2021-08-15T06:14:45.831Z</time>
      </trkpt>
      <trkpt lat="42.73296" lon="42.04158">
        <ele>364.596937</ele>
        <time>2021-08-15T06:15:16.811Z</time>
      </trkpt>
      <trkpt lat="42.73353" lon="42.04202">
        <ele>368.343566</ele>
        <time>2021-08-15T06:15:48.278Z</time>
      </trkpt>
      <trkpt lat="42.73566" lon="42.04421">
        <ele>375.466487</ele>
        <time>2021-08-15T06:17:18.449Z</time>
      </trkpt>
      <trkpt lat="42.73826" lon="42.04632">
        <ele>381.593424</ele>
        <time>2021-08-15T06:19:00.022Z</time>
      </trkpt>
      <trkpt lat="42.73855" lon="42.04649">
        <ele>381.592363</ele>
        <time>2021-08-15T06:19:07.256Z</time>
      </trkpt>
      <trkpt lat="42.73917" lon="42.04668">
        <ele>381.590159</ele>
        <time>2021-08-15T06:19:20.502Z</time>
      </trkpt>
      <trkpt lat="42.73946" lon="42.04687">
        <ele>381.589059</ele>
        <time>2021-08-15T06:19:26.889Z</time>
      </trkpt>
      <trkpt lat="42.7405" lon="42.04767">
        <ele>382.52658</ele>
        <time>2021-08-15T06:19:52.168Z</time>
      </trkpt>
      <trkpt lat="42.74141" lon="42.04853">
        <ele>384.356373</ele>
        <time>2021-08-15T06:20:27.206Z</time>
      </trkpt>
      <trkpt lat="42.74261" lon="42.04907">
        <ele>391.273828</ele>
        <time>2021-08-15T06:21:29.520Z</time>
      </trkpt>
      <trkpt lat="42.74376" lon="42.04978">
        <ele>400.972577</ele>
        <time>2021-08-15T06:22:47.032Z</time>
      </trkpt>
      <trkpt lat="42.74487" lon="42.05011">
        <ele>411.009002</ele>
        <time>2021-08-15T06:24:07.187Z</time>
      </trkpt>
      <trkpt lat="42.74536" lon="42.05016">
        <ele>415.592032</ele>
        <time>2021-08-15T06:24:43.896Z</time>
      </trkpt>
      <trkpt lat="42.74622" lon="42.04991">
        <ele>423.740215</ele>
        <time>2021-08-15T06:25:45.031Z</time>
      </trkpt>
      <trkpt lat="42.7467" lon="42.04977">
        <ele>427.556369</ele>
        <time>2021-08-15T06:26:15.283Z</time>
      </trkpt>
      <trkpt lat="42.74718" lon="42.04963">
        <ele>430.811101</ele>
        <time>2021-08-15T06:26:41.853Z</time>
      </trkpt>
      <trkpt lat="42.74864" lon="42.04916">
        <ele>440.962499</ele>
        <time>2021-08-15T06:27:59.850Z</time>
      </trkpt>
      <trkpt lat="42.7497" lon="42.04901">
        <ele>448.494588</ele>
        <time>2021-08-15T06:29:03.350Z</time>
      </trkpt>
      <trkpt lat="42.75031" lon="42.04882">
        <ele>452.279121</ele>
        <time>2021-08-15T06:29:42.112Z</time>
      </trkpt>
      <trkpt lat="42.75063" lon="42.04841">
        <ele>454.535764</ele>
        <time>2021-08-15T06:30:07.391Z</time>
      </trkpt>
      <trkpt lat="42.75231" lon="42.04547">
        <ele>465.683311</ele>
        <time>2021-08-15T06:31:54.440Z</time>
      </trkpt>
      <trkpt lat="42.75247" lon="42.0453">
        <ele>466.516776</ele>
        <time>2021-08-15T06:32:01.658Z</time>
      </trkpt>
      <trkpt lat="42.75439" lon="42.04383">
        <ele>476.381504</ele>
        <time>2021-08-15T06:33:40.261Z</time>
      </trkpt>
      <trkpt lat="42.7548" lon="42.04373">
        <ele>478.549993</ele>
        <time>2021-08-15T06:34:01.576Z</time>
      </trkpt>
      <trkpt lat="42.75556" lon="42.04365">
        <ele>482.473924</ele>
        <time>2021-08-15T06:34:38.645Z</time>
      </trkpt>
      <trkpt lat="42.75572" lon="42.04363">
        <ele>483.253402</ele>
        <time>2021-08-15T06:34:47.484Z</time>
      </trkpt>
      <trkpt lat="42.75586" lon="42.04364">
        <ele>483.892514</ele>
        <time>2021-08-15T06:34:53.576Z</time>
      </trkpt>
      <trkpt lat="42.75624" lon="42.04373">
        <ele>485.616401</ele>
        <time>2021-08-15T06:35:11.528Z</time>
      </trkpt>
      <trkpt lat="42.75643" lon="42.04383">
        <ele>486.567257</ele>
        <time>2021-08-15T06:35:21.858Z</time>
      </trkpt>
      <trkpt lat="42.75753" lon="42.04494">
        <ele>492.650201</ele>
        <time>2021-08-15T06:36:18.931Z</time>
      </trkpt>
      <trkpt lat="42.75792" lon="42.04523">
        <ele>494.566817</ele>
        <time>2021-08-15T06:36:38.690Z</time>
      </trkpt>
      <trkpt lat="42.75825" lon="42.04538">
        <ele>496.070165</ele>
        <time>2021-08-15T06:36:54.810Z</time>
      </trkpt>
      <trkpt lat="42.75968" lon="42.04577">
        <ele>503.141254</ele>
        <time>2021-08-15T06:37:58.179Z</time>
      </trkpt>
      <trkpt lat="42.76057" lon="42.04623">
        <ele>508.184616</ele>
        <time>2021-08-15T06:38:47.356Z</time>
      </trkpt>
      <trkpt lat="42.76107" lon="42.04741">
        <ele>517.566313</ele>
        <time>2021-08-15T06:39:45.145Z</time>
      </trkpt>
      <trkpt lat="42.76123" lon="42.04768">
        <ele>519.93757</ele>
        <time>2021-08-15T06:40:03.082Z</time>
      </trkpt>
      <trkpt lat="42.76146" lon="42.0479">
        <ele>522.542809</ele>
        <time>2021-08-15T06:40:25.553Z</time>
      </trkpt>
      <trkpt lat="42.76219" lon="42.04833">
        <ele>532.971981</ele>
        <time>2021-08-15T06:41:40.712Z</time>
      </trkpt>
      <trkpt lat="42.76232" lon="42.04853">
        <ele>536.073017</ele>
        <time>2021-08-15T06:42:00.798Z</time>
      </trkpt>
      <trkpt lat="42.7626" lon="42.04918">
        <ele>544.452583</ele>
        <time>2021-08-15T06:42:56.560Z</time>
      </trkpt>
      <trkpt lat="42.76268" lon="42.0493">
        <ele>546.324708</ele>
        <time>2021-08-15T06:43:09.461Z</time>
      </trkpt>
      <trkpt lat="42.76294" lon="42.0495">
        <ele>550.812691</ele>
        <time>2021-08-15T06:43:40.560Z</time>
      </trkpt>
      <trkpt lat="42.76311" lon="42.04953">
        <ele>553.299177</ele>
        <time>2021-08-15T06:43:58.555Z</time>
      </trkpt>
      <trkpt lat="42.76323" lon="42.04948">
        <ele>554.875674</ele>
        <time>2021-08-15T06:44:11.775Z</time>
      </trkpt>
      <trkpt lat="42.76408" lon="42.04871">
        <ele>568.001313</ele>
        <time>2021-08-15T06:45:50.421Z</time>
      </trkpt>
      <trkpt lat="42.7644" lon="42.04857">
        <ele>572.207491</ele>
        <time>2021-08-15T06:46:14.047Z</time>
      </trkpt>
      <trkpt lat="42.7647" lon="42.04862">
        <ele>575.840772</ele>
        <time>2021-08-15T06:46:33.331Z</time>
      </trkpt>
      <trkpt lat="42.76506" lon="42.04886">
        <ele>577.868751</ele>
        <time>2021-08-15T06:46:55.163Z</time>
      </trkpt>
      <trkpt lat="42.76524" lon="42.04915">
        <ele>579.307555</ele>
        <time>2021-08-15T06:47:09.203Z</time>
      </trkpt>
      <trkpt lat="42.76564" lon="42.0507">
        <ele>585.397767</ele>
        <time>2021-08-15T06:47:58.870Z</time>
      </trkpt>
      <trkpt lat="42.7658" lon="42.0515">
        <ele>588.22255</ele>
        <time>2021-08-15T06:48:22.186Z</time>
      </trkpt>
      <trkpt lat="42.76591" lon="42.05264">
        <ele>592.144257</ele>
        <time>2021-08-15T06:48:59.103Z</time>
      </trkpt>
      <trkpt lat="42.76629" lon="42.05424">
        <ele>602.891488</ele>
        <time>2021-08-15T06:50:16.470Z</time>
      </trkpt>
      <trkpt lat="42.76646" lon="42.05448">
        <ele>605.19542</ele>
        <time>2021-08-15T06:50:34.934Z</time>
      </trkpt>
      <trkpt lat="42.76695" lon="42.05482">
        <ele>610.584542</ele>
        <time>2021-08-15T06:51:20.695Z</time>
      </trkpt>
      <trkpt lat="42.76726" lon="42.05529">
        <ele>617.234498</ele>
        <time>2021-08-15T06:52:01.413Z</time>
      </trkpt>
      <trkpt lat="42.76746" lon="42.05534">
        <ele>620.09876</ele>
        <time>2021-08-15T06:52:20.215Z</time>
      </trkpt>
      <trkpt lat="42.76756" lon="42.05531">
        <ele>621.613741</ele>
        <time>2021-08-15T06:52:30.615Z</time>
      </trkpt>
      <trkpt lat="42.76805" lon="42.0547">
        <ele>631.105125</ele>
        <time>2021-08-15T06:53:38.438Z</time>
      </trkpt>
      <trkpt lat="42.76828" lon="42.05462">
        <ele>634.561282</ele>
        <time>2021-08-15T06:54:02.379Z</time>
      </trkpt>
      <trkpt lat="42.76844" lon="42.05483">
        <ele>637.595603</ele>
        <time>2021-08-15T06:54:23.678Z</time>
      </trkpt>
      <trkpt lat="42.76886" lon="42.05596">
        <ele>649.746225</ele>
        <time>2021-08-15T06:55:44.701Z</time>
      </trkpt>
      <trkpt lat="42.76913" lon="42.05602">
        <ele>653.273263</ele>
        <time>2021-08-15T06:56:07.139Z</time>
      </trkpt>
      <trkpt lat="42.77021" lon="42.05599">
        <ele>666.667518</ele>
        <time>2021-08-15T06:57:38.296Z</time>
      </trkpt>
      <trkpt lat="42.77057" lon="42.05611">
        <ele>671.060984</ele>
        <time>2021-08-15T06:58:07.448Z</time>
      </trkpt>
      <trkpt lat="42.77101" lon="42.05643">
        <ele>677.012141</ele>
        <time>2021-08-15T06:58:47.703Z</time>
      </trkpt>
      <trkpt lat="42.77133" lon="42.05651">
        <ele>680.857147</ele>
        <time>2021-08-15T06:59:14.553Z</time>
      </trkpt>
      <trkpt lat="42.77161" lon="42.05643">
        <ele>683.701304</ele>
        <time>2021-08-15T06:59:38.227Z</time>
      </trkpt>
      <trkpt lat="42.77198" lon="42.0562">
        <ele>687.760549</ele>
        <time>2021-08-15T07:00:11.936Z</time>
      </trkpt>
      <trkpt lat="42.77253" lon="42.05556">
        <ele>694.870262</ele>
        <time>2021-08-15T07:01:03.366Z</time>
      </trkpt>
      <trkpt lat="42.77286" lon="42.05497">
        <ele>699.388408</ele>
        <time>2021-08-15T07:01:36.742Z</time>
      </trkpt>
      <trkpt lat="42.77325" lon="42.05448">
        <ele>701.440063</ele>
        <time>2021-08-15T07:02:02.888Z</time>
      </trkpt>
      <trkpt lat="42.77402" lon="42.05406">
        <ele>704.652331</ele>
        <time>2021-08-15T07:02:32.620Z</time>
      </trkpt>
      <trkpt lat="42.77502" lon="42.05335">
        <ele>706.327242</ele>
        <time>2021-08-15T07:03:02.881Z</time>
      </trkpt>
      <trkpt lat="42.77524" lon="42.05324">
        <ele>706.484378</ele>
        <time>2021-08-15T07:03:08.132Z</time>
      </trkpt>
      <trkpt lat="42.77552" lon="42.05321">
        <ele>706.679285</ele>
        <time>2021-08-15T07:03:14.487Z</time>
      </trkpt>
      <trkpt lat="42.77611" lon="42.05368">
        <ele>707.166047</ele>
        <time>2021-08-15T07:03:30.878Z</time>
      </trkpt>
      <trkpt lat="42.77627" lon="42.05379">
        <ele>707.311381</ele>
        <time>2021-08-15T07:03:35.275Z</time>
      </trkpt>
      <trkpt lat="42.77658" lon="42.05398">
        <ele>707.575944</ele>
        <time>2021-08-15T07:03:45.145Z</time>
      </trkpt>
      <trkpt lat="42.77672" lon="42.05409">
        <ele>707.702299</ele>
        <time>2021-08-15T07:03:50.079Z</time>
      </trkpt>
      <trkpt lat="42.77687" lon="42.05432">
        <ele>707.885459</ele>
        <time>2021-08-15T07:03:56.017Z</time>
      </trkpt>
      <trkpt lat="42.77699" lon="42.05474">
        <ele>708.146311</ele>
        <time>2021-08-15T07:04:04.669Z</time>
      </trkpt>
      <trkpt lat="42.7771" lon="42.05557">
        <ele>708.480074</ele>
        <time>2021-08-15T07:04:20.058Z</time>
      </trkpt>
      <trkpt lat="42.77721" lon="42.05574">
        <ele>708.526945</ele>
        <time>2021-08-15T07:04:24.436Z</time>
      </trkpt>
      <trkpt lat="42.77734" lon="42.05583">
        <ele>708.566351</ele>
        <time>2021-08-15T07:04:28.098Z</time>
      </trkpt>
      <trkpt lat="42.77758" lon="42.0559">
        <ele>708.631444</ele>
        <time>2021-08-15T07:04:33.964Z</time>
      </trkpt>
      <trkpt lat="42.77809" lon="42.05581">
        <ele>708.771557</ele>
        <time>2021-08-15T07:04:46.029Z</time>
      </trkpt>
      <trkpt lat="42.77829" lon="42.05582">
        <ele>708.826225</ele>
        <time>2021-08-15T07:04:50.427Z</time>
      </trkpt>
      <trkpt lat="42.77907" lon="42.05609">
        <ele>708.925908</ele>
        <time>2021-08-15T07:05:07.440Z</time>
      </trkpt>
      <trkpt lat="42.78019" lon="42.05634">
        <ele>709.001595</ele>
        <time>2021-08-15T07:05:36.696Z</time>
      </trkpt>
      <trkpt lat="42.78042" lon="42.05634">
        <ele>708.972841</ele>
        <time>2021-08-15T07:05:40.825Z</time>
      </trkpt>
      <trkpt lat="42.78062" lon="42.05625">
        <ele>708.919102</ele>
        <time>2021-08-15T07:05:47.155Z</time>
      </trkpt>
      <trkpt lat="42.78109" lon="42.05585">
        <ele>708.784208</ele>
        <time>2021-08-15T07:05:56.882Z</time>
      </trkpt>
      <trkpt lat="42.78121" lon="42.05578">
        <ele>708.750432</ele>
        <time>2021-08-15T07:06:01.534Z</time>
      </trkpt>
      <trkpt lat="42.78139" lon="42.05576">
        <ele>708.706589</ele>
        <time>2021-08-15T07:06:04.174Z</time>
      </trkpt>
      <trkpt lat="42.78174" lon="42.05585">
        <ele>708.6179</ele>
        <time>2021-08-15T07:06:14.582Z</time>
      </trkpt>
      <trkpt lat="42.7819" lon="42.05596">
        <ele>708.572994</ele>
        <time>2021-08-15T07:06:24.065Z</time>
      </trkpt>
      <trkpt lat="42.78208" lon="42.05622">
        <ele>709.525414</ele>
        <time>2021-08-15T07:06:29.820Z</time>
      </trkpt>
      <trkpt lat="42.78227" lon="42.0567">
        <ele>711.34169</ele>
        <time>2021-08-15T07:06:45.647Z</time>
      </trkpt>
      <trkpt lat="42.78244" lon="42.05679">
        <ele>712.137107</ele>
        <time>2021-08-15T07:06:52.736Z</time>
      </trkpt>
      <trkpt lat="42.78252" lon="42.05679">
        <ele>712.501826</ele>
        <time>2021-08-15T07:06:54.019Z</time>
      </trkpt>
      <trkpt lat="42.7828" lon="42.05672">
        <ele>713.811778</ele>
        <time>2021-08-15T07:07:09.519Z</time>
      </trkpt>
      <trkpt lat="42.78409" lon="42.05666">
        <ele>719.933995</ele>
        <time>2021-08-15T07:08:25.796Z</time>
      </trkpt>
      <trkpt lat="42.78525" lon="42.05609">
        <ele>725.406421</ele>
        <time>2021-08-15T07:09:21.498Z</time>
      </trkpt>
      <trkpt lat="42.78609" lon="42.05621">
        <ele>722.371886</ele>
        <time>2021-08-15T07:09:37.805Z</time>
      </trkpt>
      <trkpt lat="42.78661" lon="42.05597">
        <ele>720.362758</ele>
        <time>2021-08-15T07:09:46.415Z</time>
      </trkpt>
      <trkpt lat="42.78731" lon="42.05552">
        <ele>714.011603</ele>
        <time>2021-08-15T07:09:57.353Z</time>
      </trkpt>
      <trkpt lat="42.7875" lon="42.05534">
        <ele>711.378387</ele>
        <time>2021-08-15T07:10:00.560Z</time>
      </trkpt>
      <trkpt lat="42.78803" lon="42.05456">
        <ele>702.426647</ele>
        <time>2021-08-15T07:10:11.333Z</time>
      </trkpt>
      <trkpt lat="42.78816" lon="42.05393">
        <ele>696.853705</ele>
        <time>2021-08-15T07:10:17.937Z</time>
      </trkpt>
      <trkpt lat="42.78831" lon="42.0528">
        <ele>686.851079</ele>
        <time>2021-08-15T07:10:29.519Z</time>
      </trkpt>
      <trkpt lat="42.78854" lon="42.05187">
        <ele>678.282576</ele>
        <time>2021-08-15T07:10:39.633Z</time>
      </trkpt>
      <trkpt lat="42.7885" lon="42.05158">
        <ele>676.214157</ele>
        <time>2021-08-15T07:10:42.744Z</time>
      </trkpt>
      <trkpt lat="42.78836" lon="42.05134">
        <ele>674.4722</ele>
        <time>2021-08-15T07:10:45.875Z</time>
      </trkpt>
      <trkpt lat="42.78734" lon="42.05071">
        <ele>665.650156</ele>
        <time>2021-08-15T07:11:02.256Z</time>
      </trkpt>
      <trkpt lat="42.7872" lon="42.05058">
        <ele>664.332749</ele>
        <time>2021-08-15T07:11:04.889Z</time>
      </trkpt>
      <trkpt lat="42.78714" lon="42.05042">
        <ele>663.325352</ele>
        <time>2021-08-15T07:11:06.936Z</time>
      </trkpt>
      <trkpt lat="42.78714" lon="42.05004">
        <ele>663.190698</ele>
        <time>2021-08-15T07:11:11.744Z</time>
      </trkpt>
      <trkpt lat="42.7873" lon="42.04936">
        <ele>663.274435</ele>
        <time>2021-08-15T07:11:21.790Z</time>
      </trkpt>
      <trkpt lat="42.78733" lon="42.04903">
        <ele>663.314017</ele>
        <time>2021-08-15T07:11:27.353Z</time>
      </trkpt>
      <trkpt lat="42.78729" lon="42.0482">
        <ele>663.412474</ele>
        <time>2021-08-15T07:11:48.026Z</time>
      </trkpt>
      <trkpt lat="42.78733" lon="42.04789">
        <ele>663.855584</ele>
        <time>2021-08-15T07:11:58.220Z</time>
      </trkpt>
      <trkpt lat="42.7875" lon="42.04735">
        <ele>666.572367</ele>
        <time>2021-08-15T07:12:19.653Z</time>
      </trkpt>
      <trkpt lat="42.7881" lon="42.04644">
        <ele>672.279029</ele>
        <time>2021-08-15T07:13:11.729Z</time>
      </trkpt>
      <trkpt lat="42.78892" lon="42.04535">
        <ele>678.895792</ele>
        <time>2021-08-15T07:14:18.882Z</time>
      </trkpt>
      <trkpt lat="42.78924" lon="42.045">
        <ele>681.129675</ele>
        <time>2021-08-15T07:14:41.395Z</time>
      </trkpt>
      <trkpt lat="42.78939" lon="42.04494">
        <ele>681.974404</ele>
        <time>2021-08-15T07:14:49.506Z</time>
      </trkpt>
      <trkpt lat="42.78965" lon="42.04496">
        <ele>683.403519</ele>
        <time>2021-08-15T07:15:01.952Z</time>
      </trkpt>
      <trkpt lat="42.79074" lon="42.04532">
        <ele>681.736662</ele>
        <time>2021-08-15T07:15:30.629Z</time>
      </trkpt>
      <trkpt lat="42.7909" lon="42.0453">
        <ele>681.205777</ele>
        <time>2021-08-15T07:15:33.248Z</time>
      </trkpt>
      <trkpt lat="42.79112" lon="42.04519">
        <ele>680.435222</ele>
        <time>2021-08-15T07:15:36.841Z</time>
      </trkpt>
      <trkpt lat="42.79191" lon="42.04467">
        <ele>675.15174</ele>
        <time>2021-08-15T07:15:49.419Z</time>
      </trkpt>
      <trkpt lat="42.79206" lon="42.0445">
        <ele>673.174767</ele>
        <time>2021-08-15T07:15:52.188Z</time>
      </trkpt>
      <trkpt lat="42.79279" lon="42.04336">
        <ele>662.154793</ele>
        <time>2021-08-15T07:16:07.598Z</time>
      </trkpt>
      <trkpt lat="42.7932" lon="42.04265">
        <ele>659.422051</ele>
        <time>2021-08-15T07:16:18.180Z</time>
      </trkpt>
      <trkpt lat="42.79336" lon="42.04247">
        <ele>658.858534</ele>
        <time>2021-08-15T07:16:21.910Z</time>
      </trkpt>
      <trkpt lat="42.79353" lon="42.0424">
        <ele>658.389504</ele>
        <time>2021-08-15T07:16:24.960Z</time>
      </trkpt>
      <trkpt lat="42.79379" lon="42.0424">
        <ele>657.66531</ele>
        <time>2021-08-15T07:16:30.516Z</time>
      </trkpt>
      <trkpt lat="42.79392" lon="42.04246">
        <ele>657.289718</ele>
        <time>2021-08-15T07:16:33.144Z</time>
      </trkpt>
      <trkpt lat="42.7941" lon="42.04261">
        <ele>656.723884</ele>
        <time>2021-08-15T07:16:38.931Z</time>
      </trkpt>
      <trkpt lat="42.7945" lon="42.04286">
        <ele>655.466274</ele>
        <time>2021-08-15T07:16:49.090Z</time>
      </trkpt>
      <trkpt lat="42.79482" lon="42.04294">
        <ele>654.448066</ele>
        <time>2021-08-15T07:16:57.488Z</time>
      </trkpt>
      <trkpt lat="42.79518" lon="42.04289">
        <ele>653.338945</ele>
        <time>2021-08-15T07:17:05.129Z</time>
      </trkpt>
      <trkpt lat="42.79625" lon="42.04229">
        <ele>649.113646</ele>
        <time>2021-08-15T07:17:23.077Z</time>
      </trkpt>
      <trkpt lat="42.79656" lon="42.04205">
        <ele>646.92916</ele>
        <time>2021-08-15T07:17:28.280Z</time>
      </trkpt>
      <trkpt lat="42.79739" lon="42.04108">
        <ele>640.22888</ele>
        <time>2021-08-15T07:17:44.860Z</time>
      </trkpt>
      <trkpt lat="42.79771" lon="42.04076">
        <ele>639.272614</ele>
        <time>2021-08-15T07:17:51.494Z</time>
      </trkpt>
      <trkpt lat="42.79818" lon="42.04042">
        <ele>638.920748</ele>
        <time>2021-08-15T07:18:01.850Z</time>
      </trkpt>
      <trkpt lat="42.79848" lon="42.04034">
        <ele>638.716286</ele>
        <time>2021-08-15T07:18:09.369Z</time>
      </trkpt>
      <trkpt lat="42.79881" lon="42.04035">
        <ele>638.499977</ele>
        <time>2021-08-15T07:18:19.148Z</time>
      </trkpt>
      <trkpt lat="42.79929" lon="42.04044">
        <ele>638.077602</ele>
        <time>2021-08-15T07:18:34.347Z</time>
      </trkpt>
      <trkpt lat="42.79962" lon="42.04058">
        <ele>637.526316</ele>
        <time>2021-08-15T07:18:44.179Z</time>
      </trkpt>
      <trkpt lat="42.79993" lon="42.04113">
        <ele>636.700223</ele>
        <time>2021-08-15T07:18:55.185Z</time>
      </trkpt>
      <trkpt lat="42.8001" lon="42.04134">
        <ele>636.336506</ele>
        <time>2021-08-15T07:18:59.197Z</time>
      </trkpt>
      <trkpt lat="42.80065" lon="42.04178">
        <ele>635.154734</ele>
        <time>2021-08-15T07:19:09.557Z</time>
      </trkpt>
      <trkpt lat="42.80078" lon="42.04199">
        <ele>634.139186</ele>
        <time>2021-08-15T07:19:12.668Z</time>
      </trkpt>
      <trkpt lat="42.80096" lon="42.04256">
        <ele>631.75467</ele>
        <time>2021-08-15T07:19:19.835Z</time>
      </trkpt>
      <trkpt lat="42.80123" lon="42.04289">
        <ele>629.861221</ele>
        <time>2021-08-15T07:19:25.504Z</time>
      </trkpt>
      <trkpt lat="42.80156" lon="42.04303">
        <ele>628.084218</ele>
        <time>2021-08-15T07:19:30.837Z</time>
      </trkpt>
      <trkpt lat="42.80169" lon="42.04302">
        <ele>627.386296</ele>
        <time>2021-08-15T07:19:32.965Z</time>
      </trkpt>
      <trkpt lat="42.80216" lon="42.04281">
        <ele>624.921475</ele>
        <time>2021-08-15T07:19:40.638Z</time>
      </trkpt>
      <trkpt lat="42.8023" lon="42.04281">
        <ele>624.227452</ele>
        <time>2021-08-15T07:19:42.911Z</time>
      </trkpt>
      <trkpt lat="42.80261" lon="42.04297">
        <ele>622.611546</ele>
        <time>2021-08-15T07:19:48.375Z</time>
      </trkpt>
      <trkpt lat="42.80273" lon="42.04308">
        <ele>621.903707</ele>
        <time>2021-08-15T07:19:50.901Z</time>
      </trkpt>
      <trkpt lat="42.80333" lon="42.0442">
        <ele>616.885027</ele>
        <time>2021-08-15T07:20:07.246Z</time>
      </trkpt>
      <trkpt lat="42.80353" lon="42.04436">
        <ele>615.343578</ele>
        <time>2021-08-15T07:20:10.779Z</time>
      </trkpt>
      <trkpt lat="42.80399" lon="42.04439">
        <ele>612.387778</ele>
        <time>2021-08-15T07:20:17.449Z</time>
      </trkpt>
      <trkpt lat="42.80415" lon="42.04434">
        <ele>611.279141</ele>
        <time>2021-08-15T07:20:19.948Z</time>
      </trkpt>
      <trkpt lat="42.80498" lon="42.04376">
        <ele>605.715362</ele>
        <time>2021-08-15T07:20:33.961Z</time>
      </trkpt>
      <trkpt lat="42.80516" lon="42.0436">
        <ele>606.183008</ele>
        <time>2021-08-15T07:20:37.422Z</time>
      </trkpt>
      <trkpt lat="42.80528" lon="42.04339">
        <ele>606.616266</ele>
        <time>2021-08-15T07:20:40.767Z</time>
      </trkpt>
      <trkpt lat="42.80545" lon="42.0429">
        <ele>607.476018</ele>
        <time>2021-08-15T07:20:48.608Z</time>
      </trkpt>
      <trkpt lat="42.80555" lon="42.04273">
        <ele>607.831014</ele>
        <time>2021-08-15T07:20:53.994Z</time>
      </trkpt>
      <trkpt lat="42.80588" lon="42.04243">
        <ele>608.69225</ele>
        <time>2021-08-15T07:21:12.775Z</time>
      </trkpt>
      <trkpt lat="42.80605" lon="42.04235">
        <ele>609.08403</ele>
        <time>2021-08-15T07:21:23.918Z</time>
      </trkpt>
      <trkpt lat="42.80619" lon="42.04234">
        <ele>609.390023</ele>
        <time>2021-08-15T07:21:34.384Z</time>
      </trkpt>
      <trkpt lat="42.80688" lon="42.0424">
        <ele>617.792737</ele>
        <time>2021-08-15T07:22:34.566Z</time>
      </trkpt>
      <trkpt lat="42.8076" lon="42.04265">
        <ele>627.424724</ele>
        <time>2021-08-15T07:23:47.582Z</time>
      </trkpt>
      <trkpt lat="42.80781" lon="42.04279">
        <ele>630.44557</ele>
        <time>2021-08-15T07:24:10.185Z</time>
      </trkpt>
      <trkpt lat="42.80865" lon="42.0436">
        <ele>634.212835</ele>
        <time>2021-08-15T07:25:29.559Z</time>
      </trkpt>
      <trkpt lat="42.80926" lon="42.04405">
        <ele>635.329467</ele>
        <time>2021-08-15T07:25:45.106Z</time>
      </trkpt>
      <trkpt lat="42.81012" lon="42.04478">
        <ele>619.696636</ele>
        <time>2021-08-15T07:25:58.481Z</time>
      </trkpt>
      <trkpt lat="42.81026" lon="42.04481">
        <ele>616.720275</ele>
        <time>2021-08-15T07:26:00.277Z</time>
      </trkpt>
      <trkpt lat="42.81039" lon="42.04477">
        <ele>613.759775</ele>
        <time>2021-08-15T07:26:02.088Z</time>
      </trkpt>
      <trkpt lat="42.8105" lon="42.04467">
        <ele>610.888663</ele>
        <time>2021-08-15T07:26:03.831Z</time>
      </trkpt>
      <trkpt lat="42.81056" lon="42.0445">
        <ele>607.915649</ele>
        <time>2021-08-15T07:26:05.642Z</time>
      </trkpt>
      <trkpt lat="42.81059" lon="42.04424">
        <ele>603.839317</ele>
        <time>2021-08-15T07:26:08.152Z</time>
      </trkpt>
      <trkpt lat="42.81054" lon="42.04387">
        <ele>597.996108</ele>
        <time>2021-08-15T07:26:11.737Z</time>
      </trkpt>
      <trkpt lat="42.81032" lon="42.04315">
        <ele>586.436926</ele>
        <time>2021-08-15T07:26:19.275Z</time>
      </trkpt>
      <trkpt lat="42.81033" lon="42.04189">
        <ele>568.011255</ele>
        <time>2021-08-15T07:26:31.300Z</time>
      </trkpt>
      <trkpt lat="42.81027" lon="42.04076">
        <ele>560.46951</ele>
        <time>2021-08-15T07:26:43.339Z</time>
      </trkpt>
      <trkpt lat="42.81019" lon="42.04048">
        <ele>560.132712</ele>
        <time>2021-08-15T07:26:46.887Z</time>
      </trkpt>
      <trkpt lat="42.80973" lon="42.03949">
        <ele>558.825828</ele>
        <time>2021-08-15T07:27:10.709Z</time>
      </trkpt>
      <trkpt lat="42.80954" lon="42.03893">
        <ele>561.107017</ele>
        <time>2021-08-15T07:27:38.283Z</time>
      </trkpt>
      <trkpt lat="42.80953" lon="42.03862">
        <ele>563.700448</ele>
        <time>2021-08-15T07:27:55.402Z</time>
      </trkpt>
      <trkpt lat="42.8096" lon="42.03838">
        <ele>565.894443</ele>
        <time>2021-08-15T07:28:10.943Z</time>
      </trkpt>
      <trkpt lat="42.81043" lon="42.03719">
        <ele>579.583448</ele>
        <time>2021-08-15T07:30:00.530Z</time>
      </trkpt>
      <trkpt lat="42.81116" lon="42.03638">
        <ele>588.677061</ele>
        <time>2021-08-15T07:31:18.623Z</time>
      </trkpt>
      <trkpt lat="42.81183" lon="42.03583">
        <ele>596.288646</ele>
        <time>2021-08-15T07:32:03.776Z</time>
      </trkpt>
      <trkpt lat="42.81236" lon="42.03514">
        <ele>598.977772</ele>
        <time>2021-08-15T07:32:35.401Z</time>
      </trkpt>
      <trkpt lat="42.81284" lon="42.03478">
        <ele>600.870734</ele>
        <time>2021-08-15T07:32:56.017Z</time>
      </trkpt>
      <trkpt lat="42.81306" lon="42.03441">
        <ele>602.06898</ele>
        <time>2021-08-15T07:33:07.486Z</time>
      </trkpt>
      <trkpt lat="42.81314" lon="42.03385">
        <ele>603.079421</ele>
        <time>2021-08-15T07:33:20.104Z</time>
      </trkpt>
      <trkpt lat="42.81324" lon="42.03361">
        <ele>603.378567</ele>
        <time>2021-08-15T07:33:25.925Z</time>
      </trkpt>
      <trkpt lat="42.81338" lon="42.03343">
        <ele>603.683442</ele>
        <time>2021-08-15T07:33:31.625Z</time>
      </trkpt>
      <trkpt lat="42.8136" lon="42.03329">
        <ele>604.061201</ele>
        <time>2021-08-15T07:33:38.981Z</time>
      </trkpt>
      <trkpt lat="42.81492" lon="42.03281">
        <ele>605.15452</ele>
        <time>2021-08-15T07:34:20.387Z</time>
      </trkpt>
      <trkpt lat="42.81507" lon="42.03255">
        <ele>604.970041</ele>
        <time>2021-08-15T07:34:25.651Z</time>
      </trkpt>
      <trkpt lat="42.81506" lon="42.03194">
        <ele>604.627165</ele>
        <time>2021-08-15T07:34:34.624Z</time>
      </trkpt>
      <trkpt lat="42.81517" lon="42.03153">
        <ele>604.383895</ele>
        <time>2021-08-15T07:34:40.852Z</time>
      </trkpt>
      <trkpt lat="42.81525" lon="42.03143">
        <ele>604.299969</ele>
        <time>2021-08-15T07:34:42.922Z</time>
      </trkpt>
      <trkpt lat="42.81547" lon="42.03137">
        <ele>604.130958</ele>
        <time>2021-08-15T07:34:47.396Z</time>
      </trkpt>
      <trkpt lat="42.81666" lon="42.03168">
        <ele>597.727373</ele>
        <time>2021-08-15T07:35:06.359Z</time>
      </trkpt>
      <trkpt lat="42.81684" lon="42.03165">
        <ele>596.737309</ele>
        <time>2021-08-15T07:35:09.517Z</time>
      </trkpt>
      <trkpt lat="42.8171" lon="42.03136">
        <ele>594.946155</ele>
        <time>2021-08-15T07:35:14.386Z</time>
      </trkpt>
      <trkpt lat="42.81716" lon="42.03117">
        <ele>594.193136</ele>
        <time>2021-08-15T07:35:16.504Z</time>
      </trkpt>
      <trkpt lat="42.8172" lon="42.03083">
        <ele>593.202939</ele>
        <time>2021-08-15T07:35:21.186Z</time>
      </trkpt>
      <trkpt lat="42.81721" lon="42.03075">
        <ele>592.97188</ele>
        <time>2021-08-15T07:35:21.951Z</time>
      </trkpt>
      <trkpt lat="42.81721" lon="42.03064">
        <ele>592.632918</ele>
        <time>2021-08-15T07:35:23.370Z</time>
      </trkpt>
      <trkpt lat="42.81724" lon="42.03022">
        <ele>591.420113</ele>
        <time>2021-08-15T07:35:28.153Z</time>
      </trkpt>
      <trkpt lat="42.81727" lon="42.02951">
        <ele>589.339728</ele>
        <time>2021-08-15T07:35:37.394Z</time>
      </trkpt>
      <trkpt lat="42.81737" lon="42.02925">
        <ele>588.510265</ele>
        <time>2021-08-15T07:35:40.574Z</time>
      </trkpt>
      <trkpt lat="42.81799" lon="42.02879">
        <ele>588.68455</ele>
        <time>2021-08-15T07:35:56.937Z</time>
      </trkpt>
      <trkpt lat="42.81875" lon="42.02862">
        <ele>591.394802</ele>
        <time>2021-08-15T07:36:33.828Z</time>
      </trkpt>
      <trkpt lat="42.81944" lon="42.02783">
        <ele>594.814735</ele>
        <time>2021-08-15T07:37:15.769Z</time>
      </trkpt>
      <trkpt lat="42.82017" lon="42.02717">
        <ele>598.858545</ele>
        <time>2021-08-15T07:37:57.361Z</time>
      </trkpt>
      <trkpt lat="42.82048" lon="42.02709">
        <ele>600.31691</ele>
        <time>2021-08-15T07:38:12.200Z</time>
      </trkpt>
      <trkpt lat="42.82097" lon="42.02719">
        <ele>602.315217</ele>
        <time>2021-08-15T07:38:33.077Z</time>
      </trkpt>
      <trkpt lat="42.82198" lon="42.02688">
        <ele>605.442935</ele>
        <time>2021-08-15T07:39:08.760Z</time>
      </trkpt>
      <trkpt lat="42.82247" lon="42.02637">
        <ele>607.373374</ele>
        <time>2021-08-15T07:39:29.893Z</time>
      </trkpt>
      <trkpt lat="42.82286" lon="42.0262">
        <ele>609.845317</ele>
        <time>2021-08-15T07:39:47.833Z</time>
      </trkpt>
      <trkpt lat="42.82345" lon="42.02573">
        <ele>614.025401</ele>
        <time>2021-08-15T07:40:22.174Z</time>
      </trkpt>
      <trkpt lat="42.82366" lon="42.02563">
        <ele>615.405557</ele>
        <time>2021-08-15T07:40:35.074Z</time>
      </trkpt>
      <trkpt lat="42.82394" lon="42.02568">
        <ele>617.112389</ele>
        <time>2021-08-15T07:40:52.505Z</time>
      </trkpt>
      <trkpt lat="42.8242" lon="42.0259">
        <ele>619.199573</ele>
        <time>2021-08-15T07:41:12.787Z</time>
      </trkpt>
      <trkpt lat="42.82487" lon="42.02714">
        <ele>628.622897</ele>
        <time>2021-08-15T07:42:34.339Z</time>
      </trkpt>
      <trkpt lat="42.82521" lon="42.02759">
        <ele>632.528207</ele>
        <time>2021-08-15T07:43:00.965Z</time>
      </trkpt>
      <trkpt lat="42.82553" lon="42.0278">
        <ele>631.330824</ele>
        <time>2021-08-15T07:43:22.189Z</time>
      </trkpt>
      <trkpt lat="42.82619" lon="42.02787">
        <ele>627.180519</ele>
        <time>2021-08-15T07:43:36.603Z</time>
      </trkpt>
      <trkpt lat="42.82678" lon="42.02819">
        <ele>623.194061</ele>
        <time>2021-08-15T07:43:45.192Z</time>
      </trkpt>
      <trkpt lat="42.82695" lon="42.0283">
        <ele>622.039772</ele>
        <time>2021-08-15T07:43:47.638Z</time>
      </trkpt>
      <trkpt lat="42.82714" lon="42.02836">
        <ele>618.240151</ele>
        <time>2021-08-15T07:43:50.259Z</time>
      </trkpt>
      <trkpt lat="42.82748" lon="42.02833">
        <ele>611.188941</ele>
        <time>2021-08-15T07:43:54.589Z</time>
      </trkpt>
      <trkpt lat="42.82756" lon="42.02824">
        <ele>608.99832</ele>
        <time>2021-08-15T07:43:56.008Z</time>
      </trkpt>
      <trkpt lat="42.8276" lon="42.02813">
        <ele>606.970152</ele>
        <time>2021-08-15T07:43:57.290Z</time>
      </trkpt>
      <trkpt lat="42.82759" lon="42.02773">
        <ele>600.798566</ele>
        <time>2021-08-15T07:44:01.114Z</time>
      </trkpt>
      <trkpt lat="42.82752" lon="42.02747">
        <ele>596.524655</ele>
        <time>2021-08-15T07:44:03.763Z</time>
      </trkpt>
      <trkpt lat="42.82721" lon="42.02674">
        <ele>583.651248</ele>
        <time>2021-08-15T07:44:11.881Z</time>
      </trkpt>
      <trkpt lat="42.82708" lon="42.02616">
        <ele>580.89403</ele>
        <time>2021-08-15T07:44:17.739Z</time>
      </trkpt>
      <trkpt lat="42.82707" lon="42.02529">
        <ele>576.907512</ele>
        <time>2021-08-15T07:44:27.823Z</time>
      </trkpt>
      <trkpt lat="42.82715" lon="42.02475">
        <ele>574.379044</ele>
        <time>2021-08-15T07:44:38.572Z</time>
      </trkpt>
      <trkpt lat="42.82734" lon="42.02449">
        <ele>572.735082</ele>
        <time>2021-08-15T07:44:49.800Z</time>
      </trkpt>
      <trkpt lat="42.82838" lon="42.02351">
        <ele>581.899086</ele>
        <time>2021-08-15T07:46:09.111Z</time>
      </trkpt>
      <trkpt lat="42.82964" lon="42.02268">
        <ele>593.366158</ele>
        <time>2021-08-15T07:47:40.026Z</time>
      </trkpt>
      <trkpt lat="42.83" lon="42.02218">
        <ele>597.83741</ele>
        <time>2021-08-15T07:48:11.193Z</time>
      </trkpt>
      <trkpt lat="42.83033" lon="42.02138">
        <ele>603.827955</ele>
        <time>2021-08-15T07:48:58.525Z</time>
      </trkpt>
      <trkpt lat="42.83049" lon="42.02119">
        <ele>605.756386</ele>
        <time>2021-08-15T07:49:13.941Z</time>
      </trkpt>
      <trkpt lat="42.83062" lon="42.0212">
        <ele>606.989239</ele>
        <time>2021-08-15T07:49:23.995Z</time>
      </trkpt>
      <trkpt lat="42.83074" lon="42.0213">
        <ele>608.353088</ele>
        <time>2021-08-15T07:49:34.937Z</time>
      </trkpt>
      <trkpt lat="42.8314" lon="42.02211">
        <ele>616.541891</ele>
        <time>2021-08-15T07:50:45.685Z</time>
      </trkpt>
      <trkpt lat="42.83256" lon="42.02419">
        <ele>621.499034</ele>
        <time>2021-08-15T07:51:56.525Z</time>
      </trkpt>
      <trkpt lat="42.83281" lon="42.02436">
        <ele>619.702754</ele>
        <time>2021-08-15T07:52:00.625Z</time>
      </trkpt>
      <trkpt lat="42.83295" lon="42.02435">
        <ele>618.310762</ele>
        <time>2021-08-15T07:52:02.885Z</time>
      </trkpt>
      <trkpt lat="42.83307" lon="42.0243">
        <ele>617.11114</ele>
        <time>2021-08-15T07:52:04.594Z</time>
      </trkpt>
      <trkpt lat="42.83318" lon="42.02421">
        <ele>615.829061</ele>
        <time>2021-08-15T07:52:06.365Z</time>
      </trkpt>
      <trkpt lat="42.83338" lon="42.02394">
        <ele>613.061309</ele>
        <time>2021-08-15T07:52:10.349Z</time>
      </trkpt>
      <trkpt lat="42.83412" lon="42.02247">
        <ele>602.155148</ele>
        <time>2021-08-15T07:52:28.248Z</time>
      </trkpt>
      <trkpt lat="42.83468" lon="42.02161">
        <ele>597.990643</ele>
        <time>2021-08-15T07:52:42.296Z</time>
      </trkpt>
      <trkpt lat="42.83511" lon="42.02098">
        <ele>595.170318</ele>
        <time>2021-08-15T07:52:54.781Z</time>
      </trkpt>
      <trkpt lat="42.83599" lon="42.02004">
        <ele>595.575506</ele>
        <time>2021-08-15T07:53:25.177Z</time>
      </trkpt>
      <trkpt lat="42.83735" lon="42.01885">
        <ele>596.495758</ele>
        <time>2021-08-15T07:54:02.660Z</time>
      </trkpt>
      <trkpt lat="42.83842" lon="42.0181">
        <ele>598.696895</ele>
        <time>2021-08-15T07:54:35.837Z</time>
      </trkpt>
      <trkpt lat="42.83931" lon="42.01711">
        <ele>603.492696</ele>
        <time>2021-08-15T07:55:23.094Z</time>
      </trkpt>
      <trkpt lat="42.83956" lon="42.01703">
        <ele>604.669473</ele>
        <time>2021-08-15T07:55:37.102Z</time>
      </trkpt>
      <trkpt lat="42.84025" lon="42.01716">
        <ele>614.82297</ele>
        <time>2021-08-15T07:56:29.632Z</time>
      </trkpt>
      <trkpt lat="42.84096" lon="42.01707">
        <ele>625.183574</ele>
        <time>2021-08-15T07:57:41.458Z</time>
      </trkpt>
      <trkpt lat="42.84109" lon="42.0171">
        <ele>627.250501</ele>
        <time>2021-08-15T07:57:58.106Z</time>
      </trkpt>
      <trkpt lat="42.84204" lon="42.01742">
        <ele>643.216774</ele>
        <time>2021-08-15T08:00:11.691Z</time>
      </trkpt>
      <trkpt lat="42.8436" lon="42.01802">
        <ele>660.882403</ele>
        <time>2021-08-15T08:02:42.869Z</time>
      </trkpt>
      <trkpt lat="42.8439" lon="42.01821">
        <ele>660.557759</ele>
        <time>2021-08-15T08:02:49.751Z</time>
      </trkpt>
      <trkpt lat="42.84411" lon="42.01837">
        <ele>660.317376</ele>
        <time>2021-08-15T08:02:53.444Z</time>
      </trkpt>
      <trkpt lat="42.84546" lon="42.01906">
        <ele>654.182122</ele>
        <time>2021-08-15T08:03:13.389Z</time>
      </trkpt>
      <trkpt lat="42.84604" lon="42.02029">
        <ele>646.720136</ele>
        <time>2021-08-15T08:03:31.034Z</time>
      </trkpt>
      <trkpt lat="42.84617" lon="42.02041">
        <ele>646.337324</ele>
        <time>2021-08-15T08:03:33.907Z</time>
      </trkpt>
      <trkpt lat="42.84645" lon="42.02055">
        <ele>645.58647</ele>
        <time>2021-08-15T08:03:39.686Z</time>
      </trkpt>
      <trkpt lat="42.84693" lon="42.02059">
        <ele>644.383593</ele>
        <time>2021-08-15T08:03:49.177Z</time>
      </trkpt>
      <trkpt lat="42.84705" lon="42.02066">
        <ele>644.070711</ele>
        <time>2021-08-15T08:03:51.640Z</time>
      </trkpt>
      <trkpt lat="42.84751" lon="42.0214">
        <ele>642.144061</ele>
        <time>2021-08-15T08:04:04.741Z</time>
      </trkpt>
      <trkpt lat="42.84783" lon="42.02165">
        <ele>638.727247</ele>
        <time>2021-08-15T08:04:10.500Z</time>
      </trkpt>
      <trkpt lat="42.84831" lon="42.0216">
        <ele>634.208559</ele>
        <time>2021-08-15T08:04:17.380Z</time>
      </trkpt>
      <trkpt lat="42.84888" lon="42.02091">
        <ele>626.982503</ele>
        <time>2021-08-15T08:04:27.928Z</time>
      </trkpt>
      <trkpt lat="42.84914" lon="42.02071">
        <ele>624.393963</ele>
        <time>2021-08-15T08:04:32.005Z</time>
      </trkpt>
      <trkpt lat="42.84929" lon="42.02074">
        <ele>623.152745</ele>
        <time>2021-08-15T08:04:34.168Z</time>
      </trkpt>
      <trkpt lat="42.84976" lon="42.02124">
        <ele>618.356943</ele>
        <time>2021-08-15T08:04:42.700Z</time>
      </trkpt>
      <trkpt lat="42.85012" lon="42.02133">
        <ele>615.387557</ele>
        <time>2021-08-15T08:04:48.170Z</time>
      </trkpt>
      <trkpt lat="42.8505" lon="42.02125">
        <ele>612.279863</ele>
        <time>2021-08-15T08:04:53.992Z</time>
      </trkpt>
      <trkpt lat="42.85139" lon="42.02083">
        <ele>609.040622</ele>
        <time>2021-08-15T08:05:09.897Z</time>
      </trkpt>
      <trkpt lat="42.85166" lon="42.0209">
        <ele>608.375583</ele>
        <time>2021-08-15T08:05:15.279Z</time>
      </trkpt>
      <trkpt lat="42.85263" lon="42.02174">
        <ele>606.462604</ele>
        <time>2021-08-15T08:05:37.363Z</time>
      </trkpt>
      <trkpt lat="42.85413" lon="42.02212">
        <ele>606.590857</ele>
        <time>2021-08-15T08:06:10.201Z</time>
      </trkpt>
      <trkpt lat="42.8544" lon="42.02239">
        <ele>607.649576</ele>
        <time>2021-08-15T08:06:22.609Z</time>
      </trkpt>
      <trkpt lat="42.855" lon="42.02316">
        <ele>610.271327</ele>
        <time>2021-08-15T08:06:57.239Z</time>
      </trkpt>
      <trkpt lat="42.85572" lon="42.02439">
        <ele>612.93042</ele>
        <time>2021-08-15T08:07:47.029Z</time>
      </trkpt>
      <trkpt lat="42.85609" lon="42.02526">
        <ele>614.095463</ele>
        <time>2021-08-15T08:08:09.683Z</time>
      </trkpt>
      <trkpt lat="42.85632" lon="42.02564">
        <ele>614.656842</ele>
        <time>2021-08-15T08:08:16.821Z</time>
      </trkpt>
      <trkpt lat="42.85663" lon="42.02598">
        <ele>613.552979</ele>
        <time>2021-08-15T08:08:23.821Z</time>
      </trkpt>
      <trkpt lat="42.85691" lon="42.02615">
        <ele>612.399191</ele>
        <time>2021-08-15T08:08:29.020Z</time>
      </trkpt>
      <trkpt lat="42.85714" lon="42.0262">
        <ele>611.542072</ele>
        <time>2021-08-15T08:08:32.805Z</time>
      </trkpt>
      <trkpt lat="42.8575" lon="42.0266">
        <ele>609.850433</ele>
        <time>2021-08-15T08:08:40.240Z</time>
      </trkpt>
      <trkpt lat="42.85783" lon="42.0267">
        <ele>608.606376</ele>
        <time>2021-08-15T08:08:45.610Z</time>
      </trkpt>
      <trkpt lat="42.858" lon="42.02666">
        <ele>608.09998</ele>
        <time>2021-08-15T08:08:48.296Z</time>
      </trkpt>
      <trkpt lat="42.85831" lon="42.02642">
        <ele>607.721301</ele>
        <time>2021-08-15T08:08:54.187Z</time>
      </trkpt>
      <trkpt lat="42.8589" lon="42.02611">
        <ele>607.057907</ele>
        <time>2021-08-15T08:09:05.654Z</time>
      </trkpt>
      <trkpt lat="42.85916" lon="42.02615">
        <ele>606.787333</ele>
        <time>2021-08-15T08:09:11.520Z</time>
      </trkpt>
      <trkpt lat="42.85925" lon="42.02624">
        <ele>606.668252</ele>
        <time>2021-08-15T08:09:14.539Z</time>
      </trkpt>
      <trkpt lat="42.85946" lon="42.02657">
        <ele>606.332677</ele>
        <time>2021-08-15T08:09:24.960Z</time>
      </trkpt>
      <trkpt lat="42.86024" lon="42.02829">
        <ele>611.174314</ele>
        <time>2021-08-15T08:10:26.186Z</time>
      </trkpt>
      <trkpt lat="42.86046" lon="42.02863">
        <ele>612.346857</ele>
        <time>2021-08-15T08:10:40.735Z</time>
      </trkpt>
      <trkpt lat="42.86091" lon="42.02906">
        <ele>613.346537</ele>
        <time>2021-08-15T08:11:01.949Z</time>
      </trkpt>
      <trkpt lat="42.86227" lon="42.0298">
        <ele>614.910546</ele>
        <time>2021-08-15T08:11:44.172Z</time>
      </trkpt>
      <trkpt lat="42.86279" lon="42.0303">
        <ele>612.612758</ele>
        <time>2021-08-15T08:11:55.365Z</time>
      </trkpt>
      <trkpt lat="42.86288" lon="42.03048">
        <ele>612.036415</ele>
        <time>2021-08-15T08:11:58.025Z</time>
      </trkpt>
      <trkpt lat="42.86289" lon="42.03061">
        <ele>611.698561</ele>
        <time>2021-08-15T08:11:59.579Z</time>
      </trkpt>
      <trkpt lat="42.86283" lon="42.0308">
        <ele>611.166516</ele>
        <time>2021-08-15T08:12:01.997Z</time>
      </trkpt>
      <trkpt lat="42.86254" lon="42.03108">
        <ele>609.905317</ele>
        <time>2021-08-15T08:12:07.596Z</time>
      </trkpt>
      <trkpt lat="42.86234" lon="42.03148">
        <ele>608.099414</ele>
        <time>2021-08-15T08:12:13.099Z</time>
      </trkpt>
      <trkpt lat="42.86228" lon="42.03183">
        <ele>606.012566</ele>
        <time>2021-08-15T08:12:16.911Z</time>
      </trkpt>
      <trkpt lat="42.86253" lon="42.03283">
        <ele>599.813724</ele>
        <time>2021-08-15T08:12:27.928Z</time>
      </trkpt>
      <trkpt lat="42.8625" lon="42.03303">
        <ele>598.635797</ele>
        <time>2021-08-15T08:12:30.030Z</time>
      </trkpt>
      <trkpt lat="42.86237" lon="42.03324">
        <ele>596.98518</ele>
        <time>2021-08-15T08:12:33.052Z</time>
      </trkpt>
      <trkpt lat="42.86218" lon="42.03327">
        <ele>595.457775</ele>
        <time>2021-08-15T08:12:35.890Z</time>
      </trkpt>
      <trkpt lat="42.86165" lon="42.03279">
        <ele>593.700679</ele>
        <time>2021-08-15T08:12:45.937Z</time>
      </trkpt>
      <trkpt lat="42.86127" lon="42.0326">
        <ele>592.986806</ele>
        <time>2021-08-15T08:12:53.047Z</time>
      </trkpt>
      <trkpt lat="42.86114" lon="42.03261">
        <ele>592.761552</ele>
        <time>2021-08-15T08:12:55.445Z</time>
      </trkpt>
      <trkpt lat="42.86077" lon="42.03276">
        <ele>592.093373</ele>
        <time>2021-08-15T08:13:03.593Z</time>
      </trkpt>
      <trkpt lat="42.86057" lon="42.03274">
        <ele>591.74261</ele>
        <time>2021-08-15T08:13:09.924Z</time>
      </trkpt>
      <trkpt lat="42.86048" lon="42.03269">
        <ele>591.575048</ele>
        <time>2021-08-15T08:13:13.454Z</time>
      </trkpt>
      <trkpt lat="42.8601" lon="42.03222">
        <ele>594.415531</ele>
        <time>2021-08-15T08:13:37.013Z</time>
      </trkpt>
      <trkpt lat="42.85983" lon="42.03208">
        <ele>596.278115</ele>
        <time>2021-08-15T08:13:52.397Z</time>
      </trkpt>
      <trkpt lat="42.85956" lon="42.03216">
        <ele>598.00334</ele>
        <time>2021-08-15T08:14:07.681Z</time>
      </trkpt>
      <trkpt lat="42.85906" lon="42.03256">
        <ele>601.738247</ele>
        <time>2021-08-15T08:14:43.230Z</time>
      </trkpt>
      <trkpt lat="42.8586" lon="42.03282">
        <ele>605.685341</ele>
        <time>2021-08-15T08:15:16.709Z</time>
      </trkpt>
      <trkpt lat="42.85842" lon="42.03297">
        <ele>607.646744</ele>
        <time>2021-08-15T08:15:30.647Z</time>
      </trkpt>
      <trkpt lat="42.85833" lon="42.03312">
        <ele>608.867642</ele>
        <time>2021-08-15T08:15:40.655Z</time>
      </trkpt>
      <trkpt lat="42.85832" lon="42.0332">
        <ele>609.400397</ele>
        <time>2021-08-15T08:15:47.117Z</time>
      </trkpt>
      <trkpt lat="42.85835" lon="42.03345">
        <ele>611.087254</ele>
        <time>2021-08-15T08:15:56.700Z</time>
      </trkpt>
      <trkpt lat="42.85839" lon="42.0335">
        <ele>611.593514</ele>
        <time>2021-08-15T08:16:01.920Z</time>
      </trkpt>
      <trkpt lat="42.8587" lon="42.03358">
        <ele>614.387911</ele>
        <time>2021-08-15T08:16:21.634Z</time>
      </trkpt>
      <trkpt lat="42.85936" lon="42.03357">
        <ele>620.214604</ele>
        <time>2021-08-15T08:17:07.675Z</time>
      </trkpt>
      <trkpt lat="42.85965" lon="42.03366">
        <ele>622.43593</ele>
        <time>2021-08-15T08:17:29.494Z</time>
      </trkpt>
      <trkpt lat="42.86033" lon="42.03439">
        <ele>628.976503</ele>
        <time>2021-08-15T08:18:23.348Z</time>
      </trkpt>
      <trkpt lat="42.86071" lon="42.03455">
        <ele>631.935768</ele>
        <time>2021-08-15T08:18:43.696Z</time>
      </trkpt>
      <trkpt lat="42.86138" lon="42.03454">
        <ele>633.956439</ele>
        <time>2021-08-15T08:19:13.505Z</time>
      </trkpt>
      <trkpt lat="42.8622" lon="42.03533">
        <ele>636.157384</ele>
        <time>2021-08-15T08:19:50.170Z</time>
      </trkpt>
      <trkpt lat="42.86337" lon="42.03556">
        <ele>629.015942</ele>
        <time>2021-08-15T08:20:09.442Z</time>
      </trkpt>
      <trkpt lat="42.86382" lon="42.03544">
        <ele>625.421354</ele>
        <time>2021-08-15T08:20:15.796Z</time>
      </trkpt>
      <trkpt lat="42.86417" lon="42.03554">
        <ele>622.557876</ele>
        <time>2021-08-15T08:20:20.681Z</time>
      </trkpt>
      <trkpt lat="42.86452" lon="42.03573">
        <ele>616.964258</ele>
        <time>2021-08-15T08:20:25.664Z</time>
      </trkpt>
      <trkpt lat="42.86466" lon="42.03564">
        <ele>614.46377</ele>
        <time>2021-08-15T08:20:27.772Z</time>
      </trkpt>
      <trkpt lat="42.86491" lon="42.03511">
        <ele>607.287163</ele>
        <time>2021-08-15T08:20:33.835Z</time>
      </trkpt>
      <trkpt lat="42.86491" lon="42.035">
        <ele>605.971896</ele>
        <time>2021-08-15T08:20:34.946Z</time>
      </trkpt>
      <trkpt lat="42.86473" lon="42.03466">
        <ele>601.238762</ele>
        <time>2021-08-15T08:20:38.965Z</time>
      </trkpt>
      <trkpt lat="42.86468" lon="42.03447">
        <ele>598.904695</ele>
        <time>2021-08-15T08:20:40.977Z</time>
      </trkpt>
      <trkpt lat="42.8648" lon="42.03372">
        <ele>594.463272</ele>
        <time>2021-08-15T08:20:48.744Z</time>
      </trkpt>
      <trkpt lat="42.86481" lon="42.03291">
        <ele>594.829476</ele>
        <time>2021-08-15T08:20:58.793Z</time>
      </trkpt>
      <trkpt lat="42.86486" lon="42.03269">
        <ele>594.933946</ele>
        <time>2021-08-15T08:21:04.108Z</time>
      </trkpt>
      <trkpt lat="42.86506" lon="42.03229">
        <ele>595.15671</ele>
        <time>2021-08-15T08:21:22.784Z</time>
      </trkpt>
      <trkpt lat="42.86515" lon="42.03192">
        <ele>595.329112</ele>
        <time>2021-08-15T08:21:42.300Z</time>
      </trkpt>
      <trkpt lat="42.86526" lon="42.03177">
        <ele>595.694567</ele>
        <time>2021-08-15T08:21:54.924Z</time>
      </trkpt>
      <trkpt lat="42.86547" lon="42.03176">
        <ele>598.303754</ele>
        <time>2021-08-15T08:22:13.781Z</time>
      </trkpt>
      <trkpt lat="42.86579" lon="42.03188">
        <ele>602.352433</ele>
        <time>2021-08-15T08:22:45.953Z</time>
      </trkpt>
      <trkpt lat="42.86605" lon="42.03207">
        <ele>605.91478</ele>
        <time>2021-08-15T08:23:16.085Z</time>
      </trkpt>
      <trkpt lat="42.86627" lon="42.03236">
        <ele>609.688472</ele>
        <time>2021-08-15T08:23:47.215Z</time>
      </trkpt>
      <trkpt lat="42.86703" lon="42.03267">
        <ele>617.557087</ele>
        <time>2021-08-15T08:24:47.659Z</time>
      </trkpt>
      <trkpt lat="42.86717" lon="42.03262">
        <ele>617.769981</ele>
        <time>2021-08-15T08:24:54.755Z</time>
      </trkpt>
      <trkpt lat="42.86761" lon="42.03207">
        <ele>618.609175</ele>
        <time>2021-08-15T08:25:13.090Z</time>
      </trkpt>
      <trkpt lat="42.86801" lon="42.03211">
        <ele>619.181571</ele>
        <time>2021-08-15T08:25:21.680Z</time>
      </trkpt>
      <trkpt lat="42.86832" lon="42.03204">
        <ele>619.615719</ele>
        <time>2021-08-15T08:25:27.402Z</time>
      </trkpt>
      <trkpt lat="42.86887" lon="42.03177">
        <ele>617.248164</ele>
        <time>2021-08-15T08:25:36.665Z</time>
      </trkpt>
      <trkpt lat="42.86937" lon="42.0314">
        <ele>613.581669</ele>
        <time>2021-08-15T08:25:45.117Z</time>
      </trkpt>
      <trkpt lat="42.86971" lon="42.03128">
        <ele>611.292017</ele>
        <time>2021-08-15T08:25:50.351Z</time>
      </trkpt>
      <trkpt lat="42.87019" lon="42.03126">
        <ele>608.14987</ele>
        <time>2021-08-15T08:25:57.619Z</time>
      </trkpt>
      <trkpt lat="42.87031" lon="42.03133">
        <ele>607.14604</ele>
        <time>2021-08-15T08:25:59.601Z</time>
      </trkpt>
      <trkpt lat="42.87069" lon="42.03191">
        <ele>602.800699</ele>
        <time>2021-08-15T08:26:08.062Z</time>
      </trkpt>
      <trkpt lat="42.87083" lon="42.03201">
        <ele>601.570674</ele>
        <time>2021-08-15T08:26:10.344Z</time>
      </trkpt>
      <trkpt lat="42.87109" lon="42.03201">
        <ele>599.598135</ele>
        <time>2021-08-15T08:26:14.028Z</time>
      </trkpt>
      <trkpt lat="42.87137" lon="42.03179">
        <ele>597.085299</ele>
        <time>2021-08-15T08:26:18.728Z</time>
      </trkpt>
      <trkpt lat="42.87217" lon="42.03086">
        <ele>592.347473</ele>
        <time>2021-08-15T08:26:34.765Z</time>
      </trkpt>
      <trkpt lat="42.87249" lon="42.03055">
        <ele>591.140863</ele>
        <time>2021-08-15T08:26:41.592Z</time>
      </trkpt>
      <trkpt lat="42.87281" lon="42.03034">
        <ele>590.07888</ele>
        <time>2021-08-15T08:26:48.069Z</time>
      </trkpt>
      <trkpt lat="42.87398" lon="42.03027">
        <ele>592.328683</ele>
        <time>2021-08-15T08:27:26.948Z</time>
      </trkpt>
      <trkpt lat="42.87429" lon="42.0303">
        <ele>593.570629</ele>
        <time>2021-08-15T08:27:41.962Z</time>
      </trkpt>
      <trkpt lat="42.87705" lon="42.03163">
        <ele>609.978057</ele>
        <time>2021-08-15T08:30:17.942Z</time>
      </trkpt>
      <trkpt lat="42.87805" lon="42.03251">
        <ele>616.839695</ele>
        <time>2021-08-15T08:31:18.745Z</time>
      </trkpt>
      <trkpt lat="42.87865" lon="42.03278">
        <ele>618.995229</ele>
        <time>2021-08-15T08:31:48.505Z</time>
      </trkpt>
      <trkpt lat="42.87881" lon="42.03291">
        <ele>619.530307</ele>
        <time>2021-08-15T08:31:56.697Z</time>
      </trkpt>
      <trkpt lat="42.87904" lon="42.0332">
        <ele>620.397703</ele>
        <time>2021-08-15T08:32:08.842Z</time>
      </trkpt>
      <trkpt lat="42.87967" lon="42.03424">
        <ele>622.541673</ele>
        <time>2021-08-15T08:32:36.911Z</time>
      </trkpt>
      <trkpt lat="42.88055" lon="42.035">
        <ele>621.734393</ele>
        <time>2021-08-15T08:32:56.545Z</time>
      </trkpt>
      <trkpt lat="42.88085" lon="42.03518">
        <ele>621.474761</ele>
        <time>2021-08-15T08:33:02.766Z</time>
      </trkpt>
      <trkpt lat="42.88176" lon="42.03544">
        <ele>622.751184</ele>
        <time>2021-08-15T08:33:22.506Z</time>
      </trkpt>
      <trkpt lat="42.88189" lon="42.03552">
        <ele>623.064831</ele>
        <time>2021-08-15T08:33:32.844Z</time>
      </trkpt>
      <trkpt lat="42.88197" lon="42.03566">
        <ele>623.335883</ele>
        <time>2021-08-15T08:33:38.706Z</time>
      </trkpt>
      <trkpt lat="42.88225" lon="42.03722">
        <ele>624.858246</ele>
        <time>2021-08-15T08:34:21.877Z</time>
      </trkpt>
      <trkpt lat="42.88228" lon="42.03748">
        <ele>624.678757</ele>
        <time>2021-08-15T08:34:31.196Z</time>
      </trkpt>
      <trkpt lat="42.88247" lon="42.0392">
        <ele>623.497448</ele>
        <time>2021-08-15T08:34:54.465Z</time>
      </trkpt>
      <trkpt lat="42.88247" lon="42.03943">
        <ele>622.6133</ele>
        <time>2021-08-15T08:34:58.019Z</time>
      </trkpt>
      <trkpt lat="42.88244" lon="42.04007">
        <ele>620.178104</ele>
        <time>2021-08-15T08:35:04.723Z</time>
      </trkpt>
      <trkpt lat="42.88246" lon="42.04045">
        <ele>618.701802</ele>
        <time>2021-08-15T08:35:08.841Z</time>
      </trkpt>
      <trkpt lat="42.88269" lon="42.04096">
        <ele>616.441638</ele>
        <time>2021-08-15T08:35:15.660Z</time>
      </trkpt>
      <trkpt lat="42.88283" lon="42.04108">
        <ele>615.589086</ele>
        <time>2021-08-15T08:35:18.247Z</time>
      </trkpt>
      <trkpt lat="42.88308" lon="42.04118">
        <ele>614.238926</ele>
        <time>2021-08-15T08:35:22.863Z</time>
      </trkpt>
      <trkpt lat="42.88328" lon="42.04124">
        <ele>614.400367</ele>
        <time>2021-08-15T08:35:26.203Z</time>
      </trkpt>
      <trkpt lat="42.8834" lon="42.04125">
        <ele>614.560521</ele>
        <time>2021-08-15T08:35:29.389Z</time>
      </trkpt>
      <trkpt lat="42.88478" lon="42.04139">
        <ele>616.427846</ele>
        <time>2021-08-15T08:36:14.569Z</time>
      </trkpt>
      <trkpt lat="42.88512" lon="42.04143">
        <ele>616.806836</ele>
        <time>2021-08-15T08:36:33.062Z</time>
      </trkpt>
      <trkpt lat="42.88542" lon="42.04147">
        <ele>617.111221</ele>
        <time>2021-08-15T08:36:44.628Z</time>
      </trkpt>
      <trkpt lat="42.88548" lon="42.04148">
        <ele>617.168316</ele>
        <time>2021-08-15T08:36:46.148Z</time>
      </trkpt>
      <trkpt lat="42.88601" lon="42.0416">
        <ele>617.703048</ele>
        <time>2021-08-15T08:37:02.145Z</time>
      </trkpt>
      <trkpt lat="42.88645" lon="42.0417">
        <ele>618.146891</ele>
        <time>2021-08-15T08:37:11.944Z</time>
      </trkpt>
      <trkpt lat="42.88676" lon="42.04175">
        <ele>617.809706</ele>
        <time>2021-08-15T08:37:17.771Z</time>
      </trkpt>
      <trkpt lat="42.88726" lon="42.04173">
        <ele>614.97803</ele>
        <time>2021-08-15T08:37:25.970Z</time>
      </trkpt>
      <trkpt lat="42.88774" lon="42.04161">
        <ele>612.157633</ele>
        <time>2021-08-15T08:37:33.256Z</time>
      </trkpt>
      <trkpt lat="42.88848" lon="42.04133">
        <ele>607.900747</ele>
        <time>2021-08-15T08:37:44.368Z</time>
      </trkpt>
      <trkpt lat="42.89063" lon="42.04074">
        <ele>601.774319</ele>
        <time>2021-08-15T08:38:21.739Z</time>
      </trkpt>
      <trkpt lat="42.89136" lon="42.04069">
        <ele>602.559503</ele>
        <time>2021-08-15T08:38:44.925Z</time>
      </trkpt>
      <trkpt lat="42.8917" lon="42.04082">
        <ele>602.930541</ele>
        <time>2021-08-15T08:38:57.718Z</time>
      </trkpt>
      <trkpt lat="42.89213" lon="42.04108">
        <ele>603.97159</ele>
        <time>2021-08-15T08:39:17.685Z</time>
      </trkpt>
      <trkpt lat="42.89288" lon="42.04181">
        <ele>607.350201</ele>
        <time>2021-08-15T08:39:59.286Z</time>
      </trkpt>
      <trkpt lat="42.89316" lon="42.04194">
        <ele>608.431335</ele>
        <time>2021-08-15T08:40:12.319Z</time>
      </trkpt>
      <trkpt lat="42.89375" lon="42.0419">
        <ele>609.853957</ele>
        <time>2021-08-15T08:40:31.714Z</time>
      </trkpt>
      <trkpt lat="42.89415" lon="42.04194">
        <ele>609.899357</ele>
        <time>2021-08-15T08:40:42.459Z</time>
      </trkpt>
      <trkpt lat="42.89453" lon="42.04202">
        <ele>609.942952</ele>
        <time>2021-08-15T08:40:51.374Z</time>
      </trkpt>
      <trkpt lat="42.89493" lon="42.04223">
        <ele>609.990806</ele>
        <time>2021-08-15T08:40:59.967Z</time>
      </trkpt>
      <trkpt lat="42.89513" lon="42.04259">
        <ele>610.028878</ele>
        <time>2021-08-15T08:41:06.506Z</time>
      </trkpt>
      <trkpt lat="42.89532" lon="42.04317">
        <ele>609.232877</ele>
        <time>2021-08-15T08:41:15.145Z</time>
      </trkpt>
      <trkpt lat="42.89542" lon="42.04335">
        <ele>608.908867</ele>
        <time>2021-08-15T08:41:18.208Z</time>
      </trkpt>
      <trkpt lat="42.89557" lon="42.0435">
        <ele>608.567457</ele>
        <time>2021-08-15T08:41:21.446Z</time>
      </trkpt>
      <trkpt lat="42.89607" lon="42.04374">
        <ele>607.566147</ele>
        <time>2021-08-15T08:41:30.877Z</time>
      </trkpt>
      <trkpt lat="42.89633" lon="42.04399">
        <ele>606.955418</ele>
        <time>2021-08-15T08:41:36.742Z</time>
      </trkpt>
      <trkpt lat="42.89808" lon="42.04688">
        <ele>605.37075</ele>
        <time>2021-08-15T08:42:30.138Z</time>
      </trkpt>
      <trkpt lat="42.89838" lon="42.04765">
        <ele>606.289633</ele>
        <time>2021-08-15T08:42:51.052Z</time>
      </trkpt>
      <trkpt lat="42.8985" lon="42.04782">
        <ele>606.536648</ele>
        <time>2021-08-15T08:42:57.729Z</time>
      </trkpt>
      <trkpt lat="42.8986" lon="42.04789">
        <ele>606.698199</ele>
        <time>2021-08-15T08:43:02.713Z</time>
      </trkpt>
      <trkpt lat="42.89931" lon="42.04795">
        <ele>611.654959</ele>
        <time>2021-08-15T08:43:39.933Z</time>
      </trkpt>
      <trkpt lat="42.89949" lon="42.04805">
        <ele>613.170196</ele>
        <time>2021-08-15T08:43:52.354Z</time>
      </trkpt>
      <trkpt lat="42.89961" lon="42.0482">
        <ele>614.431324</ele>
        <time>2021-08-15T08:44:03.612Z</time>
      </trkpt>
      <trkpt lat="42.89991" lon="42.04908">
        <ele>619.994103</ele>
        <time>2021-08-15T08:44:54.245Z</time>
      </trkpt>
      <trkpt lat="42.90053" lon="42.04963">
        <ele>624.960732</ele>
        <time>2021-08-15T08:45:43.337Z</time>
      </trkpt>
      <trkpt lat="42.90063" lon="42.05023">
        <ele>627.928838</ele>
        <time>2021-08-15T08:46:12.889Z</time>
      </trkpt>
      <trkpt lat="42.90082" lon="42.0524">
        <ele>631.734796</ele>
        <time>2021-08-15T08:47:13.530Z</time>
      </trkpt>
      <trkpt lat="42.90097" lon="42.05311">
        <ele>631.128803</ele>
        <time>2021-08-15T08:47:22.832Z</time>
      </trkpt>
      <trkpt lat="42.90133" lon="42.05434">
        <ele>625.598835</ele>
        <time>2021-08-15T08:47:37.514Z</time>
      </trkpt>
      <trkpt lat="42.90157" lon="42.05484">
        <ele>621.795081</ele>
        <time>2021-08-15T08:47:43.760Z</time>
      </trkpt>
      <trkpt lat="42.902" lon="42.05555">
        <ele>615.883974</ele>
        <time>2021-08-15T08:47:53.374Z</time>
      </trkpt>
      <trkpt lat="42.90206" lon="42.05574">
        <ele>614.695404</ele>
        <time>2021-08-15T08:47:55.416Z</time>
      </trkpt>
      <trkpt lat="42.90215" lon="42.05626">
        <ele>612.514868</ele>
        <time>2021-08-15T08:48:01.009Z</time>
      </trkpt>
      <trkpt lat="42.90219" lon="42.05711">
        <ele>609.097591</ele>
        <time>2021-08-15T08:48:10.381Z</time>
      </trkpt>
      <trkpt lat="42.90222" lon="42.05722">
        <ele>608.629224</ele>
        <time>2021-08-15T08:48:11.547Z</time>
      </trkpt>
      <trkpt lat="42.90233" lon="42.05752">
        <ele>607.261868</ele>
        <time>2021-08-15T08:48:16.685Z</time>
      </trkpt>
      <trkpt lat="42.90239" lon="42.05756">
        <ele>606.917156</ele>
        <time>2021-08-15T08:48:17.497Z</time>
      </trkpt>
      <trkpt lat="42.90259" lon="42.05753">
        <ele>605.800842</ele>
        <time>2021-08-15T08:48:21.835Z</time>
      </trkpt>
      <trkpt lat="42.90319" lon="42.05718">
        <ele>608.575288</ele>
        <time>2021-08-15T08:48:50.924Z</time>
      </trkpt>
      <trkpt lat="42.9035" lon="42.05723">
        <ele>610.711742</ele>
        <time>2021-08-15T08:49:08.702Z</time>
      </trkpt>
      <trkpt lat="42.90396" lon="42.05744">
        <ele>614.085762</ele>
        <time>2021-08-15T08:49:40.488Z</time>
      </trkpt>
      <trkpt lat="42.90445" lon="42.0577">
        <ele>617.515437</ele>
        <time>2021-08-15T08:50:22.015Z</time>
      </trkpt>
      <trkpt lat="42.90514" lon="42.0581">
        <ele>619.221817</ele>
        <time>2021-08-15T08:51:13.189Z</time>
      </trkpt>
      <trkpt lat="42.90905" lon="42.06039">
        <ele>625.250904</ele>
        <time>2021-08-15T08:52:51.037Z</time>
      </trkpt>
      <trkpt lat="42.90931" lon="42.06054">
        <ele>625.188138</ele>
        <time>2021-08-15T08:52:56.554Z</time>
      </trkpt>
      <trkpt lat="42.91034" lon="42.06113">
        <ele>624.120985</ele>
        <time>2021-08-15T08:53:18.381Z</time>
      </trkpt>
      <trkpt lat="42.91057" lon="42.06134">
        <ele>623.847106</ele>
        <time>2021-08-15T08:53:23.925Z</time>
      </trkpt>
      <trkpt lat="42.91066" lon="42.06153">
        <ele>623.679688</ele>
        <time>2021-08-15T08:53:27.307Z</time>
      </trkpt>
      <trkpt lat="42.91112" lon="42.06467">
        <ele>620.769286</ele>
        <time>2021-08-15T08:54:14.037Z</time>
      </trkpt>
      <trkpt lat="42.91128" lon="42.06624">
        <ele>617.875839</ele>
        <time>2021-08-15T08:54:33.955Z</time>
      </trkpt>
      <trkpt lat="42.91135" lon="42.06693">
        <ele>616.787064</ele>
        <time>2021-08-15T08:54:43.048Z</time>
      </trkpt>
      <trkpt lat="42.91138" lon="42.06734">
        <ele>616.559974</ele>
        <time>2021-08-15T08:54:48.596Z</time>
      </trkpt>
      <trkpt lat="42.91136" lon="42.06849">
        <ele>615.908174</ele>
        <time>2021-08-15T08:55:06.865Z</time>
      </trkpt>
      <trkpt lat="42.91143" lon="42.069">
        <ele>615.615762</ele>
        <time>2021-08-15T08:55:17.719Z</time>
      </trkpt>
      <trkpt lat="42.91181" lon="42.07098">
        <ele>615.713956</ele>
        <time>2021-08-15T08:55:46.883Z</time>
      </trkpt>
      <trkpt lat="42.9119" lon="42.07124">
        <ele>615.748799</ele>
        <time>2021-08-15T08:55:51.049Z</time>
      </trkpt>
      <trkpt lat="42.91213" lon="42.07162">
        <ele>617.08267</ele>
        <time>2021-08-15T08:56:02.650Z</time>
      </trkpt>
      <trkpt lat="42.91227" lon="42.07178">
        <ele>619.389716</ele>
        <time>2021-08-15T08:56:11.774Z</time>
      </trkpt>
      <trkpt lat="42.91269" lon="42.0723">
        <ele>626.286475</ele>
        <time>2021-08-15T08:56:51.057Z</time>
      </trkpt>
      <trkpt lat="42.9128" lon="42.07251">
        <ele>628.656731</ele>
        <time>2021-08-15T08:57:10.136Z</time>
      </trkpt>
      <trkpt lat="42.913" lon="42.07297">
        <ele>633.495011</ele>
        <time>2021-08-15T08:57:52.595Z</time>
      </trkpt>
      <trkpt lat="42.9136" lon="42.07463">
        <ele>651.777817</ele>
        <time>2021-08-15T09:00:35.327Z</time>
      </trkpt>
      <trkpt lat="42.91376" lon="42.07515">
        <ele>657.536049</ele>
        <time>2021-08-15T09:01:12.571Z</time>
      </trkpt>
      <trkpt lat="42.91394" lon="42.07603">
        <ele>661.636009</ele>
        <time>2021-08-15T09:01:44.454Z</time>
      </trkpt>
      <trkpt lat="42.91414" lon="42.0766">
        <ele>659.268156</ele>
        <time>2021-08-15T09:01:52.030Z</time>
      </trkpt>
      <trkpt lat="42.91467" lon="42.0776">
        <ele>654.582018</ele>
        <time>2021-08-15T09:02:05.111Z</time>
      </trkpt>
      <trkpt lat="42.91536" lon="42.07856">
        <ele>641.539458</ele>
        <time>2021-08-15T09:02:18.839Z</time>
      </trkpt>
      <trkpt lat="42.91551" lon="42.07928">
        <ele>633.508235</ele>
        <time>2021-08-15T09:02:26.105Z</time>
      </trkpt>
      <trkpt lat="42.91559" lon="42.07943">
        <ele>631.405836</ele>
        <time>2021-08-15T09:02:27.985Z</time>
      </trkpt>
      <trkpt lat="42.91571" lon="42.07954">
        <ele>629.252934</ele>
        <time>2021-08-15T09:02:29.926Z</time>
      </trkpt>
      <trkpt lat="42.91628" lon="42.08021">
        <ele>614.376962</ele>
        <time>2021-08-15T09:02:39.686Z</time>
      </trkpt>
      <trkpt lat="42.91715" lon="42.08113">
        <ele>591.193164</ele>
        <time>2021-08-15T09:02:53.941Z</time>
      </trkpt>
      <trkpt lat="42.91733" lon="42.08125">
        <ele>587.394669</ele>
        <time>2021-08-15T09:02:56.614Z</time>
      </trkpt>
      <trkpt lat="42.91839" lon="42.08155">
        <ele>569.553081</ele>
        <time>2021-08-15T09:03:10.928Z</time>
      </trkpt>
      <trkpt lat="42.91859" lon="42.08169">
        <ele>565.835545</ele>
        <time>2021-08-15T09:03:13.954Z</time>
      </trkpt>
      <trkpt lat="42.91861" lon="42.08188">
        <ele>563.528867</ele>
        <time>2021-08-15T09:03:15.880Z</time>
      </trkpt>
      <trkpt lat="42.91848" lon="42.08266">
        <ele>558.354252</ele>
        <time>2021-08-15T09:03:24.019Z</time>
      </trkpt>
      <trkpt lat="42.91849" lon="42.08292">
        <ele>557.618285</ele>
        <time>2021-08-15T09:03:26.951Z</time>
      </trkpt>
      <trkpt lat="42.91853" lon="42.083">
        <ele>557.360036</ele>
        <time>2021-08-15T09:03:27.902Z</time>
      </trkpt>
      <trkpt lat="42.91865" lon="42.0832">
        <ele>556.660897</ele>
        <time>2021-08-15T09:03:30.945Z</time>
      </trkpt>
      <trkpt lat="42.9187" lon="42.08323">
        <ele>556.464452</ele>
        <time>2021-08-15T09:03:31.732Z</time>
      </trkpt>
      <trkpt lat="42.91879" lon="42.08324">
        <ele>556.117609</ele>
        <time>2021-08-15T09:03:33.156Z</time>
      </trkpt>
      <trkpt lat="42.919" lon="42.08309">
        <ele>555.20751</ele>
        <time>2021-08-15T09:03:37.492Z</time>
      </trkpt>
      <trkpt lat="42.91961" lon="42.08232">
        <ele>555.038254</ele>
        <time>2021-08-15T09:04:04.400Z</time>
      </trkpt>
      <trkpt lat="42.91989" lon="42.08208">
        <ele>558.32668</ele>
        <time>2021-08-15T09:04:25.505Z</time>
      </trkpt>
      <trkpt lat="42.92007" lon="42.08211">
        <ele>560.164849</ele>
        <time>2021-08-15T09:04:41.050Z</time>
      </trkpt>
      <trkpt lat="42.92052" lon="42.08238">
        <ele>565.130129</ele>
        <time>2021-08-15T09:05:24.505Z</time>
      </trkpt>
      <trkpt lat="42.9212" lon="42.08331">
        <ele>574.368816</ele>
        <time>2021-08-15T09:06:48.006Z</time>
      </trkpt>
      <trkpt lat="42.9213" lon="42.08357">
        <ele>576.17273</ele>
        <time>2021-08-15T09:07:05.364Z</time>
      </trkpt>
      <trkpt lat="42.92218" lon="42.08718">
        <ele>595.80225</ele>
        <time>2021-08-15T09:09:37.611Z</time>
      </trkpt>
      <trkpt lat="42.92236" lon="42.08768">
        <ele>597.837888</ele>
        <time>2021-08-15T09:09:53.615Z</time>
      </trkpt>
      <trkpt lat="42.92281" lon="42.08852">
        <ele>600.942375</ele>
        <time>2021-08-15T09:10:24.209Z</time>
      </trkpt>
      <trkpt lat="42.92287" lon="42.08874">
        <ele>601.662108</ele>
        <time>2021-08-15T09:10:31.621Z</time>
      </trkpt>
      <trkpt lat="42.92289" lon="42.08972">
        <ele>604.575553</ele>
        <time>2021-08-15T09:11:02.482Z</time>
      </trkpt>
      <trkpt lat="42.92296" lon="42.09022">
        <ele>606.037734</ele>
        <time>2021-08-15T09:11:19.341Z</time>
      </trkpt>
      <trkpt lat="42.92321" lon="42.091">
        <ele>608.463076</ele>
        <time>2021-08-15T09:11:47.859Z</time>
      </trkpt>
      <trkpt lat="42.92367" lon="42.09295">
        <ele>611.834304</ele>
        <time>2021-08-15T09:12:44.562Z</time>
      </trkpt>
      <trkpt lat="42.92376" lon="42.09372">
        <ele>612.120431</ele>
        <time>2021-08-15T09:12:57.518Z</time>
      </trkpt>
      <trkpt lat="42.92431" lon="42.095">
        <ele>609.968308</ele>
        <time>2021-08-15T09:13:16.757Z</time>
      </trkpt>
      <trkpt lat="42.92469" lon="42.09611">
        <ele>606.36757</ele>
        <time>2021-08-15T09:13:31.194Z</time>
      </trkpt>
      <trkpt lat="42.92489" lon="42.09642">
        <ele>605.149128</ele>
        <time>2021-08-15T09:13:35.937Z</time>
      </trkpt>
      <trkpt lat="42.92544" lon="42.09694">
        <ele>602.012522</ele>
        <time>2021-08-15T09:13:46.391Z</time>
      </trkpt>
      <trkpt lat="42.92602" lon="42.09773">
        <ele>598.18339</ele>
        <time>2021-08-15T09:13:59.365Z</time>
      </trkpt>
      <trkpt lat="42.92701" lon="42.09873">
        <ele>594.6191</ele>
        <time>2021-08-15T09:14:20.896Z</time>
      </trkpt>
      <trkpt lat="42.92715" lon="42.09898">
        <ele>594.089355</ele>
        <time>2021-08-15T09:14:25.321Z</time>
      </trkpt>
      <trkpt lat="42.92724" lon="42.09929">
        <ele>593.524515</ele>
        <time>2021-08-15T09:14:30.191Z</time>
      </trkpt>
      <trkpt lat="42.92736" lon="42.10011">
        <ele>591.8547</ele>
        <time>2021-08-15T09:14:41.897Z</time>
      </trkpt>
      <trkpt lat="42.92752" lon="42.10061">
        <ele>590.386173</ele>
        <time>2021-08-15T09:14:49.524Z</time>
      </trkpt>
      <trkpt lat="42.92887" lon="42.10293">
        <ele>580.733019</ele>
        <time>2021-08-15T09:15:24.205Z</time>
      </trkpt>
      <trkpt lat="42.92969" lon="42.10367">
        <ele>575.881024</ele>
        <time>2021-08-15T09:15:39.129Z</time>
      </trkpt>
      <trkpt lat="42.93021" lon="42.10396">
        <ele>574.479265</ele>
        <time>2021-08-15T09:15:48.314Z</time>
      </trkpt>
      <trkpt lat="42.93042" lon="42.10416">
        <ele>573.814787</ele>
        <time>2021-08-15T09:15:52.938Z</time>
      </trkpt>
      <trkpt lat="42.93056" lon="42.10439">
        <ele>573.283082</ele>
        <time>2021-08-15T09:15:56.892Z</time>
      </trkpt>
      <trkpt lat="42.93093" lon="42.10583">
        <ele>571.028575</ele>
        <time>2021-08-15T09:16:25.244Z</time>
      </trkpt>
      <trkpt lat="42.93135" lon="42.10698">
        <ele>569.654482</ele>
        <time>2021-08-15T09:16:44.366Z</time>
      </trkpt>
      <trkpt lat="42.93149" lon="42.10778">
        <ele>567.85162</ele>
        <time>2021-08-15T09:16:53.948Z</time>
      </trkpt>
      <trkpt lat="42.93162" lon="42.10928">
        <ele>562.462254</ele>
        <time>2021-08-15T09:17:11.006Z</time>
      </trkpt>
      <trkpt lat="42.93163" lon="42.10961">
        <ele>561.27913</ele>
        <time>2021-08-15T09:17:14.804Z</time>
      </trkpt>
      <trkpt lat="42.9316" lon="42.10989">
        <ele>560.369623</ele>
        <time>2021-08-15T09:17:18.251Z</time>
      </trkpt>
      <trkpt lat="42.93141" lon="42.11065">
        <ele>560.488288</ele>
        <time>2021-08-15T09:17:28.551Z</time>
      </trkpt>
      <trkpt lat="42.93068" lon="42.11304">
        <ele>562.037393</ele>
        <time>2021-08-15T09:18:32.313Z</time>
      </trkpt>
      <trkpt lat="42.93031" lon="42.11513">
        <ele>564.461852</ele>
        <time>2021-08-15T09:19:20.250Z</time>
      </trkpt>
      <trkpt lat="42.92974" lon="42.11749">
        <ele>565.429881</ele>
        <time>2021-08-15T09:20:05.582Z</time>
      </trkpt>
      <trkpt lat="42.9297" lon="42.11806">
        <ele>565.296475</ele>
        <time>2021-08-15T09:20:14.617Z</time>
      </trkpt>
      <trkpt lat="42.92976" lon="42.11886">
        <ele>565.108503</ele>
        <time>2021-08-15T09:20:26.851Z</time>
      </trkpt>
      <trkpt lat="42.92993" lon="42.11932">
        <ele>565.001972</ele>
        <time>2021-08-15T09:20:34.432Z</time>
      </trkpt>
      <trkpt lat="42.93026" lon="42.11965">
        <ele>564.932146</ele>
        <time>2021-08-15T09:20:42.186Z</time>
      </trkpt>
      <trkpt lat="42.93072" lon="42.1199">
        <ele>564.845257</ele>
        <time>2021-08-15T09:20:51.782Z</time>
      </trkpt>
      <trkpt lat="42.93104" lon="42.11999">
        <ele>564.789197</ele>
        <time>2021-08-15T09:20:58.309Z</time>
      </trkpt>
      <trkpt lat="42.93134" lon="42.12027">
        <ele>564.725318</ele>
        <time>2021-08-15T09:21:08.458Z</time>
      </trkpt>
      <trkpt lat="42.93146" lon="42.12054">
        <ele>565.21045</ele>
        <time>2021-08-15T09:21:15.972Z</time>
      </trkpt>
      <trkpt lat="42.93149" lon="42.12087">
        <ele>566.246065</ele>
        <time>2021-08-15T09:21:25.466Z</time>
      </trkpt>
      <trkpt lat="42.93142" lon="42.12165">
        <ele>568.759509</ele>
        <time>2021-08-15T09:21:49.752Z</time>
      </trkpt>
      <trkpt lat="42.93136" lon="42.12202">
        <ele>569.941958</ele>
        <time>2021-08-15T09:22:02.373Z</time>
      </trkpt>
      <trkpt lat="42.93129" lon="42.12226">
        <ele>570.773399</ele>
        <time>2021-08-15T09:22:12.722Z</time>
      </trkpt>
      <trkpt lat="42.9311" lon="42.12283">
        <ele>572.759088</ele>
        <time>2021-08-15T09:22:36.996Z</time>
      </trkpt>
      <trkpt lat="42.9311" lon="42.12331">
        <ele>574.303756</ele>
        <time>2021-08-15T09:22:57.042Z</time>
      </trkpt>
      <trkpt lat="42.93131" lon="42.12503">
        <ele>579.84591</ele>
        <time>2021-08-15T09:23:56.169Z</time>
      </trkpt>
      <trkpt lat="42.93178" lon="42.12711">
        <ele>578.539503</ele>
        <time>2021-08-15T09:24:28.269Z</time>
      </trkpt>
      <trkpt lat="42.93205" lon="42.128">
        <ele>576.587536</ele>
        <time>2021-08-15T09:24:39.625Z</time>
      </trkpt>
      <trkpt lat="42.93287" lon="42.12966">
        <ele>571.02996</ele>
        <time>2021-08-15T09:25:03.213Z</time>
      </trkpt>
      <trkpt lat="42.93312" lon="42.12996">
        <ele>571.848609</ele>
        <time>2021-08-15T09:25:09.517Z</time>
      </trkpt>
      <trkpt lat="42.93365" lon="42.13034">
        <ele>573.313366</ele>
        <time>2021-08-15T09:25:25.670Z</time>
      </trkpt>
      <trkpt lat="42.93393" lon="42.13072">
        <ele>574.27626</ele>
        <time>2021-08-15T09:25:42.526Z</time>
      </trkpt>
      <trkpt lat="42.93437" lon="42.1317">
        <ele>578.934396</ele>
        <time>2021-08-15T09:26:35.329Z</time>
      </trkpt>
      <trkpt lat="42.93448" lon="42.13222">
        <ele>582.352475</ele>
        <time>2021-08-15T09:27:04.921Z</time>
      </trkpt>
      <trkpt lat="42.93463" lon="42.13375">
        <ele>590.899491</ele>
        <time>2021-08-15T09:28:24.871Z</time>
      </trkpt>
      <trkpt lat="42.93474" lon="42.13538">
        <ele>591.864276</ele>
        <time>2021-08-15T09:29:04.996Z</time>
      </trkpt>
      <trkpt lat="42.93488" lon="42.13637">
        <ele>589.690549</ele>
        <time>2021-08-15T09:29:16.107Z</time>
      </trkpt>
      <trkpt lat="42.93503" lon="42.13689">
        <ele>586.094799</ele>
        <time>2021-08-15T09:29:22.101Z</time>
      </trkpt>
      <trkpt lat="42.93532" lon="42.13762">
        <ele>580.779871</ele>
        <time>2021-08-15T09:29:30.744Z</time>
      </trkpt>
      <trkpt lat="42.93592" lon="42.13888">
        <ele>571.47359</ele>
        <time>2021-08-15T09:29:46.531Z</time>
      </trkpt>
      <trkpt lat="42.93616" lon="42.13937">
        <ele>567.952027</ele>
        <time>2021-08-15T09:29:52.795Z</time>
      </trkpt>
      <trkpt lat="42.93626" lon="42.13974">
        <ele>565.643914</ele>
        <time>2021-08-15T09:29:57.091Z</time>
      </trkpt>
      <trkpt lat="42.93632" lon="42.14018">
        <ele>562.974533</ele>
        <time>2021-08-15T09:30:02.042Z</time>
      </trkpt>
      <trkpt lat="42.9363" lon="42.14055">
        <ele>561.117555</ele>
        <time>2021-08-15T09:30:06.242Z</time>
      </trkpt>
      <trkpt lat="42.93618" lon="42.14132">
        <ele>558.127626</ele>
        <time>2021-08-15T09:30:14.943Z</time>
      </trkpt>
      <trkpt lat="42.93588" lon="42.14256">
        <ele>553.132678</ele>
        <time>2021-08-15T09:30:30.045Z</time>
      </trkpt>
      <trkpt lat="42.93558" lon="42.14393">
        <ele>553.216256</ele>
        <time>2021-08-15T09:30:49.961Z</time>
      </trkpt>
      <trkpt lat="42.93544" lon="42.14513">
        <ele>554.007083</ele>
        <time>2021-08-15T09:31:23.356Z</time>
      </trkpt>
      <trkpt lat="42.93542" lon="42.14576">
        <ele>557.627823</ele>
        <time>2021-08-15T09:31:46.868Z</time>
      </trkpt>
      <trkpt lat="42.9355" lon="42.14758">
        <ele>568.202301</ele>
        <time>2021-08-15T09:33:19.056Z</time>
      </trkpt>
      <trkpt lat="42.93557" lon="42.14811">
        <ele>571.524663</ele>
        <time>2021-08-15T09:33:45.858Z</time>
      </trkpt>
      <trkpt lat="42.93566" lon="42.14825">
        <ele>572.720226</ele>
        <time>2021-08-15T09:33:52.972Z</time>
      </trkpt>
      <trkpt lat="42.93576" lon="42.14833">
        <ele>573.687189</ele>
        <time>2021-08-15T09:34:03.137Z</time>
      </trkpt>
      <trkpt lat="42.93611" lon="42.14857">
        <ele>576.998211</ele>
        <time>2021-08-15T09:34:27.068Z</time>
      </trkpt>
      <trkpt lat="42.93617" lon="42.14862">
        <ele>577.585235</ele>
        <time>2021-08-15T09:34:31.777Z</time>
      </trkpt>
      <trkpt lat="42.93652" lon="42.14917">
        <ele>582.137979</ele>
        <time>2021-08-15T09:35:04.705Z</time>
      </trkpt>
      <trkpt lat="42.93717" lon="42.14998">
        <ele>590.785735</ele>
        <time>2021-08-15T09:36:00.847Z</time>
      </trkpt>
      <trkpt lat="42.93726" lon="42.15033">
        <ele>593.568334</ele>
        <time>2021-08-15T09:36:19.603Z</time>
      </trkpt>
      <trkpt lat="42.93742" lon="42.15061">
        <ele>596.249206</ele>
        <time>2021-08-15T09:36:40.020Z</time>
      </trkpt>
      <trkpt lat="42.93758" lon="42.15123">
        <ele>601.115479</ele>
        <time>2021-08-15T09:37:23.599Z</time>
      </trkpt>
      <trkpt lat="42.93784" lon="42.15168">
        <ele>604.360159</ele>
        <time>2021-08-15T09:37:58.343Z</time>
      </trkpt>
      <trkpt lat="42.93795" lon="42.1523">
        <ele>607.745787</ele>
        <time>2021-08-15T09:38:32.199Z</time>
      </trkpt>
      <trkpt lat="42.93796" lon="42.15272">
        <ele>609.95583</ele>
        <time>2021-08-15T09:38:51.845Z</time>
      </trkpt>
      <trkpt lat="42.93793" lon="42.15317">
        <ele>612.344525</ele>
        <time>2021-08-15T09:39:07.804Z</time>
      </trkpt>
      <trkpt lat="42.93805" lon="42.15427">
        <ele>612.330244</ele>
        <time>2021-08-15T09:39:29.095Z</time>
      </trkpt>
      <trkpt lat="42.93799" lon="42.15553">
        <ele>607.545129</ele>
        <time>2021-08-15T09:39:42.795Z</time>
      </trkpt>
      <trkpt lat="42.93789" lon="42.1561">
        <ele>605.215571</ele>
        <time>2021-08-15T09:39:48.986Z</time>
      </trkpt>
      <trkpt lat="42.93788" lon="42.15644">
        <ele>603.129393</ele>
        <time>2021-08-15T09:39:52.643Z</time>
      </trkpt>
      <trkpt lat="42.93796" lon="42.15673">
        <ele>601.303894</ele>
        <time>2021-08-15T09:39:55.826Z</time>
      </trkpt>
      <trkpt lat="42.93843" lon="42.15733">
        <ele>596.002681</ele>
        <time>2021-08-15T09:40:05.137Z</time>
      </trkpt>
      <trkpt lat="42.9388" lon="42.15801">
        <ele>590.861306</ele>
        <time>2021-08-15T09:40:14.404Z</time>
      </trkpt>
      <trkpt lat="42.9389" lon="42.15897">
        <ele>587.299148</ele>
        <time>2021-08-15T09:40:25.350Z</time>
      </trkpt>
      <trkpt lat="42.93898" lon="42.15936">
        <ele>585.831147</ele>
        <time>2021-08-15T09:40:30.045Z</time>
      </trkpt>
      <trkpt lat="42.9392" lon="42.15995">
        <ele>583.459196</ele>
        <time>2021-08-15T09:40:37.826Z</time>
      </trkpt>
      <trkpt lat="42.93967" lon="42.16087">
        <ele>582.261869</ele>
        <time>2021-08-15T09:40:52.192Z</time>
      </trkpt>
      <trkpt lat="42.93975" lon="42.16116">
        <ele>582.487161</ele>
        <time>2021-08-15T09:40:56.584Z</time>
      </trkpt>
      <trkpt lat="42.94024" lon="42.1665">
        <ele>588.919792</ele>
        <time>2021-08-15T09:43:01.756Z</time>
      </trkpt>
      <trkpt lat="42.94009" lon="42.16787">
        <ele>592.836646</ele>
        <time>2021-08-15T09:43:52.424Z</time>
      </trkpt>
      <trkpt lat="42.94015" lon="42.16854">
        <ele>595.283989</ele>
        <time>2021-08-15T09:44:18.278Z</time>
      </trkpt>
      <trkpt lat="42.94054" lon="42.16958">
        <ele>599.533236</ele>
        <time>2021-08-15T09:44:58.071Z</time>
      </trkpt>
      <trkpt lat="42.94084" lon="42.17014">
        <ele>601.184267</ele>
        <time>2021-08-15T09:45:19.244Z</time>
      </trkpt>
      <trkpt lat="42.9412" lon="42.17052">
        <ele>602.218725</ele>
        <time>2021-08-15T09:45:35.659Z</time>
      </trkpt>
      <trkpt lat="42.94168" lon="42.17079">
        <ele>603.388894</ele>
        <time>2021-08-15T09:45:51.177Z</time>
      </trkpt>
      <trkpt lat="42.94191" lon="42.17091">
        <ele>603.955</ele>
        <time>2021-08-15T09:45:58.647Z</time>
      </trkpt>
      <trkpt lat="42.9431" lon="42.17211">
        <ele>604.767882</ele>
        <time>2021-08-15T09:46:37.561Z</time>
      </trkpt>
      <trkpt lat="42.94342" lon="42.17253">
        <ele>604.862369</ele>
        <time>2021-08-15T09:46:47.053Z</time>
      </trkpt>
      <trkpt lat="42.94359" lon="42.17294">
        <ele>604.243951</ele>
        <time>2021-08-15T09:46:53.881Z</time>
      </trkpt>
      <trkpt lat="42.9441" lon="42.17508">
        <ele>599.495241</ele>
        <time>2021-08-15T09:47:22.096Z</time>
      </trkpt>
      <trkpt lat="42.94434" lon="42.1756">
        <ele>597.984044</ele>
        <time>2021-08-15T09:47:29.261Z</time>
      </trkpt>
      <trkpt lat="42.94454" lon="42.17688">
        <ele>594.781233</ele>
        <time>2021-08-15T09:47:45.352Z</time>
      </trkpt>
      <trkpt lat="42.94454" lon="42.17766">
        <ele>593.452314</ele>
        <time>2021-08-15T09:47:55.857Z</time>
      </trkpt>
      <trkpt lat="42.94453" lon="42.17798">
        <ele>593.210167</ele>
        <time>2021-08-15T09:48:00.163Z</time>
      </trkpt>
      <trkpt lat="42.94451" lon="42.1781">
        <ele>593.113133</ele>
        <time>2021-08-15T09:48:02.195Z</time>
      </trkpt>
      <trkpt lat="42.94447" lon="42.17825">
        <ele>592.992119</ele>
        <time>2021-08-15T09:48:05.614Z</time>
      </trkpt>
      <trkpt lat="42.94412" lon="42.17978">
        <ele>591.637218</ele>
        <time>2021-08-15T09:48:29.893Z</time>
      </trkpt>
      <trkpt lat="42.94411" lon="42.18074">
        <ele>589.394473</ele>
        <time>2021-08-15T09:48:43.409Z</time>
      </trkpt>
      <trkpt lat="42.94419" lon="42.1821">
        <ele>586.226746</ele>
        <time>2021-08-15T09:48:59.814Z</time>
      </trkpt>
      <trkpt lat="42.94441" lon="42.18281">
        <ele>584.758747</ele>
        <time>2021-08-15T09:49:08.473Z</time>
      </trkpt>
      <trkpt lat="42.94449" lon="42.1832">
        <ele>583.994954</ele>
        <time>2021-08-15T09:49:13.142Z</time>
      </trkpt>
      <trkpt lat="42.9445" lon="42.18356">
        <ele>583.331339</ele>
        <time>2021-08-15T09:49:17.420Z</time>
      </trkpt>
      <trkpt lat="42.94445" lon="42.18386">
        <ele>582.752486</ele>
        <time>2021-08-15T09:49:21.835Z</time>
      </trkpt>
      <trkpt lat="42.94439" lon="42.18403">
        <ele>582.402359</ele>
        <time>2021-08-15T09:49:24.409Z</time>
      </trkpt>
      <trkpt lat="42.94433" lon="42.18423">
        <ele>581.989252</ele>
        <time>2021-08-15T09:49:30.841Z</time>
      </trkpt>
      <trkpt lat="42.94427" lon="42.1844">
        <ele>581.643018</ele>
        <time>2021-08-15T09:49:33.998Z</time>
      </trkpt>
      <trkpt lat="42.94419" lon="42.18464">
        <ele>582.469182</ele>
        <time>2021-08-15T09:49:41.950Z</time>
      </trkpt>
      <trkpt lat="42.94408" lon="42.18487">
        <ele>583.804622</ele>
        <time>2021-08-15T09:49:48.436Z</time>
      </trkpt>
      <trkpt lat="42.94406" lon="42.18493">
        <ele>584.125472</ele>
        <time>2021-08-15T09:49:50.987Z</time>
      </trkpt>
      <trkpt lat="42.94405" lon="42.185">
        <ele>584.443348</ele>
        <time>2021-08-15T09:49:54.936Z</time>
      </trkpt>
      <trkpt lat="42.94406" lon="42.1852">
        <ele>585.386525</ele>
        <time>2021-08-15T09:50:00.668Z</time>
      </trkpt>
      <trkpt lat="42.94421" lon="42.18584">
        <ele>588.588856</ele>
        <time>2021-08-15T09:50:25.114Z</time>
      </trkpt>
      <trkpt lat="42.94426" lon="42.18591">
        <ele>589.059231</ele>
        <time>2021-08-15T09:50:31.861Z</time>
      </trkpt>
      <trkpt lat="42.94485" lon="42.186">
        <ele>592.846772</ele>
        <time>2021-08-15T09:51:11.251Z</time>
      </trkpt>
      <trkpt lat="42.94543" lon="42.18583">
        <ele>598.820499</ele>
        <time>2021-08-15T09:52:00.022Z</time>
      </trkpt>
      <trkpt lat="42.94555" lon="42.18585">
        <ele>600.039771</ele>
        <time>2021-08-15T09:52:08.455Z</time>
      </trkpt>
      <trkpt lat="42.94565" lon="42.18594">
        <ele>601.275093</ele>
        <time>2021-08-15T09:52:18.958Z</time>
      </trkpt>
      <trkpt lat="42.9458" lon="42.1862">
        <ele>603.715889</ele>
        <time>2021-08-15T09:52:35.709Z</time>
      </trkpt>
      <trkpt lat="42.94589" lon="42.18649">
        <ele>606.127795</ele>
        <time>2021-08-15T09:52:52.188Z</time>
      </trkpt>
      <trkpt lat="42.94606" lon="42.1879">
        <ele>616.186045</ele>
        <time>2021-08-15T09:54:06.405Z</time>
      </trkpt>
      <trkpt lat="42.94585" lon="42.1889">
        <ele>623.061105</ele>
        <time>2021-08-15T09:54:58.858Z</time>
      </trkpt>
      <trkpt lat="42.94589" lon="42.18934">
        <ele>625.995486</ele>
        <time>2021-08-15T09:55:20.340Z</time>
      </trkpt>
      <trkpt lat="42.94617" lon="42.18995">
        <ele>629.688907</ele>
        <time>2021-08-15T09:55:52.811Z</time>
      </trkpt>
      <trkpt lat="42.94638" lon="42.19022">
        <ele>631.38441</ele>
        <time>2021-08-15T09:56:09.294Z</time>
      </trkpt>
      <trkpt lat="42.94661" lon="42.19035">
        <ele>632.816542</ele>
        <time>2021-08-15T09:56:22.018Z</time>
      </trkpt>
      <trkpt lat="42.94726" lon="42.19048">
        <ele>636.634608</ele>
        <time>2021-08-15T09:56:52.007Z</time>
      </trkpt>
      <trkpt lat="42.94744" lon="42.19062">
        <ele>637.819585</ele>
        <time>2021-08-15T09:57:00.889Z</time>
      </trkpt>
      <trkpt lat="42.94798" lon="42.19126">
        <ele>640.507362</ele>
        <time>2021-08-15T09:57:31.887Z</time>
      </trkpt>
      <trkpt lat="42.94863" lon="42.19165">
        <ele>642.962522</ele>
        <time>2021-08-15T09:57:59.477Z</time>
      </trkpt>
      <trkpt lat="42.94938" lon="42.1923">
        <ele>644.889138</ele>
        <time>2021-08-15T09:58:32.026Z</time>
      </trkpt>
      <trkpt lat="42.9504" lon="42.19274">
        <ele>645.785539</ele>
        <time>2021-08-15T09:59:01.081Z</time>
      </trkpt>
      <trkpt lat="42.95133" lon="42.19288">
        <ele>643.795406</ele>
        <time>2021-08-15T09:59:17.990Z</time>
      </trkpt>
      <trkpt lat="42.95198" lon="42.19319">
        <ele>641.442006</ele>
        <time>2021-08-15T09:59:29.231Z</time>
      </trkpt>
      <trkpt lat="42.95265" lon="42.19312">
        <ele>639.037541</ele>
        <time>2021-08-15T09:59:39.865Z</time>
      </trkpt>
      <trkpt lat="42.95417" lon="42.19315">
        <ele>633.129611</ele>
        <time>2021-08-15T10:00:04.854Z</time>
      </trkpt>
      <trkpt lat="42.95471" lon="42.19299">
        <ele>632.435975</ele>
        <time>2021-08-15T10:00:15.039Z</time>
      </trkpt>
      <trkpt lat="42.9552" lon="42.19313">
        <ele>632.002183</ele>
        <time>2021-08-15T10:00:24.859Z</time>
      </trkpt>
      <trkpt lat="42.95563" lon="42.19334">
        <ele>631.596562</ele>
        <time>2021-08-15T10:00:35.276Z</time>
      </trkpt>
      <trkpt lat="42.95635" lon="42.19357">
        <ele>631.717597</ele>
        <time>2021-08-15T10:00:54.465Z</time>
      </trkpt>
      <trkpt lat="42.95664" lon="42.19376">
        <ele>632.073513</ele>
        <time>2021-08-15T10:01:03.372Z</time>
      </trkpt>
      <trkpt lat="42.95797" lon="42.19511">
        <ele>630.246521</ele>
        <time>2021-08-15T10:01:53.056Z</time>
      </trkpt>
      <trkpt lat="42.95891" lon="42.19579">
        <ele>624.53849</ele>
        <time>2021-08-15T10:02:09.001Z</time>
      </trkpt>
      <trkpt lat="42.95912" lon="42.19598">
        <ele>622.822624</ele>
        <time>2021-08-15T10:02:12.346Z</time>
      </trkpt>
      <trkpt lat="42.95939" lon="42.19622">
        <ele>619.518627</ele>
        <time>2021-08-15T10:02:16.826Z</time>
      </trkpt>
      <trkpt lat="42.95951" lon="42.1963">
        <ele>618.202436</ele>
        <time>2021-08-15T10:02:18.792Z</time>
      </trkpt>
      <trkpt lat="42.95957" lon="42.19631">
        <ele>617.605665</ele>
        <time>2021-08-15T10:02:19.590Z</time>
      </trkpt>
      <trkpt lat="42.95961" lon="42.1963">
        <ele>617.206266</ele>
        <time>2021-08-15T10:02:20.120Z</time>
      </trkpt>
      <trkpt lat="42.95967" lon="42.19626">
        <ele>616.510111</ele>
        <time>2021-08-15T10:02:21.040Z</time>
      </trkpt>
      <trkpt lat="42.95991" lon="42.19596">
        <ele>613.26835</ele>
        <time>2021-08-15T10:02:25.657Z</time>
      </trkpt>
      <trkpt lat="42.95993" lon="42.19595">
        <ele>613.096862</ele>
        <time>2021-08-15T10:02:25.878Z</time>
      </trkpt>
      <trkpt lat="42.96016" lon="42.19615">
        <ele>610.320928</ele>
        <time>2021-08-15T10:02:29.930Z</time>
      </trkpt>
      <trkpt lat="42.96042" lon="42.19641">
        <ele>607.091012</ele>
        <time>2021-08-15T10:02:34.513Z</time>
      </trkpt>
      <trkpt lat="42.96076" lon="42.19686">
        <ele>605.995496</ele>
        <time>2021-08-15T10:02:41.337Z</time>
      </trkpt>
      <trkpt lat="42.96095" lon="42.19727">
        <ele>606.525148</ele>
        <time>2021-08-15T10:02:47.726Z</time>
      </trkpt>
      <trkpt lat="42.96171" lon="42.19829">
        <ele>608.103719</ele>
        <time>2021-08-15T10:03:45.647Z</time>
      </trkpt>
      <trkpt lat="42.96209" lon="42.19865">
        <ele>610.777087</ele>
        <time>2021-08-15T10:04:10.543Z</time>
      </trkpt>
      <trkpt lat="42.96245" lon="42.19886">
        <ele>613.273023</ele>
        <time>2021-08-15T10:04:31.683Z</time>
      </trkpt>
      <trkpt lat="42.96271" lon="42.1991">
        <ele>615.264789</ele>
        <time>2021-08-15T10:04:48.591Z</time>
      </trkpt>
      <trkpt lat="42.96326" lon="42.19992">
        <ele>620.602633</ele>
        <time>2021-08-15T10:05:32.425Z</time>
      </trkpt>
      <trkpt lat="42.96334" lon="42.20013">
        <ele>621.818868</ele>
        <time>2021-08-15T10:05:41.978Z</time>
      </trkpt>
      <trkpt lat="42.96344" lon="42.20092">
        <ele>625.948572</ele>
        <time>2021-08-15T10:06:15.392Z</time>
      </trkpt>
      <trkpt lat="42.96354" lon="42.20123">
        <ele>627.726245</ele>
        <time>2021-08-15T10:06:29.626Z</time>
      </trkpt>
      <trkpt lat="42.96393" lon="42.20198">
        <ele>632.499779</ele>
        <time>2021-08-15T10:07:09.877Z</time>
      </trkpt>
      <trkpt lat="42.96433" lon="42.20251">
        <ele>636.744297</ele>
        <time>2021-08-15T10:07:44.820Z</time>
      </trkpt>
      <trkpt lat="42.96455" lon="42.20298">
        <ele>639.814237</ele>
        <time>2021-08-15T10:08:09.932Z</time>
      </trkpt>
      <trkpt lat="42.96485" lon="42.2038">
        <ele>644.860679</ele>
        <time>2021-08-15T10:08:51.442Z</time>
      </trkpt>
      <trkpt lat="42.96506" lon="42.20393">
        <ele>646.314217</ele>
        <time>2021-08-15T10:09:03.878Z</time>
      </trkpt>
      <trkpt lat="42.96546" lon="42.20379">
        <ele>648.002032</ele>
        <time>2021-08-15T10:09:25.510Z</time>
      </trkpt>
      <trkpt lat="42.9656" lon="42.20385">
        <ele>648.575202</ele>
        <time>2021-08-15T10:09:32.594Z</time>
      </trkpt>
      <trkpt lat="42.96588" lon="42.20407">
        <ele>649.88948</ele>
        <time>2021-08-15T10:09:46.102Z</time>
      </trkpt>
      <trkpt lat="42.96621" lon="42.20448">
        <ele>651.696678</ele>
        <time>2021-08-15T10:10:02.349Z</time>
      </trkpt>
      <trkpt lat="42.96687" lon="42.20518">
        <ele>654.365653</ele>
        <time>2021-08-15T10:10:29.201Z</time>
      </trkpt>
      <trkpt lat="42.967" lon="42.20525">
        <ele>654.700394</ele>
        <time>2021-08-15T10:10:32.795Z</time>
      </trkpt>
      <trkpt lat="42.96741" lon="42.20543">
        <ele>655.716943</ele>
        <time>2021-08-15T10:10:46.925Z</time>
      </trkpt>
      <trkpt lat="42.96755" lon="42.20556">
        <ele>656.116874</ele>
        <time>2021-08-15T10:10:53.641Z</time>
      </trkpt>
      <trkpt lat="42.96773" lon="42.2058">
        <ele>656.704285</ele>
        <time>2021-08-15T10:11:01.356Z</time>
      </trkpt>
      <trkpt lat="42.96841" lon="42.20634">
        <ele>659.099536</ele>
        <time>2021-08-15T10:11:30.578Z</time>
      </trkpt>
      <trkpt lat="42.96878" lon="42.20664">
        <ele>660.652952</ele>
        <time>2021-08-15T10:11:49.289Z</time>
      </trkpt>
      <trkpt lat="42.96898" lon="42.20706">
        <ele>662.002174</ele>
        <time>2021-08-15T10:12:06.346Z</time>
      </trkpt>
      <trkpt lat="42.96908" lon="42.20716">
        <ele>662.469121</ele>
        <time>2021-08-15T10:12:12.737Z</time>
      </trkpt>
      <trkpt lat="42.97" lon="42.20743">
        <ele>664.974631</ele>
        <time>2021-08-15T10:12:47.104Z</time>
      </trkpt>
      <trkpt lat="42.9701" lon="42.20756">
        <ele>665.219579</ele>
        <time>2021-08-15T10:12:51.846Z</time>
      </trkpt>
      <trkpt lat="42.97025" lon="42.20798">
        <ele>665.811498</ele>
        <time>2021-08-15T10:13:01.596Z</time>
      </trkpt>
      <trkpt lat="42.97033" lon="42.20804">
        <ele>665.969058</ele>
        <time>2021-08-15T10:13:04.121Z</time>
      </trkpt>
      <trkpt lat="42.9709" lon="42.20802">
        <ele>666.967235</ele>
        <time>2021-08-15T10:13:19.488Z</time>
      </trkpt>
      <trkpt lat="42.97122" lon="42.20826">
        <ele>667.541972</ele>
        <time>2021-08-15T10:13:29.810Z</time>
      </trkpt>
      <trkpt lat="42.97133" lon="42.20848">
        <ele>667.799947</ele>
        <time>2021-08-15T10:13:35.077Z</time>
      </trkpt>
      <trkpt lat="42.97146" lon="42.20926">
        <ele>668.604162</ele>
        <time>2021-08-15T10:13:50.932Z</time>
      </trkpt>
      <trkpt lat="42.97183" lon="42.20979">
        <ele>669.332153</ele>
        <time>2021-08-15T10:14:06.791Z</time>
      </trkpt>
      <trkpt lat="42.97215" lon="42.21068">
        <ele>671.079327</ele>
        <time>2021-08-15T10:14:30.423Z</time>
      </trkpt>
      <trkpt lat="42.97279" lon="42.21178">
        <ele>674.311121</ele>
        <time>2021-08-15T10:15:09.125Z</time>
      </trkpt>
      <trkpt lat="42.97319" lon="42.21274">
        <ele>677.867028</ele>
        <time>2021-08-15T10:15:45.408Z</time>
      </trkpt>
      <trkpt lat="42.97351" lon="42.21328">
        <ele>680.571891</ele>
        <time>2021-08-15T10:16:10.541Z</time>
      </trkpt>
      <trkpt lat="42.97418" lon="42.21406">
        <ele>685.173981</ele>
        <time>2021-08-15T10:16:56.166Z</time>
      </trkpt>
      <trkpt lat="42.97436" lon="42.21437">
        <ele>686.486948</ele>
        <time>2021-08-15T10:17:11.141Z</time>
      </trkpt>
      <trkpt lat="42.97469" lon="42.21533">
        <ele>690.083564</ele>
        <time>2021-08-15T10:17:49.014Z</time>
      </trkpt>
      <trkpt lat="42.97472" lon="42.21564">
        <ele>691.165268</ele>
        <time>2021-08-15T10:17:59.167Z</time>
      </trkpt>
      <trkpt lat="42.9746" lon="42.21661">
        <ele>693.738757</ele>
        <time>2021-08-15T10:18:25.752Z</time>
      </trkpt>
      <trkpt lat="42.97472" lon="42.21752">
        <ele>695.02735</ele>
        <time>2021-08-15T10:18:47.594Z</time>
      </trkpt>
      <trkpt lat="42.97469" lon="42.21861">
        <ele>696.548884</ele>
        <time>2021-08-15T10:19:09.893Z</time>
      </trkpt>
      <trkpt lat="42.97493" lon="42.21912">
        <ele>697.610645</ele>
        <time>2021-08-15T10:19:22.654Z</time>
      </trkpt>
      <trkpt lat="42.97507" lon="42.21927">
        <ele>698.051803</ele>
        <time>2021-08-15T10:19:28.456Z</time>
      </trkpt>
      <trkpt lat="42.97526" lon="42.21935">
        <ele>698.544248</ele>
        <time>2021-08-15T10:19:34.843Z</time>
      </trkpt>
      <trkpt lat="42.97559" lon="42.21932">
        <ele>699.360646</ele>
        <time>2021-08-15T10:19:46.529Z</time>
      </trkpt>
      <trkpt lat="42.97574" lon="42.21946">
        <ele>699.803643</ele>
        <time>2021-08-15T10:19:53.435Z</time>
      </trkpt>
      <trkpt lat="42.97585" lon="42.21969">
        <ele>700.31285</ele>
        <time>2021-08-15T10:20:01.331Z</time>
      </trkpt>
      <trkpt lat="42.97649" lon="42.22038">
        <ele>702.81339</ele>
        <time>2021-08-15T10:20:33.853Z</time>
      </trkpt>
      <trkpt lat="42.97701" lon="42.22114">
        <ele>705.464754</ele>
        <time>2021-08-15T10:21:05.284Z</time>
      </trkpt>
      <trkpt lat="42.97732" lon="42.22144">
        <ele>706.780485</ele>
        <time>2021-08-15T10:21:20.635Z</time>
      </trkpt>
      <trkpt lat="42.97753" lon="42.22156">
        <ele>707.442749</ele>
        <time>2021-08-15T10:21:29.219Z</time>
      </trkpt>
      <trkpt lat="42.97808" lon="42.22154">
        <ele>708.368697</ele>
        <time>2021-08-15T10:21:47.652Z</time>
      </trkpt>
      <trkpt lat="42.97853" lon="42.22169">
        <ele>709.150125</ele>
        <time>2021-08-15T10:22:01.128Z</time>
      </trkpt>
      <trkpt lat="42.97893" lon="42.22198">
        <ele>709.909186</ele>
        <time>2021-08-15T10:22:13.161Z</time>
      </trkpt>
      <trkpt lat="42.97929" lon="42.22267">
        <ele>710.717531</ele>
        <time>2021-08-15T10:22:29.984Z</time>
      </trkpt>
      <trkpt lat="42.9799" lon="42.22363">
        <ele>711.669312</ele>
        <time>2021-08-15T10:22:54.859Z</time>
      </trkpt>
      <trkpt lat="42.98022" lon="42.22429">
        <ele>712.292305</ele>
        <time>2021-08-15T10:23:11.359Z</time>
      </trkpt>
      <trkpt lat="42.98084" lon="42.22672">
        <ele>714.819891</ele>
        <time>2021-08-15T10:24:07.641Z</time>
      </trkpt>
      <trkpt lat="42.98126" lon="42.22905">
        <ele>716.19165</ele>
        <time>2021-08-15T10:24:51.069Z</time>
      </trkpt>
      <trkpt lat="42.98181" lon="42.23069">
        <ele>718.109757</ele>
        <time>2021-08-15T10:25:27.549Z</time>
      </trkpt>
      <trkpt lat="42.98204" lon="42.23178">
        <ele>720.177246</ele>
        <time>2021-08-15T10:25:58.022Z</time>
      </trkpt>
      <trkpt lat="42.98238" lon="42.23281">
        <ele>722.986069</ele>
        <time>2021-08-15T10:26:30.714Z</time>
      </trkpt>
      <trkpt lat="42.98246" lon="42.23301">
        <ele>723.535816</ele>
        <time>2021-08-15T10:26:39.717Z</time>
      </trkpt>
      <trkpt lat="42.98264" lon="42.23349">
        <ele>724.780153</ele>
        <time>2021-08-15T10:26:56.330Z</time>
      </trkpt>
      <trkpt lat="42.98274" lon="42.23377">
        <ele>725.15228</ele>
        <time>2021-08-15T10:27:05.861Z</time>
      </trkpt>
      <trkpt lat="42.98296" lon="42.23448">
        <ele>726.060201</ele>
        <time>2021-08-15T10:27:23.541Z</time>
      </trkpt>
      <trkpt lat="42.9833" lon="42.23567">
        <ele>727.569168</ele>
        <time>2021-08-15T10:27:47.308Z</time>
      </trkpt>
      <trkpt lat="42.9834" lon="42.23614">
        <ele>727.692764</ele>
        <time>2021-08-15T10:27:55.746Z</time>
      </trkpt>
      <trkpt lat="42.98358" lon="42.23692">
        <ele>727.852263</ele>
        <time>2021-08-15T10:28:08.840Z</time>
      </trkpt>
      <trkpt lat="42.9837" lon="42.23727">
        <ele>727.928202</ele>
        <time>2021-08-15T10:28:14.855Z</time>
      </trkpt>
      <trkpt lat="42.98378" lon="42.23874">
        <ele>729.007062</ele>
        <time>2021-08-15T10:28:42.482Z</time>
      </trkpt>
      <trkpt lat="42.98389" lon="42.23916">
        <ele>729.604219</ele>
        <time>2021-08-15T10:28:53.233Z</time>
      </trkpt>
      <trkpt lat="42.98404" lon="42.23948">
        <ele>730.132714</ele>
        <time>2021-08-15T10:29:03.024Z</time>
      </trkpt>
      <trkpt lat="42.98474" lon="42.24039">
        <ele>731.849369</ele>
        <time>2021-08-15T10:29:36.449Z</time>
      </trkpt>
      <trkpt lat="42.98484" lon="42.24073">
        <ele>732.283929</ele>
        <time>2021-08-15T10:29:45.728Z</time>
      </trkpt>
      <trkpt lat="42.98491" lon="42.24115">
        <ele>732.795276</ele>
        <time>2021-08-15T10:29:55.974Z</time>
      </trkpt>
      <trkpt lat="42.98487" lon="42.24243">
        <ele>734.297539</ele>
        <time>2021-08-15T10:30:22.466Z</time>
      </trkpt>
      <trkpt lat="42.985" lon="42.2429">
        <ele>734.217832</ele>
        <time>2021-08-15T10:30:31.394Z</time>
      </trkpt>
      <trkpt lat="42.98581" lon="42.24425">
        <ele>733.839399</ele>
        <time>2021-08-15T10:30:58.202Z</time>
      </trkpt>
      <trkpt lat="42.98716" lon="42.24669">
        <ele>731.167861</ele>
        <time>2021-08-15T10:31:41.921Z</time>
      </trkpt>
      <trkpt lat="42.98746" lon="42.2477">
        <ele>729.697612</ele>
        <time>2021-08-15T10:31:56.801Z</time>
      </trkpt>
      <trkpt lat="42.98777" lon="42.24854">
        <ele>728.416919</ele>
        <time>2021-08-15T10:32:09.409Z</time>
      </trkpt>
      <trkpt lat="42.98793" lon="42.24929">
        <ele>727.624912</ele>
        <time>2021-08-15T10:32:19.587Z</time>
      </trkpt>
      <trkpt lat="42.98799" lon="42.25042">
        <ele>726.480941</ele>
        <time>2021-08-15T10:32:35.638Z</time>
      </trkpt>
      <trkpt lat="42.98798" lon="42.25113">
        <ele>725.914939</ele>
        <time>2021-08-15T10:32:46.468Z</time>
      </trkpt>
      <trkpt lat="42.98798" lon="42.25173">
        <ele>726.09086</ele>
        <time>2021-08-15T10:32:56.041Z</time>
      </trkpt>
      <trkpt lat="42.98797" lon="42.25203">
        <ele>726.177357</ele>
        <time>2021-08-15T10:33:01.086Z</time>
      </trkpt>
      <trkpt lat="42.98797" lon="42.25223">
        <ele>726.238345</ele>
        <time>2021-08-15T10:33:04.704Z</time>
      </trkpt>
      <trkpt lat="42.98754" lon="42.25384">
        <ele>727.054192</ele>
        <time>2021-08-15T10:33:38.339Z</time>
      </trkpt>
      <trkpt lat="42.9869" lon="42.25573">
        <ele>729.125311</ele>
        <time>2021-08-15T10:34:22.392Z</time>
      </trkpt>
      <trkpt lat="42.98632" lon="42.25667">
        <ele>730.997365</ele>
        <time>2021-08-15T10:34:52.639Z</time>
      </trkpt>
      <trkpt lat="42.98623" lon="42.25713">
        <ele>731.712713</ele>
        <time>2021-08-15T10:35:04.503Z</time>
      </trkpt>
      <trkpt lat="42.98627" lon="42.25745">
        <ele>732.201989</ele>
        <time>2021-08-15T10:35:12.679Z</time>
      </trkpt>
      <trkpt lat="42.98637" lon="42.25771">
        <ele>732.649657</ele>
        <time>2021-08-15T10:35:20.405Z</time>
      </trkpt>
      <trkpt lat="42.98743" lon="42.2595">
        <ele>735.045437</ele>
        <time>2021-08-15T10:36:10.541Z</time>
      </trkpt>
      <trkpt lat="42.98762" lon="42.26035">
        <ele>735.40798</ele>
        <time>2021-08-15T10:36:25.903Z</time>
      </trkpt>
      <trkpt lat="42.98777" lon="42.26137">
        <ele>735.655942</ele>
        <time>2021-08-15T10:36:43.042Z</time>
      </trkpt>
      <trkpt lat="42.98778" lon="42.26172">
        <ele>735.741204</ele>
        <time>2021-08-15T10:36:48.729Z</time>
      </trkpt>
      <trkpt lat="42.98762" lon="42.26352">
        <ele>736.600342</ele>
        <time>2021-08-15T10:37:22.591Z</time>
      </trkpt>
      <trkpt lat="42.98764" lon="42.26377">
        <ele>736.733291</ele>
        <time>2021-08-15T10:37:27.482Z</time>
      </trkpt>
      <trkpt lat="42.98776" lon="42.26402">
        <ele>736.89374</ele>
        <time>2021-08-15T10:37:33.624Z</time>
      </trkpt>
      <trkpt lat="42.98821" lon="42.26436">
        <ele>737.242455</ele>
        <time>2021-08-15T10:37:47.423Z</time>
      </trkpt>
      <trkpt lat="42.98845" lon="42.26438">
        <ele>737.382373</ele>
        <time>2021-08-15T10:37:53.896Z</time>
      </trkpt>
      <trkpt lat="42.98979" lon="42.2641">
        <ele>738.17725</ele>
        <time>2021-08-15T10:38:27.398Z</time>
      </trkpt>
      <trkpt lat="42.99007" lon="42.26412">
        <ele>738.385351</ele>
        <time>2021-08-15T10:38:33.395Z</time>
      </trkpt>
      <trkpt lat="42.99137" lon="42.2655">
        <ele>739.835526</ele>
        <time>2021-08-15T10:39:16.192Z</time>
      </trkpt>
      <trkpt lat="42.99157" lon="42.26581">
        <ele>740.627989</ele>
        <time>2021-08-15T10:39:25.571Z</time>
      </trkpt>
      <trkpt lat="42.99232" lon="42.26737">
        <ele>744.157907</ele>
        <time>2021-08-15T10:40:15.647Z</time>
      </trkpt>
      <trkpt lat="42.99259" lon="42.26764">
        <ele>745.407896</ele>
        <time>2021-08-15T10:40:29.768Z</time>
      </trkpt>
      <trkpt lat="42.99273" lon="42.26767">
        <ele>745.962188</ele>
        <time>2021-08-15T10:40:35.721Z</time>
      </trkpt>
      <trkpt lat="42.99291" lon="42.26764">
        <ele>746.664879</ele>
        <time>2021-08-15T10:40:44.064Z</time>
      </trkpt>
      <trkpt lat="42.99312" lon="42.26753">
        <ele>747.526488</ele>
        <time>2021-08-15T10:40:53.752Z</time>
      </trkpt>
      <trkpt lat="42.99339" lon="42.26741">
        <ele>748.589771</ele>
        <time>2021-08-15T10:41:06.602Z</time>
      </trkpt>
      <trkpt lat="42.99475" lon="42.26681">
        <ele>752.411437</ele>
        <time>2021-08-15T10:42:02.910Z</time>
      </trkpt>
      <trkpt lat="42.99496" lon="42.26674">
        <ele>752.77402</ele>
        <time>2021-08-15T10:42:08.226Z</time>
      </trkpt>
      <trkpt lat="42.99516" lon="42.26676">
        <ele>753.104196</ele>
        <time>2021-08-15T10:42:14.866Z</time>
      </trkpt>
      <trkpt lat="42.99535" lon="42.26688">
        <ele>753.461304</ele>
        <time>2021-08-15T10:42:19.309Z</time>
      </trkpt>
      <trkpt lat="42.99573" lon="42.26733">
        <ele>754.216644</ele>
        <time>2021-08-15T10:42:32.390Z</time>
      </trkpt>
      <trkpt lat="42.99586" lon="42.26741">
        <ele>754.337339</ele>
        <time>2021-08-15T10:42:35.124Z</time>
      </trkpt>
      <trkpt lat="42.99622" lon="42.26749">
        <ele>754.647988</ele>
        <time>2021-08-15T10:42:43.301Z</time>
      </trkpt>
      <trkpt lat="42.99673" lon="42.2678">
        <ele>755.11813</ele>
        <time>2021-08-15T10:42:56.076Z</time>
      </trkpt>
      <trkpt lat="42.99718" lon="42.26833">
        <ele>755.622824</ele>
        <time>2021-08-15T10:43:15.963Z</time>
      </trkpt>
      <trkpt lat="42.99736" lon="42.26887">
        <ele>756.860897</ele>
        <time>2021-08-15T10:43:33.160Z</time>
      </trkpt>
      <trkpt lat="42.99748" lon="42.26968">
        <ele>758.695217</ele>
        <time>2021-08-15T10:43:58.426Z</time>
      </trkpt>
      <trkpt lat="42.99748" lon="42.27057">
        <ele>760.679902</ele>
        <time>2021-08-15T10:44:24.668Z</time>
      </trkpt>
      <trkpt lat="42.99725" lon="42.27138">
        <ele>761.383946</ele>
        <time>2021-08-15T10:44:46.303Z</time>
      </trkpt>
      <trkpt lat="42.99699" lon="42.27292">
        <ele>761.971085</ele>
        <time>2021-08-15T10:45:12.915Z</time>
      </trkpt>
      <trkpt lat="42.99705" lon="42.27357">
        <ele>761.920395</ele>
        <time>2021-08-15T10:45:22.762Z</time>
      </trkpt>
      <trkpt lat="42.9972" lon="42.27409">
        <ele>761.756813</ele>
        <time>2021-08-15T10:45:31.154Z</time>
      </trkpt>
      <trkpt lat="42.99749" lon="42.27451">
        <ele>761.587201</ele>
        <time>2021-08-15T10:45:40.079Z</time>
      </trkpt>
      <trkpt lat="42.99781" lon="42.27483">
        <ele>761.426163</ele>
        <time>2021-08-15T10:45:48.926Z</time>
      </trkpt>
      <trkpt lat="42.99892" lon="42.27557">
        <ele>762.822828</ele>
        <time>2021-08-15T10:46:24.143Z</time>
      </trkpt>
      <trkpt lat="42.99955" lon="42.27607">
        <ele>763.919998</ele>
        <time>2021-08-15T10:46:49.012Z</time>
      </trkpt>
      <trkpt lat="42.99968" lon="42.27629">
        <ele>764.326234</ele>
        <time>2021-08-15T10:46:56.471Z</time>
      </trkpt>
      <trkpt lat="43.00012" lon="42.27755">
        <ele>766.578979</ele>
        <time>2021-08-15T10:47:32.708Z</time>
      </trkpt>
      <trkpt lat="43.00041" lon="42.27821">
        <ele>767.825076</ele>
        <time>2021-08-15T10:47:51.389Z</time>
      </trkpt>
      <trkpt lat="43.00069" lon="42.27859">
        <ele>768.526497</ele>
        <time>2021-08-15T10:48:03.735Z</time>
      </trkpt>
      <trkpt lat="43.00101" lon="42.27889">
        <ele>769.176771</ele>
        <time>2021-08-15T10:48:15.632Z</time>
      </trkpt>
      <trkpt lat="43.00221" lon="42.2798">
        <ele>771.579703</ele>
        <time>2021-08-15T10:48:58.324Z</time>
      </trkpt>
      <trkpt lat="43.00272" lon="42.28027">
        <ele>772.916967</ele>
        <time>2021-08-15T10:49:18.801Z</time>
      </trkpt>
      <trkpt lat="43.00302" lon="42.2808">
        <ele>773.973993</ele>
        <time>2021-08-15T10:49:35.877Z</time>
      </trkpt>
      <trkpt lat="43.00444" lon="42.28197">
        <ele>778.019578</ele>
        <time>2021-08-15T10:50:36.392Z</time>
      </trkpt>
      <trkpt lat="43.00495" lon="42.28261">
        <ele>779.721519</ele>
        <time>2021-08-15T10:51:00.445Z</time>
      </trkpt>
      <trkpt lat="43.00553" lon="42.28279">
        <ele>780.925559</ele>
        <time>2021-08-15T10:51:20.733Z</time>
      </trkpt>
      <trkpt lat="43.00577" lon="42.28296">
        <ele>781.462922</ele>
        <time>2021-08-15T10:51:29.595Z</time>
      </trkpt>
      <trkpt lat="43.00595" lon="42.28326">
        <ele>782.029816</ele>
        <time>2021-08-15T10:51:39.038Z</time>
      </trkpt>
      <trkpt lat="43.00652" lon="42.28477">
        <ele>784.619771</ele>
        <time>2021-08-15T10:52:18.516Z</time>
      </trkpt>
      <trkpt lat="43.00673" lon="42.28513">
        <ele>785.350257</ele>
        <time>2021-08-15T10:52:29.606Z</time>
      </trkpt>
      <trkpt lat="43.00736" lon="42.2859">
        <ele>787.391544</ele>
        <time>2021-08-15T10:52:59.239Z</time>
      </trkpt>
      <trkpt lat="43.00748" lon="42.28613">
        <ele>788.361106</ele>
        <time>2021-08-15T10:53:07.592Z</time>
      </trkpt>
      <trkpt lat="43.00788" lon="42.2874">
        <ele>792.892666</ele>
        <time>2021-08-15T10:53:50.756Z</time>
      </trkpt>
      <trkpt lat="43.00808" lon="42.28947">
        <ele>804.200586</ele>
        <time>2021-08-15T10:55:18.536Z</time>
      </trkpt>
      <trkpt lat="43.00787" lon="42.29046">
        <ele>810.844921</ele>
        <time>2021-08-15T10:56:18.442Z</time>
      </trkpt>
      <trkpt lat="43.00755" lon="42.29118">
        <ele>817.89327</ele>
        <time>2021-08-15T10:57:11.321Z</time>
      </trkpt>
      <trkpt lat="43.00754" lon="42.29131">
        <ele>818.962238</ele>
        <time>2021-08-15T10:57:19.054Z</time>
      </trkpt>
      <trkpt lat="43.00776" lon="42.2916">
        <ele>822.452504</ele>
        <time>2021-08-15T10:57:45.458Z</time>
      </trkpt>
      <trkpt lat="43.008" lon="42.29183">
        <ele>825.865956</ele>
        <time>2021-08-15T10:58:10.397Z</time>
      </trkpt>
      <trkpt lat="43.00824" lon="42.29198">
        <ele>828.827316</ele>
        <time>2021-08-15T10:58:31.013Z</time>
      </trkpt>
      <trkpt lat="43.00871" lon="42.29201">
        <ele>832.365305</ele>
        <time>2021-08-15T10:59:05.068Z</time>
      </trkpt>
      <trkpt lat="43.00883" lon="42.29212">
        <ele>832.906667</ele>
        <time>2021-08-15T10:59:14.586Z</time>
      </trkpt>
      <trkpt lat="43.00887" lon="42.29223">
        <ele>833.252528</ele>
        <time>2021-08-15T10:59:21.049Z</time>
      </trkpt>
      <trkpt lat="43.00886" lon="42.29235">
        <ele>833.562631</ele>
        <time>2021-08-15T10:59:26.050Z</time>
      </trkpt>
      <trkpt lat="43.00867" lon="42.29259">
        <ele>834.530219</ele>
        <time>2021-08-15T10:59:38.798Z</time>
      </trkpt>
      <trkpt lat="43.00782" lon="42.29285">
        <ele>837.733841</ele>
        <time>2021-08-15T11:00:00.413Z</time>
      </trkpt>
      <trkpt lat="43.00754" lon="42.29309">
        <ele>837.719711</ele>
        <time>2021-08-15T11:00:06.946Z</time>
      </trkpt>
      <trkpt lat="43.00746" lon="42.29334">
        <ele>837.393752</ele>
        <time>2021-08-15T11:00:11.527Z</time>
      </trkpt>
      <trkpt lat="43.00748" lon="42.29357">
        <ele>837.119342</ele>
        <time>2021-08-15T11:00:14.313Z</time>
      </trkpt>
      <trkpt lat="43.00766" lon="42.29422">
        <ele>836.27855</ele>
        <time>2021-08-15T11:00:24.019Z</time>
      </trkpt>
      <trkpt lat="43.0081" lon="42.2973">
        <ele>834.176253</ele>
        <time>2021-08-15T11:01:10.288Z</time>
      </trkpt>
      <trkpt lat="43.00827" lon="42.29793">
        <ele>835.328653</ele>
        <time>2021-08-15T11:01:27.759Z</time>
      </trkpt>
      <trkpt lat="43.00833" lon="42.29838">
        <ele>836.796002</ele>
        <time>2021-08-15T11:01:42.049Z</time>
      </trkpt>
      <trkpt lat="43.00843" lon="42.29863">
        <ele>837.672504</ele>
        <time>2021-08-15T11:01:51.216Z</time>
      </trkpt>
      <trkpt lat="43.00867" lon="42.29898">
        <ele>839.200295</ele>
        <time>2021-08-15T11:02:08.994Z</time>
      </trkpt>
      <trkpt lat="43.00892" lon="42.29974">
        <ele>841.831481</ele>
        <time>2021-08-15T11:02:41.653Z</time>
      </trkpt>
      <trkpt lat="43.00894" lon="42.29997">
        <ele>842.586732</ele>
        <time>2021-08-15T11:02:50.188Z</time>
      </trkpt>
      <trkpt lat="43.00887" lon="42.3003">
        <ele>843.749775</ele>
        <time>2021-08-15T11:03:03.433Z</time>
      </trkpt>
      <trkpt lat="43.00911" lon="42.30095">
        <ele>846.172223</ele>
        <time>2021-08-15T11:03:30.498Z</time>
      </trkpt>
      <trkpt lat="43.00913" lon="42.30141">
        <ele>847.742598</ele>
        <time>2021-08-15T11:03:46.780Z</time>
      </trkpt>
      <trkpt lat="43.00923" lon="42.30191">
        <ele>849.483608</ele>
        <time>2021-08-15T11:04:02.403Z</time>
      </trkpt>
      <trkpt lat="43.00916" lon="42.30341">
        <ele>851.051105</ele>
        <time>2021-08-15T11:04:36.115Z</time>
      </trkpt>
      <trkpt lat="43.00924" lon="42.30396">
        <ele>851.458425</ele>
        <time>2021-08-15T11:04:46.097Z</time>
      </trkpt>
      <trkpt lat="43.00916" lon="42.3045">
        <ele>851.867288</ele>
        <time>2021-08-15T11:04:55.460Z</time>
      </trkpt>
      <trkpt lat="43.00916" lon="42.3051">
        <ele>851.495882</ele>
        <time>2021-08-15T11:05:05.228Z</time>
      </trkpt>
      <trkpt lat="43.00911" lon="42.30568">
        <ele>851.101043</ele>
        <time>2021-08-15T11:05:14.352Z</time>
      </trkpt>
      <trkpt lat="43.00918" lon="42.30606">
        <ele>850.838745</ele>
        <time>2021-08-15T11:05:20.395Z</time>
      </trkpt>
      <trkpt lat="43.00985" lon="42.30658">
        <ele>849.891794</ele>
        <time>2021-08-15T11:05:36.017Z</time>
      </trkpt>
      <trkpt lat="43.01017" lon="42.30712">
        <ele>848.259184</ele>
        <time>2021-08-15T11:05:45.541Z</time>
      </trkpt>
      <trkpt lat="43.0104" lon="42.30728">
        <ele>847.436536</ele>
        <time>2021-08-15T11:05:50.222Z</time>
      </trkpt>
      <trkpt lat="43.01149" lon="42.30734">
        <ele>843.740668</ele>
        <time>2021-08-15T11:06:09.017Z</time>
      </trkpt>
      <trkpt lat="43.01194" lon="42.30745">
        <ele>841.646649</ele>
        <time>2021-08-15T11:06:16.674Z</time>
      </trkpt>
      <trkpt lat="43.01242" lon="42.30771">
        <ele>839.314234</ele>
        <time>2021-08-15T11:06:25.155Z</time>
      </trkpt>
      <trkpt lat="43.01289" lon="42.30816">
        <ele>836.724416</ele>
        <time>2021-08-15T11:06:34.744Z</time>
      </trkpt>
      <trkpt lat="43.01359" lon="42.30928">
        <ele>834.041246</ele>
        <time>2021-08-15T11:06:54.144Z</time>
      </trkpt>
      <trkpt lat="43.01417" lon="42.31068">
        <ele>832.216357</ele>
        <time>2021-08-15T11:07:18.507Z</time>
      </trkpt>
      <trkpt lat="43.01453" lon="42.31122">
        <ele>832.285386</ele>
        <time>2021-08-15T11:07:31.691Z</time>
      </trkpt>
      <trkpt lat="43.01558" lon="42.31194">
        <ele>832.556081</ele>
        <time>2021-08-15T11:08:02.751Z</time>
      </trkpt>
      <trkpt lat="43.01689" lon="42.31314">
        <ele>833.442374</ele>
        <time>2021-08-15T11:08:43.531Z</time>
      </trkpt>
      <trkpt lat="43.01752" lon="42.31361">
        <ele>833.850566</ele>
        <time>2021-08-15T11:09:01.490Z</time>
      </trkpt>
      <trkpt lat="43.01808" lon="42.31421">
        <ele>834.258294</ele>
        <time>2021-08-15T11:09:19.950Z</time>
      </trkpt>
      <trkpt lat="43.01867" lon="42.31543">
        <ele>835.59675</ele>
        <time>2021-08-15T11:09:49.724Z</time>
      </trkpt>
      <trkpt lat="43.0193" lon="42.31711">
        <ele>837.780333</ele>
        <time>2021-08-15T11:10:35.515Z</time>
      </trkpt>
      <trkpt lat="43.01954" lon="42.31801">
        <ele>838.96959</ele>
        <time>2021-08-15T11:10:58.596Z</time>
      </trkpt>
      <trkpt lat="43.01968" lon="42.31836">
        <ele>839.482496</ele>
        <time>2021-08-15T11:11:08.398Z</time>
      </trkpt>
      <trkpt lat="43.01981" lon="42.31847">
        <ele>839.73711</ele>
        <time>2021-08-15T11:11:13.174Z</time>
      </trkpt>
      <trkpt lat="43.02028" lon="42.31846">
        <ele>840.193973</ele>
        <time>2021-08-15T11:11:27.065Z</time>
      </trkpt>
      <trkpt lat="43.02083" lon="42.31864">
        <ele>839.829948</ele>
        <time>2021-08-15T11:11:40.927Z</time>
      </trkpt>
      <trkpt lat="43.02116" lon="42.31888">
        <ele>839.585742</ele>
        <time>2021-08-15T11:11:48.888Z</time>
      </trkpt>
      <trkpt lat="43.02141" lon="42.31918">
        <ele>839.36964</ele>
        <time>2021-08-15T11:11:55.585Z</time>
      </trkpt>
      <trkpt lat="43.02191" lon="42.32034">
        <ele>837.802624</ele>
        <time>2021-08-15T11:12:14.142Z</time>
      </trkpt>
      <trkpt lat="43.02205" lon="42.32083">
        <ele>836.959285</ele>
        <time>2021-08-15T11:12:21.126Z</time>
      </trkpt>
      <trkpt lat="43.0222" lon="42.32105">
        <ele>836.471008</ele>
        <time>2021-08-15T11:12:25.142Z</time>
      </trkpt>
      <trkpt lat="43.02244" lon="42.32126">
        <ele>835.856971</ele>
        <time>2021-08-15T11:12:30.320Z</time>
      </trkpt>
      <trkpt lat="43.02275" lon="42.32131">
        <ele>835.209795</ele>
        <time>2021-08-15T11:12:36.418Z</time>
      </trkpt>
      <trkpt lat="43.0236" lon="42.32112">
        <ele>837.238479</ele>
        <time>2021-08-15T11:12:58.040Z</time>
      </trkpt>
      <trkpt lat="43.024" lon="42.32114">
        <ele>838.169283</ele>
        <time>2021-08-15T11:13:12.991Z</time>
      </trkpt>
      <trkpt lat="43.02434" lon="42.32125">
        <ele>838.994498</ele>
        <time>2021-08-15T11:13:29.227Z</time>
      </trkpt>
      <trkpt lat="43.0247" lon="42.32158">
        <ele>841.486907</ele>
        <time>2021-08-15T11:13:53.418Z</time>
      </trkpt>
      <trkpt lat="43.02507" lon="42.32232">
        <ele>846.7306</ele>
        <time>2021-08-15T11:14:35.991Z</time>
      </trkpt>
      <trkpt lat="43.02514" lon="42.32288">
        <ele>850.110783</ele>
        <time>2021-08-15T11:15:07.446Z</time>
      </trkpt>
      <trkpt lat="43.02505" lon="42.32408">
        <ele>855.746574</ele>
        <time>2021-08-15T11:16:04.063Z</time>
      </trkpt>
      <trkpt lat="43.02502" lon="42.32492">
        <ele>858.445409</ele>
        <time>2021-08-15T11:16:35.612Z</time>
      </trkpt>
      <trkpt lat="43.025" lon="42.32543">
        <ele>860.103486</ele>
        <time>2021-08-15T11:16:56.201Z</time>
      </trkpt>
      <trkpt lat="43.02541" lon="42.32726">
        <ele>860.902546</ele>
        <time>2021-08-15T11:17:46.770Z</time>
      </trkpt>
      <trkpt lat="43.02562" lon="42.32723">
        <ele>860.691093</ele>
        <time>2021-08-15T11:17:53.549Z</time>
      </trkpt>
      <trkpt lat="43.02571" lon="42.32783">
        <ele>860.249148</ele>
        <time>2021-08-15T11:18:07.943Z</time>
      </trkpt>
      <trkpt lat="43.02627" lon="42.32832">
        <ele>860.55902</ele>
        <time>2021-08-15T11:18:29.575Z</time>
      </trkpt>
      <trkpt lat="43.02655" lon="42.32827">
        <ele>860.798415</ele>
        <time>2021-08-15T11:18:40.106Z</time>
      </trkpt>
      <trkpt lat="43.02711" lon="42.32844">
        <ele>861.286787</ele>
        <time>2021-08-15T11:18:58.606Z</time>
      </trkpt>
      <trkpt lat="43.02719" lon="42.3285">
        <ele>861.369276</ele>
        <time>2021-08-15T11:19:02.390Z</time>
      </trkpt>
      <trkpt lat="43.02735" lon="42.3287">
        <ele>861.55638</ele>
        <time>2021-08-15T11:19:10.110Z</time>
      </trkpt>
      <trkpt lat="43.02804" lon="42.32971">
        <ele>864.586555</ele>
        <time>2021-08-15T11:19:52.072Z</time>
      </trkpt>
      <trkpt lat="43.02911" lon="42.33187">
        <ele>868.615934</ele>
        <time>2021-08-15T11:21:02.487Z</time>
      </trkpt>
      <trkpt lat="43.02925" lon="42.3323">
        <ele>868.983031</ele>
        <time>2021-08-15T11:21:09.389Z</time>
      </trkpt>
      <trkpt lat="43.0296" lon="42.33284">
        <ele>869.360642</ele>
        <time>2021-08-15T11:21:19.450Z</time>
      </trkpt>
      <trkpt lat="43.03007" lon="42.33372">
        <ele>868.455166</ele>
        <time>2021-08-15T11:21:34.713Z</time>
      </trkpt>
      <trkpt lat="43.03025" lon="42.3343">
        <ele>867.937147</ele>
        <time>2021-08-15T11:21:43.439Z</time>
      </trkpt>
      <trkpt lat="43.03029" lon="42.335">
        <ele>867.436893</ele>
        <time>2021-08-15T11:21:53.980Z</time>
      </trkpt>
      <trkpt lat="43.03113" lon="42.3371">
        <ele>868.080458</ele>
        <time>2021-08-15T11:22:36.554Z</time>
      </trkpt>
      <trkpt lat="43.03136" lon="42.33789">
        <ele>869.489206</ele>
        <time>2021-08-15T11:22:55.025Z</time>
      </trkpt>
      <trkpt lat="43.03147" lon="42.33813">
        <ele>869.966779</ele>
        <time>2021-08-15T11:23:02.341Z</time>
      </trkpt>
      <trkpt lat="43.03212" lon="42.33894">
        <ele>871.960499</ele>
        <time>2021-08-15T11:23:34.440Z</time>
      </trkpt>
      <trkpt lat="43.03238" lon="42.33987">
        <ele>873.53433</ele>
        <time>2021-08-15T11:24:02.939Z</time>
      </trkpt>
      <trkpt lat="43.03253" lon="42.34078">
        <ele>874.99978</ele>
        <time>2021-08-15T11:24:27.692Z</time>
      </trkpt>
      <trkpt lat="43.03332" lon="42.34228">
        <ele>875.086485</ele>
        <time>2021-08-15T11:24:57.693Z</time>
      </trkpt>
      <trkpt lat="43.03386" lon="42.34393">
        <ele>873.666275</ele>
        <time>2021-08-15T11:25:21.687Z</time>
      </trkpt>
      <trkpt lat="43.03402" lon="42.34462">
        <ele>873.075931</ele>
        <time>2021-08-15T11:25:31.664Z</time>
      </trkpt>
      <trkpt lat="43.03428" lon="42.34515">
        <ele>872.559697</ele>
        <time>2021-08-15T11:25:41.069Z</time>
      </trkpt>
      <trkpt lat="43.03457" lon="42.34546">
        <ele>872.148481</ele>
        <time>2021-08-15T11:25:49.100Z</time>
      </trkpt>
      <trkpt lat="43.03526" lon="42.34592">
        <ele>872.269411</ele>
        <time>2021-08-15T11:26:08.228Z</time>
      </trkpt>
      <trkpt lat="43.03577" lon="42.34616">
        <ele>872.387328</ele>
        <time>2021-08-15T11:26:21.435Z</time>
      </trkpt>
      <trkpt lat="43.03665" lon="42.34658">
        <ele>872.49895</ele>
        <time>2021-08-15T11:26:41.978Z</time>
      </trkpt>
      <trkpt lat="43.03737" lon="42.34734">
        <ele>872.490735</ele>
        <time>2021-08-15T11:27:01.434Z</time>
      </trkpt>
      <trkpt lat="43.03932" lon="42.34958">
        <ele>873.644962</ele>
        <time>2021-08-15T11:28:04.811Z</time>
      </trkpt>
      <trkpt lat="43.03953" lon="42.35034">
        <ele>874.144458</ele>
        <time>2021-08-15T11:28:20.853Z</time>
      </trkpt>
      <trkpt lat="43.03974" lon="42.35081">
        <ele>874.489316</ele>
        <time>2021-08-15T11:28:32.122Z</time>
      </trkpt>
      <trkpt lat="43.0398" lon="42.35102">
        <ele>874.625174</ele>
        <time>2021-08-15T11:28:36.415Z</time>
      </trkpt>
      <trkpt lat="43.03981" lon="42.35153">
        <ele>874.936123</ele>
        <time>2021-08-15T11:28:46.311Z</time>
      </trkpt>
      <trkpt lat="43.04007" lon="42.35277">
        <ele>875.630837</ele>
        <time>2021-08-15T11:29:10.209Z</time>
      </trkpt>
      <trkpt lat="43.04014" lon="42.35478">
        <ele>877.364448</ele>
        <time>2021-08-15T11:29:48.733Z</time>
      </trkpt>
      <trkpt lat="43.04023" lon="42.35546">
        <ele>878.27644</ele>
        <time>2021-08-15T11:30:03.707Z</time>
      </trkpt>
      <trkpt lat="43.04043" lon="42.35608">
        <ele>879.172068</ele>
        <time>2021-08-15T11:30:20.773Z</time>
      </trkpt>
      <trkpt lat="43.04098" lon="42.3569">
        <ele>882.091831</ele>
        <time>2021-08-15T11:30:52.990Z</time>
      </trkpt>
      <trkpt lat="43.04133" lon="42.35775">
        <ele>884.964549</ele>
        <time>2021-08-15T11:31:24.733Z</time>
      </trkpt>
      <trkpt lat="43.04138" lon="42.35893">
        <ele>888.485487</ele>
        <time>2021-08-15T11:32:04.868Z</time>
      </trkpt>
      <trkpt lat="43.04132" lon="42.36042">
        <ele>892.8929</ele>
        <time>2021-08-15T11:32:51.644Z</time>
      </trkpt>
      <trkpt lat="43.04109" lon="42.36154">
        <ele>895.639833</ele>
        <time>2021-08-15T11:33:23.645Z</time>
      </trkpt>
      <trkpt lat="43.04105" lon="42.36401">
        <ele>900.666692</ele>
        <time>2021-08-15T11:34:27.096Z</time>
      </trkpt>
      <trkpt lat="43.04086" lon="42.36497">
        <ele>902.632123</ele>
        <time>2021-08-15T11:34:53.948Z</time>
      </trkpt>
      <trkpt lat="43.04087" lon="42.36564">
        <ele>903.956273</ele>
        <time>2021-08-15T11:35:11.856Z</time>
      </trkpt>
      <trkpt lat="43.04091" lon="42.36581">
        <ele>904.137163</ele>
        <time>2021-08-15T11:35:16.429Z</time>
      </trkpt>
      <trkpt lat="43.04107" lon="42.36605">
        <ele>904.407586</ele>
        <time>2021-08-15T11:35:24.773Z</time>
      </trkpt>
      <trkpt lat="43.0411" lon="42.36652">
        <ele>904.794342</ele>
        <time>2021-08-15T11:35:35.885Z</time>
      </trkpt>
      <trkpt lat="43.04083" lon="42.36772">
        <ele>905.847397</ele>
        <time>2021-08-15T11:36:00.862Z</time>
      </trkpt>
      <trkpt lat="43.04082" lon="42.3695">
        <ele>904.26448</ele>
        <time>2021-08-15T11:36:26.211Z</time>
      </trkpt>
      <trkpt lat="43.04037" lon="42.37174">
        <ele>902.041264</ele>
        <time>2021-08-15T11:36:56.175Z</time>
      </trkpt>
      <trkpt lat="43.04035" lon="42.37218">
        <ele>901.682726</ele>
        <time>2021-08-15T11:37:03.539Z</time>
      </trkpt>
      <trkpt lat="43.04042" lon="42.37259">
        <ele>901.334506</ele>
        <time>2021-08-15T11:37:11.685Z</time>
      </trkpt>
      <trkpt lat="43.04062" lon="42.37299">
        <ele>901.644025</ele>
        <time>2021-08-15T11:37:21.622Z</time>
      </trkpt>
      <trkpt lat="43.04086" lon="42.3737">
        <ele>903.036509</ele>
        <time>2021-08-15T11:37:38.694Z</time>
      </trkpt>
      <trkpt lat="43.04088" lon="42.37382">
        <ele>903.259612</ele>
        <time>2021-08-15T11:37:43.788Z</time>
      </trkpt>
      <trkpt lat="43.04081" lon="42.37488">
        <ele>905.159901</ele>
        <time>2021-08-15T11:38:13.497Z</time>
      </trkpt>
      <trkpt lat="43.04086" lon="42.37548">
        <ele>906.04168</ele>
        <time>2021-08-15T11:38:30.204Z</time>
      </trkpt>
      <trkpt lat="43.04095" lon="42.37568">
        <ele>906.34107</ele>
        <time>2021-08-15T11:38:36.462Z</time>
      </trkpt>
      <trkpt lat="43.04153" lon="42.37646">
        <ele>907.752917</ele>
        <time>2021-08-15T11:38:59.134Z</time>
      </trkpt>
      <trkpt lat="43.042" lon="42.37729">
        <ele>909.350435</ele>
        <time>2021-08-15T11:39:20.381Z</time>
      </trkpt>
      <trkpt lat="43.04225" lon="42.37756">
        <ele>910.235012</ele>
        <time>2021-08-15T11:39:30.618Z</time>
      </trkpt>
      <trkpt lat="43.04296" lon="42.37802">
        <ele>912.458199</ele>
        <time>2021-08-15T11:39:59.137Z</time>
      </trkpt>
      <trkpt lat="43.04312" lon="42.3782">
        <ele>913.015216</ele>
        <time>2021-08-15T11:40:07.661Z</time>
      </trkpt>
      <trkpt lat="43.04335" lon="42.37871">
        <ele>914.365414</ele>
        <time>2021-08-15T11:40:27.454Z</time>
      </trkpt>
      <trkpt lat="43.04375" lon="42.38009">
        <ele>918.033162</ele>
        <time>2021-08-15T11:41:18.077Z</time>
      </trkpt>
      <trkpt lat="43.04391" lon="42.38039">
        <ele>918.95058</ele>
        <time>2021-08-15T11:41:27.500Z</time>
      </trkpt>
      <trkpt lat="43.04426" lon="42.38075">
        <ele>919.593137</ele>
        <time>2021-08-15T11:41:37.208Z</time>
      </trkpt>
      <trkpt lat="43.04471" lon="42.38097">
        <ele>918.988111</ele>
        <time>2021-08-15T11:41:46.532Z</time>
      </trkpt>
      <trkpt lat="43.04542" lon="42.38102">
        <ele>918.086775</ele>
        <time>2021-08-15T11:41:59.544Z</time>
      </trkpt>
      <trkpt lat="43.04565" lon="42.38105">
        <ele>917.794055</ele>
        <time>2021-08-15T11:42:03.495Z</time>
      </trkpt>
      <trkpt lat="43.04595" lon="42.38101">
        <ele>917.496113</ele>
        <time>2021-08-15T11:42:09.080Z</time>
      </trkpt>
      <trkpt lat="43.04618" lon="42.38093">
        <ele>917.405208</ele>
        <time>2021-08-15T11:42:13.699Z</time>
      </trkpt>
      <trkpt lat="43.04643" lon="42.38073">
        <ele>917.291463</ele>
        <time>2021-08-15T11:42:19.468Z</time>
      </trkpt>
      <trkpt lat="43.04708" lon="42.37975">
        <ele>916.919806</ele>
        <time>2021-08-15T11:42:39.702Z</time>
      </trkpt>
      <trkpt lat="43.04744" lon="42.37935">
        <ele>917.274977</ele>
        <time>2021-08-15T11:42:54.975Z</time>
      </trkpt>
      <trkpt lat="43.04754" lon="42.37933">
        <ele>917.431819</ele>
        <time>2021-08-15T11:43:00.747Z</time>
      </trkpt>
      <trkpt lat="43.04773" lon="42.37952">
        <ele>917.817728</ele>
        <time>2021-08-15T11:43:05.709Z</time>
      </trkpt>
      <trkpt lat="43.04775" lon="42.37967">
        <ele>918.006945</ele>
        <time>2021-08-15T11:43:12.202Z</time>
      </trkpt>
      <trkpt lat="43.04771" lon="42.37978">
        <ele>918.14974</ele>
        <time>2021-08-15T11:43:13.621Z</time>
      </trkpt>
      <trkpt lat="43.04737" lon="42.38028">
        <ele>918.97082</ele>
        <time>2021-08-15T11:43:28.518Z</time>
      </trkpt>
      <trkpt lat="43.04723" lon="42.38089">
        <ele>919.729112</ele>
        <time>2021-08-15T11:43:44.800Z</time>
      </trkpt>
      <trkpt lat="43.04724" lon="42.38114">
        <ele>920.068897</ele>
        <time>2021-08-15T11:43:48.838Z</time>
      </trkpt>
      <trkpt lat="43.04743" lon="42.38156">
        <ele>920.734333</ele>
        <time>2021-08-15T11:43:59.444Z</time>
      </trkpt>
      <trkpt lat="43.04769" lon="42.38183">
        <ele>921.347654</ele>
        <time>2021-08-15T11:44:12.479Z</time>
      </trkpt>
      <trkpt lat="43.04821" lon="42.38258">
        <ele>922.745931</ele>
        <time>2021-08-15T11:44:36.841Z</time>
      </trkpt>
      <trkpt lat="43.04865" lon="42.38289">
        <ele>923.518341</ele>
        <time>2021-08-15T11:44:50.035Z</time>
      </trkpt>
      <trkpt lat="43.04932" lon="42.38394">
        <ele>924.900971</ele>
        <time>2021-08-15T11:45:17.534Z</time>
      </trkpt>
      <trkpt lat="43.04984" lon="42.38527">
        <ele>928.316812</ele>
        <time>2021-08-15T11:45:52.741Z</time>
      </trkpt>
      <trkpt lat="43.05049" lon="42.38653">
        <ele>933.408688</ele>
        <time>2021-08-15T11:46:50.214Z</time>
      </trkpt>
      <trkpt lat="43.05058" lon="42.38677">
        <ele>934.444376</ele>
        <time>2021-08-15T11:47:01.268Z</time>
      </trkpt>
      <trkpt lat="43.0506" lon="42.38701">
        <ele>935.490822</ele>
        <time>2021-08-15T11:47:11.212Z</time>
      </trkpt>
      <trkpt lat="43.05049" lon="42.38806">
        <ele>939.961162</ele>
        <time>2021-08-15T11:47:53.700Z</time>
      </trkpt>
      <trkpt lat="43.05051" lon="42.3884">
        <ele>941.40557</ele>
        <time>2021-08-15T11:48:06.628Z</time>
      </trkpt>
      <trkpt lat="43.05066" lon="42.38881">
        <ele>943.33749</ele>
        <time>2021-08-15T11:48:23.027Z</time>
      </trkpt>
      <trkpt lat="43.0507" lon="42.38971">
        <ele>945.595765</ele>
        <time>2021-08-15T11:48:50.071Z</time>
      </trkpt>
      <trkpt lat="43.05082" lon="42.38994">
        <ele>946.20102</ele>
        <time>2021-08-15T11:48:57.902Z</time>
      </trkpt>
      <trkpt lat="43.05107" lon="42.39016">
        <ele>947.043886</ele>
        <time>2021-08-15T11:49:07.724Z</time>
      </trkpt>
      <trkpt lat="43.05145" lon="42.3907">
        <ele>948.639611</ele>
        <time>2021-08-15T11:49:24.840Z</time>
      </trkpt>
      <trkpt lat="43.05186" lon="42.39239">
        <ele>952.890666</ele>
        <time>2021-08-15T11:50:08.907Z</time>
      </trkpt>
      <trkpt lat="43.05211" lon="42.39292">
        <ele>954.419738</ele>
        <time>2021-08-15T11:50:28.083Z</time>
      </trkpt>
      <trkpt lat="43.05234" lon="42.39325">
        <ele>955.869592</ele>
        <time>2021-08-15T11:50:43.783Z</time>
      </trkpt>
      <trkpt lat="43.05368" lon="42.394">
        <ele>966.262963</ele>
        <time>2021-08-15T11:52:08.117Z</time>
      </trkpt>
      <trkpt lat="43.05455" lon="42.39471">
        <ele>974.82203</ele>
        <time>2021-08-15T11:53:16.945Z</time>
      </trkpt>
      <trkpt lat="43.05477" lon="42.39497">
        <ele>977.455591</ele>
        <time>2021-08-15T11:53:37.323Z</time>
      </trkpt>
      <trkpt lat="43.05498" lon="42.39527">
        <ele>980.137024</ele>
        <time>2021-08-15T11:53:57.652Z</time>
      </trkpt>
      <trkpt lat="43.05517" lon="42.39576">
        <ele>983.785109</ele>
        <time>2021-08-15T11:54:24.727Z</time>
      </trkpt>
      <trkpt lat="43.0554" lon="42.39669">
        <ele>989.788452</ele>
        <time>2021-08-15T11:55:10.572Z</time>
      </trkpt>
      <trkpt lat="43.0556" lon="42.397">
        <ele>992.337107</ele>
        <time>2021-08-15T11:55:30.304Z</time>
      </trkpt>
      <trkpt lat="43.05573" lon="42.39734">
        <ele>994.698464</ele>
        <time>2021-08-15T11:55:48.494Z</time>
      </trkpt>
      <trkpt lat="43.05581" lon="42.39847">
        <ele>1001.659822</ele>
        <time>2021-08-15T11:56:41.694Z</time>
      </trkpt>
      <trkpt lat="43.05576" lon="42.39882">
        <ele>1003.788127</ele>
        <time>2021-08-15T11:56:57.875Z</time>
      </trkpt>
      <trkpt lat="43.05583" lon="42.40011">
        <ele>1011.520861</ele>
        <time>2021-08-15T11:57:57.563Z</time>
      </trkpt>
      <trkpt lat="43.05564" lon="42.40161">
        <ele>1020.274586</ele>
        <time>2021-08-15T11:59:08.092Z</time>
      </trkpt>
      <trkpt lat="43.05574" lon="42.4024">
        <ele>1024.775313</ele>
        <time>2021-08-15T11:59:42.960Z</time>
      </trkpt>
      <trkpt lat="43.05588" lon="42.40264">
        <ele>1026.511396</ele>
        <time>2021-08-15T11:59:56.100Z</time>
      </trkpt>
      <trkpt lat="43.0561" lon="42.40275">
        <ele>1028.241845</ele>
        <time>2021-08-15T12:00:09.525Z</time>
      </trkpt>
      <trkpt lat="43.05648" lon="42.40258">
        <ele>1031.082259</ele>
        <time>2021-08-15T12:00:33.204Z</time>
      </trkpt>
      <trkpt lat="43.05741" lon="42.40273">
        <ele>1037.578038</ele>
        <time>2021-08-15T12:01:26.226Z</time>
      </trkpt>
      <trkpt lat="43.05751" lon="42.40279">
        <ele>1038.336697</ele>
        <time>2021-08-15T12:01:32.473Z</time>
      </trkpt>
      <trkpt lat="43.05806" lon="42.40335">
        <ele>1043.200081</ele>
        <time>2021-08-15T12:02:10.000Z</time>
      </trkpt>
      <trkpt lat="43.05874" lon="42.40452">
        <ele>1051.203084</ele>
        <time>2021-08-15T12:03:14.052Z</time>
      </trkpt>
      <trkpt lat="43.05916" lon="42.40473">
        <ele>1054.382655</ele>
        <time>2021-08-15T12:03:42.301Z</time>
      </trkpt>
      <trkpt lat="43.05971" lon="42.40531">
        <ele>1058.954837</ele>
        <time>2021-08-15T12:04:25.302Z</time>
      </trkpt>
      <trkpt lat="43.05981" lon="42.40556">
        <ele>1060.351564</ele>
        <time>2021-08-15T12:04:37.479Z</time>
      </trkpt>
      <trkpt lat="43.05984" lon="42.40638">
        <ele>1064.290541</ele>
        <time>2021-08-15T12:05:07.853Z</time>
      </trkpt>
      <trkpt lat="43.06" lon="42.40698">
        <ele>1066.608004</ele>
        <time>2021-08-15T12:05:29.586Z</time>
      </trkpt>
      <trkpt lat="43.06042" lon="42.40808">
        <ele>1069.999901</ele>
        <time>2021-08-15T12:06:05.348Z</time>
      </trkpt>
      <trkpt lat="43.06044" lon="42.40833">
        <ele>1070.671383</ele>
        <time>2021-08-15T12:06:11.900Z</time>
      </trkpt>
      <trkpt lat="43.06024" lon="42.40912">
        <ele>1073.300717</ele>
        <time>2021-08-15T12:06:34.183Z</time>
      </trkpt>
      <trkpt lat="43.06034" lon="42.40931">
        <ele>1074.295168</ele>
        <time>2021-08-15T12:06:41.222Z</time>
      </trkpt>
      <trkpt lat="43.06061" lon="42.40958">
        <ele>1076.196856</ele>
        <time>2021-08-15T12:06:56.645Z</time>
      </trkpt>
      <trkpt lat="43.06084" lon="42.41033">
        <ele>1079.621876</ele>
        <time>2021-08-15T12:07:36.520Z</time>
      </trkpt>
      <trkpt lat="43.06096" lon="42.41106">
        <ele>1082.646981</ele>
        <time>2021-08-15T12:08:02.781Z</time>
      </trkpt>
      <trkpt lat="43.0613" lon="42.41173">
        <ele>1083.292403</ele>
        <time>2021-08-15T12:08:32.271Z</time>
      </trkpt>
      <trkpt lat="43.06132" lon="42.41185">
        <ele>1083.389217</ele>
        <time>2021-08-15T12:08:33.681Z</time>
      </trkpt>
      <trkpt lat="43.06132" lon="42.41205">
        <ele>1083.551451</ele>
        <time>2021-08-15T12:08:42.337Z</time>
      </trkpt>
      <trkpt lat="43.06129" lon="42.41215">
        <ele>1083.637809</ele>
        <time>2021-08-15T12:08:45.588Z</time>
      </trkpt>
      <trkpt lat="43.06116" lon="42.41227">
        <ele>1083.810672</ele>
        <time>2021-08-15T12:08:48.057Z</time>
      </trkpt>
      <trkpt lat="43.06077" lon="42.41217">
        <ele>1084.241333</ele>
        <time>2021-08-15T12:08:56.416Z</time>
      </trkpt>
      <trkpt lat="43.06035" lon="42.41196">
        <ele>1083.910391</ele>
        <time>2021-08-15T12:09:04.565Z</time>
      </trkpt>
      <trkpt lat="43.06006" lon="42.41201">
        <ele>1082.377965</ele>
        <time>2021-08-15T12:09:09.085Z</time>
      </trkpt>
      <trkpt lat="43.05997" lon="42.4121">
        <ele>1081.837043</ele>
        <time>2021-08-15T12:09:11.150Z</time>
      </trkpt>
      <trkpt lat="43.05987" lon="42.41276">
        <ele>1079.293573</ele>
        <time>2021-08-15T12:09:18.280Z</time>
      </trkpt>
      <trkpt lat="43.05942" lon="42.41321">
        <ele>1076.432112</ele>
        <time>2021-08-15T12:09:26.885Z</time>
      </trkpt>
      <trkpt lat="43.05923" lon="42.41356">
        <ele>1075.232953</ele>
        <time>2021-08-15T12:09:32.155Z</time>
      </trkpt>
      <trkpt lat="43.05922" lon="42.41406">
        <ele>1074.916038</ele>
        <time>2021-08-15T12:09:39.077Z</time>
      </trkpt>
      <trkpt lat="43.05903" lon="42.41474">
        <ele>1074.468076</ele>
        <time>2021-08-15T12:09:50.907Z</time>
      </trkpt>
      <trkpt lat="43.05861" lon="42.41589">
        <ele>1073.056162</ele>
        <time>2021-08-15T12:10:15.004Z</time>
      </trkpt>
      <trkpt lat="43.05861" lon="42.41633">
        <ele>1071.415273</ele>
        <time>2021-08-15T12:10:21.422Z</time>
      </trkpt>
      <trkpt lat="43.0585" lon="42.41655">
        <ele>1070.443596</ele>
        <time>2021-08-15T12:10:24.928Z</time>
      </trkpt>
      <trkpt lat="43.05807" lon="42.4166">
        <ele>1068.249651</ele>
        <time>2021-08-15T12:10:32.192Z</time>
      </trkpt>
      <trkpt lat="43.05681" lon="42.41749">
        <ele>1055.497429</ele>
        <time>2021-08-15T12:10:52.308Z</time>
      </trkpt>
      <trkpt lat="43.05554" lon="42.41794">
        <ele>1039.36163</ele>
        <time>2021-08-15T12:11:09.941Z</time>
      </trkpt>
      <trkpt lat="43.0555" lon="42.418">
        <ele>1038.7928</ele>
        <time>2021-08-15T12:11:10.722Z</time>
      </trkpt>
      <trkpt lat="43.05549" lon="42.41809">
        <ele>1038.200794</ele>
        <time>2021-08-15T12:11:11.578Z</time>
      </trkpt>
      <trkpt lat="43.05556" lon="42.41825">
        <ele>1036.887231</ele>
        <time>2021-08-15T12:11:13.569Z</time>
      </trkpt>
      <trkpt lat="43.05585" lon="42.41827">
        <ele>1034.166364</ele>
        <time>2021-08-15T12:11:17.431Z</time>
      </trkpt>
      <trkpt lat="43.05626" lon="42.41846">
        <ele>1029.935752</ele>
        <time>2021-08-15T12:11:23.756Z</time>
      </trkpt>
      <trkpt lat="43.05691" lon="42.41889">
        <ele>1023.827073</ele>
        <time>2021-08-15T12:11:34.632Z</time>
      </trkpt>
      <trkpt lat="43.05704" lon="42.41909">
        <ele>1023.38108</ele>
        <time>2021-08-15T12:11:39.256Z</time>
      </trkpt>
      <trkpt lat="43.05718" lon="42.41982">
        <ele>1022.112996</ele>
        <time>2021-08-15T12:11:52.406Z</time>
      </trkpt>
      <trkpt lat="43.0572" lon="42.42032">
        <ele>1021.268822</ele>
        <time>2021-08-15T12:11:59.900Z</time>
      </trkpt>
      <trkpt lat="43.05717" lon="42.42087">
        <ele>1020.346992</ele>
        <time>2021-08-15T12:12:07.071Z</time>
      </trkpt>
      <trkpt lat="43.05707" lon="42.42139">
        <ele>1019.240284</ele>
        <time>2021-08-15T12:12:13.446Z</time>
      </trkpt>
      <trkpt lat="43.05703" lon="42.42167">
        <ele>1018.544386</ele>
        <time>2021-08-15T12:12:16.903Z</time>
      </trkpt>
      <trkpt lat="43.05691" lon="42.42224">
        <ele>1017.142295</ele>
        <time>2021-08-15T12:12:23.897Z</time>
      </trkpt>
      <trkpt lat="43.05676" lon="42.42283">
        <ele>1015.669022</ele>
        <time>2021-08-15T12:12:31.330Z</time>
      </trkpt>
      <trkpt lat="43.05672" lon="42.42303">
        <ele>1015.159152</ele>
        <time>2021-08-15T12:12:33.857Z</time>
      </trkpt>
      <trkpt lat="43.05651" lon="42.42432">
        <ele>1017.971851</ele>
        <time>2021-08-15T12:12:54.035Z</time>
      </trkpt>
      <trkpt lat="43.05652" lon="42.42468">
        <ele>1019.581724</ele>
        <time>2021-08-15T12:13:05.647Z</time>
      </trkpt>
      <trkpt lat="43.0566" lon="42.42504">
        <ele>1021.228771</ele>
        <time>2021-08-15T12:13:20.495Z</time>
      </trkpt>
      <trkpt lat="43.05749" lon="42.42761">
        <ele>1044.535319</ele>
        <time>2021-08-15T12:16:30.768Z</time>
      </trkpt>
      <trkpt lat="43.05754" lon="42.42785">
        <ele>1047.01701</ele>
        <time>2021-08-15T12:16:48.264Z</time>
      </trkpt>
      <trkpt lat="43.05755" lon="42.42825">
        <ele>1050.251817</ele>
        <time>2021-08-15T12:17:15.232Z</time>
      </trkpt>
      <trkpt lat="43.05751" lon="42.42846">
        <ele>1051.485134</ele>
        <time>2021-08-15T12:17:28.586Z</time>
      </trkpt>
      <trkpt lat="43.0574" lon="42.42847">
        <ele>1052.347647</ele>
        <time>2021-08-15T12:17:36.863Z</time>
      </trkpt>
      <trkpt lat="43.05679" lon="42.42768">
        <ele>1059.021161</ele>
        <time>2021-08-15T12:18:26.798Z</time>
      </trkpt>
      <trkpt lat="43.05632" lon="42.42729">
        <ele>1063.396726</ele>
        <time>2021-08-15T12:18:54.527Z</time>
      </trkpt>
      <trkpt lat="43.05615" lon="42.4272">
        <ele>1063.820159</ele>
        <time>2021-08-15T12:18:59.858Z</time>
      </trkpt>
      <trkpt lat="43.05568" lon="42.42702">
        <ele>1064.928761</ele>
        <time>2021-08-15T12:19:18.709Z</time>
      </trkpt>
      <trkpt lat="43.05554" lon="42.42703">
        <ele>1065.248548</ele>
        <time>2021-08-15T12:19:22.929Z</time>
      </trkpt>
      <trkpt lat="43.05544" lon="42.4271">
        <ele>1065.509257</ele>
        <time>2021-08-15T12:19:25.942Z</time>
      </trkpt>
      <trkpt lat="43.05514" lon="42.42751">
        <ele>1066.467465</ele>
        <time>2021-08-15T12:19:38.897Z</time>
      </trkpt>
      <trkpt lat="43.05463" lon="42.42803">
        <ele>1067.461813</ele>
        <time>2021-08-15T12:19:57.207Z</time>
      </trkpt>
      <trkpt lat="43.05372" lon="42.4286">
        <ele>1067.248313</ele>
        <time>2021-08-15T12:20:21.849Z</time>
      </trkpt>
      <trkpt lat="43.05307" lon="42.42878">
        <ele>1067.088841</ele>
        <time>2021-08-15T12:20:34.115Z</time>
      </trkpt>
      <trkpt lat="43.05196" lon="42.42977">
        <ele>1066.253944</ele>
        <time>2021-08-15T12:20:58.469Z</time>
      </trkpt>
      <trkpt lat="43.05182" lon="42.43007">
        <ele>1066.090897</ele>
        <time>2021-08-15T12:21:05.397Z</time>
      </trkpt>
      <trkpt lat="43.05177" lon="42.4309">
        <ele>1068.663566</ele>
        <time>2021-08-15T12:21:29.569Z</time>
      </trkpt>
      <trkpt lat="43.05148" lon="42.43183">
        <ele>1073.097353</ele>
        <time>2021-08-15T12:22:09.453Z</time>
      </trkpt>
      <trkpt lat="43.05149" lon="42.43209">
        <ele>1074.252153</ele>
        <time>2021-08-15T12:22:24.605Z</time>
      </trkpt>
      <trkpt lat="43.05166" lon="42.43245">
        <ele>1076.146022</ele>
        <time>2021-08-15T12:22:46.590Z</time>
      </trkpt>
      <trkpt lat="43.05194" lon="42.4327">
        <ele>1077.354277</ele>
        <time>2021-08-15T12:23:07.075Z</time>
      </trkpt>
      <trkpt lat="43.05249" lon="42.43292">
        <ele>1078.67736</ele>
        <time>2021-08-15T12:23:32.835Z</time>
      </trkpt>
      <trkpt lat="43.05257" lon="42.43308">
        <ele>1078.997809</ele>
        <time>2021-08-15T12:23:40.654Z</time>
      </trkpt>
      <trkpt lat="43.05255" lon="42.43331">
        <ele>1079.387356</ele>
        <time>2021-08-15T12:23:44.593Z</time>
      </trkpt>
      <trkpt lat="43.05243" lon="42.43365">
        <ele>1080.022917</ele>
        <time>2021-08-15T12:23:52.100Z</time>
      </trkpt>
      <trkpt lat="43.05217" lon="42.43376">
        <ele>1080.664207</ele>
        <time>2021-08-15T12:23:57.426Z</time>
      </trkpt>
      <trkpt lat="43.05132" lon="42.43362">
        <ele>1075.70959</ele>
        <time>2021-08-15T12:24:10.713Z</time>
      </trkpt>
      <trkpt lat="43.05107" lon="42.43362">
        <ele>1073.870555</ele>
        <time>2021-08-15T12:24:14.186Z</time>
      </trkpt>
      <trkpt lat="43.05094" lon="42.43368">
        <ele>1072.8508</ele>
        <time>2021-08-15T12:24:16.118Z</time>
      </trkpt>
      <trkpt lat="43.05085" lon="42.43382">
        <ele>1071.839414</ele>
        <time>2021-08-15T12:24:18.040Z</time>
      </trkpt>
      <trkpt lat="43.0508" lon="42.43422">
        <ele>1069.649027</ele>
        <time>2021-08-15T12:24:22.253Z</time>
      </trkpt>
      <trkpt lat="43.05135" lon="42.43532">
        <ele>1063.492447</ele>
        <time>2021-08-15T12:24:36.623Z</time>
      </trkpt>
      <trkpt lat="43.05144" lon="42.43611">
        <ele>1060.100642</ele>
        <time>2021-08-15T12:24:45.630Z</time>
      </trkpt>
      <trkpt lat="43.05178" lon="42.43764">
        <ele>1056.888396</ele>
        <time>2021-08-15T12:25:05.976Z</time>
      </trkpt>
      <trkpt lat="43.05252" lon="42.43969">
        <ele>1058.823289</ele>
        <time>2021-08-15T12:25:53.438Z</time>
      </trkpt>
      <trkpt lat="43.05267" lon="42.44049">
        <ele>1061.448077</ele>
        <time>2021-08-15T12:26:24.408Z</time>
      </trkpt>
      <trkpt lat="43.05277" lon="42.44069">
        <ele>1062.199595</ele>
        <time>2021-08-15T12:26:34.300Z</time>
      </trkpt>
      <trkpt lat="43.05287" lon="42.44086">
        <ele>1062.886838</ele>
        <time>2021-08-15T12:26:39.797Z</time>
      </trkpt>
      <trkpt lat="43.05316" lon="42.44115">
        <ele>1064.397987</ele>
        <time>2021-08-15T12:26:58.635Z</time>
      </trkpt>
      <trkpt lat="43.05317" lon="42.44121">
        <ele>1064.508153</ele>
        <time>2021-08-15T12:27:03.685Z</time>
      </trkpt>
      <trkpt lat="43.05318" lon="42.44146">
        <ele>1064.965046</ele>
        <time>2021-08-15T12:27:12.982Z</time>
      </trkpt>
      <trkpt lat="43.05318" lon="42.44156">
        <ele>1065.134907</ele>
        <time>2021-08-15T12:27:15.465Z</time>
      </trkpt>
      <trkpt lat="43.05316" lon="42.44165">
        <ele>1065.320086</ele>
        <time>2021-08-15T12:27:19.067Z</time>
      </trkpt>
      <trkpt lat="43.05311" lon="42.44174">
        <ele>1065.518493</ele>
        <time>2021-08-15T12:27:24.304Z</time>
      </trkpt>
      <trkpt lat="43.05288" lon="42.44197">
        <ele>1066.216519</ele>
        <time>2021-08-15T12:27:36.453Z</time>
      </trkpt>
      <trkpt lat="43.05262" lon="42.44226">
        <ele>1067.049946</ele>
        <time>2021-08-15T12:27:49.938Z</time>
      </trkpt>
      <trkpt lat="43.05258" lon="42.44231">
        <ele>1067.179758</ele>
        <time>2021-08-15T12:27:54.206Z</time>
      </trkpt>
      <trkpt lat="43.05231" lon="42.44274">
        <ele>1068.210917</ele>
        <time>2021-08-15T12:28:04.181Z</time>
      </trkpt>
      <trkpt lat="43.05219" lon="42.44294">
        <ele>1068.684688</ele>
        <time>2021-08-15T12:28:07.786Z</time>
      </trkpt>
      <trkpt lat="43.05154" lon="42.44394">
        <ele>1064.444691</ele>
        <time>2021-08-15T12:28:22.956Z</time>
      </trkpt>
      <trkpt lat="43.05071" lon="42.44462">
        <ele>1060.560926</ele>
        <time>2021-08-15T12:28:37.961Z</time>
      </trkpt>
      <trkpt lat="43.05062" lon="42.44474">
        <ele>1060.6066</ele>
        <time>2021-08-15T12:28:40.832Z</time>
      </trkpt>
      <trkpt lat="43.05057" lon="42.44486">
        <ele>1060.641738</ele>
        <time>2021-08-15T12:28:42.200Z</time>
      </trkpt>
      <trkpt lat="43.05056" lon="42.44511">
        <ele>1060.704424</ele>
        <time>2021-08-15T12:28:49.143Z</time>
      </trkpt>
      <trkpt lat="43.05092" lon="42.44697">
        <ele>1061.736444</ele>
        <time>2021-08-15T12:29:30.812Z</time>
      </trkpt>
      <trkpt lat="43.0509" lon="42.44747">
        <ele>1063.371458</ele>
        <time>2021-08-15T12:29:49.516Z</time>
      </trkpt>
      <trkpt lat="43.05085" lon="42.44758">
        <ele>1063.816135</ele>
        <time>2021-08-15T12:29:59.419Z</time>
      </trkpt>
      <trkpt lat="43.05082" lon="42.44765">
        <ele>1064.059475</ele>
        <time>2021-08-15T12:30:00.385Z</time>
      </trkpt>
      <trkpt lat="43.05046" lon="42.44814">
        <ele>1066.379976</ele>
        <time>2021-08-15T12:30:24.438Z</time>
      </trkpt>
      <trkpt lat="43.05028" lon="42.44847">
        <ele>1067.717168</ele>
        <time>2021-08-15T12:30:38.884Z</time>
      </trkpt>
      <trkpt lat="43.05022" lon="42.44872">
        <ele>1068.590538</ele>
        <time>2021-08-15T12:30:50.423Z</time>
      </trkpt>
      <trkpt lat="43.05029" lon="42.44907">
        <ele>1069.530363</ele>
        <time>2021-08-15T12:30:56.730Z</time>
      </trkpt>
      <trkpt lat="43.05029" lon="42.44911">
        <ele>1069.589652</ele>
        <time>2021-08-15T12:30:59.056Z</time>
      </trkpt>
      <trkpt lat="43.05029" lon="42.44916">
        <ele>1069.667724</ele>
        <time>2021-08-15T12:31:03.225Z</time>
      </trkpt>
      <trkpt lat="43.05001" lon="42.44961">
        <ele>1070.575855</ele>
        <time>2021-08-15T12:31:16.177Z</time>
      </trkpt>
      <trkpt lat="43.04964" lon="42.44995">
        <ele>1071.541655</ele>
        <time>2021-08-15T12:31:30.200Z</time>
      </trkpt>
      <trkpt lat="43.04885" lon="42.45022">
        <ele>1073.009665</ele>
        <time>2021-08-15T12:31:57.014Z</time>
      </trkpt>
      <trkpt lat="43.04768" lon="42.45107">
        <ele>1070.974992</ele>
        <time>2021-08-15T12:32:23.287Z</time>
      </trkpt>
      <trkpt lat="43.04725" lon="42.45163">
        <ele>1069.135572</ele>
        <time>2021-08-15T12:32:33.080Z</time>
      </trkpt>
      <trkpt lat="43.04698" lon="42.45188">
        <ele>1067.059826</ele>
        <time>2021-08-15T12:32:38.021Z</time>
      </trkpt>
      <trkpt lat="43.04664" lon="42.45214">
        <ele>1064.524249</ele>
        <time>2021-08-15T12:32:43.832Z</time>
      </trkpt>
      <trkpt lat="43.04618" lon="42.4523">
        <ele>1061.490166</ele>
        <time>2021-08-15T12:32:50.664Z</time>
      </trkpt>
      <trkpt lat="43.04603" lon="42.45248">
        <ele>1060.1779</ele>
        <time>2021-08-15T12:32:53.685Z</time>
      </trkpt>
      <trkpt lat="43.04564" lon="42.45356">
        <ele>1058.388599</ele>
        <time>2021-08-15T12:33:07.291Z</time>
      </trkpt>
      <trkpt lat="43.04547" lon="42.45453">
        <ele>1057.981983</ele>
        <time>2021-08-15T12:33:25.272Z</time>
      </trkpt>
      <trkpt lat="43.04551" lon="42.45484">
        <ele>1057.858104</ele>
        <time>2021-08-15T12:33:35.578Z</time>
      </trkpt>
      <trkpt lat="43.04559" lon="42.45491">
        <ele>1057.807122</ele>
        <time>2021-08-15T12:33:40.039Z</time>
      </trkpt>
      <trkpt lat="43.04652" lon="42.45499">
        <ele>1062.468307</ele>
        <time>2021-08-15T12:34:35.540Z</time>
      </trkpt>
      <trkpt lat="43.04663" lon="42.45505">
        <ele>1063.109191</ele>
        <time>2021-08-15T12:34:42.482Z</time>
      </trkpt>
      <trkpt lat="43.0469" lon="42.45543">
        <ele>1065.247137</ele>
        <time>2021-08-15T12:35:03.843Z</time>
      </trkpt>
      <trkpt lat="43.04731" lon="42.45572">
        <ele>1067.705427</ele>
        <time>2021-08-15T12:35:24.619Z</time>
      </trkpt>
      <trkpt lat="43.04738" lon="42.45588">
        <ele>1067.517909</ele>
        <time>2021-08-15T12:35:29.204Z</time>
      </trkpt>
      <trkpt lat="43.0474" lon="42.45606">
        <ele>1067.340423</ele>
        <time>2021-08-15T12:35:33.274Z</time>
      </trkpt>
      <trkpt lat="43.04728" lon="42.45628">
        <ele>1067.066135</ele>
        <time>2021-08-15T12:35:37.444Z</time>
      </trkpt>
      <trkpt lat="43.04715" lon="42.45628">
        <ele>1066.885784</ele>
        <time>2021-08-15T12:35:40.484Z</time>
      </trkpt>
      <trkpt lat="43.04647" lon="42.45605">
        <ele>1065.930156</ele>
        <time>2021-08-15T12:35:52.264Z</time>
      </trkpt>
      <trkpt lat="43.04629" lon="42.45611">
        <ele>1065.663309</ele>
        <time>2021-08-15T12:35:55.291Z</time>
      </trkpt>
      <trkpt lat="43.04619" lon="42.45632">
        <ele>1065.41877</ele>
        <time>2021-08-15T12:35:58.120Z</time>
      </trkpt>
      <trkpt lat="43.04616" lon="42.45659">
        <ele>1065.346177</ele>
        <time>2021-08-15T12:36:01.366Z</time>
      </trkpt>
      <trkpt lat="43.04636" lon="42.45837">
        <ele>1066.827374</ele>
        <time>2021-08-15T12:36:30.404Z</time>
      </trkpt>
      <trkpt lat="43.04655" lon="42.46066">
        <ele>1074.86476</ele>
        <time>2021-08-15T12:38:08.780Z</time>
      </trkpt>
      <trkpt lat="43.04652" lon="42.46288">
        <ele>1079.201124</ele>
        <time>2021-08-15T12:39:16.849Z</time>
      </trkpt>
      <trkpt lat="43.04647" lon="42.46329">
        <ele>1079.560987</ele>
        <time>2021-08-15T12:39:22.421Z</time>
      </trkpt>
      <trkpt lat="43.04596" lon="42.46433">
        <ele>1078.787223</ele>
        <time>2021-08-15T12:39:37.714Z</time>
      </trkpt>
      <trkpt lat="43.0459" lon="42.4646">
        <ele>1078.312148</ele>
        <time>2021-08-15T12:39:41.094Z</time>
      </trkpt>
      <trkpt lat="43.04592" lon="42.46489">
        <ele>1077.827643</ele>
        <time>2021-08-15T12:39:44.469Z</time>
      </trkpt>
      <trkpt lat="43.04624" lon="42.46595">
        <ele>1075.890917</ele>
        <time>2021-08-15T12:39:59.770Z</time>
      </trkpt>
      <trkpt lat="43.04634" lon="42.46611">
        <ele>1076.520452</ele>
        <time>2021-08-15T12:40:04.338Z</time>
      </trkpt>
      <trkpt lat="43.04706" lon="42.46671">
        <ele>1080.380324</ele>
        <time>2021-08-15T12:40:41.726Z</time>
      </trkpt>
      <trkpt lat="43.04719" lon="42.46691">
        <ele>1081.277835</ele>
        <time>2021-08-15T12:40:52.026Z</time>
      </trkpt>
      <trkpt lat="43.04739" lon="42.46768">
        <ele>1084.01161</ele>
        <time>2021-08-15T12:41:26.910Z</time>
      </trkpt>
      <trkpt lat="43.04741" lon="42.46796">
        <ele>1085.182688</ele>
        <time>2021-08-15T12:41:39.590Z</time>
      </trkpt>
      <trkpt lat="43.04719" lon="42.46996">
        <ele>1093.773872</ele>
        <time>2021-08-15T12:42:57.319Z</time>
      </trkpt>
      <trkpt lat="43.04754" lon="42.4718">
        <ele>1099.181624</ele>
        <time>2021-08-15T12:43:50.352Z</time>
      </trkpt>
      <trkpt lat="43.04814" lon="42.47302">
        <ele>1103.670116</ele>
        <time>2021-08-15T12:44:35.397Z</time>
      </trkpt>
      <trkpt lat="43.04827" lon="42.47439">
        <ele>1108.358433</ele>
        <time>2021-08-15T12:45:22.394Z</time>
      </trkpt>
      <trkpt lat="43.04831" lon="42.47498">
        <ele>1110.688005</ele>
        <time>2021-08-15T12:45:43.065Z</time>
      </trkpt>
      <trkpt lat="43.04828" lon="42.47517">
        <ele>1111.577727</ele>
        <time>2021-08-15T12:45:49.878Z</time>
      </trkpt>
      <trkpt lat="43.0483" lon="42.47539">
        <ele>1112.566276</ele>
        <time>2021-08-15T12:45:59.148Z</time>
      </trkpt>
      <trkpt lat="43.04856" lon="42.47593">
        <ele>1115.554924</ele>
        <time>2021-08-15T12:46:23.892Z</time>
      </trkpt>
      <trkpt lat="43.04856" lon="42.47606">
        <ele>1116.145673</ele>
        <time>2021-08-15T12:46:28.922Z</time>
      </trkpt>
      <trkpt lat="43.04819" lon="42.4765">
        <ele>1119.205312</ele>
        <time>2021-08-15T12:46:57.372Z</time>
      </trkpt>
      <trkpt lat="43.04811" lon="42.47673">
        <ele>1120.380747</ele>
        <time>2021-08-15T12:47:06.689Z</time>
      </trkpt>
      <trkpt lat="43.04807" lon="42.47698">
        <ele>1121.554479</ele>
        <time>2021-08-15T12:47:18.020Z</time>
      </trkpt>
      <trkpt lat="43.04804" lon="42.47748">
        <ele>1123.929018</ele>
        <time>2021-08-15T12:47:39.303Z</time>
      </trkpt>
      <trkpt lat="43.04797" lon="42.47763">
        <ele>1124.786994</ele>
        <time>2021-08-15T12:47:46.350Z</time>
      </trkpt>
      <trkpt lat="43.04747" lon="42.47822">
        <ele>1129.098985</ele>
        <time>2021-08-15T12:48:25.511Z</time>
      </trkpt>
      <trkpt lat="43.04694" lon="42.47904">
        <ele>1133.180176</ele>
        <time>2021-08-15T12:49:05.777Z</time>
      </trkpt>
      <trkpt lat="43.04672" lon="42.47928">
        <ele>1133.848941</ele>
        <time>2021-08-15T12:49:17.678Z</time>
      </trkpt>
      <trkpt lat="43.04607" lon="42.47962">
        <ele>1135.4535</ele>
        <time>2021-08-15T12:49:40.025Z</time>
      </trkpt>
      <trkpt lat="43.04493" lon="42.47972">
        <ele>1138.020135</ele>
        <time>2021-08-15T12:50:04.797Z</time>
      </trkpt>
      <trkpt lat="43.04478" lon="42.47975">
        <ele>1138.351458</ele>
        <time>2021-08-15T12:50:08.103Z</time>
      </trkpt>
      <trkpt lat="43.04465" lon="42.47987">
        <ele>1138.683228</ele>
        <time>2021-08-15T12:50:12.249Z</time>
      </trkpt>
      <trkpt lat="43.04467" lon="42.48017">
        <ele>1139.170398</ele>
        <time>2021-08-15T12:50:18.647Z</time>
      </trkpt>
      <trkpt lat="43.04522" lon="42.48151">
        <ele>1145.09577</ele>
        <time>2021-08-15T12:51:11.111Z</time>
      </trkpt>
      <trkpt lat="43.04539" lon="42.48183">
        <ele>1147.953359</ele>
        <time>2021-08-15T12:51:29.964Z</time>
      </trkpt>
      <trkpt lat="43.04582" lon="42.4823">
        <ele>1153.422679</ele>
        <time>2021-08-15T12:52:13.187Z</time>
      </trkpt>
      <trkpt lat="43.04609" lon="42.4827">
        <ele>1157.420076</ele>
        <time>2021-08-15T12:52:48.264Z</time>
      </trkpt>
      <trkpt lat="43.04636" lon="42.48287">
        <ele>1161.154841</ele>
        <time>2021-08-15T12:53:16.007Z</time>
      </trkpt>
      <trkpt lat="43.04663" lon="42.48374">
        <ele>1171.031412</ele>
        <time>2021-08-15T12:54:25.613Z</time>
      </trkpt>
      <trkpt lat="43.04697" lon="42.48426">
        <ele>1178.278481</ele>
        <time>2021-08-15T12:55:16.866Z</time>
      </trkpt>
      <trkpt lat="43.04697" lon="42.48452">
        <ele>1181.028389</ele>
        <time>2021-08-15T12:55:34.840Z</time>
      </trkpt>
      <trkpt lat="43.0469" lon="42.48463">
        <ele>1182.501668</ele>
        <time>2021-08-15T12:55:44.209Z</time>
      </trkpt>
      <trkpt lat="43.0468" lon="42.48471">
        <ele>1184.208633</ele>
        <time>2021-08-15T12:55:55.025Z</time>
      </trkpt>
      <trkpt lat="43.04644" lon="42.48462">
        <ele>1185.642703</ele>
        <time>2021-08-15T12:56:23.452Z</time>
      </trkpt>
      <trkpt lat="43.0459" lon="42.48401">
        <ele>1188.293114</ele>
        <time>2021-08-15T12:57:05.406Z</time>
      </trkpt>
      <trkpt lat="43.04393" lon="42.48251">
        <ele>1183.038684</ele>
        <time>2021-08-15T12:57:41.583Z</time>
      </trkpt>
      <trkpt lat="43.04342" lon="42.48233">
        <ele>1180.815297</ele>
        <time>2021-08-15T12:57:49.261Z</time>
      </trkpt>
      <trkpt lat="43.04326" lon="42.48232">
        <ele>1180.362195</ele>
        <time>2021-08-15T12:57:51.591Z</time>
      </trkpt>
      <trkpt lat="43.04309" lon="42.48253">
        <ele>1179.701252</ele>
        <time>2021-08-15T12:57:55.147Z</time>
      </trkpt>
      <trkpt lat="43.04308" lon="42.48267">
        <ele>1179.406058</ele>
        <time>2021-08-15T12:57:56.725Z</time>
      </trkpt>
      <trkpt lat="43.04317" lon="42.48388">
        <ele>1176.876519</ele>
        <time>2021-08-15T12:58:11.884Z</time>
      </trkpt>
      <trkpt lat="43.04373" lon="42.48543">
        <ele>1186.523192</ele>
        <time>2021-08-15T12:59:31.056Z</time>
      </trkpt>
      <trkpt lat="43.04381" lon="42.48614">
        <ele>1191.43583</ele>
        <time>2021-08-15T13:00:16.529Z</time>
      </trkpt>
      <trkpt lat="43.04388" lon="42.48641">
        <ele>1193.529531</ele>
        <time>2021-08-15T13:00:36.123Z</time>
      </trkpt>
      <trkpt lat="43.04395" lon="42.48655">
        <ele>1195.138566</ele>
        <time>2021-08-15T13:00:47.214Z</time>
      </trkpt>
      <trkpt lat="43.04443" lon="42.4871">
        <ele>1203.757202</ele>
        <time>2021-08-15T13:01:48.086Z</time>
      </trkpt>
      <trkpt lat="43.04534" lon="42.48757">
        <ele>1216.978169</ele>
        <time>2021-08-15T13:03:18.265Z</time>
      </trkpt>
      <trkpt lat="43.04542" lon="42.48763">
        <ele>1217.992629</ele>
        <time>2021-08-15T13:03:25.922Z</time>
      </trkpt>
      <trkpt lat="43.04546" lon="42.48776">
        <ele>1218.754534</ele>
        <time>2021-08-15T13:03:33.903Z</time>
      </trkpt>
      <trkpt lat="43.04538" lon="42.48799">
        <ele>1220.108065</ele>
        <time>2021-08-15T13:03:47.659Z</time>
      </trkpt>
      <trkpt lat="43.04489" lon="42.4882">
        <ele>1223.96828</ele>
        <time>2021-08-15T13:04:21.402Z</time>
      </trkpt>
      <trkpt lat="43.04465" lon="42.48838">
        <ele>1226.039211</ele>
        <time>2021-08-15T13:04:36.961Z</time>
      </trkpt>
      <trkpt lat="43.04414" lon="42.48841">
        <ele>1229.823805</ele>
        <time>2021-08-15T13:05:00.789Z</time>
      </trkpt>
      <trkpt lat="43.04393" lon="42.48869">
        <ele>1231.439286</ele>
        <time>2021-08-15T13:05:12.638Z</time>
      </trkpt>
      <trkpt lat="43.04387" lon="42.48889">
        <ele>1231.800815</ele>
        <time>2021-08-15T13:05:18.344Z</time>
      </trkpt>
      <trkpt lat="43.04386" lon="42.48934">
        <ele>1232.53764</ele>
        <time>2021-08-15T13:05:29.231Z</time>
      </trkpt>
      <trkpt lat="43.04397" lon="42.49253">
        <ele>1237.813453</ele>
        <time>2021-08-15T13:06:41.379Z</time>
      </trkpt>
      <trkpt lat="43.04403" lon="42.49307">
        <ele>1238.719837</ele>
        <time>2021-08-15T13:06:56.577Z</time>
      </trkpt>
      <trkpt lat="43.04457" lon="42.49525">
        <ele>1243.096989</ele>
        <time>2021-08-15T13:08:01.210Z</time>
      </trkpt>
      <trkpt lat="43.04465" lon="42.49624">
        <ele>1244.319335</ele>
        <time>2021-08-15T13:08:21.899Z</time>
      </trkpt>
      <trkpt lat="43.0447" lon="42.49637">
        <ele>1244.384276</ele>
        <time>2021-08-15T13:08:24.288Z</time>
      </trkpt>
      <trkpt lat="43.04485" lon="42.49652">
        <ele>1244.4918</ele>
        <time>2021-08-15T13:08:28.505Z</time>
      </trkpt>
      <trkpt lat="43.04545" lon="42.4968">
        <ele>1244.871399</ele>
        <time>2021-08-15T13:08:42.654Z</time>
      </trkpt>
      <trkpt lat="43.04558" lon="42.49693">
        <ele>1244.964003</ele>
        <time>2021-08-15T13:08:46.823Z</time>
      </trkpt>
      <trkpt lat="43.04568" lon="42.49711">
        <ele>1245.063951</ele>
        <time>2021-08-15T13:08:50.773Z</time>
      </trkpt>
      <trkpt lat="43.0458" lon="42.49751">
        <ele>1245.422297</ele>
        <time>2021-08-15T13:08:58.968Z</time>
      </trkpt>
      <trkpt lat="43.04593" lon="42.49778">
        <ele>1245.892597</ele>
        <time>2021-08-15T13:09:04.480Z</time>
      </trkpt>
      <trkpt lat="43.04603" lon="42.49788">
        <ele>1246.132226</ele>
        <time>2021-08-15T13:09:08.305Z</time>
      </trkpt>
      <trkpt lat="43.04618" lon="42.49796">
        <ele>1246.466947</ele>
        <time>2021-08-15T13:09:11.690Z</time>
      </trkpt>
      <trkpt lat="43.04631" lon="42.49798">
        <ele>1246.729728</ele>
        <time>2021-08-15T13:09:17.983Z</time>
      </trkpt>
      <trkpt lat="43.04673" lon="42.49813">
        <ele>1247.593654</ele>
        <time>2021-08-15T13:09:31.823Z</time>
      </trkpt>
      <trkpt lat="43.04703" lon="42.49833">
        <ele>1248.278474</ele>
        <time>2021-08-15T13:09:44.661Z</time>
      </trkpt>
      <trkpt lat="43.04716" lon="42.49855">
        <ele>1248.69785</ele>
        <time>2021-08-15T13:09:51.038Z</time>
      </trkpt>
      <trkpt lat="43.04735" lon="42.4991">
        <ele>1250.230507</ele>
        <time>2021-08-15T13:10:09.820Z</time>
      </trkpt>
      <trkpt lat="43.04784" lon="42.49993">
        <ele>1253.121799</ele>
        <time>2021-08-15T13:10:39.591Z</time>
      </trkpt>
      <trkpt lat="43.04803" lon="42.50056">
        <ele>1254.936839</ele>
        <time>2021-08-15T13:11:00.127Z</time>
      </trkpt>
      <trkpt lat="43.04813" lon="42.50098">
        <ele>1257.131403</ele>
        <time>2021-08-15T13:11:15.182Z</time>
      </trkpt>
      <trkpt lat="43.04807" lon="42.50141">
        <ele>1259.98095</ele>
        <time>2021-08-15T13:11:30.956Z</time>
      </trkpt>
      <trkpt lat="43.04787" lon="42.50195">
        <ele>1264.006438</ele>
        <time>2021-08-15T13:11:55.345Z</time>
      </trkpt>
      <trkpt lat="43.04782" lon="42.50233">
        <ele>1266.54739</ele>
        <time>2021-08-15T13:12:12.654Z</time>
      </trkpt>
      <trkpt lat="43.04789" lon="42.50347">
        <ele>1275.776884</ele>
        <time>2021-08-15T13:13:34.494Z</time>
      </trkpt>
      <trkpt lat="43.04798" lon="42.50375">
        <ele>1279.124574</ele>
        <time>2021-08-15T13:13:56.605Z</time>
      </trkpt>
      <trkpt lat="43.04813" lon="42.50403">
        <ele>1283.002474</ele>
        <time>2021-08-15T13:14:22.857Z</time>
      </trkpt>
      <trkpt lat="43.04817" lon="42.50421">
        <ele>1285.037064</ele>
        <time>2021-08-15T13:14:37.110Z</time>
      </trkpt>
      <trkpt lat="43.04811" lon="42.5044">
        <ele>1287.409752</ele>
        <time>2021-08-15T13:14:52.698Z</time>
      </trkpt>
      <trkpt lat="43.04793" lon="42.50458">
        <ele>1290.721366</ele>
        <time>2021-08-15T13:15:15.276Z</time>
      </trkpt>
      <trkpt lat="43.04783" lon="42.50458">
        <ele>1292.303497</ele>
        <time>2021-08-15T13:15:26.483Z</time>
      </trkpt>
      <trkpt lat="43.04676" lon="42.50382">
        <ele>1306.377731</ele>
        <time>2021-08-15T13:17:18.830Z</time>
      </trkpt>
      <trkpt lat="43.04578" lon="42.50287">
        <ele>1317.333702</ele>
        <time>2021-08-15T13:18:22.373Z</time>
      </trkpt>
      <trkpt lat="43.04509" lon="42.50267">
        <ele>1321.800281</ele>
        <time>2021-08-15T13:18:57.360Z</time>
      </trkpt>
      <trkpt lat="43.04496" lon="42.50248">
        <ele>1323.025058</ele>
        <time>2021-08-15T13:19:07.363Z</time>
      </trkpt>
      <trkpt lat="43.04485" lon="42.50214">
        <ele>1324.7367</ele>
        <time>2021-08-15T13:19:22.124Z</time>
      </trkpt>
      <trkpt lat="43.04479" lon="42.50186">
        <ele>1326.097041</ele>
        <time>2021-08-15T13:19:34.105Z</time>
      </trkpt>
      <trkpt lat="43.04479" lon="42.50133">
        <ele>1329.077043</ele>
        <time>2021-08-15T13:19:56.462Z</time>
      </trkpt>
      <trkpt lat="43.04474" lon="42.50115">
        <ele>1330.485275</ele>
        <time>2021-08-15T13:20:05.197Z</time>
      </trkpt>
      <trkpt lat="43.04468" lon="42.5011">
        <ele>1331.18155</ele>
        <time>2021-08-15T13:20:09.645Z</time>
      </trkpt>
      <trkpt lat="43.04461" lon="42.50114">
        <ele>1331.893166</ele>
        <time>2021-08-15T13:20:14.421Z</time>
      </trkpt>
      <trkpt lat="43.04456" lon="42.50127">
        <ele>1332.991343</ele>
        <time>2021-08-15T13:20:21.868Z</time>
      </trkpt>
      <trkpt lat="43.04461" lon="42.50272">
        <ele>1343.559904</ele>
        <time>2021-08-15T13:21:43.272Z</time>
      </trkpt>
      <trkpt lat="43.0444" lon="42.50338">
        <ele>1348.928254</ele>
        <time>2021-08-15T13:22:25.840Z</time>
      </trkpt>
      <trkpt lat="43.0444" lon="42.5036">
        <ele>1350.618197</ele>
        <time>2021-08-15T13:22:38.209Z</time>
      </trkpt>
      <trkpt lat="43.04444" lon="42.50379">
        <ele>1352.094781</ele>
        <time>2021-08-15T13:22:49.345Z</time>
      </trkpt>
      <trkpt lat="43.04457" lon="42.50396">
        <ele>1353.931757</ele>
        <time>2021-08-15T13:23:02.522Z</time>
      </trkpt>
      <trkpt lat="43.04497" lon="42.50427">
        <ele>1358.746374</ele>
        <time>2021-08-15T13:23:37.369Z</time>
      </trkpt>
      <trkpt lat="43.045" lon="42.50438">
        <ele>1359.636314</ele>
        <time>2021-08-15T13:23:43.999Z</time>
      </trkpt>
      <trkpt lat="43.04495" lon="42.50448">
        <ele>1360.465322</ele>
        <time>2021-08-15T13:23:49.807Z</time>
      </trkpt>
      <trkpt lat="43.0448" lon="42.50452">
        <ele>1362.068351</ele>
        <time>2021-08-15T13:24:00.939Z</time>
      </trkpt>
      <trkpt lat="43.0446" lon="42.50447">
        <ele>1364.172109</ele>
        <time>2021-08-15T13:24:15.170Z</time>
      </trkpt>
      <trkpt lat="43.04412" lon="42.50392">
        <ele>1368.063605</ele>
        <time>2021-08-15T13:24:55.549Z</time>
      </trkpt>
      <trkpt lat="43.04405" lon="42.50343">
        <ele>1370.266097</ele>
        <time>2021-08-15T13:25:14.448Z</time>
      </trkpt>
      <trkpt lat="43.04413" lon="42.5029">
        <ele>1372.672454</ele>
        <time>2021-08-15T13:25:31.593Z</time>
      </trkpt>
      <trkpt lat="43.04413" lon="42.50264">
        <ele>1373.797872</ele>
        <time>2021-08-15T13:25:38.837Z</time>
      </trkpt>
      <trkpt lat="43.04405" lon="42.50241">
        <ele>1374.90283</ele>
        <time>2021-08-15T13:25:46.567Z</time>
      </trkpt>
      <trkpt lat="43.04384" lon="42.50223">
        <ele>1375.938294</ele>
        <time>2021-08-15T13:25:56.895Z</time>
      </trkpt>
      <trkpt lat="43.04351" lon="42.5021">
        <ele>1377.211436</ele>
        <time>2021-08-15T13:26:11.368Z</time>
      </trkpt>
      <trkpt lat="43.04334" lon="42.5018">
        <ele>1378.248382</ele>
        <time>2021-08-15T13:26:22.329Z</time>
      </trkpt>
      <trkpt lat="43.04311" lon="42.50161">
        <ele>1379.248711</ele>
        <time>2021-08-15T13:26:33.185Z</time>
      </trkpt>
      <trkpt lat="43.043" lon="42.50157">
        <ele>1379.666239</ele>
        <time>2021-08-15T13:26:37.630Z</time>
      </trkpt>
      <trkpt lat="43.04222" lon="42.50169">
        <ele>1382.510395</ele>
        <time>2021-08-15T13:27:09.321Z</time>
      </trkpt>
      <trkpt lat="43.04198" lon="42.50178">
        <ele>1383.330202</ele>
        <time>2021-08-15T13:27:19.504Z</time>
      </trkpt>
      <trkpt lat="43.04179" lon="42.50191">
        <ele>1384.057067</ele>
        <time>2021-08-15T13:27:29.333Z</time>
      </trkpt>
      <trkpt lat="43.04151" lon="42.50229">
        <ele>1385.376722</ele>
        <time>2021-08-15T13:27:47.017Z</time>
      </trkpt>
      <trkpt lat="43.04136" lon="42.50239">
        <ele>1385.959333</ele>
        <time>2021-08-15T13:27:54.580Z</time>
      </trkpt>
      <trkpt lat="43.04118" lon="42.5024">
        <ele>1386.563752</ele>
        <time>2021-08-15T13:28:01.766Z</time>
      </trkpt>
      <trkpt lat="43.04099" lon="42.50233">
        <ele>1387.212862</ele>
        <time>2021-08-15T13:28:06.690Z</time>
      </trkpt>
      <trkpt lat="43.04054" lon="42.50187">
        <ele>1387.922326</ele>
        <time>2021-08-15T13:28:23.975Z</time>
      </trkpt>
      <trkpt lat="43.0398" lon="42.50163">
        <ele>1387.95834</ele>
        <time>2021-08-15T13:28:42.155Z</time>
      </trkpt>
      <trkpt lat="43.03966" lon="42.50162">
        <ele>1387.965144</ele>
        <time>2021-08-15T13:28:44.486Z</time>
      </trkpt>
      <trkpt lat="43.03953" lon="42.50168">
        <ele>1387.971647</ele>
        <time>2021-08-15T13:28:48.751Z</time>
      </trkpt>
      <trkpt lat="43.03942" lon="42.50183">
        <ele>1387.97873</ele>
        <time>2021-08-15T13:28:51.405Z</time>
      </trkpt>
      <trkpt lat="43.03929" lon="42.5023">
        <ele>1388.079297</ele>
        <time>2021-08-15T13:28:58.464Z</time>
      </trkpt>
      <trkpt lat="43.03917" lon="42.50251">
        <ele>1388.228222</ele>
        <time>2021-08-15T13:29:02.746Z</time>
      </trkpt>
      <trkpt lat="43.03869" lon="42.50322">
        <ele>1388.755669</ele>
        <time>2021-08-15T13:29:17.088Z</time>
      </trkpt>
      <trkpt lat="43.03859" lon="42.50349">
        <ele>1388.924197</ele>
        <time>2021-08-15T13:29:24.017Z</time>
      </trkpt>
      <trkpt lat="43.03853" lon="42.50387">
        <ele>1389.137287</ele>
        <time>2021-08-15T13:29:33.618Z</time>
      </trkpt>
      <trkpt lat="43.0386" lon="42.50464">
        <ele>1390.995603</ele>
        <time>2021-08-15T13:29:55.274Z</time>
      </trkpt>
      <trkpt lat="43.03906" lon="42.5057">
        <ele>1396.014752</ele>
        <time>2021-08-15T13:30:40.733Z</time>
      </trkpt>
      <trkpt lat="43.03928" lon="42.50638">
        <ele>1398.989587</ele>
        <time>2021-08-15T13:31:11.629Z</time>
      </trkpt>
      <trkpt lat="43.03973" lon="42.50719">
        <ele>1404.00759</ele>
        <time>2021-08-15T13:31:55.949Z</time>
      </trkpt>
      <trkpt lat="43.03992" lon="42.50829">
        <ele>1409.658031</ele>
        <time>2021-08-15T13:32:41.883Z</time>
      </trkpt>
      <trkpt lat="43.03999" lon="42.50936">
        <ele>1414.433487</ele>
        <time>2021-08-15T13:33:24.842Z</time>
      </trkpt>
      <trkpt lat="43.04011" lon="42.51032">
        <ele>1418.487512</ele>
        <time>2021-08-15T13:34:00.497Z</time>
      </trkpt>
      <trkpt lat="43.04012" lon="42.5105">
        <ele>1419.247994</ele>
        <time>2021-08-15T13:34:07.140Z</time>
      </trkpt>
      <trkpt lat="43.04011" lon="42.51075">
        <ele>1420.292475</ele>
        <time>2021-08-15T13:34:16.108Z</time>
      </trkpt>
      <trkpt lat="43.04002" lon="42.51104">
        <ele>1421.606404</ele>
        <time>2021-08-15T13:34:27.186Z</time>
      </trkpt>
      <trkpt lat="43.03962" lon="42.51199">
        <ele>1424.763513</ele>
        <time>2021-08-15T13:35:04.930Z</time>
      </trkpt>
      <trkpt lat="43.03928" lon="42.51272">
        <ele>1427.182113</ele>
        <time>2021-08-15T13:35:31.171Z</time>
      </trkpt>
      <trkpt lat="43.03913" lon="42.51304">
        <ele>1428.266388</ele>
        <time>2021-08-15T13:35:40.439Z</time>
      </trkpt>
      <trkpt lat="43.03909" lon="42.51312">
        <ele>1428.520489</ele>
        <time>2021-08-15T13:35:42.977Z</time>
      </trkpt>
      <trkpt lat="43.03904" lon="42.51322">
        <ele>1428.777429</ele>
        <time>2021-08-15T13:35:45.712Z</time>
      </trkpt>
      <trkpt lat="43.03881" lon="42.51364">
        <ele>1428.984161</ele>
        <time>2021-08-15T13:35:57.694Z</time>
      </trkpt>
      <trkpt lat="43.03853" lon="42.51412">
        <ele>1429.227061</ele>
        <time>2021-08-15T13:36:09.096Z</time>
      </trkpt>
      <trkpt lat="43.03812" lon="42.51487">
        <ele>1429.596051</ele>
        <time>2021-08-15T13:36:23.900Z</time>
      </trkpt>
      <trkpt lat="43.03796" lon="42.51534">
        <ele>1429.84644</ele>
        <time>2021-08-15T13:36:31.619Z</time>
      </trkpt>
      <trkpt lat="43.03788" lon="42.5159">
        <ele>1430.237704</ele>
        <time>2021-08-15T13:36:40.430Z</time>
      </trkpt>
      <trkpt lat="43.0379" lon="42.51708">
        <ele>1431.035996</ele>
        <time>2021-08-15T13:37:01.913Z</time>
      </trkpt>
      <trkpt lat="43.03781" lon="42.51829">
        <ele>1433.41068</ele>
        <time>2021-08-15T13:37:36.498Z</time>
      </trkpt>
      <trkpt lat="43.03787" lon="42.51847">
        <ele>1434.017629</ele>
        <time>2021-08-15T13:37:42.287Z</time>
      </trkpt>
      <trkpt lat="43.03811" lon="42.51875">
        <ele>1435.288635</ele>
        <time>2021-08-15T13:37:56.902Z</time>
      </trkpt>
      <trkpt lat="43.03815" lon="42.51889">
        <ele>1435.726371</ele>
        <time>2021-08-15T13:38:01.929Z</time>
      </trkpt>
      <trkpt lat="43.03815" lon="42.51904">
        <ele>1436.178776</ele>
        <time>2021-08-15T13:38:08.031Z</time>
      </trkpt>
      <trkpt lat="43.0381" lon="42.51916">
        <ele>1436.59976</ele>
        <time>2021-08-15T13:38:12.126Z</time>
      </trkpt>
      <trkpt lat="43.038" lon="42.51923">
        <ele>1437.047002</ele>
        <time>2021-08-15T13:38:16.550Z</time>
      </trkpt>
      <trkpt lat="43.0379" lon="42.51924">
        <ele>1437.468995</ele>
        <time>2021-08-15T13:38:23.037Z</time>
      </trkpt>
      <trkpt lat="43.03772" lon="42.51921">
        <ele>1438.167226</ele>
        <time>2021-08-15T13:38:29.573Z</time>
      </trkpt>
      <trkpt lat="43.03755" lon="42.51922">
        <ele>1438.803979</ele>
        <time>2021-08-15T13:38:38.363Z</time>
      </trkpt>
      <trkpt lat="43.03737" lon="42.51935">
        <ele>1439.325938</ele>
        <time>2021-08-15T13:38:45.943Z</time>
      </trkpt>
      <trkpt lat="43.03679" lon="42.52034">
        <ele>1441.78074</ele>
        <time>2021-08-15T13:39:24.541Z</time>
      </trkpt>
      <trkpt lat="43.03644" lon="42.52075">
        <ele>1442.991936</ele>
        <time>2021-08-15T13:39:37.112Z</time>
      </trkpt>
      <trkpt lat="43.03536" lon="42.52092">
        <ele>1441.581292</ele>
        <time>2021-08-15T13:39:59.311Z</time>
      </trkpt>
      <trkpt lat="43.03439" lon="42.52176">
        <ele>1437.651019</ele>
        <time>2021-08-15T13:40:19.098Z</time>
      </trkpt>
      <trkpt lat="43.03351" lon="42.52258">
        <ele>1429.148826</ele>
        <time>2021-08-15T13:40:34.634Z</time>
      </trkpt>
      <trkpt lat="43.03267" lon="42.52346">
        <ele>1419.632046</ele>
        <time>2021-08-15T13:40:49.513Z</time>
      </trkpt>
      <trkpt lat="43.03241" lon="42.52379">
        <ele>1416.221394</ele>
        <time>2021-08-15T13:40:54.406Z</time>
      </trkpt>
      <trkpt lat="43.03233" lon="42.5242">
        <ele>1413.19944</ele>
        <time>2021-08-15T13:40:58.768Z</time>
      </trkpt>
      <trkpt lat="43.03234" lon="42.52438">
        <ele>1411.901226</ele>
        <time>2021-08-15T13:41:00.671Z</time>
      </trkpt>
      <trkpt lat="43.03274" lon="42.52504">
        <ele>1407.807321</ele>
        <time>2021-08-15T13:41:09.901Z</time>
      </trkpt>
      <trkpt lat="43.03278" lon="42.5254">
        <ele>1407.545104</ele>
        <time>2021-08-15T13:41:14.325Z</time>
      </trkpt>
      <trkpt lat="43.03279" lon="42.52602">
        <ele>1407.103143</ele>
        <time>2021-08-15T13:41:22.619Z</time>
      </trkpt>
      <trkpt lat="43.03294" lon="42.52711">
        <ele>1406.316542</ele>
        <time>2021-08-15T13:41:46.740Z</time>
      </trkpt>
      <trkpt lat="43.03296" lon="42.529">
        <ele>1416.461519</ele>
        <time>2021-08-15T13:43:10.084Z</time>
      </trkpt>
      <trkpt lat="43.03309" lon="42.53">
        <ele>1422.207866</ele>
        <time>2021-08-15T13:44:04.603Z</time>
      </trkpt>
      <trkpt lat="43.03297" lon="42.53053">
        <ele>1425.425973</ele>
        <time>2021-08-15T13:44:33.313Z</time>
      </trkpt>
      <trkpt lat="43.03288" lon="42.53074">
        <ele>1426.805258</ele>
        <time>2021-08-15T13:44:44.784Z</time>
      </trkpt>
      <trkpt lat="43.03274" lon="42.53089">
        <ele>1428.276564</ele>
        <time>2021-08-15T13:44:57.195Z</time>
      </trkpt>
      <trkpt lat="43.03198" lon="42.5309">
        <ele>1434.251767</ele>
        <time>2021-08-15T13:45:39.799Z</time>
      </trkpt>
      <trkpt lat="43.03132" lon="42.53079">
        <ele>1436.354087</ele>
        <time>2021-08-15T13:46:06.624Z</time>
      </trkpt>
      <trkpt lat="43.03104" lon="42.53091">
        <ele>1437.270608</ele>
        <time>2021-08-15T13:46:16.040Z</time>
      </trkpt>
      <trkpt lat="43.03089" lon="42.53105">
        <ele>1437.848771</ele>
        <time>2021-08-15T13:46:21.736Z</time>
      </trkpt>
      <trkpt lat="43.03076" lon="42.53129">
        <ele>1438.527746</ele>
        <time>2021-08-15T13:46:28.622Z</time>
      </trkpt>
      <trkpt lat="43.03063" lon="42.53175">
        <ele>1439.691471</ele>
        <time>2021-08-15T13:46:40.547Z</time>
      </trkpt>
      <trkpt lat="43.03022" lon="42.5328">
        <ele>1442.911308</ele>
        <time>2021-08-15T13:47:12.874Z</time>
      </trkpt>
      <trkpt lat="43.03009" lon="42.53303">
        <ele>1443.69065</ele>
        <time>2021-08-15T13:47:21.599Z</time>
      </trkpt>
      <trkpt lat="43.02925" lon="42.5335">
        <ele>1447.12999</ele>
        <time>2021-08-15T13:48:03.016Z</time>
      </trkpt>
      <trkpt lat="43.02911" lon="42.53364">
        <ele>1447.824576</ele>
        <time>2021-08-15T13:48:11.198Z</time>
      </trkpt>
      <trkpt lat="43.02821" lon="42.53483">
        <ele>1452.867197</ele>
        <time>2021-08-15T13:49:07.177Z</time>
      </trkpt>
      <trkpt lat="43.02685" lon="42.53702">
        <ele>1457.678743</ele>
        <time>2021-08-15T13:50:14.402Z</time>
      </trkpt>
      <trkpt lat="43.02665" lon="42.53754">
        <ele>1458.698254</ele>
        <time>2021-08-15T13:50:26.544Z</time>
      </trkpt>
      <trkpt lat="43.02663" lon="42.53775">
        <ele>1459.053777</ele>
        <time>2021-08-15T13:50:30.901Z</time>
      </trkpt>
      <trkpt lat="43.02698" lon="42.53877">
        <ele>1460.987974</ele>
        <time>2021-08-15T13:50:58.452Z</time>
      </trkpt>
      <trkpt lat="43.02701" lon="42.53903">
        <ele>1461.453433</ele>
        <time>2021-08-15T13:51:05.865Z</time>
      </trkpt>
      <trkpt lat="43.02693" lon="42.53985">
        <ele>1464.262702</ele>
        <time>2021-08-15T13:51:31.412Z</time>
      </trkpt>
      <trkpt lat="43.02674" lon="42.54064">
        <ele>1467.56228</ele>
        <time>2021-08-15T13:52:01.186Z</time>
      </trkpt>
      <trkpt lat="43.02672" lon="42.54134">
        <ele>1470.368933</ele>
        <time>2021-08-15T13:52:29.290Z</time>
      </trkpt>
      <trkpt lat="43.02679" lon="42.54269">
        <ele>1476.50256</ele>
        <time>2021-08-15T13:53:26.144Z</time>
      </trkpt>
      <trkpt lat="43.02677" lon="42.54288">
        <ele>1477.409053</ele>
        <time>2021-08-15T13:53:34.140Z</time>
      </trkpt>
      <trkpt lat="43.02654" lon="42.54333">
        <ele>1480.015609</ele>
        <time>2021-08-15T13:53:56.511Z</time>
      </trkpt>
      <trkpt lat="43.02646" lon="42.54394">
        <ele>1482.948738</ele>
        <time>2021-08-15T13:54:20.479Z</time>
      </trkpt>
      <trkpt lat="43.02615" lon="42.54441">
        <ele>1483.544546</ele>
        <time>2021-08-15T13:54:43.609Z</time>
      </trkpt>
      <trkpt lat="43.02586" lon="42.5446">
        <ele>1483.77823</ele>
        <time>2021-08-15T13:54:56.254Z</time>
      </trkpt>
      <trkpt lat="43.02482" lon="42.54483">
        <ele>1484.540037</ele>
        <time>2021-08-15T13:55:16.626Z</time>
      </trkpt>
      <trkpt lat="43.02452" lon="42.5448">
        <ele>1482.851657</ele>
        <time>2021-08-15T13:55:21.433Z</time>
      </trkpt>
      <trkpt lat="43.02436" lon="42.54473">
        <ele>1481.843548</ele>
        <time>2021-08-15T13:55:23.903Z</time>
      </trkpt>
      <trkpt lat="43.02377" lon="42.54416">
        <ele>1477.556132</ele>
        <time>2021-08-15T13:55:34.765Z</time>
      </trkpt>
      <trkpt lat="43.02363" lon="42.54408">
        <ele>1476.650679</ele>
        <time>2021-08-15T13:55:37.190Z</time>
      </trkpt>
      <trkpt lat="43.02345" lon="42.54409">
        <ele>1475.588352</ele>
        <time>2021-08-15T13:55:39.738Z</time>
      </trkpt>
      <trkpt lat="43.0233" lon="42.54418">
        <ele>1474.620443</ele>
        <time>2021-08-15T13:55:42.236Z</time>
      </trkpt>
      <trkpt lat="43.02319" lon="42.54452">
        <ele>1473.353812</ele>
        <time>2021-08-15T13:55:46.264Z</time>
      </trkpt>
      <trkpt lat="43.02314" lon="42.54485">
        <ele>1472.498992</ele>
        <time>2021-08-15T13:55:50.239Z</time>
      </trkpt>
      <trkpt lat="43.02316" lon="42.54551">
        <ele>1470.826395</ele>
        <time>2021-08-15T13:55:59.175Z</time>
      </trkpt>
      <trkpt lat="43.02327" lon="42.54618">
        <ele>1469.091629</ele>
        <time>2021-08-15T13:56:08.171Z</time>
      </trkpt>
      <trkpt lat="43.02317" lon="42.54667">
        <ele>1467.813675</ele>
        <time>2021-08-15T13:56:14.744Z</time>
      </trkpt>
      <trkpt lat="43.02301" lon="42.54697">
        <ele>1467.037304</ele>
        <time>2021-08-15T13:56:19.340Z</time>
      </trkpt>
      <trkpt lat="43.0229" lon="42.54713">
        <ele>1466.59645</ele>
        <time>2021-08-15T13:56:23.337Z</time>
      </trkpt>
      <trkpt lat="43.02233" lon="42.54761">
        <ele>1464.753828</ele>
        <time>2021-08-15T13:56:34.853Z</time>
      </trkpt>
      <trkpt lat="43.02175" lon="42.54855">
        <ele>1462.876572</ele>
        <time>2021-08-15T13:56:50.451Z</time>
      </trkpt>
      <trkpt lat="43.02171" lon="42.54884">
        <ele>1463.07214</ele>
        <time>2021-08-15T13:56:53.845Z</time>
      </trkpt>
      <trkpt lat="43.02177" lon="42.54968">
        <ele>1463.651533</ele>
        <time>2021-08-15T13:57:07.292Z</time>
      </trkpt>
      <trkpt lat="43.02175" lon="42.55092">
        <ele>1464.519653</ele>
        <time>2021-08-15T13:57:46.577Z</time>
      </trkpt>
      <trkpt lat="43.0217" lon="42.5512">
        <ele>1464.766432</ele>
        <time>2021-08-15T13:57:55.304Z</time>
      </trkpt>
      <trkpt lat="43.02152" lon="42.55177">
        <ele>1465.316924</ele>
        <time>2021-08-15T13:58:14.766Z</time>
      </trkpt>
      <trkpt lat="43.02158" lon="42.55277">
        <ele>1466.189998</ele>
        <time>2021-08-15T13:58:35.984Z</time>
      </trkpt>
      <trkpt lat="43.02148" lon="42.55291">
        <ele>1466.36268</ele>
        <time>2021-08-15T13:58:41.419Z</time>
      </trkpt>
      <trkpt lat="43.02139" lon="42.55292">
        <ele>1466.467111</ele>
        <time>2021-08-15T13:58:42.678Z</time>
      </trkpt>
      <trkpt lat="43.02117" lon="42.55272">
        <ele>1464.487636</ele>
        <time>2021-08-15T13:58:48.185Z</time>
      </trkpt>
      <trkpt lat="43.02055" lon="42.55157">
        <ele>1453.303822</ele>
        <time>2021-08-15T13:59:02.737Z</time>
      </trkpt>
      <trkpt lat="43.02036" lon="42.55135">
        <ele>1450.667508</ele>
        <time>2021-08-15T13:59:06.029Z</time>
      </trkpt>
      <trkpt lat="43.02023" lon="42.55127">
        <ele>1449.11241</ele>
        <time>2021-08-15T13:59:08.034Z</time>
      </trkpt>
      <trkpt lat="43.02011" lon="42.55128">
        <ele>1447.861118</ele>
        <time>2021-08-15T13:59:09.582Z</time>
      </trkpt>
      <trkpt lat="43.01996" lon="42.55142">
        <ele>1445.702548</ele>
        <time>2021-08-15T13:59:12.089Z</time>
      </trkpt>
      <trkpt lat="43.01986" lon="42.55175">
        <ele>1442.58423</ele>
        <time>2021-08-15T13:59:15.617Z</time>
      </trkpt>
      <trkpt lat="43.01991" lon="42.55242">
        <ele>1436.684221</ele>
        <time>2021-08-15T13:59:22.358Z</time>
      </trkpt>
      <trkpt lat="43.02006" lon="42.55347">
        <ele>1427.282533</ele>
        <time>2021-08-15T13:59:33.235Z</time>
      </trkpt>
      <trkpt lat="43.02007" lon="42.55422">
        <ele>1423.008875</ele>
        <time>2021-08-15T13:59:41.662Z</time>
      </trkpt>
      <trkpt lat="43.01992" lon="42.55535">
        <ele>1417.527005</ele>
        <time>2021-08-15T13:59:54.731Z</time>
      </trkpt>
      <trkpt lat="43.01999" lon="42.55669">
        <ele>1410.993738</ele>
        <time>2021-08-15T14:00:09.837Z</time>
      </trkpt>
      <trkpt lat="43.02011" lon="42.55747">
        <ele>1407.029914</ele>
        <time>2021-08-15T14:00:18.685Z</time>
      </trkpt>
      <trkpt lat="43.02024" lon="42.55829">
        <ele>1402.848163</ele>
        <time>2021-08-15T14:00:27.863Z</time>
      </trkpt>
      <trkpt lat="43.02044" lon="42.55885">
        <ele>1399.322091</ele>
        <time>2021-08-15T14:00:34.673Z</time>
      </trkpt>
      <trkpt lat="43.02067" lon="42.5593">
        <ele>1396.020573</ele>
        <time>2021-08-15T14:00:40.627Z</time>
      </trkpt>
      <trkpt lat="43.02099" lon="42.56031">
        <ele>1389.48922</ele>
        <time>2021-08-15T14:00:52.417Z</time>
      </trkpt>
      <trkpt lat="43.0211" lon="42.56101">
        <ele>1384.750513</ele>
        <time>2021-08-15T14:01:00.079Z</time>
      </trkpt>
      <trkpt lat="43.02107" lon="42.56131">
        <ele>1382.579549</ele>
        <time>2021-08-15T14:01:03.184Z</time>
      </trkpt>
      <trkpt lat="43.02095" lon="42.56154">
        <ele>1380.490073</ele>
        <time>2021-08-15T14:01:06.148Z</time>
      </trkpt>
      <trkpt lat="43.02079" lon="42.56166">
        <ele>1378.636639</ele>
        <time>2021-08-15T14:01:08.756Z</time>
      </trkpt>
      <trkpt lat="43.02061" lon="42.56164">
        <ele>1376.82108</ele>
        <time>2021-08-15T14:01:11.331Z</time>
      </trkpt>
      <trkpt lat="43.02012" lon="42.56141">
        <ele>1371.636098</ele>
        <time>2021-08-15T14:01:18.637Z</time>
      </trkpt>
      <trkpt lat="43.01968" lon="42.56101">
        <ele>1365.942264</ele>
        <time>2021-08-15T14:01:26.015Z</time>
      </trkpt>
      <trkpt lat="43.01954" lon="42.561">
        <ele>1364.390161</ele>
        <time>2021-08-15T14:01:27.930Z</time>
      </trkpt>
      <trkpt lat="43.0195" lon="42.56117">
        <ele>1362.966206</ele>
        <time>2021-08-15T14:01:29.679Z</time>
      </trkpt>
      <trkpt lat="43.01952" lon="42.56133">
        <ele>1361.566292</ele>
        <time>2021-08-15T14:01:31.411Z</time>
      </trkpt>
      <trkpt lat="43.01967" lon="42.56161">
        <ele>1358.707206</ele>
        <time>2021-08-15T14:01:34.949Z</time>
      </trkpt>
      <trkpt lat="43.01987" lon="42.56182">
        <ele>1355.878337</ele>
        <time>2021-08-15T14:01:38.474Z</time>
      </trkpt>
      <trkpt lat="43.02007" lon="42.56194">
        <ele>1353.420373</ele>
        <time>2021-08-15T14:01:41.528Z</time>
      </trkpt>
      <trkpt lat="43.02023" lon="42.562">
        <ele>1351.566147</ele>
        <time>2021-08-15T14:01:43.847Z</time>
      </trkpt>
      <trkpt lat="43.02042" lon="42.56212">
        <ele>1349.254923</ele>
        <time>2021-08-15T14:01:46.732Z</time>
      </trkpt>
      <trkpt lat="43.02093" lon="42.56285">
        <ele>1342.223956</ele>
        <time>2021-08-15T14:01:57.196Z</time>
      </trkpt>
      <trkpt lat="43.02162" lon="42.56373">
        <ele>1333.347618</ele>
        <time>2021-08-15T14:02:10.739Z</time>
      </trkpt>
      <trkpt lat="43.02231" lon="42.56476">
        <ele>1325.592827</ele>
        <time>2021-08-15T14:02:25.838Z</time>
      </trkpt>
      <trkpt lat="43.02257" lon="42.56531">
        <ele>1322.098954</ele>
        <time>2021-08-15T14:02:33.075Z</time>
      </trkpt>
      <trkpt lat="43.02318" lon="42.5662">
        <ele>1316.015389</ele>
        <time>2021-08-15T14:02:46.677Z</time>
      </trkpt>
      <trkpt lat="43.02373" lon="42.56662">
        <ele>1311.969038</ele>
        <time>2021-08-15T14:02:56.466Z</time>
      </trkpt>
      <trkpt lat="43.02386" lon="42.5668">
        <ele>1310.787708</ele>
        <time>2021-08-15T14:02:59.313Z</time>
      </trkpt>
      <trkpt lat="43.02459" lon="42.56832">
        <ele>1301.22482</ele>
        <time>2021-08-15T14:03:19.318Z</time>
      </trkpt>
      <trkpt lat="43.02496" lon="42.56945">
        <ele>1294.260089</ele>
        <time>2021-08-15T14:03:32.502Z</time>
      </trkpt>
      <trkpt lat="43.02539" lon="42.56993">
        <ele>1289.810785</ele>
        <time>2021-08-15T14:03:40.686Z</time>
      </trkpt>
      <trkpt lat="43.0258" lon="42.57063">
        <ele>1284.655314</ele>
        <time>2021-08-15T14:03:50.117Z</time>
      </trkpt>
      <trkpt lat="43.0263" lon="42.57229">
        <ele>1276.148734</ele>
        <time>2021-08-15T14:04:09.834Z</time>
      </trkpt>
      <trkpt lat="43.02663" lon="42.57323">
        <ele>1272.551744</ele>
        <time>2021-08-15T14:04:22.213Z</time>
      </trkpt>
      <trkpt lat="43.02673" lon="42.5734">
        <ele>1271.782098</ele>
        <time>2021-08-15T14:04:25.066Z</time>
      </trkpt>
      <trkpt lat="43.02685" lon="42.57354">
        <ele>1271.042686</ele>
        <time>2021-08-15T14:04:27.699Z</time>
      </trkpt>
      <trkpt lat="43.02718" lon="42.57381">
        <ele>1270.225528</ele>
        <time>2021-08-15T14:04:34.762Z</time>
      </trkpt>
      <trkpt lat="43.02768" lon="42.57422">
        <ele>1269.552549</ele>
        <time>2021-08-15T14:04:46.464Z</time>
      </trkpt>
      <trkpt lat="43.02847" lon="42.57532">
        <ele>1268.191306</ele>
        <time>2021-08-15T14:05:10.342Z</time>
      </trkpt>
      <trkpt lat="43.02883" lon="42.57601">
        <ele>1267.211027</ele>
        <time>2021-08-15T14:05:22.087Z</time>
      </trkpt>
      <trkpt lat="43.02896" lon="42.57635">
        <ele>1266.777833</ele>
        <time>2021-08-15T14:05:27.159Z</time>
      </trkpt>
      <trkpt lat="43.02901" lon="42.57667">
        <ele>1266.394637</ele>
        <time>2021-08-15T14:05:31.628Z</time>
      </trkpt>
      <trkpt lat="43.02893" lon="42.57759">
        <ele>1265.608862</ele>
        <time>2021-08-15T14:05:43.972Z</time>
      </trkpt>
      <trkpt lat="43.02892" lon="42.57827">
        <ele>1265.473411</ele>
        <time>2021-08-15T14:05:53.517Z</time>
      </trkpt>
      <trkpt lat="43.02901" lon="42.5789">
        <ele>1265.346844</ele>
        <time>2021-08-15T14:06:03.132Z</time>
      </trkpt>
      <trkpt lat="43.02914" lon="42.57911">
        <ele>1265.292461</ele>
        <time>2021-08-15T14:06:07.755Z</time>
      </trkpt>
      <trkpt lat="43.0297" lon="42.57979">
        <ele>1267.162101</ele>
        <time>2021-08-15T14:06:31.210Z</time>
      </trkpt>
      <trkpt lat="43.02989" lon="42.58019">
        <ele>1269.278149</ele>
        <time>2021-08-15T14:06:44.655Z</time>
      </trkpt>
      <trkpt lat="43.03015" lon="42.581">
        <ele>1273.212751</ele>
        <time>2021-08-15T14:07:19.745Z</time>
      </trkpt>
      <trkpt lat="43.03036" lon="42.58143">
        <ele>1275.505988</ele>
        <time>2021-08-15T14:07:48.426Z</time>
      </trkpt>
      <trkpt lat="43.03092" lon="42.58205">
        <ele>1282.256922</ele>
        <time>2021-08-15T14:08:43.442Z</time>
      </trkpt>
      <trkpt lat="43.03096" lon="42.58216">
        <ele>1283.127257</ele>
        <time>2021-08-15T14:08:51.269Z</time>
      </trkpt>
      <trkpt lat="43.03098" lon="42.58225">
        <ele>1283.843282</ele>
        <time>2021-08-15T14:08:57.129Z</time>
      </trkpt>
      <trkpt lat="43.0309" lon="42.58254">
        <ele>1286.064469</ele>
        <time>2021-08-15T14:09:13.069Z</time>
      </trkpt>
      <trkpt lat="43.03086" lon="42.5826">
        <ele>1286.63518</ele>
        <time>2021-08-15T14:09:18.201Z</time>
      </trkpt>
      <trkpt lat="43.0308" lon="42.58262">
        <ele>1287.234055</ele>
        <time>2021-08-15T14:09:23.492Z</time>
      </trkpt>
      <trkpt lat="43.03061" lon="42.58253">
        <ele>1289.219037</ele>
        <time>2021-08-15T14:09:36.949Z</time>
      </trkpt>
      <trkpt lat="43.02935" lon="42.58161">
        <ele>1298.786093</ele>
        <time>2021-08-15T14:11:09.855Z</time>
      </trkpt>
      <trkpt lat="43.02823" lon="42.58055">
        <ele>1303.547416</ele>
        <time>2021-08-15T14:11:50.553Z</time>
      </trkpt>
      <trkpt lat="43.02785" lon="42.58002">
        <ele>1304.047684</ele>
        <time>2021-08-15T14:12:04.369Z</time>
      </trkpt>
      <trkpt lat="43.02719" lon="42.57937">
        <ele>1304.879302</ele>
        <time>2021-08-15T14:12:25.648Z</time>
      </trkpt>
      <trkpt lat="43.02523" lon="42.57727">
        <ele>1310.654987</ele>
        <time>2021-08-15T14:13:49.161Z</time>
      </trkpt>
      <trkpt lat="43.02492" lon="42.57682">
        <ele>1312.168834</ele>
        <time>2021-08-15T14:14:08.937Z</time>
      </trkpt>
      <trkpt lat="43.0246" lon="42.57613">
        <ele>1314.16966</ele>
        <time>2021-08-15T14:14:36.155Z</time>
      </trkpt>
      <trkpt lat="43.02296" lon="42.57373">
        <ele>1324.528571</ele>
        <time>2021-08-15T14:16:23.813Z</time>
      </trkpt>
      <trkpt lat="43.02268" lon="42.57299">
        <ele>1327.100303</ele>
        <time>2021-08-15T14:16:49.019Z</time>
      </trkpt>
      <trkpt lat="43.02248" lon="42.57262">
        <ele>1328.526375</ele>
        <time>2021-08-15T14:17:03.856Z</time>
      </trkpt>
      <trkpt lat="43.02213" lon="42.57223">
        <ele>1330.774873</ele>
        <time>2021-08-15T14:17:24.807Z</time>
      </trkpt>
      <trkpt lat="43.02066" lon="42.57116">
        <ele>1339.966517</ele>
        <time>2021-08-15T14:18:53.093Z</time>
      </trkpt>
      <trkpt lat="43.02014" lon="42.57067">
        <ele>1342.421464</ele>
        <time>2021-08-15T14:19:26.310Z</time>
      </trkpt>
      <trkpt lat="43.01911" lon="42.56938">
        <ele>1346.48284</ele>
        <time>2021-08-15T14:20:18.145Z</time>
      </trkpt>
      <trkpt lat="43.01864" lon="42.56901">
        <ele>1346.259682</ele>
        <time>2021-08-15T14:20:30.202Z</time>
      </trkpt>
      <trkpt lat="43.01845" lon="42.56866">
        <ele>1346.129897</ele>
        <time>2021-08-15T14:20:36.744Z</time>
      </trkpt>
      <trkpt lat="43.01823" lon="42.56797">
        <ele>1345.90414</ele>
        <time>2021-08-15T14:20:47.562Z</time>
      </trkpt>
      <trkpt lat="43.01772" lon="42.56679">
        <ele>1343.406026</ele>
        <time>2021-08-15T14:21:06.112Z</time>
      </trkpt>
      <trkpt lat="43.01757" lon="42.56657">
        <ele>1342.838502</ele>
        <time>2021-08-15T14:21:10.028Z</time>
      </trkpt>
      <trkpt lat="43.01694" lon="42.56605">
        <ele>1340.808699</ele>
        <time>2021-08-15T14:21:23.376Z</time>
      </trkpt>
      <trkpt lat="43.01651" lon="42.56571">
        <ele>1338.884515</ele>
        <time>2021-08-15T14:21:32.717Z</time>
      </trkpt>
      <trkpt lat="43.01618" lon="42.56548">
        <ele>1337.456691</ele>
        <time>2021-08-15T14:21:39.806Z</time>
      </trkpt>
      <trkpt lat="43.01549" lon="42.56519">
        <ele>1334.709348</ele>
        <time>2021-08-15T14:21:51.771Z</time>
      </trkpt>
      <trkpt lat="43.01472" lon="42.56504">
        <ele>1329.003632</ele>
        <time>2021-08-15T14:22:04.209Z</time>
      </trkpt>
      <trkpt lat="43.01449" lon="42.56501">
        <ele>1327.190064</ele>
        <time>2021-08-15T14:22:07.694Z</time>
      </trkpt>
      <trkpt lat="43.01388" lon="42.56496">
        <ele>1322.329546</ele>
        <time>2021-08-15T14:22:17.040Z</time>
      </trkpt>
      <trkpt lat="43.01328" lon="42.56517">
        <ele>1317.124536</ele>
        <time>2021-08-15T14:22:26.279Z</time>
      </trkpt>
      <trkpt lat="43.01278" lon="42.56568">
        <ele>1311.740629</ele>
        <time>2021-08-15T14:22:35.449Z</time>
      </trkpt>
      <trkpt lat="43.01231" lon="42.56642">
        <ele>1305.488384</ele>
        <time>2021-08-15T14:22:46.477Z</time>
      </trkpt>
      <trkpt lat="43.01168" lon="42.56779">
        <ele>1300.945257</ele>
        <time>2021-08-15T14:23:06.145Z</time>
      </trkpt>
      <trkpt lat="43.01159" lon="42.56924">
        <ele>1299.395227</ele>
        <time>2021-08-15T14:23:29.795Z</time>
      </trkpt>
      <trkpt lat="43.01178" lon="42.56997">
        <ele>1300.959986</ele>
        <time>2021-08-15T14:23:49.792Z</time>
      </trkpt>
      <trkpt lat="43.01193" lon="42.57172">
        <ele>1305.513659</ele>
        <time>2021-08-15T14:24:47.012Z</time>
      </trkpt>
      <trkpt lat="43.01194" lon="42.57279">
        <ele>1309.764327</ele>
        <time>2021-08-15T14:25:26.524Z</time>
      </trkpt>
      <trkpt lat="43.01183" lon="42.57438">
        <ele>1317.115455</ele>
        <time>2021-08-15T14:26:29.470Z</time>
      </trkpt>
      <trkpt lat="43.01206" lon="42.57526">
        <ele>1322.161641</ele>
        <time>2021-08-15T14:27:12.638Z</time>
      </trkpt>
      <trkpt lat="43.01206" lon="42.57544">
        <ele>1323.144251</ele>
        <time>2021-08-15T14:27:21.180Z</time>
      </trkpt>
      <trkpt lat="43.0119" lon="42.57591">
        <ele>1325.94692</ele>
        <time>2021-08-15T14:27:45.081Z</time>
      </trkpt>
      <trkpt lat="43.01165" lon="42.57637">
        <ele>1329.319822</ele>
        <time>2021-08-15T14:28:10.823Z</time>
      </trkpt>
      <trkpt lat="43.01162" lon="42.57677">
        <ele>1331.772399</ele>
        <time>2021-08-15T14:28:29.811Z</time>
      </trkpt>
      <trkpt lat="43.01186" lon="42.57769">
        <ele>1337.658652</ele>
        <time>2021-08-15T14:29:18.624Z</time>
      </trkpt>
      <trkpt lat="43.01186" lon="42.5779">
        <ele>1338.938615</ele>
        <time>2021-08-15T14:29:29.217Z</time>
      </trkpt>
      <trkpt lat="43.0117" lon="42.57817">
        <ele>1341.011929</ele>
        <time>2021-08-15T14:29:45.694Z</time>
      </trkpt>
      <trkpt lat="43.0114" lon="42.57838">
        <ele>1342.995452</ele>
        <time>2021-08-15T14:30:05.541Z</time>
      </trkpt>
      <trkpt lat="43.01124" lon="42.57859">
        <ele>1344.247259</ele>
        <time>2021-08-15T14:30:17.779Z</time>
      </trkpt>
      <trkpt lat="43.0109" lon="42.57955">
        <ele>1348.56965</ele>
        <time>2021-08-15T14:30:57.023Z</time>
      </trkpt>
      <trkpt lat="43.0108" lon="42.58094">
        <ele>1351.516217</ele>
        <time>2021-08-15T14:31:40.970Z</time>
      </trkpt>
      <trkpt lat="43.0107" lon="42.58106">
        <ele>1351.563481</ele>
        <time>2021-08-15T14:31:44.915Z</time>
      </trkpt>
      <trkpt lat="43.01024" lon="42.58124">
        <ele>1351.726178</ele>
        <time>2021-08-15T14:31:55.049Z</time>
      </trkpt>
      <trkpt lat="43.01004" lon="42.58147">
        <ele>1351.814756</ele>
        <time>2021-08-15T14:32:00.060Z</time>
      </trkpt>
      <trkpt lat="43.00976" lon="42.58212">
        <ele>1351.407709</ele>
        <time>2021-08-15T14:32:10.640Z</time>
      </trkpt>
      <trkpt lat="43.00958" lon="42.58306">
        <ele>1348.845494</ele>
        <time>2021-08-15T14:32:23.938Z</time>
      </trkpt>
      <trkpt lat="43.00932" lon="42.58363">
        <ele>1347.072762</ele>
        <time>2021-08-15T14:32:32.338Z</time>
      </trkpt>
      <trkpt lat="43.00937" lon="42.58474">
        <ele>1343.257746</ele>
        <time>2021-08-15T14:32:45.793Z</time>
      </trkpt>
      <trkpt lat="43.0093" lon="42.58553">
        <ele>1339.755631</ele>
        <time>2021-08-15T14:32:55.336Z</time>
      </trkpt>
      <trkpt lat="43.00934" lon="42.58599">
        <ele>1337.70214</ele>
        <time>2021-08-15T14:33:00.875Z</time>
      </trkpt>
      <trkpt lat="43.00929" lon="42.58635">
        <ele>1336.093513</ele>
        <time>2021-08-15T14:33:05.159Z</time>
      </trkpt>
      <trkpt lat="43.00896" lon="42.5874">
        <ele>1330.371559</ele>
        <time>2021-08-15T14:33:18.118Z</time>
      </trkpt>
      <trkpt lat="43.00891" lon="42.58778">
        <ele>1328.31243</ele>
        <time>2021-08-15T14:33:22.494Z</time>
      </trkpt>
      <trkpt lat="43.00893" lon="42.58809">
        <ele>1326.665615</ele>
        <time>2021-08-15T14:33:26.030Z</time>
      </trkpt>
      <trkpt lat="43.00916" lon="42.58859">
        <ele>1323.564493</ele>
        <time>2021-08-15T14:33:32.803Z</time>
      </trkpt>
      <trkpt lat="43.00934" lon="42.58881">
        <ele>1321.826068</ele>
        <time>2021-08-15T14:33:36.714Z</time>
      </trkpt>
      <trkpt lat="43.00978" lon="42.5891">
        <ele>1319.968255</ele>
        <time>2021-08-15T14:33:44.622Z</time>
      </trkpt>
      <trkpt lat="43.01011" lon="42.58948">
        <ele>1318.389115</ele>
        <time>2021-08-15T14:33:51.801Z</time>
      </trkpt>
      <trkpt lat="43.01039" lon="42.59003">
        <ele>1316.584689</ele>
        <time>2021-08-15T14:34:00.528Z</time>
      </trkpt>
      <trkpt lat="43.01058" lon="42.59058">
        <ele>1315.098288</ele>
        <time>2021-08-15T14:34:09.470Z</time>
      </trkpt>
      <trkpt lat="43.01067" lon="42.5907">
        <ele>1315.252271</ele>
        <time>2021-08-15T14:34:12.575Z</time>
      </trkpt>
      <trkpt lat="43.0108" lon="42.59075">
        <ele>1315.40979</ele>
        <time>2021-08-15T14:34:16.511Z</time>
      </trkpt>
      <trkpt lat="43.01105" lon="42.59069">
        <ele>1315.713178</ele>
        <time>2021-08-15T14:34:23.853Z</time>
      </trkpt>
      <trkpt lat="43.01128" lon="42.59074">
        <ele>1315.992472</ele>
        <time>2021-08-15T14:34:31.041Z</time>
      </trkpt>
      <trkpt lat="43.01192" lon="42.59156">
        <ele>1317.04308</ele>
        <time>2021-08-15T14:34:59.367Z</time>
      </trkpt>
      <trkpt lat="43.01299" lon="42.59171">
        <ele>1317.986538</ele>
        <time>2021-08-15T14:35:36.336Z</time>
      </trkpt>
      <trkpt lat="43.01337" lon="42.59194">
        <ele>1318.328306</ele>
        <time>2021-08-15T14:35:46.623Z</time>
      </trkpt>
      <trkpt lat="43.01344" lon="42.5921">
        <ele>1318.446421</ele>
        <time>2021-08-15T14:35:49.640Z</time>
      </trkpt>
      <trkpt lat="43.01344" lon="42.59231">
        <ele>1318.572641</ele>
        <time>2021-08-15T14:35:52.791Z</time>
      </trkpt>
      <trkpt lat="43.0133" lon="42.59313">
        <ele>1317.875429</ele>
        <time>2021-08-15T14:36:04.919Z</time>
      </trkpt>
      <trkpt lat="43.01336" lon="42.59339">
        <ele>1317.501654</ele>
        <time>2021-08-15T14:36:08.803Z</time>
      </trkpt>
      <trkpt lat="43.01376" lon="42.59438">
        <ele>1315.953952</ele>
        <time>2021-08-15T14:36:24.440Z</time>
      </trkpt>
      <trkpt lat="43.0142" lon="42.5959">
        <ele>1314.537835</ele>
        <time>2021-08-15T14:36:47.790Z</time>
      </trkpt>
      <trkpt lat="43.01442" lon="42.59696">
        <ele>1313.794485</ele>
        <time>2021-08-15T14:37:05.939Z</time>
      </trkpt>
      <trkpt lat="43.0146" lon="42.59756">
        <ele>1313.958068</ele>
        <time>2021-08-15T14:37:17.837Z</time>
      </trkpt>
      <trkpt lat="43.01494" lon="42.598">
        <ele>1314.317566</ele>
        <time>2021-08-15T14:37:30.532Z</time>
      </trkpt>
      <trkpt lat="43.01548" lon="42.59854">
        <ele>1314.835628</ele>
        <time>2021-08-15T14:37:49.942Z</time>
      </trkpt>
      <trkpt lat="43.01559" lon="42.59877">
        <ele>1314.990798</ele>
        <time>2021-08-15T14:37:55.649Z</time>
      </trkpt>
      <trkpt lat="43.01564" lon="42.59904">
        <ele>1315.222392</ele>
        <time>2021-08-15T14:38:01.464Z</time>
      </trkpt>
      <trkpt lat="43.01563" lon="42.59995">
        <ele>1316.222043</ele>
        <time>2021-08-15T14:38:19.737Z</time>
      </trkpt>
      <trkpt lat="43.01625" lon="42.60169">
        <ele>1318.535194</ele>
        <time>2021-08-15T14:39:05.905Z</time>
      </trkpt>
      <trkpt lat="43.01636" lon="42.6033">
        <ele>1320.861078</ele>
        <time>2021-08-15T14:39:45.524Z</time>
      </trkpt>
      <trkpt lat="43.01666" lon="42.60388">
        <ele>1321.204375</ele>
        <time>2021-08-15T14:40:03.329Z</time>
      </trkpt>
      <trkpt lat="43.01671" lon="42.60415">
        <ele>1321.114561</ele>
        <time>2021-08-15T14:40:09.762Z</time>
      </trkpt>
      <trkpt lat="43.01656" lon="42.6045">
        <ele>1320.982286</ele>
        <time>2021-08-15T14:40:17.762Z</time>
      </trkpt>
      <trkpt lat="43.01624" lon="42.60479">
        <ele>1320.810294</ele>
        <time>2021-08-15T14:40:26.164Z</time>
      </trkpt>
      <trkpt lat="43.01608" lon="42.60513">
        <ele>1320.679685</ele>
        <time>2021-08-15T14:40:31.896Z</time>
      </trkpt>
      <trkpt lat="43.01572" lon="42.60569">
        <ele>1319.557196</ele>
        <time>2021-08-15T14:40:41.850Z</time>
      </trkpt>
      <trkpt lat="43.01521" lon="42.60717">
        <ele>1313.995504</ele>
        <time>2021-08-15T14:41:01.987Z</time>
      </trkpt>
      <trkpt lat="43.01479" lon="42.608">
        <ele>1310.663894</ele>
        <time>2021-08-15T14:41:13.832Z</time>
      </trkpt>
      <trkpt lat="43.01457" lon="42.61017">
        <ele>1303.83668</ele>
        <time>2021-08-15T14:41:41.375Z</time>
      </trkpt>
      <trkpt lat="43.01455" lon="42.61071">
        <ele>1302.680822</ele>
        <time>2021-08-15T14:41:48.830Z</time>
      </trkpt>
      <trkpt lat="43.01459" lon="42.61101">
        <ele>1302.036529</ele>
        <time>2021-08-15T14:41:53.755Z</time>
      </trkpt>
      <trkpt lat="43.01481" lon="42.61175">
        <ele>1300.333154</ele>
        <time>2021-08-15T14:42:03.968Z</time>
      </trkpt>
      <trkpt lat="43.01486" lon="42.61193">
        <ele>1299.919701</ele>
        <time>2021-08-15T14:42:06.898Z</time>
      </trkpt>
      <trkpt lat="43.01488" lon="42.61204">
        <ele>1299.692359</ele>
        <time>2021-08-15T14:42:08.087Z</time>
      </trkpt>
      <trkpt lat="43.01487" lon="42.61232">
        <ele>1299.076141</ele>
        <time>2021-08-15T14:42:12.480Z</time>
      </trkpt>
      <trkpt lat="43.01482" lon="42.61247">
        <ele>1298.859571</ele>
        <time>2021-08-15T14:42:14.542Z</time>
      </trkpt>
      <trkpt lat="43.01469" lon="42.6126">
        <ele>1298.597659</ele>
        <time>2021-08-15T14:42:17.593Z</time>
      </trkpt>
      <trkpt lat="43.01435" lon="42.6128">
        <ele>1297.991543</ele>
        <time>2021-08-15T14:42:24.673Z</time>
      </trkpt>
      <trkpt lat="43.01425" lon="42.61301">
        <ele>1297.687784</ele>
        <time>2021-08-15T14:42:28.234Z</time>
      </trkpt>
      <trkpt lat="43.01422" lon="42.61327">
        <ele>1297.370686</ele>
        <time>2021-08-15T14:42:32.061Z</time>
      </trkpt>
      <trkpt lat="43.01423" lon="42.61428">
        <ele>1296.15719</ele>
        <time>2021-08-15T14:42:46.624Z</time>
      </trkpt>
      <trkpt lat="43.01429" lon="42.61505">
        <ele>1297.21219</ele>
        <time>2021-08-15T14:43:01.361Z</time>
      </trkpt>
      <trkpt lat="43.01445" lon="42.61574">
        <ele>1298.360187</ele>
        <time>2021-08-15T14:43:21.107Z</time>
      </trkpt>
      <trkpt lat="43.01444" lon="42.61605">
        <ele>1298.853987</ele>
        <time>2021-08-15T14:43:30.391Z</time>
      </trkpt>
      <trkpt lat="43.01438" lon="42.61625">
        <ele>1299.205978</ele>
        <time>2021-08-15T14:43:36.150Z</time>
      </trkpt>
      <trkpt lat="43.01425" lon="42.61651">
        <ele>1299.70137</ele>
        <time>2021-08-15T14:43:45.728Z</time>
      </trkpt>
      <trkpt lat="43.01417" lon="42.61667">
        <ele>1300.007535</ele>
        <time>2021-08-15T14:43:51.108Z</time>
      </trkpt>
      <trkpt lat="43.01351" lon="42.6182">
        <ele>1304.817913</ele>
        <time>2021-08-15T14:44:48.710Z</time>
      </trkpt>
      <trkpt lat="43.01344" lon="42.61866">
        <ele>1306.069879</ele>
        <time>2021-08-15T14:45:01.824Z</time>
      </trkpt>
      <trkpt lat="43.01333" lon="42.61947">
        <ele>1307.749018</ele>
        <time>2021-08-15T14:45:24.089Z</time>
      </trkpt>
      <trkpt lat="43.01321" lon="42.62001">
        <ele>1308.786049</ele>
        <time>2021-08-15T14:45:38.883Z</time>
      </trkpt>
      <trkpt lat="43.01316" lon="42.6203">
        <ele>1309.330311</ele>
        <time>2021-08-15T14:45:46.326Z</time>
      </trkpt>
      <trkpt lat="43.01313" lon="42.62046">
        <ele>1309.625829</ele>
        <time>2021-08-15T14:45:50.428Z</time>
      </trkpt>
      <trkpt lat="43.0131" lon="42.62064">
        <ele>1309.963942</ele>
        <time>2021-08-15T14:45:54.840Z</time>
      </trkpt>
      <trkpt lat="43.01306" lon="42.621">
        <ele>1310.639371</ele>
        <time>2021-08-15T14:46:02.831Z</time>
      </trkpt>
      <trkpt lat="43.01301" lon="42.62167">
        <ele>1312.247812</ele>
        <time>2021-08-15T14:46:22.094Z</time>
      </trkpt>
      <trkpt lat="43.013" lon="42.62187">
        <ele>1312.817428</ele>
        <time>2021-08-15T14:46:26.543Z</time>
      </trkpt>
      <trkpt lat="43.01302" lon="42.62245">
        <ele>1314.440417</ele>
        <time>2021-08-15T14:46:43.895Z</time>
      </trkpt>
      <trkpt lat="43.01315" lon="42.62299">
        <ele>1316.043</ele>
        <time>2021-08-15T14:47:02.200Z</time>
      </trkpt>
      <trkpt lat="43.01318" lon="42.6231">
        <ele>1316.370367</ele>
        <time>2021-08-15T14:47:08.044Z</time>
      </trkpt>
      <trkpt lat="43.01353" lon="42.62373">
        <ele>1318.645556</ele>
        <time>2021-08-15T14:47:34.679Z</time>
      </trkpt>
      <trkpt lat="43.01376" lon="42.62407">
        <ele>1320.053585</ele>
        <time>2021-08-15T14:47:51.055Z</time>
      </trkpt>
      <trkpt lat="43.01412" lon="42.62458">
        <ele>1322.209465</ele>
        <time>2021-08-15T14:48:15.518Z</time>
      </trkpt>
      <trkpt lat="43.01422" lon="42.62482">
        <ele>1323.035157</ele>
        <time>2021-08-15T14:48:23.717Z</time>
      </trkpt>
      <trkpt lat="43.01427" lon="42.62499">
        <ele>1323.602642</ele>
        <time>2021-08-15T14:48:28.703Z</time>
      </trkpt>
      <trkpt lat="43.01423" lon="42.6255">
        <ele>1325.154956</ele>
        <time>2021-08-15T14:48:43.373Z</time>
      </trkpt>
      <trkpt lat="43.01419" lon="42.62569">
        <ele>1325.72735</ele>
        <time>2021-08-15T14:48:49.371Z</time>
      </trkpt>
      <trkpt lat="43.01414" lon="42.62616">
        <ele>1326.97138</ele>
        <time>2021-08-15T14:49:02.560Z</time>
      </trkpt>
      <trkpt lat="43.01411" lon="42.62632">
        <ele>1327.415994</ele>
        <time>2021-08-15T14:49:07.869Z</time>
      </trkpt>
      <trkpt lat="43.01394" lon="42.6271">
        <ele>1329.548283</ele>
        <time>2021-08-15T14:49:30.991Z</time>
      </trkpt>
      <trkpt lat="43.01381" lon="42.62745">
        <ele>1330.572663</ele>
        <time>2021-08-15T14:49:43.364Z</time>
      </trkpt>
      <trkpt lat="43.01372" lon="42.62781">
        <ele>1331.577167</ele>
        <time>2021-08-15T14:49:56.023Z</time>
      </trkpt>
      <trkpt lat="43.01329" lon="42.62925">
        <ele>1334.603813</ele>
        <time>2021-08-15T14:50:46.610Z</time>
      </trkpt>
      <trkpt lat="43.01318" lon="42.62989">
        <ele>1335.842898</ele>
        <time>2021-08-15T14:51:00.511Z</time>
      </trkpt>
      <trkpt lat="43.01312" lon="42.63011">
        <ele>1336.28635</ele>
        <time>2021-08-15T14:51:05.824Z</time>
      </trkpt>
      <trkpt lat="43.013" lon="42.63047">
        <ele>1336.100482</ele>
        <time>2021-08-15T14:51:11.896Z</time>
      </trkpt>
      <trkpt lat="43.01278" lon="42.63102">
        <ele>1334.852819</ele>
        <time>2021-08-15T14:51:21.392Z</time>
      </trkpt>
      <trkpt lat="43.01268" lon="42.63129">
        <ele>1334.236076</ele>
        <time>2021-08-15T14:51:25.381Z</time>
      </trkpt>
      <trkpt lat="43.01268" lon="42.63134">
        <ele>1334.135026</ele>
        <time>2021-08-15T14:51:26.123Z</time>
      </trkpt>
      <trkpt lat="43.01265" lon="42.63208">
        <ele>1332.666087</ele>
        <time>2021-08-15T14:51:35.578Z</time>
      </trkpt>
      <trkpt lat="43.01263" lon="42.63236">
        <ele>1332.113755</ele>
        <time>2021-08-15T14:51:38.947Z</time>
      </trkpt>
      <trkpt lat="43.01259" lon="42.63293">
        <ele>1330.267787</ele>
        <time>2021-08-15T14:51:46.034Z</time>
      </trkpt>
      <trkpt lat="43.01259" lon="42.63312">
        <ele>1329.505341</ele>
        <time>2021-08-15T14:51:48.345Z</time>
      </trkpt>
      <trkpt lat="43.0126" lon="42.63373">
        <ele>1327.078471</ele>
        <time>2021-08-15T14:51:55.825Z</time>
      </trkpt>
      <trkpt lat="43.01264" lon="42.63394">
        <ele>1326.226266</ele>
        <time>2021-08-15T14:51:58.492Z</time>
      </trkpt>
      <trkpt lat="43.01273" lon="42.63424">
        <ele>1324.941261</ele>
        <time>2021-08-15T14:52:02.397Z</time>
      </trkpt>
      <trkpt lat="43.01281" lon="42.63451">
        <ele>1323.7881</ele>
        <time>2021-08-15T14:52:05.829Z</time>
      </trkpt>
      <trkpt lat="43.01292" lon="42.63502">
        <ele>1321.620835</ele>
        <time>2021-08-15T14:52:11.761Z</time>
      </trkpt>
      <trkpt lat="43.01307" lon="42.63538">
        <ele>1319.59674</ele>
        <time>2021-08-15T14:52:16.473Z</time>
      </trkpt>
      <trkpt lat="43.01312" lon="42.63549">
        <ele>1319.020084</ele>
        <time>2021-08-15T14:52:17.756Z</time>
      </trkpt>
      <trkpt lat="43.01323" lon="42.63594">
        <ele>1316.745425</ele>
        <time>2021-08-15T14:52:22.953Z</time>
      </trkpt>
      <trkpt lat="43.01329" lon="42.6362">
        <ele>1315.396749</ele>
        <time>2021-08-15T14:52:26.063Z</time>
      </trkpt>
      <trkpt lat="43.01332" lon="42.63647">
        <ele>1314.107241</ele>
        <time>2021-08-15T14:52:28.970Z</time>
      </trkpt>
      <trkpt lat="43.01343" lon="42.6368">
        <ele>1312.335893</ele>
        <time>2021-08-15T14:52:33.065Z</time>
      </trkpt>
      <trkpt lat="43.01373" lon="42.63721">
        <ele>1309.704786</ele>
        <time>2021-08-15T14:52:39.414Z</time>
      </trkpt>
      <trkpt lat="43.01476" lon="42.63984">
        <ele>1301.403296</ele>
        <time>2021-08-15T14:53:14.669Z</time>
      </trkpt>
      <trkpt lat="43.01493" lon="42.64042">
        <ele>1301.316664</ele>
        <time>2021-08-15T14:53:24.171Z</time>
      </trkpt>
      <trkpt lat="43.0152" lon="42.64099">
        <ele>1301.223475</ele>
        <time>2021-08-15T14:53:38.128Z</time>
      </trkpt>
      <trkpt lat="43.01543" lon="42.64132">
        <ele>1301.161422</ele>
        <time>2021-08-15T14:53:50.055Z</time>
      </trkpt>
      <trkpt lat="43.01575" lon="42.64158">
        <ele>1302.6074</ele>
        <time>2021-08-15T14:54:05.933Z</time>
      </trkpt>
      <trkpt lat="43.01598" lon="42.64188">
        <ele>1304.093884</ele>
        <time>2021-08-15T14:54:21.900Z</time>
      </trkpt>
      <trkpt lat="43.0169" lon="42.64335">
        <ele>1310.263424</ele>
        <time>2021-08-15T14:55:28.577Z</time>
      </trkpt>
      <trkpt lat="43.01692" lon="42.64347">
        <ele>1310.579184</ele>
        <time>2021-08-15T14:55:34.043Z</time>
      </trkpt>
      <trkpt lat="43.01692" lon="42.64355">
        <ele>1310.778417</ele>
        <time>2021-08-15T14:55:36.273Z</time>
      </trkpt>
      <trkpt lat="43.01694" lon="42.64376">
        <ele>1311.283825</ele>
        <time>2021-08-15T14:55:41.451Z</time>
      </trkpt>
      <trkpt lat="43.01717" lon="42.6444">
        <ele>1313.023771</ele>
        <time>2021-08-15T14:56:03.042Z</time>
      </trkpt>
      <trkpt lat="43.01738" lon="42.64462">
        <ele>1313.903285</ele>
        <time>2021-08-15T14:56:11.663Z</time>
      </trkpt>
      <trkpt lat="43.01778" lon="42.64486">
        <ele>1315.363744</ele>
        <time>2021-08-15T14:56:27.417Z</time>
      </trkpt>
      <trkpt lat="43.0179" lon="42.64502">
        <ele>1315.743206</ele>
        <time>2021-08-15T14:56:31.399Z</time>
      </trkpt>
      <trkpt lat="43.01795" lon="42.64533">
        <ele>1316.26299</ele>
        <time>2021-08-15T14:56:37.858Z</time>
      </trkpt>
      <trkpt lat="43.01786" lon="42.64611">
        <ele>1317.570985</ele>
        <time>2021-08-15T14:56:56.212Z</time>
      </trkpt>
      <trkpt lat="43.0179" lon="42.64702">
        <ele>1319.0539</ele>
        <time>2021-08-15T14:57:19.632Z</time>
      </trkpt>
      <trkpt lat="43.01772" lon="42.64835">
        <ele>1322.203564</ele>
        <time>2021-08-15T14:57:56.546Z</time>
      </trkpt>
      <trkpt lat="43.01775" lon="42.64852">
        <ele>1322.62848</ele>
        <time>2021-08-15T14:58:01.398Z</time>
      </trkpt>
      <trkpt lat="43.01791" lon="42.64879">
        <ele>1323.485962</ele>
        <time>2021-08-15T14:58:11.497Z</time>
      </trkpt>
      <trkpt lat="43.01824" lon="42.64905">
        <ele>1324.793926</ele>
        <time>2021-08-15T14:58:27.957Z</time>
      </trkpt>
      <trkpt lat="43.01837" lon="42.64921">
        <ele>1325.364412</ele>
        <time>2021-08-15T14:58:35.052Z</time>
      </trkpt>
      <trkpt lat="43.01857" lon="42.6498">
        <ele>1326.871422</ele>
        <time>2021-08-15T14:58:55.324Z</time>
      </trkpt>
      <trkpt lat="43.01865" lon="42.65067">
        <ele>1328.879717</ele>
        <time>2021-08-15T14:59:20.454Z</time>
      </trkpt>
      <trkpt lat="43.01872" lon="42.65088">
        <ele>1329.382669</ele>
        <time>2021-08-15T14:59:26.305Z</time>
      </trkpt>
      <trkpt lat="43.01904" lon="42.65126">
        <ele>1330.704746</ele>
        <time>2021-08-15T14:59:41.108Z</time>
      </trkpt>
      <trkpt lat="43.0193" lon="42.65173">
        <ele>1331.850209</ele>
        <time>2021-08-15T14:59:55.729Z</time>
      </trkpt>
      <trkpt lat="43.01966" lon="42.6521">
        <ele>1332.925047</ele>
        <time>2021-08-15T15:00:09.189Z</time>
      </trkpt>
      <trkpt lat="43.01971" lon="42.65222">
        <ele>1333.175204</ele>
        <time>2021-08-15T15:00:12.056Z</time>
      </trkpt>
      <trkpt lat="43.01988" lon="42.65325">
        <ele>1335.021702</ele>
        <time>2021-08-15T15:00:37.977Z</time>
      </trkpt>
      <trkpt lat="43.01994" lon="42.65417">
        <ele>1337.768076</ele>
        <time>2021-08-15T15:01:06.650Z</time>
      </trkpt>
      <trkpt lat="43.01999" lon="42.65436">
        <ele>1338.457509</ele>
        <time>2021-08-15T15:01:10.546Z</time>
      </trkpt>
      <trkpt lat="43.02005" lon="42.65461">
        <ele>1339.348984</ele>
        <time>2021-08-15T15:01:22.299Z</time>
      </trkpt>
      <trkpt lat="43.02023" lon="42.65506">
        <ele>1341.085358</ele>
        <time>2021-08-15T15:01:39.978Z</time>
      </trkpt>
      <trkpt lat="43.02076" lon="42.65574">
        <ele>1344.381135</ele>
        <time>2021-08-15T15:02:16.005Z</time>
      </trkpt>
      <trkpt lat="43.02133" lon="42.65677">
        <ele>1348.090537</ele>
        <time>2021-08-15T15:02:59.510Z</time>
      </trkpt>
      <trkpt lat="43.02199" lon="42.6584">
        <ele>1352.458727</ele>
        <time>2021-08-15T15:03:46.442Z</time>
      </trkpt>
      <trkpt lat="43.02285" lon="42.65943">
        <ele>1355.206542</ele>
        <time>2021-08-15T15:04:25.265Z</time>
      </trkpt>
      <trkpt lat="43.02337" lon="42.66028">
        <ele>1357.157997</ele>
        <time>2021-08-15T15:04:53.817Z</time>
      </trkpt>
      <trkpt lat="43.02374" lon="42.66061">
        <ele>1358.247598</ele>
        <time>2021-08-15T15:05:10.042Z</time>
      </trkpt>
      <trkpt lat="43.02455" lon="42.66198">
        <ele>1360.150171</ele>
        <time>2021-08-15T15:05:51.571Z</time>
      </trkpt>
      <trkpt lat="43.02479" lon="42.6623">
        <ele>1360.413826</ele>
        <time>2021-08-15T15:06:00.195Z</time>
      </trkpt>
      <trkpt lat="43.02518" lon="42.66256">
        <ele>1360.744824</ele>
        <time>2021-08-15T15:06:09.801Z</time>
      </trkpt>
      <trkpt lat="43.02536" lon="42.66337">
        <ele>1360.700627</ele>
        <time>2021-08-15T15:06:22.461Z</time>
      </trkpt>
      <trkpt lat="43.02581" lon="42.66479">
        <ele>1359.733646</ele>
        <time>2021-08-15T15:06:44.414Z</time>
      </trkpt>
      <trkpt lat="43.02596" lon="42.66548">
        <ele>1359.68391</ele>
        <time>2021-08-15T15:06:55.440Z</time>
      </trkpt>
      <trkpt lat="43.02632" lon="42.66625">
        <ele>1360.62003</ele>
        <time>2021-08-15T15:07:12.169Z</time>
      </trkpt>
      <trkpt lat="43.0269" lon="42.66862">
        <ele>1362.860747</ele>
        <time>2021-08-15T15:08:16.376Z</time>
      </trkpt>
      <trkpt lat="43.02704" lon="42.6688">
        <ele>1363.060618</ele>
        <time>2021-08-15T15:08:19.733Z</time>
      </trkpt>
      <trkpt lat="43.02765" lon="42.66885">
        <ele>1363.700821</ele>
        <time>2021-08-15T15:08:35.043Z</time>
      </trkpt>
      <trkpt lat="43.0278" lon="42.66893">
        <ele>1363.808356</ele>
        <time>2021-08-15T15:08:38.101Z</time>
      </trkpt>
      <trkpt lat="43.02784" lon="42.66899">
        <ele>1363.784489</ele>
        <time>2021-08-15T15:08:42.140Z</time>
      </trkpt>
      <trkpt lat="43.02785" lon="42.66912">
        <ele>1363.742565</ele>
        <time>2021-08-15T15:08:44.774Z</time>
      </trkpt>
      <trkpt lat="43.02782" lon="42.66921">
        <ele>1363.711206</ele>
        <time>2021-08-15T15:08:45.743Z</time>
      </trkpt>
      <trkpt lat="43.02758" lon="42.66938">
        <ele>1363.590506</ele>
        <time>2021-08-15T15:08:54.345Z</time>
      </trkpt>
      <trkpt lat="43.0274" lon="42.66964">
        <ele>1363.473562</ele>
        <time>2021-08-15T15:08:59.059Z</time>
      </trkpt>
      <trkpt lat="43.02737" lon="42.67008">
        <ele>1363.331582</ele>
        <time>2021-08-15T15:09:04.882Z</time>
      </trkpt>
      <trkpt lat="43.02724" lon="42.67068">
        <ele>1363.127635</ele>
        <time>2021-08-15T15:09:16.814Z</time>
      </trkpt>
      <trkpt lat="43.02742" lon="42.67103">
        <ele>1363.356189</ele>
        <time>2021-08-15T15:09:22.425Z</time>
      </trkpt>
      <trkpt lat="43.02764" lon="42.67115">
        <ele>1364.259433</ele>
        <time>2021-08-15T15:09:29.358Z</time>
      </trkpt>
      <trkpt lat="43.02828" lon="42.67192">
        <ele>1367.462127</ele>
        <time>2021-08-15T15:10:02.787Z</time>
      </trkpt>
      <trkpt lat="43.03012" lon="42.675">
        <ele>1384.375125</ele>
        <time>2021-08-15T15:12:46.558Z</time>
      </trkpt>
      <trkpt lat="43.03041" lon="42.67562">
        <ele>1387.096213</ele>
        <time>2021-08-15T15:13:12.566Z</time>
      </trkpt>
      <trkpt lat="43.03057" lon="42.67586">
        <ele>1388.298037</ele>
        <time>2021-08-15T15:13:24.168Z</time>
      </trkpt>
      <trkpt lat="43.03071" lon="42.67596">
        <ele>1389.08131</ele>
        <time>2021-08-15T15:13:29.963Z</time>
      </trkpt>
      <trkpt lat="43.03085" lon="42.676">
        <ele>1389.808541</ele>
        <time>2021-08-15T15:13:37.242Z</time>
      </trkpt>
      <trkpt lat="43.03095" lon="42.67606">
        <ele>1390.366959</ele>
        <time>2021-08-15T15:13:41.075Z</time>
      </trkpt>
      <trkpt lat="43.03107" lon="42.67623">
        <ele>1391.055219</ele>
        <time>2021-08-15T15:13:47.792Z</time>
      </trkpt>
      <trkpt lat="43.03112" lon="42.67641">
        <ele>1391.174191</ele>
        <time>2021-08-15T15:13:53.299Z</time>
      </trkpt>
      <trkpt lat="43.03122" lon="42.67715">
        <ele>1391.628639</ele>
        <time>2021-08-15T15:14:10.506Z</time>
      </trkpt>
      <trkpt lat="43.03126" lon="42.6782">
        <ele>1392.267818</ele>
        <time>2021-08-15T15:14:30.909Z</time>
      </trkpt>
      <trkpt lat="43.03146" lon="42.67901">
        <ele>1391.06832</ele>
        <time>2021-08-15T15:14:42.411Z</time>
      </trkpt>
      <trkpt lat="43.03158" lon="42.6803">
        <ele>1387.052862</ele>
        <time>2021-08-15T15:14:57.742Z</time>
      </trkpt>
      <trkpt lat="43.03162" lon="42.68048">
        <ele>1386.463461</ele>
        <time>2021-08-15T15:14:59.925Z</time>
      </trkpt>
      <trkpt lat="43.03172" lon="42.68082">
        <ele>1385.28917</ele>
        <time>2021-08-15T15:15:04.071Z</time>
      </trkpt>
      <trkpt lat="43.03177" lon="42.68124">
        <ele>1384.208578</ele>
        <time>2021-08-15T15:15:08.734Z</time>
      </trkpt>
      <trkpt lat="43.03175" lon="42.68152">
        <ele>1383.536255</ele>
        <time>2021-08-15T15:15:11.899Z</time>
      </trkpt>
      <trkpt lat="43.03157" lon="42.68245">
        <ele>1381.305571</ele>
        <time>2021-08-15T15:15:23.317Z</time>
      </trkpt>
      <trkpt lat="43.03157" lon="42.68248">
        <ele>1381.228042</ele>
        <time>2021-08-15T15:15:23.644Z</time>
      </trkpt>
      <trkpt lat="43.03159" lon="42.68272">
        <ele>1380.658604</ele>
        <time>2021-08-15T15:15:27.156Z</time>
      </trkpt>
      <trkpt lat="43.032" lon="42.68371">
        <ele>1380.827834</ele>
        <time>2021-08-15T15:15:50.543Z</time>
      </trkpt>
      <trkpt lat="43.03223" lon="42.6846">
        <ele>1384.285047</ele>
        <time>2021-08-15T15:16:24.742Z</time>
      </trkpt>
      <trkpt lat="43.03224" lon="42.68493">
        <ele>1385.478686</ele>
        <time>2021-08-15T15:16:35.646Z</time>
      </trkpt>
      <trkpt lat="43.03228" lon="42.685">
        <ele>1385.826934</ele>
        <time>2021-08-15T15:16:41.790Z</time>
      </trkpt>
      <trkpt lat="43.03263" lon="42.68501">
        <ele>1387.547119</ele>
        <time>2021-08-15T15:17:01.348Z</time>
      </trkpt>
      <trkpt lat="43.03268" lon="42.68501">
        <ele>1387.827739</ele>
        <time>2021-08-15T15:17:07.109Z</time>
      </trkpt>
      <trkpt lat="43.03272" lon="42.68503">
        <ele>1388.005385</ele>
        <time>2021-08-15T15:17:09.405Z</time>
      </trkpt>
      <trkpt lat="43.03279" lon="42.68521">
        <ele>1388.985976</ele>
        <time>2021-08-15T15:17:16.348Z</time>
      </trkpt>
      <trkpt lat="43.03283" lon="42.68531">
        <ele>1389.541532</ele>
        <time>2021-08-15T15:17:20.213Z</time>
      </trkpt>
      <trkpt lat="43.03283" lon="42.6855">
        <ele>1390.500282</ele>
        <time>2021-08-15T15:17:31.774Z</time>
      </trkpt>
      <trkpt lat="43.03283" lon="42.6856">
        <ele>1391.005299</ele>
        <time>2021-08-15T15:17:35.177Z</time>
      </trkpt>
      <trkpt lat="43.03283" lon="42.68574">
        <ele>1391.674393</ele>
        <time>2021-08-15T15:17:39.967Z</time>
      </trkpt>
      <trkpt lat="43.03281" lon="42.68581">
        <ele>1392.040059</ele>
        <time>2021-08-15T15:17:42.857Z</time>
      </trkpt>
      <trkpt lat="43.03258" lon="42.68613">
        <ele>1394.27946</ele>
        <time>2021-08-15T15:18:03.012Z</time>
      </trkpt>
      <trkpt lat="43.03253" lon="42.68635">
        <ele>1395.395667</ele>
        <time>2021-08-15T15:18:16.382Z</time>
      </trkpt>
      <trkpt lat="43.03253" lon="42.68657">
        <ele>1396.527025</ele>
        <time>2021-08-15T15:18:24.235Z</time>
      </trkpt>
      <trkpt lat="43.03272" lon="42.68727">
        <ele>1400.197819</ele>
        <time>2021-08-15T15:18:51.763Z</time>
      </trkpt>
      <trkpt lat="43.03313" lon="42.68855">
        <ele>1403.875721</ele>
        <time>2021-08-15T15:19:33.511Z</time>
      </trkpt>
      <trkpt lat="43.03359" lon="42.68978">
        <ele>1406.881627</ele>
        <time>2021-08-15T15:20:11.414Z</time>
      </trkpt>
      <trkpt lat="43.0338" lon="42.69012">
        <ele>1407.178868</ele>
        <time>2021-08-15T15:20:21.285Z</time>
      </trkpt>
      <trkpt lat="43.03457" lon="42.69089">
        <ele>1408.043408</ele>
        <time>2021-08-15T15:20:44.762Z</time>
      </trkpt>
      <trkpt lat="43.03493" lon="42.69123">
        <ele>1408.204757</ele>
        <time>2021-08-15T15:20:54.279Z</time>
      </trkpt>
      <trkpt lat="43.03535" lon="42.69152">
        <ele>1407.855267</ele>
        <time>2021-08-15T15:21:03.918Z</time>
      </trkpt>
      <trkpt lat="43.03559" lon="42.69174">
        <ele>1407.637235</ele>
        <time>2021-08-15T15:21:09.574Z</time>
      </trkpt>
      <trkpt lat="43.03591" lon="42.69206">
        <ele>1407.338112</ele>
        <time>2021-08-15T15:21:17.031Z</time>
      </trkpt>
      <trkpt lat="43.03605" lon="42.69233">
        <ele>1407.156786</ele>
        <time>2021-08-15T15:21:21.653Z</time>
      </trkpt>
      <trkpt lat="43.03612" lon="42.69265">
        <ele>1406.972013</ele>
        <time>2021-08-15T15:21:26.695Z</time>
      </trkpt>
      <trkpt lat="43.03615" lon="42.69321">
        <ele>1407.591233</ele>
        <time>2021-08-15T15:21:36.119Z</time>
      </trkpt>
      <trkpt lat="43.03615" lon="42.6935">
        <ele>1407.927519</ele>
        <time>2021-08-15T15:21:41.985Z</time>
      </trkpt>
      <trkpt lat="43.0362" lon="42.69368">
        <ele>1408.149201</ele>
        <time>2021-08-15T15:21:45.086Z</time>
      </trkpt>
      <trkpt lat="43.03632" lon="42.69389">
        <ele>1408.469851</ele>
        <time>2021-08-15T15:21:51.008Z</time>
      </trkpt>
      <trkpt lat="43.03763" lon="42.69599">
        <ele>1414.471367</ele>
        <time>2021-08-15T15:23:06.858Z</time>
      </trkpt>
      <trkpt lat="43.03781" lon="42.69643">
        <ele>1415.976828</ele>
        <time>2021-08-15T15:23:25.896Z</time>
      </trkpt>
      <trkpt lat="43.03793" lon="42.69694">
        <ele>1417.586599</ele>
        <time>2021-08-15T15:23:45.635Z</time>
      </trkpt>
      <trkpt lat="43.03796" lon="42.6976">
        <ele>1419.730564</ele>
        <time>2021-08-15T15:24:08.300Z</time>
      </trkpt>
      <trkpt lat="43.038" lon="42.69784">
        <ele>1420.515567</ele>
        <time>2021-08-15T15:24:17.640Z</time>
      </trkpt>
      <trkpt lat="43.03805" lon="42.698">
        <ele>1421.106199</ele>
        <time>2021-08-15T15:24:23.394Z</time>
      </trkpt>
      <trkpt lat="43.03823" lon="42.6985">
        <ele>1422.918655</ele>
        <time>2021-08-15T15:24:40.958Z</time>
      </trkpt>
      <trkpt lat="43.03831" lon="42.69881">
        <ele>1423.986376</ele>
        <time>2021-08-15T15:24:51.785Z</time>
      </trkpt>
      <trkpt lat="43.03841" lon="42.69923">
        <ele>1425.187289</ele>
        <time>2021-08-15T15:25:04.284Z</time>
      </trkpt>
      <trkpt lat="43.03861" lon="42.70001">
        <ele>1426.250889</ele>
        <time>2021-08-15T15:25:24.767Z</time>
      </trkpt>
      <trkpt lat="43.0391" lon="42.70163">
        <ele>1428.165739</ele>
        <time>2021-08-15T15:25:59.658Z</time>
      </trkpt>
      <trkpt lat="43.03914" lon="42.70177">
        <ele>1428.155117</ele>
        <time>2021-08-15T15:26:03.851Z</time>
      </trkpt>
      <trkpt lat="43.03923" lon="42.70186">
        <ele>1428.14379</ele>
        <time>2021-08-15T15:26:06.850Z</time>
      </trkpt>
      <trkpt lat="43.03935" lon="42.70186">
        <ele>1428.132775</ele>
        <time>2021-08-15T15:26:09.390Z</time>
      </trkpt>
      <trkpt lat="43.03993" lon="42.70168">
        <ele>1428.074731</ele>
        <time>2021-08-15T15:26:24.518Z</time>
      </trkpt>
      <trkpt lat="43.04036" lon="42.70172">
        <ele>1428.033107</ele>
        <time>2021-08-15T15:26:32.677Z</time>
      </trkpt>
      <trkpt lat="43.04045" lon="42.70183">
        <ele>1428.021942</ele>
        <time>2021-08-15T15:26:35.451Z</time>
      </trkpt>
      <trkpt lat="43.04048" lon="42.702">
        <ele>1428.009172</ele>
        <time>2021-08-15T15:26:38.050Z</time>
      </trkpt>
      <trkpt lat="43.04047" lon="42.70205">
        <ele>1427.924397</ele>
        <time>2021-08-15T15:26:38.725Z</time>
      </trkpt>
      <trkpt lat="43.04044" lon="42.70211">
        <ele>1427.744605</ele>
        <time>2021-08-15T15:26:39.601Z</time>
      </trkpt>
      <trkpt lat="43.04034" lon="42.70219">
        <ele>1427.375251</ele>
        <time>2021-08-15T15:26:42.106Z</time>
      </trkpt>
      <trkpt lat="43.04009" lon="42.70238">
        <ele>1426.464534</ele>
        <time>2021-08-15T15:26:47.180Z</time>
      </trkpt>
      <trkpt lat="43.03963" lon="42.70282">
        <ele>1424.674563</ele>
        <time>2021-08-15T15:26:57.296Z</time>
      </trkpt>
      <trkpt lat="43.03935" lon="42.70305">
        <ele>1423.648613</ele>
        <time>2021-08-15T15:27:02.659Z</time>
      </trkpt>
      <trkpt lat="43.03926" lon="42.70315">
        <ele>1423.263571</ele>
        <time>2021-08-15T15:27:04.547Z</time>
      </trkpt>
      <trkpt lat="43.03915" lon="42.70342">
        <ele>1422.552894</ele>
        <time>2021-08-15T15:27:08.039Z</time>
      </trkpt>
      <trkpt lat="43.03912" lon="42.7037">
        <ele>1421.618079</ele>
        <time>2021-08-15T15:27:11.315Z</time>
      </trkpt>
      <trkpt lat="43.03911" lon="42.70396">
        <ele>1420.600382</ele>
        <time>2021-08-15T15:27:14.333Z</time>
      </trkpt>
      <trkpt lat="43.03913" lon="42.70411">
        <ele>1419.993147</ele>
        <time>2021-08-15T15:27:16.072Z</time>
      </trkpt>
      <trkpt lat="43.03923" lon="42.70493">
        <ele>1416.749317</ele>
        <time>2021-08-15T15:27:25.704Z</time>
      </trkpt>
      <trkpt lat="43.03943" lon="42.70654">
        <ele>1409.531128</ele>
        <time>2021-08-15T15:27:44.310Z</time>
      </trkpt>
      <trkpt lat="43.03948" lon="42.70695">
        <ele>1407.302728</ele>
        <time>2021-08-15T15:27:48.925Z</time>
      </trkpt>
      <trkpt lat="43.03971" lon="42.70794">
        <ele>1401.772285</ele>
        <time>2021-08-15T15:28:00.119Z</time>
      </trkpt>
      <trkpt lat="43.03989" lon="42.70876">
        <ele>1397.24695</ele>
        <time>2021-08-15T15:28:09.301Z</time>
      </trkpt>
      <trkpt lat="43.04003" lon="42.70944">
        <ele>1393.521827</ele>
        <time>2021-08-15T15:28:16.879Z</time>
      </trkpt>
      <trkpt lat="43.04006" lon="42.70955">
        <ele>1392.876589</ele>
        <time>2021-08-15T15:28:18.152Z</time>
      </trkpt>
      <trkpt lat="43.04027" lon="42.71008">
        <ele>1389.694721</ele>
        <time>2021-08-15T15:28:24.735Z</time>
      </trkpt>
      <trkpt lat="43.04055" lon="42.71067">
        <ele>1386.259967</ele>
        <time>2021-08-15T15:28:32.687Z</time>
      </trkpt>
      <trkpt lat="43.04062" lon="42.7108">
        <ele>1385.875412</ele>
        <time>2021-08-15T15:28:34.510Z</time>
      </trkpt>
      <trkpt lat="43.04082" lon="42.71147">
        <ele>1384.191473</ele>
        <time>2021-08-15T15:28:43.171Z</time>
      </trkpt>
      <trkpt lat="43.04103" lon="42.71212">
        <ele>1382.542669</ele>
        <time>2021-08-15T15:28:52.242Z</time>
      </trkpt>
      <trkpt lat="43.04109" lon="42.71234">
        <ele>1381.98465</ele>
        <time>2021-08-15T15:28:55.401Z</time>
      </trkpt>
      <trkpt lat="43.04145" lon="42.71376">
        <ele>1380.993773</ele>
        <time>2021-08-15T15:29:17.945Z</time>
      </trkpt>
      <trkpt lat="43.04159" lon="42.71431">
        <ele>1381.129194</ele>
        <time>2021-08-15T15:29:27.904Z</time>
      </trkpt>
      <trkpt lat="43.04163" lon="42.71447">
        <ele>1381.169474</ele>
        <time>2021-08-15T15:29:31.391Z</time>
      </trkpt>
      <trkpt lat="43.0418" lon="42.71517">
        <ele>1381.350556</ele>
        <time>2021-08-15T15:29:47.153Z</time>
      </trkpt>
      <trkpt lat="43.04186" lon="42.71536">
        <ele>1381.682721</ele>
        <time>2021-08-15T15:29:52.060Z</time>
      </trkpt>
      <trkpt lat="43.04204" lon="42.71621">
        <ele>1383.106974</ele>
        <time>2021-08-15T15:30:13.362Z</time>
      </trkpt>
      <trkpt lat="43.04223" lon="42.71705">
        <ele>1384.523128</ele>
        <time>2021-08-15T15:30:36.461Z</time>
      </trkpt>
      <trkpt lat="43.04231" lon="42.7174">
        <ele>1385.106419</ele>
        <time>2021-08-15T15:30:45.676Z</time>
      </trkpt>
      <trkpt lat="43.04237" lon="42.71768">
        <ele>1385.485961</ele>
        <time>2021-08-15T15:30:52.333Z</time>
      </trkpt>
      <trkpt lat="43.04244" lon="42.71801">
        <ele>1385.860732</ele>
        <time>2021-08-15T15:31:00.685Z</time>
      </trkpt>
      <trkpt lat="43.04255" lon="42.71841">
        <ele>1386.313641</ele>
        <time>2021-08-15T15:31:10.982Z</time>
      </trkpt>
      <trkpt lat="43.04265" lon="42.71886">
        <ele>1386.816561</ele>
        <time>2021-08-15T15:31:21.925Z</time>
      </trkpt>
      <trkpt lat="43.04272" lon="42.71914">
        <ele>1387.137526</ele>
        <time>2021-08-15T15:31:28.329Z</time>
      </trkpt>
      <trkpt lat="43.04277" lon="42.71937">
        <ele>1387.400766</ele>
        <time>2021-08-15T15:31:33.841Z</time>
      </trkpt>
      <trkpt lat="43.04282" lon="42.71955">
        <ele>1387.605261</ele>
        <time>2021-08-15T15:31:37.531Z</time>
      </trkpt>
      <trkpt lat="43.04293" lon="42.72003">
        <ele>1387.994093</ele>
        <time>2021-08-15T15:31:46.101Z</time>
      </trkpt>
      <trkpt lat="43.04324" lon="42.72131">
        <ele>1388.314973</ele>
        <time>2021-08-15T15:32:05.844Z</time>
      </trkpt>
      <trkpt lat="43.04306" lon="42.72139">
        <ele>1388.37798</ele>
        <time>2021-08-15T15:32:09.812Z</time>
      </trkpt>
      <trkpt lat="43.04288" lon="42.72147">
        <ele>1388.440225</ele>
        <time>2021-08-15T15:32:14.057Z</time>
      </trkpt>
      <trkpt lat="43.04273" lon="42.72155">
        <ele>1388.490298</ele>
        <time>2021-08-15T15:32:19.170Z</time>
      </trkpt>
      <trkpt lat="43.04223" lon="42.72184">
        <ele>1390.573493</ele>
        <time>2021-08-15T15:32:40.366Z</time>
      </trkpt>
      <trkpt lat="43.04199" lon="42.72212">
        <ele>1392.11312</ele>
        <time>2021-08-15T15:32:54.684Z</time>
      </trkpt>
      <trkpt lat="43.04191" lon="42.72222">
        <ele>1392.665412</ele>
        <time>2021-08-15T15:32:58.234Z</time>
      </trkpt>
      <trkpt lat="43.04182" lon="42.72232">
        <ele>1393.229956</ele>
        <time>2021-08-15T15:33:04.818Z</time>
      </trkpt>
      <trkpt lat="43.04172" lon="42.72246">
        <ele>1393.930291</ele>
        <time>2021-08-15T15:33:10.766Z</time>
      </trkpt>
      <trkpt lat="43.04127" lon="42.72301">
        <ele>1396.892434</ele>
        <time>2021-08-15T15:33:42.968Z</time>
      </trkpt>
      <trkpt lat="43.04119" lon="42.72315">
        <ele>1397.611256</ele>
        <time>2021-08-15T15:33:50.107Z</time>
      </trkpt>
      <trkpt lat="43.04114" lon="42.72327">
        <ele>1398.394655</ele>
        <time>2021-08-15T15:33:55.279Z</time>
      </trkpt>
      <trkpt lat="43.04111" lon="42.72348">
        <ele>1399.69168</ele>
        <time>2021-08-15T15:34:07.370Z</time>
      </trkpt>
      <trkpt lat="43.04107" lon="42.7241">
        <ele>1403.317996</ele>
        <time>2021-08-15T15:34:38.163Z</time>
      </trkpt>
      <trkpt lat="43.04099" lon="42.72454">
        <ele>1405.96115</ele>
        <time>2021-08-15T15:35:00.869Z</time>
      </trkpt>
      <trkpt lat="43.04083" lon="42.72513">
        <ele>1409.624863</ele>
        <time>2021-08-15T15:35:28.452Z</time>
      </trkpt>
      <trkpt lat="43.04065" lon="42.72579">
        <ele>1413.637297</ele>
        <time>2021-08-15T15:35:58.658Z</time>
      </trkpt>
      <trkpt lat="43.0406" lon="42.72657">
        <ele>1417.931154</ele>
        <time>2021-08-15T15:36:29.490Z</time>
      </trkpt>
      <trkpt lat="43.04061" lon="42.72686">
        <ele>1419.533287</ele>
        <time>2021-08-15T15:36:41.917Z</time>
      </trkpt>
      <trkpt lat="43.04062" lon="42.72735">
        <ele>1422.247477</ele>
        <time>2021-08-15T15:37:03.307Z</time>
      </trkpt>
      <trkpt lat="43.04063" lon="42.72752">
        <ele>1423.203444</ele>
        <time>2021-08-15T15:37:11.006Z</time>
      </trkpt>
      <trkpt lat="43.04064" lon="42.7278">
        <ele>1424.721584</ele>
        <time>2021-08-15T15:37:24.244Z</time>
      </trkpt>
      <trkpt lat="43.04078" lon="42.72843">
        <ele>1429.98523</ele>
        <time>2021-08-15T15:37:56.354Z</time>
      </trkpt>
      <trkpt lat="43.04079" lon="42.72884">
        <ele>1433.526164</ele>
        <time>2021-08-15T15:38:21.253Z</time>
      </trkpt>
      <trkpt lat="43.04072" lon="42.72913">
        <ele>1436.062453</ele>
        <time>2021-08-15T15:38:38.298Z</time>
      </trkpt>
      <trkpt lat="43.04061" lon="42.72951">
        <ele>1439.594291</ele>
        <time>2021-08-15T15:39:05.554Z</time>
      </trkpt>
      <trkpt lat="43.04042" lon="42.73009">
        <ele>1444.973917</ele>
        <time>2021-08-15T15:39:45.781Z</time>
      </trkpt>
      <trkpt lat="43.04037" lon="42.73033">
        <ele>1447.077524</ele>
        <time>2021-08-15T15:40:03.988Z</time>
      </trkpt>
      <trkpt lat="43.04031" lon="42.73065">
        <ele>1449.581233</ele>
        <time>2021-08-15T15:40:24.272Z</time>
      </trkpt>
      <trkpt lat="43.0403" lon="42.73095">
        <ele>1451.929312</ele>
        <time>2021-08-15T15:40:43.617Z</time>
      </trkpt>
      <trkpt lat="43.04032" lon="42.73132">
        <ele>1454.831897</ele>
        <time>2021-08-15T15:41:08.596Z</time>
      </trkpt>
      <trkpt lat="43.04036" lon="42.73177">
        <ele>1458.350798</ele>
        <time>2021-08-15T15:41:34.497Z</time>
      </trkpt>
      <trkpt lat="43.04054" lon="42.73402">
        <ele>1471.299518</ele>
        <time>2021-08-15T15:43:10.152Z</time>
      </trkpt>
      <trkpt lat="43.04039" lon="42.73495">
        <ele>1475.424715</ele>
        <time>2021-08-15T15:43:39.348Z</time>
      </trkpt>
      <trkpt lat="43.04031" lon="42.73605">
        <ele>1479.880985</ele>
        <time>2021-08-15T15:44:19.054Z</time>
      </trkpt>
      <trkpt lat="43.04031" lon="42.73632">
        <ele>1480.970247</ele>
        <time>2021-08-15T15:44:29.298Z</time>
      </trkpt>
      <trkpt lat="43.04037" lon="42.73662">
        <ele>1482.215832</ele>
        <time>2021-08-15T15:44:40.228Z</time>
      </trkpt>
      <trkpt lat="43.04047" lon="42.73709">
        <ele>1484.192966</ele>
        <time>2021-08-15T15:44:58.562Z</time>
      </trkpt>
      <trkpt lat="43.04049" lon="42.73734">
        <ele>1485.179159</ele>
        <time>2021-08-15T15:45:08.583Z</time>
      </trkpt>
      <trkpt lat="43.0405" lon="42.73775">
        <ele>1486.87391</ele>
        <time>2021-08-15T15:45:23.692Z</time>
      </trkpt>
      <trkpt lat="43.04034" lon="42.74022">
        <ele>1497.672741</ele>
        <time>2021-08-15T15:46:56.645Z</time>
      </trkpt>
      <trkpt lat="43.04024" lon="42.74069">
        <ele>1500.219833</ele>
        <time>2021-08-15T15:47:15.266Z</time>
      </trkpt>
      <trkpt lat="43.04017" lon="42.74149">
        <ele>1504.416352</ele>
        <time>2021-08-15T15:47:48.153Z</time>
      </trkpt>
      <trkpt lat="43.04013" lon="42.74175">
        <ele>1505.762082</ele>
        <time>2021-08-15T15:47:59.593Z</time>
      </trkpt>
      <trkpt lat="43.0399" lon="42.74232">
        <ele>1509.142535</ele>
        <time>2021-08-15T15:48:30.114Z</time>
      </trkpt>
      <trkpt lat="43.03975" lon="42.7433">
        <ele>1515.825053</ele>
        <time>2021-08-15T15:49:21.183Z</time>
      </trkpt>
      <trkpt lat="43.03968" lon="42.74405">
        <ele>1520.845548</ele>
        <time>2021-08-15T15:50:00.274Z</time>
      </trkpt>
      <trkpt lat="43.03955" lon="42.74459">
        <ele>1524.627611</ele>
        <time>2021-08-15T15:50:29.028Z</time>
      </trkpt>
      <trkpt lat="43.03923" lon="42.74529">
        <ele>1528.083007</ele>
        <time>2021-08-15T15:51:07.038Z</time>
      </trkpt>
      <trkpt lat="43.03921" lon="42.74562">
        <ele>1529.325318</ele>
        <time>2021-08-15T15:51:21.328Z</time>
      </trkpt>
      <trkpt lat="43.03926" lon="42.74608">
        <ele>1531.016694</ele>
        <time>2021-08-15T15:51:38.830Z</time>
      </trkpt>
      <trkpt lat="43.0394" lon="42.74649">
        <ele>1532.674108</ele>
        <time>2021-08-15T15:51:52.017Z</time>
      </trkpt>
      <trkpt lat="43.03963" lon="42.74812">
        <ele>1533.628402</ele>
        <time>2021-08-15T15:52:19.943Z</time>
      </trkpt>
      <trkpt lat="43.03967" lon="42.74833">
        <ele>1533.431706</ele>
        <time>2021-08-15T15:52:22.695Z</time>
      </trkpt>
      <trkpt lat="43.03974" lon="42.74885">
        <ele>1532.950171</ele>
        <time>2021-08-15T15:52:29.609Z</time>
      </trkpt>
      <trkpt lat="43.03985" lon="42.74933">
        <ele>1532.496398</ele>
        <time>2021-08-15T15:52:36.033Z</time>
      </trkpt>
      <trkpt lat="43.03998" lon="42.74963">
        <ele>1531.931759</ele>
        <time>2021-08-15T15:52:40.507Z</time>
      </trkpt>
      <trkpt lat="43.0402" lon="42.74996">
        <ele>1531.10714</ele>
        <time>2021-08-15T15:52:46.221Z</time>
      </trkpt>
      <trkpt lat="43.04099" lon="42.75093">
        <ele>1528.427307</ele>
        <time>2021-08-15T15:53:05.314Z</time>
      </trkpt>
      <trkpt lat="43.04113" lon="42.75129">
        <ele>1527.553753</ele>
        <time>2021-08-15T15:53:10.602Z</time>
      </trkpt>
      <trkpt lat="43.04119" lon="42.75168">
        <ele>1526.314693</ele>
        <time>2021-08-15T15:53:15.758Z</time>
      </trkpt>
      <trkpt lat="43.04114" lon="42.75232">
        <ele>1524.298626</ele>
        <time>2021-08-15T15:53:23.853Z</time>
      </trkpt>
      <trkpt lat="43.04116" lon="42.75275">
        <ele>1522.986322</ele>
        <time>2021-08-15T15:53:28.930Z</time>
      </trkpt>
      <trkpt lat="43.04128" lon="42.75314">
        <ele>1521.679138</ele>
        <time>2021-08-15T15:53:33.822Z</time>
      </trkpt>
      <trkpt lat="43.04184" lon="42.75395">
        <ele>1516.877712</ele>
        <time>2021-08-15T15:53:46.355Z</time>
      </trkpt>
      <trkpt lat="43.04188" lon="42.75418">
        <ele>1515.705343</ele>
        <time>2021-08-15T15:53:48.878Z</time>
      </trkpt>
      <trkpt lat="43.04169" lon="42.75485">
        <ele>1512.05131</ele>
        <time>2021-08-15T15:53:56.751Z</time>
      </trkpt>
      <trkpt lat="43.04105" lon="42.7563">
        <ele>1503.618439</ele>
        <time>2021-08-15T15:54:15.244Z</time>
      </trkpt>
      <trkpt lat="43.04096" lon="42.75667">
        <ele>1501.668084</ele>
        <time>2021-08-15T15:54:19.658Z</time>
      </trkpt>
      <trkpt lat="43.04095" lon="42.75722">
        <ele>1499.004496</ele>
        <time>2021-08-15T15:54:25.691Z</time>
      </trkpt>
      <trkpt lat="43.041" lon="42.75754">
        <ele>1497.370574</ele>
        <time>2021-08-15T15:54:29.392Z</time>
      </trkpt>
      <trkpt lat="43.04123" lon="42.75816">
        <ele>1494.095839</ele>
        <time>2021-08-15T15:54:37.099Z</time>
      </trkpt>
      <trkpt lat="43.04127" lon="42.75856">
        <ele>1492.235864</ele>
        <time>2021-08-15T15:54:41.698Z</time>
      </trkpt>
      <trkpt lat="43.04123" lon="42.75995">
        <ele>1485.963567</ele>
        <time>2021-08-15T15:54:57.180Z</time>
      </trkpt>
      <trkpt lat="43.04114" lon="42.76037">
        <ele>1484.170458</ele>
        <time>2021-08-15T15:55:02.240Z</time>
      </trkpt>
      <trkpt lat="43.04134" lon="42.76145">
        <ele>1481.035672</ele>
        <time>2021-08-15T15:55:15.115Z</time>
      </trkpt>
      <trkpt lat="43.04147" lon="42.76302">
        <ele>1477.911922</ele>
        <time>2021-08-15T15:55:35.583Z</time>
      </trkpt>
      <trkpt lat="43.0416" lon="42.76382">
        <ele>1478.612069</ele>
        <time>2021-08-15T15:55:49.163Z</time>
      </trkpt>
      <trkpt lat="43.04166" lon="42.76415">
        <ele>1478.90918</ele>
        <time>2021-08-15T15:55:56.738Z</time>
      </trkpt>
      <trkpt lat="43.04178" lon="42.76476">
        <ele>1479.452817</ele>
        <time>2021-08-15T15:56:11.892Z</time>
      </trkpt>
      <trkpt lat="43.04208" lon="42.7679">
        <ele>1490.9686</ele>
        <time>2021-08-15T15:58:05.629Z</time>
      </trkpt>
      <trkpt lat="43.04228" lon="42.76882">
        <ele>1495.426343</ele>
        <time>2021-08-15T15:58:46.164Z</time>
      </trkpt>
      <trkpt lat="43.0423" lon="42.76933">
        <ele>1497.776334</ele>
        <time>2021-08-15T15:59:07.156Z</time>
      </trkpt>
      <trkpt lat="43.04242" lon="42.76989">
        <ele>1500.51669</ele>
        <time>2021-08-15T15:59:30.930Z</time>
      </trkpt>
      <trkpt lat="43.04242" lon="42.77051">
        <ele>1502.075948</ele>
        <time>2021-08-15T15:59:53.755Z</time>
      </trkpt>
      <trkpt lat="43.04258" lon="42.77113">
        <ele>1503.712151</ele>
        <time>2021-08-15T16:00:13.902Z</time>
      </trkpt>
      <trkpt lat="43.04271" lon="42.77193">
        <ele>1505.77483</ele>
        <time>2021-08-15T16:00:34.474Z</time>
      </trkpt>
      <trkpt lat="43.04313" lon="42.77367">
        <ele>1507.013607</ele>
        <time>2021-08-15T16:01:08.465Z</time>
      </trkpt>
      <trkpt lat="43.04345" lon="42.77444">
        <ele>1507.204816</ele>
        <time>2021-08-15T16:01:22.304Z</time>
      </trkpt>
      <trkpt lat="43.04388" lon="42.77581">
        <ele>1506.400634</ele>
        <time>2021-08-15T16:01:45.141Z</time>
      </trkpt>
      <trkpt lat="43.04409" lon="42.77743">
        <ele>1504.899032</ele>
        <time>2021-08-15T16:02:08.724Z</time>
      </trkpt>
      <trkpt lat="43.04425" lon="42.77991">
        <ele>1500.698918</ele>
        <time>2021-08-15T16:02:41.412Z</time>
      </trkpt>
      <trkpt lat="43.04443" lon="42.78142">
        <ele>1497.38168</ele>
        <time>2021-08-15T16:03:00.339Z</time>
      </trkpt>
      <trkpt lat="43.04455" lon="42.78179">
        <ele>1496.558852</ele>
        <time>2021-08-15T16:03:05.507Z</time>
      </trkpt>
      <trkpt lat="43.04501" lon="42.78283">
        <ele>1495.319371</ele>
        <time>2021-08-15T16:03:21.197Z</time>
      </trkpt>
      <trkpt lat="43.04505" lon="42.78327">
        <ele>1494.870283</ele>
        <time>2021-08-15T16:03:27.523Z</time>
      </trkpt>
      <trkpt lat="43.04502" lon="42.78435">
        <ele>1494.485615</ele>
        <time>2021-08-15T16:03:46.617Z</time>
      </trkpt>
      <trkpt lat="43.04505" lon="42.78473">
        <ele>1494.92886</ele>
        <time>2021-08-15T16:03:54.657Z</time>
      </trkpt>
      <trkpt lat="43.04515" lon="42.78501">
        <ele>1495.300771</ele>
        <time>2021-08-15T16:04:01.838Z</time>
      </trkpt>
      <trkpt lat="43.04539" lon="42.78538">
        <ele>1495.86693</ele>
        <time>2021-08-15T16:04:13.191Z</time>
      </trkpt>
      <trkpt lat="43.04554" lon="42.7859">
        <ele>1496.51897</ele>
        <time>2021-08-15T16:04:26.941Z</time>
      </trkpt>
      <trkpt lat="43.0456" lon="42.78778">
        <ele>1498.956257</ele>
        <time>2021-08-15T16:05:12.287Z</time>
      </trkpt>
      <trkpt lat="43.04566" lon="42.78805">
        <ele>1499.327771</ele>
        <time>2021-08-15T16:05:18.251Z</time>
      </trkpt>
      <trkpt lat="43.04601" lon="42.78877">
        <ele>1500.467619</ele>
        <time>2021-08-15T16:05:36.334Z</time>
      </trkpt>
      <trkpt lat="43.04633" lon="42.79006">
        <ele>1502.174287</ele>
        <time>2021-08-15T16:06:05.923Z</time>
      </trkpt>
      <trkpt lat="43.04637" lon="42.79042">
        <ele>1502.630458</ele>
        <time>2021-08-15T16:06:14.213Z</time>
      </trkpt>
      <trkpt lat="43.04629" lon="42.79097">
        <ele>1503.340689</ele>
        <time>2021-08-15T16:06:27.700Z</time>
      </trkpt>
      <trkpt lat="43.04607" lon="42.79151">
        <ele>1504.466165</ele>
        <time>2021-08-15T16:06:43.684Z</time>
      </trkpt>
      <trkpt lat="43.04595" lon="42.79234">
        <ele>1506.006947</ele>
        <time>2021-08-15T16:07:06.116Z</time>
      </trkpt>
      <trkpt lat="43.04592" lon="42.79315">
        <ele>1507.480103</ele>
        <time>2021-08-15T16:07:26.519Z</time>
      </trkpt>
      <trkpt lat="43.04597" lon="42.79356">
        <ele>1508.195283</ele>
        <time>2021-08-15T16:07:36.731Z</time>
      </trkpt>
      <trkpt lat="43.04599" lon="42.79375">
        <ele>1508.522183</ele>
        <time>2021-08-15T16:07:41.665Z</time>
      </trkpt>
      <trkpt lat="43.04605" lon="42.79399">
        <ele>1508.937498</ele>
        <time>2021-08-15T16:07:47.806Z</time>
      </trkpt>
      <trkpt lat="43.04618" lon="42.79448">
        <ele>1509.790413</ele>
        <time>2021-08-15T16:08:01.081Z</time>
      </trkpt>
      <trkpt lat="43.04635" lon="42.79489">
        <ele>1510.556736</ele>
        <time>2021-08-15T16:08:12.933Z</time>
      </trkpt>
      <trkpt lat="43.04686" lon="42.79549">
        <ele>1512.030245</ele>
        <time>2021-08-15T16:08:34.600Z</time>
      </trkpt>
      <trkpt lat="43.04693" lon="42.79565">
        <ele>1512.276334</ele>
        <time>2021-08-15T16:08:38.886Z</time>
      </trkpt>
      <trkpt lat="43.04699" lon="42.79628">
        <ele>1513.090831</ele>
        <time>2021-08-15T16:08:53.057Z</time>
      </trkpt>
      <trkpt lat="43.04694" lon="42.79651">
        <ele>1513.403406</ele>
        <time>2021-08-15T16:08:58.554Z</time>
      </trkpt>
      <trkpt lat="43.0466" lon="42.79705">
        <ele>1514.321371</ele>
        <time>2021-08-15T16:09:15.700Z</time>
      </trkpt>
      <trkpt lat="43.04647" lon="42.79746">
        <ele>1514.900032</ele>
        <time>2021-08-15T16:09:25.838Z</time>
      </trkpt>
      <trkpt lat="43.04639" lon="42.79812">
        <ele>1515.53298</ele>
        <time>2021-08-15T16:09:39.319Z</time>
      </trkpt>
      <trkpt lat="43.0464" lon="42.79872">
        <ele>1516.065881</ele>
        <time>2021-08-15T16:09:50.506Z</time>
      </trkpt>
      <trkpt lat="43.04635" lon="42.79907">
        <ele>1516.38898</ele>
        <time>2021-08-15T16:09:57.532Z</time>
      </trkpt>
      <trkpt lat="43.04626" lon="42.79933">
        <ele>1516.6353</ele>
        <time>2021-08-15T16:10:03.046Z</time>
      </trkpt>
      <trkpt lat="43.04597" lon="42.7998">
        <ele>1517.190912</ele>
        <time>2021-08-15T16:10:16.715Z</time>
      </trkpt>
      <trkpt lat="43.04551" lon="42.80035">
        <ele>1517.217031</ele>
        <time>2021-08-15T16:10:36.294Z</time>
      </trkpt>
      <trkpt lat="43.04533" lon="42.8007">
        <ele>1517.217804</ele>
        <time>2021-08-15T16:10:43.814Z</time>
      </trkpt>
      <trkpt lat="43.04522" lon="42.80136">
        <ele>1517.219048</ele>
        <time>2021-08-15T16:10:53.161Z</time>
      </trkpt>
      <trkpt lat="43.04504" lon="42.80184">
        <ele>1517.220057</ele>
        <time>2021-08-15T16:11:01.632Z</time>
      </trkpt>
      <trkpt lat="43.04501" lon="42.80199">
        <ele>1516.980388</ele>
        <time>2021-08-15T16:11:04.009Z</time>
      </trkpt>
      <trkpt lat="43.04505" lon="42.80226">
        <ele>1516.492616</ele>
        <time>2021-08-15T16:11:07.513Z</time>
      </trkpt>
      <trkpt lat="43.04513" lon="42.80233">
        <ele>1516.267893</ele>
        <time>2021-08-15T16:11:11.396Z</time>
      </trkpt>
      <trkpt lat="43.04539" lon="42.80238">
        <ele>1515.650555</ele>
        <time>2021-08-15T16:11:15.683Z</time>
      </trkpt>
      <trkpt lat="43.04543" lon="42.80241">
        <ele>1515.535343</ele>
        <time>2021-08-15T16:11:17.493Z</time>
      </trkpt>
      <trkpt lat="43.04552" lon="42.80262">
        <ele>1515.119503</ele>
        <time>2021-08-15T16:11:20.656Z</time>
      </trkpt>
      <trkpt lat="43.04559" lon="42.8034">
        <ele>1513.760225</ele>
        <time>2021-08-15T16:11:30.642Z</time>
      </trkpt>
      <trkpt lat="43.0459" lon="42.80495">
        <ele>1510.846036</ele>
        <time>2021-08-15T16:11:50.502Z</time>
      </trkpt>
      <trkpt lat="43.04632" lon="42.80599">
        <ele>1508.642007</ele>
        <time>2021-08-15T16:12:06.633Z</time>
      </trkpt>
      <trkpt lat="43.04654" lon="42.80636">
        <ele>1508.373493</ele>
        <time>2021-08-15T16:12:13.172Z</time>
      </trkpt>
      <trkpt lat="43.04674" lon="42.80713">
        <ele>1508.293866</ele>
        <time>2021-08-15T16:12:25.143Z</time>
      </trkpt>
      <trkpt lat="43.04689" lon="42.80805">
        <ele>1508.201535</ele>
        <time>2021-08-15T16:12:41.367Z</time>
      </trkpt>
      <trkpt lat="43.04688" lon="42.80876">
        <ele>1508.950589</ele>
        <time>2021-08-15T16:12:57.089Z</time>
      </trkpt>
      <trkpt lat="43.04695" lon="42.80954">
        <ele>1510.675432</ele>
        <time>2021-08-15T16:13:17.477Z</time>
      </trkpt>
      <trkpt lat="43.04676" lon="42.8106">
        <ele>1513.082714</ele>
        <time>2021-08-15T16:13:50.333Z</time>
      </trkpt>
      <trkpt lat="43.04647" lon="42.81137">
        <ele>1515.369417</ele>
        <time>2021-08-15T16:14:17.656Z</time>
      </trkpt>
      <trkpt lat="43.0464" lon="42.81229">
        <ele>1517.990816</ele>
        <time>2021-08-15T16:14:46.857Z</time>
      </trkpt>
      <trkpt lat="43.04631" lon="42.8132">
        <ele>1520.547279</ele>
        <time>2021-08-15T16:15:13.957Z</time>
      </trkpt>
      <trkpt lat="43.04625" lon="42.8139">
        <ele>1521.846234</ele>
        <time>2021-08-15T16:15:33.415Z</time>
      </trkpt>
      <trkpt lat="43.04601" lon="42.81517">
        <ele>1524.264101</ele>
        <time>2021-08-15T16:16:06.601Z</time>
      </trkpt>
      <trkpt lat="43.04601" lon="42.81678">
        <ele>1526.230121</ele>
        <time>2021-08-15T16:16:41.547Z</time>
      </trkpt>
      <trkpt lat="43.04594" lon="42.81717">
        <ele>1526.631379</ele>
        <time>2021-08-15T16:16:50.544Z</time>
      </trkpt>
      <trkpt lat="43.04563" lon="42.81821">
        <ele>1527.908279</ele>
        <time>2021-08-15T16:17:13.134Z</time>
      </trkpt>
      <trkpt lat="43.04551" lon="42.81844">
        <ele>1528.384577</ele>
        <time>2021-08-15T16:17:18.097Z</time>
      </trkpt>
      <trkpt lat="43.04543" lon="42.81849">
        <ele>1528.582487</ele>
        <time>2021-08-15T16:17:20.293Z</time>
      </trkpt>
      <trkpt lat="43.04534" lon="42.81848">
        <ele>1528.787804</ele>
        <time>2021-08-15T16:17:22.279Z</time>
      </trkpt>
      <trkpt lat="43.045" lon="42.81844">
        <ele>1529.543856</ele>
        <time>2021-08-15T16:17:32.309Z</time>
      </trkpt>
      <trkpt lat="43.04488" lon="42.81852">
        <ele>1529.844406</ele>
        <time>2021-08-15T16:17:36.567Z</time>
      </trkpt>
      <trkpt lat="43.04481" lon="42.81864">
        <ele>1530.097397</ele>
        <time>2021-08-15T16:17:40.589Z</time>
      </trkpt>
      <trkpt lat="43.0447" lon="42.81937">
        <ele>1531.32776</ele>
        <time>2021-08-15T16:18:01.717Z</time>
      </trkpt>
      <trkpt lat="43.04464" lon="42.81965">
        <ele>1532.266303</ele>
        <time>2021-08-15T16:18:11.120Z</time>
      </trkpt>
      <trkpt lat="43.04403" lon="42.82117">
        <ele>1539.885116</ele>
        <time>2021-08-15T16:19:15.963Z</time>
      </trkpt>
      <trkpt lat="43.04393" lon="42.82156">
        <ele>1541.715233</ele>
        <time>2021-08-15T16:19:33.742Z</time>
      </trkpt>
      <trkpt lat="43.04361" lon="42.82239">
        <ele>1547.300792</ele>
        <time>2021-08-15T16:20:18.600Z</time>
      </trkpt>
      <trkpt lat="43.04283" lon="42.82377">
        <ele>1558.123644</ele>
        <time>2021-08-15T16:21:42.395Z</time>
      </trkpt>
      <trkpt lat="43.04278" lon="42.82392">
        <ele>1559.179517</ele>
        <time>2021-08-15T16:21:52.051Z</time>
      </trkpt>
      <trkpt lat="43.04275" lon="42.82413">
        <ele>1560.449041</ele>
        <time>2021-08-15T16:22:01.258Z</time>
      </trkpt>
      <trkpt lat="43.04186" lon="42.82659">
        <ele>1577.251362</ele>
        <time>2021-08-15T16:24:08.739Z</time>
      </trkpt>
      <trkpt lat="43.04157" lon="42.82771">
        <ele>1584.547276</ele>
        <time>2021-08-15T16:25:02.921Z</time>
      </trkpt>
      <trkpt lat="43.04156" lon="42.8282">
        <ele>1587.529806</ele>
        <time>2021-08-15T16:25:26.566Z</time>
      </trkpt>
      <trkpt lat="43.04141" lon="42.82888">
        <ele>1592.604685</ele>
        <time>2021-08-15T16:26:02.251Z</time>
      </trkpt>
      <trkpt lat="43.04099" lon="42.83191">
        <ele>1615.254967</ele>
        <time>2021-08-15T16:28:49.385Z</time>
      </trkpt>
      <trkpt lat="43.04033" lon="42.83515">
        <ele>1639.675112</ele>
        <time>2021-08-15T16:31:47.321Z</time>
      </trkpt>
      <trkpt lat="43.04026" lon="42.83629">
        <ele>1646.847459</ele>
        <time>2021-08-15T16:32:43.254Z</time>
      </trkpt>
      <trkpt lat="43.04006" lon="42.83746">
        <ele>1654.043314</ele>
        <time>2021-08-15T16:33:38.544Z</time>
      </trkpt>
      <trkpt lat="43.03986" lon="42.8395">
        <ele>1664.232297</ele>
        <time>2021-08-15T16:35:02.801Z</time>
      </trkpt>
      <trkpt lat="43.03985" lon="42.83998">
        <ele>1666.52035</ele>
        <time>2021-08-15T16:35:21.091Z</time>
      </trkpt>
      <trkpt lat="43.03971" lon="42.84048">
        <ele>1668.967839</ele>
        <time>2021-08-15T16:35:40.982Z</time>
      </trkpt>
      <trkpt lat="43.03971" lon="42.84075">
        <ele>1670.118255</ele>
        <time>2021-08-15T16:35:50.729Z</time>
      </trkpt>
      <trkpt lat="43.03991" lon="42.8416">
        <ele>1673.930506</ele>
        <time>2021-08-15T16:36:22.896Z</time>
      </trkpt>
      <trkpt lat="43.03989" lon="42.84219">
        <ele>1676.488812</ele>
        <time>2021-08-15T16:36:44.926Z</time>
      </trkpt>
      <trkpt lat="43.03975" lon="42.84312">
        <ele>1681.378499</ele>
        <time>2021-08-15T16:37:22.624Z</time>
      </trkpt>
      <trkpt lat="43.03955" lon="42.84379">
        <ele>1685.736095</ele>
        <time>2021-08-15T16:37:56.407Z</time>
      </trkpt>
      <trkpt lat="43.03926" lon="42.84438">
        <ele>1690.075186</ele>
        <time>2021-08-15T16:38:30.386Z</time>
      </trkpt>
      <trkpt lat="43.03916" lon="42.84477">
        <ele>1692.527727</ele>
        <time>2021-08-15T16:38:50.485Z</time>
      </trkpt>
      <trkpt lat="43.03911" lon="42.84506">
        <ele>1694.756478</ele>
        <time>2021-08-15T16:39:07.267Z</time>
      </trkpt>
      <trkpt lat="43.03906" lon="42.84484">
        <ele>1696.801855</ele>
        <time>2021-08-15T16:39:21.329Z</time>
      </trkpt>
      <trkpt lat="43.03909" lon="42.84385">
        <ele>1705.338362</ele>
        <time>2021-08-15T16:40:25.991Z</time>
      </trkpt>
      <trkpt lat="43.03898" lon="42.84343">
        <ele>1709.177593</ele>
        <time>2021-08-15T16:41:00.618Z</time>
      </trkpt>
      <trkpt lat="43.03862" lon="42.84303">
        <ele>1714.671767</ele>
        <time>2021-08-15T16:41:51.990Z</time>
      </trkpt>
      <trkpt lat="43.03835" lon="42.84257">
        <ele>1720.978514</ele>
        <time>2021-08-15T16:42:37.640Z</time>
      </trkpt>
      <trkpt lat="43.03828" lon="42.84205">
        <ele>1726.648237</ele>
        <time>2021-08-15T16:43:19.883Z</time>
      </trkpt>
      <trkpt lat="43.03824" lon="42.84183">
        <ele>1729.013914</ele>
        <time>2021-08-15T16:43:40.024Z</time>
      </trkpt>
      <trkpt lat="43.03827" lon="42.84162">
        <ele>1731.326961</ele>
        <time>2021-08-15T16:43:54.409Z</time>
      </trkpt>
      <trkpt lat="43.0382" lon="42.84097">
        <ele>1738.352119</ele>
        <time>2021-08-15T16:44:41.974Z</time>
      </trkpt>
      <trkpt lat="43.03849" lon="42.83872">
        <ele>1761.374371</ele>
        <time>2021-08-15T16:47:17.017Z</time>
      </trkpt>
      <trkpt lat="43.03846" lon="42.83825">
        <ele>1766.078071</ele>
        <time>2021-08-15T16:47:46.465Z</time>
      </trkpt>
      <trkpt lat="43.0383" lon="42.83748">
        <ele>1772.42488</ele>
        <time>2021-08-15T16:48:33.671Z</time>
      </trkpt>
      <trkpt lat="43.03811" lon="42.83585">
        <ele>1785.628014</ele>
        <time>2021-08-15T16:50:04.865Z</time>
      </trkpt>
      <trkpt lat="43.03772" lon="42.83421">
        <ele>1796.222035</ele>
        <time>2021-08-15T16:51:27.436Z</time>
      </trkpt>
      <trkpt lat="43.03755" lon="42.8333">
        <ele>1801.925371</ele>
        <time>2021-08-15T16:52:05.931Z</time>
      </trkpt>
      <trkpt lat="43.03718" lon="42.83044">
        <ele>1820.299505</ele>
        <time>2021-08-15T16:54:18.553Z</time>
      </trkpt>
      <trkpt lat="43.03712" lon="42.83025">
        <ele>1821.958367</ele>
        <time>2021-08-15T16:54:30.368Z</time>
      </trkpt>
      <trkpt lat="43.03702" lon="42.83005">
        <ele>1823.892593</ele>
        <time>2021-08-15T16:54:44.122Z</time>
      </trkpt>
      <trkpt lat="43.03694" lon="42.83002">
        <ele>1824.804208</ele>
        <time>2021-08-15T16:54:53.765Z</time>
      </trkpt>
      <trkpt lat="43.03674" lon="42.82998">
        <ele>1827.03815</ele>
        <time>2021-08-15T16:55:12.657Z</time>
      </trkpt>
      <trkpt lat="43.03655" lon="42.82998">
        <ele>1829.141217</ele>
        <time>2021-08-15T16:55:32.427Z</time>
      </trkpt>
      <trkpt lat="43.03634" lon="42.83005">
        <ele>1831.570018</ele>
        <time>2021-08-15T16:55:52.295Z</time>
      </trkpt>
      <trkpt lat="43.03626" lon="42.83011">
        <ele>1832.496623</ele>
        <time>2021-08-15T16:56:03.516Z</time>
      </trkpt>
      <trkpt lat="43.03631" lon="42.83084">
        <ele>1838.284931</ele>
        <time>2021-08-15T16:56:48.590Z</time>
      </trkpt>
      <trkpt lat="43.03651" lon="42.83169">
        <ele>1845.252154</ele>
        <time>2021-08-15T16:57:45.100Z</time>
      </trkpt>
      <trkpt lat="43.03659" lon="42.83217">
        <ele>1849.035794</ele>
        <time>2021-08-15T16:58:12.234Z</time>
      </trkpt>
      <trkpt lat="43.03658" lon="42.83232">
        <ele>1850.202317</ele>
        <time>2021-08-15T16:58:18.030Z</time>
      </trkpt>
      <trkpt lat="43.03649" lon="42.83237">
        <ele>1851.239675</ele>
        <time>2021-08-15T16:58:23.217Z</time>
      </trkpt>
      <trkpt lat="43.03629" lon="42.83188">
        <ele>1854.569919</ele>
        <time>2021-08-15T16:58:47.382Z</time>
      </trkpt>
      <trkpt lat="43.03605" lon="42.83156">
        <ele>1856.116428</ele>
        <time>2021-08-15T16:59:03.352Z</time>
      </trkpt>
      <trkpt lat="43.03602" lon="42.83148">
        <ele>1856.436167</ele>
        <time>2021-08-15T16:59:08.937Z</time>
      </trkpt>
      <trkpt lat="43.03574" lon="42.83091">
        <ele>1858.776287</ele>
        <time>2021-08-15T16:59:30.946Z</time>
      </trkpt>
      <trkpt lat="43.03513" lon="42.82885">
        <ele>1864.404721</ele>
        <time>2021-08-15T17:00:30.642Z</time>
      </trkpt>
      <trkpt lat="43.03512" lon="42.82882">
        <ele>1864.46156</ele>
        <time>2021-08-15T17:00:31.398Z</time>
      </trkpt>
      <trkpt lat="43.03496" lon="42.82724">
        <ele>1867.768269</ele>
        <time>2021-08-15T17:01:07.399Z</time>
      </trkpt>
      <trkpt lat="43.03518" lon="42.82582">
        <ele>1871.974149</ele>
        <time>2021-08-15T17:01:51.681Z</time>
      </trkpt>
      <trkpt lat="43.03522" lon="42.82572">
        <ele>1872.286168</ele>
        <time>2021-08-15T17:01:55.932Z</time>
      </trkpt>
      <trkpt lat="43.03529" lon="42.82561">
        <ele>1872.71416</ele>
        <time>2021-08-15T17:02:01.342Z</time>
      </trkpt>
      <trkpt lat="43.03551" lon="42.82537">
        <ele>1873.886069</ele>
        <time>2021-08-15T17:02:14.894Z</time>
      </trkpt>
      <trkpt lat="43.03571" lon="42.82494">
        <ele>1876.601118</ele>
        <time>2021-08-15T17:02:35.267Z</time>
      </trkpt>
      <trkpt lat="43.03571" lon="42.82481">
        <ele>1877.286444</ele>
        <time>2021-08-15T17:02:40.670Z</time>
      </trkpt>
      <trkpt lat="43.0356" lon="42.82467">
        <ele>1878.335089</ele>
        <time>2021-08-15T17:02:48.488Z</time>
      </trkpt>
      <trkpt lat="43.03525" lon="42.8248">
        <ele>1880.895664</ele>
        <time>2021-08-15T17:03:10.065Z</time>
      </trkpt>
      <trkpt lat="43.03491" lon="42.82483">
        <ele>1883.30127</ele>
        <time>2021-08-15T17:03:31.140Z</time>
      </trkpt>
      <trkpt lat="43.03403" lon="42.82584">
        <ele>1892.06242</ele>
        <time>2021-08-15T17:04:42.783Z</time>
      </trkpt>
      <trkpt lat="43.03394" lon="42.82586">
        <ele>1892.827846</ele>
        <time>2021-08-15T17:04:48.941Z</time>
      </trkpt>
      <trkpt lat="43.03369" lon="42.82573">
        <ele>1894.945111</ele>
        <time>2021-08-15T17:05:05.214Z</time>
      </trkpt>
      <trkpt lat="43.03331" lon="42.82537">
        <ele>1898.655573</ele>
        <time>2021-08-15T17:05:33.398Z</time>
      </trkpt>
      <trkpt lat="43.03243" lon="42.82478">
        <ele>1906.275249</ele>
        <time>2021-08-15T17:06:35.007Z</time>
      </trkpt>
      <trkpt lat="43.0322" lon="42.82472">
        <ele>1908.139421</ele>
        <time>2021-08-15T17:06:50.570Z</time>
      </trkpt>
      <trkpt lat="43.03205" lon="42.82479">
        <ele>1909.375175</ele>
        <time>2021-08-15T17:07:00.653Z</time>
      </trkpt>
      <trkpt lat="43.03175" lon="42.82512">
        <ele>1912.364492</ele>
        <time>2021-08-15T17:07:23.946Z</time>
      </trkpt>
      <trkpt lat="43.03121" lon="42.82573">
        <ele>1915.748098</ele>
        <time>2021-08-15T17:08:04.768Z</time>
      </trkpt>
      <trkpt lat="43.03073" lon="42.82612">
        <ele>1917.069235</ele>
        <time>2021-08-15T17:08:28.495Z</time>
      </trkpt>
      <trkpt lat="43.03054" lon="42.82618">
        <ele>1917.530613</ele>
        <time>2021-08-15T17:08:35.101Z</time>
      </trkpt>
      <trkpt lat="43.03018" lon="42.82582">
        <ele>1918.588249</ele>
        <time>2021-08-15T17:08:44.361Z</time>
      </trkpt>
      <trkpt lat="43.03003" lon="42.82573">
        <ele>1918.957472</ele>
        <time>2021-08-15T17:08:47.534Z</time>
      </trkpt>
      <trkpt lat="43.02974" lon="42.82564">
        <ele>1917.573022</ele>
        <time>2021-08-15T17:08:52.523Z</time>
      </trkpt>
      <trkpt lat="43.02962" lon="42.82565">
        <ele>1916.785502</ele>
        <time>2021-08-15T17:08:54.589Z</time>
      </trkpt>
      <trkpt lat="43.02945" lon="42.82574">
        <ele>1915.677328</ele>
        <time>2021-08-15T17:08:57.264Z</time>
      </trkpt>
      <trkpt lat="43.02929" lon="42.8259">
        <ele>1914.452724</ele>
        <time>2021-08-15T17:09:00.385Z</time>
      </trkpt>
      <trkpt lat="43.02881" lon="42.82661">
        <ele>1909.982563</ele>
        <time>2021-08-15T17:09:10.920Z</time>
      </trkpt>
      <trkpt lat="43.02861" lon="42.82718">
        <ele>1906.889982</ele>
        <time>2021-08-15T17:09:17.500Z</time>
      </trkpt>
      <trkpt lat="43.02802" lon="42.82839">
        <ele>1898.20699</ele>
        <time>2021-08-15T17:09:33.285Z</time>
      </trkpt>
      <trkpt lat="43.02769" lon="42.82894">
        <ele>1894.006142</ele>
        <time>2021-08-15T17:09:40.893Z</time>
      </trkpt>
      <trkpt lat="43.02727" lon="42.82918">
        <ele>1890.390718</ele>
        <time>2021-08-15T17:09:47.596Z</time>
      </trkpt>
      <trkpt lat="43.02686" lon="42.82924">
        <ele>1887.19148</ele>
        <time>2021-08-15T17:09:53.563Z</time>
      </trkpt>
      <trkpt lat="43.02585" lon="42.82873">
        <ele>1878.908107</ele>
        <time>2021-08-15T17:10:09.472Z</time>
      </trkpt>
      <trkpt lat="43.02544" lon="42.8287">
        <ele>1876.762766</ele>
        <time>2021-08-15T17:10:15.615Z</time>
      </trkpt>
      <trkpt lat="43.02514" lon="42.82905">
        <ele>1874.669487</ele>
        <time>2021-08-15T17:10:21.772Z</time>
      </trkpt>
      <trkpt lat="43.02496" lon="42.83013">
        <ele>1870.375056</ele>
        <time>2021-08-15T17:10:34.926Z</time>
      </trkpt>
      <trkpt lat="43.02497" lon="42.83062">
        <ele>1868.615139</ele>
        <time>2021-08-15T17:10:40.958Z</time>
      </trkpt>
      <trkpt lat="43.0248" lon="42.83087">
        <ele>1867.431542</ele>
        <time>2021-08-15T17:10:45.243Z</time>
      </trkpt>
      <trkpt lat="43.0242" lon="42.8311">
        <ele>1864.527976</ele>
        <time>2021-08-15T17:10:55.446Z</time>
      </trkpt>
      <trkpt lat="43.02357" lon="42.83156">
        <ele>1861.160241</ele>
        <time>2021-08-15T17:11:06.649Z</time>
      </trkpt>
      <trkpt lat="43.02325" lon="42.83162">
        <ele>1858.680108</ele>
        <time>2021-08-15T17:11:11.573Z</time>
      </trkpt>
      <trkpt lat="43.02297" lon="42.83173">
        <ele>1856.454768</ele>
        <time>2021-08-15T17:11:15.930Z</time>
      </trkpt>
      <trkpt lat="43.02206" lon="42.83255">
        <ele>1848.160095</ele>
        <time>2021-08-15T17:11:31.831Z</time>
      </trkpt>
      <trkpt lat="43.02084" lon="42.8331">
        <ele>1837.61319</ele>
        <time>2021-08-15T17:11:50.439Z</time>
      </trkpt>
      <trkpt lat="43.02025" lon="42.83319">
        <ele>1832.716275</ele>
        <time>2021-08-15T17:11:59.100Z</time>
      </trkpt>
      <trkpt lat="43.01943" lon="42.83308">
        <ele>1827.609543</ele>
        <time>2021-08-15T17:12:11.424Z</time>
      </trkpt>
      <trkpt lat="43.01854" lon="42.83299">
        <ele>1822.125697</ele>
        <time>2021-08-15T17:12:25.392Z</time>
      </trkpt>
      <trkpt lat="43.01849" lon="42.83284">
        <ele>1821.45892</ele>
        <time>2021-08-15T17:12:27.332Z</time>
      </trkpt>
      <trkpt lat="43.01857" lon="42.83277">
        <ele>1821.061641</ele>
        <time>2021-08-15T17:12:28.924Z</time>
      </trkpt>
      <trkpt lat="43.01898" lon="42.83284">
        <ele>1819.322603</ele>
        <time>2021-08-15T17:12:35.823Z</time>
      </trkpt>
      <trkpt lat="43.01993" lon="42.83285">
        <ele>1815.397416</ele>
        <time>2021-08-15T17:12:51.645Z</time>
      </trkpt>
      <trkpt lat="43.02016" lon="42.83278">
        <ele>1814.427883</ele>
        <time>2021-08-15T17:12:55.524Z</time>
      </trkpt>
      <trkpt lat="43.02073" lon="42.83238">
        <ele>1810.88412</ele>
        <time>2021-08-15T17:13:05.660Z</time>
      </trkpt>
      <trkpt lat="43.02082" lon="42.83225">
        <ele>1810.154708</ele>
        <time>2021-08-15T17:13:07.643Z</time>
      </trkpt>
      <trkpt lat="43.02089" lon="42.83169">
        <ele>1807.758193</ele>
        <time>2021-08-15T17:13:14.115Z</time>
      </trkpt>
      <trkpt lat="43.02086" lon="42.83117">
        <ele>1805.585936</ele>
        <time>2021-08-15T17:13:19.952Z</time>
      </trkpt>
      <trkpt lat="43.02081" lon="42.83097">
        <ele>1804.729352</ele>
        <time>2021-08-15T17:13:22.246Z</time>
      </trkpt>
      <trkpt lat="43.0207" lon="42.83094">
        <ele>1804.080055</ele>
        <time>2021-08-15T17:13:23.977Z</time>
      </trkpt>
      <trkpt lat="43.0206" lon="42.83133">
        <ele>1802.390672</ele>
        <time>2021-08-15T17:13:28.622Z</time>
      </trkpt>
      <trkpt lat="43.02036" lon="42.83164">
        <ele>1800.577685</ele>
        <time>2021-08-15T17:13:33.656Z</time>
      </trkpt>
      <trkpt lat="43.02023" lon="42.83171">
        <ele>1799.792708</ele>
        <time>2021-08-15T17:13:35.820Z</time>
      </trkpt>
      <trkpt lat="43.01968" lon="42.83164">
        <ele>1796.763001</ele>
        <time>2021-08-15T17:13:44.279Z</time>
      </trkpt>
      <trkpt lat="43.01953" lon="42.8317">
        <ele>1795.88117</ele>
        <time>2021-08-15T17:13:46.797Z</time>
      </trkpt>
      <trkpt lat="43.01923" lon="42.83206">
        <ele>1793.644319</ele>
        <time>2021-08-15T17:13:53.276Z</time>
      </trkpt>
      <trkpt lat="43.01908" lon="42.83213">
        <ele>1792.639654</ele>
        <time>2021-08-15T17:13:55.899Z</time>
      </trkpt>
      <trkpt lat="43.01867" lon="42.83192">
        <ele>1789.857447</ele>
        <time>2021-08-15T17:14:02.948Z</time>
      </trkpt>
      <trkpt lat="43.0178" lon="42.83128">
        <ele>1783.605469</ele>
        <time>2021-08-15T17:14:17.935Z</time>
      </trkpt>
      <trkpt lat="43.01746" lon="42.8311">
        <ele>1780.417259</ele>
        <time>2021-08-15T17:14:23.148Z</time>
      </trkpt>
      <trkpt lat="43.01743" lon="42.83098">
        <ele>1779.41612</ele>
        <time>2021-08-15T17:14:24.436Z</time>
      </trkpt>
      <trkpt lat="43.01749" lon="42.83093">
        <ele>1778.578969</ele>
        <time>2021-08-15T17:14:25.515Z</time>
      </trkpt>
      <trkpt lat="43.01811" lon="42.83134">
        <ele>1771.002316</ele>
        <time>2021-08-15T17:14:35.184Z</time>
      </trkpt>
      <trkpt lat="43.01837" lon="42.83142">
        <ele>1767.992506</ele>
        <time>2021-08-15T17:14:38.936Z</time>
      </trkpt>
      <trkpt lat="43.01856" lon="42.83142">
        <ele>1765.897687</ele>
        <time>2021-08-15T17:14:41.521Z</time>
      </trkpt>
      <trkpt lat="43.0188" lon="42.83132">
        <ele>1763.149537</ele>
        <time>2021-08-15T17:14:44.882Z</time>
      </trkpt>
      <trkpt lat="43.01902" lon="42.83091">
        <ele>1758.880951</ele>
        <time>2021-08-15T17:14:49.959Z</time>
      </trkpt>
      <trkpt lat="43.01911" lon="42.83057">
        <ele>1755.851882</ele>
        <time>2021-08-15T17:14:53.549Z</time>
      </trkpt>
      <trkpt lat="43.01913" lon="42.83039">
        <ele>1754.368985</ele>
        <time>2021-08-15T17:14:55.308Z</time>
      </trkpt>
      <trkpt lat="43.01899" lon="42.82988">
        <ele>1749.748597</ele>
        <time>2021-08-15T17:15:00.869Z</time>
      </trkpt>
      <trkpt lat="43.019" lon="42.8295">
        <ele>1746.582014</ele>
        <time>2021-08-15T17:15:04.752Z</time>
      </trkpt>
      <trkpt lat="43.01948" lon="42.82897">
        <ele>1740.745463</ele>
        <time>2021-08-15T17:15:13.838Z</time>
      </trkpt>
      <trkpt lat="43.01948" lon="42.82882">
        <ele>1740.154494</ele>
        <time>2021-08-15T17:15:15.434Z</time>
      </trkpt>
      <trkpt lat="43.01943" lon="42.8288">
        <ele>1739.860587</ele>
        <time>2021-08-15T17:15:16.236Z</time>
      </trkpt>
      <trkpt lat="43.01891" lon="42.82921">
        <ele>1736.577915</ele>
        <time>2021-08-15T17:15:25.471Z</time>
      </trkpt>
      <trkpt lat="43.01884" lon="42.82932">
        <ele>1736.020235</ele>
        <time>2021-08-15T17:15:27.096Z</time>
      </trkpt>
      <trkpt lat="43.01878" lon="42.83008">
        <ele>1732.971755</ele>
        <time>2021-08-15T17:15:36.803Z</time>
      </trkpt>
      <trkpt lat="43.01871" lon="42.83034">
        <ele>1731.817026</ele>
        <time>2021-08-15T17:15:40.350Z</time>
      </trkpt>
      <trkpt lat="43.01858" lon="42.83046">
        <ele>1730.799632</ele>
        <time>2021-08-15T17:15:43.274Z</time>
      </trkpt>
      <trkpt lat="43.01843" lon="42.83046">
        <ele>1729.870305</ele>
        <time>2021-08-15T17:15:45.747Z</time>
      </trkpt>
      <trkpt lat="43.01782" lon="42.82997">
        <ele>1725.498425</ele>
        <time>2021-08-15T17:15:56.687Z</time>
      </trkpt>
      <trkpt lat="43.0177" lon="42.82958">
        <ele>1723.535872</ele>
        <time>2021-08-15T17:16:01.358Z</time>
      </trkpt>
      <trkpt lat="43.01746" lon="42.82924">
        <ele>1721.375397</ele>
        <time>2021-08-15T17:16:06.371Z</time>
      </trkpt>
      <trkpt lat="43.01729" lon="42.82916">
        <ele>1720.024213</ele>
        <time>2021-08-15T17:16:08.836Z</time>
      </trkpt>
      <trkpt lat="43.01692" lon="42.8293">
        <ele>1716.517621</ele>
        <time>2021-08-15T17:16:14.331Z</time>
      </trkpt>
      <trkpt lat="43.01601" lon="42.82931">
        <ele>1708.156978</ele>
        <time>2021-08-15T17:16:27.325Z</time>
      </trkpt>
      <trkpt lat="43.01591" lon="42.8292">
        <ele>1706.994336</ele>
        <time>2021-08-15T17:16:29.123Z</time>
      </trkpt>
      <trkpt lat="43.01595" lon="42.8291">
        <ele>1706.223368</ele>
        <time>2021-08-15T17:16:30.339Z</time>
      </trkpt>
      <trkpt lat="43.01649" lon="42.82911">
        <ele>1702.072721</ele>
        <time>2021-08-15T17:16:38.147Z</time>
      </trkpt>
      <trkpt lat="43.01663" lon="42.82903">
        <ele>1700.976951</ele>
        <time>2021-08-15T17:16:40.460Z</time>
      </trkpt>
      <trkpt lat="43.01708" lon="42.82855">
        <ele>1697.041746</ele>
        <time>2021-08-15T17:16:48.976Z</time>
      </trkpt>
      <trkpt lat="43.01759" lon="42.82841">
        <ele>1693.363173</ele>
        <time>2021-08-15T17:16:57.044Z</time>
      </trkpt>
      <trkpt lat="43.01809" lon="42.82854">
        <ele>1689.711256</ele>
        <time>2021-08-15T17:17:04.753Z</time>
      </trkpt>
      <trkpt lat="43.01821" lon="42.82843">
        <ele>1688.598595</ele>
        <time>2021-08-15T17:17:06.990Z</time>
      </trkpt>
      <trkpt lat="43.01841" lon="42.82797">
        <ele>1685.696075</ele>
        <time>2021-08-15T17:17:12.825Z</time>
      </trkpt>
      <trkpt lat="43.01861" lon="42.82781">
        <ele>1683.954161</ele>
        <time>2021-08-15T17:17:16.315Z</time>
      </trkpt>
      <trkpt lat="43.01865" lon="42.82765">
        <ele>1683.087837</ele>
        <time>2021-08-15T17:17:18.019Z</time>
      </trkpt>
      <trkpt lat="43.01857" lon="42.82759">
        <ele>1682.431712</ele>
        <time>2021-08-15T17:17:19.321Z</time>
      </trkpt>
      <trkpt lat="43.01851" lon="42.82762">
        <ele>1681.942034</ele>
        <time>2021-08-15T17:17:20.306Z</time>
      </trkpt>
      <trkpt lat="43.01822" lon="42.82799">
        <ele>1678.994556</ele>
        <time>2021-08-15T17:17:26.115Z</time>
      </trkpt>
      <trkpt lat="43.01803" lon="42.82805">
        <ele>1677.453219</ele>
        <time>2021-08-15T17:17:28.910Z</time>
      </trkpt>
      <trkpt lat="43.0173" lon="42.82774">
        <ele>1671.093119</ele>
        <time>2021-08-15T17:17:40.078Z</time>
      </trkpt>
      <trkpt lat="43.01684" lon="42.82773">
        <ele>1667.345552</ele>
        <time>2021-08-15T17:17:46.661Z</time>
      </trkpt>
      <trkpt lat="43.01639" lon="42.8278">
        <ele>1663.588733</ele>
        <time>2021-08-15T17:17:53.316Z</time>
      </trkpt>
      <trkpt lat="43.01553" lon="42.82768">
        <ele>1656.316589</ele>
        <time>2021-08-15T17:18:06.076Z</time>
      </trkpt>
      <trkpt lat="43.01554" lon="42.82756">
        <ele>1655.562755</ele>
        <time>2021-08-15T17:18:07.389Z</time>
      </trkpt>
      <trkpt lat="43.0156" lon="42.82754">
        <ele>1655.045467</ele>
        <time>2021-08-15T17:18:08.287Z</time>
      </trkpt>
      <trkpt lat="43.01582" lon="42.82759">
        <ele>1653.132747</ele>
        <time>2021-08-15T17:18:11.604Z</time>
      </trkpt>
      <trkpt lat="43.01624" lon="42.82757">
        <ele>1649.640772</ele>
        <time>2021-08-15T17:18:17.600Z</time>
      </trkpt>
      <trkpt lat="43.01654" lon="42.82747">
        <ele>1646.24706</ele>
        <time>2021-08-15T17:18:22.057Z</time>
      </trkpt>
      <trkpt lat="43.01678" lon="42.82732">
        <ele>1642.85563</ele>
        <time>2021-08-15T17:18:25.709Z</time>
      </trkpt>
      <trkpt lat="43.01716" lon="42.82721">
        <ele>1637.733868</ele>
        <time>2021-08-15T17:18:31.135Z</time>
      </trkpt>
      <trkpt lat="43.01729" lon="42.82711">
        <ele>1635.794796</ele>
        <time>2021-08-15T17:18:33.181Z</time>
      </trkpt>
      <trkpt lat="43.01739" lon="42.8269">
        <ele>1633.358783</ele>
        <time>2021-08-15T17:18:35.720Z</time>
      </trkpt>
      <trkpt lat="43.01741" lon="42.82656">
        <ele>1630.144463</ele>
        <time>2021-08-15T17:18:39.056Z</time>
      </trkpt>
      <trkpt lat="43.01735" lon="42.82642">
        <ele>1628.53197</ele>
        <time>2021-08-15T17:18:40.723Z</time>
      </trkpt>
      <trkpt lat="43.01658" lon="42.82547">
        <ele>1612.89407</ele>
        <time>2021-08-15T17:18:54.572Z</time>
      </trkpt>
      <trkpt lat="43.01552" lon="42.8245">
        <ele>1593.819234</ele>
        <time>2021-08-15T17:19:11.593Z</time>
      </trkpt>
      <trkpt lat="43.01487" lon="42.824">
        <ele>1585.150612</ele>
        <time>2021-08-15T17:19:21.900Z</time>
      </trkpt>
      <trkpt lat="43.01461" lon="42.82389">
        <ele>1582.041366</ele>
        <time>2021-08-15T17:19:25.674Z</time>
      </trkpt>
      <trkpt lat="43.01445" lon="42.82368">
        <ele>1579.49254</ele>
        <time>2021-08-15T17:19:28.822Z</time>
      </trkpt>
      <trkpt lat="43.01415" lon="42.82266">
        <ele>1571.650134</ele>
        <time>2021-08-15T17:19:40.587Z</time>
      </trkpt>
      <trkpt lat="43.01415" lon="42.82243">
        <ele>1570.257311</ele>
        <time>2021-08-15T17:19:43.023Z</time>
      </trkpt>
      <trkpt lat="43.01427" lon="42.8218">
        <ele>1566.214646</ele>
        <time>2021-08-15T17:19:50.128Z</time>
      </trkpt>
      <trkpt lat="43.01354" lon="42.821">
        <ele>1558.587074</ele>
        <time>2021-08-15T17:20:03.760Z</time>
      </trkpt>
      <trkpt lat="43.01343" lon="42.82074">
        <ele>1557.006319</ele>
        <time>2021-08-15T17:20:06.931Z</time>
      </trkpt>
      <trkpt lat="43.01339" lon="42.82039">
        <ele>1555.145012</ele>
        <time>2021-08-15T17:20:10.666Z</time>
      </trkpt>
      <trkpt lat="43.01329" lon="42.8201">
        <ele>1553.440927</ele>
        <time>2021-08-15T17:20:14.108Z</time>
      </trkpt>
      <trkpt lat="43.01321" lon="42.82007">
        <ele>1552.854317</ele>
        <time>2021-08-15T17:20:15.277Z</time>
      </trkpt>
      <trkpt lat="43.01314" lon="42.82013">
        <ele>1552.267638</ele>
        <time>2021-08-15T17:20:16.474Z</time>
      </trkpt>
      <trkpt lat="43.01307" lon="42.82099">
        <ele>1547.650618</ele>
        <time>2021-08-15T17:20:26.200Z</time>
      </trkpt>
      <trkpt lat="43.01329" lon="42.82166">
        <ele>1545.560397</ele>
        <time>2021-08-15T17:20:34.876Z</time>
      </trkpt>
      <trkpt lat="43.01331" lon="42.822">
        <ele>1544.619454</ele>
        <time>2021-08-15T17:20:39.065Z</time>
      </trkpt>
      <trkpt lat="43.01326" lon="42.82243">
        <ele>1543.434471</ele>
        <time>2021-08-15T17:20:44.663Z</time>
      </trkpt>
      <trkpt lat="43.01326" lon="42.82268">
        <ele>1542.751677</ele>
        <time>2021-08-15T17:20:48.097Z</time>
      </trkpt>
      <trkpt lat="43.01333" lon="42.823">
        <ele>1541.863783</ele>
        <time>2021-08-15T17:20:52.303Z</time>
      </trkpt>
      <trkpt lat="43.01366" lon="42.82384">
        <ele>1538.833567</ele>
        <time>2021-08-15T17:21:04.197Z</time>
      </trkpt>
      <trkpt lat="43.01357" lon="42.82436">
        <ele>1536.954482</ele>
        <time>2021-08-15T17:21:10.527Z</time>
      </trkpt>
      <trkpt lat="43.01336" lon="42.82452">
        <ele>1535.802525</ele>
        <time>2021-08-15T17:21:14.316Z</time>
      </trkpt>
      <trkpt lat="43.01271" lon="42.82493">
        <ele>1532.356058</ele>
        <time>2021-08-15T17:21:25.376Z</time>
      </trkpt>
      <trkpt lat="43.01238" lon="42.82519">
        <ele>1530.789044</ele>
        <time>2021-08-15T17:21:31.299Z</time>
      </trkpt>
      <trkpt lat="43.01206" lon="42.82548">
        <ele>1529.255683</ele>
        <time>2021-08-15T17:21:37.263Z</time>
      </trkpt>
      <trkpt lat="43.01172" lon="42.82569">
        <ele>1527.73718</ele>
        <time>2021-08-15T17:21:43.246Z</time>
      </trkpt>
      <trkpt lat="43.01153" lon="42.82571">
        <ele>1526.974702</ele>
        <time>2021-08-15T17:21:46.278Z</time>
      </trkpt>
      <trkpt lat="43.01145" lon="42.82572">
        <ele>1526.660113</ele>
        <time>2021-08-15T17:21:47.619Z</time>
      </trkpt>
      <trkpt lat="43.01142" lon="42.82572">
        <ele>1526.547081</ele>
        <time>2021-08-15T17:21:48.103Z</time>
      </trkpt>
      <trkpt lat="43.01119" lon="42.82572">
        <ele>1525.621271</ele>
        <time>2021-08-15T17:21:52.006Z</time>
      </trkpt>
      <trkpt lat="43.01101" lon="42.82575">
        <ele>1524.87546</ele>
        <time>2021-08-15T17:21:55.433Z</time>
      </trkpt>
      <trkpt lat="43.01073" lon="42.82582">
        <ele>1525.576559</ele>
        <time>2021-08-15T17:22:02.257Z</time>
      </trkpt>
      <trkpt lat="43.01052" lon="42.82598">
        <ele>1526.194161</ele>
        <time>2021-08-15T17:22:10.006Z</time>
      </trkpt>
      <trkpt lat="43.01043" lon="42.8263">
        <ele>1526.820948</ele>
        <time>2021-08-15T17:22:18.956Z</time>
      </trkpt>
      <trkpt lat="43.01028" lon="42.82657">
        <ele>1527.437986</ele>
        <time>2021-08-15T17:22:28.281Z</time>
      </trkpt>
      <trkpt lat="43.01" lon="42.827">
        <ele>1528.494086</ele>
        <time>2021-08-15T17:22:46.407Z</time>
      </trkpt>
      <trkpt lat="43.00964" lon="42.8274">
        <ele>1529.770483</ele>
        <time>2021-08-15T17:23:07.550Z</time>
      </trkpt>
      <trkpt lat="43.00934" lon="42.82768">
        <ele>1531.037646</ele>
        <time>2021-08-15T17:23:24.497Z</time>
      </trkpt>
      <trkpt lat="43.009" lon="42.82811">
        <ele>1532.634106</ele>
        <time>2021-08-15T17:23:45.262Z</time>
      </trkpt>
      <trkpt lat="43.00826" lon="42.82868">
        <ele>1535.589806</ele>
        <time>2021-08-15T17:24:17.458Z</time>
      </trkpt>
      <trkpt lat="43.00791" lon="42.82871">
        <ele>1535.532551</ele>
        <time>2021-08-15T17:24:25.842Z</time>
      </trkpt>
      <trkpt lat="43.00666" lon="42.82857">
        <ele>1535.098831</ele>
        <time>2021-08-15T17:24:50.481Z</time>
      </trkpt>
      <trkpt lat="43.00569" lon="42.82897">
        <ele>1535.560018</ele>
        <time>2021-08-15T17:25:11.820Z</time>
      </trkpt>
      <trkpt lat="43.0054" lon="42.82921">
        <ele>1535.785321</ele>
        <time>2021-08-15T17:25:20.916Z</time>
      </trkpt>
      <trkpt lat="43.00519" lon="42.82951">
        <ele>1535.986028</ele>
        <time>2021-08-15T17:25:29.899Z</time>
      </trkpt>
      <trkpt lat="43.0051" lon="42.82974">
        <ele>1536.114708</ele>
        <time>2021-08-15T17:25:36.245Z</time>
      </trkpt>
      <trkpt lat="43.00506" lon="42.83003">
        <ele>1536.323049</ele>
        <time>2021-08-15T17:25:42.830Z</time>
      </trkpt>
      <trkpt lat="43.00508" lon="42.83053">
        <ele>1537.037238</ele>
        <time>2021-08-15T17:25:55.328Z</time>
      </trkpt>
      <trkpt lat="43.00503" lon="42.83073">
        <ele>1537.336467</ele>
        <time>2021-08-15T17:26:01.123Z</time>
      </trkpt>
      <trkpt lat="43.0049" lon="42.83084">
        <ele>1537.650858</ele>
        <time>2021-08-15T17:26:06.676Z</time>
      </trkpt>
      <trkpt lat="43.00328" lon="42.83146">
        <ele>1540.241967</ele>
        <time>2021-08-15T17:26:58.498Z</time>
      </trkpt>
      <trkpt lat="43.00312" lon="42.83161">
        <ele>1540.40975</ele>
        <time>2021-08-15T17:27:03.707Z</time>
      </trkpt>
      <trkpt lat="43.00281" lon="42.83214">
        <ele>1540.830253</ele>
        <time>2021-08-15T17:27:16.415Z</time>
      </trkpt>
      <trkpt lat="43.00203" lon="42.83272">
        <ele>1541.30043</ele>
        <time>2021-08-15T17:27:36.201Z</time>
      </trkpt>
      <trkpt lat="43.00156" lon="42.83367">
        <ele>1541.412961</ele>
        <time>2021-08-15T17:27:54.053Z</time>
      </trkpt>
      <trkpt lat="43.00048" lon="42.83485">
        <ele>1542.709189</ele>
        <time>2021-08-15T17:28:30.088Z</time>
      </trkpt>
      <trkpt lat="42.99974" lon="42.83583">
        <ele>1544.306335</ele>
        <time>2021-08-15T17:29:03.399Z</time>
      </trkpt>
      <trkpt lat="42.99938" lon="42.83614">
        <ele>1545.353511</ele>
        <time>2021-08-15T17:29:18.024Z</time>
      </trkpt>
      <trkpt lat="42.99858" lon="42.83728">
        <ele>1548.262964</ele>
        <time>2021-08-15T17:29:58.644Z</time>
      </trkpt>
      <trkpt lat="42.99734" lon="42.83802">
        <ele>1552.208008</ele>
        <time>2021-08-15T17:30:47.407Z</time>
      </trkpt>
      <trkpt lat="42.99722" lon="42.83818">
        <ele>1552.712976</ele>
        <time>2021-08-15T17:30:53.997Z</time>
      </trkpt>
      <trkpt lat="42.99711" lon="42.83885">
        <ele>1554.221991</ele>
        <time>2021-08-15T17:31:13.820Z</time>
      </trkpt>
      <trkpt lat="42.99687" lon="42.83935">
        <ele>1555.554681</ele>
        <time>2021-08-15T17:31:31.351Z</time>
      </trkpt>
      <trkpt lat="42.99595" lon="42.84052">
        <ele>1559.38225</ele>
        <time>2021-08-15T17:32:18.840Z</time>
      </trkpt>
      <trkpt lat="42.99512" lon="42.84089">
        <ele>1561.545559</ele>
        <time>2021-08-15T17:32:46.546Z</time>
      </trkpt>
      <trkpt lat="42.99482" lon="42.84117">
        <ele>1562.414419</ele>
        <time>2021-08-15T17:32:58.305Z</time>
      </trkpt>
      <trkpt lat="42.99443" lon="42.84198">
        <ele>1564.284126</ele>
        <time>2021-08-15T17:33:23.582Z</time>
      </trkpt>
      <trkpt lat="42.9944" lon="42.84236">
        <ele>1565.382236</ele>
        <time>2021-08-15T17:33:34.793Z</time>
      </trkpt>
      <trkpt lat="42.99396" lon="42.84353">
        <ele>1569.112446</ele>
        <time>2021-08-15T17:34:15.625Z</time>
      </trkpt>
      <trkpt lat="42.99381" lon="42.8438">
        <ele>1570.070423</ele>
        <time>2021-08-15T17:34:26.885Z</time>
      </trkpt>
      <trkpt lat="42.99364" lon="42.844">
        <ele>1570.930323</ele>
        <time>2021-08-15T17:34:37.250Z</time>
      </trkpt>
      <trkpt lat="42.9932" lon="42.84407">
        <ele>1572.280059</ele>
        <time>2021-08-15T17:34:56.900Z</time>
      </trkpt>
      <trkpt lat="42.99239" lon="42.84441">
        <ele>1574.871343</ele>
        <time>2021-08-15T17:35:30.692Z</time>
      </trkpt>
      <trkpt lat="42.99088" lon="42.84469">
        <ele>1576.287655</ele>
        <time>2021-08-15T17:36:12.262Z</time>
      </trkpt>
      <trkpt lat="42.98971" lon="42.84514">
        <ele>1575.267203</ele>
        <time>2021-08-15T17:36:35.393Z</time>
      </trkpt>
      <trkpt lat="42.98932" lon="42.84556">
        <ele>1574.214263</ele>
        <time>2021-08-15T17:36:44.121Z</time>
      </trkpt>
      <trkpt lat="42.98892" lon="42.84619">
        <ele>1572.905766</ele>
        <time>2021-08-15T17:36:55.001Z</time>
      </trkpt>
      <trkpt lat="42.9883" lon="42.84661">
        <ele>1572.06368</ele>
        <time>2021-08-15T17:37:07.590Z</time>
      </trkpt>
      <trkpt lat="42.98797" lon="42.84693">
        <ele>1571.766982</ele>
        <time>2021-08-15T17:37:15.361Z</time>
      </trkpt>
      <trkpt lat="42.98645" lon="42.84808">
        <ele>1572.053143</ele>
        <time>2021-08-15T17:37:56.390Z</time>
      </trkpt>
      <trkpt lat="42.98622" lon="42.84847">
        <ele>1572.492297</ele>
        <time>2021-08-15T17:38:06.815Z</time>
      </trkpt>
      <trkpt lat="42.98588" lon="42.84935">
        <ele>1573.844633</ele>
        <time>2021-08-15T17:38:28.104Z</time>
      </trkpt>
      <trkpt lat="42.98577" lon="42.8495">
        <ele>1574.833322</ele>
        <time>2021-08-15T17:38:33.089Z</time>
      </trkpt>
      <trkpt lat="42.98493" lon="42.85019">
        <ele>1581.05672</ele>
        <time>2021-08-15T17:39:24.907Z</time>
      </trkpt>
      <trkpt lat="42.98469" lon="42.85028">
        <ele>1582.656363</ele>
        <time>2021-08-15T17:39:42.263Z</time>
      </trkpt>
      <trkpt lat="42.98451" lon="42.85025">
        <ele>1583.815486</ele>
        <time>2021-08-15T17:39:57.378Z</time>
      </trkpt>
      <trkpt lat="42.98426" lon="42.85013">
        <ele>1585.753703</ele>
        <time>2021-08-15T17:40:12.600Z</time>
      </trkpt>
      <trkpt lat="42.98397" lon="42.84999">
        <ele>1588.441853</ele>
        <time>2021-08-15T17:40:34.769Z</time>
      </trkpt>
      <trkpt lat="42.98392" lon="42.84997">
        <ele>1588.923976</ele>
        <time>2021-08-15T17:40:38.275Z</time>
      </trkpt>
      <trkpt lat="42.9838" lon="42.84999">
        <ele>1589.943709</ele>
        <time>2021-08-15T17:40:50.457Z</time>
      </trkpt>
      <trkpt lat="42.98359" lon="42.85013">
        <ele>1591.961267</ele>
        <time>2021-08-15T17:41:02.987Z</time>
      </trkpt>
      <trkpt lat="42.98328" lon="42.85052">
        <ele>1595.651187</ele>
        <time>2021-08-15T17:41:34.980Z</time>
      </trkpt>
      <trkpt lat="42.98309" lon="42.85098">
        <ele>1599.022372</ele>
        <time>2021-08-15T17:42:03.615Z</time>
      </trkpt>
      <trkpt lat="42.98284" lon="42.85271">
        <ele>1604.244575</ele>
        <time>2021-08-15T17:42:54.942Z</time>
      </trkpt>
      <trkpt lat="42.98266" lon="42.85298">
        <ele>1605.157384</ele>
        <time>2021-08-15T17:43:03.585Z</time>
      </trkpt>
      <trkpt lat="42.98195" lon="42.85372">
        <ele>1607.701579</ele>
        <time>2021-08-15T17:43:30.480Z</time>
      </trkpt>
      <trkpt lat="42.98192" lon="42.85381">
        <ele>1607.887019</ele>
        <time>2021-08-15T17:43:32.423Z</time>
      </trkpt>
      <trkpt lat="42.9819" lon="42.85416">
        <ele>1608.500436</ele>
        <time>2021-08-15T17:43:40.485Z</time>
      </trkpt>
      <trkpt lat="42.98193" lon="42.85444">
        <ele>1608.995848</ele>
        <time>2021-08-15T17:43:46.354Z</time>
      </trkpt>
      <trkpt lat="42.98195" lon="42.85477">
        <ele>1609.595083</ele>
        <time>2021-08-15T17:43:54.119Z</time>
      </trkpt>
      <trkpt lat="42.98188" lon="42.85521">
        <ele>1610.395445</ele>
        <time>2021-08-15T17:44:06.769Z</time>
      </trkpt>
      <trkpt lat="42.9818" lon="42.85537">
        <ele>1610.733062</ele>
        <time>2021-08-15T17:44:12.960Z</time>
      </trkpt>
      <trkpt lat="42.98167" lon="42.85548">
        <ele>1611.280578</ele>
        <time>2021-08-15T17:44:19.858Z</time>
      </trkpt>
      <trkpt lat="42.98102" lon="42.8557">
        <ele>1614.156919</ele>
        <time>2021-08-15T17:44:51.365Z</time>
      </trkpt>
      <trkpt lat="42.98036" lon="42.85616">
        <ele>1617.310981</ele>
        <time>2021-08-15T17:45:23.334Z</time>
      </trkpt>
      <trkpt lat="42.98022" lon="42.85618">
        <ele>1617.907769</ele>
        <time>2021-08-15T17:45:29.800Z</time>
      </trkpt>
      <trkpt lat="42.97985" lon="42.85603">
        <ele>1618.754717</ele>
        <time>2021-08-15T17:45:46.511Z</time>
      </trkpt>
      <trkpt lat="42.97965" lon="42.85603">
        <ele>1618.916472</ele>
        <time>2021-08-15T17:45:54.198Z</time>
      </trkpt>
      <trkpt lat="42.97935" lon="42.85614">
        <ele>1619.178488</ele>
        <time>2021-08-15T17:46:06.466Z</time>
      </trkpt>
      <trkpt lat="42.97913" lon="42.85631">
        <ele>1619.392152</ele>
        <time>2021-08-15T17:46:14.821Z</time>
      </trkpt>
      <trkpt lat="42.97894" lon="42.85657">
        <ele>1619.610616</ele>
        <time>2021-08-15T17:46:21.296Z</time>
      </trkpt>
      <trkpt lat="42.97861" lon="42.85725">
        <ele>1619.707896</ele>
        <time>2021-08-15T17:46:31.945Z</time>
      </trkpt>
      <trkpt lat="42.97849" lon="42.85773">
        <ele>1617.695481</ele>
        <time>2021-08-15T17:46:37.869Z</time>
      </trkpt>
      <trkpt lat="42.97846" lon="42.85807">
        <ele>1616.367896</ele>
        <time>2021-08-15T17:46:41.636Z</time>
      </trkpt>
      <trkpt lat="42.9785" lon="42.85841">
        <ele>1615.012494</ele>
        <time>2021-08-15T17:46:45.500Z</time>
      </trkpt>
      <trkpt lat="42.97843" lon="42.85862">
        <ele>1614.109858</ele>
        <time>2021-08-15T17:46:48.036Z</time>
      </trkpt>
      <trkpt lat="42.97807" lon="42.8586">
        <ele>1612.174382</ele>
        <time>2021-08-15T17:46:53.508Z</time>
      </trkpt>
      <trkpt lat="42.97787" lon="42.85851">
        <ele>1611.029477</ele>
        <time>2021-08-15T17:46:56.762Z</time>
      </trkpt>
      <trkpt lat="42.97742" lon="42.8585">
        <ele>1609.352056</ele>
        <time>2021-08-15T17:47:03.662Z</time>
      </trkpt>
      <trkpt lat="42.97623" lon="42.85875">
        <ele>1605.64391</ele>
        <time>2021-08-15T17:47:24.205Z</time>
      </trkpt>
      <trkpt lat="42.9758" lon="42.85899">
        <ele>1604.908012</ele>
        <time>2021-08-15T17:47:34.873Z</time>
      </trkpt>
      <trkpt lat="42.97527" lon="42.85964">
        <ele>1605.317221</ele>
        <time>2021-08-15T17:47:53.355Z</time>
      </trkpt>
      <trkpt lat="42.97499" lon="42.86001">
        <ele>1605.542467</ele>
        <time>2021-08-15T17:48:04.003Z</time>
      </trkpt>
      <trkpt lat="42.97489" lon="42.86027">
        <ele>1605.66835</ele>
        <time>2021-08-15T17:48:10.001Z</time>
      </trkpt>
      <trkpt lat="42.97459" lon="42.86168">
        <ele>1606.416301</ele>
        <time>2021-08-15T17:48:38.909Z</time>
      </trkpt>
      <trkpt lat="42.97444" lon="42.86204">
        <ele>1606.642962</ele>
        <time>2021-08-15T17:48:46.638Z</time>
      </trkpt>
      <trkpt lat="42.97383" lon="42.86326">
        <ele>1607.448919</ele>
        <time>2021-08-15T17:49:14.345Z</time>
      </trkpt>
      <trkpt lat="42.97262" lon="42.8651">
        <ele>1609.181773</ele>
        <time>2021-08-15T17:50:00.552Z</time>
      </trkpt>
      <trkpt lat="42.97208" lon="42.86644">
        <ele>1611.141879</ele>
        <time>2021-08-15T17:50:36.773Z</time>
      </trkpt>
      <trkpt lat="42.97209" lon="42.86657">
        <ele>1611.303107</ele>
        <time>2021-08-15T17:50:39.738Z</time>
      </trkpt>
      <trkpt lat="42.97224" lon="42.86695">
        <ele>1611.953516</ele>
        <time>2021-08-15T17:50:55.024Z</time>
      </trkpt>
      <trkpt lat="42.97225" lon="42.86702">
        <ele>1612.091305</ele>
        <time>2021-08-15T17:50:58.421Z</time>
      </trkpt>
      <trkpt lat="42.97222" lon="42.86719">
        <ele>1612.418249</ele>
        <time>2021-08-15T17:51:04.732Z</time>
      </trkpt>
      <trkpt lat="42.97177" lon="42.8678">
        <ele>1614.017876</ele>
        <time>2021-08-15T17:51:36.619Z</time>
      </trkpt>
      <trkpt lat="42.9709" lon="42.86873">
        <ele>1616.652019</ele>
        <time>2021-08-15T17:52:32.148Z</time>
      </trkpt>
      <trkpt lat="42.97082" lon="42.86888">
        <ele>1616.915531</ele>
        <time>2021-08-15T17:52:38.359Z</time>
      </trkpt>
      <trkpt lat="42.97069" lon="42.86978">
        <ele>1618.193588</ele>
        <time>2021-08-15T17:53:08.408Z</time>
      </trkpt>
      <trkpt lat="42.9706" lon="42.87007">
        <ele>1618.629015</ele>
        <time>2021-08-15T17:53:18.879Z</time>
      </trkpt>
      <trkpt lat="42.97048" lon="42.87019">
        <ele>1618.916034</ele>
        <time>2021-08-15T17:53:25.700Z</time>
      </trkpt>
      <trkpt lat="42.97044" lon="42.87061">
        <ele>1619.491618</ele>
        <time>2021-08-15T17:53:39.826Z</time>
      </trkpt>
      <trkpt lat="42.9705" lon="42.87118">
        <ele>1620.546015</ele>
        <time>2021-08-15T17:53:59.834Z</time>
      </trkpt>
      <trkpt lat="42.97046" lon="42.87137">
        <ele>1620.931849</ele>
        <time>2021-08-15T17:54:07.049Z</time>
      </trkpt>
      <trkpt lat="42.96947" lon="42.8733">
        <ele>1625.490427</ele>
        <time>2021-08-15T17:55:35.833Z</time>
      </trkpt>
      <trkpt lat="42.96898" lon="42.87406">
        <ele>1627.536012</ele>
        <time>2021-08-15T17:56:15.037Z</time>
      </trkpt>
      <trkpt lat="42.96864" lon="42.87478">
        <ele>1629.25871</ele>
        <time>2021-08-15T17:56:46.648Z</time>
      </trkpt>
      <trkpt lat="42.96763" lon="42.87609">
        <ele>1632.434796</ele>
        <time>2021-08-15T17:57:47.652Z</time>
      </trkpt>
      <trkpt lat="42.96733" lon="42.87634">
        <ele>1633.243108</ele>
        <time>2021-08-15T17:58:06.089Z</time>
      </trkpt>
      <trkpt lat="42.96684" lon="42.87657">
        <ele>1637.48095</ele>
        <time>2021-08-15T17:58:38.705Z</time>
      </trkpt>
      <trkpt lat="42.96672" lon="42.87654">
        <ele>1638.516235</ele>
        <time>2021-08-15T17:58:46.037Z</time>
      </trkpt>
      <trkpt lat="42.96645" lon="42.87637">
        <ele>1641.156934</ele>
        <time>2021-08-15T17:59:08.775Z</time>
      </trkpt>
      <trkpt lat="42.96616" lon="42.87628">
        <ele>1643.791362</ele>
        <time>2021-08-15T17:59:35.863Z</time>
      </trkpt>
      <trkpt lat="42.96599" lon="42.87628">
        <ele>1645.364122</ele>
        <time>2021-08-15T17:59:51.416Z</time>
      </trkpt>
      <trkpt lat="42.96575" lon="42.87649">
        <ele>1647.86037</ele>
        <time>2021-08-15T18:00:18.270Z</time>
      </trkpt>
      <trkpt lat="42.96531" lon="42.87773">
        <ele>1660.59799</ele>
        <time>2021-08-15T18:02:10.501Z</time>
      </trkpt>
      <trkpt lat="42.9652" lon="42.87789">
        <ele>1662.613591</ele>
        <time>2021-08-15T18:02:27.178Z</time>
      </trkpt>
      <trkpt lat="42.96496" lon="42.87809">
        <ele>1666.44345</ele>
        <time>2021-08-15T18:02:58.935Z</time>
      </trkpt>
      <trkpt lat="42.96464" lon="42.87854">
        <ele>1672.530084</ele>
        <time>2021-08-15T18:03:46.756Z</time>
      </trkpt>
      <trkpt lat="42.96456" lon="42.87877">
        <ele>1674.061869</ele>
        <time>2021-08-15T18:04:03.822Z</time>
      </trkpt>
      <trkpt lat="42.96438" lon="42.87989">
        <ele>1679.216374</ele>
        <time>2021-08-15T18:05:06.670Z</time>
      </trkpt>
      <trkpt lat="42.96423" lon="42.88037">
        <ele>1681.548462</ele>
        <time>2021-08-15T18:05:28.537Z</time>
      </trkpt>
      <trkpt lat="42.96364" lon="42.881">
        <ele>1684.277602</ele>
        <time>2021-08-15T18:06:05.228Z</time>
      </trkpt>
      <trkpt lat="42.96309" lon="42.88186">
        <ele>1684.260528</ele>
        <time>2021-08-15T18:06:35.081Z</time>
      </trkpt>
      <trkpt lat="42.96286" lon="42.88207">
        <ele>1684.254996</ele>
        <time>2021-08-15T18:06:44.130Z</time>
      </trkpt>
      <trkpt lat="42.96236" lon="42.88237">
        <ele>1684.382688</ele>
        <time>2021-08-15T18:07:03.074Z</time>
      </trkpt>
      <trkpt lat="42.962" lon="42.88249">
        <ele>1684.680889</ele>
        <time>2021-08-15T18:07:16.234Z</time>
      </trkpt>
      <trkpt lat="42.96146" lon="42.88256">
        <ele>1685.132361</ele>
        <time>2021-08-15T18:07:37.766Z</time>
      </trkpt>
      <trkpt lat="42.96096" lon="42.88253">
        <ele>1685.543542</ele>
        <time>2021-08-15T18:07:59.644Z</time>
      </trkpt>
      <trkpt lat="42.95984" lon="42.88277">
        <ele>1689.789445</ele>
        <time>2021-08-15T18:09:00.327Z</time>
      </trkpt>
      <trkpt lat="42.95949" lon="42.88265">
        <ele>1691.412629</ele>
        <time>2021-08-15T18:09:24.031Z</time>
      </trkpt>
      <trkpt lat="42.95925" lon="42.88267">
        <ele>1692.486894</ele>
        <time>2021-08-15T18:09:40.335Z</time>
      </trkpt>
      <trkpt lat="42.95882" lon="42.88255">
        <ele>1694.452393</ele>
        <time>2021-08-15T18:10:09.519Z</time>
      </trkpt>
      <trkpt lat="42.95845" lon="42.88239">
        <ele>1696.280192</ele>
        <time>2021-08-15T18:10:35.736Z</time>
      </trkpt>
      <trkpt lat="42.95819" lon="42.88246">
        <ele>1697.498868</ele>
        <time>2021-08-15T18:10:52.670Z</time>
      </trkpt>
      <trkpt lat="42.95776" lon="42.88285">
        <ele>1699.946152</ele>
        <time>2021-08-15T18:11:24.138Z</time>
      </trkpt>
      <trkpt lat="42.95722" lon="42.88318">
        <ele>1702.334648</ele>
        <time>2021-08-15T18:11:56.802Z</time>
      </trkpt>
      <trkpt lat="42.95701" lon="42.88396">
        <ele>1703.150559</ele>
        <time>2021-08-15T18:12:23.614Z</time>
      </trkpt>
      <trkpt lat="42.95677" lon="42.88433">
        <ele>1703.629802</ele>
        <time>2021-08-15T18:12:37.826Z</time>
      </trkpt>
      <trkpt lat="42.95661" lon="42.88444">
        <ele>1703.875545</ele>
        <time>2021-08-15T18:12:45.178Z</time>
      </trkpt>
      <trkpt lat="42.95612" lon="42.88433">
        <ele>1704.540411</ele>
        <time>2021-08-15T18:13:05.578Z</time>
      </trkpt>
      <trkpt lat="42.95566" lon="42.88446">
        <ele>1704.530669</ele>
        <time>2021-08-15T18:13:24.642Z</time>
      </trkpt>
      <trkpt lat="42.95513" lon="42.8844">
        <ele>1704.448666</ele>
        <time>2021-08-15T18:13:45.925Z</time>
      </trkpt>
      <trkpt lat="42.95484" lon="42.88456">
        <ele>1704.400785</ele>
        <time>2021-08-15T18:13:57.239Z</time>
      </trkpt>
      <trkpt lat="42.95472" lon="42.88469">
        <ele>1704.376501</ele>
        <time>2021-08-15T18:14:02.798Z</time>
      </trkpt>
      <trkpt lat="42.95459" lon="42.88501">
        <ele>1704.336007</ele>
        <time>2021-08-15T18:14:11.769Z</time>
      </trkpt>
      <trkpt lat="42.95446" lon="42.88515">
        <ele>1704.039836</ele>
        <time>2021-08-15T18:14:17.282Z</time>
      </trkpt>
      <trkpt lat="42.95429" lon="42.88524">
        <ele>1703.20886</ele>
        <time>2021-08-15T18:14:23.513Z</time>
      </trkpt>
      <trkpt lat="42.95409" lon="42.88523">
        <ele>1702.314526</ele>
        <time>2021-08-15T18:14:30.106Z</time>
      </trkpt>
      <trkpt lat="42.95393" lon="42.88539">
        <ele>1701.416152</ele>
        <time>2021-08-15T18:14:36.362Z</time>
      </trkpt>
      <trkpt lat="42.95382" lon="42.88565">
        <ele>1700.466604</ele>
        <time>2021-08-15T18:14:42.803Z</time>
      </trkpt>
      <trkpt lat="42.95375" lon="42.88633">
        <ele>1698.234535</ele>
        <time>2021-08-15T18:14:56.969Z</time>
      </trkpt>
      <trkpt lat="42.95365" lon="42.88661">
        <ele>1697.208646</ele>
        <time>2021-08-15T18:15:03.283Z</time>
      </trkpt>
      <trkpt lat="42.95331" lon="42.88706">
        <ele>1694.615087</ele>
        <time>2021-08-15T18:15:16.039Z</time>
      </trkpt>
      <trkpt lat="42.95237" lon="42.88764">
        <ele>1688.121721</ele>
        <time>2021-08-15T18:15:44.213Z</time>
      </trkpt>
      <trkpt lat="42.95154" lon="42.88848">
        <ele>1684.531814</ele>
        <time>2021-08-15T18:16:14.304Z</time>
      </trkpt>
      <trkpt lat="42.95107" lon="42.88872">
        <ele>1684.072636</ele>
        <time>2021-08-15T18:16:30.902Z</time>
      </trkpt>
      <trkpt lat="42.94922" lon="42.88948">
        <ele>1686.476536</ele>
        <time>2021-08-15T18:18:05.901Z</time>
      </trkpt>
      <trkpt lat="42.94853" lon="42.88963">
        <ele>1688.239556</ele>
        <time>2021-08-15T18:18:43.262Z</time>
      </trkpt>
      <trkpt lat="42.9483" lon="42.88979">
        <ele>1688.666555</ele>
        <time>2021-08-15T18:18:56.407Z</time>
      </trkpt>
      <trkpt lat="42.94806" lon="42.89009">
        <ele>1689.204563</ele>
        <time>2021-08-15T18:19:12.204Z</time>
      </trkpt>
      <trkpt lat="42.94723" lon="42.89205">
        <ele>1691.952913</ele>
        <time>2021-08-15T18:20:21.796Z</time>
      </trkpt>
      <trkpt lat="42.94694" lon="42.89261">
        <ele>1692.782924</ele>
        <time>2021-08-15T18:20:42.994Z</time>
      </trkpt>
      <trkpt lat="42.94619" lon="42.89326">
        <ele>1694.426834</ele>
        <time>2021-08-15T18:21:25.874Z</time>
      </trkpt>
      <trkpt lat="42.94534" lon="42.89417">
        <ele>1697.968053</ele>
        <time>2021-08-15T18:22:24.447Z</time>
      </trkpt>
      <trkpt lat="42.94439" lon="42.8962">
        <ele>1703.869876</ele>
        <time>2021-08-15T18:24:01.380Z</time>
      </trkpt>
      <trkpt lat="42.94424" lon="42.8964">
        <ele>1704.590168</ele>
        <time>2021-08-15T18:24:12.907Z</time>
      </trkpt>
      <trkpt lat="42.94373" lon="42.8968">
        <ele>1706.248864</ele>
        <time>2021-08-15T18:24:43.384Z</time>
      </trkpt>
      <trkpt lat="42.94327" lon="42.89743">
        <ele>1707.129545</ele>
        <time>2021-08-15T18:25:16.415Z</time>
      </trkpt>
      <trkpt lat="42.94311" lon="42.89792">
        <ele>1707.654736</ele>
        <time>2021-08-15T18:25:34.502Z</time>
      </trkpt>
      <trkpt lat="42.94289" lon="42.89905">
        <ele>1708.225002</ele>
        <time>2021-08-15T18:26:04.855Z</time>
      </trkpt>
      <trkpt lat="42.94274" lon="42.89936">
        <ele>1707.953885</ele>
        <time>2021-08-15T18:26:14.034Z</time>
      </trkpt>
      <trkpt lat="42.94275" lon="42.89982">
        <ele>1707.619377</ele>
        <time>2021-08-15T18:26:25.194Z</time>
      </trkpt>
      <trkpt lat="42.94272" lon="42.90015">
        <ele>1707.372588</ele>
        <time>2021-08-15T18:26:33.207Z</time>
      </trkpt>
      <trkpt lat="42.94276" lon="42.90022">
        <ele>1707.312256</ele>
        <time>2021-08-15T18:26:35.200Z</time>
      </trkpt>
      <trkpt lat="42.9428" lon="42.90041">
        <ele>1707.16258</ele>
        <time>2021-08-15T18:26:41.284Z</time>
      </trkpt>
      <trkpt lat="42.94281" lon="42.90042">
        <ele>1707.151356</ele>
        <time>2021-08-15T18:26:41.540Z</time>
      </trkpt>
      <trkpt lat="42.94295" lon="42.90044">
        <ele>1707.015863</ele>
        <time>2021-08-15T18:26:45.893Z</time>
      </trkpt>
      <trkpt lat="42.94303" lon="42.90045">
        <ele>1706.936463</ele>
        <time>2021-08-15T18:26:48.641Z</time>
      </trkpt>
      <trkpt lat="42.943" lon="42.90104">
        <ele>1706.924143</ele>
        <time>2021-08-15T18:27:05.173Z</time>
      </trkpt>
      <trkpt lat="42.94308" lon="42.90159">
        <ele>1707.499789</ele>
        <time>2021-08-15T18:27:20.852Z</time>
      </trkpt>
      <trkpt lat="42.94306" lon="42.90201">
        <ele>1707.930414</ele>
        <time>2021-08-15T18:27:33.294Z</time>
      </trkpt>
      <trkpt lat="42.94311" lon="42.90238">
        <ele>1708.311737</ele>
        <time>2021-08-15T18:27:46.063Z</time>
      </trkpt>
      <trkpt lat="42.9433" lon="42.90259">
        <ele>1708.658915</ele>
        <time>2021-08-15T18:27:58.191Z</time>
      </trkpt>
      <trkpt lat="42.94336" lon="42.90264">
        <ele>1708.753753</ele>
        <time>2021-08-15T18:28:04.265Z</time>
      </trkpt>
      <trkpt lat="42.94322" lon="42.90287">
        <ele>1709.061639</ele>
        <time>2021-08-15T18:28:13.974Z</time>
      </trkpt>
      <trkpt lat="42.94278" lon="42.90365">
        <ele>1710.486353</ele>
        <time>2021-08-15T18:28:50.440Z</time>
      </trkpt>
      <trkpt lat="42.94272" lon="42.90379">
        <ele>1710.742102</ele>
        <time>2021-08-15T18:28:57.825Z</time>
      </trkpt>
      <trkpt lat="42.94271" lon="42.90397">
        <ele>1711.005821</ele>
        <time>2021-08-15T18:29:03.472Z</time>
      </trkpt>
      <trkpt lat="42.9426" lon="42.90438">
        <ele>1711.670867</ele>
        <time>2021-08-15T18:29:18.774Z</time>
      </trkpt>
      <trkpt lat="42.94252" lon="42.90458">
        <ele>1712.019612</ele>
        <time>2021-08-15T18:29:25.812Z</time>
      </trkpt>
      <trkpt lat="42.94252" lon="42.90487">
        <ele>1712.471574</ele>
        <time>2021-08-15T18:29:34.467Z</time>
      </trkpt>
      <trkpt lat="42.9428" lon="42.90538">
        <ele>1713.287593</ele>
        <time>2021-08-15T18:29:54.428Z</time>
      </trkpt>
      <trkpt lat="42.9428" lon="42.90611">
        <ele>1714.059337</ele>
        <time>2021-08-15T18:30:17.654Z</time>
      </trkpt>
      <trkpt lat="42.94276" lon="42.90628">
        <ele>1714.256208</ele>
        <time>2021-08-15T18:30:23.217Z</time>
      </trkpt>
      <trkpt lat="42.94277" lon="42.90639">
        <ele>1714.369269</ele>
        <time>2021-08-15T18:30:27.281Z</time>
      </trkpt>
      <trkpt lat="42.94256" lon="42.90686">
        <ele>1714.955186</ele>
        <time>2021-08-15T18:30:45.308Z</time>
      </trkpt>
      <trkpt lat="42.94256" lon="42.9076">
        <ele>1715.921162</ele>
        <time>2021-08-15T18:31:09.299Z</time>
      </trkpt>
      <trkpt lat="42.94252" lon="42.90778">
        <ele>1716.328086</ele>
        <time>2021-08-15T18:31:16.399Z</time>
      </trkpt>
      <trkpt lat="42.94245" lon="42.90795">
        <ele>1716.749243</ele>
        <time>2021-08-15T18:31:22.912Z</time>
      </trkpt>
      <trkpt lat="42.94211" lon="42.90845">
        <ele>1718.221898</ele>
        <time>2021-08-15T18:31:48.049Z</time>
      </trkpt>
      <trkpt lat="42.94146" lon="42.90904">
        <ele>1720.495485</ele>
        <time>2021-08-15T18:32:28.415Z</time>
      </trkpt>
      <trkpt lat="42.94031" lon="42.90979">
        <ele>1727.59244</ele>
        <time>2021-08-15T18:33:50.065Z</time>
      </trkpt>
      <trkpt lat="42.93991" lon="42.90997">
        <ele>1730.018779</ele>
        <time>2021-08-15T18:34:22.892Z</time>
      </trkpt>
      <trkpt lat="42.93939" lon="42.91005">
        <ele>1732.642197</ele>
        <time>2021-08-15T18:34:58.400Z</time>
      </trkpt>
      <trkpt lat="42.93917" lon="42.91016">
        <ele>1733.69392</ele>
        <time>2021-08-15T18:35:15.779Z</time>
      </trkpt>
      <trkpt lat="42.93909" lon="42.91021">
        <ele>1734.118077</ele>
        <time>2021-08-15T18:35:20.276Z</time>
      </trkpt>
      <trkpt lat="42.93888" lon="42.91041">
        <ele>1735.241632</ele>
        <time>2021-08-15T18:35:36.116Z</time>
      </trkpt>
      <trkpt lat="42.93883" lon="42.91051">
        <ele>1735.631189</ele>
        <time>2021-08-15T18:35:39.237Z</time>
      </trkpt>
      <trkpt lat="42.93875" lon="42.91127">
        <ele>1738.143016</ele>
        <time>2021-08-15T18:36:12.965Z</time>
      </trkpt>
      <trkpt lat="42.93868" lon="42.91154">
        <ele>1739.068983</ele>
        <time>2021-08-15T18:36:22.205Z</time>
      </trkpt>
      <trkpt lat="42.93864" lon="42.9122">
        <ele>1739.414684</ele>
        <time>2021-08-15T18:36:47.622Z</time>
      </trkpt>
      <trkpt lat="42.93862" lon="42.91238">
        <ele>1739.446073</ele>
        <time>2021-08-15T18:36:51.862Z</time>
      </trkpt>
      <trkpt lat="42.93852" lon="42.91268">
        <ele>1739.501594</ele>
        <time>2021-08-15T18:37:00.304Z</time>
      </trkpt>
      <trkpt lat="42.93838" lon="42.91309">
        <ele>1739.576226</ele>
        <time>2021-08-15T18:37:11.530Z</time>
      </trkpt>
      <trkpt lat="42.93763" lon="42.91423">
        <ele>1739.870043</ele>
        <time>2021-08-15T18:37:52.142Z</time>
      </trkpt>
      <trkpt lat="42.93752" lon="42.91432">
        <ele>1739.909305</ele>
        <time>2021-08-15T18:37:57.316Z</time>
      </trkpt>
      <trkpt lat="42.93688" lon="42.91527">
        <ele>1740.201901</ele>
        <time>2021-08-15T18:38:33.802Z</time>
      </trkpt>
      <trkpt lat="42.93664" lon="42.91545">
        <ele>1740.319032</ele>
        <time>2021-08-15T18:38:44.763Z</time>
      </trkpt>
      <trkpt lat="42.93603" lon="42.91636">
        <ele>1742.307335</ele>
        <time>2021-08-15T18:39:25.198Z</time>
      </trkpt>
      <trkpt lat="42.93539" lon="42.91693">
        <ele>1743.9995</ele>
        <time>2021-08-15T18:40:05.724Z</time>
      </trkpt>
      <trkpt lat="42.93495" lon="42.91709">
        <ele>1745.597743</ele>
        <time>2021-08-15T18:40:29.788Z</time>
      </trkpt>
      <trkpt lat="42.93472" lon="42.9172">
        <ele>1746.584845</ele>
        <time>2021-08-15T18:40:41.072Z</time>
      </trkpt>
      <trkpt lat="42.93463" lon="42.91713">
        <ele>1746.994917</ele>
        <time>2021-08-15T18:40:48.279Z</time>
      </trkpt>
      <trkpt lat="42.93458" lon="42.91721">
        <ele>1747.310241</ele>
        <time>2021-08-15T18:40:51.092Z</time>
      </trkpt>
      <trkpt lat="42.93403" lon="42.91846">
        <ele>1751.556393</ele>
        <time>2021-08-15T18:41:58.553Z</time>
      </trkpt>
      <trkpt lat="42.93391" lon="42.91852">
        <ele>1751.904725</ele>
        <time>2021-08-15T18:42:05.574Z</time>
      </trkpt>
      <trkpt lat="42.93392" lon="42.91864">
        <ele>1752.144529</ele>
        <time>2021-08-15T18:42:11.339Z</time>
      </trkpt>
      <trkpt lat="42.93382" lon="42.91878">
        <ele>1752.543201</ele>
        <time>2021-08-15T18:42:18.995Z</time>
      </trkpt>
      <trkpt lat="42.93363" lon="42.9187">
        <ele>1753.063919</ele>
        <time>2021-08-15T18:42:28.005Z</time>
      </trkpt>
      <trkpt lat="42.93374" lon="42.91895">
        <ele>1753.638004</ele>
        <time>2021-08-15T18:42:37.684Z</time>
      </trkpt>
      <trkpt lat="42.93381" lon="42.919">
        <ele>1753.858569</ele>
        <time>2021-08-15T18:42:41.487Z</time>
      </trkpt>
      <trkpt lat="42.93373" lon="42.91907">
        <ele>1754.103347</ele>
        <time>2021-08-15T18:42:46.105Z</time>
      </trkpt>
      <trkpt lat="42.93346" lon="42.91925">
        <ele>1754.942615</ele>
        <time>2021-08-15T18:43:00.792Z</time>
      </trkpt>
      <trkpt lat="42.93337" lon="42.91926">
        <ele>1755.187981</ele>
        <time>2021-08-15T18:43:04.259Z</time>
      </trkpt>
      <trkpt lat="42.93269" lon="42.91888">
        <ele>1757.096342</ele>
        <time>2021-08-15T18:43:39.635Z</time>
      </trkpt>
      <trkpt lat="42.93236" lon="42.91883">
        <ele>1757.864141</ele>
        <time>2021-08-15T18:43:56.149Z</time>
      </trkpt>
      <trkpt lat="42.93204" lon="42.91894">
        <ele>1758.643599</ele>
        <time>2021-08-15T18:44:11.606Z</time>
      </trkpt>
      <trkpt lat="42.93191" lon="42.91909">
        <ele>1759.033028</ele>
        <time>2021-08-15T18:44:18.717Z</time>
      </trkpt>
      <trkpt lat="42.93172" lon="42.91936">
        <ele>1759.676914</ele>
        <time>2021-08-15T18:44:31.064Z</time>
      </trkpt>
      <trkpt lat="42.9316" lon="42.91956">
        <ele>1760.120981</ele>
        <time>2021-08-15T18:44:40.464Z</time>
      </trkpt>
      <trkpt lat="42.93148" lon="42.91989">
        <ele>1760.948205</ele>
        <time>2021-08-15T18:44:55.248Z</time>
      </trkpt>
      <trkpt lat="42.93146" lon="42.92014">
        <ele>1762.129938</ele>
        <time>2021-08-15T18:45:05.056Z</time>
      </trkpt>
      <trkpt lat="42.93149" lon="42.92034">
        <ele>1763.124936</ele>
        <time>2021-08-15T18:45:14.112Z</time>
      </trkpt>
      <trkpt lat="42.93147" lon="42.92055">
        <ele>1764.108575</ele>
        <time>2021-08-15T18:45:22.680Z</time>
      </trkpt>
      <trkpt lat="42.93126" lon="42.92116">
        <ele>1767.331667</ele>
        <time>2021-08-15T18:45:54.245Z</time>
      </trkpt>
      <trkpt lat="42.93129" lon="42.92163">
        <ele>1769.563632</ele>
        <time>2021-08-15T18:46:23.147Z</time>
      </trkpt>
      <trkpt lat="42.93125" lon="42.92177">
        <ele>1770.30483</ele>
        <time>2021-08-15T18:46:33.774Z</time>
      </trkpt>
      <trkpt lat="42.93123" lon="42.92182">
        <ele>1770.567014</ele>
        <time>2021-08-15T18:46:37.222Z</time>
      </trkpt>
      <trkpt lat="42.93112" lon="42.92191">
        <ele>1771.409011</ele>
        <time>2021-08-15T18:46:48.462Z</time>
      </trkpt>
      <trkpt lat="42.93091" lon="42.92204">
        <ele>1772.986723</ele>
        <time>2021-08-15T18:47:08.533Z</time>
      </trkpt>
      <trkpt lat="42.93074" lon="42.92212">
        <ele>1774.31881</ele>
        <time>2021-08-15T18:47:23.556Z</time>
      </trkpt>
      <trkpt lat="42.93068" lon="42.92216">
        <ele>1774.753016</ele>
        <time>2021-08-15T18:47:28.030Z</time>
      </trkpt>
      <trkpt lat="42.93025" lon="42.92244">
        <ele>1778.268594</ele>
        <time>2021-08-15T18:48:04.912Z</time>
      </trkpt>
      <trkpt lat="42.93002" lon="42.92262">
        <ele>1780.261871</ele>
        <time>2021-08-15T18:48:25.701Z</time>
      </trkpt>
      <trkpt lat="42.92991" lon="42.9228">
        <ele>1781.515631</ele>
        <time>2021-08-15T18:48:37.971Z</time>
      </trkpt>
      <trkpt lat="42.9298" lon="42.92325">
        <ele>1784.078742</ele>
        <time>2021-08-15T18:49:01.625Z</time>
      </trkpt>
      <trkpt lat="42.92919" lon="42.92449">
        <ele>1787.407834</ele>
        <time>2021-08-15T18:50:06.968Z</time>
      </trkpt>
      <trkpt lat="42.92902" lon="42.92492">
        <ele>1788.15097</ele>
        <time>2021-08-15T18:50:19.919Z</time>
      </trkpt>
      <trkpt lat="42.92869" lon="42.92732">
        <ele>1790.404648</ele>
        <time>2021-08-15T18:51:22.689Z</time>
      </trkpt>
      <trkpt lat="42.92871" lon="42.92801">
        <ele>1790.862001</ele>
        <time>2021-08-15T18:51:47.631Z</time>
      </trkpt>
      <trkpt lat="42.92896" lon="42.92899">
        <ele>1797.827494</ele>
        <time>2021-08-15T18:52:39.352Z</time>
      </trkpt>
      <trkpt lat="42.92901" lon="42.92917">
        <ele>1799.260683</ele>
        <time>2021-08-15T18:52:56.227Z</time>
      </trkpt>
      <trkpt lat="42.9291" lon="42.92955">
        <ele>1802.100069</ele>
        <time>2021-08-15T18:53:25.117Z</time>
      </trkpt>
      <trkpt lat="42.92923" lon="42.92995">
        <ele>1805.276044</ele>
        <time>2021-08-15T18:53:55.804Z</time>
      </trkpt>
      <trkpt lat="42.92946" lon="42.93028">
        <ele>1808.564044</ele>
        <time>2021-08-15T18:54:28.591Z</time>
      </trkpt>
      <trkpt lat="42.92948" lon="42.93036">
        <ele>1809.170118</ele>
        <time>2021-08-15T18:54:38.678Z</time>
      </trkpt>
      <trkpt lat="42.92955" lon="42.93065">
        <ele>1811.206491</ele>
        <time>2021-08-15T18:54:58.800Z</time>
      </trkpt>
      <trkpt lat="42.92964" lon="42.93089">
        <ele>1812.975362</ele>
        <time>2021-08-15T18:55:22.764Z</time>
      </trkpt>
      <trkpt lat="42.92979" lon="42.93112">
        <ele>1815.055982</ele>
        <time>2021-08-15T18:55:40.638Z</time>
      </trkpt>
      <trkpt lat="42.92986" lon="42.93128">
        <ele>1816.263636</ele>
        <time>2021-08-15T18:55:58.927Z</time>
      </trkpt>
      <trkpt lat="42.92986" lon="42.93191">
        <ele>1820.451757</ele>
        <time>2021-08-15T18:56:34.831Z</time>
      </trkpt>
      <trkpt lat="42.92997" lon="42.93241">
        <ele>1823.968398</ele>
        <time>2021-08-15T18:57:03.023Z</time>
      </trkpt>
      <trkpt lat="42.93015" lon="42.93271">
        <ele>1824.488353</ele>
        <time>2021-08-15T18:57:17.067Z</time>
      </trkpt>
      <trkpt lat="42.93057" lon="42.9331">
        <ele>1822.900669</ele>
        <time>2021-08-15T18:57:32.420Z</time>
      </trkpt>
      <trkpt lat="42.93093" lon="42.93353">
        <ele>1821.40201</ele>
        <time>2021-08-15T18:57:45.986Z</time>
      </trkpt>
      <trkpt lat="42.93126" lon="42.93409">
        <ele>1819.746386</ele>
        <time>2021-08-15T18:58:00.971Z</time>
      </trkpt>
      <trkpt lat="42.93138" lon="42.9345">
        <ele>1818.59681</ele>
        <time>2021-08-15T18:58:10.204Z</time>
      </trkpt>
      <trkpt lat="42.93136" lon="42.93488">
        <ele>1817.524831</ele>
        <time>2021-08-15T18:58:18.253Z</time>
      </trkpt>
      <trkpt lat="42.93142" lon="42.93516">
        <ele>1816.68618</ele>
        <time>2021-08-15T18:58:24.571Z</time>
      </trkpt>
      <trkpt lat="42.93177" lon="42.93592">
        <ele>1814.134907</ele>
        <time>2021-08-15T18:58:44.084Z</time>
      </trkpt>
      <trkpt lat="42.93182" lon="42.93617">
        <ele>1813.410523</ele>
        <time>2021-08-15T18:58:49.917Z</time>
      </trkpt>
      <trkpt lat="42.9318" lon="42.93644">
        <ele>1812.66011</ele>
        <time>2021-08-15T18:58:56.272Z</time>
      </trkpt>
      <trkpt lat="42.93165" lon="42.93694">
        <ele>1812.753356</ele>
        <time>2021-08-15T18:59:09.535Z</time>
      </trkpt>
      <trkpt lat="42.93158" lon="42.93761">
        <ele>1813.228958</ele>
        <time>2021-08-15T18:59:30.193Z</time>
      </trkpt>
      <trkpt lat="42.93149" lon="42.93802">
        <ele>1813.532302</ele>
        <time>2021-08-15T18:59:43.995Z</time>
      </trkpt>
      <trkpt lat="42.93134" lon="42.93838">
        <ele>1813.821123</ele>
        <time>2021-08-15T18:59:58.184Z</time>
      </trkpt>
      <trkpt lat="42.93117" lon="42.93858">
        <ele>1814.043654</ele>
        <time>2021-08-15T19:00:08.475Z</time>
      </trkpt>
      <trkpt lat="42.93101" lon="42.93883">
        <ele>1814.622741</ele>
        <time>2021-08-15T19:00:22.693Z</time>
      </trkpt>
      <trkpt lat="42.93087" lon="42.93966">
        <ele>1817.020075</ele>
        <time>2021-08-15T19:00:58.475Z</time>
      </trkpt>
      <trkpt lat="42.93068" lon="42.94001">
        <ele>1818.212853</ele>
        <time>2021-08-15T19:01:17.000Z</time>
      </trkpt>
      <trkpt lat="42.93041" lon="42.94013">
        <ele>1819.296038</ele>
        <time>2021-08-15T19:01:32.970Z</time>
      </trkpt>
      <trkpt lat="42.92993" lon="42.94013">
        <ele>1821.106472</ele>
        <time>2021-08-15T19:02:01.648Z</time>
      </trkpt>
      <trkpt lat="42.92969" lon="42.94027">
        <ele>1821.784545</ele>
        <time>2021-08-15T19:02:15.216Z</time>
      </trkpt>
      <trkpt lat="42.92957" lon="42.94041">
        <ele>1822.204666</ele>
        <time>2021-08-15T19:02:23.683Z</time>
      </trkpt>
      <trkpt lat="42.92941" lon="42.94078">
        <ele>1823.028619</ele>
        <time>2021-08-15T19:02:40.353Z</time>
      </trkpt>
      <trkpt lat="42.9295" lon="42.94165">
        <ele>1824.691341</ele>
        <time>2021-08-15T19:03:11.604Z</time>
      </trkpt>
      <trkpt lat="42.92949" lon="42.94192">
        <ele>1825.219627</ele>
        <time>2021-08-15T19:03:20.812Z</time>
      </trkpt>
      <trkpt lat="42.92928" lon="42.94298">
        <ele>1826.746793</ele>
        <time>2021-08-15T19:03:56.003Z</time>
      </trkpt>
      <trkpt lat="42.92917" lon="42.94394">
        <ele>1827.934095</ele>
        <time>2021-08-15T19:04:28.587Z</time>
      </trkpt>
      <trkpt lat="42.92902" lon="42.94424">
        <ele>1828.385086</ele>
        <time>2021-08-15T19:04:41.523Z</time>
      </trkpt>
      <trkpt lat="42.9288" lon="42.94446">
        <ele>1828.894044</ele>
        <time>2021-08-15T19:04:54.055Z</time>
      </trkpt>
      <trkpt lat="42.92815" lon="42.94472">
        <ele>1830.590421</ele>
        <time>2021-08-15T19:05:24.105Z</time>
      </trkpt>
      <trkpt lat="42.92776" lon="42.94504">
        <ele>1831.746957</ele>
        <time>2021-08-15T19:05:46.606Z</time>
      </trkpt>
      <trkpt lat="42.92753" lon="42.94523">
        <ele>1832.413169</ele>
        <time>2021-08-15T19:06:00.345Z</time>
      </trkpt>
      <trkpt lat="42.92708" lon="42.94586">
        <ele>1834.721933</ele>
        <time>2021-08-15T19:06:36.853Z</time>
      </trkpt>
      <trkpt lat="42.92663" lon="42.94618">
        <ele>1837.123217</ele>
        <time>2021-08-15T19:07:06.769Z</time>
      </trkpt>
      <trkpt lat="42.92651" lon="42.94625">
        <ele>1837.741212</ele>
        <time>2021-08-15T19:07:14.350Z</time>
      </trkpt>
      <trkpt lat="42.92603" lon="42.94622">
        <ele>1840.035514</ele>
        <time>2021-08-15T19:07:43.913Z</time>
      </trkpt>
      <trkpt lat="42.92579" lon="42.94627">
        <ele>1841.1561</ele>
        <time>2021-08-15T19:07:59.281Z</time>
      </trkpt>
      <trkpt lat="42.92556" lon="42.94641">
        <ele>1842.480511</ele>
        <time>2021-08-15T19:08:17.007Z</time>
      </trkpt>
      <trkpt lat="42.925" lon="42.94704">
        <ele>1846.471659</ele>
        <time>2021-08-15T19:09:06.960Z</time>
      </trkpt>
      <trkpt lat="42.92468" lon="42.94721">
        <ele>1848.338294</ele>
        <time>2021-08-15T19:09:28.842Z</time>
      </trkpt>
      <trkpt lat="42.92427" lon="42.94725">
        <ele>1850.601287</ele>
        <time>2021-08-15T19:09:54.100Z</time>
      </trkpt>
      <trkpt lat="42.9241" lon="42.94735">
        <ele>1851.645452</ele>
        <time>2021-08-15T19:10:05.594Z</time>
      </trkpt>
      <trkpt lat="42.92381" lon="42.94779">
        <ele>1852.982347</ele>
        <time>2021-08-15T19:10:31.281Z</time>
      </trkpt>
      <trkpt lat="42.92362" lon="42.94799">
        <ele>1853.70722</ele>
        <time>2021-08-15T19:10:45.330Z</time>
      </trkpt>
      <trkpt lat="42.92326" lon="42.94821">
        <ele>1854.901922</ele>
        <time>2021-08-15T19:11:07.135Z</time>
      </trkpt>
      <trkpt lat="42.92269" lon="42.94829">
        <ele>1856.613476</ele>
        <time>2021-08-15T19:11:33.773Z</time>
      </trkpt>
      <trkpt lat="42.9224" lon="42.94823">
        <ele>1857.157335</ele>
        <time>2021-08-15T19:11:46.201Z</time>
      </trkpt>
      <trkpt lat="42.92222" lon="42.94826">
        <ele>1857.191916</ele>
        <time>2021-08-15T19:11:53.237Z</time>
      </trkpt>
      <trkpt lat="42.92203" lon="42.94839">
        <ele>1857.232452</ele>
        <time>2021-08-15T19:12:01.717Z</time>
      </trkpt>
      <trkpt lat="42.92167" lon="42.94887">
        <ele>1857.330412</ele>
        <time>2021-08-15T19:12:21.189Z</time>
      </trkpt>
      <trkpt lat="42.9209" lon="42.94956">
        <ele>1857.559321</ele>
        <time>2021-08-15T19:12:54.214Z</time>
      </trkpt>
      <trkpt lat="42.92031" lon="42.94991">
        <ele>1857.917752</ele>
        <time>2021-08-15T19:13:16.798Z</time>
      </trkpt>
      <trkpt lat="42.92003" lon="42.95033">
        <ele>1858.149721</ele>
        <time>2021-08-15T19:13:33.480Z</time>
      </trkpt>
      <trkpt lat="42.91953" lon="42.95153">
        <ele>1859.584181</ele>
        <time>2021-08-15T19:14:20.394Z</time>
      </trkpt>
      <trkpt lat="42.91939" lon="42.95166">
        <ele>1860.057894</ele>
        <time>2021-08-15T19:14:29.577Z</time>
      </trkpt>
      <trkpt lat="42.91878" lon="42.95193">
        <ele>1861.775688</ele>
        <time>2021-08-15T19:15:02.902Z</time>
      </trkpt>
      <trkpt lat="42.91833" lon="42.95245">
        <ele>1863.340356</ele>
        <time>2021-08-15T19:15:33.978Z</time>
      </trkpt>
      <trkpt lat="42.91814" lon="42.95278">
        <ele>1863.847865</ele>
        <time>2021-08-15T19:15:50.132Z</time>
      </trkpt>
      <trkpt lat="42.91811" lon="42.95307">
        <ele>1864.2029</ele>
        <time>2021-08-15T19:16:00.601Z</time>
      </trkpt>
      <trkpt lat="42.91813" lon="42.95333">
        <ele>1864.514652</ele>
        <time>2021-08-15T19:16:09.820Z</time>
      </trkpt>
      <trkpt lat="42.91891" lon="42.95489">
        <ele>1867.158255</ele>
        <time>2021-08-15T19:17:07.076Z</time>
      </trkpt>
      <trkpt lat="42.9189" lon="42.95506">
        <ele>1867.504165</ele>
        <time>2021-08-15T19:17:12.182Z</time>
      </trkpt>
      <trkpt lat="42.91875" lon="42.95556">
        <ele>1868.619131</ele>
        <time>2021-08-15T19:17:29.498Z</time>
      </trkpt>
      <trkpt lat="42.91871" lon="42.95663">
        <ele>1870.848466</ele>
        <time>2021-08-15T19:18:12.227Z</time>
      </trkpt>
      <trkpt lat="42.91876" lon="42.95692">
        <ele>1871.69834</ele>
        <time>2021-08-15T19:18:26.113Z</time>
      </trkpt>
      <trkpt lat="42.91898" lon="42.95752">
        <ele>1876.258566</ele>
        <time>2021-08-15T19:19:00.204Z</time>
      </trkpt>
      <trkpt lat="42.91902" lon="42.95778">
        <ele>1878.035667</ele>
        <time>2021-08-15T19:19:14.698Z</time>
      </trkpt>
      <trkpt lat="42.91897" lon="42.95804">
        <ele>1879.899387</ele>
        <time>2021-08-15T19:19:30.360Z</time>
      </trkpt>
      <trkpt lat="42.9186" lon="42.95887">
        <ele>1886.450798</ele>
        <time>2021-08-15T19:20:37.773Z</time>
      </trkpt>
      <trkpt lat="42.91811" lon="42.95953">
        <ele>1892.934402</ele>
        <time>2021-08-15T19:21:51.203Z</time>
      </trkpt>
      <trkpt lat="42.91789" lon="42.96007">
        <ele>1897.185447</ele>
        <time>2021-08-15T19:22:31.473Z</time>
      </trkpt>
      <trkpt lat="42.91791" lon="42.96023">
        <ele>1898.319251</ele>
        <time>2021-08-15T19:22:42.683Z</time>
      </trkpt>
      <trkpt lat="42.91815" lon="42.96057">
        <ele>1901.595992</ele>
        <time>2021-08-15T19:23:08.550Z</time>
      </trkpt>
      <trkpt lat="42.91828" lon="42.96092">
        <ele>1904.353189</ele>
        <time>2021-08-15T19:23:28.308Z</time>
      </trkpt>
      <trkpt lat="42.91845" lon="42.96108">
        <ele>1904.95438</ele>
        <time>2021-08-15T19:23:39.421Z</time>
      </trkpt>
      <trkpt lat="42.91882" lon="42.96117">
        <ele>1904.844304</ele>
        <time>2021-08-15T19:24:00.921Z</time>
      </trkpt>
      <trkpt lat="42.9192" lon="42.96142">
        <ele>1904.719199</ele>
        <time>2021-08-15T19:24:19.089Z</time>
      </trkpt>
      <trkpt lat="42.92" lon="42.9624">
        <ele>1904.101256</ele>
        <time>2021-08-15T19:24:50.708Z</time>
      </trkpt>
      <trkpt lat="42.92021" lon="42.9629">
        <ele>1903.353205</ele>
        <time>2021-08-15T19:25:03.151Z</time>
      </trkpt>
      <trkpt lat="42.92024" lon="42.96311">
        <ele>1903.071375</ele>
        <time>2021-08-15T19:25:07.801Z</time>
      </trkpt>
      <trkpt lat="42.92022" lon="42.96376">
        <ele>1902.228662</ele>
        <time>2021-08-15T19:25:24.272Z</time>
      </trkpt>
      <trkpt lat="42.92007" lon="42.96404">
        <ele>1901.775617</ele>
        <time>2021-08-15T19:25:33.234Z</time>
      </trkpt>
      <trkpt lat="42.91976" lon="42.96444">
        <ele>1901.924852</ele>
        <time>2021-08-15T19:25:52.701Z</time>
      </trkpt>
      <trkpt lat="42.9196" lon="42.96471">
        <ele>1903.0186</ele>
        <time>2021-08-15T19:26:03.531Z</time>
      </trkpt>
      <trkpt lat="42.91948" lon="42.96497">
        <ele>1904.038768</ele>
        <time>2021-08-15T19:26:16.979Z</time>
      </trkpt>
      <trkpt lat="42.91938" lon="42.96532">
        <ele>1905.240002</ele>
        <time>2021-08-15T19:26:33.384Z</time>
      </trkpt>
      <trkpt lat="42.91927" lon="42.9655">
        <ele>1906.006778</ele>
        <time>2021-08-15T19:26:42.953Z</time>
      </trkpt>
      <trkpt lat="42.91904" lon="42.96565">
        <ele>1907.110934</ele>
        <time>2021-08-15T19:27:00.178Z</time>
      </trkpt>
      <trkpt lat="42.91874" lon="42.96568">
        <ele>1908.47561</ele>
        <time>2021-08-15T19:27:21.534Z</time>
      </trkpt>
      <trkpt lat="42.91829" lon="42.96559">
        <ele>1911.156643</ele>
        <time>2021-08-15T19:27:55.005Z</time>
      </trkpt>
      <trkpt lat="42.91803" lon="42.96566">
        <ele>1912.964124</ele>
        <time>2021-08-15T19:28:14.850Z</time>
      </trkpt>
      <trkpt lat="42.91771" lon="42.96617">
        <ele>1916.346582</ele>
        <time>2021-08-15T19:28:49.430Z</time>
      </trkpt>
      <trkpt lat="42.91766" lon="42.96635">
        <ele>1917.297713</ele>
        <time>2021-08-15T19:28:59.167Z</time>
      </trkpt>
      <trkpt lat="42.91771" lon="42.96669">
        <ele>1919.048016</ele>
        <time>2021-08-15T19:29:17.647Z</time>
      </trkpt>
      <trkpt lat="42.91778" lon="42.96681">
        <ele>1919.838744</ele>
        <time>2021-08-15T19:29:25.745Z</time>
      </trkpt>
      <trkpt lat="42.91821" lon="42.96714">
        <ele>1923.082628</ele>
        <time>2021-08-15T19:30:00.538Z</time>
      </trkpt>
      <trkpt lat="42.91887" lon="42.96833">
        <ele>1930.110838</ele>
        <time>2021-08-15T19:31:17.046Z</time>
      </trkpt>
      <trkpt lat="42.91886" lon="42.96884">
        <ele>1932.509999</ele>
        <time>2021-08-15T19:31:43.262Z</time>
      </trkpt>
      <trkpt lat="42.91879" lon="42.96903">
        <ele>1933.3116</ele>
        <time>2021-08-15T19:31:53.917Z</time>
      </trkpt>
      <trkpt lat="42.91825" lon="42.96993">
        <ele>1936.441388</ele>
        <time>2021-08-15T19:32:46.456Z</time>
      </trkpt>
      <trkpt lat="42.91806" lon="42.97008">
        <ele>1937.242074</ele>
        <time>2021-08-15T19:32:58.657Z</time>
      </trkpt>
      <trkpt lat="42.91773" lon="42.97019">
        <ele>1938.49658</ele>
        <time>2021-08-15T19:33:15.532Z</time>
      </trkpt>
      <trkpt lat="42.91756" lon="42.97017">
        <ele>1939.105402</ele>
        <time>2021-08-15T19:33:22.307Z</time>
      </trkpt>
      <trkpt lat="42.91725" lon="42.96989">
        <ele>1940.114209</ele>
        <time>2021-08-15T19:33:36.956Z</time>
      </trkpt>
      <trkpt lat="42.91666" lon="42.96955">
        <ele>1941.474093</ele>
        <time>2021-08-15T19:34:03.106Z</time>
      </trkpt>
      <trkpt lat="42.91658" lon="42.96956">
        <ele>1941.635265</ele>
        <time>2021-08-15T19:34:06.322Z</time>
      </trkpt>
      <trkpt lat="42.91645" lon="42.96973">
        <ele>1942.012689</ele>
        <time>2021-08-15T19:34:14.379Z</time>
      </trkpt>
      <trkpt lat="42.91643" lon="42.96987">
        <ele>1942.232006</ele>
        <time>2021-08-15T19:34:19.298Z</time>
      </trkpt>
      <trkpt lat="42.91646" lon="42.97025">
        <ele>1942.813334</ele>
        <time>2021-08-15T19:34:33.212Z</time>
      </trkpt>
      <trkpt lat="42.9166" lon="42.97073">
        <ele>1944.043857</ele>
        <time>2021-08-15T19:34:55.186Z</time>
      </trkpt>
      <trkpt lat="42.91662" lon="42.97097">
        <ele>1945.407887</ele>
        <time>2021-08-15T19:35:06.752Z</time>
      </trkpt>
      <trkpt lat="42.91649" lon="42.97163">
        <ele>1949.162086</ele>
        <time>2021-08-15T19:35:40.631Z</time>
      </trkpt>
      <trkpt lat="42.91627" lon="42.97203">
        <ele>1951.907044</ele>
        <time>2021-08-15T19:36:08.083Z</time>
      </trkpt>
      <trkpt lat="42.91604" lon="42.97226">
        <ele>1954.078344</ele>
        <time>2021-08-15T19:36:32.302Z</time>
      </trkpt>
      <trkpt lat="42.9159" lon="42.9725">
        <ele>1955.760953</ele>
        <time>2021-08-15T19:36:51.962Z</time>
      </trkpt>
      <trkpt lat="42.91578" lon="42.97304">
        <ele>1959.453681</ele>
        <time>2021-08-15T19:37:29.463Z</time>
      </trkpt>
      <trkpt lat="42.91552" lon="42.97359">
        <ele>1964.268067</ele>
        <time>2021-08-15T19:38:13.518Z</time>
      </trkpt>
      <trkpt lat="42.91538" lon="42.97407">
        <ele>1967.98368</ele>
        <time>2021-08-15T19:38:46.299Z</time>
      </trkpt>
      <trkpt lat="42.91525" lon="42.97427">
        <ele>1969.982844</ele>
        <time>2021-08-15T19:39:04.977Z</time>
      </trkpt>
      <trkpt lat="42.91503" lon="42.97446">
        <ele>1972.574995</ele>
        <time>2021-08-15T19:39:26.442Z</time>
      </trkpt>
      <trkpt lat="42.91487" lon="42.97452">
        <ele>1974.212476</ele>
        <time>2021-08-15T19:39:40.429Z</time>
      </trkpt>
      <trkpt lat="42.9148" lon="42.97451">
        <ele>1974.932485</ele>
        <time>2021-08-15T19:39:46.557Z</time>
      </trkpt>
      <trkpt lat="42.91458" lon="42.9745">
        <ele>1976.469535</ele>
        <time>2021-08-15T19:40:04.196Z</time>
      </trkpt>
      <trkpt lat="42.91453" lon="42.97461">
        <ele>1977.091045</ele>
        <time>2021-08-15T19:40:10.840Z</time>
      </trkpt>
      <trkpt lat="42.91454" lon="42.97467">
        <ele>1977.375316</ele>
        <time>2021-08-15T19:40:14.163Z</time>
      </trkpt>
      <trkpt lat="42.91456" lon="42.97478">
        <ele>1977.976402</ele>
        <time>2021-08-15T19:40:20.392Z</time>
      </trkpt>
      <trkpt lat="42.91469" lon="42.97497">
        <ele>1979.311671</ele>
        <time>2021-08-15T19:40:34.968Z</time>
      </trkpt>
      <trkpt lat="42.91486" lon="42.97511">
        <ele>1980.733946</ele>
        <time>2021-08-15T19:40:49.518Z</time>
      </trkpt>
      <trkpt lat="42.91496" lon="42.97514">
        <ele>1981.384265</ele>
        <time>2021-08-15T19:40:57.040Z</time>
      </trkpt>
      <trkpt lat="42.91531" lon="42.97498">
        <ele>1983.972016</ele>
        <time>2021-08-15T19:41:22.342Z</time>
      </trkpt>
      <trkpt lat="42.91597" lon="42.97399">
        <ele>1989.748815</ele>
        <time>2021-08-15T19:42:25.487Z</time>
      </trkpt>
      <trkpt lat="42.91612" lon="42.97332">
        <ele>1992.209685</ele>
        <time>2021-08-15T19:42:54.629Z</time>
      </trkpt>
      <trkpt lat="42.91613" lon="42.97326">
        <ele>1992.418019</ele>
        <time>2021-08-15T19:42:57.611Z</time>
      </trkpt>
      <trkpt lat="42.91617" lon="42.97317">
        <ele>1992.78653</ele>
        <time>2021-08-15T19:43:01.730Z</time>
      </trkpt>
      <trkpt lat="42.91623" lon="42.97317">
        <ele>1993.088708</ele>
        <time>2021-08-15T19:43:05.459Z</time>
      </trkpt>
      <trkpt lat="42.91626" lon="42.97324">
        <ele>1993.359125</ele>
        <time>2021-08-15T19:43:08.803Z</time>
      </trkpt>
      <trkpt lat="42.91617" lon="42.97355">
        <ele>1994.525175</ele>
        <time>2021-08-15T19:43:23.235Z</time>
      </trkpt>
      <trkpt lat="42.91615" lon="42.97404">
        <ele>1996.270078</ele>
        <time>2021-08-15T19:43:44.884Z</time>
      </trkpt>
      <trkpt lat="42.9161" lon="42.97426">
        <ele>1997.254618</ele>
        <time>2021-08-15T19:43:55.332Z</time>
      </trkpt>
      <trkpt lat="42.91578" lon="42.97484">
        <ele>2000.351385</ele>
        <time>2021-08-15T19:44:31.254Z</time>
      </trkpt>
      <trkpt lat="42.91557" lon="42.97545">
        <ele>2003.245724</ele>
        <time>2021-08-15T19:45:04.951Z</time>
      </trkpt>
      <trkpt lat="42.91526" lon="42.9759">
        <ele>2005.893943</ele>
        <time>2021-08-15T19:45:35.128Z</time>
      </trkpt>
      <trkpt lat="42.91517" lon="42.97625">
        <ele>2007.450184</ele>
        <time>2021-08-15T19:45:54.176Z</time>
      </trkpt>
      <trkpt lat="42.91511" lon="42.97707">
        <ele>2010.786384</ele>
        <time>2021-08-15T19:46:34.560Z</time>
      </trkpt>
      <trkpt lat="42.91499" lon="42.97789">
        <ele>2014.160163</ele>
        <time>2021-08-15T19:47:14.805Z</time>
      </trkpt>
      <trkpt lat="42.91499" lon="42.97854">
        <ele>2016.675353</ele>
        <time>2021-08-15T19:47:44.664Z</time>
      </trkpt>
      <trkpt lat="42.91495" lon="42.9789">
        <ele>2017.404632</ele>
        <time>2021-08-15T19:47:59.589Z</time>
      </trkpt>
      <trkpt lat="42.91483" lon="42.9795">
        <ele>2018.663676</ele>
        <time>2021-08-15T19:48:25.026Z</time>
      </trkpt>
      <trkpt lat="42.91402" lon="42.98355">
        <ele>2024.618338</ele>
        <time>2021-08-15T19:50:44.219Z</time>
      </trkpt>
      <trkpt lat="42.91361" lon="42.98507">
        <ele>2026.027646</ele>
        <time>2021-08-15T19:51:34.283Z</time>
      </trkpt>
      <trkpt lat="42.91344" lon="42.98685">
        <ele>2028.007525</ele>
        <time>2021-08-15T19:52:31.097Z</time>
      </trkpt>
      <trkpt lat="42.91318" lon="42.98821">
        <ele>2029.849175</ele>
        <time>2021-08-15T19:53:19.387Z</time>
      </trkpt>
      <trkpt lat="42.91318" lon="42.98959">
        <ele>2032.342815</ele>
        <time>2021-08-15T19:54:11.837Z</time>
      </trkpt>
      <trkpt lat="42.91324" lon="42.99015">
        <ele>2033.378243</ele>
        <time>2021-08-15T19:54:31.520Z</time>
      </trkpt>
      <trkpt lat="42.91327" lon="42.99047">
        <ele>2033.942673</ele>
        <time>2021-08-15T19:54:44.758Z</time>
      </trkpt>
      <trkpt lat="42.91323" lon="42.99063">
        <ele>2034.213337</ele>
        <time>2021-08-15T19:54:49.193Z</time>
      </trkpt>
      <trkpt lat="42.91301" lon="42.99282">
        <ele>2037.625545</ele>
        <time>2021-08-15T19:56:05.598Z</time>
      </trkpt>
      <trkpt lat="42.91307" lon="42.99313">
        <ele>2038.463295</ele>
        <time>2021-08-15T19:56:17.023Z</time>
      </trkpt>
      <trkpt lat="42.91302" lon="42.99361">
        <ele>2039.785142</ele>
        <time>2021-08-15T19:56:35.502Z</time>
      </trkpt>
      <trkpt lat="42.91308" lon="42.99422">
        <ele>2041.430083</ele>
        <time>2021-08-15T19:57:00.137Z</time>
      </trkpt>
      <trkpt lat="42.9129" lon="42.99527">
        <ele>2044.360332</ele>
        <time>2021-08-15T19:57:46.797Z</time>
      </trkpt>
      <trkpt lat="42.91292" lon="42.99609">
        <ele>2047.558198</ele>
        <time>2021-08-15T19:58:25.405Z</time>
      </trkpt>
      <trkpt lat="42.91351" lon="42.99734">
        <ele>2053.374285</ele>
        <time>2021-08-15T19:59:38.119Z</time>
      </trkpt>
      <trkpt lat="42.91361" lon="42.99771">
        <ele>2054.469666</ele>
        <time>2021-08-15T19:59:56.504Z</time>
      </trkpt>
      <trkpt lat="42.91364" lon="42.99783">
        <ele>2054.736148</ele>
        <time>2021-08-15T20:00:00.799Z</time>
      </trkpt>
      <trkpt lat="42.91368" lon="42.99792">
        <ele>2054.968331</ele>
        <time>2021-08-15T20:00:04.768Z</time>
      </trkpt>
      <trkpt lat="42.91372" lon="42.99798">
        <ele>2055.146653</ele>
        <time>2021-08-15T20:00:08.603Z</time>
      </trkpt>
      <trkpt lat="42.91374" lon="42.99797">
        <ele>2055.219984</ele>
        <time>2021-08-15T20:00:10.303Z</time>
      </trkpt>
      <trkpt lat="42.91373" lon="42.99809">
        <ele>2055.48276</ele>
        <time>2021-08-15T20:00:14.905Z</time>
      </trkpt>
      <trkpt lat="42.91372" lon="42.99826">
        <ele>2055.862771</ele>
        <time>2021-08-15T20:00:20.842Z</time>
      </trkpt>
      <trkpt lat="42.91372" lon="42.9984">
        <ele>2056.165897</ele>
        <time>2021-08-15T20:00:26.092Z</time>
      </trkpt>
      <trkpt lat="42.91372" lon="42.99857">
        <ele>2056.544284</ele>
        <time>2021-08-15T20:00:33.100Z</time>
      </trkpt>
      <trkpt lat="42.91371" lon="42.99871">
        <ele>2056.858468</ele>
        <time>2021-08-15T20:00:37.574Z</time>
      </trkpt>
      <trkpt lat="42.91377" lon="42.99871">
        <ele>2057.030864</ele>
        <time>2021-08-15T20:00:40.477Z</time>
      </trkpt>
      <trkpt lat="42.9139" lon="42.99869">
        <ele>2057.407289</ele>
        <time>2021-08-15T20:00:47.385Z</time>
      </trkpt>
      <trkpt lat="42.9139" lon="42.99878">
        <ele>2057.602052</ele>
        <time>2021-08-15T20:00:50.260Z</time>
      </trkpt>
      <trkpt lat="42.9139" lon="42.99884">
        <ele>2057.743662</ele>
        <time>2021-08-15T20:00:52.345Z</time>
      </trkpt>
      <trkpt lat="42.9139" lon="42.99889">
        <ele>2057.847633</ele>
        <time>2021-08-15T20:00:53.598Z</time>
      </trkpt>
      <trkpt lat="42.9139" lon="42.99896">
        <ele>2058.006908</ele>
        <time>2021-08-15T20:00:56.394Z</time>
      </trkpt>
      <trkpt lat="42.91393" lon="42.99903">
        <ele>2058.174143</ele>
        <time>2021-08-15T20:00:59.184Z</time>
      </trkpt>
      <trkpt lat="42.91398" lon="42.99902">
        <ele>2058.328252</ele>
        <time>2021-08-15T20:01:01.951Z</time>
      </trkpt>
      <trkpt lat="42.91401" lon="42.99902">
        <ele>2058.421913</ele>
        <time>2021-08-15T20:01:03.932Z</time>
      </trkpt>
      <trkpt lat="42.91406" lon="42.99903">
        <ele>2058.58556</ele>
        <time>2021-08-15T20:01:06.775Z</time>
      </trkpt>
      <trkpt lat="42.91412" lon="42.99905">
        <ele>2058.767383</ele>
        <time>2021-08-15T20:01:09.525Z</time>
      </trkpt>
      <trkpt lat="42.91412" lon="42.99911">
        <ele>2058.904536</ele>
        <time>2021-08-15T20:01:11.152Z</time>
      </trkpt>
      <trkpt lat="42.91416" lon="42.99922">
        <ele>2059.159663</ele>
        <time>2021-08-15T20:01:15.330Z</time>
      </trkpt>
      <trkpt lat="42.91416" lon="42.99925">
        <ele>2059.226643</ele>
        <time>2021-08-15T20:01:16.154Z</time>
      </trkpt>
      <trkpt lat="42.91419" lon="42.99937">
        <ele>2059.41838</ele>
        <time>2021-08-15T20:01:20.870Z</time>
      </trkpt>
      <trkpt lat="42.91425" lon="42.99976">
        <ele>2059.953268</ele>
        <time>2021-08-15T20:01:32.732Z</time>
      </trkpt>
      <trkpt lat="42.91424" lon="43.00036">
        <ele>2060.757712</ele>
        <time>2021-08-15T20:01:51.200Z</time>
      </trkpt>
      <trkpt lat="42.91424" lon="43.00053">
        <ele>2060.991936</ele>
        <time>2021-08-15T20:01:56.175Z</time>
      </trkpt>
      <trkpt lat="42.91431" lon="43.00075">
        <ele>2061.302431</ele>
        <time>2021-08-15T20:02:03.043Z</time>
      </trkpt>
      <trkpt lat="42.91498" lon="43.00303">
        <ele>2066.075718</ele>
        <time>2021-08-15T20:03:36.503Z</time>
      </trkpt>
      <trkpt lat="42.91488" lon="43.00398">
        <ele>2068.294856</ele>
        <time>2021-08-15T20:04:14.756Z</time>
      </trkpt>
      <trkpt lat="42.91492" lon="43.00413">
        <ele>2068.734752</ele>
        <time>2021-08-15T20:04:21.913Z</time>
      </trkpt>
      <trkpt lat="42.9149" lon="43.00479">
        <ele>2070.492976</ele>
        <time>2021-08-15T20:04:47.720Z</time>
      </trkpt>
      <trkpt lat="42.9149" lon="43.00544">
        <ele>2072.238318</ele>
        <time>2021-08-15T20:05:12.949Z</time>
      </trkpt>
      <trkpt lat="42.91506" lon="43.00644">
        <ele>2075.038094</ele>
        <time>2021-08-15T20:05:55.504Z</time>
      </trkpt>
      <trkpt lat="42.91524" lon="43.00692">
        <ele>2077.227926</ele>
        <time>2021-08-15T20:06:18.440Z</time>
      </trkpt>
      <trkpt lat="42.91534" lon="43.00762">
        <ele>2080.140642</ele>
        <time>2021-08-15T20:06:51.349Z</time>
      </trkpt>
      <trkpt lat="42.91542" lon="43.00782">
        <ele>2081.052364</ele>
        <time>2021-08-15T20:07:02.335Z</time>
      </trkpt>
      <trkpt lat="42.91532" lon="43.00789">
        <ele>2081.634787</ele>
        <time>2021-08-15T20:07:08.493Z</time>
      </trkpt>
      <trkpt lat="42.91523" lon="43.008">
        <ele>2082.334434</ele>
        <time>2021-08-15T20:07:18.027Z</time>
      </trkpt>
      <trkpt lat="42.91515" lon="43.00813">
        <ele>2083.010139</ele>
        <time>2021-08-15T20:07:26.141Z</time>
      </trkpt>
      <trkpt lat="42.91502" lon="43.00823">
        <ele>2083.840931</ele>
        <time>2021-08-15T20:07:35.070Z</time>
      </trkpt>
      <trkpt lat="42.91503" lon="43.00829">
        <ele>2084.106913</ele>
        <time>2021-08-15T20:07:39.580Z</time>
      </trkpt>
      <trkpt lat="42.9152" lon="43.00858">
        <ele>2086.080066</ele>
        <time>2021-08-15T20:07:58.907Z</time>
      </trkpt>
      <trkpt lat="42.91527" lon="43.00887">
        <ele>2088.096891</ele>
        <time>2021-08-15T20:08:17.766Z</time>
      </trkpt>
      <trkpt lat="42.9153" lon="43.00911">
        <ele>2089.654001</ele>
        <time>2021-08-15T20:08:30.193Z</time>
      </trkpt>
      <trkpt lat="42.91525" lon="43.0093">
        <ele>2090.991643</ele>
        <time>2021-08-15T20:08:43.522Z</time>
      </trkpt>
      <trkpt lat="42.91523" lon="43.0095">
        <ele>2092.343385</ele>
        <time>2021-08-15T20:08:54.869Z</time>
      </trkpt>
      <trkpt lat="42.91519" lon="43.00953">
        <ele>2092.80844</ele>
        <time>2021-08-15T20:08:58.687Z</time>
      </trkpt>
      <trkpt lat="42.91525" lon="43.00967">
        <ele>2093.923669</ele>
        <time>2021-08-15T20:09:09.726Z</time>
      </trkpt>
      <trkpt lat="42.91523" lon="43.01002">
        <ele>2096.259735</ele>
        <time>2021-08-15T20:09:27.437Z</time>
      </trkpt>
      <trkpt lat="42.91526" lon="43.0101">
        <ele>2096.851852</ele>
        <time>2021-08-15T20:09:33.667Z</time>
      </trkpt>
      <trkpt lat="42.91522" lon="43.01016">
        <ele>2097.400769</ele>
        <time>2021-08-15T20:09:39.159Z</time>
      </trkpt>
      <trkpt lat="42.91521" lon="43.01027">
        <ele>2098.099611</ele>
        <time>2021-08-15T20:09:44.720Z</time>
      </trkpt>
      <trkpt lat="42.91516" lon="43.01055">
        <ele>2100.062977</ele>
        <time>2021-08-15T20:10:03.721Z</time>
      </trkpt>
      <trkpt lat="42.91504" lon="43.01124">
        <ele>2105.079479</ele>
        <time>2021-08-15T20:10:45.316Z</time>
      </trkpt>
      <trkpt lat="42.915" lon="43.01153">
        <ele>2107.304163</ele>
        <time>2021-08-15T20:11:05.706Z</time>
      </trkpt>
      <trkpt lat="42.91501" lon="43.01163">
        <ele>2108.009714</ele>
        <time>2021-08-15T20:11:12.571Z</time>
      </trkpt>
      <trkpt lat="42.91485" lon="43.0123">
        <ele>2113.159262</ele>
        <time>2021-08-15T20:11:58.604Z</time>
      </trkpt>
      <trkpt lat="42.91487" lon="43.01321">
        <ele>2119.749926</ele>
        <time>2021-08-15T20:12:55.015Z</time>
      </trkpt>
      <trkpt lat="42.91488" lon="43.01345">
        <ele>2121.341025</ele>
        <time>2021-08-15T20:13:11.339Z</time>
      </trkpt>
      <trkpt lat="42.91491" lon="43.01382">
        <ele>2123.891077</ele>
        <time>2021-08-15T20:13:36.541Z</time>
      </trkpt>
      <trkpt lat="42.91492" lon="43.0152">
        <ele>2133.217724</ele>
        <time>2021-08-15T20:14:58.933Z</time>
      </trkpt>
      <trkpt lat="42.91493" lon="43.01553">
        <ele>2135.449766</ele>
        <time>2021-08-15T20:15:19.788Z</time>
      </trkpt>
      <trkpt lat="42.91498" lon="43.01577">
        <ele>2136.580544</ele>
        <time>2021-08-15T20:15:35.087Z</time>
      </trkpt>
      <trkpt lat="42.91518" lon="43.01696">
        <ele>2141.995076</ele>
        <time>2021-08-15T20:16:38.181Z</time>
      </trkpt>
      <trkpt lat="42.91525" lon="43.0177">
        <ele>2145.300923</ele>
        <time>2021-08-15T20:17:13.360Z</time>
      </trkpt>
      <trkpt lat="42.91526" lon="43.01788">
        <ele>2146.098226</ele>
        <time>2021-08-15T20:17:20.078Z</time>
      </trkpt>
      <trkpt lat="42.9154" lon="43.01828">
        <ele>2147.078389</ele>
        <time>2021-08-15T20:17:35.952Z</time>
      </trkpt>
      <trkpt lat="42.91565" lon="43.01859">
        <ele>2147.863188</ele>
        <time>2021-08-15T20:17:51.708Z</time>
      </trkpt>
      <trkpt lat="42.91579" lon="43.01887">
        <ele>2148.434457</ele>
        <time>2021-08-15T20:18:02.781Z</time>
      </trkpt>
      <trkpt lat="42.91581" lon="43.01894">
        <ele>2148.567937</ele>
        <time>2021-08-15T20:18:05.869Z</time>
      </trkpt>
      <trkpt lat="42.91577" lon="43.01898">
        <ele>2148.683176</ele>
        <time>2021-08-15T20:18:07.685Z</time>
      </trkpt>
      <trkpt lat="42.91525" lon="43.01932">
        <ele>2150.018184</ele>
        <time>2021-08-15T20:18:32.871Z</time>
      </trkpt>
      <trkpt lat="42.91505" lon="43.01938">
        <ele>2150.5103</ele>
        <time>2021-08-15T20:18:42.113Z</time>
      </trkpt>
      <trkpt lat="42.915" lon="43.0195">
        <ele>2150.898097</ele>
        <time>2021-08-15T20:18:47.628Z</time>
      </trkpt>
      <trkpt lat="42.91463" lon="43.02">
        <ele>2153.746115</ele>
        <time>2021-08-15T20:19:18.029Z</time>
      </trkpt>
      <trkpt lat="42.91454" lon="43.02063">
        <ele>2156.298342</ele>
        <time>2021-08-15T20:19:46.371Z</time>
      </trkpt>
      <trkpt lat="42.91452" lon="43.02084">
        <ele>2157.119401</ele>
        <time>2021-08-15T20:19:57.401Z</time>
      </trkpt>
      <trkpt lat="42.91449" lon="43.02108">
        <ele>2158.097493</ele>
        <time>2021-08-15T20:20:08.735Z</time>
      </trkpt>
      <trkpt lat="42.91441" lon="43.02179">
        <ele>2161.360124</ele>
        <time>2021-08-15T20:20:49.697Z</time>
      </trkpt>
      <trkpt lat="42.91422" lon="43.02256">
        <ele>2166.9174</ele>
        <time>2021-08-15T20:21:39.611Z</time>
      </trkpt>
      <trkpt lat="42.91372" lon="43.02411">
        <ele>2178.412637</ele>
        <time>2021-08-15T20:23:25.821Z</time>
      </trkpt>
      <trkpt lat="42.91369" lon="43.02498">
        <ele>2184.718782</ele>
        <time>2021-08-15T20:24:21.112Z</time>
      </trkpt>
      <trkpt lat="42.91358" lon="43.02597">
        <ele>2191.850942</ele>
        <time>2021-08-15T20:25:25.753Z</time>
      </trkpt>
      <trkpt lat="42.91348" lon="43.02629">
        <ele>2194.323521</ele>
        <time>2021-08-15T20:25:47.611Z</time>
      </trkpt>
      <trkpt lat="42.91331" lon="43.02661">
        <ele>2196.649116</ele>
        <time>2021-08-15T20:26:11.515Z</time>
      </trkpt>
      <trkpt lat="42.91317" lon="43.02676">
        <ele>2198.059779</ele>
        <time>2021-08-15T20:26:25.623Z</time>
      </trkpt>
      <trkpt lat="42.91273" lon="43.0269">
        <ele>2201.604548</ele>
        <time>2021-08-15T20:26:59.543Z</time>
      </trkpt>
      <trkpt lat="42.91263" lon="43.02701">
        <ele>2202.601325</ele>
        <time>2021-08-15T20:27:08.975Z</time>
      </trkpt>
      <trkpt lat="42.9125" lon="43.02744">
        <ele>2205.274682</ele>
        <time>2021-08-15T20:27:34.355Z</time>
      </trkpt>
      <trkpt lat="42.91246" lon="43.02804">
        <ele>2208.773051</ele>
        <time>2021-08-15T20:28:07.543Z</time>
      </trkpt>
      <trkpt lat="42.91232" lon="43.02832">
        <ele>2210.644412</ele>
        <time>2021-08-15T20:28:24.834Z</time>
      </trkpt>
      <trkpt lat="42.91223" lon="43.02861">
        <ele>2212.417106</ele>
        <time>2021-08-15T20:28:41.073Z</time>
      </trkpt>
      <trkpt lat="42.9119" lon="43.02908">
        <ele>2216.068455</ele>
        <time>2021-08-15T20:29:13.549Z</time>
      </trkpt>
      <trkpt lat="42.9117" lon="43.02977">
        <ele>2220.200778</ele>
        <time>2021-08-15T20:29:53.924Z</time>
      </trkpt>
      <trkpt lat="42.91166" lon="43.03006">
        <ele>2221.846987</ele>
        <time>2021-08-15T20:30:11.381Z</time>
      </trkpt>
      <trkpt lat="42.91172" lon="43.03059">
        <ele>2226.016765</ele>
        <time>2021-08-15T20:30:47.370Z</time>
      </trkpt>
      <trkpt lat="42.91171" lon="43.03103">
        <ele>2229.612595</ele>
        <time>2021-08-15T20:31:17.621Z</time>
      </trkpt>
      <trkpt lat="42.91162" lon="43.03145">
        <ele>2233.23737</ele>
        <time>2021-08-15T20:31:49.188Z</time>
      </trkpt>
      <trkpt lat="42.91178" lon="43.03189">
        <ele>2237.347782</ele>
        <time>2021-08-15T20:32:25.014Z</time>
      </trkpt>
      <trkpt lat="42.91171" lon="43.0326">
        <ele>2243.189255</ele>
        <time>2021-08-15T20:33:16.150Z</time>
      </trkpt>
      <trkpt lat="42.91169" lon="43.03363">
        <ele>2249.471877</ele>
        <time>2021-08-15T20:34:24.762Z</time>
      </trkpt>
      <trkpt lat="42.91166" lon="43.03373">
        <ele>2250.160165</ele>
        <time>2021-08-15T20:34:31.671Z</time>
      </trkpt>
      <trkpt lat="42.91101" lon="43.03451">
        <ele>2257.443839</ele>
        <time>2021-08-15T20:35:34.581Z</time>
      </trkpt>
      <trkpt lat="42.91041" lon="43.03602">
        <ele>2260.854719</ele>
        <time>2021-08-15T20:36:38.253Z</time>
      </trkpt>
      <trkpt lat="42.91027" lon="43.03705">
        <ele>2262.269796</ele>
        <time>2021-08-15T20:37:09.480Z</time>
      </trkpt>
      <trkpt lat="42.91031" lon="43.03747">
        <ele>2262.139808</ele>
        <time>2021-08-15T20:37:21.208Z</time>
      </trkpt>
      <trkpt lat="42.91027" lon="43.03768">
        <ele>2262.071868</ele>
        <time>2021-08-15T20:37:27.199Z</time>
      </trkpt>
      <trkpt lat="42.91011" lon="43.03796">
        <ele>2261.963471</ele>
        <time>2021-08-15T20:37:36.502Z</time>
      </trkpt>
      <trkpt lat="42.90989" lon="43.03853">
        <ele>2261.765178</ele>
        <time>2021-08-15T20:37:53.299Z</time>
      </trkpt>
      <trkpt lat="42.9095" lon="43.0403">
        <ele>2259.996039</ele>
        <time>2021-08-15T20:38:39.097Z</time>
      </trkpt>
      <trkpt lat="42.9095" lon="43.04071">
        <ele>2259.486021</ele>
        <time>2021-08-15T20:38:48.726Z</time>
      </trkpt>
      <trkpt lat="42.90967" lon="43.04191">
        <ele>2257.802923</ele>
        <time>2021-08-15T20:39:17.632Z</time>
      </trkpt>
      <trkpt lat="42.9096" lon="43.04271">
        <ele>2256.510458</ele>
        <time>2021-08-15T20:39:36.720Z</time>
      </trkpt>
      <trkpt lat="42.90984" lon="43.04426">
        <ele>2254.175726</ele>
        <time>2021-08-15T20:40:14.164Z</time>
      </trkpt>
      <trkpt lat="42.90995" lon="43.04464">
        <ele>2253.712501</ele>
        <time>2021-08-15T20:40:24.326Z</time>
      </trkpt>
      <trkpt lat="42.91027" lon="43.04507">
        <ele>2253.040604</ele>
        <time>2021-08-15T20:40:39.128Z</time>
      </trkpt>
      <trkpt lat="42.91058" lon="43.04592">
        <ele>2251.995525</ele>
        <time>2021-08-15T20:41:02.604Z</time>
      </trkpt>
      <trkpt lat="42.91058" lon="43.04608">
        <ele>2251.892414</ele>
        <time>2021-08-15T20:41:06.786Z</time>
      </trkpt>
      <trkpt lat="42.91036" lon="43.04678">
        <ele>2252.399626</ele>
        <time>2021-08-15T20:41:26.373Z</time>
      </trkpt>
      <trkpt lat="42.91036" lon="43.04704">
        <ele>2252.570714</ele>
        <time>2021-08-15T20:41:33.373Z</time>
      </trkpt>
      <trkpt lat="42.91061" lon="43.04862">
        <ele>2254.398123</ele>
        <time>2021-08-15T20:42:27.394Z</time>
      </trkpt>
      <trkpt lat="42.91081" lon="43.04907">
        <ele>2256.521944</ele>
        <time>2021-08-15T20:42:50.824Z</time>
      </trkpt>
      <trkpt lat="42.911" lon="43.04925">
        <ele>2257.78886</ele>
        <time>2021-08-15T20:43:06.086Z</time>
      </trkpt>
      <trkpt lat="42.91125" lon="43.04931">
        <ele>2259.153235</ele>
        <time>2021-08-15T20:43:22.997Z</time>
      </trkpt>
      <trkpt lat="42.91141" lon="43.04944">
        <ele>2260.186123</ele>
        <time>2021-08-15T20:43:35.975Z</time>
      </trkpt>
      <trkpt lat="42.91183" lon="43.04998">
        <ele>2263.319048</ele>
        <time>2021-08-15T20:44:18.044Z</time>
      </trkpt>
      <trkpt lat="42.9121" lon="43.05046">
        <ele>2266.124866</ele>
        <time>2021-08-15T20:44:51.183Z</time>
      </trkpt>
      <trkpt lat="42.91219" lon="43.05087">
        <ele>2268.071868</ele>
        <time>2021-08-15T20:45:13.484Z</time>
      </trkpt>
      <trkpt lat="42.91214" lon="43.05133">
        <ele>2270.233468</ele>
        <time>2021-08-15T20:45:37.548Z</time>
      </trkpt>
      <trkpt lat="42.91217" lon="43.05211">
        <ele>2273.859327</ele>
        <time>2021-08-15T20:46:15.474Z</time>
      </trkpt>
      <trkpt lat="42.91224" lon="43.05288">
        <ele>2276.731652</ele>
        <time>2021-08-15T20:46:49.469Z</time>
      </trkpt>
      <trkpt lat="42.91241" lon="43.05403">
        <ele>2280.747958</ele>
        <time>2021-08-15T20:47:40.194Z</time>
      </trkpt>
      <trkpt lat="42.91241" lon="43.05462">
        <ele>2282.747223</ele>
        <time>2021-08-15T20:48:05.646Z</time>
      </trkpt>
      <trkpt lat="42.91273" lon="43.0556">
        <ele>2285.950517</ele>
        <time>2021-08-15T20:48:55.244Z</time>
      </trkpt>
      <trkpt lat="42.9128" lon="43.05612">
        <ele>2287.508921</ele>
        <time>2021-08-15T20:49:18.634Z</time>
      </trkpt>
      <trkpt lat="42.91272" lon="43.05664">
        <ele>2289.054377</ele>
        <time>2021-08-15T20:49:40.111Z</time>
      </trkpt>
      <trkpt lat="42.91272" lon="43.05729">
        <ele>2290.47357</ele>
        <time>2021-08-15T20:50:04.602Z</time>
      </trkpt>
      <trkpt lat="42.91254" lon="43.05784">
        <ele>2290.937296</ele>
        <time>2021-08-15T20:50:23.285Z</time>
      </trkpt>
      <trkpt lat="42.91248" lon="43.05795">
        <ele>2291.046026</ele>
        <time>2021-08-15T20:50:26.549Z</time>
      </trkpt>
      <trkpt lat="42.91214" lon="43.05846">
        <ele>2291.590458</ele>
        <time>2021-08-15T20:50:45.593Z</time>
      </trkpt>
      <trkpt lat="42.91195" lon="43.05863">
        <ele>2291.826329</ele>
        <time>2021-08-15T20:50:54.949Z</time>
      </trkpt>
      <trkpt lat="42.91175" lon="43.05865">
        <ele>2292.040586</ele>
        <time>2021-08-15T20:51:03.590Z</time>
      </trkpt>
      <trkpt lat="42.91155" lon="43.05888">
        <ele>2292.636438</ele>
        <time>2021-08-15T20:51:15.076Z</time>
      </trkpt>
      <trkpt lat="42.91138" lon="43.05942">
        <ele>2294.340693</ele>
        <time>2021-08-15T20:51:33.622Z</time>
      </trkpt>
      <trkpt lat="42.91122" lon="43.06015">
        <ele>2296.540495</ele>
        <time>2021-08-15T20:52:04.488Z</time>
      </trkpt>
      <trkpt lat="42.91124" lon="43.06103">
        <ele>2299.101585</ele>
        <time>2021-08-15T20:52:46.295Z</time>
      </trkpt>
      <trkpt lat="42.91115" lon="43.0613">
        <ele>2300.690644</ele>
        <time>2021-08-15T20:53:01.745Z</time>
      </trkpt>
      <trkpt lat="42.91094" lon="43.06161">
        <ele>2303.33583</ele>
        <time>2021-08-15T20:53:27.655Z</time>
      </trkpt>
      <trkpt lat="42.91086" lon="43.06211">
        <ele>2306.50266</ele>
        <time>2021-08-15T20:53:57.907Z</time>
      </trkpt>
      <trkpt lat="42.91039" lon="43.0633">
        <ele>2314.984685</ele>
        <time>2021-08-15T20:55:18.345Z</time>
      </trkpt>
      <trkpt lat="42.91037" lon="43.06356">
        <ele>2317.059064</ele>
        <time>2021-08-15T20:55:34.777Z</time>
      </trkpt>
      <trkpt lat="42.91041" lon="43.06408">
        <ele>2321.200566</ele>
        <time>2021-08-15T20:56:08.528Z</time>
      </trkpt>
      <trkpt lat="42.91034" lon="43.06438">
        <ele>2323.705352</ele>
        <time>2021-08-15T20:56:29.454Z</time>
      </trkpt>
      <trkpt lat="42.91033" lon="43.06516">
        <ele>2329.955708</ele>
        <time>2021-08-15T20:57:23.487Z</time>
      </trkpt>
      <trkpt lat="42.91034" lon="43.06579">
        <ele>2335.1677</ele>
        <time>2021-08-15T20:58:08.979Z</time>
      </trkpt>
      <trkpt lat="42.91042" lon="43.06622">
        <ele>2339.241757</ele>
        <time>2021-08-15T20:58:40.898Z</time>
      </trkpt>
      <trkpt lat="42.91041" lon="43.06657">
        <ele>2342.494108</ele>
        <time>2021-08-15T20:59:06.557Z</time>
      </trkpt>
      <trkpt lat="42.91033" lon="43.06692">
        <ele>2345.823063</ele>
        <time>2021-08-15T20:59:33.255Z</time>
      </trkpt>
      <trkpt lat="42.91033" lon="43.06727">
        <ele>2349.074538</ele>
        <time>2021-08-15T20:59:59.373Z</time>
      </trkpt>
      <trkpt lat="42.91041" lon="43.06794">
        <ele>2355.335286</ele>
        <time>2021-08-15T21:00:50.059Z</time>
      </trkpt>
      <trkpt lat="42.91025" lon="43.06878">
        <ele>2363.271393</ele>
        <time>2021-08-15T21:01:54.945Z</time>
      </trkpt>
      <trkpt lat="42.9103" lon="43.06908">
        <ele>2366.077921</ele>
        <time>2021-08-15T21:02:17.911Z</time>
      </trkpt>
      <trkpt lat="42.91039" lon="43.0693">
        <ele>2368.355618</ele>
        <time>2021-08-15T21:02:35.914Z</time>
      </trkpt>
      <trkpt lat="42.91045" lon="43.06942">
        <ele>2369.62748</ele>
        <time>2021-08-15T21:02:46.353Z</time>
      </trkpt>
      <trkpt lat="42.91048" lon="43.06972">
        <ele>2372.472458</ele>
        <time>2021-08-15T21:03:08.958Z</time>
      </trkpt>
      <trkpt lat="42.91061" lon="43.07002">
        <ele>2375.703979</ele>
        <time>2021-08-15T21:03:35.008Z</time>
      </trkpt>
      <trkpt lat="42.91077" lon="43.07065">
        <ele>2381.350917</ele>
        <time>2021-08-15T21:04:22.474Z</time>
      </trkpt>
      <trkpt lat="42.91139" lon="43.07201">
        <ele>2393.537606</ele>
        <time>2021-08-15T21:06:07.660Z</time>
      </trkpt>
      <trkpt lat="42.91159" lon="43.07228">
        <ele>2396.504813</ele>
        <time>2021-08-15T21:06:31.473Z</time>
      </trkpt>
      <trkpt lat="42.9117" lon="43.07252">
        <ele>2398.555202</ele>
        <time>2021-08-15T21:06:48.283Z</time>
      </trkpt>
      <trkpt lat="42.91179" lon="43.07299">
        <ele>2401.706033</ele>
        <time>2021-08-15T21:07:17.383Z</time>
      </trkpt>
      <trkpt lat="42.912" lon="43.07329">
        <ele>2404.323761</ele>
        <time>2021-08-15T21:07:41.235Z</time>
      </trkpt>
      <trkpt lat="42.91196" lon="43.07397">
        <ele>2408.754644</ele>
        <time>2021-08-15T21:08:21.194Z</time>
      </trkpt>
      <trkpt lat="42.91204" lon="43.0745">
        <ele>2412.204385</ele>
        <time>2021-08-15T21:08:52.257Z</time>
      </trkpt>
      <trkpt lat="42.91205" lon="43.07531">
        <ele>2418.110103</ele>
        <time>2021-08-15T21:09:41.943Z</time>
      </trkpt>
      <trkpt lat="42.91224" lon="43.07571">
        <ele>2421.689968</ele>
        <time>2021-08-15T21:10:12.200Z</time>
      </trkpt>
      <trkpt lat="42.91227" lon="43.07611">
        <ele>2424.777479</ele>
        <time>2021-08-15T21:10:38.869Z</time>
      </trkpt>
      <trkpt lat="42.91244" lon="43.07671">
        <ele>2429.648674</ele>
        <time>2021-08-15T21:11:22.199Z</time>
      </trkpt>
      <trkpt lat="42.91246" lon="43.07736">
        <ele>2434.926324</ele>
        <time>2021-08-15T21:12:07.642Z</time>
      </trkpt>
      <trkpt lat="42.91283" lon="43.07942">
        <ele>2453.465246</ele>
        <time>2021-08-15T21:14:39.553Z</time>
      </trkpt>
      <trkpt lat="42.91311" lon="43.07986">
        <ele>2458.516107</ele>
        <time>2021-08-15T21:15:21.784Z</time>
      </trkpt>
      <trkpt lat="42.91319" lon="43.08015">
        <ele>2461.102701</ele>
        <time>2021-08-15T21:15:43.141Z</time>
      </trkpt>
      <trkpt lat="42.91309" lon="43.08041">
        <ele>2463.659679</ele>
        <time>2021-08-15T21:16:03.914Z</time>
      </trkpt>
      <trkpt lat="42.91268" lon="43.08093">
        <ele>2470.148167</ele>
        <time>2021-08-15T21:16:57.764Z</time>
      </trkpt>
      <trkpt lat="42.91275" lon="43.0816">
        <ele>2475.845859</ele>
        <time>2021-08-15T21:17:45.633Z</time>
      </trkpt>
      <trkpt lat="42.91273" lon="43.08196">
        <ele>2478.3955</ele>
        <time>2021-08-15T21:18:08.465Z</time>
      </trkpt>
      <trkpt lat="42.91262" lon="43.08225">
        <ele>2480.754107</ele>
        <time>2021-08-15T21:18:28.961Z</time>
      </trkpt>
      <trkpt lat="42.91249" lon="43.08309">
        <ele>2487.009588</ele>
        <time>2021-08-15T21:19:23.481Z</time>
      </trkpt>
      <trkpt lat="42.91247" lon="43.08322">
        <ele>2487.910588</ele>
        <time>2021-08-15T21:19:29.907Z</time>
      </trkpt>
      <trkpt lat="42.91225" lon="43.08358">
        <ele>2491.30307</ele>
        <time>2021-08-15T21:19:58.359Z</time>
      </trkpt>
      <trkpt lat="42.91209" lon="43.08463">
        <ele>2499.413293</ele>
        <time>2021-08-15T21:21:06.323Z</time>
      </trkpt>
      <trkpt lat="42.9121" lon="43.08475">
        <ele>2500.33332</ele>
        <time>2021-08-15T21:21:14.281Z</time>
      </trkpt>
      <trkpt lat="42.91217" lon="43.08495">
        <ele>2501.992134</ele>
        <time>2021-08-15T21:21:28.233Z</time>
      </trkpt>
      <trkpt lat="42.91246" lon="43.0853">
        <ele>2505.962734</ele>
        <time>2021-08-15T21:22:01.340Z</time>
      </trkpt>
      <trkpt lat="42.91296" lon="43.08632">
        <ele>2516.343694</ele>
        <time>2021-08-15T21:23:26.945Z</time>
      </trkpt>
      <trkpt lat="42.91327" lon="43.08668">
        <ele>2521.812253</ele>
        <time>2021-08-15T21:24:07.353Z</time>
      </trkpt>
      <trkpt lat="42.91346" lon="43.08719">
        <ele>2527.372314</ele>
        <time>2021-08-15T21:24:52.301Z</time>
      </trkpt>
      <trkpt lat="42.91359" lon="43.08821">
        <ele>2537.670983</ele>
        <time>2021-08-15T21:26:17.396Z</time>
      </trkpt>
      <trkpt lat="42.91359" lon="43.08881">
        <ele>2544.006146</ele>
        <time>2021-08-15T21:27:04.618Z</time>
      </trkpt>
      <trkpt lat="42.91363" lon="43.08885">
        <ele>2544.661065</ele>
        <time>2021-08-15T21:27:11.546Z</time>
      </trkpt>
      <trkpt lat="42.91383" lon="43.08935">
        <ele>2550.590228</ele>
        <time>2021-08-15T21:27:56.018Z</time>
      </trkpt>
      <trkpt lat="42.91416" lon="43.08989">
        <ele>2558.039484</ele>
        <time>2021-08-15T21:28:52.360Z</time>
      </trkpt>
      <trkpt lat="42.9142" lon="43.0909">
        <ele>2566.719626</ele>
        <time>2021-08-15T21:30:13.711Z</time>
      </trkpt>
      <trkpt lat="42.91416" lon="43.09178">
        <ele>2573.481625</ele>
        <time>2021-08-15T21:31:10.720Z</time>
      </trkpt>
      <trkpt lat="42.9141" lon="43.09255">
        <ele>2579.390878</ele>
        <time>2021-08-15T21:31:54.353Z</time>
      </trkpt>
      <trkpt lat="42.91424" lon="43.09316">
        <ele>2582.053238</ele>
        <time>2021-08-15T21:32:28.049Z</time>
      </trkpt>
      <trkpt lat="42.91457" lon="43.09371">
        <ele>2584.613488</ele>
        <time>2021-08-15T21:33:01.242Z</time>
      </trkpt>
      <trkpt lat="42.91483" lon="43.09438">
        <ele>2587.322027</ele>
        <time>2021-08-15T21:33:31.042Z</time>
      </trkpt>
      <trkpt lat="42.91488" lon="43.09455">
        <ele>2587.976931</ele>
        <time>2021-08-15T21:33:38.474Z</time>
      </trkpt>
      <trkpt lat="42.91488" lon="43.09557">
        <ele>2591.034865</ele>
        <time>2021-08-15T21:34:18.092Z</time>
      </trkpt>
      <trkpt lat="42.91515" lon="43.09749">
        <ele>2596.622988</ele>
        <time>2021-08-15T21:35:39.671Z</time>
      </trkpt>
      <trkpt lat="42.91516" lon="43.09838">
        <ele>2599.436119</ele>
        <time>2021-08-15T21:36:20.727Z</time>
      </trkpt>
      <trkpt lat="42.91517" lon="43.09856">
        <ele>2599.994355</ele>
        <time>2021-08-15T21:36:29.076Z</time>
      </trkpt>
      <trkpt lat="42.91529" lon="43.09949">
        <ele>2603.012366</ele>
        <time>2021-08-15T21:37:13.214Z</time>
      </trkpt>
      <trkpt lat="42.91552" lon="43.10272">
        <ele>2602.617084</ele>
        <time>2021-08-15T21:38:55.429Z</time>
      </trkpt>
      <trkpt lat="42.91555" lon="43.10298">
        <ele>2601.229434</ele>
        <time>2021-08-15T21:39:00.675Z</time>
      </trkpt>
      <trkpt lat="42.91559" lon="43.10341">
        <ele>2598.990666</ele>
        <time>2021-08-15T21:39:08.716Z</time>
      </trkpt>
      <trkpt lat="42.91556" lon="43.10434">
        <ele>2594.059076</ele>
        <time>2021-08-15T21:39:26.224Z</time>
      </trkpt>
      <trkpt lat="42.91548" lon="43.10451">
        <ele>2592.999162</ele>
        <time>2021-08-15T21:39:30.212Z</time>
      </trkpt>
      <trkpt lat="42.91543" lon="43.10465">
        <ele>2591.784074</ele>
        <time>2021-08-15T21:39:32.940Z</time>
      </trkpt>
      <trkpt lat="42.91539" lon="43.10477">
        <ele>2590.754214</ele>
        <time>2021-08-15T21:39:35.238Z</time>
      </trkpt>
      <trkpt lat="42.91533" lon="43.10552">
        <ele>2584.693748</ele>
        <time>2021-08-15T21:39:49.094Z</time>
      </trkpt>
      <trkpt lat="42.91547" lon="43.10611">
        <ele>2579.675471</ele>
        <time>2021-08-15T21:40:00.522Z</time>
      </trkpt>
      <trkpt lat="42.91643" lon="43.10758">
        <ele>2565.567418</ele>
        <time>2021-08-15T21:40:38.435Z</time>
      </trkpt>
      <trkpt lat="42.91772" lon="43.10995">
        <ele>2544.580867</ele>
        <time>2021-08-15T21:41:35.069Z</time>
      </trkpt>
      <trkpt lat="42.91833" lon="43.11284">
        <ele>2517.393454</ele>
        <time>2021-08-15T21:42:29.826Z</time>
      </trkpt>
      <trkpt lat="42.91882" lon="43.11423">
        <ele>2501.538182</ele>
        <time>2021-08-15T21:42:57.458Z</time>
      </trkpt>
      <trkpt lat="42.91935" lon="43.11572">
        <ele>2483.991175</ele>
        <time>2021-08-15T21:43:26.923Z</time>
      </trkpt>
      <trkpt lat="42.91942" lon="43.11626">
        <ele>2478.012526</ele>
        <time>2021-08-15T21:43:36.516Z</time>
      </trkpt>
      <trkpt lat="42.9196" lon="43.1167">
        <ele>2472.403828</ele>
        <time>2021-08-15T21:43:45.495Z</time>
      </trkpt>
      <trkpt lat="42.91971" lon="43.11717">
        <ele>2466.987685</ele>
        <time>2021-08-15T21:43:54.224Z</time>
      </trkpt>
      <trkpt lat="42.9198" lon="43.11809">
        <ele>2458.394875</ele>
        <time>2021-08-15T21:44:10.931Z</time>
      </trkpt>
      <trkpt lat="42.92001" lon="43.11837">
        <ele>2455.327437</ele>
        <time>2021-08-15T21:44:18.161Z</time>
      </trkpt>
      <trkpt lat="42.92009" lon="43.11859">
        <ele>2453.404359</ele>
        <time>2021-08-15T21:44:22.730Z</time>
      </trkpt>
      <trkpt lat="42.92024" lon="43.11986">
        <ele>2443.39487</ele>
        <time>2021-08-15T21:44:47.386Z</time>
      </trkpt>
      <trkpt lat="42.92032" lon="43.12015">
        <ele>2442.35583</ele>
        <time>2021-08-15T21:44:53.740Z</time>
      </trkpt>
      <trkpt lat="42.92039" lon="43.12025">
        <ele>2441.908131</ele>
        <time>2021-08-15T21:44:56.607Z</time>
      </trkpt>
      <trkpt lat="42.92053" lon="43.12023">
        <ele>2441.278545</ele>
        <time>2021-08-15T21:45:00.723Z</time>
      </trkpt>
      <trkpt lat="42.92125" lon="43.11958">
        <ele>2437.488583</ele>
        <time>2021-08-15T21:45:26.658Z</time>
      </trkpt>
      <trkpt lat="42.9217" lon="43.1194">
        <ele>2435.435268</ele>
        <time>2021-08-15T21:45:41.286Z</time>
      </trkpt>
      <trkpt lat="42.92272" lon="43.11858">
        <ele>2431.923129</ele>
        <time>2021-08-15T21:46:18.954Z</time>
      </trkpt>
      <trkpt lat="42.92336" lon="43.11754">
        <ele>2427.062384</ele>
        <time>2021-08-15T21:46:49.863Z</time>
      </trkpt>
      <trkpt lat="42.9239" lon="43.11572">
        <ele>2415.391279</ele>
        <time>2021-08-15T21:47:27.798Z</time>
      </trkpt>
      <trkpt lat="42.92429" lon="43.11464">
        <ele>2400.593393</ele>
        <time>2021-08-15T21:47:49.107Z</time>
      </trkpt>
      <trkpt lat="42.92449" lon="43.1143">
        <ele>2395.351942</ele>
        <time>2021-08-15T21:47:56.489Z</time>
      </trkpt>
      <trkpt lat="42.92503" lon="43.11371">
        <ele>2383.749221</ele>
        <time>2021-08-15T21:48:12.620Z</time>
      </trkpt>
      <trkpt lat="42.92608" lon="43.11295">
        <ele>2363.580901</ele>
        <time>2021-08-15T21:48:40.747Z</time>
      </trkpt>
      <trkpt lat="42.9271" lon="43.11278">
        <ele>2348.749107</ele>
        <time>2021-08-15T21:49:05.994Z</time>
      </trkpt>
      <trkpt lat="42.92735" lon="43.11285">
        <ele>2345.640769</ele>
        <time>2021-08-15T21:49:12.352Z</time>
      </trkpt>
      <trkpt lat="42.92774" lon="43.11343">
        <ele>2338.743906</ele>
        <time>2021-08-15T21:49:27.187Z</time>
      </trkpt>
      <trkpt lat="42.92776" lon="43.11346">
        <ele>2338.403256</ele>
        <time>2021-08-15T21:49:27.855Z</time>
      </trkpt>
      <trkpt lat="42.92779" lon="43.11356">
        <ele>2337.501797</ele>
        <time>2021-08-15T21:49:29.673Z</time>
      </trkpt>
      <trkpt lat="42.92787" lon="43.11387">
        <ele>2334.595903</ele>
        <time>2021-08-15T21:49:36.222Z</time>
      </trkpt>
      <trkpt lat="42.92788" lon="43.11394">
        <ele>2333.980986</ele>
        <time>2021-08-15T21:49:37.430Z</time>
      </trkpt>
      <trkpt lat="42.92788" lon="43.11399">
        <ele>2333.514435</ele>
        <time>2021-08-15T21:49:38.330Z</time>
      </trkpt>
      <trkpt lat="42.9277" lon="43.11489">
        <ele>2326.168633</ele>
        <time>2021-08-15T21:49:56.033Z</time>
      </trkpt>
      <trkpt lat="42.92752" lon="43.11548">
        <ele>2321.246905</ele>
        <time>2021-08-15T21:50:07.633Z</time>
      </trkpt>
      <trkpt lat="42.9275" lon="43.11621">
        <ele>2315.518258</ele>
        <time>2021-08-15T21:50:21.439Z</time>
      </trkpt>
      <trkpt lat="42.92726" lon="43.11789">
        <ele>2303.616644</ele>
        <time>2021-08-15T21:50:53.853Z</time>
      </trkpt>
      <trkpt lat="42.92716" lon="43.11895">
        <ele>2296.605559</ele>
        <time>2021-08-15T21:51:14.535Z</time>
      </trkpt>
      <trkpt lat="42.92698" lon="43.11996">
        <ele>2291.822837</ele>
        <time>2021-08-15T21:51:35.115Z</time>
      </trkpt>
      <trkpt lat="42.92684" lon="43.12048">
        <ele>2289.295078</ele>
        <time>2021-08-15T21:51:46.391Z</time>
      </trkpt>
      <trkpt lat="42.92662" lon="43.12096">
        <ele>2286.683243</ele>
        <time>2021-08-15T21:51:58.451Z</time>
      </trkpt>
      <trkpt lat="42.92644" lon="43.12177">
        <ele>2285.080594</ele>
        <time>2021-08-15T21:52:17.998Z</time>
      </trkpt>
      <trkpt lat="42.92643" lon="43.12203">
        <ele>2284.718477</ele>
        <time>2021-08-15T21:52:24.450Z</time>
      </trkpt>
      <trkpt lat="42.92648" lon="43.12227">
        <ele>2284.365036</ele>
        <time>2021-08-15T21:52:30.590Z</time>
      </trkpt>
      <trkpt lat="42.92645" lon="43.12281">
        <ele>2283.61243</ele>
        <time>2021-08-15T21:52:44.213Z</time>
      </trkpt>
      <trkpt lat="42.92653" lon="43.123">
        <ele>2283.316249</ele>
        <time>2021-08-15T21:52:49.683Z</time>
      </trkpt>
      <trkpt lat="42.92661" lon="43.12315">
        <ele>2283.047272</ele>
        <time>2021-08-15T21:52:54.472Z</time>
      </trkpt>
      <trkpt lat="42.92664" lon="43.12326">
        <ele>2282.891402</ele>
        <time>2021-08-15T21:52:57.417Z</time>
      </trkpt>
      <trkpt lat="42.92662" lon="43.12343">
        <ele>2282.648887</ele>
        <time>2021-08-15T21:53:01.826Z</time>
      </trkpt>
      <trkpt lat="42.92654" lon="43.1239">
        <ele>2281.511931</ele>
        <time>2021-08-15T21:53:14.081Z</time>
      </trkpt>
      <trkpt lat="42.92618" lon="43.12455">
        <ele>2279.621262</ele>
        <time>2021-08-15T21:53:33.589Z</time>
      </trkpt>
      <trkpt lat="42.92573" lon="43.12491">
        <ele>2277.950048</ele>
        <time>2021-08-15T21:53:49.611Z</time>
      </trkpt>
      <trkpt lat="42.92531" lon="43.12547">
        <ele>2274.69258</ele>
        <time>2021-08-15T21:54:05.776Z</time>
      </trkpt>
      <trkpt lat="42.92478" lon="43.12626">
        <ele>2268.028708</ele>
        <time>2021-08-15T21:54:26.476Z</time>
      </trkpt>
      <trkpt lat="42.92431" lon="43.12725">
        <ele>2260.859461</ele>
        <time>2021-08-15T21:54:48.714Z</time>
      </trkpt>
      <trkpt lat="42.92347" lon="43.12816">
        <ele>2253.590729</ele>
        <time>2021-08-15T21:55:16.887Z</time>
      </trkpt>
      <trkpt lat="42.92322" lon="43.12857">
        <ele>2250.965663</ele>
        <time>2021-08-15T21:55:28.125Z</time>
      </trkpt>
      <trkpt lat="42.92323" lon="43.12869">
        <ele>2250.342848</ele>
        <time>2021-08-15T21:55:31.010Z</time>
      </trkpt>
      <trkpt lat="42.92329" lon="43.12874">
        <ele>2249.857357</ele>
        <time>2021-08-15T21:55:33.267Z</time>
      </trkpt>
      <trkpt lat="42.92364" lon="43.1288">
        <ele>2249.907524</ele>
        <time>2021-08-15T21:55:45.390Z</time>
      </trkpt>
      <trkpt lat="42.92409" lon="43.12896">
        <ele>2250.682321</ele>
        <time>2021-08-15T21:56:05.048Z</time>
      </trkpt>
      <trkpt lat="42.92439" lon="43.12908">
        <ele>2251.21827</ele>
        <time>2021-08-15T21:56:21.622Z</time>
      </trkpt>
      <trkpt lat="42.92485" lon="43.12936">
        <ele>2252.056865</ele>
        <time>2021-08-15T21:56:49.986Z</time>
      </trkpt>
      <trkpt lat="42.92512" lon="43.12967">
        <ele>2252.501773</ele>
        <time>2021-08-15T21:57:10.436Z</time>
      </trkpt>
      <trkpt lat="42.92525" lon="43.13001">
        <ele>2252.637428</ele>
        <time>2021-08-15T21:57:26.231Z</time>
      </trkpt>
      <trkpt lat="42.92523" lon="43.13011">
        <ele>2252.671437</ele>
        <time>2021-08-15T21:57:30.405Z</time>
      </trkpt>
      <trkpt lat="42.92514" lon="43.13015">
        <ele>2252.715557</ele>
        <time>2021-08-15T21:57:35.382Z</time>
      </trkpt>
      <trkpt lat="42.92424" lon="43.12985">
        <ele>2253.162132</ele>
        <time>2021-08-15T21:58:11.528Z</time>
      </trkpt>
      <trkpt lat="42.92369" lon="43.13001">
        <ele>2251.726944</ele>
        <time>2021-08-15T21:58:28.543Z</time>
      </trkpt>
      <trkpt lat="42.92262" lon="43.13074">
        <ele>2244.494811</ele>
        <time>2021-08-15T21:59:01.714Z</time>
      </trkpt>
      <trkpt lat="42.92199" lon="43.13146">
        <ele>2239.181199</ele>
        <time>2021-08-15T21:59:23.608Z</time>
      </trkpt>
      <trkpt lat="42.92188" lon="43.13163">
        <ele>2238.062459</ele>
        <time>2021-08-15T21:59:28.035Z</time>
      </trkpt>
      <trkpt lat="42.92175" lon="43.13202">
        <ele>2235.931799</ele>
        <time>2021-08-15T21:59:36.525Z</time>
      </trkpt>
      <trkpt lat="42.92141" lon="43.1335">
        <ele>2228.465312</ele>
        <time>2021-08-15T22:00:08.282Z</time>
      </trkpt>
      <trkpt lat="42.92116" lon="43.13427">
        <ele>2224.869287</ele>
        <time>2021-08-15T22:00:25.872Z</time>
      </trkpt>
      <trkpt lat="42.92092" lon="43.13471">
        <ele>2222.519877</ele>
        <time>2021-08-15T22:00:37.347Z</time>
      </trkpt>
      <trkpt lat="42.92012" lon="43.13562">
        <ele>2215.029925</ele>
        <time>2021-08-15T22:01:06.638Z</time>
      </trkpt>
      <trkpt lat="42.91976" lon="43.13612">
        <ele>2210.844553</ele>
        <time>2021-08-15T22:01:20.156Z</time>
      </trkpt>
      <trkpt lat="42.91932" lon="43.13662">
        <ele>2206.055623</ele>
        <time>2021-08-15T22:01:35.112Z</time>
      </trkpt>
      <trkpt lat="42.9192" lon="43.13691">
        <ele>2203.5955</ele>
        <time>2021-08-15T22:01:41.282Z</time>
      </trkpt>
      <trkpt lat="42.9191" lon="43.13757">
        <ele>2197.097514</ele>
        <time>2021-08-15T22:01:53.564Z</time>
      </trkpt>
      <trkpt lat="42.91913" lon="43.13779">
        <ele>2194.912136</ele>
        <time>2021-08-15T22:01:57.666Z</time>
      </trkpt>
      <trkpt lat="42.91979" lon="43.1382">
        <ele>2185.286507</ele>
        <time>2021-08-15T22:02:15.479Z</time>
      </trkpt>
      <trkpt lat="42.91984" lon="43.13831">
        <ele>2184.029089</ele>
        <time>2021-08-15T22:02:17.811Z</time>
      </trkpt>
      <trkpt lat="42.91979" lon="43.13843">
        <ele>2182.719066</ele>
        <time>2021-08-15T22:02:20.227Z</time>
      </trkpt>
      <trkpt lat="42.91972" lon="43.13847">
        <ele>2181.783483</ele>
        <time>2021-08-15T22:02:21.954Z</time>
      </trkpt>
      <trkpt lat="42.91945" lon="43.13842">
        <ele>2178.230652</ele>
        <time>2021-08-15T22:02:28.711Z</time>
      </trkpt>
      <trkpt lat="42.91927" lon="43.13844">
        <ele>2175.907909</ele>
        <time>2021-08-15T22:02:33.185Z</time>
      </trkpt>
      <trkpt lat="42.91883" lon="43.13871">
        <ele>2169.862039</ele>
        <time>2021-08-15T22:02:44.844Z</time>
      </trkpt>
      <trkpt lat="42.91851" lon="43.1388">
        <ele>2165.656478</ele>
        <time>2021-08-15T22:02:53.012Z</time>
      </trkpt>
      <trkpt lat="42.91688" lon="43.13885">
        <ele>2147.742555</ele>
        <time>2021-08-15T22:03:34.613Z</time>
      </trkpt>
      <trkpt lat="42.91638" lon="43.13861">
        <ele>2142.50186</ele>
        <time>2021-08-15T22:03:48.251Z</time>
      </trkpt>
      <trkpt lat="42.91643" lon="43.1388">
        <ele>2140.990929</ele>
        <time>2021-08-15T22:03:52.156Z</time>
      </trkpt>
      <trkpt lat="42.91663" lon="43.13897">
        <ele>2138.671447</ele>
        <time>2021-08-15T22:03:58.188Z</time>
      </trkpt>
      <trkpt lat="42.91792" lon="43.1393">
        <ele>2125.393644</ele>
        <time>2021-08-15T22:04:32.101Z</time>
      </trkpt>
      <trkpt lat="42.91932" lon="43.13997">
        <ele>2108.516278</ele>
        <time>2021-08-15T22:05:09.355Z</time>
      </trkpt>
      <trkpt lat="42.92003" lon="43.14024">
        <ele>2099.697912</ele>
        <time>2021-08-15T22:05:27.714Z</time>
      </trkpt>
      <trkpt lat="42.92034" lon="43.14045">
        <ele>2095.152137</ele>
        <time>2021-08-15T22:05:36.159Z</time>
      </trkpt>
      <trkpt lat="42.92061" lon="43.1408">
        <ele>2090.149547</ele>
        <time>2021-08-15T22:05:45.400Z</time>
      </trkpt>
      <trkpt lat="42.92088" lon="43.1409">
        <ele>2086.373505</ele>
        <time>2021-08-15T22:05:52.337Z</time>
      </trkpt>
      <trkpt lat="42.92091" lon="43.14098">
        <ele>2085.512378</ele>
        <time>2021-08-15T22:05:53.910Z</time>
      </trkpt>
      <trkpt lat="42.92084" lon="43.14106">
        <ele>2084.370043</ele>
        <time>2021-08-15T22:05:55.995Z</time>
      </trkpt>
      <trkpt lat="42.92049" lon="43.14114">
        <ele>2079.601467</ele>
        <time>2021-08-15T22:06:04.731Z</time>
      </trkpt>
      <trkpt lat="42.91925" lon="43.14101">
        <ele>2062.356505</ele>
        <time>2021-08-15T22:06:35.166Z</time>
      </trkpt>
      <trkpt lat="42.91847" lon="43.14108">
        <ele>2051.575599</ele>
        <time>2021-08-15T22:06:54.197Z</time>
      </trkpt>
      <trkpt lat="42.9184" lon="43.14114">
        <ele>2050.673723</ele>
        <time>2021-08-15T22:06:56.126Z</time>
      </trkpt>
      <trkpt lat="42.91842" lon="43.14124">
        <ele>2049.83684</ele>
        <time>2021-08-15T22:06:57.924Z</time>
      </trkpt>
      <trkpt lat="42.9185" lon="43.14133">
        <ele>2048.570767</ele>
        <time>2021-08-15T22:07:00.626Z</time>
      </trkpt>
      <trkpt lat="42.91965" lon="43.14173">
        <ele>2035.012141</ele>
        <time>2021-08-15T22:07:30.265Z</time>
      </trkpt>
      <trkpt lat="42.92116" lon="43.14239">
        <ele>2019.620668</ele>
        <time>2021-08-15T22:08:11.826Z</time>
      </trkpt>
      <trkpt lat="42.9215" lon="43.14247">
        <ele>2016.498161</ele>
        <time>2021-08-15T22:08:20.759Z</time>
      </trkpt>
      <trkpt lat="42.92176" lon="43.14281">
        <ele>2013.156103</ele>
        <time>2021-08-15T22:08:30.258Z</time>
      </trkpt>
      <trkpt lat="42.92175" lon="43.14305">
        <ele>2011.548459</ele>
        <time>2021-08-15T22:08:34.784Z</time>
      </trkpt>
      <trkpt lat="42.92155" lon="43.14312">
        <ele>2009.678022</ele>
        <time>2021-08-15T22:08:40.028Z</time>
      </trkpt>
      <trkpt lat="42.92085" lon="43.1429">
        <ele>2003.022613</ele>
        <time>2021-08-15T22:08:58.598Z</time>
      </trkpt>
      <trkpt lat="42.91888" lon="43.14277">
        <ele>1985.827117</ele>
        <time>2021-08-15T22:09:50.093Z</time>
      </trkpt>
      <trkpt lat="42.91712" lon="43.14276">
        <ele>1973.336939</ele>
        <time>2021-08-15T22:10:38.428Z</time>
      </trkpt>
      <trkpt lat="42.91686" lon="43.14275">
        <ele>1971.597599</ele>
        <time>2021-08-15T22:10:45.632Z</time>
      </trkpt>
      <trkpt lat="42.91606" lon="43.14276">
        <ele>1966.335667</ele>
        <time>2021-08-15T22:11:07.958Z</time>
      </trkpt>
      <trkpt lat="42.91564" lon="43.14271">
        <ele>1963.591423</ele>
        <time>2021-08-15T22:11:19.564Z</time>
      </trkpt>
      <trkpt lat="42.91507" lon="43.14253">
        <ele>1959.800293</ele>
        <time>2021-08-15T22:11:35.579Z</time>
      </trkpt>
      <trkpt lat="42.91451" lon="43.14214">
        <ele>1955.341806</ele>
        <time>2021-08-15T22:11:52.865Z</time>
      </trkpt>
      <trkpt lat="42.91434" lon="43.14208">
        <ele>1954.058759</ele>
        <time>2021-08-15T22:11:57.577Z</time>
      </trkpt>
      <trkpt lat="42.91387" lon="43.14217">
        <ele>1950.579236</ele>
        <time>2021-08-15T22:12:10.494Z</time>
      </trkpt>
      <trkpt lat="42.91336" lon="43.14212">
        <ele>1946.850372</ele>
        <time>2021-08-15T22:12:24.155Z</time>
      </trkpt>
      <trkpt lat="42.9131" lon="43.14218">
        <ele>1944.73376</ele>
        <time>2021-08-15T22:12:31.413Z</time>
      </trkpt>
      <trkpt lat="42.91304" lon="43.1422">
        <ele>1944.237326</ele>
        <time>2021-08-15T22:12:32.842Z</time>
      </trkpt>
      <trkpt lat="42.91269" lon="43.14229">
        <ele>1941.082902</ele>
        <time>2021-08-15T22:12:42.482Z</time>
      </trkpt>
      <trkpt lat="42.91146" lon="43.14254">
        <ele>1930.207914</ele>
        <time>2021-08-15T22:13:14.839Z</time>
      </trkpt>
      <trkpt lat="42.91134" lon="43.14276">
        <ele>1928.119178</ele>
        <time>2021-08-15T22:13:20.103Z</time>
      </trkpt>
      <trkpt lat="42.91144" lon="43.14307">
        <ele>1925.550894</ele>
        <time>2021-08-15T22:13:26.474Z</time>
      </trkpt>
      <trkpt lat="42.9114" lon="43.14337">
        <ele>1923.220703</ele>
        <time>2021-08-15T22:13:32.209Z</time>
      </trkpt>
      <trkpt lat="42.91131" lon="43.14358">
        <ele>1921.34981</ele>
        <time>2021-08-15T22:13:36.811Z</time>
      </trkpt>
      <trkpt lat="42.91119" lon="43.14368">
        <ele>1919.900815</ele>
        <time>2021-08-15T22:13:40.351Z</time>
      </trkpt>
      <trkpt lat="42.91105" lon="43.14369">
        <ele>1918.482802</ele>
        <time>2021-08-15T22:13:43.798Z</time>
      </trkpt>
      <trkpt lat="42.91071" lon="43.14366">
        <ele>1914.903896</ele>
        <time>2021-08-15T22:13:52.520Z</time>
      </trkpt>
      <trkpt lat="42.9105" lon="43.14352">
        <ele>1912.481792</ele>
        <time>2021-08-15T22:13:58.402Z</time>
      </trkpt>
      <trkpt lat="42.91016" lon="43.14287">
        <ele>1906.412825</ele>
        <time>2021-08-15T22:14:13.344Z</time>
      </trkpt>
      <trkpt lat="42.90992" lon="43.14255">
        <ele>1903.005798</ele>
        <time>2021-08-15T22:14:21.872Z</time>
      </trkpt>
      <trkpt lat="42.90973" lon="43.14249">
        <ele>1900.947493</ele>
        <time>2021-08-15T22:14:27.004Z</time>
      </trkpt>
      <trkpt lat="42.9092" lon="43.14259">
        <ele>1895.382587</ele>
        <time>2021-08-15T22:14:40.591Z</time>
      </trkpt>
      <trkpt lat="42.90886" lon="43.14242">
        <ele>1891.76884</ele>
        <time>2021-08-15T22:14:49.902Z</time>
      </trkpt>
      <trkpt lat="42.90836" lon="43.14235">
        <ele>1887.229766</ele>
        <time>2021-08-15T22:15:03.088Z</time>
      </trkpt>
      <trkpt lat="42.90829" lon="43.14232">
        <ele>1886.499322</ele>
        <time>2021-08-15T22:15:04.970Z</time>
      </trkpt>
      <trkpt lat="42.90822" lon="43.14232">
        <ele>1885.914021</ele>
        <time>2021-08-15T22:15:06.707Z</time>
      </trkpt>
      <trkpt lat="42.90817" lon="43.14231">
        <ele>1885.410088</ele>
        <time>2021-08-15T22:15:08.014Z</time>
      </trkpt>
      <trkpt lat="42.90797" lon="43.14203">
        <ele>1882.818741</ele>
        <time>2021-08-15T22:15:15.496Z</time>
      </trkpt>
      <trkpt lat="42.90699" lon="43.14186">
        <ele>1874.446893</ele>
        <time>2021-08-15T22:15:41.867Z</time>
      </trkpt>
      <trkpt lat="42.90697" lon="43.14186">
        <ele>1874.314056</ele>
        <time>2021-08-15T22:15:42.346Z</time>
      </trkpt>
      <trkpt lat="42.90691" lon="43.14193">
        <ele>1873.796124</ele>
        <time>2021-08-15T22:15:43.470Z</time>
      </trkpt>
      <trkpt lat="42.90664" lon="43.14212">
        <ele>1871.777229</ele>
        <time>2021-08-15T22:15:48.044Z</time>
      </trkpt>
      <trkpt lat="42.90622" lon="43.14201">
        <ele>1868.953773</ele>
        <time>2021-08-15T22:15:54.639Z</time>
      </trkpt>
      <trkpt lat="42.90594" lon="43.14205">
        <ele>1867.074879</ele>
        <time>2021-08-15T22:15:59.159Z</time>
      </trkpt>
      <trkpt lat="42.90583" lon="43.14204">
        <ele>1866.398534</ele>
        <time>2021-08-15T22:16:00.678Z</time>
      </trkpt>
      <trkpt lat="42.90563" lon="43.14224">
        <ele>1864.713294</ele>
        <time>2021-08-15T22:16:08.009Z</time>
      </trkpt>
      <trkpt lat="42.90479" lon="43.14236">
        <ele>1859.333727</ele>
        <time>2021-08-15T22:16:32.171Z</time>
      </trkpt>
      <trkpt lat="42.90375" lon="43.1421">
        <ele>1852.523143</ele>
        <time>2021-08-15T22:17:01.058Z</time>
      </trkpt>
      <trkpt lat="42.90311" lon="43.14204">
        <ele>1847.319589</ele>
        <time>2021-08-15T22:17:17.939Z</time>
      </trkpt>
      <trkpt lat="42.90288" lon="43.14189">
        <ele>1845.237006</ele>
        <time>2021-08-15T22:17:24.644Z</time>
      </trkpt>
      <trkpt lat="42.90268" lon="43.14138">
        <ele>1841.850023</ele>
        <time>2021-08-15T22:17:35.585Z</time>
      </trkpt>
      <trkpt lat="42.90262" lon="43.14132">
        <ele>1841.177834</ele>
        <time>2021-08-15T22:17:37.758Z</time>
      </trkpt>
      <trkpt lat="42.90241" lon="43.1413">
        <ele>1839.529321</ele>
        <time>2021-08-15T22:17:43.101Z</time>
      </trkpt>
      <trkpt lat="42.90212" lon="43.14142">
        <ele>1837.485124</ele>
        <time>2021-08-15T22:17:51.401Z</time>
      </trkpt>
      <trkpt lat="42.90172" lon="43.14185">
        <ele>1834.891088</ele>
        <time>2021-08-15T22:18:05.364Z</time>
      </trkpt>
      <trkpt lat="42.9012" lon="43.14218">
        <ele>1831.926083</ele>
        <time>2021-08-15T22:18:22.129Z</time>
      </trkpt>
      <trkpt lat="42.9008" lon="43.14223">
        <ele>1829.838876</ele>
        <time>2021-08-15T22:18:34.336Z</time>
      </trkpt>
      <trkpt lat="42.9001" lon="43.14211">
        <ele>1827.538381</ele>
        <time>2021-08-15T22:18:56.135Z</time>
      </trkpt>
      <trkpt lat="42.89972" lon="43.14239">
        <ele>1826.336429</ele>
        <time>2021-08-15T22:19:10.222Z</time>
      </trkpt>
      <trkpt lat="42.89915" lon="43.14265">
        <ele>1824.670232</ele>
        <time>2021-08-15T22:19:29.382Z</time>
      </trkpt>
      <trkpt lat="42.89874" lon="43.14259">
        <ele>1823.231757</ele>
        <time>2021-08-15T22:19:41.946Z</time>
      </trkpt>
      <trkpt lat="42.89852" lon="43.14264">
        <ele>1822.239264</ele>
        <time>2021-08-15T22:19:48.798Z</time>
      </trkpt>
      <trkpt lat="42.89809" lon="43.14292">
        <ele>1820.157971</ele>
        <time>2021-08-15T22:20:02.852Z</time>
      </trkpt>
      <trkpt lat="42.89774" lon="43.14294">
        <ele>1818.670519</ele>
        <time>2021-08-15T22:20:12.786Z</time>
      </trkpt>
      <trkpt lat="42.89609" lon="43.14338">
        <ele>1811.064958</ele>
        <time>2021-08-15T22:21:01.273Z</time>
      </trkpt>
      <trkpt lat="42.89564" lon="43.1434">
        <ele>1808.984645</ele>
        <time>2021-08-15T22:21:14.642Z</time>
      </trkpt>
      <trkpt lat="42.89545" lon="43.14339">
        <ele>1808.10357</ele>
        <time>2021-08-15T22:21:20.229Z</time>
      </trkpt>
      <trkpt lat="42.89534" lon="43.14339">
        <ele>1807.596396</ele>
        <time>2021-08-15T22:21:23.571Z</time>
      </trkpt>
      <trkpt lat="42.89485" lon="43.14341">
        <ele>1805.342162</ele>
        <time>2021-08-15T22:21:38.308Z</time>
      </trkpt>
      <trkpt lat="42.89432" lon="43.14384">
        <ele>1802.549074</ele>
        <time>2021-08-15T22:21:56.515Z</time>
      </trkpt>
      <trkpt lat="42.89389" lon="43.14378">
        <ele>1800.600335</ele>
        <time>2021-08-15T22:22:08.927Z</time>
      </trkpt>
      <trkpt lat="42.8932" lon="43.14333">
        <ele>1795.93872</ele>
        <time>2021-08-15T22:22:30.316Z</time>
      </trkpt>
      <trkpt lat="42.89287" lon="43.14301">
        <ele>1793.231421</ele>
        <time>2021-08-15T22:22:41.560Z</time>
      </trkpt>
      <trkpt lat="42.8926" lon="43.14288">
        <ele>1791.319569</ele>
        <time>2021-08-15T22:22:49.415Z</time>
      </trkpt>
      <trkpt lat="42.89186" lon="43.14275">
        <ele>1786.007756</ele>
        <time>2021-08-15T22:23:09.675Z</time>
      </trkpt>
      <trkpt lat="42.89142" lon="43.14229">
        <ele>1781.491302</ele>
        <time>2021-08-15T22:23:24.368Z</time>
      </trkpt>
      <trkpt lat="42.89123" lon="43.14217">
        <ele>1779.785327</ele>
        <time>2021-08-15T22:23:29.876Z</time>
      </trkpt>
      <trkpt lat="42.89111" lon="43.14215">
        <ele>1778.757247</ele>
        <time>2021-08-15T22:23:33.182Z</time>
      </trkpt>
      <trkpt lat="42.89095" lon="43.14232">
        <ele>1777.125237</ele>
        <time>2021-08-15T22:23:38.443Z</time>
      </trkpt>
      <trkpt lat="42.89053" lon="43.14237">
        <ele>1773.665473</ele>
        <time>2021-08-15T22:23:49.540Z</time>
      </trkpt>
      <trkpt lat="42.89005" lon="43.14264">
        <ele>1769.160101</ele>
        <time>2021-08-15T22:24:03.135Z</time>
      </trkpt>
      <trkpt lat="42.88949" lon="43.14273">
        <ele>1764.208131</ele>
        <time>2021-08-15T22:24:17.931Z</time>
      </trkpt>
      <trkpt lat="42.8894" lon="43.14285">
        <ele>1763.107573</ele>
        <time>2021-08-15T22:24:21.232Z</time>
      </trkpt>
      <trkpt lat="42.88925" lon="43.14293">
        <ele>1761.675527</ele>
        <time>2021-08-15T22:24:25.505Z</time>
      </trkpt>
      <trkpt lat="42.88904" lon="43.143">
        <ele>1759.847378</ele>
        <time>2021-08-15T22:24:31.021Z</time>
      </trkpt>
      <trkpt lat="42.8886" lon="43.14298">
        <ele>1756.251223</ele>
        <time>2021-08-15T22:24:42.769Z</time>
      </trkpt>
      <trkpt lat="42.8882" lon="43.14329">
        <ele>1753.072061</ele>
        <time>2021-08-15T22:24:55.124Z</time>
      </trkpt>
      <trkpt lat="42.88799" lon="43.14334">
        <ele>1751.627103</ele>
        <time>2021-08-15T22:25:00.835Z</time>
      </trkpt>
      <trkpt lat="42.88787" lon="43.14345">
        <ele>1750.633578</ele>
        <time>2021-08-15T22:25:04.757Z</time>
      </trkpt>
      <trkpt lat="42.88712" lon="43.14441">
        <ele>1743.727122</ele>
        <time>2021-08-15T22:25:33.621Z</time>
      </trkpt>
      <trkpt lat="42.88683" lon="43.14443">
        <ele>1741.985737</ele>
        <time>2021-08-15T22:25:41.805Z</time>
      </trkpt>
      <trkpt lat="42.88649" lon="43.14433">
        <ele>1739.866137</ele>
        <time>2021-08-15T22:25:51.699Z</time>
      </trkpt>
      <trkpt lat="42.88623" lon="43.14436">
        <ele>1738.333847</ele>
        <time>2021-08-15T22:25:58.805Z</time>
      </trkpt>
      <trkpt lat="42.88566" lon="43.14465">
        <ele>1734.647514</ele>
        <time>2021-08-15T22:26:15.785Z</time>
      </trkpt>
      <trkpt lat="42.88428" lon="43.14513">
        <ele>1725.20883</ele>
        <time>2021-08-15T22:26:55.040Z</time>
      </trkpt>
      <trkpt lat="42.88387" lon="43.14538">
        <ele>1722.260245</ele>
        <time>2021-08-15T22:27:07.175Z</time>
      </trkpt>
      <trkpt lat="42.88292" lon="43.14592">
        <ele>1716.183362</ele>
        <time>2021-08-15T22:27:35.970Z</time>
      </trkpt>
      <trkpt lat="42.88281" lon="43.14603">
        <ele>1715.372566</ele>
        <time>2021-08-15T22:27:39.838Z</time>
      </trkpt>
      <trkpt lat="42.88192" lon="43.14707">
        <ele>1708.431308</ele>
        <time>2021-08-15T22:28:13.160Z</time>
      </trkpt>
      <trkpt lat="42.88111" lon="43.14788">
        <ele>1702.49704</ele>
        <time>2021-08-15T22:28:41.234Z</time>
      </trkpt>
      <trkpt lat="42.88072" lon="43.14822">
        <ele>1699.441558</ele>
        <time>2021-08-15T22:28:54.232Z</time>
      </trkpt>
      <trkpt lat="42.87916" lon="43.1492">
        <ele>1686.895627</ele>
        <time>2021-08-15T22:29:40.471Z</time>
      </trkpt>
      <trkpt lat="42.87884" lon="43.14917">
        <ele>1684.038786</ele>
        <time>2021-08-15T22:29:49.076Z</time>
      </trkpt>
      <trkpt lat="42.87799" lon="43.14922">
        <ele>1676.51454</ele>
        <time>2021-08-15T22:30:11.530Z</time>
      </trkpt>
      <trkpt lat="42.87744" lon="43.14917">
        <ele>1671.474789</ele>
        <time>2021-08-15T22:30:25.879Z</time>
      </trkpt>
      <trkpt lat="42.87645" lon="43.14924">
        <ele>1659.500025</ele>
        <time>2021-08-15T22:30:50.831Z</time>
      </trkpt>
      <trkpt lat="42.87628" lon="43.14953">
        <ele>1656.21409</ele>
        <time>2021-08-15T22:30:57.588Z</time>
      </trkpt>
      <trkpt lat="42.87581" lon="43.14999">
        <ele>1649.180192</ele>
        <time>2021-08-15T22:31:11.760Z</time>
      </trkpt>
      <trkpt lat="42.87508" lon="43.15037">
        <ele>1638.723851</ele>
        <time>2021-08-15T22:31:30.909Z</time>
      </trkpt>
      <trkpt lat="42.8747" lon="43.15065">
        <ele>1633.08513</ele>
        <time>2021-08-15T22:31:41.273Z</time>
      </trkpt>
      <trkpt lat="42.87443" lon="43.15185">
        <ele>1622.111816</ele>
        <time>2021-08-15T22:32:04.283Z</time>
      </trkpt>
      <trkpt lat="42.87425" lon="43.15243">
        <ele>1617.311937</ele>
        <time>2021-08-15T22:32:16.195Z</time>
      </trkpt>
      <trkpt lat="42.87415" lon="43.15257">
        <ele>1615.857119</ele>
        <time>2021-08-15T22:32:19.837Z</time>
      </trkpt>
      <trkpt lat="42.87408" lon="43.15258">
        <ele>1615.115106</ele>
        <time>2021-08-15T22:32:21.704Z</time>
      </trkpt>
      <trkpt lat="42.87404" lon="43.15249">
        <ele>1614.36728</ele>
        <time>2021-08-15T22:32:23.573Z</time>
      </trkpt>
      <trkpt lat="42.87419" lon="43.15203">
        <ele>1610.514606</ele>
        <time>2021-08-15T22:32:33.323Z</time>
      </trkpt>
      <trkpt lat="42.87434" lon="43.15024">
        <ele>1599.566696</ele>
        <time>2021-08-15T22:33:08.601Z</time>
      </trkpt>
      <trkpt lat="42.87456" lon="43.14908">
        <ele>1593.009579</ele>
        <time>2021-08-15T22:33:32.367Z</time>
      </trkpt>
      <trkpt lat="42.87452" lon="43.14881">
        <ele>1591.851143</ele>
        <time>2021-08-15T22:33:37.880Z</time>
      </trkpt>
      <trkpt lat="42.87437" lon="43.14876">
        <ele>1590.939955</ele>
        <time>2021-08-15T22:33:42.212Z</time>
      </trkpt>
      <trkpt lat="42.87429" lon="43.14882">
        <ele>1590.415099</ele>
        <time>2021-08-15T22:33:44.727Z</time>
      </trkpt>
      <trkpt lat="42.87407" lon="43.14927">
        <ele>1588.136432</ele>
        <time>2021-08-15T22:33:55.805Z</time>
      </trkpt>
      <trkpt lat="42.87377" lon="43.15063">
        <ele>1582.57815</ele>
        <time>2021-08-15T22:34:26.136Z</time>
      </trkpt>
      <trkpt lat="42.87327" lon="43.1516">
        <ele>1579.24824</ele>
        <time>2021-08-15T22:34:52.399Z</time>
      </trkpt>
      <trkpt lat="42.87312" lon="43.15213">
        <ele>1577.642153</ele>
        <time>2021-08-15T22:35:05.166Z</time>
      </trkpt>
      <trkpt lat="42.87307" lon="43.1526">
        <ele>1576.279421</ele>
        <time>2021-08-15T22:35:15.820Z</time>
      </trkpt>
      <trkpt lat="42.873" lon="43.15276">
        <ele>1575.729982</ele>
        <time>2021-08-15T22:35:19.819Z</time>
      </trkpt>
      <trkpt lat="42.8725" lon="43.1533">
        <ele>1573.037055</ele>
        <time>2021-08-15T22:35:39.062Z</time>
      </trkpt>
      <trkpt lat="42.87074" lon="43.15541">
        <ele>1562.821318</ele>
        <time>2021-08-15T22:36:47.424Z</time>
      </trkpt>
      <trkpt lat="42.87004" lon="43.15653">
        <ele>1558.159128</ele>
        <time>2021-08-15T22:37:19.431Z</time>
      </trkpt>
      <trkpt lat="42.86966" lon="43.15686">
        <ele>1556.259212</ele>
        <time>2021-08-15T22:37:32.842Z</time>
      </trkpt>
      <trkpt lat="42.86888" lon="43.15851">
        <ele>1549.711088</ele>
        <time>2021-08-15T22:38:15.362Z</time>
      </trkpt>
      <trkpt lat="42.86829" lon="43.15899">
        <ele>1546.353727</ele>
        <time>2021-08-15T22:38:35.012Z</time>
      </trkpt>
      <trkpt lat="42.86806" lon="43.159">
        <ele>1545.225482</ele>
        <time>2021-08-15T22:38:41.575Z</time>
      </trkpt>
      <trkpt lat="42.8679" lon="43.1591">
        <ele>1544.343864</ele>
        <time>2021-08-15T22:38:46.521Z</time>
      </trkpt>
      <trkpt lat="42.86731" lon="43.15992">
        <ele>1539.666369</ele>
        <time>2021-08-15T22:39:10.551Z</time>
      </trkpt>
      <trkpt lat="42.86673" lon="43.16051">
        <ele>1535.662711</ele>
        <time>2021-08-15T22:39:30.903Z</time>
      </trkpt>
      <trkpt lat="42.86589" lon="43.16196">
        <ele>1528.627515</ele>
        <time>2021-08-15T22:40:09.329Z</time>
      </trkpt>
      <trkpt lat="42.86581" lon="43.16207">
        <ele>1528.045291</ele>
        <time>2021-08-15T22:40:12.337Z</time>
      </trkpt>
      <trkpt lat="42.86507" lon="43.16307">
        <ele>1524.736029</ele>
        <time>2021-08-15T22:40:43.386Z</time>
      </trkpt>
      <trkpt lat="42.86484" lon="43.16315">
        <ele>1524.440079</ele>
        <time>2021-08-15T22:40:52.024Z</time>
      </trkpt>
      <trkpt lat="42.86453" lon="43.16303">
        <ele>1524.051665</ele>
        <time>2021-08-15T22:41:02.810Z</time>
      </trkpt>
      <trkpt lat="42.86437" lon="43.16286">
        <ele>1523.802106</ele>
        <time>2021-08-15T22:41:09.937Z</time>
      </trkpt>
      <trkpt lat="42.86428" lon="43.1628">
        <ele>1523.671944</ele>
        <time>2021-08-15T22:41:15.618Z</time>
      </trkpt>
      <trkpt lat="42.86346" lon="43.16285">
        <ele>1523.704412</ele>
        <time>2021-08-15T22:41:49.407Z</time>
      </trkpt>
      <trkpt lat="42.86307" lon="43.16314">
        <ele>1524.287831</ele>
        <time>2021-08-15T22:42:08.716Z</time>
      </trkpt>
      <trkpt lat="42.86287" lon="43.16322">
        <ele>1524.560177</ele>
        <time>2021-08-15T22:42:20.467Z</time>
      </trkpt>
      <trkpt lat="42.86253" lon="43.16357">
        <ele>1525.125986</ele>
        <time>2021-08-15T22:42:40.096Z</time>
      </trkpt>
      <trkpt lat="42.86204" lon="43.16444">
        <ele>1525.796973</ele>
        <time>2021-08-15T22:43:11.240Z</time>
      </trkpt>
      <trkpt lat="42.86183" lon="43.16469">
        <ele>1525.948344</ele>
        <time>2021-08-15T22:43:21.581Z</time>
      </trkpt>
      <trkpt lat="42.86164" lon="43.16455">
        <ele>1526.065589</ele>
        <time>2021-08-15T22:43:29.638Z</time>
      </trkpt>
      <trkpt lat="42.86139" lon="43.16455">
        <ele>1526.20419</ele>
        <time>2021-08-15T22:43:39.798Z</time>
      </trkpt>
      <trkpt lat="42.86119" lon="43.16445">
        <ele>1526.320054</ele>
        <time>2021-08-15T22:43:48.277Z</time>
      </trkpt>
      <trkpt lat="42.8609" lon="43.16451">
        <ele>1526.485032</ele>
        <time>2021-08-15T22:44:00.620Z</time>
      </trkpt>
      <trkpt lat="42.86043" lon="43.16418">
        <ele>1526.028642</ele>
        <time>2021-08-15T22:44:23.358Z</time>
      </trkpt>
      <trkpt lat="42.85998" lon="43.164">
        <ele>1525.567433</ele>
        <time>2021-08-15T22:44:40.887Z</time>
      </trkpt>
      <trkpt lat="42.85959" lon="43.16415">
        <ele>1525.160273</ele>
        <time>2021-08-15T22:44:54.757Z</time>
      </trkpt>
      <trkpt lat="42.85932" lon="43.16406">
        <ele>1524.892604</ele>
        <time>2021-08-15T22:45:03.628Z</time>
      </trkpt>
      <trkpt lat="42.85893" lon="43.16415">
        <ele>1523.385982</ele>
        <time>2021-08-15T22:45:15.358Z</time>
      </trkpt>
      <trkpt lat="42.85829" lon="43.1644">
        <ele>1519.505846</ele>
        <time>2021-08-15T22:45:34.055Z</time>
      </trkpt>
      <trkpt lat="42.85802" lon="43.1644">
        <ele>1517.980845</ele>
        <time>2021-08-15T22:45:41.305Z</time>
      </trkpt>
      <trkpt lat="42.8578" lon="43.1642">
        <ele>1516.4348</ele>
        <time>2021-08-15T22:45:48.811Z</time>
      </trkpt>
      <trkpt lat="42.85766" lon="43.16423">
        <ele>1515.628663</ele>
        <time>2021-08-15T22:45:52.417Z</time>
      </trkpt>
      <trkpt lat="42.85756" lon="43.16403">
        <ele>1514.603343</ele>
        <time>2021-08-15T22:45:57.437Z</time>
      </trkpt>
      <trkpt lat="42.85732" lon="43.16373">
        <ele>1512.873512</ele>
        <time>2021-08-15T22:46:06.128Z</time>
      </trkpt>
      <trkpt lat="42.85691" lon="43.16383">
        <ele>1510.644086</ele>
        <time>2021-08-15T22:46:17.814Z</time>
      </trkpt>
      <trkpt lat="42.8564" lon="43.16369">
        <ele>1507.91414</ele>
        <time>2021-08-15T22:46:32.217Z</time>
      </trkpt>
      <trkpt lat="42.85621" lon="43.1638">
        <ele>1506.798196</ele>
        <time>2021-08-15T22:46:38.593Z</time>
      </trkpt>
      <trkpt lat="42.85586" lon="43.1638">
        <ele>1504.965433</ele>
        <time>2021-08-15T22:46:49.266Z</time>
      </trkpt>
      <trkpt lat="42.85568" lon="43.16357">
        <ele>1504.154248</ele>
        <time>2021-08-15T22:46:56.826Z</time>
      </trkpt>
      <trkpt lat="42.85536" lon="43.16357">
        <ele>1503.208254</ele>
        <time>2021-08-15T22:47:06.708Z</time>
      </trkpt>
      <trkpt lat="42.8552" lon="43.16339">
        <ele>1502.577191</ele>
        <time>2021-08-15T22:47:13.413Z</time>
      </trkpt>
      <trkpt lat="42.8545" lon="43.16312">
        <ele>1500.412697</ele>
        <time>2021-08-15T22:47:36.147Z</time>
      </trkpt>
      <trkpt lat="42.85393" lon="43.16309">
        <ele>1498.681829</ele>
        <time>2021-08-15T22:47:53.917Z</time>
      </trkpt>
      <trkpt lat="42.85368" lon="43.16289">
        <ele>1497.773865</ele>
        <time>2021-08-15T22:48:02.824Z</time>
      </trkpt>
      <trkpt lat="42.85309" lon="43.1629">
        <ele>1495.935723</ele>
        <time>2021-08-15T22:48:20.681Z</time>
      </trkpt>
      <trkpt lat="42.85268" lon="43.16268">
        <ele>1494.536116</ele>
        <time>2021-08-15T22:48:34.443Z</time>
      </trkpt>
      <trkpt lat="42.85223" lon="43.16273">
        <ele>1493.016087</ele>
        <time>2021-08-15T22:48:48.353Z</time>
      </trkpt>
      <trkpt lat="42.85184" lon="43.16306">
        <ele>1491.3785</ele>
        <time>2021-08-15T22:49:02.087Z</time>
      </trkpt>
      <trkpt lat="42.85172" lon="43.1631">
        <ele>1490.947188</ele>
        <time>2021-08-15T22:49:05.711Z</time>
      </trkpt>
      <trkpt lat="42.85108" lon="43.16271">
        <ele>1488.44929</ele>
        <time>2021-08-15T22:49:26.685Z</time>
      </trkpt>
      <trkpt lat="42.85082" lon="43.16245">
        <ele>1487.287865</ele>
        <time>2021-08-15T22:49:36.504Z</time>
      </trkpt>
      <trkpt lat="42.84987" lon="43.16198">
        <ele>1484.341562</ele>
        <time>2021-08-15T22:50:07.647Z</time>
      </trkpt>
      <trkpt lat="42.84937" lon="43.16199">
        <ele>1482.914432</ele>
        <time>2021-08-15T22:50:23.153Z</time>
      </trkpt>
      <trkpt lat="42.84892" lon="43.16163">
        <ele>1481.764714</ele>
        <time>2021-08-15T22:50:40.193Z</time>
      </trkpt>
      <trkpt lat="42.8485" lon="43.16152">
        <ele>1481.153749</ele>
        <time>2021-08-15T22:50:54.625Z</time>
      </trkpt>
      <trkpt lat="42.84828" lon="43.16153">
        <ele>1480.832284</ele>
        <time>2021-08-15T22:51:02.292Z</time>
      </trkpt>
      <trkpt lat="42.84815" lon="43.16165">
        <ele>1480.6208</ele>
        <time>2021-08-15T22:51:07.351Z</time>
      </trkpt>
      <trkpt lat="42.84799" lon="43.16167">
        <ele>1480.385891</ele>
        <time>2021-08-15T22:51:12.954Z</time>
      </trkpt>
      <trkpt lat="42.84759" lon="43.16139">
        <ele>1479.744428</ele>
        <time>2021-08-15T22:51:28.361Z</time>
      </trkpt>
      <trkpt lat="42.84733" lon="43.16098">
        <ele>1479.057869</ele>
        <time>2021-08-15T22:51:42.083Z</time>
      </trkpt>
      <trkpt lat="42.84704" lon="43.16081">
        <ele>1478.468817</ele>
        <time>2021-08-15T22:51:52.641Z</time>
      </trkpt>
      <trkpt lat="42.84681" lon="43.1607">
        <ele>1478.01401</ele>
        <time>2021-08-15T22:52:00.685Z</time>
      </trkpt>
      <trkpt lat="42.84662" lon="43.16073">
        <ele>1477.650992</ele>
        <time>2021-08-15T22:52:07.133Z</time>
      </trkpt>
      <trkpt lat="42.84627" lon="43.16068">
        <ele>1476.998421</ele>
        <time>2021-08-15T22:52:18.358Z</time>
      </trkpt>
      <trkpt lat="42.84586" lon="43.16051">
        <ele>1476.195573</ele>
        <time>2021-08-15T22:52:31.864Z</time>
      </trkpt>
      <trkpt lat="42.84574" lon="43.16041">
        <ele>1475.829784</ele>
        <time>2021-08-15T22:52:36.185Z</time>
      </trkpt>
      <trkpt lat="42.84547" lon="43.15995">
        <ele>1474.667124</ele>
        <time>2021-08-15T22:52:49.802Z</time>
      </trkpt>
      <trkpt lat="42.84524" lon="43.1598">
        <ele>1474.007843</ele>
        <time>2021-08-15T22:52:57.582Z</time>
      </trkpt>
      <trkpt lat="42.84504" lon="43.15981">
        <ele>1473.462351</ele>
        <time>2021-08-15T22:53:04.034Z</time>
      </trkpt>
      <trkpt lat="42.84473" lon="43.15993">
        <ele>1472.599499</ele>
        <time>2021-08-15T22:53:14.291Z</time>
      </trkpt>
      <trkpt lat="42.84462" lon="43.15991">
        <ele>1472.309303</ele>
        <time>2021-08-15T22:53:17.761Z</time>
      </trkpt>
      <trkpt lat="42.84413" lon="43.16011">
        <ele>1471.061871</ele>
        <time>2021-08-15T22:53:34.050Z</time>
      </trkpt>
      <trkpt lat="42.84393" lon="43.15992">
        <ele>1470.597018</ele>
        <time>2021-08-15T22:53:41.737Z</time>
      </trkpt>
      <trkpt lat="42.8435" lon="43.15973">
        <ele>1469.72857</ele>
        <time>2021-08-15T22:53:56.203Z</time>
      </trkpt>
      <trkpt lat="42.84248" lon="43.15898">
        <ele>1467.585914</ele>
        <time>2021-08-15T22:54:35.014Z</time>
      </trkpt>
      <trkpt lat="42.84206" lon="43.15901">
        <ele>1466.938088</ele>
        <time>2021-08-15T22:54:49.145Z</time>
      </trkpt>
      <trkpt lat="42.8413" lon="43.15924">
        <ele>1465.735159</ele>
        <time>2021-08-15T22:55:14.989Z</time>
      </trkpt>
      <trkpt lat="42.84066" lon="43.1593">
        <ele>1464.682099</ele>
        <time>2021-08-15T22:55:36.527Z</time>
      </trkpt>
      <trkpt lat="42.8402" lon="43.1595">
        <ele>1463.847423</ele>
        <time>2021-08-15T22:55:52.398Z</time>
      </trkpt>
      <trkpt lat="42.83985" lon="43.15953">
        <ele>1463.23686</ele>
        <time>2021-08-15T22:56:04.029Z</time>
      </trkpt>
      <trkpt lat="42.83899" lon="43.15935">
        <ele>1461.601649</ele>
        <time>2021-08-15T22:56:32.503Z</time>
      </trkpt>
      <trkpt lat="42.83873" lon="43.15935">
        <ele>1460.938406</ele>
        <time>2021-08-15T22:56:40.941Z</time>
      </trkpt>
      <trkpt lat="42.83847" lon="43.15951">
        <ele>1460.212419</ele>
        <time>2021-08-15T22:56:50.147Z</time>
      </trkpt>
      <trkpt lat="42.83817" lon="43.15957">
        <ele>1459.436808</ele>
        <time>2021-08-15T22:56:59.803Z</time>
      </trkpt>
      <trkpt lat="42.83784" lon="43.15975">
        <ele>1458.527704</ele>
        <time>2021-08-15T22:57:10.890Z</time>
      </trkpt>
      <trkpt lat="42.83745" lon="43.15985">
        <ele>1457.507338</ele>
        <time>2021-08-15T22:57:23.218Z</time>
      </trkpt>
      <trkpt lat="42.83701" lon="43.15996">
        <ele>1455.925993</ele>
        <time>2021-08-15T22:57:36.779Z</time>
      </trkpt>
      <trkpt lat="42.83676" lon="43.15995">
        <ele>1455.014469</ele>
        <time>2021-08-15T22:57:44.442Z</time>
      </trkpt>
      <trkpt lat="42.83641" lon="43.15981">
        <ele>1453.693253</ele>
        <time>2021-08-15T22:57:55.372Z</time>
      </trkpt>
      <trkpt lat="42.83507" lon="43.16021">
        <ele>1449.075181</ele>
        <time>2021-08-15T22:58:36.882Z</time>
      </trkpt>
      <trkpt lat="42.83482" lon="43.16019">
        <ele>1448.323173</ele>
        <time>2021-08-15T22:58:44.538Z</time>
      </trkpt>
      <trkpt lat="42.83465" lon="43.16004">
        <ele>1447.685147</ele>
        <time>2021-08-15T22:58:51.095Z</time>
      </trkpt>
      <trkpt lat="42.83444" lon="43.15996">
        <ele>1447.036</ele>
        <time>2021-08-15T22:58:57.753Z</time>
      </trkpt>
      <trkpt lat="42.83406" lon="43.15997">
        <ele>1445.859028</ele>
        <time>2021-08-15T22:59:09.813Z</time>
      </trkpt>
      <trkpt lat="42.83371" lon="43.16014">
        <ele>1444.715809</ele>
        <time>2021-08-15T22:59:21.422Z</time>
      </trkpt>
      <trkpt lat="42.83278" lon="43.15992">
        <ele>1441.80981</ele>
        <time>2021-08-15T22:59:50.688Z</time>
      </trkpt>
      <trkpt lat="42.83248" lon="43.1601">
        <ele>1440.789583</ele>
        <time>2021-08-15T23:00:00.817Z</time>
      </trkpt>
      <trkpt lat="42.83238" lon="43.16009">
        <ele>1440.480848</ele>
        <time>2021-08-15T23:00:03.875Z</time>
      </trkpt>
      <trkpt lat="42.83163" lon="43.15977">
        <ele>1438.015392</ele>
        <time>2021-08-15T23:00:27.620Z</time>
      </trkpt>
      <trkpt lat="42.83045" lon="43.15961">
        <ele>1434.294978</ele>
        <time>2021-08-15T23:01:04.066Z</time>
      </trkpt>
      <trkpt lat="42.83004" lon="43.15946">
        <ele>1433.270151</ele>
        <time>2021-08-15T23:01:17.618Z</time>
      </trkpt>
      <trkpt lat="42.82945" lon="43.15887">
        <ele>1431.524369</ele>
        <time>2021-08-15T23:01:41.358Z</time>
      </trkpt>
      <trkpt lat="42.82858" lon="43.15844">
        <ele>1429.089021</ele>
        <time>2021-08-15T23:02:11.258Z</time>
      </trkpt>
      <trkpt lat="42.82752" lon="43.15817">
        <ele>1425.616313</ele>
        <time>2021-08-15T23:02:44.204Z</time>
      </trkpt>
      <trkpt lat="42.82707" lon="43.15817">
        <ele>1424.167127</ele>
        <time>2021-08-15T23:02:57.631Z</time>
      </trkpt>
      <trkpt lat="42.82673" lon="43.15831">
        <ele>1422.922893</ele>
        <time>2021-08-15T23:03:08.268Z</time>
      </trkpt>
      <trkpt lat="42.82618" lon="43.15829">
        <ele>1421.038875</ele>
        <time>2021-08-15T23:03:24.376Z</time>
      </trkpt>
      <trkpt lat="42.82438" lon="43.1568">
        <ele>1414.840704</ele>
        <time>2021-08-15T23:04:29.896Z</time>
      </trkpt>
      <trkpt lat="42.82334" lon="43.15628">
        <ele>1412.566341</ele>
        <time>2021-08-15T23:05:06.578Z</time>
      </trkpt>
      <trkpt lat="42.82276" lon="43.15538">
        <ele>1411.258441</ele>
        <time>2021-08-15T23:05:36.263Z</time>
      </trkpt>
      <trkpt lat="42.82185" lon="43.15472">
        <ele>1409.846543</ele>
        <time>2021-08-15T23:06:10.594Z</time>
      </trkpt>
      <trkpt lat="42.82135" lon="43.15428">
        <ele>1409.076446</ele>
        <time>2021-08-15T23:06:30.720Z</time>
      </trkpt>
      <trkpt lat="42.82107" lon="43.15415">
        <ele>1408.6912</ele>
        <time>2021-08-15T23:06:40.770Z</time>
      </trkpt>
      <trkpt lat="42.82094" lon="43.15395">
        <ele>1408.44218</ele>
        <time>2021-08-15T23:06:47.525Z</time>
      </trkpt>
      <trkpt lat="42.82069" lon="43.1535">
        <ele>1408.076006</ele>
        <time>2021-08-15T23:07:01.914Z</time>
      </trkpt>
      <trkpt lat="42.82013" lon="43.1534">
        <ele>1407.63856</ele>
        <time>2021-08-15T23:07:21.680Z</time>
      </trkpt>
      <trkpt lat="42.81962" lon="43.15318">
        <ele>1407.221583</ele>
        <time>2021-08-15T23:07:40.669Z</time>
      </trkpt>
      <trkpt lat="42.81938" lon="43.15274">
        <ele>1406.896401</ele>
        <time>2021-08-15T23:07:54.860Z</time>
      </trkpt>
      <trkpt lat="42.8193" lon="43.15208">
        <ele>1406.296855</ele>
        <time>2021-08-15T23:08:11.975Z</time>
      </trkpt>
      <trkpt lat="42.81928" lon="43.15189">
        <ele>1406.124001</ele>
        <time>2021-08-15T23:08:16.795Z</time>
      </trkpt>
      <trkpt lat="42.8195" lon="43.15141">
        <ele>1405.613526</ele>
        <time>2021-08-15T23:08:31.011Z</time>
      </trkpt>
      <trkpt lat="42.81983" lon="43.15102">
        <ele>1405.078248</ele>
        <time>2021-08-15T23:08:45.677Z</time>
      </trkpt>
      <trkpt lat="42.82024" lon="43.14983">
        <ele>1403.1917</ele>
        <time>2021-08-15T23:09:17.232Z</time>
      </trkpt>
      <trkpt lat="42.82038" lon="43.14896">
        <ele>1401.721827</ele>
        <time>2021-08-15T23:09:38.043Z</time>
      </trkpt>
      <trkpt lat="42.82068" lon="43.14618">
        <ele>1396.734201</ele>
        <time>2021-08-15T23:10:43.256Z</time>
      </trkpt>
      <trkpt lat="42.8207" lon="43.14543">
        <ele>1395.891818</ele>
        <time>2021-08-15T23:11:01.193Z</time>
      </trkpt>
      <trkpt lat="42.82019" lon="43.14471">
        <ele>1395.181969</ele>
        <time>2021-08-15T23:11:25.996Z</time>
      </trkpt>
      <trkpt lat="42.82003" lon="43.14426">
        <ele>1394.829937</ele>
        <time>2021-08-15T23:11:39.030Z</time>
      </trkpt>
      <trkpt lat="42.82003" lon="43.14352">
        <ele>1394.625954</ele>
        <time>2021-08-15T23:11:59.845Z</time>
      </trkpt>
      <trkpt lat="42.82017" lon="43.14288">
        <ele>1395.006281</ele>
        <time>2021-08-15T23:12:19.860Z</time>
      </trkpt>
      <trkpt lat="42.82054" lon="43.14232">
        <ele>1395.431599</ele>
        <time>2021-08-15T23:12:43.473Z</time>
      </trkpt>
      <trkpt lat="42.82181" lon="43.14002">
        <ele>1396.213541</ele>
        <time>2021-08-15T23:14:10.872Z</time>
      </trkpt>
      <trkpt lat="42.82238" lon="43.13921">
        <ele>1394.338605</ele>
        <time>2021-08-15T23:14:37.667Z</time>
      </trkpt>
      <trkpt lat="42.82307" lon="43.13698">
        <ele>1388.420541</ele>
        <time>2021-08-15T23:15:29.945Z</time>
      </trkpt>
      <trkpt lat="42.82314" lon="43.13633">
        <ele>1386.86351</ele>
        <time>2021-08-15T23:15:44.466Z</time>
      </trkpt>
      <trkpt lat="42.8234" lon="43.13571">
        <ele>1385.17487</ele>
        <time>2021-08-15T23:16:00.991Z</time>
      </trkpt>
      <trkpt lat="42.82386" lon="43.13545">
        <ele>1384.208347</ele>
        <time>2021-08-15T23:16:17.639Z</time>
      </trkpt>
      <trkpt lat="42.82388" lon="43.13488">
        <ele>1383.941677</ele>
        <time>2021-08-15T23:16:32.510Z</time>
      </trkpt>
      <trkpt lat="42.82412" lon="43.13442">
        <ele>1383.679636</ele>
        <time>2021-08-15T23:16:47.760Z</time>
      </trkpt>
      <trkpt lat="42.82444" lon="43.13312">
        <ele>1382.78994</ele>
        <time>2021-08-15T23:17:24.672Z</time>
      </trkpt>
      <trkpt lat="42.82486" lon="43.13216">
        <ele>1381.542388</ele>
        <time>2021-08-15T23:17:52.856Z</time>
      </trkpt>
      <trkpt lat="42.82517" lon="43.13111">
        <ele>1379.982547</ele>
        <time>2021-08-15T23:18:19.268Z</time>
      </trkpt>
      <trkpt lat="42.82521" lon="43.13066">
        <ele>1378.764879</ele>
        <time>2021-08-15T23:18:29.505Z</time>
      </trkpt>
      <trkpt lat="42.82503" lon="43.13025">
        <ele>1377.474669</ele>
        <time>2021-08-15T23:18:40.168Z</time>
      </trkpt>
      <trkpt lat="42.82501" lon="43.12987">
        <ele>1376.456692</ele>
        <time>2021-08-15T23:18:48.507Z</time>
      </trkpt>
      <trkpt lat="42.82508" lon="43.12939">
        <ele>1375.160423</ele>
        <time>2021-08-15T23:18:59.108Z</time>
      </trkpt>
      <trkpt lat="42.82523" lon="43.12907">
        <ele>1374.145983</ele>
        <time>2021-08-15T23:19:07.365Z</time>
      </trkpt>
      <trkpt lat="42.82524" lon="43.1289">
        <ele>1373.696921</ele>
        <time>2021-08-15T23:19:11.112Z</time>
      </trkpt>
      <trkpt lat="42.82513" lon="43.12863">
        <ele>1372.8926</ele>
        <time>2021-08-15T23:19:17.860Z</time>
      </trkpt>
      <trkpt lat="42.82527" lon="43.12782">
        <ele>1370.746471</ele>
        <time>2021-08-15T23:19:36.003Z</time>
      </trkpt>
      <trkpt lat="42.82524" lon="43.12764">
        <ele>1370.271342</ele>
        <time>2021-08-15T23:19:40.073Z</time>
      </trkpt>
      <trkpt lat="42.82458" lon="43.12625">
        <ele>1366.749394</ele>
        <time>2021-08-15T23:20:18.151Z</time>
      </trkpt>
      <trkpt lat="42.82431" lon="43.12576">
        <ele>1365.93114</ele>
        <time>2021-08-15T23:20:32.838Z</time>
      </trkpt>
      <trkpt lat="42.82392" lon="43.12526">
        <ele>1364.95371</ele>
        <time>2021-08-15T23:20:50.647Z</time>
      </trkpt>
      <trkpt lat="42.82363" lon="43.12519">
        <ele>1364.4063</ele>
        <time>2021-08-15T23:21:00.734Z</time>
      </trkpt>
      <trkpt lat="42.82341" lon="43.12505">
        <ele>1364.02063</ele>
        <time>2021-08-15T23:21:09.239Z</time>
      </trkpt>
      <trkpt lat="42.82275" lon="43.1248">
        <ele>1363.027408</ele>
        <time>2021-08-15T23:21:32.622Z</time>
      </trkpt>
      <trkpt lat="42.82223" lon="43.12432">
        <ele>1362.118935</ele>
        <time>2021-08-15T23:21:53.548Z</time>
      </trkpt>
      <trkpt lat="42.82177" lon="43.12378">
        <ele>1361.052064</ele>
        <time>2021-08-15T23:22:13.357Z</time>
      </trkpt>
      <trkpt lat="42.82163" lon="43.12345">
        <ele>1360.478849</ele>
        <time>2021-08-15T23:22:22.326Z</time>
      </trkpt>
      <trkpt lat="42.82134" lon="43.123">
        <ele>1359.57388</ele>
        <time>2021-08-15T23:22:36.501Z</time>
      </trkpt>
      <trkpt lat="42.82098" lon="43.12279">
        <ele>1358.775487</ele>
        <time>2021-08-15T23:22:49.104Z</time>
      </trkpt>
      <trkpt lat="42.82069" lon="43.12246">
        <ele>1357.999443</ele>
        <time>2021-08-15T23:23:01.468Z</time>
      </trkpt>
      <trkpt lat="42.82016" lon="43.1221">
        <ele>1357.158126</ele>
        <time>2021-08-15T23:23:20.911Z</time>
      </trkpt>
      <trkpt lat="42.81977" lon="43.12147">
        <ele>1356.311139</ele>
        <time>2021-08-15T23:23:41.023Z</time>
      </trkpt>
      <trkpt lat="42.8194" lon="43.12008">
        <ele>1354.954362</ele>
        <time>2021-08-15T23:24:19.160Z</time>
      </trkpt>
      <trkpt lat="42.8184" lon="43.11812">
        <ele>1352.990557</ele>
        <time>2021-08-15T23:25:19.281Z</time>
      </trkpt>
      <trkpt lat="42.81793" lon="43.11765">
        <ele>1352.157188</ele>
        <time>2021-08-15T23:25:38.770Z</time>
      </trkpt>
      <trkpt lat="42.81702" lon="43.11714">
        <ele>1350.845223</ele>
        <time>2021-08-15T23:26:11.339Z</time>
      </trkpt>
      <trkpt lat="42.81653" lon="43.11657">
        <ele>1350.215759</ele>
        <time>2021-08-15T23:26:33.173Z</time>
      </trkpt>
      <trkpt lat="42.81626" lon="43.1164">
        <ele>1349.919662</ele>
        <time>2021-08-15T23:26:43.688Z</time>
      </trkpt>
      <trkpt lat="42.81557" lon="43.11625">
        <ele>1349.239228</ele>
        <time>2021-08-15T23:27:08.363Z</time>
      </trkpt>
      <trkpt lat="42.81482" lon="43.1158">
        <ele>1348.506485</ele>
        <time>2021-08-15T23:27:37.861Z</time>
      </trkpt>
      <trkpt lat="42.81377" lon="43.11485">
        <ele>1346.997517</ele>
        <time>2021-08-15T23:28:20.653Z</time>
      </trkpt>
      <trkpt lat="42.81308" lon="43.11414">
        <ele>1345.131141</ele>
        <time>2021-08-15T23:28:48.608Z</time>
      </trkpt>
      <trkpt lat="42.81286" lon="43.11387">
        <ele>1344.495725</ele>
        <time>2021-08-15T23:28:58.019Z</time>
      </trkpt>
      <trkpt lat="42.81254" lon="43.11328">
        <ele>1343.111624</ele>
        <time>2021-08-15T23:29:15.084Z</time>
      </trkpt>
      <trkpt lat="42.81234" lon="43.11313">
        <ele>1342.401974</ele>
        <time>2021-08-15T23:29:21.921Z</time>
      </trkpt>
      <trkpt lat="42.81228" lon="43.11297">
        <ele>1341.956664</ele>
        <time>2021-08-15T23:29:26.295Z</time>
      </trkpt>
      <trkpt lat="42.81226" lon="43.11276">
        <ele>1341.47222</ele>
        <time>2021-08-15T23:29:30.919Z</time>
      </trkpt>
      <trkpt lat="42.81233" lon="43.11246">
        <ele>1340.720825</ele>
        <time>2021-08-15T23:29:38.185Z</time>
      </trkpt>
      <trkpt lat="42.8123" lon="43.11234">
        <ele>1340.433174</ele>
        <time>2021-08-15T23:29:40.898Z</time>
      </trkpt>
      <trkpt lat="42.81201" lon="43.11215">
        <ele>1339.397233</ele>
        <time>2021-08-15T23:29:50.731Z</time>
      </trkpt>
      <trkpt lat="42.81181" lon="43.11187">
        <ele>1338.470378</ele>
        <time>2021-08-15T23:29:59.517Z</time>
      </trkpt>
      <trkpt lat="42.81125" lon="43.11082">
        <ele>1334.882809</ele>
        <time>2021-08-15T23:30:28.136Z</time>
      </trkpt>
      <trkpt lat="42.81074" lon="43.11093">
        <ele>1332.869593</ele>
        <time>2021-08-15T23:30:43.562Z</time>
      </trkpt>
      <trkpt lat="42.81025" lon="43.1108">
        <ele>1330.981822</ele>
        <time>2021-08-15T23:30:58.316Z</time>
      </trkpt>
      <trkpt lat="42.81011" lon="43.1107">
        <ele>1330.507843</ele>
        <time>2021-08-15T23:31:03.015Z</time>
      </trkpt>
      <trkpt lat="42.80935" lon="43.10986">
        <ele>1327.543103</ele>
        <time>2021-08-15T23:31:33.235Z</time>
      </trkpt>
      <trkpt lat="42.80905" lon="43.10932">
        <ele>1326.055975</ele>
        <time>2021-08-15T23:31:48.785Z</time>
      </trkpt>
      <trkpt lat="42.80876" lon="43.1084">
        <ele>1324.937373</ele>
        <time>2021-08-15T23:32:12.698Z</time>
      </trkpt>
      <trkpt lat="42.80854" lon="43.1081">
        <ele>1324.563353</ele>
        <time>2021-08-15T23:32:23.311Z</time>
      </trkpt>
      <trkpt lat="42.80796" lon="43.10769">
        <ele>1323.778315</ele>
        <time>2021-08-15T23:32:46.432Z</time>
      </trkpt>
      <trkpt lat="42.80746" lon="43.10745">
        <ele>1323.537884</ele>
        <time>2021-08-15T23:33:05.924Z</time>
      </trkpt>
      <trkpt lat="42.80738" lon="43.10733">
        <ele>1323.549378</ele>
        <time>2021-08-15T23:33:10.387Z</time>
      </trkpt>
      <trkpt lat="42.80729" lon="43.10718">
        <ele>1323.563557</ele>
        <time>2021-08-15T23:33:15.681Z</time>
      </trkpt>
      <trkpt lat="42.80704" lon="43.10616">
        <ele>1323.641533</ele>
        <time>2021-08-15T23:33:46.531Z</time>
      </trkpt>
      <trkpt lat="42.8067" lon="43.10568">
        <ele>1323.630352</ele>
        <time>2021-08-15T23:34:05.758Z</time>
      </trkpt>
      <trkpt lat="42.80664" lon="43.10547">
        <ele>1323.413153</ele>
        <time>2021-08-15T23:34:11.856Z</time>
      </trkpt>
      <trkpt lat="42.80659" lon="43.10501">
        <ele>1322.968666</ele>
        <time>2021-08-15T23:34:24.105Z</time>
      </trkpt>
      <trkpt lat="42.80636" lon="43.1037">
        <ele>1321.687056</ele>
        <time>2021-08-15T23:34:56.839Z</time>
      </trkpt>
      <trkpt lat="42.80628" lon="43.10346">
        <ele>1321.433041</ele>
        <time>2021-08-15T23:35:03.081Z</time>
      </trkpt>
      <trkpt lat="42.80566" lon="43.10259">
        <ele>1319.999657</ele>
        <time>2021-08-15T23:35:31.668Z</time>
      </trkpt>
      <trkpt lat="42.80541" lon="43.10196">
        <ele>1319.135855</ele>
        <time>2021-08-15T23:35:49.002Z</time>
      </trkpt>
      <trkpt lat="42.80501" lon="43.1013">
        <ele>1318.451645</ele>
        <time>2021-08-15T23:36:10.528Z</time>
      </trkpt>
      <trkpt lat="42.80486" lon="43.10114">
        <ele>1318.505316</ele>
        <time>2021-08-15T23:36:17.809Z</time>
      </trkpt>
      <trkpt lat="42.80419" lon="43.10067">
        <ele>1318.706479</ele>
        <time>2021-08-15T23:36:47.579Z</time>
      </trkpt>
      <trkpt lat="42.80347" lon="43.10032">
        <ele>1318.947632</ele>
        <time>2021-08-15T23:37:18.633Z</time>
      </trkpt>
      <trkpt lat="42.80327" lon="43.1003">
        <ele>1319.087998</ele>
        <time>2021-08-15T23:37:27.142Z</time>
      </trkpt>
      <trkpt lat="42.80308" lon="43.10016">
        <ele>1319.239975</ele>
        <time>2021-08-15T23:37:36.152Z</time>
      </trkpt>
      <trkpt lat="42.80302" lon="43.0996">
        <ele>1319.523531</ele>
        <time>2021-08-15T23:37:53.098Z</time>
      </trkpt>
      <trkpt lat="42.80293" lon="43.09927">
        <ele>1319.695639</ele>
        <time>2021-08-15T23:38:03.063Z</time>
      </trkpt>
      <trkpt lat="42.80224" lon="43.09792">
        <ele>1320.636667</ele>
        <time>2021-08-15T23:38:52.018Z</time>
      </trkpt>
      <trkpt lat="42.80188" lon="43.09746">
        <ele>1321.070058</ele>
        <time>2021-08-15T23:39:12.489Z</time>
      </trkpt>
      <trkpt lat="42.80184" lon="43.09732">
        <ele>1321.166033</ele>
        <time>2021-08-15T23:39:17.208Z</time>
      </trkpt>
      <trkpt lat="42.80186" lon="43.097">
        <ele>1321.37239</ele>
        <time>2021-08-15T23:39:27.557Z</time>
      </trkpt>
      <trkpt lat="42.80192" lon="43.09664">
        <ele>1321.609989</ele>
        <time>2021-08-15T23:39:39.306Z</time>
      </trkpt>
      <trkpt lat="42.80208" lon="43.09624">
        <ele>1321.715421</ele>
        <time>2021-08-15T23:39:53.414Z</time>
      </trkpt>
      <trkpt lat="42.8021" lon="43.09607">
        <ele>1321.72708</ele>
        <time>2021-08-15T23:39:58.516Z</time>
      </trkpt>
      <trkpt lat="42.80195" lon="43.09557">
        <ele>1321.763126</ele>
        <time>2021-08-15T23:40:13.941Z</time>
      </trkpt>
      <trkpt lat="42.80196" lon="43.09501">
        <ele>1321.801341</ele>
        <time>2021-08-15T23:40:29.483Z</time>
      </trkpt>
      <trkpt lat="42.80185" lon="43.09428">
        <ele>1321.851584</ele>
        <time>2021-08-15T23:40:48.826Z</time>
      </trkpt>
      <trkpt lat="42.80185" lon="43.09382">
        <ele>1321.765607</ele>
        <time>2021-08-15T23:41:00.542Z</time>
      </trkpt>
      <trkpt lat="42.80149" lon="43.09295">
        <ele>1321.493225</ele>
        <time>2021-08-15T23:41:25.988Z</time>
      </trkpt>
      <trkpt lat="42.80138" lon="43.0925">
        <ele>1321.364162</ele>
        <time>2021-08-15T23:41:38.352Z</time>
      </trkpt>
      <trkpt lat="42.80145" lon="43.09206">
        <ele>1321.240869</ele>
        <time>2021-08-15T23:41:50.725Z</time>
      </trkpt>
      <trkpt lat="42.8013" lon="43.09158">
        <ele>1321.529114</ele>
        <time>2021-08-15T23:42:06.435Z</time>
      </trkpt>
      <trkpt lat="42.80125" lon="43.09107">
        <ele>1322.033285</ele>
        <time>2021-08-15T23:42:22.872Z</time>
      </trkpt>
      <trkpt lat="42.80113" lon="43.09052">
        <ele>1322.603203</ele>
        <time>2021-08-15T23:42:42.731Z</time>
      </trkpt>
      <trkpt lat="42.80113" lon="43.09029">
        <ele>1322.829841</ele>
        <time>2021-08-15T23:42:50.938Z</time>
      </trkpt>
      <trkpt lat="42.80133" lon="43.08923">
        <ele>1323.545057</ele>
        <time>2021-08-15T23:43:27.456Z</time>
      </trkpt>
      <trkpt lat="42.8013" lon="43.08905">
        <ele>1323.509877</ele>
        <time>2021-08-15T23:43:32.795Z</time>
      </trkpt>
      <trkpt lat="42.80121" lon="43.08885">
        <ele>1323.462604</ele>
        <time>2021-08-15T23:43:39.792Z</time>
      </trkpt>
      <trkpt lat="42.80118" lon="43.0882">
        <ele>1323.335641</ele>
        <time>2021-08-15T23:43:57.309Z</time>
      </trkpt>
      <trkpt lat="42.80103" lon="43.08781">
        <ele>1323.249475</ele>
        <time>2021-08-15T23:44:08.790Z</time>
      </trkpt>
      <trkpt lat="42.80088" lon="43.08777">
        <ele>1323.208932</ele>
        <time>2021-08-15T23:44:13.935Z</time>
      </trkpt>
      <trkpt lat="42.8008" lon="43.08768">
        <ele>1323.180068</ele>
        <time>2021-08-15T23:44:17.550Z</time>
      </trkpt>
      <trkpt lat="42.80062" lon="43.08725">
        <ele>1322.643776</ele>
        <time>2021-08-15T23:44:29.478Z</time>
      </trkpt>
      <trkpt lat="42.80052" lon="43.08716">
        <ele>1322.260085</ele>
        <time>2021-08-15T23:44:33.492Z</time>
      </trkpt>
      <trkpt lat="42.80025" lon="43.08709">
        <ele>1321.416092</ele>
        <time>2021-08-15T23:44:41.945Z</time>
      </trkpt>
      <trkpt lat="42.79985" lon="43.08688">
        <ele>1320.086012</ele>
        <time>2021-08-15T23:44:55.084Z</time>
      </trkpt>
      <trkpt lat="42.79925" lon="43.08556">
        <ele>1315.991107</ele>
        <time>2021-08-15T23:45:29.584Z</time>
      </trkpt>
      <trkpt lat="42.79916" lon="43.08544">
        <ele>1315.363606</ele>
        <time>2021-08-15T23:45:33.356Z</time>
      </trkpt>
      <trkpt lat="42.79908" lon="43.08539">
        <ele>1314.95241</ele>
        <time>2021-08-15T23:45:35.792Z</time>
      </trkpt>
      <trkpt lat="42.79893" lon="43.08542">
        <ele>1314.176612</ele>
        <time>2021-08-15T23:45:40.363Z</time>
      </trkpt>
      <trkpt lat="42.79877" lon="43.08573">
        <ele>1312.808446</ele>
        <time>2021-08-15T23:45:48.266Z</time>
      </trkpt>
      <trkpt lat="42.79847" lon="43.08597">
        <ele>1311.107174</ele>
        <time>2021-08-15T23:45:58.070Z</time>
      </trkpt>
      <trkpt lat="42.79825" lon="43.08595">
        <ele>1310.035268</ele>
        <time>2021-08-15T23:46:04.251Z</time>
      </trkpt>
      <trkpt lat="42.79762" lon="43.08566">
        <ele>1306.798315</ele>
        <time>2021-08-15T23:46:23.383Z</time>
      </trkpt>
      <trkpt lat="42.79736" lon="43.08539">
        <ele>1305.248196</ele>
        <time>2021-08-15T23:46:32.704Z</time>
      </trkpt>
      <trkpt lat="42.79713" lon="43.08468">
        <ele>1302.526365</ele>
        <time>2021-08-15T23:46:49.188Z</time>
      </trkpt>
      <trkpt lat="42.79683" lon="43.08429">
        <ele>1300.547134</ele>
        <time>2021-08-15T23:47:01.398Z</time>
      </trkpt>
      <trkpt lat="42.79675" lon="43.08393">
        <ele>1299.681396</ele>
        <time>2021-08-15T23:47:09.791Z</time>
      </trkpt>
      <trkpt lat="42.79663" lon="43.08367">
        <ele>1299.148245</ele>
        <time>2021-08-15T23:47:16.547Z</time>
      </trkpt>
      <trkpt lat="42.79661" lon="43.08347">
        <ele>1298.777627</ele>
        <time>2021-08-15T23:47:21.322Z</time>
      </trkpt>
      <trkpt lat="42.79651" lon="43.08331">
        <ele>1298.418421</ele>
        <time>2021-08-15T23:47:25.990Z</time>
      </trkpt>
      <trkpt lat="42.79637" lon="43.08325">
        <ele>1298.0558</ele>
        <time>2021-08-15T23:47:30.744Z</time>
      </trkpt>
      <trkpt lat="42.79619" lon="43.08289">
        <ele>1297.277531</ele>
        <time>2021-08-15T23:47:41.123Z</time>
      </trkpt>
      <trkpt lat="42.79539" lon="43.08206">
        <ele>1295.565359</ele>
        <time>2021-08-15T23:48:14.900Z</time>
      </trkpt>
      <trkpt lat="42.79454" lon="43.08133">
        <ele>1295.022935</ele>
        <time>2021-08-15T23:48:50.860Z</time>
      </trkpt>
      <trkpt lat="42.79437" lon="43.08103">
        <ele>1294.871334</ele>
        <time>2021-08-15T23:49:01.432Z</time>
      </trkpt>
      <trkpt lat="42.79396" lon="43.08076">
        <ele>1294.598187</ele>
        <time>2021-08-15T23:49:18.605Z</time>
      </trkpt>
      <trkpt lat="42.79394" lon="43.08063">
        <ele>1294.535689</ele>
        <time>2021-08-15T23:49:22.533Z</time>
      </trkpt>
      <trkpt lat="42.79398" lon="43.08041">
        <ele>1294.429658</ele>
        <time>2021-08-15T23:49:29.046Z</time>
      </trkpt>
      <trkpt lat="42.79422" lon="43.07977">
        <ele>1294.096889</ele>
        <time>2021-08-15T23:49:48.901Z</time>
      </trkpt>
      <trkpt lat="42.79422" lon="43.07904">
        <ele>1293.759217</ele>
        <time>2021-08-15T23:50:06.794Z</time>
      </trkpt>
      <trkpt lat="42.7945" lon="43.07816">
        <ele>1292.059665</ele>
        <time>2021-08-15T23:50:29.235Z</time>
      </trkpt>
      <trkpt lat="42.79455" lon="43.07779">
        <ele>1291.256272</ele>
        <time>2021-08-15T23:50:38.040Z</time>
      </trkpt>
      <trkpt lat="42.79458" lon="43.07743">
        <ele>1290.495784</ele>
        <time>2021-08-15T23:50:46.254Z</time>
      </trkpt>
      <trkpt lat="42.79451" lon="43.07725">
        <ele>1290.064257</ele>
        <time>2021-08-15T23:50:50.717Z</time>
      </trkpt>
      <trkpt lat="42.79426" lon="43.0769">
        <ele>1289.025551</ele>
        <time>2021-08-15T23:51:01.724Z</time>
      </trkpt>
      <trkpt lat="42.79418" lon="43.07654">
        <ele>1288.228383</ele>
        <time>2021-08-15T23:51:10.305Z</time>
      </trkpt>
      <trkpt lat="42.79424" lon="43.07618">
        <ele>1287.457734</ele>
        <time>2021-08-15T23:51:18.559Z</time>
      </trkpt>
      <trkpt lat="42.79435" lon="43.07587">
        <ele>1286.747567</ele>
        <time>2021-08-15T23:51:26.080Z</time>
      </trkpt>
      <trkpt lat="42.79456" lon="43.07552">
        <ele>1285.787824</ele>
        <time>2021-08-15T23:51:36.215Z</time>
      </trkpt>
      <trkpt lat="42.79472" lon="43.07513">
        <ele>1284.855862</ele>
        <time>2021-08-15T23:51:46.671Z</time>
      </trkpt>
      <trkpt lat="42.79471" lon="43.07399">
        <ele>1282.895782</ele>
        <time>2021-08-15T23:52:13.977Z</time>
      </trkpt>
      <trkpt lat="42.79475" lon="43.07381">
        <ele>1282.691937</ele>
        <time>2021-08-15T23:52:18.421Z</time>
      </trkpt>
      <trkpt lat="42.79474" lon="43.07371">
        <ele>1282.579675</ele>
        <time>2021-08-15T23:52:20.854Z</time>
      </trkpt>
      <trkpt lat="42.79443" lon="43.07263">
        <ele>1281.326583</ele>
        <time>2021-08-15T23:52:49.905Z</time>
      </trkpt>
      <trkpt lat="42.7944" lon="43.07214">
        <ele>1280.790454</ele>
        <time>2021-08-15T23:53:02.347Z</time>
      </trkpt>
      <trkpt lat="42.79448" lon="43.07144">
        <ele>1280.150057</ele>
        <time>2021-08-15T23:53:19.976Z</time>
      </trkpt>
      <trkpt lat="42.79458" lon="43.07098">
        <ele>1279.728096</ele>
        <time>2021-08-15T23:53:32.236Z</time>
      </trkpt>
      <trkpt lat="42.79461" lon="43.07075">
        <ele>1279.527792</ele>
        <time>2021-08-15T23:53:38.039Z</time>
      </trkpt>
      <trkpt lat="42.79465" lon="43.07035">
        <ele>1279.172755</ele>
        <time>2021-08-15T23:53:48.217Z</time>
      </trkpt>
      <trkpt lat="42.79465" lon="43.07029">
        <ele>1279.114635</ele>
        <time>2021-08-15T23:53:49.895Z</time>
      </trkpt>
      <trkpt lat="42.79465" lon="43.06985">
        <ele>1278.727451</ele>
        <time>2021-08-15T23:54:00.900Z</time>
      </trkpt>
      <trkpt lat="42.79468" lon="43.06778">
        <ele>1276.31022</ele>
        <time>2021-08-15T23:54:51.418Z</time>
      </trkpt>
      <trkpt lat="42.79469" lon="43.06722">
        <ele>1275.650127</ele>
        <time>2021-08-15T23:55:04.936Z</time>
      </trkpt>
      <trkpt lat="42.79469" lon="43.06694">
        <ele>1275.271305</ele>
        <time>2021-08-15T23:55:11.937Z</time>
      </trkpt>
      <trkpt lat="42.79467" lon="43.06572">
        <ele>1273.642848</ele>
        <time>2021-08-15T23:55:41.528Z</time>
      </trkpt>
      <trkpt lat="42.79468" lon="43.06556">
        <ele>1273.425919</ele>
        <time>2021-08-15T23:55:45.373Z</time>
      </trkpt>
      <trkpt lat="42.79468" lon="43.06542">
        <ele>1273.245127</ele>
        <time>2021-08-15T23:55:48.742Z</time>
      </trkpt>
      <trkpt lat="42.79468" lon="43.06514">
        <ele>1272.863996</ele>
        <time>2021-08-15T23:55:55.446Z</time>
      </trkpt>
      <trkpt lat="42.79467" lon="43.06484">
        <ele>1272.461568</ele>
        <time>2021-08-15T23:56:02.759Z</time>
      </trkpt>
      <trkpt lat="42.79467" lon="43.06459">
        <ele>1272.085508</ele>
        <time>2021-08-15T23:56:08.604Z</time>
      </trkpt>
      <trkpt lat="42.79467" lon="43.06443">
        <ele>1271.827651</ele>
        <time>2021-08-15T23:56:12.476Z</time>
      </trkpt>
      <trkpt lat="42.79467" lon="43.06422">
        <ele>1271.465661</ele>
        <time>2021-08-15T23:56:17.579Z</time>
      </trkpt>
      <trkpt lat="42.79404" lon="43.06102">
        <ele>1265.740972</ele>
        <time>2021-08-15T23:57:35.541Z</time>
      </trkpt>
      <trkpt lat="42.79371" lon="43.05788">
        <ele>1259.792903</ele>
        <time>2021-08-15T23:58:48.937Z</time>
      </trkpt>
      <trkpt lat="42.79371" lon="43.05739">
        <ele>1258.962597</ele>
        <time>2021-08-15T23:59:00.450Z</time>
      </trkpt>
      <trkpt lat="42.79371" lon="43.05717">
        <ele>1258.68829</ele>
        <time>2021-08-15T23:59:05.743Z</time>
      </trkpt>
      <trkpt lat="42.79361" lon="43.0563">
        <ele>1257.606627</ele>
        <time>2021-08-15T23:59:26.874Z</time>
      </trkpt>
      <trkpt lat="42.79352" lon="43.05543">
        <ele>1256.522074</ele>
        <time>2021-08-15T23:59:48.480Z</time>
      </trkpt>
      <trkpt lat="42.79316" lon="43.05346">
        <ele>1255.592108</ele>
        <time>2021-08-16T00:00:40.806Z</time>
      </trkpt>
      <trkpt lat="42.79304" lon="43.05303">
        <ele>1255.44986</ele>
        <time>2021-08-16T00:00:53.271Z</time>
      </trkpt>
      <trkpt lat="42.79302" lon="43.05237">
        <ele>1255.822936</ele>
        <time>2021-08-16T00:01:12.313Z</time>
      </trkpt>
      <trkpt lat="42.79293" lon="43.05195">
        <ele>1256.372285</ele>
        <time>2021-08-16T00:01:26.024Z</time>
      </trkpt>
      <trkpt lat="42.79285" lon="43.05164">
        <ele>1256.791228</ele>
        <time>2021-08-16T00:01:36.933Z</time>
      </trkpt>
      <trkpt lat="42.79285" lon="43.05135">
        <ele>1257.145385</ele>
        <time>2021-08-16T00:01:46.335Z</time>
      </trkpt>
      <trkpt lat="42.79302" lon="43.04965">
        <ele>1259.754442</ele>
        <time>2021-08-16T00:02:50.773Z</time>
      </trkpt>
      <trkpt lat="42.79324" lon="43.04797">
        <ele>1262.970208</ele>
        <time>2021-08-16T00:03:54.258Z</time>
      </trkpt>
      <trkpt lat="42.79344" lon="43.04648">
        <ele>1264.333114</ele>
        <time>2021-08-16T00:04:43.847Z</time>
      </trkpt>
      <trkpt lat="42.79364" lon="43.04473">
        <ele>1265.607526</ele>
        <time>2021-08-16T00:05:34.726Z</time>
      </trkpt>
      <trkpt lat="42.7938" lon="43.04338">
        <ele>1266.354039</ele>
        <time>2021-08-16T00:06:15.101Z</time>
      </trkpt>
      <trkpt lat="42.79386" lon="43.0428">
        <ele>1266.85103</ele>
        <time>2021-08-16T00:06:33.754Z</time>
      </trkpt>
      <trkpt lat="42.79378" lon="43.04061">
        <ele>1269.396094</ele>
        <time>2021-08-16T00:07:49.362Z</time>
      </trkpt>
      <trkpt lat="42.79372" lon="43.0398">
        <ele>1269.020582</ele>
        <time>2021-08-16T00:08:13.621Z</time>
      </trkpt>
      <trkpt lat="42.79359" lon="43.03935">
        <ele>1268.792426</ele>
        <time>2021-08-16T00:08:26.640Z</time>
      </trkpt>
      <trkpt lat="42.79361" lon="43.03918">
        <ele>1268.713843</ele>
        <time>2021-08-16T00:08:30.837Z</time>
      </trkpt>
      <trkpt lat="42.79373" lon="43.03886">
        <ele>1268.54542</ele>
        <time>2021-08-16T00:08:40.091Z</time>
      </trkpt>
      <trkpt lat="42.79375" lon="43.03849">
        <ele>1268.376256</ele>
        <time>2021-08-16T00:08:48.612Z</time>
      </trkpt>
      <trkpt lat="42.79371" lon="43.03767">
        <ele>1266.720574</ele>
        <time>2021-08-16T00:09:07.405Z</time>
      </trkpt>
      <trkpt lat="42.79344" lon="43.03714">
        <ele>1265.020308</ele>
        <time>2021-08-16T00:09:21.604Z</time>
      </trkpt>
      <trkpt lat="42.79337" lon="43.03683">
        <ele>1264.164657</ele>
        <time>2021-08-16T00:09:28.577Z</time>
      </trkpt>
      <trkpt lat="42.79362" lon="43.03601">
        <ele>1261.822811</ele>
        <time>2021-08-16T00:09:47.936Z</time>
      </trkpt>
      <trkpt lat="42.79363" lon="43.03461">
        <ele>1259.472546</ele>
        <time>2021-08-16T00:10:20.214Z</time>
      </trkpt>
      <trkpt lat="42.79369" lon="43.03376">
        <ele>1258.025867</ele>
        <time>2021-08-16T00:10:41.397Z</time>
      </trkpt>
      <trkpt lat="42.79377" lon="43.03319">
        <ele>1257.388332</ele>
        <time>2021-08-16T00:10:55.903Z</time>
      </trkpt>
      <trkpt lat="42.79388" lon="43.03239">
        <ele>1256.729225</ele>
        <time>2021-08-16T00:11:16.690Z</time>
      </trkpt>
      <trkpt lat="42.79397" lon="43.0319">
        <ele>1256.324654</ele>
        <time>2021-08-16T00:11:29.471Z</time>
      </trkpt>
      <trkpt lat="42.794" lon="43.03118">
        <ele>1255.744674</ele>
        <time>2021-08-16T00:11:47.716Z</time>
      </trkpt>
      <trkpt lat="42.79392" lon="43.03051">
        <ele>1255.708776</ele>
        <time>2021-08-16T00:12:04.540Z</time>
      </trkpt>
      <trkpt lat="42.79398" lon="43.02939">
        <ele>1255.688668</ele>
        <time>2021-08-16T00:12:34.259Z</time>
      </trkpt>
      <trkpt lat="42.79392" lon="43.02878">
        <ele>1255.677692</ele>
        <time>2021-08-16T00:12:53.794Z</time>
      </trkpt>
      <trkpt lat="42.79394" lon="43.02847">
        <ele>1256.250183</ele>
        <time>2021-08-16T00:13:04.266Z</time>
      </trkpt>
      <trkpt lat="42.79391" lon="43.02788">
        <ele>1257.645577</ele>
        <time>2021-08-16T00:13:25.809Z</time>
      </trkpt>
      <trkpt lat="42.79389" lon="43.02762">
        <ele>1258.257337</ele>
        <time>2021-08-16T00:13:35.897Z</time>
      </trkpt>
      <trkpt lat="42.7939" lon="43.027">
        <ele>1259.703855</ele>
        <time>2021-08-16T00:13:53.777Z</time>
      </trkpt>
      <trkpt lat="42.79397" lon="43.02595">
        <ele>1262.672892</ele>
        <time>2021-08-16T00:14:27.950Z</time>
      </trkpt>
      <trkpt lat="42.79421" lon="43.02436">
        <ele>1268.962074</ele>
        <time>2021-08-16T00:15:24.822Z</time>
      </trkpt>
      <trkpt lat="42.79414" lon="43.02379">
        <ele>1271.310809</ele>
        <time>2021-08-16T00:15:47.700Z</time>
      </trkpt>
      <trkpt lat="42.79408" lon="43.02346">
        <ele>1272.988661</ele>
        <time>2021-08-16T00:16:01.823Z</time>
      </trkpt>
      <trkpt lat="42.79405" lon="43.02323">
        <ele>1274.185509</ele>
        <time>2021-08-16T00:16:11.799Z</time>
      </trkpt>
      <trkpt lat="42.79404" lon="43.02303">
        <ele>1275.17824</ele>
        <time>2021-08-16T00:16:19.936Z</time>
      </trkpt>
      <trkpt lat="42.79406" lon="43.02285">
        <ele>1276.062905</ele>
        <time>2021-08-16T00:16:26.074Z</time>
      </trkpt>
      <trkpt lat="42.79417" lon="43.02271">
        <ele>1277.094433</ele>
        <time>2021-08-16T00:16:36.595Z</time>
      </trkpt>
      <trkpt lat="42.79462" lon="43.02232">
        <ele>1280.701885</ele>
        <time>2021-08-16T00:17:05.305Z</time>
      </trkpt>
      <trkpt lat="42.79478" lon="43.022">
        <ele>1282.647821</ele>
        <time>2021-08-16T00:17:22.652Z</time>
      </trkpt>
      <trkpt lat="42.7949" lon="43.02165">
        <ele>1284.247958</ele>
        <time>2021-08-16T00:17:39.929Z</time>
      </trkpt>
      <trkpt lat="42.7949" lon="43.02111">
        <ele>1286.27647</ele>
        <time>2021-08-16T00:18:02.826Z</time>
      </trkpt>
      <trkpt lat="42.79482" lon="43.02041">
        <ele>1288.979991</ele>
        <time>2021-08-16T00:18:27.364Z</time>
      </trkpt>
      <trkpt lat="42.79464" lon="43.01918">
        <ele>1292.7786</ele>
        <time>2021-08-16T00:19:06.179Z</time>
      </trkpt>
      <trkpt lat="42.79432" lon="43.01708">
        <ele>1294.556345</ele>
        <time>2021-08-16T00:19:49.010Z</time>
      </trkpt>
      <trkpt lat="42.7938" lon="43.01638">
        <ele>1291.766334</ele>
        <time>2021-08-16T00:20:01.945Z</time>
      </trkpt>
      <trkpt lat="42.79322" lon="43.01515">
        <ele>1287.505099</ele>
        <time>2021-08-16T00:20:18.992Z</time>
      </trkpt>
      <trkpt lat="42.79298" lon="43.01462">
        <ele>1282.984718</ele>
        <time>2021-08-16T00:20:25.884Z</time>
      </trkpt>
      <trkpt lat="42.79275" lon="43.01417">
        <ele>1278.939619</ele>
        <time>2021-08-16T00:20:31.741Z</time>
      </trkpt>
      <trkpt lat="42.79236" lon="43.01296">
        <ele>1269.037276</ele>
        <time>2021-08-16T00:20:45.144Z</time>
      </trkpt>
      <trkpt lat="42.7922" lon="43.01248">
        <ele>1263.709558</ele>
        <time>2021-08-16T00:20:50.407Z</time>
      </trkpt>
      <trkpt lat="42.79211" lon="43.01222">
        <ele>1260.770262</ele>
        <time>2021-08-16T00:20:53.266Z</time>
      </trkpt>
      <trkpt lat="42.79186" lon="43.01179">
        <ele>1255.250576</ele>
        <time>2021-08-16T00:20:58.699Z</time>
      </trkpt>
      <trkpt lat="42.79127" lon="43.0111">
        <ele>1244.752474</ele>
        <time>2021-08-16T00:21:09.160Z</time>
      </trkpt>
      <trkpt lat="42.79095" lon="43.01058">
        <ele>1240.886444</ele>
        <time>2021-08-16T00:21:16.054Z</time>
      </trkpt>
      <trkpt lat="42.79011" lon="43.00868">
        <ele>1229.895353</ele>
        <time>2021-08-16T00:21:41.676Z</time>
      </trkpt>
      <trkpt lat="42.7901" lon="43.00763">
        <ele>1227.468984</ele>
        <time>2021-08-16T00:21:55.736Z</time>
      </trkpt>
      <trkpt lat="42.79019" lon="43.0073">
        <ele>1226.644773</ele>
        <time>2021-08-16T00:22:00.411Z</time>
      </trkpt>
      <trkpt lat="42.79034" lon="43.00703">
        <ele>1225.872268</ele>
        <time>2021-08-16T00:22:04.790Z</time>
      </trkpt>
      <trkpt lat="42.79063" lon="43.007">
        <ele>1224.848941</ele>
        <time>2021-08-16T00:22:09.956Z</time>
      </trkpt>
      <trkpt lat="42.79073" lon="43.0069">
        <ele>1224.35393</ele>
        <time>2021-08-16T00:22:12.183Z</time>
      </trkpt>
      <trkpt lat="42.79071" lon="43.00661">
        <ele>1223.544481</ele>
        <time>2021-08-16T00:22:15.708Z</time>
      </trkpt>
      <trkpt lat="42.79063" lon="43.00649">
        <ele>1223.070989</ele>
        <time>2021-08-16T00:22:17.702Z</time>
      </trkpt>
      <trkpt lat="42.79046" lon="43.00642">
        <ele>1222.376063</ele>
        <time>2021-08-16T00:22:20.589Z</time>
      </trkpt>
      <trkpt lat="42.78944" lon="43.00616">
        <ele>1218.348323</ele>
        <time>2021-08-16T00:22:37.088Z</time>
      </trkpt>
      <trkpt lat="42.7891" lon="43.00586">
        <ele>1218.197889</ele>
        <time>2021-08-16T00:22:44.325Z</time>
      </trkpt>
      <trkpt lat="42.78898" lon="43.00563">
        <ele>1218.119877</ele>
        <time>2021-08-16T00:22:47.876Z</time>
      </trkpt>
      <trkpt lat="42.78868" lon="43.00495">
        <ele>1217.903838</ele>
        <time>2021-08-16T00:23:00.597Z</time>
      </trkpt>
      <trkpt lat="42.78856" lon="43.0046">
        <ele>1217.800311</ele>
        <time>2021-08-16T00:23:09.489Z</time>
      </trkpt>
      <trkpt lat="42.78848" lon="43.00392">
        <ele>1218.236659</ele>
        <time>2021-08-16T00:23:26.594Z</time>
      </trkpt>
      <trkpt lat="42.78846" lon="43.00335">
        <ele>1219.463295</ele>
        <time>2021-08-16T00:23:46.021Z</time>
      </trkpt>
      <trkpt lat="42.78885" lon="43.0027">
        <ele>1221.269943</ele>
        <time>2021-08-16T00:24:12.369Z</time>
      </trkpt>
      <trkpt lat="42.78901" lon="43.00231">
        <ele>1222.243581</ele>
        <time>2021-08-16T00:24:23.371Z</time>
      </trkpt>
      <trkpt lat="42.78901" lon="43.00186">
        <ele>1222.788254</ele>
        <time>2021-08-16T00:24:33.621Z</time>
      </trkpt>
      <trkpt lat="42.78892" lon="43.00108">
        <ele>1221.522098</ele>
        <time>2021-08-16T00:24:47.406Z</time>
      </trkpt>
      <trkpt lat="42.78905" lon="43.00075">
        <ele>1220.924542</ele>
        <time>2021-08-16T00:24:52.459Z</time>
      </trkpt>
      <trkpt lat="42.78934" lon="43.00027">
        <ele>1219.917474</ele>
        <time>2021-08-16T00:25:00.191Z</time>
      </trkpt>
      <trkpt lat="42.78947" lon="42.99938">
        <ele>1217.167054</ele>
        <time>2021-08-16T00:25:10.692Z</time>
      </trkpt>
      <trkpt lat="42.78985" lon="42.99872">
        <ele>1212.889074</ele>
        <time>2021-08-16T00:25:19.878Z</time>
      </trkpt>
      <trkpt lat="42.79115" lon="42.9968">
        <ele>1199.846109</ele>
        <time>2021-08-16T00:25:48.206Z</time>
      </trkpt>
      <trkpt lat="42.7915" lon="42.99608">
        <ele>1195.661498</ele>
        <time>2021-08-16T00:25:57.894Z</time>
      </trkpt>
      <trkpt lat="42.79241" lon="42.99408">
        <ele>1189.272063</ele>
        <time>2021-08-16T00:26:26.747Z</time>
      </trkpt>
      <trkpt lat="42.79295" lon="42.99233">
        <ele>1187.095653</ele>
        <time>2021-08-16T00:26:54.427Z</time>
      </trkpt>
      <trkpt lat="42.79321" lon="42.99142">
        <ele>1186.223257</ele>
        <time>2021-08-16T00:27:09.404Z</time>
      </trkpt>
      <trkpt lat="42.79396" lon="42.98775">
        <ele>1181.7193</ele>
        <time>2021-08-16T00:28:01.947Z</time>
      </trkpt>
      <trkpt lat="42.79498" lon="42.98607">
        <ele>1179.383895</ele>
        <time>2021-08-16T00:28:31.657Z</time>
      </trkpt>
      <trkpt lat="42.79537" lon="42.98529">
        <ele>1178.552527</ele>
        <time>2021-08-16T00:28:45.650Z</time>
      </trkpt>
      <trkpt lat="42.79539" lon="42.98527">
        <ele>1178.529816</ele>
        <time>2021-08-16T00:28:46.008Z</time>
      </trkpt>
      <trkpt lat="42.79569" lon="42.98444">
        <ele>1178.234683</ele>
        <time>2021-08-16T00:29:00.728Z</time>
      </trkpt>
      <trkpt lat="42.79588" lon="42.98306">
        <ele>1178.146037</ele>
        <time>2021-08-16T00:29:25.213Z</time>
      </trkpt>
      <trkpt lat="42.79603" lon="42.98137">
        <ele>1177.184713</ele>
        <time>2021-08-16T00:29:51.642Z</time>
      </trkpt>
      <trkpt lat="42.79631" lon="42.98051">
        <ele>1176.4999</ele>
        <time>2021-08-16T00:30:04.909Z</time>
      </trkpt>
      <trkpt lat="42.79688" lon="42.97914">
        <ele>1174.007034</ele>
        <time>2021-08-16T00:30:25.785Z</time>
      </trkpt>
      <trkpt lat="42.79929" lon="42.97605">
        <ele>1165.010872</ele>
        <time>2021-08-16T00:31:23.950Z</time>
      </trkpt>
      <trkpt lat="42.8032" lon="42.97275">
        <ele>1150.70421</ele>
        <time>2021-08-16T00:32:42.518Z</time>
      </trkpt>
      <trkpt lat="42.80392" lon="42.97237">
        <ele>1149.083799</ele>
        <time>2021-08-16T00:32:56.142Z</time>
      </trkpt>
      <trkpt lat="42.80488" lon="42.97161">
        <ele>1146.889138</ele>
        <time>2021-08-16T00:33:16.994Z</time>
      </trkpt>
      <trkpt lat="42.80571" lon="42.97112">
        <ele>1146.234158</ele>
        <time>2021-08-16T00:33:35.179Z</time>
      </trkpt>
      <trkpt lat="42.80653" lon="42.97085">
        <ele>1145.627856</ele>
        <time>2021-08-16T00:33:52.633Z</time>
      </trkpt>
      <trkpt lat="42.80713" lon="42.97085">
        <ele>1146.323041</ele>
        <time>2021-08-16T00:34:06.633Z</time>
      </trkpt>
      <trkpt lat="42.80741" lon="42.9707">
        <ele>1146.727363</ele>
        <time>2021-08-16T00:34:15.003Z</time>
      </trkpt>
      <trkpt lat="42.80759" lon="42.97058">
        <ele>1146.993101</ele>
        <time>2021-08-16T00:34:20.805Z</time>
      </trkpt>
      <trkpt lat="42.80781" lon="42.97044">
        <ele>1147.317944</ele>
        <time>2021-08-16T00:34:28.182Z</time>
      </trkpt>
      <trkpt lat="42.8085" lon="42.96992">
        <ele>1148.898394</ele>
        <time>2021-08-16T00:34:56.279Z</time>
      </trkpt>
      <trkpt lat="42.80884" lon="42.96969">
        <ele>1150.125153</ele>
        <time>2021-08-16T00:35:11.199Z</time>
      </trkpt>
      <trkpt lat="42.80928" lon="42.96917">
        <ele>1152.000817</ele>
        <time>2021-08-16T00:35:36.426Z</time>
      </trkpt>
      <trkpt lat="42.81018" lon="42.96725">
        <ele>1155.009638</ele>
        <time>2021-08-16T00:36:35.937Z</time>
      </trkpt>
      <trkpt lat="42.81068" lon="42.96649">
        <ele>1155.577484</ele>
        <time>2021-08-16T00:36:50.922Z</time>
      </trkpt>
      <trkpt lat="42.81128" lon="42.96581">
        <ele>1153.379061</ele>
        <time>2021-08-16T00:37:04.571Z</time>
      </trkpt>
      <trkpt lat="42.81202" lon="42.96541">
        <ele>1151.139079</ele>
        <time>2021-08-16T00:37:17.754Z</time>
      </trkpt>
      <trkpt lat="42.81361" lon="42.96491">
        <ele>1147.463517</ele>
        <time>2021-08-16T00:37:46.798Z</time>
      </trkpt>
      <trkpt lat="42.81419" lon="42.96457">
        <ele>1146.578337</ele>
        <time>2021-08-16T00:37:59.586Z</time>
      </trkpt>
      <trkpt lat="42.81472" lon="42.96398">
        <ele>1146.201082</ele>
        <time>2021-08-16T00:38:14.208Z</time>
      </trkpt>
      <trkpt lat="42.81504" lon="42.96337">
        <ele>1145.898207</ele>
        <time>2021-08-16T00:38:26.235Z</time>
      </trkpt>
      <trkpt lat="42.81552" lon="42.96273">
        <ele>1145.299753</ele>
        <time>2021-08-16T00:38:40.180Z</time>
      </trkpt>
      <trkpt lat="42.81663" lon="42.96103">
        <ele>1143.235063</ele>
        <time>2021-08-16T00:39:12.615Z</time>
      </trkpt>
      <trkpt lat="42.81716" lon="42.95989">
        <ele>1141.380737</ele>
        <time>2021-08-16T00:39:30.738Z</time>
      </trkpt>
      <trkpt lat="42.81773" lon="42.95927">
        <ele>1140.144123</ele>
        <time>2021-08-16T00:39:43.988Z</time>
      </trkpt>
      <trkpt lat="42.81895" lon="42.95868">
        <ele>1138.494035</ele>
        <time>2021-08-16T00:40:08.678Z</time>
      </trkpt>
      <trkpt lat="42.81931" lon="42.95842">
        <ele>1138.137997</ele>
        <time>2021-08-16T00:40:17.111Z</time>
      </trkpt>
      <trkpt lat="42.82087" lon="42.95667">
        <ele>1138.288978</ele>
        <time>2021-08-16T00:41:06.778Z</time>
      </trkpt>
      <trkpt lat="42.82133" lon="42.95638">
        <ele>1137.918932</ele>
        <time>2021-08-16T00:41:18.341Z</time>
      </trkpt>
      <trkpt lat="42.82163" lon="42.9559">
        <ele>1137.581829</ele>
        <time>2021-08-16T00:41:27.781Z</time>
      </trkpt>
      <trkpt lat="42.82176" lon="42.95544">
        <ele>1137.315232</ele>
        <time>2021-08-16T00:41:34.795Z</time>
      </trkpt>
      <trkpt lat="42.82182" lon="42.95465">
        <ele>1135.226332</ele>
        <time>2021-08-16T00:41:45.140Z</time>
      </trkpt>
      <trkpt lat="42.8228" lon="42.95371">
        <ele>1129.848529</ele>
        <time>2021-08-16T00:42:03.998Z</time>
      </trkpt>
      <trkpt lat="42.82302" lon="42.9534">
        <ele>1128.253051</ele>
        <time>2021-08-16T00:42:08.916Z</time>
      </trkpt>
      <trkpt lat="42.82319" lon="42.95326">
        <ele>1127.173979</ele>
        <time>2021-08-16T00:42:11.918Z</time>
      </trkpt>
      <trkpt lat="42.82396" lon="42.95308">
        <ele>1122.903776</ele>
        <time>2021-08-16T00:42:23.925Z</time>
      </trkpt>
      <trkpt lat="42.82431" lon="42.95288">
        <ele>1120.878823</ele>
        <time>2021-08-16T00:42:29.729Z</time>
      </trkpt>
      <trkpt lat="42.82506" lon="42.95232">
        <ele>1118.813567</ele>
        <time>2021-08-16T00:42:43.907Z</time>
      </trkpt>
      <trkpt lat="42.82616" lon="42.95122">
        <ele>1118.093892</ele>
        <time>2021-08-16T00:43:17.342Z</time>
      </trkpt>
      <trkpt lat="42.82636" lon="42.95101">
        <ele>1118.744937</ele>
        <time>2021-08-16T00:43:26.416Z</time>
      </trkpt>
      <trkpt lat="42.82652" lon="42.95072">
        <ele>1119.439819</ele>
        <time>2021-08-16T00:43:35.698Z</time>
      </trkpt>
      <trkpt lat="42.82691" lon="42.94938">
        <ele>1122.241259</ele>
        <time>2021-08-16T00:44:17.431Z</time>
      </trkpt>
      <trkpt lat="42.8273" lon="42.94877">
        <ele>1123.423856</ele>
        <time>2021-08-16T00:44:38.355Z</time>
      </trkpt>
      <trkpt lat="42.82764" lon="42.94834">
        <ele>1124.327965</ele>
        <time>2021-08-16T00:44:53.142Z</time>
      </trkpt>
      <trkpt lat="42.828" lon="42.94774">
        <ele>1125.410574</ele>
        <time>2021-08-16T00:45:09.918Z</time>
      </trkpt>
      <trkpt lat="42.82841" lon="42.94614">
        <ele>1126.641247</ele>
        <time>2021-08-16T00:45:44.072Z</time>
      </trkpt>
      <trkpt lat="42.82886" lon="42.94522">
        <ele>1127.243375</ele>
        <time>2021-08-16T00:46:04.119Z</time>
      </trkpt>
      <trkpt lat="42.82888" lon="42.94477">
        <ele>1127.005726</ele>
        <time>2021-08-16T00:46:12.097Z</time>
      </trkpt>
      <trkpt lat="42.82845" lon="42.94236">
        <ele>1124.698318</ele>
        <time>2021-08-16T00:46:48.652Z</time>
      </trkpt>
      <trkpt lat="42.82846" lon="42.94176">
        <ele>1123.143589</ele>
        <time>2021-08-16T00:46:56.209Z</time>
      </trkpt>
      <trkpt lat="42.82862" lon="42.94036">
        <ele>1119.418668</ele>
        <time>2021-08-16T00:47:13.074Z</time>
      </trkpt>
      <trkpt lat="42.82875" lon="42.93977">
        <ele>1117.078671</ele>
        <time>2021-08-16T00:47:20.053Z</time>
      </trkpt>
      <trkpt lat="42.82898" lon="42.93906">
        <ele>1114.092316</ele>
        <time>2021-08-16T00:47:28.968Z</time>
      </trkpt>
      <trkpt lat="42.82945" lon="42.93827">
        <ele>1110.209019</ele>
        <time>2021-08-16T00:47:40.686Z</time>
      </trkpt>
      <trkpt lat="42.82971" lon="42.93759">
        <ele>1108.342395</ele>
        <time>2021-08-16T00:47:49.788Z</time>
      </trkpt>
      <trkpt lat="42.82994" lon="42.93667">
        <ele>1105.960335</ele>
        <time>2021-08-16T00:48:01.880Z</time>
      </trkpt>
      <trkpt lat="42.8311" lon="42.93412">
        <ele>1101.472515</ele>
        <time>2021-08-16T00:48:43.291Z</time>
      </trkpt>
      <trkpt lat="42.83139" lon="42.933">
        <ele>1100.112601</ele>
        <time>2021-08-16T00:48:59.986Z</time>
      </trkpt>
      <trkpt lat="42.83146" lon="42.93197">
        <ele>1098.928454</ele>
        <time>2021-08-16T00:49:14.325Z</time>
      </trkpt>
      <trkpt lat="42.83162" lon="42.9312">
        <ele>1098.252377</ele>
        <time>2021-08-16T00:49:25.467Z</time>
      </trkpt>
      <trkpt lat="42.8319" lon="42.93057">
        <ele>1097.846215</ele>
        <time>2021-08-16T00:49:35.855Z</time>
      </trkpt>
      <trkpt lat="42.83201" lon="42.93014">
        <ele>1097.590195</ele>
        <time>2021-08-16T00:49:42.682Z</time>
      </trkpt>
      <trkpt lat="42.83209" lon="42.92856">
        <ele>1097.605508</ele>
        <time>2021-08-16T00:50:09.169Z</time>
      </trkpt>
      <trkpt lat="42.83278" lon="42.92455">
        <ele>1100.938334</ele>
        <time>2021-08-16T00:51:36.600Z</time>
      </trkpt>
      <trkpt lat="42.83303" lon="42.9236">
        <ele>1101.224788</ele>
        <time>2021-08-16T00:51:55.529Z</time>
      </trkpt>
      <trkpt lat="42.83318" lon="42.9232">
        <ele>1101.332386</ele>
        <time>2021-08-16T00:52:03.353Z</time>
      </trkpt>
      <trkpt lat="42.83339" lon="42.92279">
        <ele>1101.452835</ele>
        <time>2021-08-16T00:52:11.754Z</time>
      </trkpt>
      <trkpt lat="42.83425" lon="42.92149">
        <ele>1101.027028</ele>
        <time>2021-08-16T00:52:39.436Z</time>
      </trkpt>
      <trkpt lat="42.83439" lon="42.92115">
        <ele>1100.845157</ele>
        <time>2021-08-16T00:52:45.331Z</time>
      </trkpt>
      <trkpt lat="42.83447" lon="42.92029">
        <ele>1100.4391</ele>
        <time>2021-08-16T00:52:58.063Z</time>
      </trkpt>
      <trkpt lat="42.83439" lon="42.91904">
        <ele>1098.698083</ele>
        <time>2021-08-16T00:53:15.415Z</time>
      </trkpt>
      <trkpt lat="42.83445" lon="42.91866">
        <ele>1098.158262</ele>
        <time>2021-08-16T00:53:20.588Z</time>
      </trkpt>
      <trkpt lat="42.83486" lon="42.91733">
        <ele>1095.996389</ele>
        <time>2021-08-16T00:53:39.584Z</time>
      </trkpt>
      <trkpt lat="42.83495" lon="42.91654">
        <ele>1094.696115</ele>
        <time>2021-08-16T00:53:50.100Z</time>
      </trkpt>
      <trkpt lat="42.83446" lon="42.91231">
        <ele>1089.208628</ele>
        <time>2021-08-16T00:54:48.537Z</time>
      </trkpt>
      <trkpt lat="42.83413" lon="42.91122">
        <ele>1088.343112</ele>
        <time>2021-08-16T00:55:06.045Z</time>
      </trkpt>
      <trkpt lat="42.83387" lon="42.91075">
        <ele>1087.971525</ele>
        <time>2021-08-16T00:55:15.426Z</time>
      </trkpt>
      <trkpt lat="42.83381" lon="42.91051">
        <ele>1087.919991</ele>
        <time>2021-08-16T00:55:19.472Z</time>
      </trkpt>
      <trkpt lat="42.83373" lon="42.90852">
        <ele>1087.508828</ele>
        <time>2021-08-16T00:55:51.445Z</time>
      </trkpt>
      <trkpt lat="42.83379" lon="42.90767">
        <ele>1086.597343</ele>
        <time>2021-08-16T00:56:04.257Z</time>
      </trkpt>
      <trkpt lat="42.83424" lon="42.90628">
        <ele>1084.8367</ele>
        <time>2021-08-16T00:56:25.057Z</time>
      </trkpt>
      <trkpt lat="42.83436" lon="42.90526">
        <ele>1082.452258</ele>
        <time>2021-08-16T00:56:38.089Z</time>
      </trkpt>
      <trkpt lat="42.83431" lon="42.90471">
        <ele>1081.033186</ele>
        <time>2021-08-16T00:56:45.001Z</time>
      </trkpt>
      <trkpt lat="42.83435" lon="42.90412">
        <ele>1079.539025</ele>
        <time>2021-08-16T00:56:52.169Z</time>
      </trkpt>
      <trkpt lat="42.8346" lon="42.90332">
        <ele>1077.345022</ele>
        <time>2021-08-16T00:57:02.604Z</time>
      </trkpt>
      <trkpt lat="42.83489" lon="42.9027">
        <ele>1075.512439</ele>
        <time>2021-08-16T00:57:11.468Z</time>
      </trkpt>
      <trkpt lat="42.83534" lon="42.90221">
        <ele>1073.549182</ele>
        <time>2021-08-16T00:57:21.198Z</time>
      </trkpt>
      <trkpt lat="42.83549" lon="42.90191">
        <ele>1072.639729</ele>
        <time>2021-08-16T00:57:25.925Z</time>
      </trkpt>
      <trkpt lat="42.83553" lon="42.90149">
        <ele>1072.208047</ele>
        <time>2021-08-16T00:57:31.631Z</time>
      </trkpt>
      <trkpt lat="42.83565" lon="42.90112">
        <ele>1072.074576</ele>
        <time>2021-08-16T00:57:37.410Z</time>
      </trkpt>
      <trkpt lat="42.83581" lon="42.90097">
        <ele>1071.986739</ele>
        <time>2021-08-16T00:57:41.277Z</time>
      </trkpt>
      <trkpt lat="42.83682" lon="42.90064">
        <ele>1071.524826</ele>
        <time>2021-08-16T00:58:05.544Z</time>
      </trkpt>
      <trkpt lat="42.8371" lon="42.90034">
        <ele>1071.835989</ele>
        <time>2021-08-16T00:58:15.855Z</time>
      </trkpt>
      <trkpt lat="42.83858" lon="42.89763">
        <ele>1073.846054</ele>
        <time>2021-08-16T00:59:26.186Z</time>
      </trkpt>
      <trkpt lat="42.83908" lon="42.8961">
        <ele>1073.3349</ele>
        <time>2021-08-16T00:59:51.626Z</time>
      </trkpt>
      <trkpt lat="42.83921" lon="42.89451">
        <ele>1071.055359</ele>
        <time>2021-08-16T01:00:13.062Z</time>
      </trkpt>
      <trkpt lat="42.83939" lon="42.8939">
        <ele>1069.851199</ele>
        <time>2021-08-16T01:00:21.364Z</time>
      </trkpt>
      <trkpt lat="42.83986" lon="42.89169">
        <ele>1065.626331</ele>
        <time>2021-08-16T01:00:50.129Z</time>
      </trkpt>
      <trkpt lat="42.83991" lon="42.89129">
        <ele>1066.155609</ele>
        <time>2021-08-16T01:00:56.109Z</time>
      </trkpt>
      <trkpt lat="42.83975" lon="42.89114">
        <ele>1066.505993</ele>
        <time>2021-08-16T01:01:00.427Z</time>
      </trkpt>
      <trkpt lat="42.83956" lon="42.89032">
        <ele>1067.621783</ele>
        <time>2021-08-16T01:01:20.910Z</time>
      </trkpt>
      <trkpt lat="42.83906" lon="42.88922">
        <ele>1071.376883</ele>
        <time>2021-08-16T01:02:08.692Z</time>
      </trkpt>
      <trkpt lat="42.83889" lon="42.88875">
        <ele>1073.837146</ele>
        <time>2021-08-16T01:02:31.173Z</time>
      </trkpt>
      <trkpt lat="42.83876" lon="42.88754">
        <ele>1079.706829</ele>
        <time>2021-08-16T01:03:24.065Z</time>
      </trkpt>
      <trkpt lat="42.83877" lon="42.88684">
        <ele>1081.764101</ele>
        <time>2021-08-16T01:03:50.919Z</time>
      </trkpt>
      <trkpt lat="42.83895" lon="42.88611">
        <ele>1083.717573</ele>
        <time>2021-08-16T01:04:15.445Z</time>
      </trkpt>
      <trkpt lat="42.83899" lon="42.88526">
        <ele>1085.905046</ele>
        <time>2021-08-16T01:04:35.672Z</time>
      </trkpt>
      <trkpt lat="42.83894" lon="42.88419">
        <ele>1086.163999</ele>
        <time>2021-08-16T01:04:53.741Z</time>
      </trkpt>
      <trkpt lat="42.83903" lon="42.88324">
        <ele>1085.731849</ele>
        <time>2021-08-16T01:05:07.693Z</time>
      </trkpt>
      <trkpt lat="42.83936" lon="42.88236">
        <ele>1085.106314</ele>
        <time>2021-08-16T01:05:21.418Z</time>
      </trkpt>
      <trkpt lat="42.83979" lon="42.88195">
        <ele>1084.379453</ele>
        <time>2021-08-16T01:05:31.331Z</time>
      </trkpt>
      <trkpt lat="42.83989" lon="42.88167">
        <ele>1084.062175</ele>
        <time>2021-08-16T01:05:35.848Z</time>
      </trkpt>
      <trkpt lat="42.84005" lon="42.8803">
        <ele>1082.049053</ele>
        <time>2021-08-16T01:05:56.060Z</time>
      </trkpt>
      <trkpt lat="42.84029" lon="42.87948">
        <ele>1079.255983</ele>
        <time>2021-08-16T01:06:07.313Z</time>
      </trkpt>
      <trkpt lat="42.84029" lon="42.87884">
        <ele>1077.2429</ele>
        <time>2021-08-16T01:06:14.798Z</time>
      </trkpt>
      <trkpt lat="42.84061" lon="42.87794">
        <ele>1072.817638</ele>
        <time>2021-08-16T01:06:25.836Z</time>
      </trkpt>
      <trkpt lat="42.84067" lon="42.87749">
        <ele>1069.584523</ele>
        <time>2021-08-16T01:06:30.782Z</time>
      </trkpt>
      <trkpt lat="42.84107" lon="42.8758">
        <ele>1057.442045</ele>
        <time>2021-08-16T01:06:49.109Z</time>
      </trkpt>
      <trkpt lat="42.84128" lon="42.87538">
        <ele>1054.558268</ele>
        <time>2021-08-16T01:06:54.323Z</time>
      </trkpt>
      <trkpt lat="42.84195" lon="42.87466">
        <ele>1047.805696</ele>
        <time>2021-08-16T01:07:06.898Z</time>
      </trkpt>
      <trkpt lat="42.84241" lon="42.87407">
        <ele>1043.560928</ele>
        <time>2021-08-16T01:07:16.708Z</time>
      </trkpt>
      <trkpt lat="42.84254" lon="42.87379">
        <ele>1042.822184</ele>
        <time>2021-08-16T01:07:20.714Z</time>
      </trkpt>
      <trkpt lat="42.84361" lon="42.87064">
        <ele>1035.98361</ele>
        <time>2021-08-16T01:08:06.784Z</time>
      </trkpt>
      <trkpt lat="42.84371" lon="42.87035">
        <ele>1035.451974</ele>
        <time>2021-08-16T01:08:11.019Z</time>
      </trkpt>
      <trkpt lat="42.84374" lon="42.8701">
        <ele>1035.03172</ele>
        <time>2021-08-16T01:08:14.249Z</time>
      </trkpt>
      <trkpt lat="42.8437" lon="42.86929">
        <ele>1034.114136</ele>
        <time>2021-08-16T01:08:25.040Z</time>
      </trkpt>
      <trkpt lat="42.84352" lon="42.86851">
        <ele>1033.483431</ele>
        <time>2021-08-16T01:08:36.540Z</time>
      </trkpt>
      <trkpt lat="42.84349" lon="42.86839">
        <ele>1033.390982</ele>
        <time>2021-08-16T01:08:38.062Z</time>
      </trkpt>
      <trkpt lat="42.84344" lon="42.8682">
        <ele>1033.229984</ele>
        <time>2021-08-16T01:08:41.047Z</time>
      </trkpt>
      <trkpt lat="42.84293" lon="42.86595">
        <ele>1033.424289</ele>
        <time>2021-08-16T01:09:23.062Z</time>
      </trkpt>
      <trkpt lat="42.84286" lon="42.8654">
        <ele>1033.727214</ele>
        <time>2021-08-16T01:09:35.479Z</time>
      </trkpt>
      <trkpt lat="42.84293" lon="42.86446">
        <ele>1033.995931</ele>
        <time>2021-08-16T01:09:55.008Z</time>
      </trkpt>
      <trkpt lat="42.84321" lon="42.86376">
        <ele>1034.089292</ele>
        <time>2021-08-16T01:10:09.713Z</time>
      </trkpt>
      <trkpt lat="42.84366" lon="42.86234">
        <ele>1033.736087</ele>
        <time>2021-08-16T01:10:33.073Z</time>
      </trkpt>
      <trkpt lat="42.84435" lon="42.8608">
        <ele>1031.863245</ele>
        <time>2021-08-16T01:10:58.093Z</time>
      </trkpt>
      <trkpt lat="42.84466" lon="42.86021">
        <ele>1031.025435</ele>
        <time>2021-08-16T01:11:08.027Z</time>
      </trkpt>
      <trkpt lat="42.84514" lon="42.85966">
        <ele>1029.98796</ele>
        <time>2021-08-16T01:11:20.030Z</time>
      </trkpt>
      <trkpt lat="42.84539" lon="42.85929">
        <ele>1029.387716</ele>
        <time>2021-08-16T01:11:27.012Z</time>
      </trkpt>
      <trkpt lat="42.84585" lon="42.85825">
        <ele>1027.792976</ele>
        <time>2021-08-16T01:11:43.621Z</time>
      </trkpt>
      <trkpt lat="42.84602" lon="42.8577">
        <ele>1026.965914</ele>
        <time>2021-08-16T01:11:51.455Z</time>
      </trkpt>
      <trkpt lat="42.84633" lon="42.85594">
        <ele>1025.451316</ele>
        <time>2021-08-16T01:12:15.944Z</time>
      </trkpt>
      <trkpt lat="42.84676" lon="42.85481">
        <ele>1025.766066</ele>
        <time>2021-08-16T01:12:37.574Z</time>
      </trkpt>
      <trkpt lat="42.84674" lon="42.85364">
        <ele>1027.709123</ele>
        <time>2021-08-16T01:13:09.576Z</time>
      </trkpt>
      <trkpt lat="42.84683" lon="42.85325">
        <ele>1028.892163</ele>
        <time>2021-08-16T01:13:22.213Z</time>
      </trkpt>
      <trkpt lat="42.84709" lon="42.85263">
        <ele>1031.034876</ele>
        <time>2021-08-16T01:13:46.462Z</time>
      </trkpt>
      <trkpt lat="42.84717" lon="42.85229">
        <ele>1032.082587</ele>
        <time>2021-08-16T01:13:58.406Z</time>
      </trkpt>
      <trkpt lat="42.8472" lon="42.85193">
        <ele>1033.167608</ele>
        <time>2021-08-16T01:14:10.861Z</time>
      </trkpt>
      <trkpt lat="42.8471" lon="42.85122">
        <ele>1035.297219</ele>
        <time>2021-08-16T01:14:34.889Z</time>
      </trkpt>
      <trkpt lat="42.84704" lon="42.85058">
        <ele>1037.19935</ele>
        <time>2021-08-16T01:14:55.055Z</time>
      </trkpt>
      <trkpt lat="42.8469" lon="42.84968">
        <ele>1039.930452</ele>
        <time>2021-08-16T01:15:22.286Z</time>
      </trkpt>
      <trkpt lat="42.84683" lon="42.8494">
        <ele>1040.743517</ele>
        <time>2021-08-16T01:15:30.771Z</time>
      </trkpt>
      <trkpt lat="42.8467" lon="42.84911">
        <ele>1041.61261</ele>
        <time>2021-08-16T01:15:40.561Z</time>
      </trkpt>
      <trkpt lat="42.84623" lon="42.84834">
        <ele>1044.231175</ele>
        <time>2021-08-16T01:16:10.600Z</time>
      </trkpt>
      <trkpt lat="42.84553" lon="42.84555">
        <ele>1050.962313</ele>
        <time>2021-08-16T01:17:35.940Z</time>
      </trkpt>
      <trkpt lat="42.84546" lon="42.84502">
        <ele>1051.973227</ele>
        <time>2021-08-16T01:17:48.450Z</time>
      </trkpt>
      <trkpt lat="42.8455" lon="42.8443">
        <ele>1051.728064</ele>
        <time>2021-08-16T01:18:02.553Z</time>
      </trkpt>
      <trkpt lat="42.84582" lon="42.84309">
        <ele>1051.294106</ele>
        <time>2021-08-16T01:18:21.510Z</time>
      </trkpt>
      <trkpt lat="42.84586" lon="42.84283">
        <ele>1051.205288</ele>
        <time>2021-08-16T01:18:25.143Z</time>
      </trkpt>
      <trkpt lat="42.84583" lon="42.84257">
        <ele>1050.758159</ele>
        <time>2021-08-16T01:18:28.680Z</time>
      </trkpt>
      <trkpt lat="42.84572" lon="42.84202">
        <ele>1049.177631</ele>
        <time>2021-08-16T01:18:35.884Z</time>
      </trkpt>
      <trkpt lat="42.84568" lon="42.84163">
        <ele>1048.091418</ele>
        <time>2021-08-16T01:18:40.590Z</time>
      </trkpt>
      <trkpt lat="42.84567" lon="42.84023">
        <ele>1044.222014</ele>
        <time>2021-08-16T01:18:57.128Z</time>
      </trkpt>
      <trkpt lat="42.84564" lon="42.83995">
        <ele>1043.493784</ele>
        <time>2021-08-16T01:19:00.457Z</time>
      </trkpt>
      <trkpt lat="42.84557" lon="42.8394">
        <ele>1042.050234</ele>
        <time>2021-08-16T01:19:07.361Z</time>
      </trkpt>
      <trkpt lat="42.84516" lon="42.83691">
        <ele>1035.165962</ele>
        <time>2021-08-16T01:19:39.696Z</time>
      </trkpt>
      <trkpt lat="42.8449" lon="42.83442">
        <ele>1026.419856</ele>
        <time>2021-08-16T01:20:09.471Z</time>
      </trkpt>
      <trkpt lat="42.84491" lon="42.8339">
        <ele>1024.230235</ele>
        <time>2021-08-16T01:20:15.162Z</time>
      </trkpt>
      <trkpt lat="42.84515" lon="42.83219">
        <ele>1017.955798</ele>
        <time>2021-08-16T01:20:34.553Z</time>
      </trkpt>
      <trkpt lat="42.84519" lon="42.83152">
        <ele>1015.951366</ele>
        <time>2021-08-16T01:20:42.601Z</time>
      </trkpt>
      <trkpt lat="42.8451" lon="42.83106">
        <ele>1014.560536</ele>
        <time>2021-08-16T01:20:48.631Z</time>
      </trkpt>
      <trkpt lat="42.84495" lon="42.83072">
        <ele>1013.381125</ele>
        <time>2021-08-16T01:20:54.166Z</time>
      </trkpt>
      <trkpt lat="42.84472" lon="42.83037">
        <ele>1013.691451</ele>
        <time>2021-08-16T01:21:01.738Z</time>
      </trkpt>
      <trkpt lat="42.84444" lon="42.83009">
        <ele>1014.178837</ele>
        <time>2021-08-16T01:21:11.232Z</time>
      </trkpt>
      <trkpt lat="42.84373" lon="42.82955">
        <ele>1015.345586</ele>
        <time>2021-08-16T01:21:39.853Z</time>
      </trkpt>
      <trkpt lat="42.84282" lon="42.82807">
        <ele>1017.599648</ele>
        <time>2021-08-16T01:22:27.445Z</time>
      </trkpt>
      <trkpt lat="42.84222" lon="42.8267">
        <ele>1018.444288</ele>
        <time>2021-08-16T01:22:58.575Z</time>
      </trkpt>
      <trkpt lat="42.84207" lon="42.82571">
        <ele>1017.905531</ele>
        <time>2021-08-16T01:23:12.879Z</time>
      </trkpt>
      <trkpt lat="42.84191" lon="42.82525">
        <ele>1017.635011</ele>
        <time>2021-08-16T01:23:19.995Z</time>
      </trkpt>
      <trkpt lat="42.84114" lon="42.8244">
        <ele>1016.11667</ele>
        <time>2021-08-16T01:23:39.323Z</time>
      </trkpt>
      <trkpt lat="42.84045" lon="42.82335">
        <ele>1014.302528</ele>
        <time>2021-08-16T01:23:59.283Z</time>
      </trkpt>
      <trkpt lat="42.84026" lon="42.82322">
        <ele>1012.642203</ele>
        <time>2021-08-16T01:24:02.918Z</time>
      </trkpt>
      <trkpt lat="42.83982" lon="42.82313">
        <ele>1009.197412</ele>
        <time>2021-08-16T01:24:09.739Z</time>
      </trkpt>
      <trkpt lat="42.83976" lon="42.8231">
        <ele>1008.703504</ele>
        <time>2021-08-16T01:24:10.759Z</time>
      </trkpt>
      <trkpt lat="42.83933" lon="42.82257">
        <ele>1004.302125</ele>
        <time>2021-08-16T01:24:18.946Z</time>
      </trkpt>
      <trkpt lat="42.83914" lon="42.82232">
        <ele>1002.235352</ele>
        <time>2021-08-16T01:24:22.730Z</time>
      </trkpt>
      <trkpt lat="42.83895" lon="42.822">
        <ele>999.562925</ele>
        <time>2021-08-16T01:24:27.073Z</time>
      </trkpt>
      <trkpt lat="42.83867" lon="42.82119">
        <ele>991.616615</ele>
        <time>2021-08-16T01:24:36.070Z</time>
      </trkpt>
      <trkpt lat="42.83858" lon="42.82105">
        <ele>989.953147</ele>
        <time>2021-08-16T01:24:37.932Z</time>
      </trkpt>
      <trkpt lat="42.83835" lon="42.82077">
        <ele>986.169615</ele>
        <time>2021-08-16T01:24:42.157Z</time>
      </trkpt>
      <trkpt lat="42.83831" lon="42.82074">
        <ele>985.650068</ele>
        <time>2021-08-16T01:24:42.710Z</time>
      </trkpt>
      <trkpt lat="42.83777" lon="42.82039">
        <ele>978.344981</ele>
        <time>2021-08-16T01:24:51.082Z</time>
      </trkpt>
      <trkpt lat="42.83764" lon="42.8202">
        <ele>976.694118</ele>
        <time>2021-08-16T01:24:53.720Z</time>
      </trkpt>
      <trkpt lat="42.8373" lon="42.81938">
        <ele>970.63853</ele>
        <time>2021-08-16T01:25:03.655Z</time>
      </trkpt>
      <trkpt lat="42.83701" lon="42.81895">
        <ele>966.81441</ele>
        <time>2021-08-16T01:25:09.989Z</time>
      </trkpt>
      <trkpt lat="42.83676" lon="42.81869">
        <ele>964.06723</ele>
        <time>2021-08-16T01:25:14.616Z</time>
      </trkpt>
      <trkpt lat="42.83647" lon="42.81849">
        <ele>961.777553</ele>
        <time>2021-08-16T01:25:19.473Z</time>
      </trkpt>
      <trkpt lat="42.83596" lon="42.81833">
        <ele>958.929465</ele>
        <time>2021-08-16T01:25:27.633Z</time>
      </trkpt>
      <trkpt lat="42.83563" lon="42.81803">
        <ele>956.794036</ele>
        <time>2021-08-16T01:25:33.852Z</time>
      </trkpt>
      <trkpt lat="42.83536" lon="42.81741">
        <ele>953.935606</ele>
        <time>2021-08-16T01:25:42.360Z</time>
      </trkpt>
      <trkpt lat="42.83516" lon="42.81714">
        <ele>952.454453</ele>
        <time>2021-08-16T01:25:46.966Z</time>
      </trkpt>
      <trkpt lat="42.83497" lon="42.817">
        <ele>951.384468</ele>
        <time>2021-08-16T01:25:50.499Z</time>
      </trkpt>
      <trkpt lat="42.83436" lon="42.81679">
        <ele>948.235392</ele>
        <time>2021-08-16T01:26:00.729Z</time>
      </trkpt>
      <trkpt lat="42.83292" lon="42.81546">
        <ele>939.799986</ele>
        <time>2021-08-16T01:26:27.864Z</time>
      </trkpt>
      <trkpt lat="42.83261" lon="42.81537">
        <ele>938.315389</ele>
        <time>2021-08-16T01:26:32.929Z</time>
      </trkpt>
      <trkpt lat="42.83187" lon="42.81542">
        <ele>935.124174</ele>
        <time>2021-08-16T01:26:45.196Z</time>
      </trkpt>
      <trkpt lat="42.83138" lon="42.8154">
        <ele>933.831931</ele>
        <time>2021-08-16T01:26:53.748Z</time>
      </trkpt>
      <trkpt lat="42.83119" lon="42.81532">
        <ele>933.31563</ele>
        <time>2021-08-16T01:26:57.260Z</time>
      </trkpt>
      <trkpt lat="42.82904" lon="42.81331">
        <ele>927.296453</ele>
        <time>2021-08-16T01:27:44.788Z</time>
      </trkpt>
      <trkpt lat="42.82883" lon="42.81314">
        <ele>926.680263</ele>
        <time>2021-08-16T01:27:49.154Z</time>
      </trkpt>
      <trkpt lat="42.82844" lon="42.81298">
        <ele>925.354893</ele>
        <time>2021-08-16T01:27:56.415Z</time>
      </trkpt>
      <trkpt lat="42.8282" lon="42.81274">
        <ele>924.38455</ele>
        <time>2021-08-16T01:28:01.637Z</time>
      </trkpt>
      <trkpt lat="42.8275" lon="42.81133">
        <ele>920.231699</ele>
        <time>2021-08-16T01:28:22.423Z</time>
      </trkpt>
      <trkpt lat="42.82703" lon="42.80998">
        <ele>916.288558</ele>
        <time>2021-08-16T01:28:40.382Z</time>
      </trkpt>
      <trkpt lat="42.82655" lon="42.80901">
        <ele>914.018116</ele>
        <time>2021-08-16T01:28:55.389Z</time>
      </trkpt>
      <trkpt lat="42.82628" lon="42.80859">
        <ele>913.406862</ele>
        <time>2021-08-16T01:29:03.074Z</time>
      </trkpt>
      <trkpt lat="42.82611" lon="42.80842">
        <ele>913.084131</ele>
        <time>2021-08-16T01:29:07.364Z</time>
      </trkpt>
      <trkpt lat="42.82505" lon="42.80776">
        <ele>910.9889</ele>
        <time>2021-08-16T01:29:31.624Z</time>
      </trkpt>
      <trkpt lat="42.8249" lon="42.80762">
        <ele>910.558945</ele>
        <time>2021-08-16T01:29:35.021Z</time>
      </trkpt>
      <trkpt lat="42.82464" lon="42.8072">
        <ele>909.580694</ele>
        <time>2021-08-16T01:29:42.323Z</time>
      </trkpt>
      <trkpt lat="42.82441" lon="42.80667">
        <ele>908.502944</ele>
        <time>2021-08-16T01:29:50.042Z</time>
      </trkpt>
      <trkpt lat="42.82413" lon="42.80557">
        <ele>905.584199</ele>
        <time>2021-08-16T01:30:04.074Z</time>
      </trkpt>
      <trkpt lat="42.8232" lon="42.80424">
        <ele>899.898091</ele>
        <time>2021-08-16T01:30:25.999Z</time>
      </trkpt>
      <trkpt lat="42.82278" lon="42.80331">
        <ele>897.118097</ele>
        <time>2021-08-16T01:30:39.426Z</time>
      </trkpt>
      <trkpt lat="42.82236" lon="42.80213">
        <ele>893.770727</ele>
        <time>2021-08-16T01:30:55.974Z</time>
      </trkpt>
      <trkpt lat="42.82208" lon="42.80093">
        <ele>891.28473</ele>
        <time>2021-08-16T01:31:11.729Z</time>
      </trkpt>
      <trkpt lat="42.82194" lon="42.80057">
        <ele>890.469534</ele>
        <time>2021-08-16T01:31:16.909Z</time>
      </trkpt>
      <trkpt lat="42.82113" lon="42.79901">
        <ele>888.019628</ele>
        <time>2021-08-16T01:31:43.096Z</time>
      </trkpt>
      <trkpt lat="42.82063" lon="42.79846">
        <ele>887.334118</ele>
        <time>2021-08-16T01:31:57.358Z</time>
      </trkpt>
      <trkpt lat="42.82004" lon="42.79759">
        <ele>885.805453</ele>
        <time>2021-08-16T01:32:14.678Z</time>
      </trkpt>
      <trkpt lat="42.81973" lon="42.79706">
        <ele>884.704391</ele>
        <time>2021-08-16T01:32:24.041Z</time>
      </trkpt>
      <trkpt lat="42.81952" lon="42.79667">
        <ele>883.912337</ele>
        <time>2021-08-16T01:32:30.311Z</time>
      </trkpt>
      <trkpt lat="42.81918" lon="42.79597">
        <ele>882.082917</ele>
        <time>2021-08-16T01:32:40.678Z</time>
      </trkpt>
      <trkpt lat="42.81907" lon="42.79501">
        <ele>878.900554</ele>
        <time>2021-08-16T01:32:52.007Z</time>
      </trkpt>
      <trkpt lat="42.81898" lon="42.79468">
        <ele>877.742289</ele>
        <time>2021-08-16T01:32:56.087Z</time>
      </trkpt>
      <trkpt lat="42.81812" lon="42.7928">
        <ele>871.337118</ele>
        <time>2021-08-16T01:33:22.686Z</time>
      </trkpt>
      <trkpt lat="42.81793" lon="42.79212">
        <ele>869.416453</ele>
        <time>2021-08-16T01:33:31.639Z</time>
      </trkpt>
      <trkpt lat="42.81718" lon="42.79021">
        <ele>865.451992</ele>
        <time>2021-08-16T01:34:00.383Z</time>
      </trkpt>
      <trkpt lat="42.817" lon="42.78985">
        <ele>864.730364</ele>
        <time>2021-08-16T01:34:06.264Z</time>
      </trkpt>
      <trkpt lat="42.81659" lon="42.78949">
        <ele>863.792721</ele>
        <time>2021-08-16T01:34:15.277Z</time>
      </trkpt>
      <trkpt lat="42.81628" lon="42.7893">
        <ele>863.192546</ele>
        <time>2021-08-16T01:34:21.611Z</time>
      </trkpt>
      <trkpt lat="42.81595" lon="42.78922">
        <ele>862.593896</ele>
        <time>2021-08-16T01:34:28.047Z</time>
      </trkpt>
      <trkpt lat="42.81554" lon="42.78922">
        <ele>861.869775</ele>
        <time>2021-08-16T01:34:35.786Z</time>
      </trkpt>
      <trkpt lat="42.81541" lon="42.78915">
        <ele>861.627024</ele>
        <time>2021-08-16T01:34:38.289Z</time>
      </trkpt>
      <trkpt lat="42.81532" lon="42.78893">
        <ele>861.295871</ele>
        <time>2021-08-16T01:34:41.723Z</time>
      </trkpt>
      <trkpt lat="42.81526" lon="42.78801">
        <ele>860.354331</ele>
        <time>2021-08-16T01:34:54.204Z</time>
      </trkpt>
      <trkpt lat="42.81515" lon="42.78766">
        <ele>859.977605</ele>
        <time>2021-08-16T01:34:59.568Z</time>
      </trkpt>
      <trkpt lat="42.81499" lon="42.78738">
        <ele>859.621414</ele>
        <time>2021-08-16T01:35:04.748Z</time>
      </trkpt>
      <trkpt lat="42.81464" lon="42.78706">
        <ele>859.046265</ele>
        <time>2021-08-16T01:35:13.218Z</time>
      </trkpt>
      <trkpt lat="42.81401" lon="42.78693">
        <ele>857.898732</ele>
        <time>2021-08-16T01:35:25.954Z</time>
      </trkpt>
      <trkpt lat="42.81383" lon="42.78684">
        <ele>857.51228</ele>
        <time>2021-08-16T01:35:29.546Z</time>
      </trkpt>
      <trkpt lat="42.81353" lon="42.78657">
        <ele>856.773455</ele>
        <time>2021-08-16T01:35:36.404Z</time>
      </trkpt>
      <trkpt lat="42.81314" lon="42.78609">
        <ele>855.708915</ele>
        <time>2021-08-16T01:35:46.008Z</time>
      </trkpt>
      <trkpt lat="42.8126" lon="42.78484">
        <ele>852.179345</ele>
        <time>2021-08-16T01:36:03.750Z</time>
      </trkpt>
      <trkpt lat="42.8115" lon="42.78398">
        <ele>847.565113</ele>
        <time>2021-08-16T01:36:24.493Z</time>
      </trkpt>
      <trkpt lat="42.81083" lon="42.78358">
        <ele>845.519167</ele>
        <time>2021-08-16T01:36:37.149Z</time>
      </trkpt>
      <trkpt lat="42.81021" lon="42.78253">
        <ele>842.774715</ele>
        <time>2021-08-16T01:36:55.136Z</time>
      </trkpt>
      <trkpt lat="42.80992" lon="42.78187">
        <ele>841.238987</ele>
        <time>2021-08-16T01:37:05.413Z</time>
      </trkpt>
      <trkpt lat="42.80943" lon="42.78132">
        <ele>839.518411</ele>
        <time>2021-08-16T01:37:16.482Z</time>
      </trkpt>
      <trkpt lat="42.80921" lon="42.78118">
        <ele>838.85579</ele>
        <time>2021-08-16T01:37:20.688Z</time>
      </trkpt>
      <trkpt lat="42.80794" lon="42.78068">
        <ele>833.881046</ele>
        <time>2021-08-16T01:37:42.677Z</time>
      </trkpt>
      <trkpt lat="42.80762" lon="42.78044">
        <ele>832.412298</ele>
        <time>2021-08-16T01:37:48.699Z</time>
      </trkpt>
      <trkpt lat="42.8072" lon="42.77985">
        <ele>830.106805</ele>
        <time>2021-08-16T01:37:58.454Z</time>
      </trkpt>
      <trkpt lat="42.80683" lon="42.77954">
        <ele>828.522279</ele>
        <time>2021-08-16T01:38:05.482Z</time>
      </trkpt>
      <trkpt lat="42.80596" lon="42.77932">
        <ele>825.295429</ele>
        <time>2021-08-16T01:38:20.247Z</time>
      </trkpt>
      <trkpt lat="42.80559" lon="42.77903">
        <ele>824.442042</ele>
        <time>2021-08-16T01:38:27.619Z</time>
      </trkpt>
      <trkpt lat="42.80486" lon="42.77775">
        <ele>823.677263</ele>
        <time>2021-08-16T01:38:52.451Z</time>
      </trkpt>
      <trkpt lat="42.80448" lon="42.77723">
        <ele>823.492086</ele>
        <time>2021-08-16T01:39:07.428Z</time>
      </trkpt>
      <trkpt lat="42.80435" lon="42.77706">
        <ele>823.55341</ele>
        <time>2021-08-16T01:39:12.685Z</time>
      </trkpt>
      <trkpt lat="42.80383" lon="42.77662">
        <ele>823.761453</ele>
        <time>2021-08-16T01:39:29.202Z</time>
      </trkpt>
      <trkpt lat="42.80344" lon="42.77621">
        <ele>823.927793</ele>
        <time>2021-08-16T01:39:41.270Z</time>
      </trkpt>
      <trkpt lat="42.80312" lon="42.77578">
        <ele>823.812785</ele>
        <time>2021-08-16T01:39:50.750Z</time>
      </trkpt>
      <trkpt lat="42.80292" lon="42.77541">
        <ele>822.98018</ele>
        <time>2021-08-16T01:39:57.231Z</time>
      </trkpt>
      <trkpt lat="42.80275" lon="42.77493">
        <ele>822.029408</ele>
        <time>2021-08-16T01:40:04.290Z</time>
      </trkpt>
      <trkpt lat="42.80263" lon="42.77356">
        <ele>819.478074</ele>
        <time>2021-08-16T01:40:21.679Z</time>
      </trkpt>
      <trkpt lat="42.8023" lon="42.772">
        <ele>814.453253</ele>
        <time>2021-08-16T01:40:40.943Z</time>
      </trkpt>
      <trkpt lat="42.80216" lon="42.77152">
        <ele>812.859165</ele>
        <time>2021-08-16T01:40:47.131Z</time>
      </trkpt>
      <trkpt lat="42.80214" lon="42.77141">
        <ele>812.488363</ele>
        <time>2021-08-16T01:40:48.569Z</time>
      </trkpt>
      <trkpt lat="42.80212" lon="42.77122">
        <ele>811.945823</ele>
        <time>2021-08-16T01:40:50.767Z</time>
      </trkpt>
      <trkpt lat="42.80218" lon="42.77029">
        <ele>809.806008</ele>
        <time>2021-08-16T01:41:02.278Z</time>
      </trkpt>
      <trkpt lat="42.80241" lon="42.76847">
        <ele>806.121355</ele>
        <time>2021-08-16T01:41:26.231Z</time>
      </trkpt>
      <trkpt lat="42.80292" lon="42.76664">
        <ele>804.296167</ele>
        <time>2021-08-16T01:41:54.520Z</time>
      </trkpt>
      <trkpt lat="42.80294" lon="42.76599">
        <ele>804.369174</ele>
        <time>2021-08-16T01:42:04.738Z</time>
      </trkpt>
      <trkpt lat="42.80271" lon="42.76515">
        <ele>804.682751</ele>
        <time>2021-08-16T01:42:20.475Z</time>
      </trkpt>
      <trkpt lat="42.80214" lon="42.76403">
        <ele>805.14035</ele>
        <time>2021-08-16T01:42:49.780Z</time>
      </trkpt>
      <trkpt lat="42.80209" lon="42.76247">
        <ele>805.585827</ele>
        <time>2021-08-16T01:43:20.463Z</time>
      </trkpt>
      <trkpt lat="42.80183" lon="42.76188">
        <ele>805.46385</ele>
        <time>2021-08-16T01:43:31.045Z</time>
      </trkpt>
      <trkpt lat="42.80132" lon="42.75966">
        <ele>800.569827</ele>
        <time>2021-08-16T01:44:00.416Z</time>
      </trkpt>
      <trkpt lat="42.80117" lon="42.75931">
        <ele>799.465512</ele>
        <time>2021-08-16T01:44:05.223Z</time>
      </trkpt>
      <trkpt lat="42.801" lon="42.75916">
        <ele>798.715972</ele>
        <time>2021-08-16T01:44:08.511Z</time>
      </trkpt>
      <trkpt lat="42.80057" lon="42.75893">
        <ele>796.977541</ele>
        <time>2021-08-16T01:44:16.162Z</time>
      </trkpt>
      <trkpt lat="42.79947" lon="42.75885">
        <ele>792.925536</ele>
        <time>2021-08-16T01:44:34.658Z</time>
      </trkpt>
      <trkpt lat="42.79835" lon="42.75856">
        <ele>788.939549</ele>
        <time>2021-08-16T01:44:53.936Z</time>
      </trkpt>
      <trkpt lat="42.79776" lon="42.75851">
        <ele>786.855341</ele>
        <time>2021-08-16T01:45:03.792Z</time>
      </trkpt>
      <trkpt lat="42.79747" lon="42.75857">
        <ele>785.769597</ele>
        <time>2021-08-16T01:45:08.749Z</time>
      </trkpt>
      <trkpt lat="42.79689" lon="42.75854">
        <ele>783.683208</ele>
        <time>2021-08-16T01:45:18.275Z</time>
      </trkpt>
      <trkpt lat="42.79607" lon="42.75813">
        <ele>780.631884</ele>
        <time>2021-08-16T01:45:32.980Z</time>
      </trkpt>
      <trkpt lat="42.79595" lon="42.75797">
        <ele>780.158178</ele>
        <time>2021-08-16T01:45:35.901Z</time>
      </trkpt>
      <trkpt lat="42.79582" lon="42.7572">
        <ele>778.569956</ele>
        <time>2021-08-16T01:45:45.828Z</time>
      </trkpt>
      <trkpt lat="42.79572" lon="42.75687">
        <ele>777.832389</ele>
        <time>2021-08-16T01:45:50.530Z</time>
      </trkpt>
      <trkpt lat="42.79541" lon="42.7562">
        <ele>776.244861</ele>
        <time>2021-08-16T01:46:00.878Z</time>
      </trkpt>
      <trkpt lat="42.79517" lon="42.75595">
        <ele>775.619683</ele>
        <time>2021-08-16T01:46:06.614Z</time>
      </trkpt>
      <trkpt lat="42.79455" lon="42.75565">
        <ele>774.389575</ele>
        <time>2021-08-16T01:46:18.823Z</time>
      </trkpt>
      <trkpt lat="42.79398" lon="42.7551">
        <ele>773.071186</ele>
        <time>2021-08-16T01:46:31.819Z</time>
      </trkpt>
      <trkpt lat="42.79391" lon="42.75494">
        <ele>772.807558</ele>
        <time>2021-08-16T01:46:34.421Z</time>
      </trkpt>
      <trkpt lat="42.79376" lon="42.75415">
        <ele>771.494824</ele>
        <time>2021-08-16T01:46:45.546Z</time>
      </trkpt>
      <trkpt lat="42.79354" lon="42.75357">
        <ele>770.4374</ele>
        <time>2021-08-16T01:46:54.132Z</time>
      </trkpt>
      <trkpt lat="42.79336" lon="42.75317">
        <ele>769.686241</ele>
        <time>2021-08-16T01:47:00.144Z</time>
      </trkpt>
      <trkpt lat="42.79286" lon="42.75239">
        <ele>768.239307</ele>
        <time>2021-08-16T01:47:13.846Z</time>
      </trkpt>
      <trkpt lat="42.79264" lon="42.7518">
        <ele>767.53271</ele>
        <time>2021-08-16T01:47:22.799Z</time>
      </trkpt>
      <trkpt lat="42.79249" lon="42.75127">
        <ele>766.930066</ele>
        <time>2021-08-16T01:47:30.587Z</time>
      </trkpt>
      <trkpt lat="42.79232" lon="42.75018">
        <ele>765.87561</ele>
        <time>2021-08-16T01:47:48.115Z</time>
      </trkpt>
      <trkpt lat="42.79225" lon="42.74993">
        <ele>765.703952</ele>
        <time>2021-08-16T01:47:52.883Z</time>
      </trkpt>
      <trkpt lat="42.7921" lon="42.74933">
        <ele>765.285458</ele>
        <time>2021-08-16T01:48:02.240Z</time>
      </trkpt>
      <trkpt lat="42.79192" lon="42.74888">
        <ele>764.940273</ele>
        <time>2021-08-16T01:48:09.735Z</time>
      </trkpt>
      <trkpt lat="42.79175" lon="42.74851">
        <ele>764.656707</ele>
        <time>2021-08-16T01:48:15.936Z</time>
      </trkpt>
      <trkpt lat="42.79156" lon="42.74816">
        <ele>764.283035</ele>
        <time>2021-08-16T01:48:22.208Z</time>
      </trkpt>
      <trkpt lat="42.79142" lon="42.7479">
        <ele>763.915511</ele>
        <time>2021-08-16T01:48:26.565Z</time>
      </trkpt>
      <trkpt lat="42.79126" lon="42.74755">
        <ele>763.456068</ele>
        <time>2021-08-16T01:48:32.336Z</time>
      </trkpt>
      <trkpt lat="42.79123" lon="42.74734">
        <ele>763.214239</ele>
        <time>2021-08-16T01:48:35.518Z</time>
      </trkpt>
      <trkpt lat="42.79099" lon="42.7446">
        <ele>760.342612</ele>
        <time>2021-08-16T01:49:13.618Z</time>
      </trkpt>
      <trkpt lat="42.79063" lon="42.74338">
        <ele>759.040385</ele>
        <time>2021-08-16T01:49:33.331Z</time>
      </trkpt>
      <trkpt lat="42.7904" lon="42.74291">
        <ele>758.412095</ele>
        <time>2021-08-16T01:49:41.516Z</time>
      </trkpt>
      <trkpt lat="42.79026" lon="42.74249">
        <ele>757.894907</ele>
        <time>2021-08-16T01:49:48.176Z</time>
      </trkpt>
      <trkpt lat="42.78999" lon="42.74076">
        <ele>755.417057</ele>
        <time>2021-08-16T01:50:11.939Z</time>
      </trkpt>
      <trkpt lat="42.78997" lon="42.74037">
        <ele>754.660539</ele>
        <time>2021-08-16T01:50:17.060Z</time>
      </trkpt>
      <trkpt lat="42.79004" lon="42.73983">
        <ele>753.626692</ele>
        <time>2021-08-16T01:50:23.989Z</time>
      </trkpt>
      <trkpt lat="42.79027" lon="42.73903">
        <ele>751.986463</ele>
        <time>2021-08-16T01:50:34.972Z</time>
      </trkpt>
      <trkpt lat="42.7904" lon="42.7373">
        <ele>748.236766</ele>
        <time>2021-08-16T01:50:57.164Z</time>
      </trkpt>
      <trkpt lat="42.7904" lon="42.73608">
        <ele>745.766714</ele>
        <time>2021-08-16T01:51:12.594Z</time>
      </trkpt>
      <trkpt lat="42.79066" lon="42.73465">
        <ele>743.058127</ele>
        <time>2021-08-16T01:51:31.936Z</time>
      </trkpt>
      <trkpt lat="42.79067" lon="42.73443">
        <ele>742.67053</ele>
        <time>2021-08-16T01:51:34.800Z</time>
      </trkpt>
      <trkpt lat="42.7906" lon="42.73405">
        <ele>742.078933</ele>
        <time>2021-08-16T01:51:40.149Z</time>
      </trkpt>
      <trkpt lat="42.79019" lon="42.73346">
        <ele>741.392377</ele>
        <time>2021-08-16T01:51:51.491Z</time>
      </trkpt>
      <trkpt lat="42.79003" lon="42.73321">
        <ele>741.110967</ele>
        <time>2021-08-16T01:51:56.320Z</time>
      </trkpt>
      <trkpt lat="42.78978" lon="42.7327">
        <ele>740.593308</ele>
        <time>2021-08-16T01:52:05.467Z</time>
      </trkpt>
      <trkpt lat="42.78943" lon="42.73214">
        <ele>740.017709</ele>
        <time>2021-08-16T01:52:16.729Z</time>
      </trkpt>
      <trkpt lat="42.78898" lon="42.73115">
        <ele>739.362813</ele>
        <time>2021-08-16T01:52:33.839Z</time>
      </trkpt>
      <trkpt lat="42.7887" lon="42.73051">
        <ele>738.940718</ele>
        <time>2021-08-16T01:52:45.633Z</time>
      </trkpt>
      <trkpt lat="42.78869" lon="42.73037">
        <ele>738.860444</ele>
        <time>2021-08-16T01:52:47.665Z</time>
      </trkpt>
      <trkpt lat="42.78869" lon="42.73022">
        <ele>738.777147</ele>
        <time>2021-08-16T01:52:49.963Z</time>
      </trkpt>
      <trkpt lat="42.78872" lon="42.72955">
        <ele>738.037074</ele>
        <time>2021-08-16T01:52:59.657Z</time>
      </trkpt>
      <trkpt lat="42.78866" lon="42.72955">
        <ele>737.94194</ele>
        <time>2021-08-16T01:53:00.816Z</time>
      </trkpt>
      <trkpt lat="42.78862" lon="42.72954">
        <ele>737.867668</ele>
        <time>2021-08-16T01:53:01.674Z</time>
      </trkpt>
      <trkpt lat="42.78798" lon="42.72952">
        <ele>736.831196</ele>
        <time>2021-08-16T01:53:14.236Z</time>
      </trkpt>
      <trkpt lat="42.78799" lon="42.72831">
        <ele>735.400653</ele>
        <time>2021-08-16T01:53:31.310Z</time>
      </trkpt>
      <trkpt lat="42.78798" lon="42.72725">
        <ele>734.140331</ele>
        <time>2021-08-16T01:53:46.282Z</time>
      </trkpt>
      <trkpt lat="42.788" lon="42.72687">
        <ele>733.685772</ele>
        <time>2021-08-16T01:53:51.781Z</time>
      </trkpt>
      <trkpt lat="42.788" lon="42.72617">
        <ele>732.933253</ele>
        <time>2021-08-16T01:54:02.541Z</time>
      </trkpt>
      <trkpt lat="42.78801" lon="42.72616">
        <ele>732.935271</ele>
        <time>2021-08-16T01:54:02.680Z</time>
      </trkpt>
      <trkpt lat="42.78802" lon="42.72548">
        <ele>733.049115</ele>
        <time>2021-08-16T01:54:13.895Z</time>
      </trkpt>
      <trkpt lat="42.78804" lon="42.72482">
        <ele>733.15827</ele>
        <time>2021-08-16T01:54:25.518Z</time>
      </trkpt>
      <trkpt lat="42.78805" lon="42.7239">
        <ele>733.313387</ele>
        <time>2021-08-16T01:54:44.046Z</time>
      </trkpt>
      <trkpt lat="42.78808" lon="42.72264">
        <ele>734.077028</ele>
        <time>2021-08-16T01:55:10.695Z</time>
      </trkpt>
      <trkpt lat="42.78884" lon="42.72234">
        <ele>734.774214</ele>
        <time>2021-08-16T01:55:31.352Z</time>
      </trkpt>
      <trkpt lat="42.78889" lon="42.72232">
        <ele>734.819096</ele>
        <time>2021-08-16T01:55:32.826Z</time>
      </trkpt>
      <trkpt lat="42.78893" lon="42.72231">
        <ele>734.857988</ele>
        <time>2021-08-16T01:55:34.099Z</time>
      </trkpt>
      <trkpt lat="42.78889" lon="42.72215">
        <ele>734.949007</ele>
        <time>2021-08-16T01:55:37.374Z</time>
      </trkpt>
      <trkpt lat="42.78889" lon="42.7221">
        <ele>734.966472</ele>
        <time>2021-08-16T01:55:38.164Z</time>
      </trkpt>
      <trkpt lat="42.7889" lon="42.72176">
        <ele>735.0835</ele>
        <time>2021-08-16T01:55:45.319Z</time>
      </trkpt>
      <trkpt lat="42.78892" lon="42.72127">
        <ele>735.249567</ele>
        <time>2021-08-16T01:55:55.176Z</time>
      </trkpt>
      <trkpt lat="42.78895" lon="42.7206">
        <ele>735.4784</ele>
        <time>2021-08-16T01:56:08.310Z</time>
      </trkpt>
      <trkpt lat="42.78895" lon="42.72056">
        <ele>735.493171</ele>
        <time>2021-08-16T01:56:09.156Z</time>
      </trkpt>
      <trkpt lat="42.78897" lon="42.72027">
        <ele>735.594362</ele>
        <time>2021-08-16T01:56:14.567Z</time>
      </trkpt>
      <trkpt lat="42.78899" lon="42.71951">
        <ele>735.477373</ele>
        <time>2021-08-16T01:56:26.029Z</time>
      </trkpt>
      <trkpt lat="42.78884" lon="42.71922">
        <ele>735.060877</ele>
        <time>2021-08-16T01:56:31.181Z</time>
      </trkpt>
      <trkpt lat="42.78872" lon="42.71902">
        <ele>734.753284</ele>
        <time>2021-08-16T01:56:34.898Z</time>
      </trkpt>
      <trkpt lat="42.78857" lon="42.71882">
        <ele>734.424327</ele>
        <time>2021-08-16T01:56:38.866Z</time>
      </trkpt>
      <trkpt lat="42.78852" lon="42.71875">
        <ele>734.315328</ele>
        <time>2021-08-16T01:56:40.219Z</time>
      </trkpt>
      <trkpt lat="42.788" lon="42.71806">
        <ele>733.152361</ele>
        <time>2021-08-16T01:56:53.495Z</time>
      </trkpt>
      <trkpt lat="42.78796" lon="42.71802">
        <ele>733.065004</ele>
        <time>2021-08-16T01:56:54.419Z</time>
      </trkpt>
      <trkpt lat="42.7879" lon="42.71798">
        <ele>732.963826</ele>
        <time>2021-08-16T01:56:55.596Z</time>
      </trkpt>
      <trkpt lat="42.78783" lon="42.71795">
        <ele>732.818671</ele>
        <time>2021-08-16T01:56:56.906Z</time>
      </trkpt>
      <trkpt lat="42.78778" lon="42.71792">
        <ele>732.68347</ele>
        <time>2021-08-16T01:56:57.865Z</time>
      </trkpt>
      <trkpt lat="42.78773" lon="42.71791">
        <ele>732.552803</ele>
        <time>2021-08-16T01:56:58.845Z</time>
      </trkpt>
      <trkpt lat="42.78768" lon="42.71791">
        <ele>732.428595</ele>
        <time>2021-08-16T01:56:59.744Z</time>
      </trkpt>
      <trkpt lat="42.78765" lon="42.71793">
        <ele>732.363362</ele>
        <time>2021-08-16T01:57:00.138Z</time>
      </trkpt>
      <trkpt lat="42.78612" lon="42.71934">
        <ele>727.987278</ele>
        <time>2021-08-16T01:57:32.869Z</time>
      </trkpt>
      <trkpt lat="42.78414" lon="42.72093">
        <ele>725.096283</ele>
        <time>2021-08-16T01:58:17.151Z</time>
      </trkpt>
      <trkpt lat="42.78318" lon="42.72138">
        <ele>724.598448</ele>
        <time>2021-08-16T01:58:39.290Z</time>
      </trkpt>
      <trkpt lat="42.78274" lon="42.72148">
        <ele>725.254924</ele>
        <time>2021-08-16T01:58:51.133Z</time>
      </trkpt>
      <trkpt lat="42.78207" lon="42.72146">
        <ele>726.322856</ele>
        <time>2021-08-16T01:59:12.303Z</time>
      </trkpt>
      <trkpt lat="42.7814" lon="42.72152">
        <ele>727.377267</ele>
        <time>2021-08-16T01:59:35.153Z</time>
      </trkpt>
      <trkpt lat="42.78122" lon="42.72148">
        <ele>727.532447</ele>
        <time>2021-08-16T01:59:41.212Z</time>
      </trkpt>
      <trkpt lat="42.78021" lon="42.7209">
        <ele>728.359372</ele>
        <time>2021-08-16T02:00:12.104Z</time>
      </trkpt>
      <trkpt lat="42.77988" lon="42.72089">
        <ele>728.614124</ele>
        <time>2021-08-16T02:00:19.924Z</time>
      </trkpt>
      <trkpt lat="42.77947" lon="42.721">
        <ele>728.360754</ele>
        <time>2021-08-16T02:00:28.405Z</time>
      </trkpt>
      <trkpt lat="42.77846" lon="42.72202">
        <ele>725.798145</ele>
        <time>2021-08-16T02:00:50.713Z</time>
      </trkpt>
      <trkpt lat="42.77783" lon="42.72254">
        <ele>724.147788</ele>
        <time>2021-08-16T02:01:03.871Z</time>
      </trkpt>
      <trkpt lat="42.77733" lon="42.72282">
        <ele>722.844703</ele>
        <time>2021-08-16T02:01:13.763Z</time>
      </trkpt>
      <trkpt lat="42.77685" lon="42.72317">
        <ele>721.557644</ele>
        <time>2021-08-16T02:01:23.751Z</time>
      </trkpt>
      <trkpt lat="42.77566" lon="42.72418">
        <ele>716.550744</ele>
        <time>2021-08-16T02:01:47.628Z</time>
      </trkpt>
      <trkpt lat="42.7749" lon="42.72458">
        <ele>713.485645</ele>
        <time>2021-08-16T02:02:00.491Z</time>
      </trkpt>
      <trkpt lat="42.77461" lon="42.72474">
        <ele>712.645429</ele>
        <time>2021-08-16T02:02:05.538Z</time>
      </trkpt>
      <trkpt lat="42.77447" lon="42.7248">
        <ele>712.247264</ele>
        <time>2021-08-16T02:02:07.793Z</time>
      </trkpt>
      <trkpt lat="42.77431" lon="42.72484">
        <ele>711.790664</ele>
        <time>2021-08-16T02:02:10.715Z</time>
      </trkpt>
      <trkpt lat="42.77416" lon="42.72476">
        <ele>711.365596</ele>
        <time>2021-08-16T02:02:13.197Z</time>
      </trkpt>
      <trkpt lat="42.77361" lon="42.72422">
        <ele>709.54119</ele>
        <time>2021-08-16T02:02:25.320Z</time>
      </trkpt>
      <trkpt lat="42.77287" lon="42.72368">
        <ele>710.149799</ele>
        <time>2021-08-16T02:02:50.883Z</time>
      </trkpt>
      <trkpt lat="42.77251" lon="42.72349">
        <ele>710.929916</ele>
        <time>2021-08-16T02:03:06.141Z</time>
      </trkpt>
      <trkpt lat="42.77176" lon="42.72337">
        <ele>712.510101</ele>
        <time>2021-08-16T02:03:35.215Z</time>
      </trkpt>
      <trkpt lat="42.77114" lon="42.72359">
        <ele>711.10751</ele>
        <time>2021-08-16T02:03:51.978Z</time>
      </trkpt>
      <trkpt lat="42.77055" lon="42.72394">
        <ele>709.44834</ele>
        <time>2021-08-16T02:04:03.511Z</time>
      </trkpt>
      <trkpt lat="42.76975" lon="42.72523">
        <ele>705.159903</ele>
        <time>2021-08-16T02:04:22.111Z</time>
      </trkpt>
      <trkpt lat="42.76958" lon="42.72534">
        <ele>704.363261</ele>
        <time>2021-08-16T02:04:25.012Z</time>
      </trkpt>
      <trkpt lat="42.76937" lon="42.72521">
        <ele>703.386913</ele>
        <time>2021-08-16T02:04:28.602Z</time>
      </trkpt>
      <trkpt lat="42.769" lon="42.72456">
        <ele>700.866276</ele>
        <time>2021-08-16T02:04:38.819Z</time>
      </trkpt>
      <trkpt lat="42.76881" lon="42.72433">
        <ele>701.396304</ele>
        <time>2021-08-16T02:04:44.393Z</time>
      </trkpt>
      <trkpt lat="42.76763" lon="42.72353">
        <ele>709.995576</ele>
        <time>2021-08-16T02:05:57.259Z</time>
      </trkpt>
      <trkpt lat="42.76713" lon="42.72339">
        <ele>713.989366</ele>
        <time>2021-08-16T02:06:40.924Z</time>
      </trkpt>
      <trkpt lat="42.76684" lon="42.72343">
        <ele>717.116749</ele>
        <time>2021-08-16T02:07:06.380Z</time>
      </trkpt>
      <trkpt lat="42.76629" lon="42.7237">
        <ele>723.201578</ele>
        <time>2021-08-16T02:07:53.922Z</time>
      </trkpt>
      <trkpt lat="42.76586" lon="42.72418">
        <ele>729.010001</ele>
        <time>2021-08-16T02:08:36.229Z</time>
      </trkpt>
      <trkpt lat="42.76569" lon="42.72449">
        <ele>731.193124</ele>
        <time>2021-08-16T02:08:55.528Z</time>
      </trkpt>
      <trkpt lat="42.7651" lon="42.72606">
        <ele>734.18029</ele>
        <time>2021-08-16T02:09:45.704Z</time>
      </trkpt>
      <trkpt lat="42.76503" lon="42.72641">
        <ele>734.795622</ele>
        <time>2021-08-16T02:09:50.469Z</time>
      </trkpt>
      <trkpt lat="42.76494" lon="42.72745">
        <ele>729.955167</ele>
        <time>2021-08-16T02:10:02.539Z</time>
      </trkpt>
      <trkpt lat="42.76494" lon="42.72804">
        <ele>726.369674</ele>
        <time>2021-08-16T02:10:08.883Z</time>
      </trkpt>
      <trkpt lat="42.76518" lon="42.72962">
        <ele>716.662029</ele>
        <time>2021-08-16T02:10:25.341Z</time>
      </trkpt>
      <trkpt lat="42.76514" lon="42.73105">
        <ele>708.070151</ele>
        <time>2021-08-16T02:10:40.490Z</time>
      </trkpt>
      <trkpt lat="42.76527" lon="42.73196">
        <ele>707.012158</ele>
        <time>2021-08-16T02:10:52.805Z</time>
      </trkpt>
      <trkpt lat="42.76547" lon="42.7327">
        <ele>709.079924</ele>
        <time>2021-08-16T02:11:15.878Z</time>
      </trkpt>
      <trkpt lat="42.76585" lon="42.73379">
        <ele>712.288223</ele>
        <time>2021-08-16T02:12:08.451Z</time>
      </trkpt>
      <trkpt lat="42.76611" lon="42.73423">
        <ele>714.498786</ele>
        <time>2021-08-16T02:12:35.803Z</time>
      </trkpt>
      <trkpt lat="42.76663" lon="42.7346">
        <ele>717.615704</ele>
        <time>2021-08-16T02:13:08.922Z</time>
      </trkpt>
      <trkpt lat="42.76707" lon="42.73498">
        <ele>720.330861</ele>
        <time>2021-08-16T02:13:31.972Z</time>
      </trkpt>
      <trkpt lat="42.76732" lon="42.73504">
        <ele>721.458844</ele>
        <time>2021-08-16T02:13:40.074Z</time>
      </trkpt>
      <trkpt lat="42.768" lon="42.73479">
        <ele>719.546493</ele>
        <time>2021-08-16T02:13:53.572Z</time>
      </trkpt>
      <trkpt lat="42.76849" lon="42.73521">
        <ele>717.960893</ele>
        <time>2021-08-16T02:14:03.254Z</time>
      </trkpt>
      <trkpt lat="42.76875" lon="42.73573">
        <ele>716.696278</ele>
        <time>2021-08-16T02:14:10.583Z</time>
      </trkpt>
      <trkpt lat="42.76883" lon="42.73612">
        <ele>714.859901</ele>
        <time>2021-08-16T02:14:15.154Z</time>
      </trkpt>
      <trkpt lat="42.769" lon="42.73811">
        <ele>705.133457</ele>
        <time>2021-08-16T02:14:37.137Z</time>
      </trkpt>
      <trkpt lat="42.76886" lon="42.73847">
        <ele>703.895406</ele>
        <time>2021-08-16T02:14:41.716Z</time>
      </trkpt>
      <trkpt lat="42.76823" lon="42.739">
        <ele>701.27014</ele>
        <time>2021-08-16T02:14:53.541Z</time>
      </trkpt>
      <trkpt lat="42.76727" lon="42.74018">
        <ele>698.179319</ele>
        <time>2021-08-16T02:15:18.640Z</time>
      </trkpt>
      <trkpt lat="42.76631" lon="42.74211">
        <ele>695.723042</ele>
        <time>2021-08-16T02:16:00.045Z</time>
      </trkpt>
      <trkpt lat="42.76522" lon="42.74499">
        <ele>684.183064</ele>
        <time>2021-08-16T02:16:35.974Z</time>
      </trkpt>
      <trkpt lat="42.76492" lon="42.74551">
        <ele>681.928618</ele>
        <time>2021-08-16T02:16:43.762Z</time>
      </trkpt>
      <trkpt lat="42.76422" lon="42.74584">
        <ele>681.555568</ele>
        <time>2021-08-16T02:16:59.011Z</time>
      </trkpt>
      <trkpt lat="42.76333" lon="42.74637">
        <ele>684.677209</ele>
        <time>2021-08-16T02:17:41.316Z</time>
      </trkpt>
      <trkpt lat="42.76306" lon="42.74655">
        <ele>685.629521</ele>
        <time>2021-08-16T02:17:57.390Z</time>
      </trkpt>
      <trkpt lat="42.76281" lon="42.74681">
        <ele>686.347239</ele>
        <time>2021-08-16T02:18:14.123Z</time>
      </trkpt>
      <trkpt lat="42.76257" lon="42.74727">
        <ele>686.997364</ele>
        <time>2021-08-16T02:18:34.098Z</time>
      </trkpt>
      <trkpt lat="42.76231" lon="42.74836">
        <ele>688.330146</ele>
        <time>2021-08-16T02:18:55.294Z</time>
      </trkpt>
      <trkpt lat="42.76207" lon="42.74909">
        <ele>688.127566</ele>
        <time>2021-08-16T02:19:06.267Z</time>
      </trkpt>
      <trkpt lat="42.76163" lon="42.75023">
        <ele>684.918831</ele>
        <time>2021-08-16T02:19:22.342Z</time>
      </trkpt>
      <trkpt lat="42.76149" lon="42.75062">
        <ele>683.853986</ele>
        <time>2021-08-16T02:19:27.478Z</time>
      </trkpt>
      <trkpt lat="42.76111" lon="42.75149">
        <ele>680.49019</ele>
        <time>2021-08-16T02:19:39.447Z</time>
      </trkpt>
      <trkpt lat="42.76075" lon="42.75237">
        <ele>676.59193</ele>
        <time>2021-08-16T02:19:51.446Z</time>
      </trkpt>
      <trkpt lat="42.76055" lon="42.75271">
        <ele>674.914338</ele>
        <time>2021-08-16T02:19:56.276Z</time>
      </trkpt>
      <trkpt lat="42.76006" lon="42.75329">
        <ele>671.931489</ele>
        <time>2021-08-16T02:20:06.042Z</time>
      </trkpt>
      <trkpt lat="42.75935" lon="42.75338">
        <ele>669.055451</ele>
        <time>2021-08-16T02:20:17.048Z</time>
      </trkpt>
      <trkpt lat="42.75756" lon="42.7531">
        <ele>666.802987</ele>
        <time>2021-08-16T02:20:53.269Z</time>
      </trkpt>
      <trkpt lat="42.75702" lon="42.75316">
        <ele>667.172208</ele>
        <time>2021-08-16T02:21:14.440Z</time>
      </trkpt>
      <trkpt lat="42.75653" lon="42.7534">
        <ele>667.611616</ele>
        <time>2021-08-16T02:21:33.029Z</time>
      </trkpt>
      <trkpt lat="42.75588" lon="42.75415">
        <ele>668.430886</ele>
        <time>2021-08-16T02:22:00.565Z</time>
      </trkpt>
      <trkpt lat="42.75504" lon="42.75567">
        <ele>666.4484</ele>
        <time>2021-08-16T02:22:27.269Z</time>
      </trkpt>
      <trkpt lat="42.75448" lon="42.75644">
        <ele>663.803786</ele>
        <time>2021-08-16T02:22:40.066Z</time>
      </trkpt>
      <trkpt lat="42.75434" lon="42.75658">
        <ele>663.243563</ele>
        <time>2021-08-16T02:22:42.929Z</time>
      </trkpt>
      <trkpt lat="42.75369" lon="42.75725">
        <ele>659.188024</ele>
        <time>2021-08-16T02:22:55.651Z</time>
      </trkpt>
      <trkpt lat="42.75336" lon="42.75768">
        <ele>656.858551</ele>
        <time>2021-08-16T02:23:02.774Z</time>
      </trkpt>
      <trkpt lat="42.75247" lon="42.75807">
        <ele>652.971865</ele>
        <time>2021-08-16T02:23:17.661Z</time>
      </trkpt>
      <trkpt lat="42.75209" lon="42.7584">
        <ele>651.757397</ele>
        <time>2021-08-16T02:23:25.447Z</time>
      </trkpt>
      <trkpt lat="42.75154" lon="42.75819">
        <ele>650.223395</ele>
        <time>2021-08-16T02:23:36.100Z</time>
      </trkpt>
      <trkpt lat="42.75123" lon="42.75814">
        <ele>649.402193</ele>
        <time>2021-08-16T02:23:42.008Z</time>
      </trkpt>
      <trkpt lat="42.75048" lon="42.75805">
        <ele>647.839717</ele>
        <time>2021-08-16T02:23:56.674Z</time>
      </trkpt>
      <trkpt lat="42.7501" lon="42.75816">
        <ele>647.062295</ele>
        <time>2021-08-16T02:24:04.060Z</time>
      </trkpt>
      <trkpt lat="42.74961" lon="42.75854">
        <ele>645.949397</ele>
        <time>2021-08-16T02:24:14.063Z</time>
      </trkpt>
      <trkpt lat="42.7491" lon="42.7591">
        <ele>645.149734</ele>
        <time>2021-08-16T02:24:25.301Z</time>
      </trkpt>
      <trkpt lat="42.74861" lon="42.75932">
        <ele>644.686373</ele>
        <time>2021-08-16T02:24:34.696Z</time>
      </trkpt>
      <trkpt lat="42.74792" lon="42.75929">
        <ele>644.072425</ele>
        <time>2021-08-16T02:24:49.232Z</time>
      </trkpt>
      <trkpt lat="42.74663" lon="42.75846">
        <ele>647.822967</ele>
        <time>2021-08-16T02:25:46.666Z</time>
      </trkpt>
      <trkpt lat="42.74636" lon="42.75843">
        <ele>648.615985</ele>
        <time>2021-08-16T02:25:58.848Z</time>
      </trkpt>
      <trkpt lat="42.74566" lon="42.75902">
        <ele>648.454544</ele>
        <time>2021-08-16T02:26:25.555Z</time>
      </trkpt>
      <trkpt lat="42.74542" lon="42.75916">
        <ele>648.044311</ele>
        <time>2021-08-16T02:26:31.159Z</time>
      </trkpt>
      <trkpt lat="42.74511" lon="42.75956">
        <ele>647.389853</ele>
        <time>2021-08-16T02:26:38.801Z</time>
      </trkpt>
      <trkpt lat="42.74464" lon="42.76065">
        <ele>644.087399</ele>
        <time>2021-08-16T02:26:53.284Z</time>
      </trkpt>
      <trkpt lat="42.74445" lon="42.76084">
        <ele>642.602523</ele>
        <time>2021-08-16T02:26:56.814Z</time>
      </trkpt>
      <trkpt lat="42.74414" lon="42.76077">
        <ele>640.623359</ele>
        <time>2021-08-16T02:27:01.527Z</time>
      </trkpt>
      <trkpt lat="42.74373" lon="42.76054">
        <ele>637.885174</ele>
        <time>2021-08-16T02:27:08.134Z</time>
      </trkpt>
      <trkpt lat="42.74361" lon="42.76019">
        <ele>636.117601</ele>
        <time>2021-08-16T02:27:12.502Z</time>
      </trkpt>
      <trkpt lat="42.74356" lon="42.75941">
        <ele>633.587175</ele>
        <time>2021-08-16T02:27:21.644Z</time>
      </trkpt>
      <trkpt lat="42.74348" lon="42.759">
        <ele>632.366465</ele>
        <time>2021-08-16T02:27:26.807Z</time>
      </trkpt>
      <trkpt lat="42.74328" lon="42.75867">
        <ele>631.156711</ele>
        <time>2021-08-16T02:27:32.041Z</time>
      </trkpt>
      <trkpt lat="42.74215" lon="42.7579">
        <ele>626.672896</ele>
        <time>2021-08-16T02:27:54.149Z</time>
      </trkpt>
      <trkpt lat="42.7416" lon="42.75783">
        <ele>624.990729</ele>
        <time>2021-08-16T02:28:03.566Z</time>
      </trkpt>
      <trkpt lat="42.74047" lon="42.7574">
        <ele>621.588515</ele>
        <time>2021-08-16T02:28:23.629Z</time>
      </trkpt>
      <trkpt lat="42.74022" lon="42.75738">
        <ele>620.930561</ele>
        <time>2021-08-16T02:28:27.921Z</time>
      </trkpt>
      <trkpt lat="42.73995" lon="42.75752">
        <ele>620.165407</ele>
        <time>2021-08-16T02:28:32.941Z</time>
      </trkpt>
      <trkpt lat="42.73974" lon="42.75774">
        <ele>619.465173</ele>
        <time>2021-08-16T02:28:37.646Z</time>
      </trkpt>
      <trkpt lat="42.73952" lon="42.75781">
        <ele>618.884208</ele>
        <time>2021-08-16T02:28:41.628Z</time>
      </trkpt>
      <trkpt lat="42.73932" lon="42.75775">
        <ele>618.355301</ele>
        <time>2021-08-16T02:28:45.311Z</time>
      </trkpt>
      <trkpt lat="42.73865" lon="42.75717">
        <ele>617.566892</ele>
        <time>2021-08-16T02:29:00.675Z</time>
      </trkpt>
      <trkpt lat="42.73749" lon="42.7565">
        <ele>616.684718</ele>
        <time>2021-08-16T02:29:27.586Z</time>
      </trkpt>
      <trkpt lat="42.73702" lon="42.75632">
        <ele>616.559097</ele>
        <time>2021-08-16T02:29:39.038Z</time>
      </trkpt>
      <trkpt lat="42.73671" lon="42.75636">
        <ele>616.479912</ele>
        <time>2021-08-16T02:29:46.179Z</time>
      </trkpt>
      <trkpt lat="42.73603" lon="42.75661">
        <ele>616.299336</ele>
        <time>2021-08-16T02:30:01.304Z</time>
      </trkpt>
      <trkpt lat="42.73572" lon="42.75655">
        <ele>616.037147</ele>
        <time>2021-08-16T02:30:07.727Z</time>
      </trkpt>
      <trkpt lat="42.73536" lon="42.75632">
        <ele>615.548205</ele>
        <time>2021-08-16T02:30:15.496Z</time>
      </trkpt>
      <trkpt lat="42.73515" lon="42.75608">
        <ele>615.209499</ele>
        <time>2021-08-16T02:30:20.747Z</time>
      </trkpt>
      <trkpt lat="42.73499" lon="42.75575">
        <ele>614.856313</ele>
        <time>2021-08-16T02:30:26.091Z</time>
      </trkpt>
      <trkpt lat="42.73466" lon="42.75524">
        <ele>614.238439</ele>
        <time>2021-08-16T02:30:35.213Z</time>
      </trkpt>
      <trkpt lat="42.73359" lon="42.7547">
        <ele>615.247497</ele>
        <time>2021-08-16T02:30:59.608Z</time>
      </trkpt>
      <trkpt lat="42.7332" lon="42.75472">
        <ele>615.718786</ele>
        <time>2021-08-16T02:31:14.371Z</time>
      </trkpt>
      <trkpt lat="42.7329" lon="42.75472">
        <ele>616.07884</ele>
        <time>2021-08-16T02:31:24.883Z</time>
      </trkpt>
      <trkpt lat="42.73247" lon="42.75473">
        <ele>617.117526</ele>
        <time>2021-08-16T02:31:44.168Z</time>
      </trkpt>
      <trkpt lat="42.73226" lon="42.75477">
        <ele>617.729332</ele>
        <time>2021-08-16T02:31:52.219Z</time>
      </trkpt>
      <trkpt lat="42.73206" lon="42.75489">
        <ele>618.352686</ele>
        <time>2021-08-16T02:32:01.757Z</time>
      </trkpt>
      <trkpt lat="42.73183" lon="42.75511">
        <ele>619.137551</ele>
        <time>2021-08-16T02:32:12.343Z</time>
      </trkpt>
      <trkpt lat="42.73132" lon="42.75602">
        <ele>621.438688</ele>
        <time>2021-08-16T02:32:43.084Z</time>
      </trkpt>
      <trkpt lat="42.73081" lon="42.75715">
        <ele>622.230424</ele>
        <time>2021-08-16T02:33:02.687Z</time>
      </trkpt>
      <trkpt lat="42.73037" lon="42.75775">
        <ele>622.732506</ele>
        <time>2021-08-16T02:33:20.870Z</time>
      </trkpt>
      <trkpt lat="42.72948" lon="42.75855">
        <ele>623.285093</ele>
        <time>2021-08-16T02:33:58.034Z</time>
      </trkpt>
      <trkpt lat="42.72928" lon="42.75876">
        <ele>623.40644</ele>
        <time>2021-08-16T02:34:08.127Z</time>
      </trkpt>
      <trkpt lat="42.72917" lon="42.75914">
        <ele>623.546904</ele>
        <time>2021-08-16T02:34:16.140Z</time>
      </trkpt>
      <trkpt lat="42.72904" lon="42.76008">
        <ele>620.755804</ele>
        <time>2021-08-16T02:34:27.316Z</time>
      </trkpt>
      <trkpt lat="42.72904" lon="42.76045">
        <ele>618.632544</ele>
        <time>2021-08-16T02:34:31.389Z</time>
      </trkpt>
      <trkpt lat="42.72923" lon="42.76104">
        <ele>615.007977</ele>
        <time>2021-08-16T02:34:38.386Z</time>
      </trkpt>
      <trkpt lat="42.72922" lon="42.76129">
        <ele>613.561406</ele>
        <time>2021-08-16T02:34:40.901Z</time>
      </trkpt>
      <trkpt lat="42.7292" lon="42.76148">
        <ele>612.492049</ele>
        <time>2021-08-16T02:34:42.978Z</time>
      </trkpt>
      <trkpt lat="42.72914" lon="42.76163">
        <ele>611.551189</ele>
        <time>2021-08-16T02:34:44.661Z</time>
      </trkpt>
      <trkpt lat="42.72907" lon="42.76169">
        <ele>610.919123</ele>
        <time>2021-08-16T02:34:45.757Z</time>
      </trkpt>
      <trkpt lat="42.72843" lon="42.76164">
        <ele>606.814769</ele>
        <time>2021-08-16T02:34:55.038Z</time>
      </trkpt>
      <trkpt lat="42.72823" lon="42.76165">
        <ele>605.639393</ele>
        <time>2021-08-16T02:34:57.924Z</time>
      </trkpt>
      <trkpt lat="42.72775" lon="42.7616">
        <ele>602.748407</ele>
        <time>2021-08-16T02:35:05.359Z</time>
      </trkpt>
      <trkpt lat="42.72741" lon="42.76154">
        <ele>600.729815</ele>
        <time>2021-08-16T02:35:11.697Z</time>
      </trkpt>
      <trkpt lat="42.72727" lon="42.76146">
        <ele>599.845508</ele>
        <time>2021-08-16T02:35:14.491Z</time>
      </trkpt>
      <trkpt lat="42.72704" lon="42.76117">
        <ele>598.844739</ele>
        <time>2021-08-16T02:35:20.292Z</time>
      </trkpt>
      <trkpt lat="42.72681" lon="42.76076">
        <ele>598.327768</ele>
        <time>2021-08-16T02:35:27.528Z</time>
      </trkpt>
      <trkpt lat="42.7266" lon="42.76052">
        <ele>597.956799</ele>
        <time>2021-08-16T02:35:32.890Z</time>
      </trkpt>
      <trkpt lat="42.72606" lon="42.76034">
        <ele>597.212192</ele>
        <time>2021-08-16T02:35:44.007Z</time>
      </trkpt>
      <trkpt lat="42.7251" lon="42.76013">
        <ele>595.804464</ele>
        <time>2021-08-16T02:36:03.119Z</time>
      </trkpt>
      <trkpt lat="42.72384" lon="42.7604">
        <ele>593.90573</ele>
        <time>2021-08-16T02:36:26.897Z</time>
      </trkpt>
      <trkpt lat="42.72169" lon="42.76032">
        <ele>591.408187</ele>
        <time>2021-08-16T02:37:08.400Z</time>
      </trkpt>
      <trkpt lat="42.72116" lon="42.76003">
        <ele>591.132414</ele>
        <time>2021-08-16T02:37:20.708Z</time>
      </trkpt>
      <trkpt lat="42.72095" lon="42.75986">
        <ele>591.015856</ele>
        <time>2021-08-16T02:37:26.303Z</time>
      </trkpt>
      <trkpt lat="42.72048" lon="42.75956">
        <ele>590.768544</ele>
        <time>2021-08-16T02:37:37.589Z</time>
      </trkpt>
      <trkpt lat="42.72008" lon="42.75956">
        <ele>590.391069</ele>
        <time>2021-08-16T02:37:46.360Z</time>
      </trkpt>
      <trkpt lat="42.71899" lon="42.76032">
        <ele>589.121797</ele>
        <time>2021-08-16T02:38:10.701Z</time>
      </trkpt>
      <trkpt lat="42.71847" lon="42.76055">
        <ele>588.32525</ele>
        <time>2021-08-16T02:38:20.496Z</time>
      </trkpt>
      <trkpt lat="42.71804" lon="42.76067">
        <ele>587.517847</ele>
        <time>2021-08-16T02:38:28.548Z</time>
      </trkpt>
      <trkpt lat="42.71782" lon="42.76068">
        <ele>587.13206</ele>
        <time>2021-08-16T02:38:32.347Z</time>
      </trkpt>
      <trkpt lat="42.71614" lon="42.76035">
        <ele>584.827478</ele>
        <time>2021-08-16T02:39:04.722Z</time>
      </trkpt>
      <trkpt lat="42.7152" lon="42.76023">
        <ele>583.949531</ele>
        <time>2021-08-16T02:39:24.898Z</time>
      </trkpt>
      <trkpt lat="42.71469" lon="42.76032">
        <ele>583.399863</ele>
        <time>2021-08-16T02:39:35.456Z</time>
      </trkpt>
      <trkpt lat="42.71428" lon="42.76051">
        <ele>582.925525</ele>
        <time>2021-08-16T02:39:44.406Z</time>
      </trkpt>
      <trkpt lat="42.71327" lon="42.7613">
        <ele>581.824995</ele>
        <time>2021-08-16T02:40:06.365Z</time>
      </trkpt>
      <trkpt lat="42.71299" lon="42.76139">
        <ele>581.652614</ele>
        <time>2021-08-16T02:40:11.676Z</time>
      </trkpt>
      <trkpt lat="42.71263" lon="42.76131">
        <ele>581.434495</ele>
        <time>2021-08-16T02:40:18.484Z</time>
      </trkpt>
      <trkpt lat="42.71189" lon="42.76079">
        <ele>581.025993</ele>
        <time>2021-08-16T02:40:37.468Z</time>
      </trkpt>
      <trkpt lat="42.71139" lon="42.76047">
        <ele>583.557159</ele>
        <time>2021-08-16T02:40:56.073Z</time>
      </trkpt>
      <trkpt lat="42.71104" lon="42.76006">
        <ele>585.673037</ele>
        <time>2021-08-16T02:41:16.421Z</time>
      </trkpt>
      <trkpt lat="42.71082" lon="42.75988">
        <ele>586.878773</ele>
        <time>2021-08-16T02:41:29.288Z</time>
      </trkpt>
      <trkpt lat="42.71045" lon="42.75972">
        <ele>588.644675</ele>
        <time>2021-08-16T02:41:51.171Z</time>
      </trkpt>
      <trkpt lat="42.71019" lon="42.75971">
        <ele>590.250245</ele>
        <time>2021-08-16T02:42:07.672Z</time>
      </trkpt>
      <trkpt lat="42.70995" lon="42.75981">
        <ele>592.174227</ele>
        <time>2021-08-16T02:42:24.625Z</time>
      </trkpt>
      <trkpt lat="42.70946" lon="42.76011">
        <ele>596.20188</ele>
        <time>2021-08-16T02:43:00.326Z</time>
      </trkpt>
      <trkpt lat="42.7089" lon="42.76063">
        <ele>601.375473</ele>
        <time>2021-08-16T02:43:42.053Z</time>
      </trkpt>
      <trkpt lat="42.70867" lon="42.76101">
        <ele>602.98564</ele>
        <time>2021-08-16T02:44:01.026Z</time>
      </trkpt>
      <trkpt lat="42.7085" lon="42.76157">
        <ele>603.248829</ele>
        <time>2021-08-16T02:44:20.904Z</time>
      </trkpt>
      <trkpt lat="42.70824" lon="42.7631">
        <ele>603.922694</ele>
        <time>2021-08-16T02:44:44.278Z</time>
      </trkpt>
      <trkpt lat="42.70808" lon="42.76377">
        <ele>600.196063</ele>
        <time>2021-08-16T02:44:52.262Z</time>
      </trkpt>
      <trkpt lat="42.70749" lon="42.76504">
        <ele>591.668257</ele>
        <time>2021-08-16T02:45:08.113Z</time>
      </trkpt>
      <trkpt lat="42.70705" lon="42.76544">
        <ele>587.714361</ele>
        <time>2021-08-16T02:45:15.621Z</time>
      </trkpt>
      <trkpt lat="42.70591" lon="42.7654">
        <ele>579.427108</ele>
        <time>2021-08-16T02:45:32.390Z</time>
      </trkpt>
      <trkpt lat="42.70478" lon="42.76572">
        <ele>574.517843</ele>
        <time>2021-08-16T02:45:51.303Z</time>
      </trkpt>
      <trkpt lat="42.70337" lon="42.76595">
        <ele>571.0073</ele>
        <time>2021-08-16T02:46:17.861Z</time>
      </trkpt>
      <trkpt lat="42.70271" lon="42.7659">
        <ele>570.110894</ele>
        <time>2021-08-16T02:46:30.776Z</time>
      </trkpt>
      <trkpt lat="42.70235" lon="42.76574">
        <ele>569.608583</ele>
        <time>2021-08-16T02:46:38.045Z</time>
      </trkpt>
      <trkpt lat="42.70185" lon="42.76555">
        <ele>568.858972</ele>
        <time>2021-08-16T02:46:48.189Z</time>
      </trkpt>
      <trkpt lat="42.70135" lon="42.76536">
        <ele>568.012564</ele>
        <time>2021-08-16T02:46:58.267Z</time>
      </trkpt>
      <trkpt lat="42.70092" lon="42.7651">
        <ele>567.250607</ele>
        <time>2021-08-16T02:47:07.247Z</time>
      </trkpt>
      <trkpt lat="42.7004" lon="42.76433">
        <ele>565.862587</ele>
        <time>2021-08-16T02:47:21.421Z</time>
      </trkpt>
      <trkpt lat="42.7002" lon="42.76369">
        <ele>564.537655</ele>
        <time>2021-08-16T02:47:30.422Z</time>
      </trkpt>
      <trkpt lat="42.70008" lon="42.76269">
        <ele>562.60503</ele>
        <time>2021-08-16T02:47:43.364Z</time>
      </trkpt>
      <trkpt lat="42.69999" lon="42.7622">
        <ele>561.639831</ele>
        <time>2021-08-16T02:47:49.923Z</time>
      </trkpt>
      <trkpt lat="42.69973" lon="42.76156">
        <ele>560.801993</ele>
        <time>2021-08-16T02:47:59.570Z</time>
      </trkpt>
      <trkpt lat="42.6995" lon="42.76114">
        <ele>560.224197</ele>
        <time>2021-08-16T02:48:06.635Z</time>
      </trkpt>
      <trkpt lat="42.69936" lon="42.76095">
        <ele>559.922154</ele>
        <time>2021-08-16T02:48:10.453Z</time>
      </trkpt>
      <trkpt lat="42.69913" lon="42.76083">
        <ele>559.553071</ele>
        <time>2021-08-16T02:48:15.110Z</time>
      </trkpt>
      <trkpt lat="42.69822" lon="42.76062">
        <ele>558.814956</ele>
        <time>2021-08-16T02:48:34.773Z</time>
      </trkpt>
      <trkpt lat="42.69761" lon="42.76058">
        <ele>558.763506</ele>
        <time>2021-08-16T02:48:49.317Z</time>
      </trkpt>
      <trkpt lat="42.69687" lon="42.76062">
        <ele>558.686563</ele>
        <time>2021-08-16T02:49:05.958Z</time>
      </trkpt>
      <trkpt lat="42.69632" lon="42.76073">
        <ele>558.293692</ele>
        <time>2021-08-16T02:49:17.591Z</time>
      </trkpt>
      <trkpt lat="42.69571" lon="42.76101">
        <ele>557.837421</ele>
        <time>2021-08-16T02:49:30.542Z</time>
      </trkpt>
      <trkpt lat="42.69518" lon="42.76111">
        <ele>557.460488</ele>
        <time>2021-08-16T02:49:41.118Z</time>
      </trkpt>
      <trkpt lat="42.69427" lon="42.76077">
        <ele>556.510225</ele>
        <time>2021-08-16T02:49:59.874Z</time>
      </trkpt>
      <trkpt lat="42.69346" lon="42.76059">
        <ele>555.677237</ele>
        <time>2021-08-16T02:50:16.092Z</time>
      </trkpt>
      <trkpt lat="42.6927" lon="42.76061">
        <ele>554.650011</ele>
        <time>2021-08-16T02:50:31.218Z</time>
      </trkpt>
      <trkpt lat="42.6917" lon="42.76113">
        <ele>553.173822</ele>
        <time>2021-08-16T02:50:51.382Z</time>
      </trkpt>
      <trkpt lat="42.69141" lon="42.76116">
        <ele>552.870809</ele>
        <time>2021-08-16T02:50:56.770Z</time>
      </trkpt>
      <trkpt lat="42.69118" lon="42.76112">
        <ele>552.636963</ele>
        <time>2021-08-16T02:51:01.269Z</time>
      </trkpt>
      <trkpt lat="42.69069" lon="42.76081">
        <ele>552.115128</ele>
        <time>2021-08-16T02:51:11.625Z</time>
      </trkpt>
      <trkpt lat="42.6904" lon="42.76079">
        <ele>551.83774</ele>
        <time>2021-08-16T02:51:17.344Z</time>
      </trkpt>
      <trkpt lat="42.69006" lon="42.76086">
        <ele>551.49804</ele>
        <time>2021-08-16T02:51:24.609Z</time>
      </trkpt>
      <trkpt lat="42.68971" lon="42.76101">
        <ele>551.624738</ele>
        <time>2021-08-16T02:51:32.552Z</time>
      </trkpt>
      <trkpt lat="42.6878" lon="42.76224">
        <ele>554.417297</ele>
        <time>2021-08-16T02:52:36.460Z</time>
      </trkpt>
      <trkpt lat="42.68708" lon="42.76249">
        <ele>555.616667</ele>
        <time>2021-08-16T02:52:59.970Z</time>
      </trkpt>
      <trkpt lat="42.68666" lon="42.76284">
        <ele>556.414681</ele>
        <time>2021-08-16T02:53:14.591Z</time>
      </trkpt>
      <trkpt lat="42.68642" lon="42.76311">
        <ele>556.791784</ele>
        <time>2021-08-16T02:53:23.448Z</time>
      </trkpt>
      <trkpt lat="42.68516" lon="42.7648">
        <ele>559.097301</ele>
        <time>2021-08-16T02:54:11.814Z</time>
      </trkpt>
      <trkpt lat="42.68485" lon="42.76508">
        <ele>559.894055</ele>
        <time>2021-08-16T02:54:23.467Z</time>
      </trkpt>
      <trkpt lat="42.68439" lon="42.76564">
        <ele>561.213331</ele>
        <time>2021-08-16T02:54:44.579Z</time>
      </trkpt>
      <trkpt lat="42.68442" lon="42.7659">
        <ele>561.622784</ele>
        <time>2021-08-16T02:54:51.664Z</time>
      </trkpt>
      <trkpt lat="42.68464" lon="42.76673">
        <ele>562.560689</ele>
        <time>2021-08-16T02:55:14.914Z</time>
      </trkpt>
      <trkpt lat="42.68452" lon="42.76712">
        <ele>562.745266</ele>
        <time>2021-08-16T02:55:26.029Z</time>
      </trkpt>
      <trkpt lat="42.68428" lon="42.7674">
        <ele>562.924278</ele>
        <time>2021-08-16T02:55:36.252Z</time>
      </trkpt>
      <trkpt lat="42.68412" lon="42.76754">
        <ele>563.037343</ele>
        <time>2021-08-16T02:55:41.864Z</time>
      </trkpt>
      <trkpt lat="42.68402" lon="42.76763">
        <ele>563.10677</ele>
        <time>2021-08-16T02:55:44.624Z</time>
      </trkpt>
      <trkpt lat="42.68374" lon="42.76783">
        <ele>563.292294</ele>
        <time>2021-08-16T02:55:51.139Z</time>
      </trkpt>
      <trkpt lat="42.68302" lon="42.76839">
        <ele>560.603968</ele>
        <time>2021-08-16T02:56:05.136Z</time>
      </trkpt>
      <trkpt lat="42.6829" lon="42.76849">
        <ele>559.934076</ele>
        <time>2021-08-16T02:56:07.275Z</time>
      </trkpt>
      <trkpt lat="42.68267" lon="42.76868">
        <ele>558.608183</ele>
        <time>2021-08-16T02:56:11.397Z</time>
      </trkpt>
      <trkpt lat="42.6821" lon="42.76898">
        <ele>555.530435</ele>
        <time>2021-08-16T02:56:20.864Z</time>
      </trkpt>
      <trkpt lat="42.68159" lon="42.76911">
        <ele>553.560506</ele>
        <time>2021-08-16T02:56:28.640Z</time>
      </trkpt>
      <trkpt lat="42.68137" lon="42.76909">
        <ele>552.872144</ele>
        <time>2021-08-16T02:56:31.987Z</time>
      </trkpt>
      <trkpt lat="42.67691" lon="42.76714">
        <ele>540.206605</ele>
        <time>2021-08-16T02:57:55.533Z</time>
      </trkpt>
      <trkpt lat="42.67665" lon="42.76715">
        <ele>539.892474</ele>
        <time>2021-08-16T02:58:01.344Z</time>
      </trkpt>
      <trkpt lat="42.67633" lon="42.76728">
        <ele>540.028739</ele>
        <time>2021-08-16T02:58:09.179Z</time>
      </trkpt>
      <trkpt lat="42.67533" lon="42.76723">
        <ele>540.436209</ele>
        <time>2021-08-16T02:58:35.010Z</time>
      </trkpt>
      <trkpt lat="42.6749" lon="42.76738">
        <ele>540.612584</ele>
        <time>2021-08-16T02:58:46.831Z</time>
      </trkpt>
      <trkpt lat="42.67354" lon="42.76728">
        <ele>541.104738</ele>
        <time>2021-08-16T02:59:21.279Z</time>
      </trkpt>
      <trkpt lat="42.67068" lon="42.76809">
        <ele>538.353631</ele>
        <time>2021-08-16T03:00:22.451Z</time>
      </trkpt>
      <trkpt lat="42.67006" lon="42.76814">
        <ele>536.619557</ele>
        <time>2021-08-16T03:00:32.610Z</time>
      </trkpt>
      <trkpt lat="42.66977" lon="42.76837">
        <ele>535.682568</ele>
        <time>2021-08-16T03:00:38.014Z</time>
      </trkpt>
      <trkpt lat="42.66926" lon="42.76865">
        <ele>533.946102</ele>
        <time>2021-08-16T03:00:46.693Z</time>
      </trkpt>
      <trkpt lat="42.66867" lon="42.76848">
        <ele>531.961087</ele>
        <time>2021-08-16T03:00:56.406Z</time>
      </trkpt>
      <trkpt lat="42.66677" lon="42.76764">
        <ele>528.249798</ele>
        <time>2021-08-16T03:01:34.931Z</time>
      </trkpt>
      <trkpt lat="42.66634" lon="42.76758">
        <ele>527.817297</ele>
        <time>2021-08-16T03:01:44.836Z</time>
      </trkpt>
      <trkpt lat="42.66547" lon="42.76806">
        <ele>526.387863</ele>
        <time>2021-08-16T03:02:04.045Z</time>
      </trkpt>
      <trkpt lat="42.66498" lon="42.76826">
        <ele>525.561961</ele>
        <time>2021-08-16T03:02:13.672Z</time>
      </trkpt>
      <trkpt lat="42.66436" lon="42.76846">
        <ele>524.432822</ele>
        <time>2021-08-16T03:02:24.693Z</time>
      </trkpt>
      <trkpt lat="42.66365" lon="42.7686">
        <ele>522.831249</ele>
        <time>2021-08-16T03:02:36.842Z</time>
      </trkpt>
      <trkpt lat="42.66316" lon="42.76858">
        <ele>521.72185</ele>
        <time>2021-08-16T03:02:45.274Z</time>
      </trkpt>
      <trkpt lat="42.66166" lon="42.76793">
        <ele>522.111125</ele>
        <time>2021-08-16T03:03:20.363Z</time>
      </trkpt>
      <trkpt lat="42.66133" lon="42.76786">
        <ele>522.478971</ele>
        <time>2021-08-16T03:03:31.864Z</time>
      </trkpt>
      <trkpt lat="42.66108" lon="42.76791">
        <ele>522.77218</ele>
        <time>2021-08-16T03:03:41.959Z</time>
      </trkpt>
      <trkpt lat="42.66041" lon="42.76825">
        <ele>526.12602</ele>
        <time>2021-08-16T03:04:12.772Z</time>
      </trkpt>
      <trkpt lat="42.65968" lon="42.76828">
        <ele>529.774132</ele>
        <time>2021-08-16T03:04:50.626Z</time>
      </trkpt>
      <trkpt lat="42.659" lon="42.76886">
        <ele>534.178445</ele>
        <time>2021-08-16T03:05:30.144Z</time>
      </trkpt>
      <trkpt lat="42.65829" lon="42.76901">
        <ele>538.474219</ele>
        <time>2021-08-16T03:06:07.741Z</time>
      </trkpt>
      <trkpt lat="42.65796" lon="42.76919">
        <ele>540.630426</ele>
        <time>2021-08-16T03:06:28.004Z</time>
      </trkpt>
      <trkpt lat="42.65777" lon="42.76951">
        <ele>542.435097</ele>
        <time>2021-08-16T03:06:44.194Z</time>
      </trkpt>
      <trkpt lat="42.65768" lon="42.76983">
        <ele>542.880256</ele>
        <time>2021-08-16T03:06:57.418Z</time>
      </trkpt>
      <trkpt lat="42.65771" lon="42.76993">
        <ele>542.988951</ele>
        <time>2021-08-16T03:07:01.233Z</time>
      </trkpt>
      <trkpt lat="42.6575" lon="42.77038">
        <ele>543.519715</ele>
        <time>2021-08-16T03:07:20.495Z</time>
      </trkpt>
      <trkpt lat="42.65753" lon="42.77053">
        <ele>543.670949</ele>
        <time>2021-08-16T03:07:26.088Z</time>
      </trkpt>
      <trkpt lat="42.65757" lon="42.7706">
        <ele>543.761831</ele>
        <time>2021-08-16T03:07:29.190Z</time>
      </trkpt>
      <trkpt lat="42.65732" lon="42.77087">
        <ele>544.190603</ele>
        <time>2021-08-16T03:07:38.086Z</time>
      </trkpt>
      <trkpt lat="42.65684" lon="42.77115">
        <ele>544.893875</ele>
        <time>2021-08-16T03:07:47.172Z</time>
      </trkpt>
      <trkpt lat="42.65642" lon="42.77167">
        <ele>539.960852</ele>
        <time>2021-08-16T03:07:55.723Z</time>
      </trkpt>
      <trkpt lat="42.65637" lon="42.77181">
        <ele>538.728702</ele>
        <time>2021-08-16T03:07:57.472Z</time>
      </trkpt>
      <trkpt lat="42.65607" lon="42.77231">
        <ele>533.733066</ele>
        <time>2021-08-16T03:08:04.062Z</time>
      </trkpt>
      <trkpt lat="42.65589" lon="42.77259">
        <ele>530.854372</ele>
        <time>2021-08-16T03:08:07.804Z</time>
      </trkpt>
      <trkpt lat="42.65591" lon="42.77292">
        <ele>528.305688</ele>
        <time>2021-08-16T03:08:11.087Z</time>
      </trkpt>
      <trkpt lat="42.65581" lon="42.7732">
        <ele>525.926054</ele>
        <time>2021-08-16T03:08:14.132Z</time>
      </trkpt>
      <trkpt lat="42.65553" lon="42.77364">
        <ele>521.764393</ele>
        <time>2021-08-16T03:08:19.939Z</time>
      </trkpt>
      <trkpt lat="42.65539" lon="42.77376">
        <ele>520.115326</ele>
        <time>2021-08-16T03:08:22.241Z</time>
      </trkpt>
      <trkpt lat="42.65511" lon="42.7738">
        <ele>517.413348</ele>
        <time>2021-08-16T03:08:26.182Z</time>
      </trkpt>
      <trkpt lat="42.65495" lon="42.77379">
        <ele>515.848201</ele>
        <time>2021-08-16T03:08:28.455Z</time>
      </trkpt>
      <trkpt lat="42.65487" lon="42.77376">
        <ele>515.075677</ele>
        <time>2021-08-16T03:08:29.682Z</time>
      </trkpt>
      <trkpt lat="42.65472" lon="42.77366">
        <ele>513.440837</ele>
        <time>2021-08-16T03:08:32.172Z</time>
      </trkpt>
      <trkpt lat="42.65428" lon="42.77293">
        <ele>508.177548</ele>
        <time>2021-08-16T03:08:42.960Z</time>
      </trkpt>
      <trkpt lat="42.65397" lon="42.77247">
        <ele>507.184929</ele>
        <time>2021-08-16T03:08:50.770Z</time>
      </trkpt>
      <trkpt lat="42.65397" lon="42.77246">
        <ele>507.163127</ele>
        <time>2021-08-16T03:08:50.932Z</time>
      </trkpt>
      <trkpt lat="42.65386" lon="42.77234">
        <ele>506.873604</ele>
        <time>2021-08-16T03:08:53.708Z</time>
      </trkpt>
      <trkpt lat="42.65383" lon="42.77231">
        <ele>506.77948</ele>
        <time>2021-08-16T03:08:54.617Z</time>
      </trkpt>
      <trkpt lat="42.65378" lon="42.77228">
        <ele>506.664685</ele>
        <time>2021-08-16T03:08:55.643Z</time>
      </trkpt>
      <trkpt lat="42.65296" lon="42.77204">
        <ele>504.86031</ele>
        <time>2021-08-16T03:09:13.247Z</time>
      </trkpt>
      <trkpt lat="42.65269" lon="42.77198">
        <ele>504.499081</ele>
        <time>2021-08-16T03:09:18.637Z</time>
      </trkpt>
      <trkpt lat="42.65262" lon="42.77197">
        <ele>504.429574</ele>
        <time>2021-08-16T03:09:19.984Z</time>
      </trkpt>
      <trkpt lat="42.65251" lon="42.77196">
        <ele>504.313926</ele>
        <time>2021-08-16T03:09:22.106Z</time>
      </trkpt>
      <trkpt lat="42.65174" lon="42.77175">
        <ele>503.466616</ele>
        <time>2021-08-16T03:09:37.813Z</time>
      </trkpt>
      <trkpt lat="42.65153" lon="42.77167">
        <ele>503.225947</ele>
        <time>2021-08-16T03:09:42.278Z</time>
      </trkpt>
      <trkpt lat="42.65142" lon="42.77162">
        <ele>503.103391</ele>
        <time>2021-08-16T03:09:44.472Z</time>
      </trkpt>
      <trkpt lat="42.65071" lon="42.77121">
        <ele>501.879973</ele>
        <time>2021-08-16T03:09:59.118Z</time>
      </trkpt>
      <trkpt lat="42.65048" lon="42.77106">
        <ele>501.398722</ele>
        <time>2021-08-16T03:10:03.798Z</time>
      </trkpt>
      <trkpt lat="42.65034" lon="42.77098">
        <ele>501.114203</ele>
        <time>2021-08-16T03:10:06.481Z</time>
      </trkpt>
      <trkpt lat="42.65002" lon="42.77081">
        <ele>500.473202</ele>
        <time>2021-08-16T03:10:12.619Z</time>
      </trkpt>
      <trkpt lat="42.64985" lon="42.77072">
        <ele>500.128551</ele>
        <time>2021-08-16T03:10:15.907Z</time>
      </trkpt>
      <trkpt lat="42.64914" lon="42.77036">
        <ele>498.909926</ele>
        <time>2021-08-16T03:10:29.862Z</time>
      </trkpt>
      <trkpt lat="42.64901" lon="42.77023">
        <ele>498.691264</ele>
        <time>2021-08-16T03:10:32.887Z</time>
      </trkpt>
      <trkpt lat="42.64878" lon="42.76995">
        <ele>498.290439</ele>
        <time>2021-08-16T03:10:38.662Z</time>
      </trkpt>
      <trkpt lat="42.64852" lon="42.76961">
        <ele>497.814167</ele>
        <time>2021-08-16T03:10:45.603Z</time>
      </trkpt>
      <trkpt lat="42.64838" lon="42.76942">
        <ele>497.544157</ele>
        <time>2021-08-16T03:10:49.859Z</time>
      </trkpt>
      <trkpt lat="42.64809" lon="42.76902">
        <ele>497.013652</ele>
        <time>2021-08-16T03:10:58.257Z</time>
      </trkpt>
      <trkpt lat="42.64676" lon="42.76752">
        <ele>495.86624</ele>
        <time>2021-08-16T03:11:34.541Z</time>
      </trkpt>
      <trkpt lat="42.64666" lon="42.76742">
        <ele>495.720317</ele>
        <time>2021-08-16T03:11:36.924Z</time>
      </trkpt>
      <trkpt lat="42.64654" lon="42.7673">
        <ele>495.476647</ele>
        <time>2021-08-16T03:11:39.808Z</time>
      </trkpt>
      <trkpt lat="42.64636" lon="42.76712">
        <ele>495.106346</ele>
        <time>2021-08-16T03:11:44.004Z</time>
      </trkpt>
      <trkpt lat="42.6461" lon="42.76687">
        <ele>494.588988</ele>
        <time>2021-08-16T03:11:49.852Z</time>
      </trkpt>
      <trkpt lat="42.64546" lon="42.76587">
        <ele>492.986612</ele>
        <time>2021-08-16T03:12:07.920Z</time>
      </trkpt>
      <trkpt lat="42.64533" lon="42.76565">
        <ele>492.68213</ele>
        <time>2021-08-16T03:12:11.770Z</time>
      </trkpt>
      <trkpt lat="42.64492" lon="42.76495">
        <ele>491.811078</ele>
        <time>2021-08-16T03:12:24.185Z</time>
      </trkpt>
      <trkpt lat="42.64481" lon="42.76475">
        <ele>491.557021</ele>
        <time>2021-08-16T03:12:27.955Z</time>
      </trkpt>
      <trkpt lat="42.64461" lon="42.76454">
        <ele>491.221227</ele>
        <time>2021-08-16T03:12:32.804Z</time>
      </trkpt>
      <trkpt lat="42.64412" lon="42.76431">
        <ele>490.534929</ele>
        <time>2021-08-16T03:12:43.092Z</time>
      </trkpt>
      <trkpt lat="42.64374" lon="42.76412">
        <ele>490.134298</ele>
        <time>2021-08-16T03:12:51.303Z</time>
      </trkpt>
      <trkpt lat="42.64317" lon="42.76387">
        <ele>489.564898</ele>
        <time>2021-08-16T03:13:03.294Z</time>
      </trkpt>
      <trkpt lat="42.64305" lon="42.76381">
        <ele>489.440256</ele>
        <time>2021-08-16T03:13:05.906Z</time>
      </trkpt>
      <trkpt lat="42.64248" lon="42.76342">
        <ele>488.830006</ele>
        <time>2021-08-16T03:13:18.535Z</time>
      </trkpt>
      <trkpt lat="42.64221" lon="42.76321">
        <ele>488.541931</ele>
        <time>2021-08-16T03:13:24.788Z</time>
      </trkpt>
      <trkpt lat="42.6414" lon="42.76242">
        <ele>487.642233</ele>
        <time>2021-08-16T03:13:44.701Z</time>
      </trkpt>
      <trkpt lat="42.64124" lon="42.76222">
        <ele>487.44794</ele>
        <time>2021-08-16T03:13:49.051Z</time>
      </trkpt>
      <trkpt lat="42.6408" lon="42.76168">
        <ele>486.940466</ele>
        <time>2021-08-16T03:14:01.225Z</time>
      </trkpt>
      <trkpt lat="42.64007" lon="42.76082">
        <ele>486.197708</ele>
        <time>2021-08-16T03:14:20.262Z</time>
      </trkpt>
      <trkpt lat="42.63986" lon="42.76063">
        <ele>486.00558</ele>
        <time>2021-08-16T03:14:25.205Z</time>
      </trkpt>
      <trkpt lat="42.63881" lon="42.75964">
        <ele>485.575474</ele>
        <time>2021-08-16T03:14:53.483Z</time>
      </trkpt>
      <trkpt lat="42.63875" lon="42.7596">
        <ele>485.56372</ele>
        <time>2021-08-16T03:14:54.853Z</time>
      </trkpt>
      <trkpt lat="42.63841" lon="42.75933">
        <ele>485.492473</ele>
        <time>2021-08-16T03:15:03.295Z</time>
      </trkpt>
      <trkpt lat="42.63768" lon="42.75871">
        <ele>485.019176</ele>
        <time>2021-08-16T03:15:22.052Z</time>
      </trkpt>
      <trkpt lat="42.6373" lon="42.75845">
        <ele>484.652522</ele>
        <time>2021-08-16T03:15:31.278Z</time>
      </trkpt>
      <trkpt lat="42.63727" lon="42.75843">
        <ele>484.621575</ele>
        <time>2021-08-16T03:15:31.876Z</time>
      </trkpt>
      <trkpt lat="42.63631" lon="42.75798">
        <ele>483.672134</ele>
        <time>2021-08-16T03:15:51.345Z</time>
      </trkpt>
      <trkpt lat="42.63538" lon="42.75745">
        <ele>482.224781</ele>
        <time>2021-08-16T03:16:10.004Z</time>
      </trkpt>
      <trkpt lat="42.63491" lon="42.75716">
        <ele>481.490013</ele>
        <time>2021-08-16T03:16:20.167Z</time>
      </trkpt>
      <trkpt lat="42.63447" lon="42.75682">
        <ele>481.407476</ele>
        <time>2021-08-16T03:16:30.828Z</time>
      </trkpt>
      <trkpt lat="42.63425" lon="42.75651">
        <ele>481.490487</ele>
        <time>2021-08-16T03:16:37.696Z</time>
      </trkpt>
      <trkpt lat="42.63407" lon="42.75609">
        <ele>481.584817</ele>
        <time>2021-08-16T03:16:46.253Z</time>
      </trkpt>
      <trkpt lat="42.63387" lon="42.75475">
        <ele>481.834172</ele>
        <time>2021-08-16T03:17:13.971Z</time>
      </trkpt>
      <trkpt lat="42.63363" lon="42.75356">
        <ele>482.00649</ele>
        <time>2021-08-16T03:17:36.273Z</time>
      </trkpt>
      <trkpt lat="42.63343" lon="42.75321">
        <ele>482.069165</ele>
        <time>2021-08-16T03:17:43.517Z</time>
      </trkpt>
      <trkpt lat="42.63223" lon="42.75162">
        <ele>480.850158</ele>
        <time>2021-08-16T03:18:17.144Z</time>
      </trkpt>
      <trkpt lat="42.63153" lon="42.75054">
        <ele>479.630562</ele>
        <time>2021-08-16T03:18:37.762Z</time>
      </trkpt>
      <trkpt lat="42.63082" lon="42.7493">
        <ele>478.125606</ele>
        <time>2021-08-16T03:19:00.131Z</time>
      </trkpt>
      <trkpt lat="42.63053" lon="42.74888">
        <ele>477.516788</ele>
        <time>2021-08-16T03:19:08.302Z</time>
      </trkpt>
      <trkpt lat="42.62874" lon="42.74605">
        <ele>473.547423</ele>
        <time>2021-08-16T03:20:00.548Z</time>
      </trkpt>
      <trkpt lat="42.62814" lon="42.74492">
        <ele>472.167404</ele>
        <time>2021-08-16T03:20:20.506Z</time>
      </trkpt>
      <trkpt lat="42.62804" lon="42.74474">
        <ele>471.965453</ele>
        <time>2021-08-16T03:20:23.626Z</time>
      </trkpt>
      <trkpt lat="42.62742" lon="42.74351">
        <ele>470.612766</ele>
        <time>2021-08-16T03:20:45.239Z</time>
      </trkpt>
      <trkpt lat="42.62606" lon="42.74113">
        <ele>468.275982</ele>
        <time>2021-08-16T03:21:29.269Z</time>
      </trkpt>
      <trkpt lat="42.62562" lon="42.74048">
        <ele>467.570884</ele>
        <time>2021-08-16T03:21:41.995Z</time>
      </trkpt>
      <trkpt lat="42.62471" lon="42.73947">
        <ele>466.756985</ele>
        <time>2021-08-16T03:22:04.952Z</time>
      </trkpt>
      <trkpt lat="42.62429" lon="42.73892">
        <ele>466.66942</ele>
        <time>2021-08-16T03:22:17.519Z</time>
      </trkpt>
      <trkpt lat="42.62397" lon="42.73842">
        <ele>466.596517</ele>
        <time>2021-08-16T03:22:28.817Z</time>
      </trkpt>
      <trkpt lat="42.62377" lon="42.73809">
        <ele>466.6648</ele>
        <time>2021-08-16T03:22:37.234Z</time>
      </trkpt>
      <trkpt lat="42.62345" lon="42.73753">
        <ele>467.403284</ele>
        <time>2021-08-16T03:22:52.839Z</time>
      </trkpt>
      <trkpt lat="42.62319" lon="42.73687">
        <ele>468.176672</ele>
        <time>2021-08-16T03:23:09.830Z</time>
      </trkpt>
      <trkpt lat="42.62296" lon="42.73611">
        <ele>469.028839</ele>
        <time>2021-08-16T03:23:28.743Z</time>
      </trkpt>
      <trkpt lat="42.6228" lon="42.73573">
        <ele>468.826608</ele>
        <time>2021-08-16T03:23:37.393Z</time>
      </trkpt>
      <trkpt lat="42.62268" lon="42.73551">
        <ele>468.631498</ele>
        <time>2021-08-16T03:23:42.397Z</time>
      </trkpt>
      <trkpt lat="42.62234" lon="42.73516">
        <ele>468.223233</ele>
        <time>2021-08-16T03:23:51.996Z</time>
      </trkpt>
      <trkpt lat="42.6221" lon="42.73505">
        <ele>467.976269</ele>
        <time>2021-08-16T03:23:57.112Z</time>
      </trkpt>
      <trkpt lat="42.62178" lon="42.735">
        <ele>467.666909</ele>
        <time>2021-08-16T03:24:02.870Z</time>
      </trkpt>
      <trkpt lat="42.62089" lon="42.73489">
        <ele>465.202044</ele>
        <time>2021-08-16T03:24:17.868Z</time>
      </trkpt>
      <trkpt lat="42.62062" lon="42.73483">
        <ele>464.166884</ele>
        <time>2021-08-16T03:24:22.370Z</time>
      </trkpt>
      <trkpt lat="42.62034" lon="42.73471">
        <ele>463.077214</ele>
        <time>2021-08-16T03:24:27.057Z</time>
      </trkpt>
      <trkpt lat="42.61699" lon="42.73294">
        <ele>450.761695</ele>
        <time>2021-08-16T03:25:27.149Z</time>
      </trkpt>
      <trkpt lat="42.61653" lon="42.73249">
        <ele>449.124562</ele>
        <time>2021-08-16T03:25:37.540Z</time>
      </trkpt>
      <trkpt lat="42.61549" lon="42.73079">
        <ele>447.062083</ele>
        <time>2021-08-16T03:26:09.551Z</time>
      </trkpt>
      <trkpt lat="42.6149" lon="42.73001">
        <ele>446.28587</ele>
        <time>2021-08-16T03:26:26.298Z</time>
      </trkpt>
      <trkpt lat="42.61117" lon="42.72547">
        <ele>442.254272</ele>
        <time>2021-08-16T03:28:07.479Z</time>
      </trkpt>
      <trkpt lat="42.60868" lon="42.72258">
        <ele>441.052326</ele>
        <time>2021-08-16T03:29:17.388Z</time>
      </trkpt>
      <trkpt lat="42.60779" lon="42.72137">
        <ele>440.448903</ele>
        <time>2021-08-16T03:29:44.044Z</time>
      </trkpt>
      <trkpt lat="42.60672" lon="42.72011">
        <ele>439.474964</ele>
        <time>2021-08-16T03:30:13.438Z</time>
      </trkpt>
      <trkpt lat="42.60511" lon="42.718">
        <ele>437.098894</ele>
        <time>2021-08-16T03:30:57.479Z</time>
      </trkpt>
      <trkpt lat="42.60433" lon="42.71712">
        <ele>435.834347</ele>
        <time>2021-08-16T03:31:16.888Z</time>
      </trkpt>
      <trkpt lat="42.60413" lon="42.7169">
        <ele>435.519664</ele>
        <time>2021-08-16T03:31:21.785Z</time>
      </trkpt>
      <trkpt lat="42.60178" lon="42.71505">
        <ele>432.696662</ele>
        <time>2021-08-16T03:32:15.582Z</time>
      </trkpt>
      <trkpt lat="42.60093" lon="42.71433">
        <ele>432.210282</ele>
        <time>2021-08-16T03:32:36.680Z</time>
      </trkpt>
      <trkpt lat="42.60061" lon="42.71406">
        <ele>432.077206</ele>
        <time>2021-08-16T03:32:44.732Z</time>
      </trkpt>
      <trkpt lat="42.59971" lon="42.71315">
        <ele>431.76832</ele>
        <time>2021-08-16T03:33:09.117Z</time>
      </trkpt>
      <trkpt lat="42.5988" lon="42.71214">
        <ele>431.574953</ele>
        <time>2021-08-16T03:33:34.842Z</time>
      </trkpt>
      <trkpt lat="42.59816" lon="42.71148">
        <ele>431.423027</ele>
        <time>2021-08-16T03:33:52.289Z</time>
      </trkpt>
      <trkpt lat="42.59781" lon="42.71112">
        <ele>431.33809</ele>
        <time>2021-08-16T03:34:01.696Z</time>
      </trkpt>
      <trkpt lat="42.59679" lon="42.70998">
        <ele>431.238218</ele>
        <time>2021-08-16T03:34:30.342Z</time>
      </trkpt>
      <trkpt lat="42.59257" lon="42.70555">
        <ele>431.400532</ele>
        <time>2021-08-16T03:36:31.811Z</time>
      </trkpt>
      <trkpt lat="42.59246" lon="42.70541">
        <ele>431.335968</ele>
        <time>2021-08-16T03:36:35.463Z</time>
      </trkpt>
      <trkpt lat="42.5923" lon="42.70517">
        <ele>431.235953</ele>
        <time>2021-08-16T03:36:40.312Z</time>
      </trkpt>
      <trkpt lat="42.59201" lon="42.70463">
        <ele>431.02576</ele>
        <time>2021-08-16T03:36:50.773Z</time>
      </trkpt>
      <trkpt lat="42.59147" lon="42.70317">
        <ele>429.617606</ele>
        <time>2021-08-16T03:37:14.366Z</time>
      </trkpt>
      <trkpt lat="42.5911" lon="42.70244">
        <ele>428.641441</ele>
        <time>2021-08-16T03:37:26.413Z</time>
      </trkpt>
      <trkpt lat="42.59051" lon="42.7015">
        <ele>427.509989</ele>
        <time>2021-08-16T03:37:43.427Z</time>
      </trkpt>
      <trkpt lat="42.59035" lon="42.7013">
        <ele>427.271061</ele>
        <time>2021-08-16T03:37:47.765Z</time>
      </trkpt>
      <trkpt lat="42.58996" lon="42.70103">
        <ele>426.794234</ele>
        <time>2021-08-16T03:37:56.468Z</time>
      </trkpt>
      <trkpt lat="42.58941" lon="42.70093">
        <ele>426.191569</ele>
        <time>2021-08-16T03:38:08.024Z</time>
      </trkpt>
      <trkpt lat="42.58915" lon="42.70087">
        <ele>426.136817</ele>
        <time>2021-08-16T03:38:13.417Z</time>
      </trkpt>
      <trkpt lat="42.589" lon="42.70078">
        <ele>426.101948</ele>
        <time>2021-08-16T03:38:17.251Z</time>
      </trkpt>
      <trkpt lat="42.5886" lon="42.70038">
        <ele>425.996403</ele>
        <time>2021-08-16T03:38:28.182Z</time>
      </trkpt>
      <trkpt lat="42.58804" lon="42.69951">
        <ele>425.816589</ele>
        <time>2021-08-16T03:38:47.052Z</time>
      </trkpt>
      <trkpt lat="42.58761" lon="42.69853">
        <ele>425.562024</ele>
        <time>2021-08-16T03:39:04.658Z</time>
      </trkpt>
      <trkpt lat="42.58744" lon="42.69789">
        <ele>425.407823</ele>
        <time>2021-08-16T03:39:14.966Z</time>
      </trkpt>
      <trkpt lat="42.58724" lon="42.69738">
        <ele>425.278337</ele>
        <time>2021-08-16T03:39:24.017Z</time>
      </trkpt>
      <trkpt lat="42.58701" lon="42.69706">
        <ele>425.716121</ele>
        <time>2021-08-16T03:39:31.423Z</time>
      </trkpt>
      <trkpt lat="42.58642" lon="42.69658">
        <ele>426.8944</ele>
        <time>2021-08-16T03:39:49.778Z</time>
      </trkpt>
      <trkpt lat="42.5862" lon="42.69631">
        <ele>427.396412</ele>
        <time>2021-08-16T03:39:59.386Z</time>
      </trkpt>
      <trkpt lat="42.5861" lon="42.69597">
        <ele>427.853366</ele>
        <time>2021-08-16T03:40:08.893Z</time>
      </trkpt>
      <trkpt lat="42.58604" lon="42.69557">
        <ele>428.511105</ele>
        <time>2021-08-16T03:40:20.975Z</time>
      </trkpt>
      <trkpt lat="42.58597" lon="42.69498">
        <ele>431.124141</ele>
        <time>2021-08-16T03:40:40.421Z</time>
      </trkpt>
      <trkpt lat="42.58595" lon="42.69415">
        <ele>434.795629</ele>
        <time>2021-08-16T03:41:11.979Z</time>
      </trkpt>
      <trkpt lat="42.58588" lon="42.69385">
        <ele>436.163068</ele>
        <time>2021-08-16T03:41:24.979Z</time>
      </trkpt>
      <trkpt lat="42.58533" lon="42.6928">
        <ele>442.134966</ele>
        <time>2021-08-16T03:42:24.508Z</time>
      </trkpt>
      <trkpt lat="42.58444" lon="42.69183">
        <ele>449.707657</ele>
        <time>2021-08-16T03:43:31.669Z</time>
      </trkpt>
      <trkpt lat="42.58383" lon="42.69091">
        <ele>450.292525</ele>
        <time>2021-08-16T03:44:05.020Z</time>
      </trkpt>
      <trkpt lat="42.58365" lon="42.69037">
        <ele>449.861039</ele>
        <time>2021-08-16T03:44:12.987Z</time>
      </trkpt>
      <trkpt lat="42.58348" lon="42.6894">
        <ele>448.605664</ele>
        <time>2021-08-16T03:44:24.710Z</time>
      </trkpt>
      <trkpt lat="42.58337" lon="42.68916">
        <ele>447.146129</ele>
        <time>2021-08-16T03:44:27.859Z</time>
      </trkpt>
      <trkpt lat="42.583" lon="42.68891">
        <ele>444.233489</ele>
        <time>2021-08-16T03:44:34.062Z</time>
      </trkpt>
      <trkpt lat="42.58232" lon="42.68865">
        <ele>439.298637</ele>
        <time>2021-08-16T03:44:44.397Z</time>
      </trkpt>
      <trkpt lat="42.58097" lon="42.68845">
        <ele>430.764993</ele>
        <time>2021-08-16T03:45:04.722Z</time>
      </trkpt>
      <trkpt lat="42.58046" lon="42.68808">
        <ele>427.244651</ele>
        <time>2021-08-16T03:45:14.041Z</time>
      </trkpt>
      <trkpt lat="42.58039" lon="42.68801">
        <ele>426.712085</ele>
        <time>2021-08-16T03:45:15.309Z</time>
      </trkpt>
      <trkpt lat="42.5798" lon="42.68747">
        <ele>424.326448</ele>
        <time>2021-08-16T03:45:26.959Z</time>
      </trkpt>
      <trkpt lat="42.57974" lon="42.68741">
        <ele>424.140864</ele>
        <time>2021-08-16T03:45:28.207Z</time>
      </trkpt>
      <trkpt lat="42.57949" lon="42.68724">
        <ele>423.394767</ele>
        <time>2021-08-16T03:45:33.058Z</time>
      </trkpt>
      <trkpt lat="42.57885" lon="42.68666">
        <ele>421.376233</ele>
        <time>2021-08-16T03:45:47.642Z</time>
      </trkpt>
      <trkpt lat="42.57852" lon="42.68629">
        <ele>421.06563</ele>
        <time>2021-08-16T03:45:56.666Z</time>
      </trkpt>
      <trkpt lat="42.5784" lon="42.68611">
        <ele>421.067431</ele>
        <time>2021-08-16T03:46:00.430Z</time>
      </trkpt>
      <trkpt lat="42.57832" lon="42.68588">
        <ele>421.069334</ele>
        <time>2021-08-16T03:46:04.545Z</time>
      </trkpt>
      <trkpt lat="42.57832" lon="42.68526">
        <ele>421.073932</ele>
        <time>2021-08-16T03:46:15.365Z</time>
      </trkpt>
      <trkpt lat="42.57837" lon="42.68495">
        <ele>421.076328</ele>
        <time>2021-08-16T03:46:21.197Z</time>
      </trkpt>
      <trkpt lat="42.57843" lon="42.68471">
        <ele>421.078228</ele>
        <time>2021-08-16T03:46:25.854Z</time>
      </trkpt>
      <trkpt lat="42.5788" lon="42.68385">
        <ele>421.127472</ele>
        <time>2021-08-16T03:46:43.637Z</time>
      </trkpt>
      <trkpt lat="42.5789" lon="42.6831">
        <ele>421.181049</ele>
        <time>2021-08-16T03:46:56.933Z</time>
      </trkpt>
      <trkpt lat="42.57875" lon="42.682">
        <ele>421.194651</ele>
        <time>2021-08-16T03:47:14.862Z</time>
      </trkpt>
      <trkpt lat="42.57859" lon="42.68162">
        <ele>420.925709</ele>
        <time>2021-08-16T03:47:21.836Z</time>
      </trkpt>
      <trkpt lat="42.57814" lon="42.68124">
        <ele>420.488656</ele>
        <time>2021-08-16T03:47:32.842Z</time>
      </trkpt>
      <trkpt lat="42.57716" lon="42.68087">
        <ele>419.472976</ele>
        <time>2021-08-16T03:47:52.787Z</time>
      </trkpt>
      <trkpt lat="42.57673" lon="42.6808">
        <ele>418.540227</ele>
        <time>2021-08-16T03:48:00.714Z</time>
      </trkpt>
      <trkpt lat="42.57624" lon="42.68086">
        <ele>417.508252</ele>
        <time>2021-08-16T03:48:09.585Z</time>
      </trkpt>
      <trkpt lat="42.57595" lon="42.68097">
        <ele>416.87672</ele>
        <time>2021-08-16T03:48:14.890Z</time>
      </trkpt>
      <trkpt lat="42.57549" lon="42.6811">
        <ele>415.864366</ele>
        <time>2021-08-16T03:48:23.380Z</time>
      </trkpt>
      <trkpt lat="42.5754" lon="42.68115">
        <ele>415.639034</ele>
        <time>2021-08-16T03:48:24.925Z</time>
      </trkpt>
      <trkpt lat="42.57508" lon="42.68136">
        <ele>414.783486</ele>
        <time>2021-08-16T03:48:31.240Z</time>
      </trkpt>
      <trkpt lat="42.57493" lon="42.68142">
        <ele>414.393658</ele>
        <time>2021-08-16T03:48:34.206Z</time>
      </trkpt>
      <trkpt lat="42.57387" lon="42.68152">
        <ele>411.821314</ele>
        <time>2021-08-16T03:48:53.320Z</time>
      </trkpt>
      <trkpt lat="42.57297" lon="42.68218">
        <ele>408.441108</ele>
        <time>2021-08-16T03:49:11.159Z</time>
      </trkpt>
      <trkpt lat="42.57117" lon="42.68312">
        <ele>401.086294</ele>
        <time>2021-08-16T03:49:42.691Z</time>
      </trkpt>
      <trkpt lat="42.56902" lon="42.68359">
        <ele>393.711607</ele>
        <time>2021-08-16T03:50:18.704Z</time>
      </trkpt>
      <trkpt lat="42.56834" lon="42.68367">
        <ele>393.17896</ele>
        <time>2021-08-16T03:50:32.378Z</time>
      </trkpt>
      <trkpt lat="42.56757" lon="42.68383">
        <ele>394.457958</ele>
        <time>2021-08-16T03:50:55.173Z</time>
      </trkpt>
      <trkpt lat="42.56716" lon="42.68389">
        <ele>395.132922</ele>
        <time>2021-08-16T03:51:10.448Z</time>
      </trkpt>
      <trkpt lat="42.56635" lon="42.68405">
        <ele>397.751379</ele>
        <time>2021-08-16T03:51:46.314Z</time>
      </trkpt>
      <trkpt lat="42.56327" lon="42.6844">
        <ele>409.430711</ele>
        <time>2021-08-16T03:53:56.845Z</time>
      </trkpt>
      <trkpt lat="42.56213" lon="42.68446">
        <ele>409.989425</ele>
        <time>2021-08-16T03:54:29.554Z</time>
      </trkpt>
      <trkpt lat="42.56129" lon="42.68451">
        <ele>409.382435</ele>
        <time>2021-08-16T03:54:45.480Z</time>
      </trkpt>
      <trkpt lat="42.56099" lon="42.6846">
        <ele>408.03609</ele>
        <time>2021-08-16T03:54:50.857Z</time>
      </trkpt>
      <trkpt lat="42.55964" lon="42.68545">
        <ele>401.557091</ele>
        <time>2021-08-16T03:55:14.167Z</time>
      </trkpt>
      <trkpt lat="42.55866" lon="42.68545">
        <ele>396.940125</ele>
        <time>2021-08-16T03:55:29.566Z</time>
      </trkpt>
      <trkpt lat="42.55809" lon="42.68574">
        <ele>394.090524</ele>
        <time>2021-08-16T03:55:39.560Z</time>
      </trkpt>
      <trkpt lat="42.55792" lon="42.68577">
        <ele>393.870769</ele>
        <time>2021-08-16T03:55:42.508Z</time>
      </trkpt>
      <trkpt lat="42.5577" lon="42.68574">
        <ele>393.598347</ele>
        <time>2021-08-16T03:55:46.232Z</time>
      </trkpt>
      <trkpt lat="42.55698" lon="42.6853">
        <ele>392.592343</ele>
        <time>2021-08-16T03:56:01.637Z</time>
      </trkpt>
      <trkpt lat="42.55633" lon="42.685">
        <ele>391.885779</ele>
        <time>2021-08-16T03:56:17.761Z</time>
      </trkpt>
      <trkpt lat="42.5548" lon="42.68494">
        <ele>393.210488</ele>
        <time>2021-08-16T03:56:58.307Z</time>
      </trkpt>
      <trkpt lat="42.55449" lon="42.68477">
        <ele>393.682407</ele>
        <time>2021-08-16T03:57:07.998Z</time>
      </trkpt>
      <trkpt lat="42.55415" lon="42.68434">
        <ele>394.732141</ele>
        <time>2021-08-16T03:57:22.331Z</time>
      </trkpt>
      <trkpt lat="42.55381" lon="42.68333">
        <ele>396.560898</ele>
        <time>2021-08-16T03:57:50.006Z</time>
      </trkpt>
      <trkpt lat="42.5535" lon="42.68272">
        <ele>397.932421</ele>
        <time>2021-08-16T03:58:10.555Z</time>
      </trkpt>
      <trkpt lat="42.55341" lon="42.68243">
        <ele>398.645017</ele>
        <time>2021-08-16T03:58:19.661Z</time>
      </trkpt>
      <trkpt lat="42.55322" lon="42.68118">
        <ele>401.578754</ele>
        <time>2021-08-16T03:58:58.461Z</time>
      </trkpt>
      <trkpt lat="42.55321" lon="42.67999">
        <ele>402.905191</ele>
        <time>2021-08-16T03:59:28.390Z</time>
      </trkpt>
      <trkpt lat="42.55312" lon="42.67945">
        <ele>402.818175</ele>
        <time>2021-08-16T03:59:38.244Z</time>
      </trkpt>
      <trkpt lat="42.55274" lon="42.67889">
        <ele>402.698536</ele>
        <time>2021-08-16T03:59:49.281Z</time>
      </trkpt>
      <trkpt lat="42.55205" lon="42.67828">
        <ele>401.587596</ele>
        <time>2021-08-16T04:00:03.907Z</time>
      </trkpt>
      <trkpt lat="42.55139" lon="42.678">
        <ele>399.887776</ele>
        <time>2021-08-16T04:00:15.620Z</time>
      </trkpt>
      <trkpt lat="42.55111" lon="42.67778">
        <ele>399.071386</ele>
        <time>2021-08-16T04:00:21.469Z</time>
      </trkpt>
      <trkpt lat="42.55099" lon="42.67764">
        <ele>398.68485</ele>
        <time>2021-08-16T04:00:24.336Z</time>
      </trkpt>
      <trkpt lat="42.55088" lon="42.67732">
        <ele>398.083349</ele>
        <time>2021-08-16T04:00:29.226Z</time>
      </trkpt>
      <trkpt lat="42.55083" lon="42.67663">
        <ele>397.349593</ele>
        <time>2021-08-16T04:00:39.044Z</time>
      </trkpt>
      <trkpt lat="42.55086" lon="42.67619">
        <ele>396.874706</ele>
        <time>2021-08-16T04:00:45.483Z</time>
      </trkpt>
      <trkpt lat="42.55093" lon="42.67585">
        <ele>396.500748</ele>
        <time>2021-08-16T04:00:50.597Z</time>
      </trkpt>
      <trkpt lat="42.55126" lon="42.67498">
        <ele>395.404177</ele>
        <time>2021-08-16T04:01:04.630Z</time>
      </trkpt>
      <trkpt lat="42.55135" lon="42.67448">
        <ele>394.548588</ele>
        <time>2021-08-16T04:01:11.743Z</time>
      </trkpt>
      <trkpt lat="42.55082" lon="42.67355">
        <ele>392.572275</ele>
        <time>2021-08-16T04:01:27.067Z</time>
      </trkpt>
      <trkpt lat="42.55071" lon="42.67328">
        <ele>392.057944</ele>
        <time>2021-08-16T04:01:31.025Z</time>
      </trkpt>
      <trkpt lat="42.5506" lon="42.67285">
        <ele>391.378478</ele>
        <time>2021-08-16T04:01:36.913Z</time>
      </trkpt>
      <trkpt lat="42.55055" lon="42.6721">
        <ele>390.720218</ele>
        <time>2021-08-16T04:01:47.057Z</time>
      </trkpt>
      <trkpt lat="42.55049" lon="42.67174">
        <ele>390.392414</ele>
        <time>2021-08-16T04:01:52.331Z</time>
      </trkpt>
      <trkpt lat="42.55032" lon="42.67128">
        <ele>389.942539</ele>
        <time>2021-08-16T04:01:59.870Z</time>
      </trkpt>
      <trkpt lat="42.54986" lon="42.67058">
        <ele>389.411369</ele>
        <time>2021-08-16T04:02:14.853Z</time>
      </trkpt>
      <trkpt lat="42.54978" lon="42.67034">
        <ele>389.515862</ele>
        <time>2021-08-16T04:02:19.732Z</time>
      </trkpt>
      <trkpt lat="42.54967" lon="42.66931">
        <ele>389.922774</ele>
        <time>2021-08-16T04:02:40.287Z</time>
      </trkpt>
      <trkpt lat="42.54977" lon="42.66883">
        <ele>390.120269</ele>
        <time>2021-08-16T04:02:50.337Z</time>
      </trkpt>
      <trkpt lat="42.54995" lon="42.66839">
        <ele>390.197716</ele>
        <time>2021-08-16T04:02:59.886Z</time>
      </trkpt>
      <trkpt lat="42.55059" lon="42.66748">
        <ele>389.079547</ele>
        <time>2021-08-16T04:03:19.501Z</time>
      </trkpt>
      <trkpt lat="42.55078" lon="42.6671">
        <ele>388.671672</ele>
        <time>2021-08-16T04:03:25.855Z</time>
      </trkpt>
      <trkpt lat="42.55085" lon="42.66687">
        <ele>388.450637</ele>
        <time>2021-08-16T04:03:29.186Z</time>
      </trkpt>
      <trkpt lat="42.5509" lon="42.66634">
        <ele>387.73422</ele>
        <time>2021-08-16T04:03:35.997Z</time>
      </trkpt>
      <trkpt lat="42.55088" lon="42.66612">
        <ele>387.18859</ele>
        <time>2021-08-16T04:03:38.742Z</time>
      </trkpt>
      <trkpt lat="42.55068" lon="42.66541">
        <ele>385.293088</ele>
        <time>2021-08-16T04:03:48.028Z</time>
      </trkpt>
      <trkpt lat="42.55036" lon="42.66474">
        <ele>383.32632</ele>
        <time>2021-08-16T04:03:57.655Z</time>
      </trkpt>
      <trkpt lat="42.54965" lon="42.66402">
        <ele>382.159932</ele>
        <time>2021-08-16T04:04:13.375Z</time>
      </trkpt>
      <trkpt lat="42.54907" lon="42.66326">
        <ele>382.314555</ele>
        <time>2021-08-16T04:04:32.480Z</time>
      </trkpt>
      <trkpt lat="42.54839" lon="42.66194">
        <ele>383.958155</ele>
        <time>2021-08-16T04:05:18.323Z</time>
      </trkpt>
      <trkpt lat="42.54799" lon="42.66058">
        <ele>386.320341</ele>
        <time>2021-08-16T04:05:54.524Z</time>
      </trkpt>
      <trkpt lat="42.54785" lon="42.65989">
        <ele>384.94227</ele>
        <time>2021-08-16T04:06:05.426Z</time>
      </trkpt>
      <trkpt lat="42.54783" lon="42.6594">
        <ele>383.946718</ele>
        <time>2021-08-16T04:06:11.955Z</time>
      </trkpt>
      <trkpt lat="42.54794" lon="42.65824">
        <ele>381.606027</ele>
        <time>2021-08-16T04:06:25.853Z</time>
      </trkpt>
      <trkpt lat="42.54778" lon="42.6578">
        <ele>380.178365</ele>
        <time>2021-08-16T04:06:31.485Z</time>
      </trkpt>
      <trkpt lat="42.54753" lon="42.65743">
        <ele>378.585507</ele>
        <time>2021-08-16T04:06:37.415Z</time>
      </trkpt>
      <trkpt lat="42.54719" lon="42.65714">
        <ele>376.902113</ele>
        <time>2021-08-16T04:06:43.771Z</time>
      </trkpt>
      <trkpt lat="42.54601" lon="42.65663">
        <ele>372.806664</ele>
        <time>2021-08-16T04:07:04.874Z</time>
      </trkpt>
      <trkpt lat="42.54559" lon="42.65665">
        <ele>371.965007</ele>
        <time>2021-08-16T04:07:12.709Z</time>
      </trkpt>
      <trkpt lat="42.54493" lon="42.65686">
        <ele>370.6045</ele>
        <time>2021-08-16T04:07:25.823Z</time>
      </trkpt>
      <trkpt lat="42.54428" lon="42.6568">
        <ele>369.525691</ele>
        <time>2021-08-16T04:07:38.487Z</time>
      </trkpt>
      <trkpt lat="42.54409" lon="42.65669">
        <ele>369.218483</ele>
        <time>2021-08-16T04:07:42.362Z</time>
      </trkpt>
      <trkpt lat="42.54347" lon="42.65596">
        <ele>367.980887</ele>
        <time>2021-08-16T04:07:57.847Z</time>
      </trkpt>
      <trkpt lat="42.54341" lon="42.65583">
        <ele>367.809241</ele>
        <time>2021-08-16T04:08:00.003Z</time>
      </trkpt>
      <trkpt lat="42.54326" lon="42.65544">
        <ele>367.43819</ele>
        <time>2021-08-16T04:08:06.113Z</time>
      </trkpt>
      <trkpt lat="42.54297" lon="42.65435">
        <ele>366.918602</ele>
        <time>2021-08-16T04:08:22.433Z</time>
      </trkpt>
      <trkpt lat="42.54278" lon="42.65261">
        <ele>367.208362</ele>
        <time>2021-08-16T04:08:53.561Z</time>
      </trkpt>
      <trkpt lat="42.5428" lon="42.65214">
        <ele>367.769182</ele>
        <time>2021-08-16T04:09:06.154Z</time>
      </trkpt>
      <trkpt lat="42.54242" lon="42.65136">
        <ele>368.885563</ele>
        <time>2021-08-16T04:09:29.950Z</time>
      </trkpt>
      <trkpt lat="42.54233" lon="42.65083">
        <ele>369.205589</ele>
        <time>2021-08-16T04:09:42.141Z</time>
      </trkpt>
      <trkpt lat="42.5423" lon="42.65066">
        <ele>369.066514</ele>
        <time>2021-08-16T04:09:46.486Z</time>
      </trkpt>
      <trkpt lat="42.5422" lon="42.65047">
        <ele>368.880833</ele>
        <time>2021-08-16T04:09:50.484Z</time>
      </trkpt>
      <trkpt lat="42.54172" lon="42.6502">
        <ele>368.328334</ele>
        <time>2021-08-16T04:10:01.937Z</time>
      </trkpt>
      <trkpt lat="42.54143" lon="42.65007">
        <ele>367.995099</ele>
        <time>2021-08-16T04:10:07.779Z</time>
      </trkpt>
      <trkpt lat="42.54086" lon="42.64995">
        <ele>367.320628</ele>
        <time>2021-08-16T04:10:17.526Z</time>
      </trkpt>
      <trkpt lat="42.53987" lon="42.65016">
        <ele>363.387883</ele>
        <time>2021-08-16T04:10:33.603Z</time>
      </trkpt>
      <trkpt lat="42.53928" lon="42.65001">
        <ele>361.050532</ele>
        <time>2021-08-16T04:10:43.527Z</time>
      </trkpt>
      <trkpt lat="42.53779" lon="42.64985">
        <ele>356.666167</ele>
        <time>2021-08-16T04:11:10.128Z</time>
      </trkpt>
      <trkpt lat="42.53729" lon="42.65001">
        <ele>355.169843</ele>
        <time>2021-08-16T04:11:19.161Z</time>
      </trkpt>
      <trkpt lat="42.53672" lon="42.65039">
        <ele>352.46969</ele>
        <time>2021-08-16T04:11:29.715Z</time>
      </trkpt>
      <trkpt lat="42.53587" lon="42.65054">
        <ele>348.849856</ele>
        <time>2021-08-16T04:11:43.379Z</time>
      </trkpt>
      <trkpt lat="42.53545" lon="42.65048">
        <ele>347.271243</ele>
        <time>2021-08-16T04:11:50.047Z</time>
      </trkpt>
      <trkpt lat="42.53489" lon="42.6503">
        <ele>345.557019</ele>
        <time>2021-08-16T04:11:59.383Z</time>
      </trkpt>
      <trkpt lat="42.53468" lon="42.65016">
        <ele>344.854641</ele>
        <time>2021-08-16T04:12:03.293Z</time>
      </trkpt>
      <trkpt lat="42.53449" lon="42.64996">
        <ele>344.139614</ele>
        <time>2021-08-16T04:12:07.419Z</time>
      </trkpt>
      <trkpt lat="42.53381" lon="42.6485">
        <ele>341.798399</ele>
        <time>2021-08-16T04:12:32.673Z</time>
      </trkpt>
      <trkpt lat="42.53313" lon="42.64797">
        <ele>341.163092</ele>
        <time>2021-08-16T04:12:49.215Z</time>
      </trkpt>
      <trkpt lat="42.53285" lon="42.6475">
        <ele>340.696139</ele>
        <time>2021-08-16T04:12:58.381Z</time>
      </trkpt>
      <trkpt lat="42.53247" lon="42.64703">
        <ele>339.797947</ele>
        <time>2021-08-16T04:13:08.392Z</time>
      </trkpt>
      <trkpt lat="42.53189" lon="42.64686">
        <ele>338.765361</ele>
        <time>2021-08-16T04:13:19.223Z</time>
      </trkpt>
      <trkpt lat="42.53127" lon="42.64693">
        <ele>337.690352</ele>
        <time>2021-08-16T04:13:30.207Z</time>
      </trkpt>
      <trkpt lat="42.53017" lon="42.64656">
        <ele>336.339727</ele>
        <time>2021-08-16T04:13:51.643Z</time>
      </trkpt>
      <trkpt lat="42.52973" lon="42.64628">
        <ele>335.757738</ele>
        <time>2021-08-16T04:14:01.800Z</time>
      </trkpt>
      <trkpt lat="42.52931" lon="42.64566">
        <ele>335.790752</ele>
        <time>2021-08-16T04:14:15.927Z</time>
      </trkpt>
      <trkpt lat="42.52879" lon="42.64424">
        <ele>336.275384</ele>
        <time>2021-08-16T04:14:46.274Z</time>
      </trkpt>
      <trkpt lat="42.52803" lon="42.64325">
        <ele>336.936118</ele>
        <time>2021-08-16T04:15:12.359Z</time>
      </trkpt>
      <trkpt lat="42.52763" lon="42.64287">
        <ele>337.252863</ele>
        <time>2021-08-16T04:15:24.321Z</time>
      </trkpt>
      <trkpt lat="42.52743" lon="42.64278">
        <ele>337.392392</ele>
        <time>2021-08-16T04:15:29.807Z</time>
      </trkpt>
      <trkpt lat="42.52713" lon="42.64273">
        <ele>337.725707</ele>
        <time>2021-08-16T04:15:37.961Z</time>
      </trkpt>
      <trkpt lat="42.52665" lon="42.64288">
        <ele>338.677221</ele>
        <time>2021-08-16T04:15:51.891Z</time>
      </trkpt>
      <trkpt lat="42.52618" lon="42.64318">
        <ele>339.692769</ele>
        <time>2021-08-16T04:16:07.954Z</time>
      </trkpt>
      <trkpt lat="42.52561" lon="42.64375">
        <ele>341.087297</ele>
        <time>2021-08-16T04:16:32.352Z</time>
      </trkpt>
      <trkpt lat="42.52525" lon="42.64391">
        <ele>342.444714</ele>
        <time>2021-08-16T04:16:47.929Z</time>
      </trkpt>
      <trkpt lat="42.5247" lon="42.644">
        <ele>344.403496</ele>
        <time>2021-08-16T04:17:11.569Z</time>
      </trkpt>
      <trkpt lat="42.52389" lon="42.64391">
        <ele>347.272007</ele>
        <time>2021-08-16T04:17:45.602Z</time>
      </trkpt>
      <trkpt lat="42.52312" lon="42.64406">
        <ele>347.470252</ele>
        <time>2021-08-16T04:18:12.805Z</time>
      </trkpt>
      <trkpt lat="42.52278" lon="42.64407">
        <ele>347.523299</ele>
        <time>2021-08-16T04:18:21.075Z</time>
      </trkpt>
      <trkpt lat="42.52257" lon="42.64394">
        <ele>347.5595</ele>
        <time>2021-08-16T04:18:25.663Z</time>
      </trkpt>
      <trkpt lat="42.52238" lon="42.64363">
        <ele>347.605891</ele>
        <time>2021-08-16T04:18:31.024Z</time>
      </trkpt>
      <trkpt lat="42.52223" lon="42.6432">
        <ele>346.669809</ele>
        <time>2021-08-16T04:18:36.984Z</time>
      </trkpt>
      <trkpt lat="42.52184" lon="42.6402">
        <ele>334.834862</ele>
        <time>2021-08-16T04:19:11.466Z</time>
      </trkpt>
      <trkpt lat="42.52174" lon="42.63977">
        <ele>333.3633</ele>
        <time>2021-08-16T04:19:16.726Z</time>
      </trkpt>
      <trkpt lat="42.5214" lon="42.63929">
        <ele>331.201939</ele>
        <time>2021-08-16T04:19:24.822Z</time>
      </trkpt>
      <trkpt lat="42.52117" lon="42.63917">
        <ele>330.10475</ele>
        <time>2021-08-16T04:19:29.091Z</time>
      </trkpt>
      <trkpt lat="42.52047" lon="42.63922">
        <ele>329.317033</ele>
        <time>2021-08-16T04:19:42.478Z</time>
      </trkpt>
      <trkpt lat="42.51951" lon="42.63956">
        <ele>328.823345</ele>
        <time>2021-08-16T04:20:04.515Z</time>
      </trkpt>
      <trkpt lat="42.51862" lon="42.63972">
        <ele>329.513495</ele>
        <time>2021-08-16T04:20:28.822Z</time>
      </trkpt>
      <trkpt lat="42.51681" lon="42.64027">
        <ele>331.955951</ele>
        <time>2021-08-16T04:21:23.324Z</time>
      </trkpt>
      <trkpt lat="42.51645" lon="42.6403">
        <ele>332.496983</ele>
        <time>2021-08-16T04:21:34.116Z</time>
      </trkpt>
      <trkpt lat="42.51593" lon="42.64025">
        <ele>333.302291</ele>
        <time>2021-08-16T04:21:50.215Z</time>
      </trkpt>
      <trkpt lat="42.5153" lon="42.63987">
        <ele>334.173048</ele>
        <time>2021-08-16T04:22:10.713Z</time>
      </trkpt>
      <trkpt lat="42.51511" lon="42.6396">
        <ele>334.494349</ele>
        <time>2021-08-16T04:22:18.633Z</time>
      </trkpt>
      <trkpt lat="42.51481" lon="42.63893">
        <ele>335.169309</ele>
        <time>2021-08-16T04:22:34.674Z</time>
      </trkpt>
      <trkpt lat="42.51366" lon="42.63702">
        <ele>336.426907</ele>
        <time>2021-08-16T04:23:22.011Z</time>
      </trkpt>
      <trkpt lat="42.51314" lon="42.63643">
        <ele>336.508348</ele>
        <time>2021-08-16T04:23:37.064Z</time>
      </trkpt>
      <trkpt lat="42.51279" lon="42.63624">
        <ele>336.305512</ele>
        <time>2021-08-16T04:23:45.093Z</time>
      </trkpt>
      <trkpt lat="42.51256" lon="42.63623">
        <ele>336.180132</ele>
        <time>2021-08-16T04:23:50.002Z</time>
      </trkpt>
      <trkpt lat="42.5123" lon="42.63634">
        <ele>336.033505</ele>
        <time>2021-08-16T04:23:55.714Z</time>
      </trkpt>
      <trkpt lat="42.51153" lon="42.63702">
        <ele>335.244034</ele>
        <time>2021-08-16T04:24:14.002Z</time>
      </trkpt>
      <trkpt lat="42.5106" lon="42.63753">
        <ele>333.596147</ele>
        <time>2021-08-16T04:24:32.961Z</time>
      </trkpt>
      <trkpt lat="42.50987" lon="42.63826">
        <ele>331.687644</ele>
        <time>2021-08-16T04:24:49.402Z</time>
      </trkpt>
      <trkpt lat="42.50973" lon="42.63827">
        <ele>331.281694</ele>
        <time>2021-08-16T04:24:52.037Z</time>
      </trkpt>
      <trkpt lat="42.5096" lon="42.6382">
        <ele>330.888753</ele>
        <time>2021-08-16T04:24:54.465Z</time>
      </trkpt>
      <trkpt lat="42.50906" lon="42.63759">
        <ele>328.923591</ele>
        <time>2021-08-16T04:25:06.409Z</time>
      </trkpt>
      <trkpt lat="42.50848" lon="42.63737">
        <ele>327.23333</ele>
        <time>2021-08-16T04:25:16.804Z</time>
      </trkpt>
      <trkpt lat="42.50766" lon="42.63722">
        <ele>325.01796</ele>
        <time>2021-08-16T04:25:31.069Z</time>
      </trkpt>
      <trkpt lat="42.50703" lon="42.63722">
        <ele>323.36003</ele>
        <time>2021-08-16T04:25:42.026Z</time>
      </trkpt>
      <trkpt lat="42.50549" lon="42.63734">
        <ele>321.409289</ele>
        <time>2021-08-16T04:26:11.994Z</time>
      </trkpt>
      <trkpt lat="42.50389" lon="42.63775">
        <ele>321.050014</ele>
        <time>2021-08-16T04:26:47.670Z</time>
      </trkpt>
      <trkpt lat="42.50301" lon="42.63769">
        <ele>321.731839</ele>
        <time>2021-08-16T04:27:09.358Z</time>
      </trkpt>
      <trkpt lat="42.5025" lon="42.6379">
        <ele>322.938857</ele>
        <time>2021-08-16T04:27:22.702Z</time>
      </trkpt>
      <trkpt lat="42.50211" lon="42.63812">
        <ele>323.889446</ele>
        <time>2021-08-16T04:27:36.218Z</time>
      </trkpt>
      <trkpt lat="42.50184" lon="42.63815">
        <ele>324.500308</ele>
        <time>2021-08-16T04:27:46.786Z</time>
      </trkpt>
      <trkpt lat="42.50158" lon="42.63804">
        <ele>325.112846</ele>
        <time>2021-08-16T04:27:57.755Z</time>
      </trkpt>
      <trkpt lat="42.50097" lon="42.63758">
        <ele>331.768705</ele>
        <time>2021-08-16T04:28:36.268Z</time>
      </trkpt>
      <trkpt lat="42.50085" lon="42.63756">
        <ele>332.935886</ele>
        <time>2021-08-16T04:28:45.587Z</time>
      </trkpt>
      <trkpt lat="42.49989" lon="42.63754">
        <ele>342.197903</ele>
        <time>2021-08-16T04:29:58.709Z</time>
      </trkpt>
      <trkpt lat="42.4991" lon="42.63754">
        <ele>353.726592</ele>
        <time>2021-08-16T04:31:26.463Z</time>
      </trkpt>
      <trkpt lat="42.49812" lon="42.63776">
        <ele>368.262322</ele>
        <time>2021-08-16T04:33:06.935Z</time>
      </trkpt>
      <trkpt lat="42.49771" lon="42.63799">
        <ele>369.572022</ele>
        <time>2021-08-16T04:33:39.019Z</time>
      </trkpt>
      <trkpt lat="42.49763" lon="42.63801">
        <ele>369.655795</ele>
        <time>2021-08-16T04:33:43.895Z</time>
      </trkpt>
      <trkpt lat="42.49736" lon="42.63794">
        <ele>369.93886</ele>
        <time>2021-08-16T04:33:55.280Z</time>
      </trkpt>
      <trkpt lat="42.4967" lon="42.63748">
        <ele>370.688689</ele>
        <time>2021-08-16T04:34:09.835Z</time>
      </trkpt>
      <trkpt lat="42.49635" lon="42.63708">
        <ele>369.523638</ele>
        <time>2021-08-16T04:34:16.491Z</time>
      </trkpt>
      <trkpt lat="42.49605" lon="42.63655">
        <ele>364.154169</ele>
        <time>2021-08-16T04:34:23.114Z</time>
      </trkpt>
      <trkpt lat="42.49566" lon="42.63533">
        <ele>353.391407</ele>
        <time>2021-08-16T04:34:36.630Z</time>
      </trkpt>
      <trkpt lat="42.49545" lon="42.63408">
        <ele>349.605182</ele>
        <time>2021-08-16T04:34:51.385Z</time>
      </trkpt>
      <trkpt lat="42.49538" lon="42.63312">
        <ele>347.938159</ele>
        <time>2021-08-16T04:35:06.890Z</time>
      </trkpt>
      <trkpt lat="42.49528" lon="42.63251">
        <ele>347.556316</ele>
        <time>2021-08-16T04:35:22.731Z</time>
      </trkpt>
      <trkpt lat="42.49513" lon="42.63216">
        <ele>348.403461</ele>
        <time>2021-08-16T04:35:34.584Z</time>
      </trkpt>
      <trkpt lat="42.49486" lon="42.63176">
        <ele>349.545648</ele>
        <time>2021-08-16T04:35:52.493Z</time>
      </trkpt>
      <trkpt lat="42.49458" lon="42.63147">
        <ele>350.526978</ele>
        <time>2021-08-16T04:36:06.625Z</time>
      </trkpt>
      <trkpt lat="42.49353" lon="42.63059">
        <ele>352.600394</ele>
        <time>2021-08-16T04:36:46.622Z</time>
      </trkpt>
      <trkpt lat="42.49273" lon="42.63011">
        <ele>353.0489</ele>
        <time>2021-08-16T04:37:07.257Z</time>
      </trkpt>
      <trkpt lat="42.49243" lon="42.62982">
        <ele>353.020069</ele>
        <time>2021-08-16T04:37:14.709Z</time>
      </trkpt>
      <trkpt lat="42.49225" lon="42.62953">
        <ele>352.255406</ele>
        <time>2021-08-16T04:37:19.874Z</time>
      </trkpt>
      <trkpt lat="42.49221" lon="42.62937">
        <ele>351.906989</ele>
        <time>2021-08-16T04:37:22.194Z</time>
      </trkpt>
      <trkpt lat="42.49224" lon="42.62845">
        <ele>350.043161</ele>
        <time>2021-08-16T04:37:33.833Z</time>
      </trkpt>
      <trkpt lat="42.49254" lon="42.62737">
        <ele>347.909991</ele>
        <time>2021-08-16T04:37:47.971Z</time>
      </trkpt>
      <trkpt lat="42.49257" lon="42.62705">
        <ele>347.497314</ele>
        <time>2021-08-16T04:37:52.023Z</time>
      </trkpt>
      <trkpt lat="42.49252" lon="42.62664">
        <ele>346.970497</ele>
        <time>2021-08-16T04:37:57.300Z</time>
      </trkpt>
      <trkpt lat="42.49239" lon="42.62636">
        <ele>346.542157</ele>
        <time>2021-08-16T04:38:01.765Z</time>
      </trkpt>
      <trkpt lat="42.49162" lon="42.6253">
        <ele>345.7971</ele>
        <time>2021-08-16T04:38:25.141Z</time>
      </trkpt>
      <trkpt lat="42.4907" lon="42.62454">
        <ele>348.189708</ele>
        <time>2021-08-16T04:39:05.015Z</time>
      </trkpt>
      <trkpt lat="42.49018" lon="42.6239">
        <ele>349.365945</ele>
        <time>2021-08-16T04:39:31.892Z</time>
      </trkpt>
      <trkpt lat="42.48995" lon="42.62336">
        <ele>349.738741</ele>
        <time>2021-08-16T04:39:47.196Z</time>
      </trkpt>
      <trkpt lat="42.48976" lon="42.62242">
        <ele>350.32293</ele>
        <time>2021-08-16T04:40:05.018Z</time>
      </trkpt>
      <trkpt lat="42.48961" lon="42.62197">
        <ele>350.584834</ele>
        <time>2021-08-16T04:40:12.002Z</time>
      </trkpt>
      <trkpt lat="42.48907" lon="42.62105">
        <ele>347.890895</ele>
        <time>2021-08-16T04:40:27.306Z</time>
      </trkpt>
      <trkpt lat="42.48813" lon="42.62027">
        <ele>344.496092</ele>
        <time>2021-08-16T04:40:45.497Z</time>
      </trkpt>
      <trkpt lat="42.48764" lon="42.61973">
        <ele>342.530611</ele>
        <time>2021-08-16T04:40:55.824Z</time>
      </trkpt>
      <trkpt lat="42.4875" lon="42.61946">
        <ele>341.779835</ele>
        <time>2021-08-16T04:40:59.917Z</time>
      </trkpt>
      <trkpt lat="42.48735" lon="42.61895">
        <ele>340.521476</ele>
        <time>2021-08-16T04:41:06.983Z</time>
      </trkpt>
      <trkpt lat="42.48722" lon="42.61831">
        <ele>339.592485</ele>
        <time>2021-08-16T04:41:16.337Z</time>
      </trkpt>
      <trkpt lat="42.4869" lon="42.61747">
        <ele>340.157132</ele>
        <time>2021-08-16T04:41:30.947Z</time>
      </trkpt>
      <trkpt lat="42.48621" lon="42.61657">
        <ele>340.939094</ele>
        <time>2021-08-16T04:42:03.726Z</time>
      </trkpt>
      <trkpt lat="42.48595" lon="42.61603">
        <ele>341.781551</ele>
        <time>2021-08-16T04:42:20.881Z</time>
      </trkpt>
      <trkpt lat="42.48564" lon="42.61517">
        <ele>343.037893</ele>
        <time>2021-08-16T04:42:44.067Z</time>
      </trkpt>
      <trkpt lat="42.48542" lon="42.61378">
        <ele>344.365872</ele>
        <time>2021-08-16T04:43:11.272Z</time>
      </trkpt>
      <trkpt lat="42.48523" lon="42.61161">
        <ele>345.266148</ele>
        <time>2021-08-16T04:43:50.629Z</time>
      </trkpt>
      <trkpt lat="42.48473" lon="42.61004">
        <ele>345.842472</ele>
        <time>2021-08-16T04:44:24.875Z</time>
      </trkpt>
      <trkpt lat="42.48428" lon="42.60921">
        <ele>344.95415</ele>
        <time>2021-08-16T04:44:40.600Z</time>
      </trkpt>
      <trkpt lat="42.48409" lon="42.60867">
        <ele>344.003056</ele>
        <time>2021-08-16T04:44:48.708Z</time>
      </trkpt>
      <trkpt lat="42.48387" lon="42.60833">
        <ele>343.284033</ele>
        <time>2021-08-16T04:44:54.533Z</time>
      </trkpt>
      <trkpt lat="42.48309" lon="42.60754">
        <ele>341.009211</ele>
        <time>2021-08-16T04:45:10.800Z</time>
      </trkpt>
      <trkpt lat="42.48285" lon="42.60743">
        <ele>340.356643</ele>
        <time>2021-08-16T04:45:15.064Z</time>
      </trkpt>
      <trkpt lat="42.48254" lon="42.60739">
        <ele>339.534782</ele>
        <time>2021-08-16T04:45:20.607Z</time>
      </trkpt>
      <trkpt lat="42.4819" lon="42.60743">
        <ele>337.881614</ele>
        <time>2021-08-16T04:45:32.253Z</time>
      </trkpt>
      <trkpt lat="42.48158" lon="42.60725">
        <ele>337.342786</ele>
        <time>2021-08-16T04:45:38.816Z</time>
      </trkpt>
      <trkpt lat="42.48096" lon="42.60702">
        <ele>336.981821</ele>
        <time>2021-08-16T04:45:51.893Z</time>
      </trkpt>
      <trkpt lat="42.48014" lon="42.60702">
        <ele>336.521338</ele>
        <time>2021-08-16T04:46:10.015Z</time>
      </trkpt>
      <trkpt lat="42.47939" lon="42.60691">
        <ele>336.047943</ele>
        <time>2021-08-16T04:46:26.988Z</time>
      </trkpt>
      <trkpt lat="42.47765" lon="42.60653">
        <ele>333.845609</ele>
        <time>2021-08-16T04:47:02.133Z</time>
      </trkpt>
      <trkpt lat="42.47707" lon="42.60616">
        <ele>332.205823</ele>
        <time>2021-08-16T04:47:13.208Z</time>
      </trkpt>
      <trkpt lat="42.47647" lon="42.6059">
        <ele>330.590392</ele>
        <time>2021-08-16T04:47:23.595Z</time>
      </trkpt>
      <trkpt lat="42.47478" lon="42.60543">
        <ele>325.953996</ele>
        <time>2021-08-16T04:47:53.195Z</time>
      </trkpt>
      <trkpt lat="42.4742" lon="42.60532">
        <ele>326.673115</ele>
        <time>2021-08-16T04:48:07.732Z</time>
      </trkpt>
      <trkpt lat="42.47267" lon="42.60472">
        <ele>329.150408</ele>
        <time>2021-08-16T04:49:04.162Z</time>
      </trkpt>
      <trkpt lat="42.47235" lon="42.60455">
        <ele>329.713362</ele>
        <time>2021-08-16T04:49:16.033Z</time>
      </trkpt>
      <trkpt lat="42.47222" lon="42.60442">
        <ele>329.977957</ele>
        <time>2021-08-16T04:49:21.090Z</time>
      </trkpt>
      <trkpt lat="42.47162" lon="42.60333">
        <ele>331.619142</ele>
        <time>2021-08-16T04:49:47.909Z</time>
      </trkpt>
      <trkpt lat="42.47091" lon="42.60271">
        <ele>332.966294</ele>
        <time>2021-08-16T04:50:10.348Z</time>
      </trkpt>
      <trkpt lat="42.47057" lon="42.60256">
        <ele>333.536635</ele>
        <time>2021-08-16T04:50:21.534Z</time>
      </trkpt>
      <trkpt lat="42.46838" lon="42.60086">
        <ele>337.127988</ele>
        <time>2021-08-16T04:51:49.754Z</time>
      </trkpt>
      <trkpt lat="42.46827" lon="42.60075">
        <ele>336.432037</ele>
        <time>2021-08-16T04:51:52.329Z</time>
      </trkpt>
      <trkpt lat="42.46767" lon="42.59964">
        <ele>331.263675</ele>
        <time>2021-08-16T04:52:08.407Z</time>
      </trkpt>
      <trkpt lat="42.4666" lon="42.59867">
        <ele>321.014351</ele>
        <time>2021-08-16T04:52:26.602Z</time>
      </trkpt>
      <trkpt lat="42.4663" lon="42.59854">
        <ele>317.9842</ele>
        <time>2021-08-16T04:52:31.020Z</time>
      </trkpt>
      <trkpt lat="42.46542" lon="42.59833">
        <ele>310.10847</ele>
        <time>2021-08-16T04:52:43.816Z</time>
      </trkpt>
      <trkpt lat="42.46352" lon="42.59808">
        <ele>298.875698</ele>
        <time>2021-08-16T04:53:13.422Z</time>
      </trkpt>
      <trkpt lat="42.46308" lon="42.59785">
        <ele>297.322539</ele>
        <time>2021-08-16T04:53:21.033Z</time>
      </trkpt>
      <trkpt lat="42.46232" lon="42.59729">
        <ele>294.481931</ele>
        <time>2021-08-16T04:53:36.298Z</time>
      </trkpt>
      <trkpt lat="42.46189" lon="42.59714">
        <ele>295.0931</ele>
        <time>2021-08-16T04:53:45.634Z</time>
      </trkpt>
      <trkpt lat="42.46177" lon="42.59715">
        <ele>295.455627</ele>
        <time>2021-08-16T04:53:49.557Z</time>
      </trkpt>
      <trkpt lat="42.46155" lon="42.59729">
        <ele>296.216077</ele>
        <time>2021-08-16T04:53:56.127Z</time>
      </trkpt>
      <trkpt lat="42.46132" lon="42.59769">
        <ele>297.396298</ele>
        <time>2021-08-16T04:54:10.060Z</time>
      </trkpt>
      <trkpt lat="42.46071" lon="42.59786">
        <ele>299.356911</ele>
        <time>2021-08-16T04:54:39.813Z</time>
      </trkpt>
      <trkpt lat="42.45948" lon="42.59856">
        <ele>309.527775</ele>
        <time>2021-08-16T04:56:04.958Z</time>
      </trkpt>
      <trkpt lat="42.45879" lon="42.59871">
        <ele>314.776552</ele>
        <time>2021-08-16T04:56:52.009Z</time>
      </trkpt>
      <trkpt lat="42.45846" lon="42.599">
        <ele>316.596253</ele>
        <time>2021-08-16T04:57:17.117Z</time>
      </trkpt>
      <trkpt lat="42.45776" lon="42.59878">
        <ele>319.864867</ele>
        <time>2021-08-16T04:57:52.465Z</time>
      </trkpt>
      <trkpt lat="42.45699" lon="42.59867">
        <ele>321.79969</ele>
        <time>2021-08-16T04:58:12.666Z</time>
      </trkpt>
      <trkpt lat="42.45677" lon="42.59852">
        <ele>320.967244</ele>
        <time>2021-08-16T04:58:17.109Z</time>
      </trkpt>
      <trkpt lat="42.45647" lon="42.59816">
        <ele>319.612837</ele>
        <time>2021-08-16T04:58:23.736Z</time>
      </trkpt>
      <trkpt lat="42.45634" lon="42.59788">
        <ele>318.787777</ele>
        <time>2021-08-16T04:58:27.555Z</time>
      </trkpt>
      <trkpt lat="42.45613" lon="42.59723">
        <ele>317.018111</ele>
        <time>2021-08-16T04:58:35.684Z</time>
      </trkpt>
      <trkpt lat="42.45604" lon="42.5965">
        <ele>316.917693</ele>
        <time>2021-08-16T04:58:44.506Z</time>
      </trkpt>
      <trkpt lat="42.45594" lon="42.59618">
        <ele>317.281731</ele>
        <time>2021-08-16T04:58:49.252Z</time>
      </trkpt>
      <trkpt lat="42.45564" lon="42.59558">
        <ele>318.040981</ele>
        <time>2021-08-16T04:59:04.459Z</time>
      </trkpt>
      <trkpt lat="42.4554" lon="42.59541">
        <ele>318.425462</ele>
        <time>2021-08-16T04:59:16.282Z</time>
      </trkpt>
      <trkpt lat="42.45521" lon="42.59552">
        <ele>318.718805</ele>
        <time>2021-08-16T04:59:27.660Z</time>
      </trkpt>
      <trkpt lat="42.45512" lon="42.59565">
        <ele>318.905549</ele>
        <time>2021-08-16T04:59:34.945Z</time>
      </trkpt>
      <trkpt lat="42.4551" lon="42.59616">
        <ele>322.291974</ele>
        <time>2021-08-16T04:59:59.641Z</time>
      </trkpt>
      <trkpt lat="42.45501" lon="42.59625">
        <ele>323.400028</ele>
        <time>2021-08-16T05:00:08.060Z</time>
      </trkpt>
      <trkpt lat="42.45493" lon="42.59624">
        <ele>324.196131</ele>
        <time>2021-08-16T05:00:14.373Z</time>
      </trkpt>
      <trkpt lat="42.45469" lon="42.59595">
        <ele>327.314979</ele>
        <time>2021-08-16T05:00:38.389Z</time>
      </trkpt>
      <trkpt lat="42.4543" lon="42.59513">
        <ele>334.340546</ele>
        <time>2021-08-16T05:01:34.142Z</time>
      </trkpt>
      <trkpt lat="42.45407" lon="42.59485">
        <ele>337.229995</ele>
        <time>2021-08-16T05:01:57.077Z</time>
      </trkpt>
      <trkpt lat="42.4539" lon="42.59479">
        <ele>338.685644</ele>
        <time>2021-08-16T05:02:09.798Z</time>
      </trkpt>
      <trkpt lat="42.45368" lon="42.59462">
        <ele>340.784099</ele>
        <time>2021-08-16T05:02:27.325Z</time>
      </trkpt>
      <trkpt lat="42.45332" lon="42.59449">
        <ele>343.871231</ele>
        <time>2021-08-16T05:02:51.389Z</time>
      </trkpt>
      <trkpt lat="42.45338" lon="42.59395">
        <ele>347.209937</ele>
        <time>2021-08-16T05:03:15.216Z</time>
      </trkpt>
      <trkpt lat="42.45334" lon="42.59354">
        <ele>349.738434</ele>
        <time>2021-08-16T05:03:32.413Z</time>
      </trkpt>
      <trkpt lat="42.45285" lon="42.59303">
        <ele>354.47122</ele>
        <time>2021-08-16T05:04:07.684Z</time>
      </trkpt>
      <trkpt lat="42.4525" lon="42.59286">
        <ele>357.206133</ele>
        <time>2021-08-16T05:04:29.579Z</time>
      </trkpt>
      <trkpt lat="42.45237" lon="42.59273">
        <ele>358.39453</ele>
        <time>2021-08-16T05:04:38.997Z</time>
      </trkpt>
      <trkpt lat="42.45229" lon="42.59256">
        <ele>359.488892</ele>
        <time>2021-08-16T05:04:47.753Z</time>
      </trkpt>
      <trkpt lat="42.45232" lon="42.5912">
        <ele>367.012896</ele>
        <time>2021-08-16T05:05:48.099Z</time>
      </trkpt>
      <trkpt lat="42.45228" lon="42.59108">
        <ele>367.750735</ele>
        <time>2021-08-16T05:05:54.162Z</time>
      </trkpt>
      <trkpt lat="42.45186" lon="42.59063">
        <ele>371.873956</ele>
        <time>2021-08-16T05:06:29.227Z</time>
      </trkpt>
      <trkpt lat="42.45153" lon="42.59005">
        <ele>376.063343</ele>
        <time>2021-08-16T05:07:03.469Z</time>
      </trkpt>
      <trkpt lat="42.45132" lon="42.58898">
        <ele>380.927912</ele>
        <time>2021-08-16T05:07:48.538Z</time>
      </trkpt>
      <trkpt lat="42.45098" lon="42.5881">
        <ele>384.364776</ele>
        <time>2021-08-16T05:08:22.292Z</time>
      </trkpt>
      <trkpt lat="42.45096" lon="42.58756">
        <ele>386.273573</ele>
        <time>2021-08-16T05:08:37.938Z</time>
      </trkpt>
      <trkpt lat="42.45105" lon="42.58719">
        <ele>387.602441</ele>
        <time>2021-08-16T05:08:48.113Z</time>
      </trkpt>
      <trkpt lat="42.45117" lon="42.58693">
        <ele>388.562071</ele>
        <time>2021-08-16T05:08:55.042Z</time>
      </trkpt>
      <trkpt lat="42.45175" lon="42.58625">
        <ele>391.852209</ele>
        <time>2021-08-16T05:09:21.338Z</time>
      </trkpt>
      <trkpt lat="42.45186" lon="42.58585">
        <ele>393.232571</ele>
        <time>2021-08-16T05:09:36.101Z</time>
      </trkpt>
      <trkpt lat="42.45177" lon="42.58479">
        <ele>399.600098</ele>
        <time>2021-08-16T05:10:24.634Z</time>
      </trkpt>
      <trkpt lat="42.4517" lon="42.58461">
        <ele>401.331664</ele>
        <time>2021-08-16T05:10:35.561Z</time>
      </trkpt>
      <trkpt lat="42.45145" lon="42.58427">
        <ele>405.454105</ele>
        <time>2021-08-16T05:11:03.566Z</time>
      </trkpt>
      <trkpt lat="42.45145" lon="42.58417">
        <ele>406.308181</ele>
        <time>2021-08-16T05:11:09.826Z</time>
      </trkpt>
      <trkpt lat="42.45165" lon="42.58377">
        <ele>410.518959</ele>
        <time>2021-08-16T05:11:41.942Z</time>
      </trkpt>
      <trkpt lat="42.45169" lon="42.58354">
        <ele>412.495763</ele>
        <time>2021-08-16T05:11:57.733Z</time>
      </trkpt>
      <trkpt lat="42.45152" lon="42.58322">
        <ele>415.924426</ele>
        <time>2021-08-16T05:12:25.924Z</time>
      </trkpt>
      <trkpt lat="42.45118" lon="42.58217">
        <ele>427.494598</ele>
        <time>2021-08-16T05:13:51.242Z</time>
      </trkpt>
      <trkpt lat="42.45102" lon="42.58024">
        <ele>445.542486</ele>
        <time>2021-08-16T05:15:51.393Z</time>
      </trkpt>
      <trkpt lat="42.45094" lon="42.57992">
        <ele>448.173171</ele>
        <time>2021-08-16T05:16:09.506Z</time>
      </trkpt>
      <trkpt lat="42.45076" lon="42.57957">
        <ele>451.494952</ele>
        <time>2021-08-16T05:16:32.246Z</time>
      </trkpt>
      <trkpt lat="42.45053" lon="42.57865">
        <ele>459.058208</ele>
        <time>2021-08-16T05:17:23.080Z</time>
      </trkpt>
      <trkpt lat="42.45023" lon="42.57784">
        <ele>466.221615</ele>
        <time>2021-08-16T05:18:09.948Z</time>
      </trkpt>
      <trkpt lat="42.44943" lon="42.57629">
        <ele>480.996772</ele>
        <time>2021-08-16T05:20:00.600Z</time>
      </trkpt>
      <trkpt lat="42.44898" lon="42.57515">
        <ele>490.43268</ele>
        <time>2021-08-16T05:21:14.448Z</time>
      </trkpt>
      <trkpt lat="42.44847" lon="42.57335">
        <ele>500.811375</ele>
        <time>2021-08-16T05:22:41.269Z</time>
      </trkpt>
      <trkpt lat="42.4485" lon="42.57264">
        <ele>503.581274</ele>
        <time>2021-08-16T05:23:03.073Z</time>
      </trkpt>
      <trkpt lat="42.44869" lon="42.57169">
        <ele>506.849383</ele>
        <time>2021-08-16T05:23:29.392Z</time>
      </trkpt>
      <trkpt lat="42.44889" lon="42.57101">
        <ele>508.489042</ele>
        <time>2021-08-16T05:23:47.643Z</time>
      </trkpt>
      <trkpt lat="42.44884" lon="42.57059">
        <ele>509.430271</ele>
        <time>2021-08-16T05:23:58.688Z</time>
      </trkpt>
      <trkpt lat="42.4487" lon="42.57034">
        <ele>510.117073</ele>
        <time>2021-08-16T05:24:07.186Z</time>
      </trkpt>
      <trkpt lat="42.44845" lon="42.57014">
        <ele>511.00388</ele>
        <time>2021-08-16T05:24:18.638Z</time>
      </trkpt>
      <trkpt lat="42.4481" lon="42.57018">
        <ele>512.441084</ele>
        <time>2021-08-16T05:24:33.125Z</time>
      </trkpt>
      <trkpt lat="42.44727" lon="42.56992">
        <ele>516.749952</ele>
        <time>2021-08-16T05:25:12.797Z</time>
      </trkpt>
      <trkpt lat="42.44572" lon="42.57013">
        <ele>524.189481</ele>
        <time>2021-08-16T05:26:33.698Z</time>
      </trkpt>
      <trkpt lat="42.44531" lon="42.57041">
        <ele>526.260625</ele>
        <time>2021-08-16T05:26:54.908Z</time>
      </trkpt>
      <trkpt lat="42.44478" lon="42.57061">
        <ele>528.67833</ele>
        <time>2021-08-16T05:27:16.423Z</time>
      </trkpt>
      <trkpt lat="42.44437" lon="42.57093">
        <ele>527.343509</ele>
        <time>2021-08-16T05:27:30.229Z</time>
      </trkpt>
      <trkpt lat="42.44368" lon="42.57097">
        <ele>525.395101</ele>
        <time>2021-08-16T05:27:42.721Z</time>
      </trkpt>
      <trkpt lat="42.44325" lon="42.57117">
        <ele>524.112523</ele>
        <time>2021-08-16T05:27:49.733Z</time>
      </trkpt>
      <trkpt lat="42.44307" lon="42.57114">
        <ele>523.548644</ele>
        <time>2021-08-16T05:27:52.372Z</time>
      </trkpt>
      <trkpt lat="42.44247" lon="42.57075">
        <ele>516.729122</ele>
        <time>2021-08-16T05:28:01.873Z</time>
      </trkpt>
      <trkpt lat="42.44226" lon="42.57087">
        <ele>514.473336</ele>
        <time>2021-08-16T05:28:04.962Z</time>
      </trkpt>
      <trkpt lat="42.44207" lon="42.57123">
        <ele>511.115187</ele>
        <time>2021-08-16T05:28:09.542Z</time>
      </trkpt>
      <trkpt lat="42.44141" lon="42.57213">
        <ele>503.282065</ele>
        <time>2021-08-16T05:28:22.669Z</time>
      </trkpt>
      <trkpt lat="42.44122" lon="42.57271">
        <ele>500.66858</ele>
        <time>2021-08-16T05:28:29.619Z</time>
      </trkpt>
      <trkpt lat="42.44117" lon="42.57305">
        <ele>499.240765</ele>
        <time>2021-08-16T05:28:33.600Z</time>
      </trkpt>
      <trkpt lat="42.44122" lon="42.57361">
        <ele>496.917598</ele>
        <time>2021-08-16T05:28:40.668Z</time>
      </trkpt>
      <trkpt lat="42.44156" lon="42.57483">
        <ele>496.762416</ele>
        <time>2021-08-16T05:29:05.708Z</time>
      </trkpt>
      <trkpt lat="42.44139" lon="42.57578">
        <ele>498.333801</ele>
        <time>2021-08-16T05:29:35.178Z</time>
      </trkpt>
      <trkpt lat="42.44113" lon="42.57627">
        <ele>499.271714</ele>
        <time>2021-08-16T05:29:53.128Z</time>
      </trkpt>
      <trkpt lat="42.44081" lon="42.57713">
        <ele>500.225304</ele>
        <time>2021-08-16T05:30:18.417Z</time>
      </trkpt>
      <trkpt lat="42.44021" lon="42.57835">
        <ele>501.587255</ele>
        <time>2021-08-16T05:30:45.932Z</time>
      </trkpt>
      <trkpt lat="42.44008" lon="42.5785">
        <ele>501.356635</ele>
        <time>2021-08-16T05:30:49.257Z</time>
      </trkpt>
      <trkpt lat="42.43969" lon="42.57874">
        <ele>500.778096</ele>
        <time>2021-08-16T05:30:57.325Z</time>
      </trkpt>
      <trkpt lat="42.43943" lon="42.5791">
        <ele>500.276011</ele>
        <time>2021-08-16T05:31:04.151Z</time>
      </trkpt>
      <trkpt lat="42.43933" lon="42.57934">
        <ele>500.001287</ele>
        <time>2021-08-16T05:31:07.936Z</time>
      </trkpt>
      <trkpt lat="42.43911" lon="42.57998">
        <ele>499.297937</ele>
        <time>2021-08-16T05:31:17.692Z</time>
      </trkpt>
      <trkpt lat="42.43909" lon="42.58103">
        <ele>499.081754</ele>
        <time>2021-08-16T05:31:32.771Z</time>
      </trkpt>
      <trkpt lat="42.43902" lon="42.58132">
        <ele>499.042975</ele>
        <time>2021-08-16T05:31:37.288Z</time>
      </trkpt>
      <trkpt lat="42.4387" lon="42.58199">
        <ele>498.94151</ele>
        <time>2021-08-16T05:31:50.529Z</time>
      </trkpt>
      <trkpt lat="42.43867" lon="42.58222">
        <ele>498.911764</ele>
        <time>2021-08-16T05:31:55.130Z</time>
      </trkpt>
      <trkpt lat="42.43871" lon="42.58301">
        <ele>500.588475</ele>
        <time>2021-08-16T05:32:16.230Z</time>
      </trkpt>
      <trkpt lat="42.43866" lon="42.58316">
        <ele>501.025467</ele>
        <time>2021-08-16T05:32:20.070Z</time>
      </trkpt>
      <trkpt lat="42.43843" lon="42.58331">
        <ele>501.91232</ele>
        <time>2021-08-16T05:32:30.807Z</time>
      </trkpt>
      <trkpt lat="42.43825" lon="42.58336">
        <ele>502.553142</ele>
        <time>2021-08-16T05:32:36.915Z</time>
      </trkpt>
      <trkpt lat="42.4381" lon="42.58342">
        <ele>503.116472</ele>
        <time>2021-08-16T05:32:45.189Z</time>
      </trkpt>
      <trkpt lat="42.43793" lon="42.58352">
        <ele>503.756657</ele>
        <time>2021-08-16T05:32:51.846Z</time>
      </trkpt>
      <trkpt lat="42.43781" lon="42.58367">
        <ele>504.358455</ele>
        <time>2021-08-16T05:33:00.813Z</time>
      </trkpt>
      <trkpt lat="42.43777" lon="42.58387">
        <ele>504.905827</ele>
        <time>2021-08-16T05:33:07.129Z</time>
      </trkpt>
      <trkpt lat="42.43781" lon="42.58434">
        <ele>506.25484</ele>
        <time>2021-08-16T05:33:24.094Z</time>
      </trkpt>
      <trkpt lat="42.43773" lon="42.58449">
        <ele>506.782725</ele>
        <time>2021-08-16T05:33:30.594Z</time>
      </trkpt>
      <trkpt lat="42.43762" lon="42.58452">
        <ele>507.229649</ele>
        <time>2021-08-16T05:33:36.856Z</time>
      </trkpt>
      <trkpt lat="42.43739" lon="42.58426">
        <ele>508.466223</ele>
        <time>2021-08-16T05:33:51.635Z</time>
      </trkpt>
      <trkpt lat="42.43671" lon="42.58374">
        <ele>511.582409</ele>
        <time>2021-08-16T05:34:23.078Z</time>
      </trkpt>
      <trkpt lat="42.43585" lon="42.5829">
        <ele>513.216428</ele>
        <time>2021-08-16T05:34:56.569Z</time>
      </trkpt>
      <trkpt lat="42.43491" lon="42.58211">
        <ele>513.98504</ele>
        <time>2021-08-16T05:35:20.748Z</time>
      </trkpt>
      <trkpt lat="42.4345" lon="42.58144">
        <ele>513.663517</ele>
        <time>2021-08-16T05:35:34.030Z</time>
      </trkpt>
      <trkpt lat="42.43437" lon="42.58114">
        <ele>513.535</ele>
        <time>2021-08-16T05:35:39.321Z</time>
      </trkpt>
      <trkpt lat="42.43368" lon="42.58009">
        <ele>512.980242</ele>
        <time>2021-08-16T05:36:00.889Z</time>
      </trkpt>
      <trkpt lat="42.43261" lon="42.5782">
        <ele>511.844983</ele>
        <time>2021-08-16T05:36:37.289Z</time>
      </trkpt>
      <trkpt lat="42.43141" lon="42.57627">
        <ele>510.459744</ele>
        <time>2021-08-16T05:37:15.001Z</time>
      </trkpt>
      <trkpt lat="42.43104" lon="42.57606">
        <ele>510.204692</ele>
        <time>2021-08-16T05:37:23.338Z</time>
      </trkpt>
      <trkpt lat="42.43077" lon="42.57503">
        <ele>509.69176</ele>
        <time>2021-08-16T05:37:40.104Z</time>
      </trkpt>
      <trkpt lat="42.4304" lon="42.57445">
        <ele>509.182973</ele>
        <time>2021-08-16T05:37:51.898Z</time>
      </trkpt>
      <trkpt lat="42.42989" lon="42.5738">
        <ele>508.362785</ele>
        <time>2021-08-16T05:38:06.004Z</time>
      </trkpt>
      <trkpt lat="42.42897" lon="42.57287">
        <ele>506.71777</ele>
        <time>2021-08-16T05:38:27.651Z</time>
      </trkpt>
      <trkpt lat="42.42841" lon="42.57267">
        <ele>505.5014</ele>
        <time>2021-08-16T05:38:38.257Z</time>
      </trkpt>
      <trkpt lat="42.4275" lon="42.57187">
        <ele>503.181931</ele>
        <time>2021-08-16T05:38:57.783Z</time>
      </trkpt>
      <trkpt lat="42.42692" lon="42.57155">
        <ele>501.721292</ele>
        <time>2021-08-16T05:39:08.913Z</time>
      </trkpt>
      <trkpt lat="42.42662" lon="42.57127">
        <ele>500.871612</ele>
        <time>2021-08-16T05:39:15.431Z</time>
      </trkpt>
      <trkpt lat="42.42609" lon="42.57121">
        <ele>499.631159</ele>
        <time>2021-08-16T05:39:25.038Z</time>
      </trkpt>
      <trkpt lat="42.42544" lon="42.57136">
        <ele>497.856581</ele>
        <time>2021-08-16T05:39:36.929Z</time>
      </trkpt>
      <trkpt lat="42.42469" lon="42.57131">
        <ele>495.796617</ele>
        <time>2021-08-16T05:39:50.158Z</time>
      </trkpt>
      <trkpt lat="42.42396" lon="42.57138">
        <ele>493.202933</ele>
        <time>2021-08-16T05:40:02.608Z</time>
      </trkpt>
      <trkpt lat="42.42336" lon="42.57185">
        <ele>489.739929</ele>
        <time>2021-08-16T05:40:13.867Z</time>
      </trkpt>
      <trkpt lat="42.42285" lon="42.572">
        <ele>487.13235</ele>
        <time>2021-08-16T05:40:21.953Z</time>
      </trkpt>
      <trkpt lat="42.42195" lon="42.57247">
        <ele>481.425349</ele>
        <time>2021-08-16T05:40:36.502Z</time>
      </trkpt>
      <trkpt lat="42.42145" lon="42.57288">
        <ele>477.695728</ele>
        <time>2021-08-16T05:40:45.218Z</time>
      </trkpt>
      <trkpt lat="42.42072" lon="42.5737">
        <ele>473.024836</ele>
        <time>2021-08-16T05:40:59.939Z</time>
      </trkpt>
      <trkpt lat="42.42064" lon="42.57387">
        <ele>472.622849</ele>
        <time>2021-08-16T05:41:02.462Z</time>
      </trkpt>
      <trkpt lat="42.42042" lon="42.57475">
        <ele>470.770283</ele>
        <time>2021-08-16T05:41:15.570Z</time>
      </trkpt>
      <trkpt lat="42.42038" lon="42.57524">
        <ele>469.787289</ele>
        <time>2021-08-16T05:41:22.461Z</time>
      </trkpt>
      <trkpt lat="42.42038" lon="42.57567">
        <ele>468.974693</ele>
        <time>2021-08-16T05:41:28.430Z</time>
      </trkpt>
      <trkpt lat="42.42045" lon="42.57637">
        <ele>467.81433</ele>
        <time>2021-08-16T05:41:38.623Z</time>
      </trkpt>
      <trkpt lat="42.42008" lon="42.57687">
        <ele>466.662285</ele>
        <time>2021-08-16T05:41:48.249Z</time>
      </trkpt>
      <trkpt lat="42.41909" lon="42.57766">
        <ele>465.200074</ele>
        <time>2021-08-16T05:42:07.726Z</time>
      </trkpt>
      <trkpt lat="42.41866" lon="42.57914">
        <ele>465.218662</ele>
        <time>2021-08-16T05:42:34.364Z</time>
      </trkpt>
      <trkpt lat="42.41838" lon="42.57959">
        <ele>467.335752</ele>
        <time>2021-08-16T05:42:54.891Z</time>
      </trkpt>
      <trkpt lat="42.41828" lon="42.57989">
        <ele>469.062154</ele>
        <time>2021-08-16T05:43:08.363Z</time>
      </trkpt>
      <trkpt lat="42.41819" lon="42.58127">
        <ele>476.31494</ele>
        <time>2021-08-16T05:44:15.071Z</time>
      </trkpt>
      <trkpt lat="42.41813" lon="42.58147">
        <ele>477.409114</ele>
        <time>2021-08-16T05:44:25.715Z</time>
      </trkpt>
      <trkpt lat="42.41803" lon="42.58154">
        <ele>478.163658</ele>
        <time>2021-08-16T05:44:33.529Z</time>
      </trkpt>
      <trkpt lat="42.41789" lon="42.58153">
        <ele>478.983499</ele>
        <time>2021-08-16T05:44:42.913Z</time>
      </trkpt>
      <trkpt lat="42.41775" lon="42.58134">
        <ele>480.152934</ele>
        <time>2021-08-16T05:44:56.358Z</time>
      </trkpt>
      <trkpt lat="42.41686" lon="42.57947">
        <ele>488.171154</ele>
        <time>2021-08-16T05:46:15.489Z</time>
      </trkpt>
      <trkpt lat="42.41665" lon="42.57876">
        <ele>487.719801</ele>
        <time>2021-08-16T05:46:29.383Z</time>
      </trkpt>
      <trkpt lat="42.41592" lon="42.57676">
        <ele>484.032991</ele>
        <time>2021-08-16T05:46:57.344Z</time>
      </trkpt>
      <trkpt lat="42.4157" lon="42.5756">
        <ele>480.01815</ele>
        <time>2021-08-16T05:47:11.157Z</time>
      </trkpt>
      <trkpt lat="42.41514" lon="42.57393">
        <ele>475.028593</ele>
        <time>2021-08-16T05:47:33.224Z</time>
      </trkpt>
      <trkpt lat="42.41463" lon="42.57314">
        <ele>472.420379</ele>
        <time>2021-08-16T05:47:47.179Z</time>
      </trkpt>
      <trkpt lat="42.4142" lon="42.57258">
        <ele>471.238279</ele>
        <time>2021-08-16T05:47:58.684Z</time>
      </trkpt>
      <trkpt lat="42.41302" lon="42.57153">
        <ele>467.848009</ele>
        <time>2021-08-16T05:48:24.720Z</time>
      </trkpt>
      <trkpt lat="42.41223" lon="42.57056">
        <ele>463.296687</ele>
        <time>2021-08-16T05:48:42.297Z</time>
      </trkpt>
      <trkpt lat="42.4119" lon="42.56994">
        <ele>460.541513</ele>
        <time>2021-08-16T05:48:51.059Z</time>
      </trkpt>
      <trkpt lat="42.41102" lon="42.56912">
        <ele>451.916245</ele>
        <time>2021-08-16T05:49:06.954Z</time>
      </trkpt>
      <trkpt lat="42.41051" lon="42.56831">
        <ele>444.924333</ele>
        <time>2021-08-16T05:49:18.216Z</time>
      </trkpt>
      <trkpt lat="42.41002" lon="42.56726">
        <ele>433.480027</ele>
        <time>2021-08-16T05:49:30.912Z</time>
      </trkpt>
      <trkpt lat="42.40957" lon="42.56676">
        <ele>426.216878</ele>
        <time>2021-08-16T05:49:38.825Z</time>
      </trkpt>
      <trkpt lat="42.40884" lon="42.5658">
        <ele>411.293912</ele>
        <time>2021-08-16T05:49:52.572Z</time>
      </trkpt>
      <trkpt lat="42.40802" lon="42.56458">
        <ele>393.055615</ele>
        <time>2021-08-16T05:50:08.901Z</time>
      </trkpt>
      <trkpt lat="42.40773" lon="42.56441">
        <ele>388.381876</ele>
        <time>2021-08-16T05:50:13.199Z</time>
      </trkpt>
      <trkpt lat="42.40712" lon="42.56425">
        <ele>379.264816</ele>
        <time>2021-08-16T05:50:21.556Z</time>
      </trkpt>
      <trkpt lat="42.40654" lon="42.56415">
        <ele>370.683905</ele>
        <time>2021-08-16T05:50:29.418Z</time>
      </trkpt>
      <trkpt lat="42.40618" lon="42.56434">
        <ele>365.87727</ele>
        <time>2021-08-16T05:50:34.682Z</time>
      </trkpt>
      <trkpt lat="42.40608" lon="42.56455">
        <ele>363.54424</ele>
        <time>2021-08-16T05:50:37.343Z</time>
      </trkpt>
      <trkpt lat="42.40605" lon="42.56466">
        <ele>362.482636</ele>
        <time>2021-08-16T05:50:38.466Z</time>
      </trkpt>
      <trkpt lat="42.40556" lon="42.56568">
        <ele>351.334256</ele>
        <time>2021-08-16T05:50:50.989Z</time>
      </trkpt>
      <trkpt lat="42.40542" lon="42.56636">
        <ele>345.2491</ele>
        <time>2021-08-16T05:50:58.107Z</time>
      </trkpt>
      <trkpt lat="42.4053" lon="42.56908">
        <ele>324.116517</ele>
        <time>2021-08-16T05:51:26.450Z</time>
      </trkpt>
      <trkpt lat="42.40535" lon="42.56967">
        <ele>320.502151</ele>
        <time>2021-08-16T05:51:32.745Z</time>
      </trkpt>
      <trkpt lat="42.40555" lon="42.57102">
        <ele>312.636489</ele>
        <time>2021-08-16T05:51:48.143Z</time>
      </trkpt>
      <trkpt lat="42.40559" lon="42.57219">
        <ele>308.709604</ele>
        <time>2021-08-16T05:52:02.343Z</time>
      </trkpt>
      <trkpt lat="42.40561" lon="42.5744">
        <ele>300.834824</ele>
        <time>2021-08-16T05:52:29.356Z</time>
      </trkpt>
      <trkpt lat="42.40541" lon="42.57513">
        <ele>297.857332</ele>
        <time>2021-08-16T05:52:38.435Z</time>
      </trkpt>
      <trkpt lat="42.40512" lon="42.57556">
        <ele>295.474242</ele>
        <time>2021-08-16T05:52:44.923Z</time>
      </trkpt>
      <trkpt lat="42.40483" lon="42.57574">
        <ele>292.772355</ele>
        <time>2021-08-16T05:52:49.646Z</time>
      </trkpt>
      <trkpt lat="42.40467" lon="42.57575">
        <ele>291.347748</ele>
        <time>2021-08-16T05:52:52.113Z</time>
      </trkpt>
      <trkpt lat="42.40268" lon="42.57534">
        <ele>273.134857</ele>
        <time>2021-08-16T05:53:20.989Z</time>
      </trkpt>
      <trkpt lat="42.40171" lon="42.57544">
        <ele>263.545939</ele>
        <time>2021-08-16T05:53:34.712Z</time>
      </trkpt>
      <trkpt lat="42.40159" lon="42.57538">
        <ele>262.405964</ele>
        <time>2021-08-16T05:53:36.458Z</time>
      </trkpt>
      <trkpt lat="42.40151" lon="42.57535">
        <ele>261.783558</ele>
        <time>2021-08-16T05:53:37.558Z</time>
      </trkpt>
      <trkpt lat="42.40122" lon="42.57513">
        <ele>259.260039</ele>
        <time>2021-08-16T05:53:42.217Z</time>
      </trkpt>
      <trkpt lat="42.40106" lon="42.57494">
        <ele>257.591394</ele>
        <time>2021-08-16T05:53:45.469Z</time>
      </trkpt>
      <trkpt lat="42.4008" lon="42.57431">
        <ele>253.487923</ele>
        <time>2021-08-16T05:53:53.138Z</time>
      </trkpt>
      <trkpt lat="42.40076" lon="42.57405">
        <ele>251.973715</ele>
        <time>2021-08-16T05:53:56.331Z</time>
      </trkpt>
      <trkpt lat="42.40072" lon="42.57379">
        <ele>250.443025</ele>
        <time>2021-08-16T05:53:59.228Z</time>
      </trkpt>
      <trkpt lat="42.40061" lon="42.57409">
        <ele>248.840042</ele>
        <time>2021-08-16T05:54:03.848Z</time>
      </trkpt>
      <trkpt lat="42.40053" lon="42.57485">
        <ele>247.427479</ele>
        <time>2021-08-16T05:54:14.536Z</time>
      </trkpt>
      <trkpt lat="42.40044" lon="42.57503">
        <ele>247.044135</ele>
        <time>2021-08-16T05:54:17.416Z</time>
      </trkpt>
      <trkpt lat="42.40016" lon="42.57524">
        <ele>246.245219</ele>
        <time>2021-08-16T05:54:23.644Z</time>
      </trkpt>
      <trkpt lat="42.39999" lon="42.57545">
        <ele>245.665042</ele>
        <time>2021-08-16T05:54:28.151Z</time>
      </trkpt>
      <trkpt lat="42.39948" lon="42.57689">
        <ele>242.057415</ele>
        <time>2021-08-16T05:54:51.130Z</time>
      </trkpt>
      <trkpt lat="42.3994" lon="42.57734">
        <ele>240.902271</ele>
        <time>2021-08-16T05:54:57.002Z</time>
      </trkpt>
      <trkpt lat="42.39945" lon="42.57798">
        <ele>239.262822</ele>
        <time>2021-08-16T05:55:05.085Z</time>
      </trkpt>
      <trkpt lat="42.39953" lon="42.57838">
        <ele>238.241662</ele>
        <time>2021-08-16T05:55:10.255Z</time>
      </trkpt>
      <trkpt lat="42.39978" lon="42.57884">
        <ele>237.106899</ele>
        <time>2021-08-16T05:55:17.278Z</time>
      </trkpt>
      <trkpt lat="42.4" lon="42.57899">
        <ele>236.434456</ele>
        <time>2021-08-16T05:55:21.517Z</time>
      </trkpt>
      <trkpt lat="42.4002" lon="42.57928">
        <ele>235.647434</ele>
        <time>2021-08-16T05:55:26.596Z</time>
      </trkpt>
      <trkpt lat="42.40032" lon="42.57966">
        <ele>234.804902</ele>
        <time>2021-08-16T05:55:32.344Z</time>
      </trkpt>
      <trkpt lat="42.40028" lon="42.58044">
        <ele>233.703214</ele>
        <time>2021-08-16T05:55:44.408Z</time>
      </trkpt>
      <trkpt lat="42.40019" lon="42.58124">
        <ele>235.545759</ele>
        <time>2021-08-16T05:56:03.423Z</time>
      </trkpt>
      <trkpt lat="42.39986" lon="42.58326">
        <ele>240.591695</ele>
        <time>2021-08-16T05:57:14.086Z</time>
      </trkpt>
      <trkpt lat="42.39973" lon="42.58366">
        <ele>241.902981</ele>
        <time>2021-08-16T05:57:29.577Z</time>
      </trkpt>
      <trkpt lat="42.39921" lon="42.58444">
        <ele>245.051605</ele>
        <time>2021-08-16T05:58:03.553Z</time>
      </trkpt>
      <trkpt lat="42.3991" lon="42.58473">
        <ele>246.031752</ele>
        <time>2021-08-16T05:58:12.639Z</time>
      </trkpt>
      <trkpt lat="42.39903" lon="42.58488">
        <ele>246.389414</ele>
        <time>2021-08-16T05:58:17.927Z</time>
      </trkpt>
      <trkpt lat="42.39899" lon="42.58496">
        <ele>246.526566</ele>
        <time>2021-08-16T05:58:20.288Z</time>
      </trkpt>
      <trkpt lat="42.39881" lon="42.58515">
        <ele>246.985052</ele>
        <time>2021-08-16T05:58:28.527Z</time>
      </trkpt>
      <trkpt lat="42.3981" lon="42.5857">
        <ele>248.589257</ele>
        <time>2021-08-16T05:58:55.013Z</time>
      </trkpt>
      <trkpt lat="42.39758" lon="42.58626">
        <ele>249.883546</ele>
        <time>2021-08-16T05:59:14.808Z</time>
      </trkpt>
      <trkpt lat="42.39716" lon="42.58648">
        <ele>250.646819</ele>
        <time>2021-08-16T05:59:27.826Z</time>
      </trkpt>
      <trkpt lat="42.39708" lon="42.5865">
        <ele>250.792278</ele>
        <time>2021-08-16T05:59:30.577Z</time>
      </trkpt>
      <trkpt lat="42.39705" lon="42.58654">
        <ele>250.868249</ele>
        <time>2021-08-16T05:59:31.992Z</time>
      </trkpt>
      <trkpt lat="42.39655" lon="42.58689">
        <ele>251.816354</ele>
        <time>2021-08-16T05:59:49.168Z</time>
      </trkpt>
      <trkpt lat="42.39636" lon="42.5871">
        <ele>252.238633</ele>
        <time>2021-08-16T05:59:57.454Z</time>
      </trkpt>
      <trkpt lat="42.39627" lon="42.58729">
        <ele>252.516149</ele>
        <time>2021-08-16T06:00:02.817Z</time>
      </trkpt>
      <trkpt lat="42.39623" lon="42.58801">
        <ele>253.692139</ele>
        <time>2021-08-16T06:00:21.721Z</time>
      </trkpt>
      <trkpt lat="42.39649" lon="42.58923">
        <ele>255.983969</ele>
        <time>2021-08-16T06:00:55.012Z</time>
      </trkpt>
      <trkpt lat="42.39645" lon="42.59032">
        <ele>258.002716</ele>
        <time>2021-08-16T06:01:24.381Z</time>
      </trkpt>
      <trkpt lat="42.39641" lon="42.59054">
        <ele>258.433542</ele>
        <time>2021-08-16T06:01:30.468Z</time>
      </trkpt>
      <trkpt lat="42.39616" lon="42.59101">
        <ele>259.523973</ele>
        <time>2021-08-16T06:01:45.765Z</time>
      </trkpt>
      <trkpt lat="42.39608" lon="42.59128">
        <ele>260.07938</ele>
        <time>2021-08-16T06:01:53.539Z</time>
      </trkpt>
      <trkpt lat="42.39602" lon="42.59223">
        <ele>261.881171</ele>
        <time>2021-08-16T06:02:18.799Z</time>
      </trkpt>
      <trkpt lat="42.39601" lon="42.59424">
        <ele>265.360119</ele>
        <time>2021-08-16T06:03:12.100Z</time>
      </trkpt>
      <trkpt lat="42.39616" lon="42.59522">
        <ele>266.265394</ele>
        <time>2021-08-16T06:03:36.162Z</time>
      </trkpt>
      <trkpt lat="42.39613" lon="42.5956">
        <ele>266.393053</ele>
        <time>2021-08-16T06:03:44.473Z</time>
      </trkpt>
      <trkpt lat="42.39542" lon="42.5971">
        <ele>266.434773</ele>
        <time>2021-08-16T06:04:14.097Z</time>
      </trkpt>
      <trkpt lat="42.39499" lon="42.5976">
        <ele>265.414504</ele>
        <time>2021-08-16T06:04:25.043Z</time>
      </trkpt>
      <trkpt lat="42.39477" lon="42.59873">
        <ele>263.841761</ele>
        <time>2021-08-16T06:04:41.637Z</time>
      </trkpt>
      <trkpt lat="42.39463" lon="42.59907">
        <ele>263.106615</ele>
        <time>2021-08-16T06:04:46.871Z</time>
      </trkpt>
      <trkpt lat="42.39373" lon="42.59943">
        <ele>260.109698</ele>
        <time>2021-08-16T06:05:03.890Z</time>
      </trkpt>
      <trkpt lat="42.39367" lon="42.59937">
        <ele>259.854423</ele>
        <time>2021-08-16T06:05:05.298Z</time>
      </trkpt>
      <trkpt lat="42.39337" lon="42.59933">
        <ele>258.914889</ele>
        <time>2021-08-16T06:05:10.453Z</time>
      </trkpt>
      <trkpt lat="42.39323" lon="42.59941">
        <ele>258.420967</ele>
        <time>2021-08-16T06:05:13.143Z</time>
      </trkpt>
      <trkpt lat="42.39296" lon="42.59986">
        <ele>257.012099</ele>
        <time>2021-08-16T06:05:20.524Z</time>
      </trkpt>
      <trkpt lat="42.39282" lon="42.60001">
        <ele>256.400943</ele>
        <time>2021-08-16T06:05:23.631Z</time>
      </trkpt>
      <trkpt lat="42.39219" lon="42.6005">
        <ele>253.959673</ele>
        <time>2021-08-16T06:05:36.053Z</time>
      </trkpt>
      <trkpt lat="42.39207" lon="42.60081">
        <ele>253.076732</ele>
        <time>2021-08-16T06:05:40.621Z</time>
      </trkpt>
      <trkpt lat="42.39169" lon="42.60132">
        <ele>251.946258</ele>
        <time>2021-08-16T06:05:50.396Z</time>
      </trkpt>
      <trkpt lat="42.39123" lon="42.60242">
        <ele>252.899371</ele>
        <time>2021-08-16T06:06:15.622Z</time>
      </trkpt>
      <trkpt lat="42.39076" lon="42.60257">
        <ele>253.401655</ele>
        <time>2021-08-16T06:06:32.435Z</time>
      </trkpt>
      <trkpt lat="42.39067" lon="42.60256">
        <ele>253.495772</ele>
        <time>2021-08-16T06:06:37.209Z</time>
      </trkpt>
      <trkpt lat="42.39053" lon="42.60239">
        <ele>253.848576</ele>
        <time>2021-08-16T06:06:44.101Z</time>
      </trkpt>
      <trkpt lat="42.39046" lon="42.60222">
        <ele>254.406945</ele>
        <time>2021-08-16T06:06:50.348Z</time>
      </trkpt>
      <trkpt lat="42.39043" lon="42.60178">
        <ele>255.708034</ele>
        <time>2021-08-16T06:07:03.921Z</time>
      </trkpt>
      <trkpt lat="42.39046" lon="42.6006">
        <ele>259.163712</ele>
        <time>2021-08-16T06:07:45.057Z</time>
      </trkpt>
      <trkpt lat="42.39043" lon="42.60049">
        <ele>259.517991</ele>
        <time>2021-08-16T06:07:49.025Z</time>
      </trkpt>
      <trkpt lat="42.39028" lon="42.60036">
        <ele>260.249398</ele>
        <time>2021-08-16T06:07:56.701Z</time>
      </trkpt>
      <trkpt lat="42.39005" lon="42.60028">
        <ele>261.082538</ele>
        <time>2021-08-16T06:08:05.365Z</time>
      </trkpt>
      <trkpt lat="42.38911" lon="42.60029">
        <ele>264.022089</ele>
        <time>2021-08-16T06:08:41.348Z</time>
      </trkpt>
      <trkpt lat="42.3878" lon="42.59953">
        <ele>267.234513</ele>
        <time>2021-08-16T06:09:35.742Z</time>
      </trkpt>
      <trkpt lat="42.38763" lon="42.5994">
        <ele>267.487839</ele>
        <time>2021-08-16T06:09:42.671Z</time>
      </trkpt>
      <trkpt lat="42.3874" lon="42.59901">
        <ele>267.960207</ele>
        <time>2021-08-16T06:09:53.929Z</time>
      </trkpt>
      <trkpt lat="42.3861" lon="42.59797">
        <ele>266.153983</ele>
        <time>2021-08-16T06:10:24.866Z</time>
      </trkpt>
      <trkpt lat="42.38583" lon="42.59766">
        <ele>265.199868</ele>
        <time>2021-08-16T06:10:30.938Z</time>
      </trkpt>
      <trkpt lat="42.38562" lon="42.59754">
        <ele>264.581675</ele>
        <time>2021-08-16T06:10:34.827Z</time>
      </trkpt>
      <trkpt lat="42.38491" lon="42.59746">
        <ele>261.612348</ele>
        <time>2021-08-16T06:10:46.904Z</time>
      </trkpt>
      <trkpt lat="42.38392" lon="42.59758">
        <ele>256.611027</ele>
        <time>2021-08-16T06:11:03.489Z</time>
      </trkpt>
      <trkpt lat="42.38369" lon="42.59766">
        <ele>255.420957</ele>
        <time>2021-08-16T06:11:07.423Z</time>
      </trkpt>
      <trkpt lat="42.38355" lon="42.59797">
        <ele>253.752838</ele>
        <time>2021-08-16T06:11:11.766Z</time>
      </trkpt>
      <trkpt lat="42.38335" lon="42.59825">
        <ele>251.637447</ele>
        <time>2021-08-16T06:11:16.378Z</time>
      </trkpt>
      <trkpt lat="42.38303" lon="42.59867">
        <ele>248.385489</ele>
        <time>2021-08-16T06:11:23.338Z</time>
      </trkpt>
      <trkpt lat="42.38291" lon="42.59872">
        <ele>247.415265</ele>
        <time>2021-08-16T06:11:25.423Z</time>
      </trkpt>
      <trkpt lat="42.38275" lon="42.59871">
        <ele>246.231151</ele>
        <time>2021-08-16T06:11:27.881Z</time>
      </trkpt>
      <trkpt lat="42.38267" lon="42.59852">
        <ele>245.062059</ele>
        <time>2021-08-16T06:11:30.361Z</time>
      </trkpt>
      <trkpt lat="42.38197" lon="42.59852">
        <ele>239.558119</ele>
        <time>2021-08-16T06:11:40.946Z</time>
      </trkpt>
      <trkpt lat="42.38168" lon="42.59851">
        <ele>236.931673</ele>
        <time>2021-08-16T06:11:45.286Z</time>
      </trkpt>
      <trkpt lat="42.38105" lon="42.59791">
        <ele>229.946757</ele>
        <time>2021-08-16T06:11:56.830Z</time>
      </trkpt>
      <trkpt lat="42.38083" lon="42.5978">
        <ele>227.872828</ele>
        <time>2021-08-16T06:12:00.318Z</time>
      </trkpt>
      <trkpt lat="42.38039" lon="42.5978">
        <ele>224.080943</ele>
        <time>2021-08-16T06:12:07.081Z</time>
      </trkpt>
      <trkpt lat="42.3802" lon="42.59769">
        <ele>222.547069</ele>
        <time>2021-08-16T06:12:10.192Z</time>
      </trkpt>
      <trkpt lat="42.37975" lon="42.59713">
        <ele>217.91652</ele>
        <time>2021-08-16T06:12:19.817Z</time>
      </trkpt>
      <trkpt lat="42.37946" lon="42.59672">
        <ele>214.77915</ele>
        <time>2021-08-16T06:12:26.416Z</time>
      </trkpt>
      <trkpt lat="42.37941" lon="42.59666">
        <ele>214.254913</ele>
        <time>2021-08-16T06:12:27.435Z</time>
      </trkpt>
      <trkpt lat="42.3787" lon="42.59621">
        <ele>208.555598</ele>
        <time>2021-08-16T06:12:39.662Z</time>
      </trkpt>
      <trkpt lat="42.37836" lon="42.59586">
        <ele>205.483371</ele>
        <time>2021-08-16T06:12:46.412Z</time>
      </trkpt>
      <trkpt lat="42.3782" lon="42.59589">
        <ele>204.367998</ele>
        <time>2021-08-16T06:12:48.915Z</time>
      </trkpt>
      <trkpt lat="42.37787" lon="42.59632">
        <ele>201.113641</ele>
        <time>2021-08-16T06:12:56.085Z</time>
      </trkpt>
      <trkpt lat="42.37755" lon="42.59711">
        <ele>196.062389</ele>
        <time>2021-08-16T06:13:06.716Z</time>
      </trkpt>
      <trkpt lat="42.37741" lon="42.59738">
        <ele>194.117031</ele>
        <time>2021-08-16T06:13:10.487Z</time>
      </trkpt>
      <trkpt lat="42.37698" lon="42.59786">
        <ele>189.69075</ele>
        <time>2021-08-16T06:13:18.959Z</time>
      </trkpt>
      <trkpt lat="42.37688" lon="42.59816">
        <ele>187.76205</ele>
        <time>2021-08-16T06:13:22.623Z</time>
      </trkpt>
      <trkpt lat="42.37668" lon="42.59849">
        <ele>185.25358</ele>
        <time>2021-08-16T06:13:27.464Z</time>
      </trkpt>
      <trkpt lat="42.37655" lon="42.59889">
        <ele>183.136798</ele>
        <time>2021-08-16T06:13:32.421Z</time>
      </trkpt>
      <trkpt lat="42.37639" lon="42.5994">
        <ele>180.589801</ele>
        <time>2021-08-16T06:13:38.660Z</time>
      </trkpt>
      <trkpt lat="42.37638" lon="42.59966">
        <ele>179.413901</ele>
        <time>2021-08-16T06:13:41.580Z</time>
      </trkpt>
      <trkpt lat="42.37641" lon="42.59991">
        <ele>178.239499</ele>
        <time>2021-08-16T06:13:44.466Z</time>
      </trkpt>
      <trkpt lat="42.37636" lon="42.60005">
        <ele>177.544966</ele>
        <time>2021-08-16T06:13:46.204Z</time>
      </trkpt>
      <trkpt lat="42.37619" lon="42.60011">
        <ele>176.464426</ele>
        <time>2021-08-16T06:13:48.941Z</time>
      </trkpt>
      <trkpt lat="42.3761" lon="42.60016">
        <ele>175.836115</ele>
        <time>2021-08-16T06:13:50.482Z</time>
      </trkpt>
      <trkpt lat="42.37575" lon="42.60031">
        <ele>173.619708</ele>
        <time>2021-08-16T06:13:56.145Z</time>
      </trkpt>
      <trkpt lat="42.37549" lon="42.60047">
        <ele>172.980716</ele>
        <time>2021-08-16T06:14:01.070Z</time>
      </trkpt>
      <trkpt lat="42.37531" lon="42.60042">
        <ele>172.599753</ele>
        <time>2021-08-16T06:14:04.457Z</time>
      </trkpt>
      <trkpt lat="42.37498" lon="42.60028">
        <ele>171.928876</ele>
        <time>2021-08-16T06:14:10.573Z</time>
      </trkpt>
      <trkpt lat="42.37462" lon="42.59995">
        <ele>171.055169</ele>
        <time>2021-08-16T06:14:19.620Z</time>
      </trkpt>
      <trkpt lat="42.37355" lon="42.59941">
        <ele>169.395763</ele>
        <time>2021-08-16T06:14:42.226Z</time>
      </trkpt>
      <trkpt lat="42.37296" lon="42.59893">
        <ele>168.731945</ele>
        <time>2021-08-16T06:14:55.976Z</time>
      </trkpt>
      <trkpt lat="42.37267" lon="42.59888">
        <ele>168.456851</ele>
        <time>2021-08-16T06:15:01.723Z</time>
      </trkpt>
      <trkpt lat="42.37247" lon="42.59891">
        <ele>168.263924</ele>
        <time>2021-08-16T06:15:05.771Z</time>
      </trkpt>
      <trkpt lat="42.37215" lon="42.59902">
        <ele>168.033319</ele>
        <time>2021-08-16T06:15:12.277Z</time>
      </trkpt>
      <trkpt lat="42.37093" lon="42.59907">
        <ele>167.21622</ele>
        <time>2021-08-16T06:15:37.250Z</time>
      </trkpt>
      <trkpt lat="42.37059" lon="42.59911">
        <ele>166.973756</ele>
        <time>2021-08-16T06:15:44.432Z</time>
      </trkpt>
      <trkpt lat="42.37029" lon="42.59918">
        <ele>166.699313</ele>
        <time>2021-08-16T06:15:51.086Z</time>
      </trkpt>
      <trkpt lat="42.36997" lon="42.59932">
        <ele>166.402617</ele>
        <time>2021-08-16T06:15:58.335Z</time>
      </trkpt>
      <trkpt lat="42.36911" lon="42.59987">
        <ele>165.554708</ele>
        <time>2021-08-16T06:16:17.154Z</time>
      </trkpt>
      <trkpt lat="42.36866" lon="42.60006">
        <ele>164.704827</ele>
        <time>2021-08-16T06:16:26.087Z</time>
      </trkpt>
      <trkpt lat="42.36849" lon="42.6001">
        <ele>164.321592</ele>
        <time>2021-08-16T06:16:29.413Z</time>
      </trkpt>
      <trkpt lat="42.36833" lon="42.60012">
        <ele>163.96707</ele>
        <time>2021-08-16T06:16:32.186Z</time>
      </trkpt>
      <trkpt lat="42.36789" lon="42.60004">
        <ele>162.978234</ele>
        <time>2021-08-16T06:16:40.221Z</time>
      </trkpt>
      <trkpt lat="42.36745" lon="42.60009">
        <ele>162.017015</ele>
        <time>2021-08-16T06:16:47.888Z</time>
      </trkpt>
      <trkpt lat="42.36726" lon="42.60016">
        <ele>161.579609</ele>
        <time>2021-08-16T06:16:51.257Z</time>
      </trkpt>
      <trkpt lat="42.36706" lon="42.60038">
        <ele>160.953044</ele>
        <time>2021-08-16T06:16:55.790Z</time>
      </trkpt>
      <trkpt lat="42.36681" lon="42.60056">
        <ele>160.225842</ele>
        <time>2021-08-16T06:17:00.845Z</time>
      </trkpt>
      <trkpt lat="42.36644" lon="42.60062">
        <ele>159.292722</ele>
        <time>2021-08-16T06:17:07.569Z</time>
      </trkpt>
      <trkpt lat="42.36608" lon="42.60054">
        <ele>158.377655</ele>
        <time>2021-08-16T06:17:14.115Z</time>
      </trkpt>
      <trkpt lat="42.36552" lon="42.6007">
        <ele>156.951697</ele>
        <time>2021-08-16T06:17:24.226Z</time>
      </trkpt>
      <trkpt lat="42.36529" lon="42.6007">
        <ele>156.269863</ele>
        <time>2021-08-16T06:17:28.331Z</time>
      </trkpt>
      <trkpt lat="42.36488" lon="42.6006">
        <ele>155.034423</ele>
        <time>2021-08-16T06:17:35.706Z</time>
      </trkpt>
      <trkpt lat="42.36411" lon="42.60045">
        <ele>152.723053</ele>
        <time>2021-08-16T06:17:49.173Z</time>
      </trkpt>
      <trkpt lat="42.36359" lon="42.60042">
        <ele>151.298444</ele>
        <time>2021-08-16T06:17:57.872Z</time>
      </trkpt>
      <trkpt lat="42.36317" lon="42.60056">
        <ele>150.394858</ele>
        <time>2021-08-16T06:18:05.023Z</time>
      </trkpt>
      <trkpt lat="42.36287" lon="42.60058">
        <ele>149.768581</ele>
        <time>2021-08-16T06:18:10.168Z</time>
      </trkpt>
      <trkpt lat="42.36262" lon="42.60056">
        <ele>149.237887</ele>
        <time>2021-08-16T06:18:14.571Z</time>
      </trkpt>
      <trkpt lat="42.36252" lon="42.60128">
        <ele>148.096497</ele>
        <time>2021-08-16T06:18:25.100Z</time>
      </trkpt>
      <trkpt lat="42.36216" lon="42.60359">
        <ele>151.366634</ele>
        <time>2021-08-16T06:19:19.594Z</time>
      </trkpt>
      <trkpt lat="42.36195" lon="42.60441">
        <ele>154.918928</ele>
        <time>2021-08-16T06:19:55.243Z</time>
      </trkpt>
      <trkpt lat="42.36179" lon="42.60546">
        <ele>160.468876</ele>
        <time>2021-08-16T06:20:44.997Z</time>
      </trkpt>
      <trkpt lat="42.36179" lon="42.60633">
        <ele>164.755625</ele>
        <time>2021-08-16T06:21:25.570Z</time>
      </trkpt>
      <trkpt lat="42.36152" lon="42.60697">
        <ele>167.221801</ele>
        <time>2021-08-16T06:21:56.743Z</time>
      </trkpt>
      <trkpt lat="42.36102" lon="42.60803">
        <ele>171.40187</ele>
        <time>2021-08-16T06:22:37.332Z</time>
      </trkpt>
      <trkpt lat="42.36062" lon="42.60852">
        <ele>172.901452</ele>
        <time>2021-08-16T06:22:51.024Z</time>
      </trkpt>
      <trkpt lat="42.36017" lon="42.60868">
        <ele>173.506513</ele>
        <time>2021-08-16T06:23:02.596Z</time>
      </trkpt>
      <trkpt lat="42.35968" lon="42.60872">
        <ele>174.136193</ele>
        <time>2021-08-16T06:23:16.387Z</time>
      </trkpt>
      <trkpt lat="42.35942" lon="42.60889">
        <ele>174.508807</ele>
        <time>2021-08-16T06:23:24.508Z</time>
      </trkpt>
      <trkpt lat="42.35925" lon="42.60932">
        <ele>175.212143</ele>
        <time>2021-08-16T06:23:36.311Z</time>
      </trkpt>
      <trkpt lat="42.35921" lon="42.61">
        <ele>177.146413</ele>
        <time>2021-08-16T06:23:55.710Z</time>
      </trkpt>
      <trkpt lat="42.35882" lon="42.6113">
        <ele>181.097854</ele>
        <time>2021-08-16T06:24:45.137Z</time>
      </trkpt>
      <trkpt lat="42.35826" lon="42.61374">
        <ele>187.137949</ele>
        <time>2021-08-16T06:26:04.079Z</time>
      </trkpt>
      <trkpt lat="42.35816" lon="42.61442">
        <ele>186.162883</ele>
        <time>2021-08-16T06:26:15.621Z</time>
      </trkpt>
      <trkpt lat="42.35804" lon="42.6145">
        <ele>185.804254</ele>
        <time>2021-08-16T06:26:17.895Z</time>
      </trkpt>
      <trkpt lat="42.35787" lon="42.61533">
        <ele>184.08016</ele>
        <time>2021-08-16T06:26:29.637Z</time>
      </trkpt>
      <trkpt lat="42.3578" lon="42.61546">
        <ele>183.779317</ele>
        <time>2021-08-16T06:26:31.476Z</time>
      </trkpt>
      <trkpt lat="42.35773" lon="42.61547">
        <ele>183.584239</ele>
        <time>2021-08-16T06:26:32.754Z</time>
      </trkpt>
      <trkpt lat="42.35726" lon="42.61505">
        <ele>181.506841</ele>
        <time>2021-08-16T06:26:41.906Z</time>
      </trkpt>
      <trkpt lat="42.35556" lon="42.6145">
        <ele>170.832493</ele>
        <time>2021-08-16T06:27:09.884Z</time>
      </trkpt>
      <trkpt lat="42.35508" lon="42.61447">
        <ele>167.802669</ele>
        <time>2021-08-16T06:27:17.561Z</time>
      </trkpt>
      <trkpt lat="42.35447" lon="42.61442">
        <ele>163.968008</ele>
        <time>2021-08-16T06:27:27.242Z</time>
      </trkpt>
      <trkpt lat="42.35416" lon="42.61439">
        <ele>162.038492</ele>
        <time>2021-08-16T06:27:32.185Z</time>
      </trkpt>
      <trkpt lat="42.3539" lon="42.61445">
        <ele>160.408636</ele>
        <time>2021-08-16T06:27:36.455Z</time>
      </trkpt>
      <trkpt lat="42.35351" lon="42.61439">
        <ele>158.783084</ele>
        <time>2021-08-16T06:27:43.004Z</time>
      </trkpt>
      <trkpt lat="42.35333" lon="42.61443">
        <ele>158.04918</ele>
        <time>2021-08-16T06:27:46.046Z</time>
      </trkpt>
      <trkpt lat="42.35267" lon="42.61467">
        <ele>155.346443</ele>
        <time>2021-08-16T06:27:57.680Z</time>
      </trkpt>
      <trkpt lat="42.35236" lon="42.61488">
        <ele>153.942</ele>
        <time>2021-08-16T06:28:04.028Z</time>
      </trkpt>
      <trkpt lat="42.35163" lon="42.6156">
        <ele>152.22561</ele>
        <time>2021-08-16T06:28:21.463Z</time>
      </trkpt>
      <trkpt lat="42.35128" lon="42.61595">
        <ele>151.663873</ele>
        <time>2021-08-16T06:28:30.543Z</time>
      </trkpt>
      <trkpt lat="42.35081" lon="42.6164">
        <ele>150.935243</ele>
        <time>2021-08-16T06:28:42.795Z</time>
      </trkpt>
      <trkpt lat="42.35009" lon="42.61668">
        <ele>150.776547</ele>
        <time>2021-08-16T06:28:59.580Z</time>
      </trkpt>
      <trkpt lat="42.34939" lon="42.6168">
        <ele>150.74566</ele>
        <time>2021-08-16T06:29:17.354Z</time>
      </trkpt>
      <trkpt lat="42.34897" lon="42.61641">
        <ele>150.705078</ele>
        <time>2021-08-16T06:29:29.555Z</time>
      </trkpt>
      <trkpt lat="42.34759" lon="42.61538">
        <ele>150.25282</ele>
        <time>2021-08-16T06:30:03.553Z</time>
      </trkpt>
      <trkpt lat="42.34639" lon="42.61477">
        <ele>151.606316</ele>
        <time>2021-08-16T06:30:36.228Z</time>
      </trkpt>
      <trkpt lat="42.34587" lon="42.61462">
        <ele>152.257595</ele>
        <time>2021-08-16T06:30:53.247Z</time>
      </trkpt>
      <trkpt lat="42.34505" lon="42.61454">
        <ele>155.083711</ele>
        <time>2021-08-16T06:31:28.577Z</time>
      </trkpt>
      <trkpt lat="42.34438" lon="42.61464">
        <ele>157.72306</ele>
        <time>2021-08-16T06:32:00.224Z</time>
      </trkpt>
      <trkpt lat="42.34414" lon="42.61465">
        <ele>158.661974</ele>
        <time>2021-08-16T06:32:10.948Z</time>
      </trkpt>
      <trkpt lat="42.34394" lon="42.61478">
        <ele>159.480739</ele>
        <time>2021-08-16T06:32:20.205Z</time>
      </trkpt>
      <trkpt lat="42.34369" lon="42.61478">
        <ele>159.889962</ele>
        <time>2021-08-16T06:32:30.096Z</time>
      </trkpt>
      <trkpt lat="42.34339" lon="42.61483">
        <ele>160.387294</ele>
        <time>2021-08-16T06:32:41.876Z</time>
      </trkpt>
      <trkpt lat="42.34205" lon="42.61575">
        <ele>162.04864</ele>
        <time>2021-08-16T06:33:23.120Z</time>
      </trkpt>
      <trkpt lat="42.34182" lon="42.61581">
        <ele>161.735894</ele>
        <time>2021-08-16T06:33:27.911Z</time>
      </trkpt>
      <trkpt lat="42.34096" lon="42.61541">
        <ele>160.555423</ele>
        <time>2021-08-16T06:33:45.615Z</time>
      </trkpt>
      <trkpt lat="42.34063" lon="42.61543">
        <ele>160.128746</ele>
        <time>2021-08-16T06:33:51.963Z</time>
      </trkpt>
      <trkpt lat="42.3394" lon="42.61567">
        <ele>156.380483</ele>
        <time>2021-08-16T06:34:14.895Z</time>
      </trkpt>
      <trkpt lat="42.33899" lon="42.61565">
        <ele>155.151563</ele>
        <time>2021-08-16T06:34:21.856Z</time>
      </trkpt>
      <trkpt lat="42.33861" lon="42.61519">
        <ele>153.315793</ele>
        <time>2021-08-16T06:34:30.737Z</time>
      </trkpt>
      <trkpt lat="42.33839" lon="42.61468">
        <ele>151.609234</ele>
        <time>2021-08-16T06:34:38.274Z</time>
      </trkpt>
      <trkpt lat="42.33826" lon="42.61407">
        <ele>149.767761</ele>
        <time>2021-08-16T06:34:46.466Z</time>
      </trkpt>
      <trkpt lat="42.33814" lon="42.61374">
        <ele>148.703032</ele>
        <time>2021-08-16T06:34:51.133Z</time>
      </trkpt>
      <trkpt lat="42.33784" lon="42.61348">
        <ele>147.292734</ele>
        <time>2021-08-16T06:34:57.240Z</time>
      </trkpt>
      <trkpt lat="42.33739" lon="42.61273">
        <ele>144.125664</ele>
        <time>2021-08-16T06:35:10.294Z</time>
      </trkpt>
      <trkpt lat="42.3369" lon="42.61163">
        <ele>139.911979</ele>
        <time>2021-08-16T06:35:26.294Z</time>
      </trkpt>
      <trkpt lat="42.33663" lon="42.61083">
        <ele>135.488645</ele>
        <time>2021-08-16T06:35:36.650Z</time>
      </trkpt>
      <trkpt lat="42.33654" lon="42.6106">
        <ele>134.166763</ele>
        <time>2021-08-16T06:35:39.458Z</time>
      </trkpt>
      <trkpt lat="42.33627" lon="42.6104">
        <ele>132.003241</ele>
        <time>2021-08-16T06:35:44.132Z</time>
      </trkpt>
      <trkpt lat="42.33565" lon="42.61">
        <ele>127.094339</ele>
        <time>2021-08-16T06:35:54.910Z</time>
      </trkpt>
      <trkpt lat="42.33527" lon="42.60978">
        <ele>126.138493</ele>
        <time>2021-08-16T06:36:01.466Z</time>
      </trkpt>
      <trkpt lat="42.33525" lon="42.60995">
        <ele>125.911743</ele>
        <time>2021-08-16T06:36:03.637Z</time>
      </trkpt>
      <trkpt lat="42.33513" lon="42.61042">
        <ele>125.23764</ele>
        <time>2021-08-16T06:36:10.330Z</time>
      </trkpt>
      <trkpt lat="42.33505" lon="42.61067">
        <ele>124.876122</ele>
        <time>2021-08-16T06:36:14.315Z</time>
      </trkpt>
      <trkpt lat="42.33501" lon="42.6108">
        <ele>124.680999</ele>
        <time>2021-08-16T06:36:17.186Z</time>
      </trkpt>
      <trkpt lat="42.33458" lon="42.61152">
        <ele>123.747254</ele>
        <time>2021-08-16T06:36:37.172Z</time>
      </trkpt>
      <trkpt lat="42.33432" lon="42.61258">
        <ele>126.449169</ele>
        <time>2021-08-16T06:37:15.940Z</time>
      </trkpt>
      <trkpt lat="42.3343" lon="42.61318">
        <ele>127.897651</ele>
        <time>2021-08-16T06:37:34.277Z</time>
      </trkpt>
      <trkpt lat="42.33425" lon="42.61342">
        <ele>128.507068</ele>
        <time>2021-08-16T06:37:40.623Z</time>
      </trkpt>
      <trkpt lat="42.33409" lon="42.61363">
        <ele>129.248315</ele>
        <time>2021-08-16T06:37:49.620Z</time>
      </trkpt>
      <trkpt lat="42.33377" lon="42.61331">
        <ele>129.666556</ele>
        <time>2021-08-16T06:38:02.889Z</time>
      </trkpt>
      <trkpt lat="42.3334" lon="42.61288">
        <ele>130.001231</ele>
        <time>2021-08-16T06:38:17.477Z</time>
      </trkpt>
      <trkpt lat="42.33302" lon="42.61228">
        <ele>130.396998</ele>
        <time>2021-08-16T06:38:32.444Z</time>
      </trkpt>
      <trkpt lat="42.33296" lon="42.61223">
        <ele>130.448479</ele>
        <time>2021-08-16T06:38:33.895Z</time>
      </trkpt>
      <trkpt lat="42.33282" lon="42.61231">
        <ele>130.548447</ele>
        <time>2021-08-16T06:38:36.924Z</time>
      </trkpt>
      <trkpt lat="42.3327" lon="42.61244">
        <ele>130.657192</ele>
        <time>2021-08-16T06:38:39.993Z</time>
      </trkpt>
      <trkpt lat="42.33226" lon="42.61265">
        <ele>129.921079</ele>
        <time>2021-08-16T06:38:49.566Z</time>
      </trkpt>
      <trkpt lat="42.33138" lon="42.61284">
        <ele>128.474119</ele>
        <time>2021-08-16T06:39:07.267Z</time>
      </trkpt>
      <trkpt lat="42.33042" lon="42.61316">
        <ele>126.656075</ele>
        <time>2021-08-16T06:39:25.647Z</time>
      </trkpt>
      <trkpt lat="42.32988" lon="42.61315">
        <ele>125.559635</ele>
        <time>2021-08-16T06:39:35.683Z</time>
      </trkpt>
      <trkpt lat="42.32962" lon="42.61327">
        <ele>125.001322</ele>
        <time>2021-08-16T06:39:40.883Z</time>
      </trkpt>
      <trkpt lat="42.32934" lon="42.61322">
        <ele>124.41884</ele>
        <time>2021-08-16T06:39:46.470Z</time>
      </trkpt>
      <trkpt lat="42.32891" lon="42.61285">
        <ele>124.462542</ele>
        <time>2021-08-16T06:39:57.052Z</time>
      </trkpt>
      <trkpt lat="42.32859" lon="42.61276">
        <ele>124.823509</ele>
        <time>2021-08-16T06:40:04.914Z</time>
      </trkpt>
      <trkpt lat="42.32803" lon="42.61354">
        <ele>125.702586</ele>
        <time>2021-08-16T06:40:29.762Z</time>
      </trkpt>
      <trkpt lat="42.32793" lon="42.61352">
        <ele>125.807853</ele>
        <time>2021-08-16T06:40:33.179Z</time>
      </trkpt>
      <trkpt lat="42.32785" lon="42.61372">
        <ele>125.988686</ele>
        <time>2021-08-16T06:40:39.776Z</time>
      </trkpt>
      <trkpt lat="42.3276" lon="42.61403">
        <ele>126.94315</ele>
        <time>2021-08-16T06:40:54.047Z</time>
      </trkpt>
      <trkpt lat="42.32741" lon="42.61411">
        <ele>127.553763</ele>
        <time>2021-08-16T06:41:01.699Z</time>
      </trkpt>
      <trkpt lat="42.32717" lon="42.6141">
        <ele>128.317206</ele>
        <time>2021-08-16T06:41:12.168Z</time>
      </trkpt>
      <trkpt lat="42.32698" lon="42.61403">
        <ele>128.925438</ele>
        <time>2021-08-16T06:41:19.468Z</time>
      </trkpt>
      <trkpt lat="42.32668" lon="42.61385">
        <ele>129.947432</ele>
        <time>2021-08-16T06:41:32.278Z</time>
      </trkpt>
      <trkpt lat="42.32635" lon="42.61357">
        <ele>131.158217</ele>
        <time>2021-08-16T06:41:46.781Z</time>
      </trkpt>
      <trkpt lat="42.32627" lon="42.61339">
        <ele>131.644972</ele>
        <time>2021-08-16T06:41:52.564Z</time>
      </trkpt>
      <trkpt lat="42.32626" lon="42.61317">
        <ele>131.669484</ele>
        <time>2021-08-16T06:41:58.055Z</time>
      </trkpt>
      <trkpt lat="42.32638" lon="42.61242">
        <ele>131.630862</ele>
        <time>2021-08-16T06:42:15.890Z</time>
      </trkpt>
      <trkpt lat="42.32637" lon="42.61217">
        <ele>131.61811</ele>
        <time>2021-08-16T06:42:20.544Z</time>
      </trkpt>
      <trkpt lat="42.32631" lon="42.61194">
        <ele>131.605486</ele>
        <time>2021-08-16T06:42:24.411Z</time>
      </trkpt>
      <trkpt lat="42.32621" lon="42.61175">
        <ele>131.593807</ele>
        <time>2021-08-16T06:42:27.721Z</time>
      </trkpt>
      <trkpt lat="42.32611" lon="42.61168">
        <ele>131.586097</ele>
        <time>2021-08-16T06:42:29.781Z</time>
      </trkpt>
      <trkpt lat="42.32596" lon="42.61162">
        <ele>131.575091</ele>
        <time>2021-08-16T06:42:32.647Z</time>
      </trkpt>
      <trkpt lat="42.32558" lon="42.61159">
        <ele>131.180111</ele>
        <time>2021-08-16T06:42:39.208Z</time>
      </trkpt>
      <trkpt lat="42.32519" lon="42.61155">
        <ele>129.807632</ele>
        <time>2021-08-16T06:42:45.990Z</time>
      </trkpt>
      <trkpt lat="42.32482" lon="42.61148">
        <ele>128.498313</ele>
        <time>2021-08-16T06:42:52.305Z</time>
      </trkpt>
      <trkpt lat="42.32441" lon="42.6114">
        <ele>127.070648</ele>
        <time>2021-08-16T06:42:59.053Z</time>
      </trkpt>
      <trkpt lat="42.32421" lon="42.61136">
        <ele>126.373672</ele>
        <time>2021-08-16T06:43:02.299Z</time>
      </trkpt>
      <trkpt lat="42.324" lon="42.61131">
        <ele>125.614605</ele>
        <time>2021-08-16T06:43:05.876Z</time>
      </trkpt>
      <trkpt lat="42.32385" lon="42.61127">
        <ele>125.180918</ele>
        <time>2021-08-16T06:43:08.295Z</time>
      </trkpt>
      <trkpt lat="42.3236" lon="42.61122">
        <ele>124.683426</ele>
        <time>2021-08-16T06:43:12.558Z</time>
      </trkpt>
      <trkpt lat="42.3236" lon="42.61122">
        <ele>124.683426</ele>
        <time>2021-08-16T06:43:12.568Z</time>
      </trkpt>
      <trkpt lat="42.32343" lon="42.61118">
        <ele>124.34167</ele>
        <time>2021-08-16T06:43:15.550Z</time>
      </trkpt>
      <trkpt lat="42.32284" lon="42.61104">
        <ele>123.175709</ele>
        <time>2021-08-16T06:43:26.857Z</time>
      </trkpt>
      <trkpt lat="42.32268" lon="42.61099">
        <ele>122.849163</ele>
        <time>2021-08-16T06:43:30.194Z</time>
      </trkpt>
      <trkpt lat="42.32195" lon="42.61065">
        <ele>121.483077</ele>
        <time>2021-08-16T06:43:45.689Z</time>
      </trkpt>
      <trkpt lat="42.3216" lon="42.61049">
        <ele>120.983472</ele>
        <time>2021-08-16T06:43:53.422Z</time>
      </trkpt>
      <trkpt lat="42.32146" lon="42.61045">
        <ele>120.789177</ele>
        <time>2021-08-16T06:43:56.906Z</time>
      </trkpt>
      <trkpt lat="42.3213" lon="42.61119">
        <ele>120.026109</ele>
        <time>2021-08-16T06:44:07.843Z</time>
      </trkpt>
      <trkpt lat="42.32116" lon="42.61186">
        <ele>119.309954</ele>
        <time>2021-08-16T06:44:17.367Z</time>
      </trkpt>
      <trkpt lat="42.32108" lon="42.61228">
        <ele>118.571602</ele>
        <time>2021-08-16T06:44:22.901Z</time>
      </trkpt>
      <trkpt lat="42.32102" lon="42.6125">
        <ele>118.184104</ele>
        <time>2021-08-16T06:44:25.762Z</time>
      </trkpt>
      <trkpt lat="42.32095" lon="42.61266">
        <ele>117.863249</ele>
        <time>2021-08-16T06:44:28.035Z</time>
      </trkpt>
      <trkpt lat="42.32045" lon="42.61368">
        <ele>115.789206</ele>
        <time>2021-08-16T06:44:44.242Z</time>
      </trkpt>
      <trkpt lat="42.32028" lon="42.61403">
        <ele>115.310668</ele>
        <time>2021-08-16T06:44:50.044Z</time>
      </trkpt>
      <trkpt lat="42.32013" lon="42.61429">
        <ele>115.621822</ele>
        <time>2021-08-16T06:44:54.887Z</time>
      </trkpt>
      <trkpt lat="42.32008" lon="42.61439">
        <ele>115.734203</ele>
        <time>2021-08-16T06:44:56.672Z</time>
      </trkpt>
      <trkpt lat="42.32004" lon="42.61447">
        <ele>115.82832</ele>
        <time>2021-08-16T06:44:58.751Z</time>
      </trkpt>
      <trkpt lat="42.31963" lon="42.61529">
        <ele>116.769067</ele>
        <time>2021-08-16T06:45:19.677Z</time>
      </trkpt>
      <trkpt lat="42.31923" lon="42.61613">
        <ele>118.062527</ele>
        <time>2021-08-16T06:45:48.642Z</time>
      </trkpt>
      <trkpt lat="42.31912" lon="42.61635">
        <ele>118.75282</ele>
        <time>2021-08-16T06:45:56.467Z</time>
      </trkpt>
      <trkpt lat="42.31874" lon="42.61716">
        <ele>121.308248</ele>
        <time>2021-08-16T06:46:26.130Z</time>
      </trkpt>
      <trkpt lat="42.31831" lon="42.61813">
        <ele>124.216301</ele>
        <time>2021-08-16T06:47:00.101Z</time>
      </trkpt>
      <trkpt lat="42.31798" lon="42.61884">
        <ele>125.58675</ele>
        <time>2021-08-16T06:47:22.935Z</time>
      </trkpt>
      <trkpt lat="42.31753" lon="42.61986">
        <ele>127.529168</ele>
        <time>2021-08-16T06:47:50.524Z</time>
      </trkpt>
      <trkpt lat="42.31736" lon="42.62046">
        <ele>128.293203</ele>
        <time>2021-08-16T06:48:03.585Z</time>
      </trkpt>
      <trkpt lat="42.31737" lon="42.62181">
        <ele>129.388793</ele>
        <time>2021-08-16T06:48:30.604Z</time>
      </trkpt>
      <trkpt lat="42.31729" lon="42.6222">
        <ele>129.716977</ele>
        <time>2021-08-16T06:48:39.009Z</time>
      </trkpt>
      <trkpt lat="42.31725" lon="42.62238">
        <ele>129.869702</ele>
        <time>2021-08-16T06:48:42.902Z</time>
      </trkpt>
      <trkpt lat="42.31707" lon="42.62301">
        <ele>130.726442</ele>
        <time>2021-08-16T06:48:57.178Z</time>
      </trkpt>
      <trkpt lat="42.31684" lon="42.62359">
        <ele>131.642047</ele>
        <time>2021-08-16T06:49:11.906Z</time>
      </trkpt>
      <trkpt lat="42.31679" lon="42.62372">
        <ele>131.843097</ele>
        <time>2021-08-16T06:49:15.259Z</time>
      </trkpt>
      <trkpt lat="42.31646" lon="42.6245">
        <ele>133.092331</ele>
        <time>2021-08-16T06:49:37.572Z</time>
      </trkpt>
      <trkpt lat="42.31597" lon="42.62544">
        <ele>135.394887</ele>
        <time>2021-08-16T06:50:07.770Z</time>
      </trkpt>
      <trkpt lat="42.31567" lon="42.62606">
        <ele>136.954957</ele>
        <time>2021-08-16T06:50:28.504Z</time>
      </trkpt>
      <trkpt lat="42.31539" lon="42.62665">
        <ele>138.438303</ele>
        <time>2021-08-16T06:50:47.161Z</time>
      </trkpt>
      <trkpt lat="42.31532" lon="42.62691">
        <ele>139.086984</ele>
        <time>2021-08-16T06:50:55.474Z</time>
      </trkpt>
      <trkpt lat="42.31526" lon="42.62741">
        <ele>140.255335</ele>
        <time>2021-08-16T06:51:10.122Z</time>
      </trkpt>
      <trkpt lat="42.31474" lon="42.62738">
        <ele>141.895703</ele>
        <time>2021-08-16T06:51:30.341Z</time>
      </trkpt>
      <trkpt lat="42.31426" lon="42.6273">
        <ele>143.396902</ele>
        <time>2021-08-16T06:51:49.046Z</time>
      </trkpt>
      <trkpt lat="42.31397" lon="42.62743">
        <ele>144.373037</ele>
        <time>2021-08-16T06:52:00.640Z</time>
      </trkpt>
      <trkpt lat="42.31379" lon="42.62754">
        <ele>145.113258</ele>
        <time>2021-08-16T06:52:08.610Z</time>
      </trkpt>
      <trkpt lat="42.31355" lon="42.62778">
        <ele>146.175796</ele>
        <time>2021-08-16T06:52:19.701Z</time>
      </trkpt>
      <trkpt lat="42.31345" lon="42.62796">
        <ele>146.78896</ele>
        <time>2021-08-16T06:52:26.261Z</time>
      </trkpt>
      <trkpt lat="42.31338" lon="42.62834">
        <ele>147.831515</ele>
        <time>2021-08-16T06:52:37.952Z</time>
      </trkpt>
      <trkpt lat="42.31333" lon="42.63013">
        <ele>153.066201</ele>
        <time>2021-08-16T06:53:36.365Z</time>
      </trkpt>
      <trkpt lat="42.31323" lon="42.63166">
        <ele>158.076346</ele>
        <time>2021-08-16T06:54:30.485Z</time>
      </trkpt>
      <trkpt lat="42.31314" lon="42.63236">
        <ele>159.465437</ele>
        <time>2021-08-16T06:54:52.815Z</time>
      </trkpt>
      <trkpt lat="42.31236" lon="42.63339">
        <ele>161.794648</ele>
        <time>2021-08-16T06:55:28.354Z</time>
      </trkpt>
      <trkpt lat="42.31167" lon="42.63476">
        <ele>163.17263</ele>
        <time>2021-08-16T06:55:55.055Z</time>
      </trkpt>
      <trkpt lat="42.31118" lon="42.63546">
        <ele>163.743504</ele>
        <time>2021-08-16T06:56:16.316Z</time>
      </trkpt>
      <trkpt lat="42.31093" lon="42.63563">
        <ele>164.054404</ele>
        <time>2021-08-16T06:56:24.672Z</time>
      </trkpt>
      <trkpt lat="42.31057" lon="42.6358">
        <ele>164.659463</ele>
        <time>2021-08-16T06:56:36.607Z</time>
      </trkpt>
      <trkpt lat="42.31027" lon="42.63592">
        <ele>165.15117</ele>
        <time>2021-08-16T06:56:46.258Z</time>
      </trkpt>
      <trkpt lat="42.30998" lon="42.63588">
        <ele>165.60474</ele>
        <time>2021-08-16T06:56:55.454Z</time>
      </trkpt>
      <trkpt lat="42.30981" lon="42.63572">
        <ele>165.923084</ele>
        <time>2021-08-16T06:57:02.709Z</time>
      </trkpt>
      <trkpt lat="42.30922" lon="42.63519">
        <ele>166.356463</ele>
        <time>2021-08-16T06:57:23.432Z</time>
      </trkpt>
      <trkpt lat="42.30919" lon="42.63572">
        <ele>165.749046</ele>
        <time>2021-08-16T06:57:37.402Z</time>
      </trkpt>
      <trkpt lat="42.30914" lon="42.63593">
        <ele>165.49338</ele>
        <time>2021-08-16T06:57:42.784Z</time>
      </trkpt>
      <trkpt lat="42.30883" lon="42.63636">
        <ele>164.795194</ele>
        <time>2021-08-16T06:57:57.182Z</time>
      </trkpt>
      <trkpt lat="42.30824" lon="42.63679">
        <ele>163.554762</ele>
        <time>2021-08-16T06:58:17.615Z</time>
      </trkpt>
      <trkpt lat="42.30806" lon="42.63731">
        <ele>161.758378</ele>
        <time>2021-08-16T06:58:30.492Z</time>
      </trkpt>
      <trkpt lat="42.30753" lon="42.63992">
        <ele>153.751248</ele>
        <time>2021-08-16T06:59:29.289Z</time>
      </trkpt>
      <trkpt lat="42.30754" lon="42.64017">
        <ele>153.081</ele>
        <time>2021-08-16T06:59:34.846Z</time>
      </trkpt>
      <trkpt lat="42.30751" lon="42.64024">
        <ele>152.861524</ele>
        <time>2021-08-16T06:59:36.697Z</time>
      </trkpt>
      <trkpt lat="42.3074" lon="42.64023">
        <ele>152.448502</ele>
        <time>2021-08-16T06:59:40.104Z</time>
      </trkpt>
      <trkpt lat="42.30737" lon="42.64009">
        <ele>152.052534</ele>
        <time>2021-08-16T06:59:43.441Z</time>
      </trkpt>
      <trkpt lat="42.30732" lon="42.63909">
        <ele>149.563789</ele>
        <time>2021-08-16T07:00:06.427Z</time>
      </trkpt>
      <trkpt lat="42.30727" lon="42.63887">
        <ele>149.220626</ele>
        <time>2021-08-16T07:00:11.935Z</time>
      </trkpt>
      <trkpt lat="42.3072" lon="42.63876">
        <ele>149.003195</ele>
        <time>2021-08-16T07:00:15.455Z</time>
      </trkpt>
      <trkpt lat="42.3071" lon="42.63873">
        <ele>148.798968</ele>
        <time>2021-08-16T07:00:18.785Z</time>
      </trkpt>
      <trkpt lat="42.30696" lon="42.63875">
        <ele>148.516565</ele>
        <time>2021-08-16T07:00:23.401Z</time>
      </trkpt>
      <trkpt lat="42.30663" lon="42.63905">
        <ele>147.737299</ele>
        <time>2021-08-16T07:00:36.196Z</time>
      </trkpt>
      <trkpt lat="42.30633" lon="42.63962">
        <ele>146.714145</ele>
        <time>2021-08-16T07:00:53.205Z</time>
      </trkpt>
      <trkpt lat="42.30622" lon="42.63974">
        <ele>146.428096</ele>
        <time>2021-08-16T07:00:58.020Z</time>
      </trkpt>
      <trkpt lat="42.3059" lon="42.63979">
        <ele>146.362605</ele>
        <time>2021-08-16T07:01:08.645Z</time>
      </trkpt>
      <trkpt lat="42.3055" lon="42.63969">
        <ele>146.637896</ele>
        <time>2021-08-16T07:01:22.658Z</time>
      </trkpt>
      <trkpt lat="42.3053" lon="42.63974">
        <ele>146.772908</ele>
        <time>2021-08-16T07:01:30.318Z</time>
      </trkpt>
      <trkpt lat="42.30474" lon="42.64011">
        <ele>147.193901</ele>
        <time>2021-08-16T07:01:57.164Z</time>
      </trkpt>
      <trkpt lat="42.30424" lon="42.64051">
        <ele>148.642995</ele>
        <time>2021-08-16T07:02:27.038Z</time>
      </trkpt>
      <trkpt lat="42.30401" lon="42.6408">
        <ele>150.257901</ele>
        <time>2021-08-16T07:02:40.728Z</time>
      </trkpt>
      <trkpt lat="42.30343" lon="42.64143">
        <ele>154.099543</ele>
        <time>2021-08-16T07:03:17.023Z</time>
      </trkpt>
      <trkpt lat="42.30312" lon="42.64191">
        <ele>156.556227</ele>
        <time>2021-08-16T07:03:43.838Z</time>
      </trkpt>
      <trkpt lat="42.3027" lon="42.64263">
        <ele>161.24361</ele>
        <time>2021-08-16T07:04:23.984Z</time>
      </trkpt>
      <trkpt lat="42.30239" lon="42.64286">
        <ele>163.708326</ele>
        <time>2021-08-16T07:04:44.175Z</time>
      </trkpt>
      <trkpt lat="42.30194" lon="42.64299">
        <ele>166.941791</ele>
        <time>2021-08-16T07:05:10.493Z</time>
      </trkpt>
      <trkpt lat="42.30172" lon="42.64322">
        <ele>168.889065</ele>
        <time>2021-08-16T07:05:26.314Z</time>
      </trkpt>
      <trkpt lat="42.30163" lon="42.64341">
        <ele>170.044549</ele>
        <time>2021-08-16T07:05:35.410Z</time>
      </trkpt>
      <trkpt lat="42.30162" lon="42.64344">
        <ele>170.196083</ele>
        <time>2021-08-16T07:05:37.438Z</time>
      </trkpt>
      <trkpt lat="42.30148" lon="42.64399">
        <ele>173.156296</ele>
        <time>2021-08-16T07:06:01.142Z</time>
      </trkpt>
      <trkpt lat="42.30117" lon="42.64453">
        <ele>176.710809</ele>
        <time>2021-08-16T07:06:29.595Z</time>
      </trkpt>
      <trkpt lat="42.30099" lon="42.64518">
        <ele>180.254922</ele>
        <time>2021-08-16T07:07:02.174Z</time>
      </trkpt>
      <trkpt lat="42.30092" lon="42.64532">
        <ele>181.141337</ele>
        <time>2021-08-16T07:07:08.785Z</time>
      </trkpt>
      <trkpt lat="42.30026" lon="42.64589">
        <ele>184.75039</ele>
        <time>2021-08-16T07:07:49.495Z</time>
      </trkpt>
      <trkpt lat="42.3002" lon="42.64597">
        <ele>185.12845</ele>
        <time>2021-08-16T07:07:54.928Z</time>
      </trkpt>
      <trkpt lat="42.30005" lon="42.64633">
        <ele>186.415528</ele>
        <time>2021-08-16T07:08:07.552Z</time>
      </trkpt>
      <trkpt lat="42.29985" lon="42.64667">
        <ele>187.825385</ele>
        <time>2021-08-16T07:08:20.522Z</time>
      </trkpt>
      <trkpt lat="42.29948" lon="42.64708">
        <ele>189.547187</ele>
        <time>2021-08-16T07:08:36.308Z</time>
      </trkpt>
      <trkpt lat="42.2994" lon="42.64726">
        <ele>189.542968</ele>
        <time>2021-08-16T07:08:40.074Z</time>
      </trkpt>
      <trkpt lat="42.29939" lon="42.64841">
        <ele>189.520954</ele>
        <time>2021-08-16T07:08:58.626Z</time>
      </trkpt>
      <trkpt lat="42.29935" lon="42.64886">
        <ele>189.51235</ele>
        <time>2021-08-16T07:09:05.218Z</time>
      </trkpt>
      <trkpt lat="42.29926" lon="42.64943">
        <ele>189.487484</ele>
        <time>2021-08-16T07:09:14.207Z</time>
      </trkpt>
      <trkpt lat="42.29923" lon="42.64961">
        <ele>189.449695</ele>
        <time>2021-08-16T07:09:16.833Z</time>
      </trkpt>
      <trkpt lat="42.2991" lon="42.64992">
        <ele>189.375236</ele>
        <time>2021-08-16T07:09:22.285Z</time>
      </trkpt>
      <trkpt lat="42.29883" lon="42.6504">
        <ele>189.250664</ele>
        <time>2021-08-16T07:09:31.172Z</time>
      </trkpt>
      <trkpt lat="42.29869" lon="42.65067">
        <ele>189.182182</ele>
        <time>2021-08-16T07:09:36.418Z</time>
      </trkpt>
      <trkpt lat="42.29814" lon="42.65166">
        <ele>189.125794</ele>
        <time>2021-08-16T07:09:59.144Z</time>
      </trkpt>
      <trkpt lat="42.29773" lon="42.65234">
        <ele>189.444536</ele>
        <time>2021-08-16T07:10:14.632Z</time>
      </trkpt>
      <trkpt lat="42.29664" lon="42.65463">
        <ele>191.00744</ele>
        <time>2021-08-16T07:11:05.348Z</time>
      </trkpt>
      <trkpt lat="42.29625" lon="42.65586">
        <ele>192.233561</ele>
        <time>2021-08-16T07:11:35.622Z</time>
      </trkpt>
      <trkpt lat="42.29599" lon="42.65662">
        <ele>193.313534</ele>
        <time>2021-08-16T07:11:55.248Z</time>
      </trkpt>
      <trkpt lat="42.29571" lon="42.65711">
        <ele>194.120781</ele>
        <time>2021-08-16T07:12:09.541Z</time>
      </trkpt>
      <trkpt lat="42.29539" lon="42.6575">
        <ele>194.834376</ele>
        <time>2021-08-16T07:12:23.198Z</time>
      </trkpt>
      <trkpt lat="42.29508" lon="42.65758">
        <ele>194.924935</ele>
        <time>2021-08-16T07:12:33.164Z</time>
      </trkpt>
      <trkpt lat="42.29471" lon="42.65779">
        <ele>195.039599</ele>
        <time>2021-08-16T07:12:44.422Z</time>
      </trkpt>
      <trkpt lat="42.29442" lon="42.65824">
        <ele>195.164907</ele>
        <time>2021-08-16T07:12:54.860Z</time>
      </trkpt>
      <trkpt lat="42.29427" lon="42.65842">
        <ele>195.222596</ele>
        <time>2021-08-16T07:12:59.185Z</time>
      </trkpt>
      <trkpt lat="42.29405" lon="42.65846">
        <ele>195.28655</ele>
        <time>2021-08-16T07:13:03.576Z</time>
      </trkpt>
      <trkpt lat="42.29374" lon="42.65846">
        <ele>195.237071</ele>
        <time>2021-08-16T07:13:09.371Z</time>
      </trkpt>
      <trkpt lat="42.29324" lon="42.65843">
        <ele>194.810893</ele>
        <time>2021-08-16T07:13:18.481Z</time>
      </trkpt>
      <trkpt lat="42.29282" lon="42.65846">
        <ele>194.446926</ele>
        <time>2021-08-16T07:13:26.759Z</time>
      </trkpt>
      <trkpt lat="42.29244" lon="42.65861">
        <ele>194.096757</ele>
        <time>2021-08-16T07:13:34.989Z</time>
      </trkpt>
      <trkpt lat="42.29202" lon="42.65894">
        <ele>193.937938</ele>
        <time>2021-08-16T07:13:45.411Z</time>
      </trkpt>
      <trkpt lat="42.2916" lon="42.65941">
        <ele>194.631332</ele>
        <time>2021-08-16T07:14:00.141Z</time>
      </trkpt>
      <trkpt lat="42.29104" lon="42.66039">
        <ele>195.813781</ele>
        <time>2021-08-16T07:14:31.297Z</time>
      </trkpt>
      <trkpt lat="42.29066" lon="42.66082">
        <ele>195.582352</ele>
        <time>2021-08-16T07:14:44.471Z</time>
      </trkpt>
      <trkpt lat="42.29052" lon="42.66086">
        <ele>195.324233</ele>
        <time>2021-08-16T07:14:49.554Z</time>
      </trkpt>
      <trkpt lat="42.29032" lon="42.6608">
        <ele>194.96023</ele>
        <time>2021-08-16T07:14:53.253Z</time>
      </trkpt>
      <trkpt lat="42.29008" lon="42.6608">
        <ele>194.541925</ele>
        <time>2021-08-16T07:14:58.031Z</time>
      </trkpt>
      <trkpt lat="42.28998" lon="42.66089">
        <ele>194.329724</ele>
        <time>2021-08-16T07:14:59.911Z</time>
      </trkpt>
      <trkpt lat="42.28989" lon="42.66107">
        <ele>194.033297</ele>
        <time>2021-08-16T07:15:03.449Z</time>
      </trkpt>
      <trkpt lat="42.28982" lon="42.66133">
        <ele>193.660683</ele>
        <time>2021-08-16T07:15:06.634Z</time>
      </trkpt>
      <trkpt lat="42.28972" lon="42.66149">
        <ele>193.390277</ele>
        <time>2021-08-16T07:15:09.908Z</time>
      </trkpt>
      <trkpt lat="42.28959" lon="42.66158">
        <ele>193.121837</ele>
        <time>2021-08-16T07:15:12.198Z</time>
      </trkpt>
      <trkpt lat="42.28901" lon="42.66158">
        <ele>191.732968</ele>
        <time>2021-08-16T07:15:21.559Z</time>
      </trkpt>
      <trkpt lat="42.28882" lon="42.6617">
        <ele>191.159555</ele>
        <time>2021-08-16T07:15:24.973Z</time>
      </trkpt>
      <trkpt lat="42.2887" lon="42.66187">
        <ele>190.697898</ele>
        <time>2021-08-16T07:15:28.043Z</time>
      </trkpt>
      <trkpt lat="42.28863" lon="42.66216">
        <ele>190.104646</ele>
        <time>2021-08-16T07:15:31.732Z</time>
      </trkpt>
      <trkpt lat="42.28862" lon="42.66244">
        <ele>189.556075</ele>
        <time>2021-08-16T07:15:35.709Z</time>
      </trkpt>
      <trkpt lat="42.28864" lon="42.66308">
        <ele>188.313562</ele>
        <time>2021-08-16T07:15:44.658Z</time>
      </trkpt>
      <trkpt lat="42.28886" lon="42.66336">
        <ele>188.277697</ele>
        <time>2021-08-16T07:15:51.134Z</time>
      </trkpt>
      <trkpt lat="42.2889" lon="42.66355">
        <ele>188.397445</ele>
        <time>2021-08-16T07:15:54.494Z</time>
      </trkpt>
      <trkpt lat="42.28889" lon="42.66368">
        <ele>188.478116</ele>
        <time>2021-08-16T07:15:57.368Z</time>
      </trkpt>
      <trkpt lat="42.28875" lon="42.6637">
        <ele>188.591409</ele>
        <time>2021-08-16T07:16:01.385Z</time>
      </trkpt>
      <trkpt lat="42.2883" lon="42.66359">
        <ele>188.973978</ele>
        <time>2021-08-16T07:16:16.663Z</time>
      </trkpt>
      <trkpt lat="42.28817" lon="42.66368">
        <ele>189.0984</ele>
        <time>2021-08-16T07:16:21.253Z</time>
      </trkpt>
      <trkpt lat="42.28808" lon="42.66386">
        <ele>189.232044</ele>
        <time>2021-08-16T07:16:25.460Z</time>
      </trkpt>
      <trkpt lat="42.28797" lon="42.66443">
        <ele>189.593529</ele>
        <time>2021-08-16T07:16:37.235Z</time>
      </trkpt>
      <trkpt lat="42.28785" lon="42.66448">
        <ele>189.592671</ele>
        <time>2021-08-16T07:16:40.118Z</time>
      </trkpt>
      <trkpt lat="42.28774" lon="42.66441">
        <ele>189.591423</ele>
        <time>2021-08-16T07:16:43.083Z</time>
      </trkpt>
      <trkpt lat="42.28762" lon="42.66411">
        <ele>189.588911</ele>
        <time>2021-08-16T07:16:49.254Z</time>
      </trkpt>
      <trkpt lat="42.28748" lon="42.6636">
        <ele>189.584947</ele>
        <time>2021-08-16T07:16:58.127Z</time>
      </trkpt>
      <trkpt lat="42.28736" lon="42.66342">
        <ele>189.5831</ele>
        <time>2021-08-16T07:17:03.421Z</time>
      </trkpt>
      <trkpt lat="42.28722" lon="42.66329">
        <ele>189.581425</ele>
        <time>2021-08-16T07:17:06.667Z</time>
      </trkpt>
      <trkpt lat="42.28707" lon="42.66332">
        <ele>189.579976</ele>
        <time>2021-08-16T07:17:10.787Z</time>
      </trkpt>
      <trkpt lat="42.28648" lon="42.66374">
        <ele>189.188027</ele>
        <time>2021-08-16T07:17:24.282Z</time>
      </trkpt>
      <trkpt lat="42.2859" lon="42.66401">
        <ele>188.320846</ele>
        <time>2021-08-16T07:17:35.870Z</time>
      </trkpt>
      <trkpt lat="42.28549" lon="42.66416">
        <ele>187.73244</ele>
        <time>2021-08-16T07:17:44.399Z</time>
      </trkpt>
      <trkpt lat="42.28507" lon="42.66438">
        <ele>187.094929</ele>
        <time>2021-08-16T07:17:52.785Z</time>
      </trkpt>
      <trkpt lat="42.28477" lon="42.66443">
        <ele>186.09655</ele>
        <time>2021-08-16T07:17:58.333Z</time>
      </trkpt>
      <trkpt lat="42.28414" lon="42.66439">
        <ele>183.901436</ele>
        <time>2021-08-16T07:18:08.962Z</time>
      </trkpt>
      <trkpt lat="42.28389" lon="42.66432">
        <ele>183.005925</ele>
        <time>2021-08-16T07:18:13.106Z</time>
      </trkpt>
      <trkpt lat="42.28339" lon="42.66406">
        <ele>181.138367</ele>
        <time>2021-08-16T07:18:21.789Z</time>
      </trkpt>
      <trkpt lat="42.28318" lon="42.66419">
        <ele>180.328674</ele>
        <time>2021-08-16T07:18:25.686Z</time>
      </trkpt>
      <trkpt lat="42.28293" lon="42.66448">
        <ele>179.251495</ele>
        <time>2021-08-16T07:18:31.096Z</time>
      </trkpt>
      <trkpt lat="42.28271" lon="42.66465">
        <ele>178.447828</ele>
        <time>2021-08-16T07:18:35.124Z</time>
      </trkpt>
      <trkpt lat="42.28243" lon="42.66476">
        <ele>177.496803</ele>
        <time>2021-08-16T07:18:40.026Z</time>
      </trkpt>
      <trkpt lat="42.28199" lon="42.66485">
        <ele>176.044547</ele>
        <time>2021-08-16T07:18:47.596Z</time>
      </trkpt>
      <trkpt lat="42.28188" lon="42.66485">
        <ele>175.699065</ele>
        <time>2021-08-16T07:18:49.466Z</time>
      </trkpt>
      <trkpt lat="42.28184" lon="42.66486">
        <ele>175.565052</ele>
        <time>2021-08-16T07:18:50.123Z</time>
      </trkpt>
      <trkpt lat="42.28034" lon="42.66538">
        <ele>175.075571</ele>
        <time>2021-08-16T07:19:21.542Z</time>
      </trkpt>
      <trkpt lat="42.28013" lon="42.66549">
        <ele>175.107252</ele>
        <time>2021-08-16T07:19:28.784Z</time>
      </trkpt>
      <trkpt lat="42.27979" lon="42.66578">
        <ele>175.918198</ele>
        <time>2021-08-16T07:19:43.312Z</time>
      </trkpt>
      <trkpt lat="42.27972" lon="42.6658">
        <ele>176.256209</ele>
        <time>2021-08-16T07:19:46.184Z</time>
      </trkpt>
      <trkpt lat="42.27963" lon="42.66595">
        <ele>176.930381</ele>
        <time>2021-08-16T07:19:53.066Z</time>
      </trkpt>
      <trkpt lat="42.27891" lon="42.66672">
        <ele>181.230421</ele>
        <time>2021-08-16T07:20:38.980Z</time>
      </trkpt>
      <trkpt lat="42.27843" lon="42.66709">
        <ele>183.731966</ele>
        <time>2021-08-16T07:21:07.562Z</time>
      </trkpt>
      <trkpt lat="42.27794" lon="42.66754">
        <ele>185.812772</ele>
        <time>2021-08-16T07:21:34.886Z</time>
      </trkpt>
      <trkpt lat="42.27795" lon="42.66718">
        <ele>186.742167</ele>
        <time>2021-08-16T07:21:45.921Z</time>
      </trkpt>
      <trkpt lat="42.27782" lon="42.66731">
        <ele>187.3061</ele>
        <time>2021-08-16T07:21:52.423Z</time>
      </trkpt>
      <trkpt lat="42.27741" lon="42.66792">
        <ele>189.443096</ele>
        <time>2021-08-16T07:22:14.645Z</time>
      </trkpt>
      <trkpt lat="42.27729" lon="42.66799">
        <ele>189.868265</ele>
        <time>2021-08-16T07:22:18.246Z</time>
      </trkpt>
      <trkpt lat="42.27705" lon="42.66802">
        <ele>190.014257</ele>
        <time>2021-08-16T07:22:25.346Z</time>
      </trkpt>
      <trkpt lat="42.27694" lon="42.66797">
        <ele>190.080555</ele>
        <time>2021-08-16T07:22:27.775Z</time>
      </trkpt>
      <trkpt lat="42.27675" lon="42.66783">
        <ele>190.210675</ele>
        <time>2021-08-16T07:22:32.808Z</time>
      </trkpt>
      <trkpt lat="42.27651" lon="42.66764">
        <ele>190.374486</ele>
        <time>2021-08-16T07:22:39.059Z</time>
      </trkpt>
      <trkpt lat="42.27633" lon="42.66755">
        <ele>190.487567</ele>
        <time>2021-08-16T07:22:43.460Z</time>
      </trkpt>
      <trkpt lat="42.27612" lon="42.6675">
        <ele>190.61332</ele>
        <time>2021-08-16T07:22:48.546Z</time>
      </trkpt>
      <trkpt lat="42.27577" lon="42.66753">
        <ele>190.826374</ele>
        <time>2021-08-16T07:22:57.147Z</time>
      </trkpt>
      <trkpt lat="42.27561" lon="42.6676">
        <ele>190.92545</ele>
        <time>2021-08-16T07:23:00.951Z</time>
      </trkpt>
      <trkpt lat="42.27509" lon="42.668">
        <ele>191.169811</ele>
        <time>2021-08-16T07:23:15.398Z</time>
      </trkpt>
      <trkpt lat="42.27478" lon="42.66796">
        <ele>191.293693</ele>
        <time>2021-08-16T07:23:22.788Z</time>
      </trkpt>
      <trkpt lat="42.27454" lon="42.66778">
        <ele>191.40553</ele>
        <time>2021-08-16T07:23:29.400Z</time>
      </trkpt>
      <trkpt lat="42.27442" lon="42.66836">
        <ele>191.586129</ele>
        <time>2021-08-16T07:23:41.149Z</time>
      </trkpt>
      <trkpt lat="42.27436" lon="42.66844">
        <ele>191.622238</ele>
        <time>2021-08-16T07:23:43.501Z</time>
      </trkpt>
      <trkpt lat="42.27406" lon="42.66854">
        <ele>191.310712</ele>
        <time>2021-08-16T07:23:51.936Z</time>
      </trkpt>
      <trkpt lat="42.27402" lon="42.6692">
        <ele>190.515256</ele>
        <time>2021-08-16T07:24:03.677Z</time>
      </trkpt>
      <trkpt lat="42.27411" lon="42.6697">
        <ele>189.913988</ele>
        <time>2021-08-16T07:24:11.194Z</time>
      </trkpt>
      <trkpt lat="42.27411" lon="42.66982">
        <ele>189.763051</ele>
        <time>2021-08-16T07:24:12.906Z</time>
      </trkpt>
      <trkpt lat="42.27408" lon="42.66996">
        <ele>189.600371</ele>
        <time>2021-08-16T07:24:15.462Z</time>
      </trkpt>
      <trkpt lat="42.27391" lon="42.67029">
        <ele>189.121684</ele>
        <time>2021-08-16T07:24:22.521Z</time>
      </trkpt>
      <trkpt lat="42.27391" lon="42.67057">
        <ele>188.788765</ele>
        <time>2021-08-16T07:24:27.384Z</time>
      </trkpt>
      <trkpt lat="42.27338" lon="42.67065">
        <ele>184.922713</ele>
        <time>2021-08-16T07:24:38.755Z</time>
      </trkpt>
      <trkpt lat="42.2732" lon="42.67077">
        <ele>183.416519</ele>
        <time>2021-08-16T07:24:43.002Z</time>
      </trkpt>
      <trkpt lat="42.27285" lon="42.6712">
        <ele>179.822243</ele>
        <time>2021-08-16T07:24:52.710Z</time>
      </trkpt>
      <trkpt lat="42.2724" lon="42.6713">
        <ele>176.395129</ele>
        <time>2021-08-16T07:25:01.614Z</time>
      </trkpt>
      <trkpt lat="42.27101" lon="42.67286">
        <ele>158.929256</ele>
        <time>2021-08-16T07:25:36.490Z</time>
      </trkpt>
      <trkpt lat="42.27077" lon="42.67308">
        <ele>156.841386</ele>
        <time>2021-08-16T07:25:42.408Z</time>
      </trkpt>
      <trkpt lat="42.27065" lon="42.6735">
        <ele>155.403626</ele>
        <time>2021-08-16T07:25:49.386Z</time>
      </trkpt>
      <trkpt lat="42.27037" lon="42.67338">
        <ele>154.141278</ele>
        <time>2021-08-16T07:25:54.196Z</time>
      </trkpt>
      <trkpt lat="42.27032" lon="42.67355">
        <ele>153.562568</ele>
        <time>2021-08-16T07:25:56.515Z</time>
      </trkpt>
      <trkpt lat="42.27021" lon="42.67389">
        <ele>152.362805</ele>
        <time>2021-08-16T07:26:01.398Z</time>
      </trkpt>
      <trkpt lat="42.27018" lon="42.67399">
        <ele>152.018457</ele>
        <time>2021-08-16T07:26:02.893Z</time>
      </trkpt>
      <trkpt lat="42.27004" lon="42.67443">
        <ele>150.50238</ele>
        <time>2021-08-16T07:26:09.596Z</time>
      </trkpt>
      <trkpt lat="42.2698" lon="42.67521">
        <ele>149.64282</ele>
        <time>2021-08-16T07:26:24.011Z</time>
      </trkpt>
      <trkpt lat="42.2696" lon="42.67593">
        <ele>149.580112</ele>
        <time>2021-08-16T07:26:37.325Z</time>
      </trkpt>
      <trkpt lat="42.26955" lon="42.67608">
        <ele>149.565807</ele>
        <time>2021-08-16T07:26:40.259Z</time>
      </trkpt>
      <trkpt lat="42.2695" lon="42.67621">
        <ele>149.554389</ele>
        <time>2021-08-16T07:26:42.690Z</time>
      </trkpt>
      <trkpt lat="42.26937" lon="42.67662">
        <ele>149.517922</ele>
        <time>2021-08-16T07:26:50.872Z</time>
      </trkpt>
      <trkpt lat="42.26929" lon="42.6769">
        <ele>149.493294</ele>
        <time>2021-08-16T07:26:56.342Z</time>
      </trkpt>
      <trkpt lat="42.26912" lon="42.67748">
        <ele>149.587845</ele>
        <time>2021-08-16T07:27:07.623Z</time>
      </trkpt>
      <trkpt lat="42.26901" lon="42.67787">
        <ele>149.652868</ele>
        <time>2021-08-16T07:27:14.884Z</time>
      </trkpt>
      <trkpt lat="42.26886" lon="42.67828">
        <ele>149.723402</ele>
        <time>2021-08-16T07:27:22.766Z</time>
      </trkpt>
      <trkpt lat="42.26881" lon="42.67847">
        <ele>149.755006</ele>
        <time>2021-08-16T07:27:26.456Z</time>
      </trkpt>
      <trkpt lat="42.26832" lon="42.68015">
        <ele>149.837277</ele>
        <time>2021-08-16T07:27:59.589Z</time>
      </trkpt>
      <trkpt lat="42.26811" lon="42.68087">
        <ele>149.812981</ele>
        <time>2021-08-16T07:28:12.912Z</time>
      </trkpt>
      <trkpt lat="42.26733" lon="42.68353">
        <ele>148.958197</ele>
        <time>2021-08-16T07:28:58.532Z</time>
      </trkpt>
      <trkpt lat="42.26726" lon="42.68368">
        <ele>148.901905</ele>
        <time>2021-08-16T07:29:01.498Z</time>
      </trkpt>
      <trkpt lat="42.26707" lon="42.68396">
        <ele>148.973448</ele>
        <time>2021-08-16T07:29:08.526Z</time>
      </trkpt>
      <trkpt lat="42.26696" lon="42.68407">
        <ele>149.009916</ele>
        <time>2021-08-16T07:29:11.614Z</time>
      </trkpt>
      <trkpt lat="42.26694" lon="42.68404">
        <ele>149.018359</ele>
        <time>2021-08-16T07:29:12.323Z</time>
      </trkpt>
      <trkpt lat="42.2669" lon="42.68402">
        <ele>149.027442</ele>
        <time>2021-08-16T07:29:13.304Z</time>
      </trkpt>
      <trkpt lat="42.26681" lon="42.68407">
        <ele>149.053626</ele>
        <time>2021-08-16T07:29:15.904Z</time>
      </trkpt>
      <trkpt lat="42.2668" lon="42.68412">
        <ele>149.062769</ele>
        <time>2021-08-16T07:29:16.711Z</time>
      </trkpt>
      <trkpt lat="42.2668" lon="42.68417">
        <ele>149.073731</ele>
        <time>2021-08-16T07:29:17.630Z</time>
      </trkpt>
      <trkpt lat="42.26681" lon="42.68422">
        <ele>149.084598</ele>
        <time>2021-08-16T07:29:18.471Z</time>
      </trkpt>
      <trkpt lat="42.26686" lon="42.68451">
        <ele>149.140967</ele>
        <time>2021-08-16T07:29:23.711Z</time>
      </trkpt>
      <trkpt lat="42.2669" lon="42.68534">
        <ele>149.3017</ele>
        <time>2021-08-16T07:29:38.087Z</time>
      </trkpt>
      <trkpt lat="42.26688" lon="42.68561">
        <ele>149.352394</ele>
        <time>2021-08-16T07:29:43.543Z</time>
      </trkpt>
      <trkpt lat="42.26678" lon="42.68656">
        <ele>149.56751</ele>
        <time>2021-08-16T07:30:03.181Z</time>
      </trkpt>
      <trkpt lat="42.26668" lon="42.68741">
        <ele>149.761069</ele>
        <time>2021-08-16T07:30:18.516Z</time>
      </trkpt>
      <trkpt lat="42.26657" lon="42.68835">
        <ele>149.73149</ele>
        <time>2021-08-16T07:30:33.456Z</time>
      </trkpt>
      <trkpt lat="42.26647" lon="42.68927">
        <ele>149.123362</ele>
        <time>2021-08-16T07:30:47.465Z</time>
      </trkpt>
      <trkpt lat="42.26634" lon="42.69033">
        <ele>148.415381</ele>
        <time>2021-08-16T07:31:03.216Z</time>
      </trkpt>
      <trkpt lat="42.26632" lon="42.69062">
        <ele>148.263052</ele>
        <time>2021-08-16T07:31:07.267Z</time>
      </trkpt>
      <trkpt lat="42.26637" lon="42.69114">
        <ele>148.051604</ele>
        <time>2021-08-16T07:31:14.636Z</time>
      </trkpt>
      <trkpt lat="42.2668" lon="42.6925">
        <ele>147.455156</ele>
        <time>2021-08-16T07:31:37.515Z</time>
      </trkpt>
      <trkpt lat="42.26696" lon="42.693">
        <ele>147.491336</ele>
        <time>2021-08-16T07:31:47.888Z</time>
      </trkpt>
      <trkpt lat="42.26713" lon="42.6934">
        <ele>147.755681</ele>
        <time>2021-08-16T07:31:56.852Z</time>
      </trkpt>
      <trkpt lat="42.26718" lon="42.69357">
        <ele>147.863712</ele>
        <time>2021-08-16T07:32:00.601Z</time>
      </trkpt>
      <trkpt lat="42.26723" lon="42.69377">
        <ele>147.98204</ele>
        <time>2021-08-16T07:32:04.736Z</time>
      </trkpt>
      <trkpt lat="42.26728" lon="42.69398">
        <ele>148.112681</ele>
        <time>2021-08-16T07:32:09.091Z</time>
      </trkpt>
      <trkpt lat="42.26733" lon="42.69428">
        <ele>148.289978</ele>
        <time>2021-08-16T07:32:15.302Z</time>
      </trkpt>
      <trkpt lat="42.26741" lon="42.69478">
        <ele>148.586114</ele>
        <time>2021-08-16T07:32:25.460Z</time>
      </trkpt>
      <trkpt lat="42.2675" lon="42.69528">
        <ele>148.824989</ele>
        <time>2021-08-16T07:32:36.080Z</time>
      </trkpt>
      <trkpt lat="42.26756" lon="42.69566">
        <ele>148.956708</ele>
        <time>2021-08-16T07:32:43.821Z</time>
      </trkpt>
      <trkpt lat="42.26759" lon="42.69603">
        <ele>149.086017</ele>
        <time>2021-08-16T07:32:50.711Z</time>
      </trkpt>
      <trkpt lat="42.26764" lon="42.69637">
        <ele>149.204249</ele>
        <time>2021-08-16T07:32:56.867Z</time>
      </trkpt>
      <trkpt lat="42.26769" lon="42.6967">
        <ele>149.318486</ele>
        <time>2021-08-16T07:33:02.634Z</time>
      </trkpt>
      <trkpt lat="42.26773" lon="42.69693">
        <ele>149.399531</ele>
        <time>2021-08-16T07:33:06.785Z</time>
      </trkpt>
      <trkpt lat="42.26799" lon="42.69798">
        <ele>149.497035</ele>
        <time>2021-08-16T07:33:25.304Z</time>
      </trkpt>
      <trkpt lat="42.26839" lon="42.69804">
        <ele>149.427515</ele>
        <time>2021-08-16T07:33:33.979Z</time>
      </trkpt>
      <trkpt lat="42.26882" lon="42.69808">
        <ele>149.351192</ele>
        <time>2021-08-16T07:33:43.956Z</time>
      </trkpt>
      <trkpt lat="42.2697" lon="42.69827">
        <ele>149.343371</ele>
        <time>2021-08-16T07:34:02.147Z</time>
      </trkpt>
      <trkpt lat="42.27015" lon="42.69852">
        <ele>149.45326</ele>
        <time>2021-08-16T07:34:12.836Z</time>
      </trkpt>
      <trkpt lat="42.27021" lon="42.69855">
        <ele>149.46673</ele>
        <time>2021-08-16T07:34:14.408Z</time>
      </trkpt>
      <trkpt lat="42.27027" lon="42.69871">
        <ele>149.496786</ele>
        <time>2021-08-16T07:34:17.010Z</time>
      </trkpt>
      <trkpt lat="42.27029" lon="42.69876">
        <ele>149.50568</ele>
        <time>2021-08-16T07:34:17.833Z</time>
      </trkpt>
      <trkpt lat="42.27059" lon="42.69966">
        <ele>149.700603</ele>
        <time>2021-08-16T07:34:37.666Z</time>
      </trkpt>
      <trkpt lat="42.27063" lon="42.69971">
        <ele>149.815664</ele>
        <time>2021-08-16T07:34:39.661Z</time>
      </trkpt>
      <trkpt lat="42.27066" lon="42.69984">
        <ele>150.013877</ele>
        <time>2021-08-16T07:34:43.244Z</time>
      </trkpt>
      <trkpt lat="42.27069" lon="42.69997">
        <ele>150.21203</ele>
        <time>2021-08-16T07:34:45.826Z</time>
      </trkpt>
      <trkpt lat="42.2707" lon="42.70046">
        <ele>150.910035</ele>
        <time>2021-08-16T07:34:56.487Z</time>
      </trkpt>
      <trkpt lat="42.2707" lon="42.70055">
        <ele>151.038873</ele>
        <time>2021-08-16T07:34:58.275Z</time>
      </trkpt>
      <trkpt lat="42.2707" lon="42.70063">
        <ele>151.164817</ele>
        <time>2021-08-16T07:35:00.257Z</time>
      </trkpt>
      <trkpt lat="42.27069" lon="42.70077">
        <ele>151.362147</ele>
        <time>2021-08-16T07:35:03.642Z</time>
      </trkpt>
      <trkpt lat="42.27069" lon="42.70129">
        <ele>152.114846</ele>
        <time>2021-08-16T07:35:16.443Z</time>
      </trkpt>
      <trkpt lat="42.27069" lon="42.70154">
        <ele>152.4825</ele>
        <time>2021-08-16T07:35:22.699Z</time>
      </trkpt>
      <trkpt lat="42.27069" lon="42.70159">
        <ele>152.546188</ele>
        <time>2021-08-16T07:35:23.903Z</time>
      </trkpt>
      <trkpt lat="42.27069" lon="42.70181">
        <ele>152.871871</ele>
        <time>2021-08-16T07:35:30.182Z</time>
      </trkpt>
      <trkpt lat="42.27069" lon="42.7022">
        <ele>153.458563</ele>
        <time>2021-08-16T07:35:40.621Z</time>
      </trkpt>
      <trkpt lat="42.27069" lon="42.70257">
        <ele>154.027425</ele>
        <time>2021-08-16T07:35:50.083Z</time>
      </trkpt>
      <trkpt lat="42.27068" lon="42.7028">
        <ele>154.398792</ele>
        <time>2021-08-16T07:35:55.455Z</time>
      </trkpt>
      <trkpt lat="42.27068" lon="42.70331">
        <ele>155.199399</ele>
        <time>2021-08-16T07:36:07.221Z</time>
      </trkpt>
      <trkpt lat="42.27068" lon="42.70382">
        <ele>155.989073</ele>
        <time>2021-08-16T07:36:18.543Z</time>
      </trkpt>
      <trkpt lat="42.27068" lon="42.70384">
        <ele>156.025107</ele>
        <time>2021-08-16T07:36:19.466Z</time>
      </trkpt>
      <trkpt lat="42.27068" lon="42.70435">
        <ele>156.819447</ele>
        <time>2021-08-16T07:36:31.278Z</time>
      </trkpt>
      <trkpt lat="42.27067" lon="42.70472">
        <ele>157.699646</ele>
        <time>2021-08-16T07:36:40.088Z</time>
      </trkpt>
      <trkpt lat="42.27069" lon="42.70479">
        <ele>157.905148</ele>
        <time>2021-08-16T07:36:42.574Z</time>
      </trkpt>
      <trkpt lat="42.27073" lon="42.70487">
        <ele>158.1443</ele>
        <time>2021-08-16T07:36:45.045Z</time>
      </trkpt>
      <trkpt lat="42.27083" lon="42.705">
        <ele>158.657905</ele>
        <time>2021-08-16T07:36:49.582Z</time>
      </trkpt>
      <trkpt lat="42.27089" lon="42.70505">
        <ele>158.895705</ele>
        <time>2021-08-16T07:36:51.970Z</time>
      </trkpt>
      <trkpt lat="42.27093" lon="42.70508">
        <ele>159.071762</ele>
        <time>2021-08-16T07:36:53.929Z</time>
      </trkpt>
      <trkpt lat="42.27096" lon="42.70512">
        <ele>159.23894</ele>
        <time>2021-08-16T07:36:56.200Z</time>
      </trkpt>
      <trkpt lat="42.27099" lon="42.70514">
        <ele>159.353452</ele>
        <time>2021-08-16T07:36:57.365Z</time>
      </trkpt>
      <trkpt lat="42.27103" lon="42.70517">
        <ele>159.511571</ele>
        <time>2021-08-16T07:36:58.907Z</time>
      </trkpt>
      <trkpt lat="42.27113" lon="42.70531">
        <ele>160.039818</ele>
        <time>2021-08-16T07:37:04.190Z</time>
      </trkpt>
      <trkpt lat="42.27116" lon="42.70547">
        <ele>160.494743</ele>
        <time>2021-08-16T07:37:09.901Z</time>
      </trkpt>
      <trkpt lat="42.27119" lon="42.70565">
        <ele>160.98909</ele>
        <time>2021-08-16T07:37:15.241Z</time>
      </trkpt>
      <trkpt lat="42.2712" lon="42.70585">
        <ele>161.51956</ele>
        <time>2021-08-16T07:37:21.889Z</time>
      </trkpt>
      <trkpt lat="42.2712" lon="42.70595">
        <ele>161.777598</ele>
        <time>2021-08-16T07:37:25.377Z</time>
      </trkpt>
      <trkpt lat="42.2712" lon="42.70608">
        <ele>162.132364</ele>
        <time>2021-08-16T07:37:29.464Z</time>
      </trkpt>
      <trkpt lat="42.2712" lon="42.70631">
        <ele>162.763956</ele>
        <time>2021-08-16T07:37:37.153Z</time>
      </trkpt>
      <trkpt lat="42.27121" lon="42.70643">
        <ele>163.06872</ele>
        <time>2021-08-16T07:37:41.521Z</time>
      </trkpt>
      <trkpt lat="42.27135" lon="42.70712">
        <ele>165.534301</ele>
        <time>2021-08-16T07:38:05.828Z</time>
      </trkpt>
      <trkpt lat="42.27136" lon="42.70726">
        <ele>166.046406</ele>
        <time>2021-08-16T07:38:11.053Z</time>
      </trkpt>
      <trkpt lat="42.27134" lon="42.70737">
        <ele>166.482734</ele>
        <time>2021-08-16T07:38:15.689Z</time>
      </trkpt>
      <trkpt lat="42.27127" lon="42.70754">
        <ele>167.190129</ele>
        <time>2021-08-16T07:38:21.824Z</time>
      </trkpt>
      <trkpt lat="42.27113" lon="42.70784">
        <ele>168.485794</ele>
        <time>2021-08-16T07:38:34.934Z</time>
      </trkpt>
      <trkpt lat="42.27083" lon="42.70831">
        <ele>170.782408</ele>
        <time>2021-08-16T07:38:56.500Z</time>
      </trkpt>
      <trkpt lat="42.27039" lon="42.70907">
        <ele>174.085384</ele>
        <time>2021-08-16T07:39:30.371Z</time>
      </trkpt>
      <trkpt lat="42.27019" lon="42.70941">
        <ele>175.458176</ele>
        <time>2021-08-16T07:39:44.536Z</time>
      </trkpt>
      <trkpt lat="42.26997" lon="42.7098">
        <ele>177.044582</ele>
        <time>2021-08-16T07:39:59.982Z</time>
      </trkpt>
      <trkpt lat="42.26941" lon="42.71097">
        <ele>181.087781</ele>
        <time>2021-08-16T07:40:44.627Z</time>
      </trkpt>
      <trkpt lat="42.26903" lon="42.71186">
        <ele>183.321421</ele>
        <time>2021-08-16T07:41:13.623Z</time>
      </trkpt>
      <trkpt lat="42.26895" lon="42.7121">
        <ele>183.871438</ele>
        <time>2021-08-16T07:41:20.560Z</time>
      </trkpt>
      <trkpt lat="42.2689" lon="42.7123">
        <ele>184.347578</ele>
        <time>2021-08-16T07:41:25.437Z</time>
      </trkpt>
      <trkpt lat="42.26847" lon="42.71332">
        <ele>186.357625</ele>
        <time>2021-08-16T07:41:52.977Z</time>
      </trkpt>
      <trkpt lat="42.26817" lon="42.71401">
        <ele>187.452456</ele>
        <time>2021-08-16T07:42:11.101Z</time>
      </trkpt>
      <trkpt lat="42.26799" lon="42.71444">
        <ele>188.117487</ele>
        <time>2021-08-16T07:42:21.411Z</time>
      </trkpt>
      <trkpt lat="42.26771" lon="42.71504">
        <ele>189.175027</ele>
        <time>2021-08-16T07:42:38.460Z</time>
      </trkpt>
      <trkpt lat="42.2675" lon="42.71533">
        <ele>189.907308</ele>
        <time>2021-08-16T07:42:49.371Z</time>
      </trkpt>
      <trkpt lat="42.26715" lon="42.71584">
        <ele>191.142269</ele>
        <time>2021-08-16T07:43:08.407Z</time>
      </trkpt>
      <trkpt lat="42.26713" lon="42.71586">
        <ele>191.18924</ele>
        <time>2021-08-16T07:43:09.150Z</time>
      </trkpt>
      <trkpt lat="42.26636" lon="42.71672">
        <ele>192.81178</ele>
        <time>2021-08-16T07:43:44.328Z</time>
      </trkpt>
      <trkpt lat="42.26624" lon="42.7174">
        <ele>192.053805</ele>
        <time>2021-08-16T07:43:58.388Z</time>
      </trkpt>
      <trkpt lat="42.26615" lon="42.71807">
        <ele>191.30591</ele>
        <time>2021-08-16T07:44:08.429Z</time>
      </trkpt>
      <trkpt lat="42.2661" lon="42.71808">
        <ele>191.239236</ele>
        <time>2021-08-16T07:44:09.230Z</time>
      </trkpt>
      <trkpt lat="42.26601" lon="42.71821">
        <ele>191.044248</ele>
        <time>2021-08-16T07:44:11.474Z</time>
      </trkpt>
      <trkpt lat="42.26601" lon="42.71827">
        <ele>190.977523</ele>
        <time>2021-08-16T07:44:12.251Z</time>
      </trkpt>
      <trkpt lat="42.26602" lon="42.71831">
        <ele>190.930131</ele>
        <time>2021-08-16T07:44:12.803Z</time>
      </trkpt>
      <trkpt lat="42.26578" lon="42.71874">
        <ele>189.727778</ele>
        <time>2021-08-16T07:44:19.280Z</time>
      </trkpt>
      <trkpt lat="42.26575" lon="42.71886">
        <ele>188.890052</ele>
        <time>2021-08-16T07:44:20.673Z</time>
      </trkpt>
      <trkpt lat="42.26548" lon="42.71929">
        <ele>184.985727</ele>
        <time>2021-08-16T07:44:26.834Z</time>
      </trkpt>
      <trkpt lat="42.26552" lon="42.71945">
        <ele>183.819397</ele>
        <time>2021-08-16T07:44:28.750Z</time>
      </trkpt>
      <trkpt lat="42.26563" lon="42.71972">
        <ele>181.693113</ele>
        <time>2021-08-16T07:44:32.154Z</time>
      </trkpt>
      <trkpt lat="42.26568" lon="42.71992">
        <ele>180.250245</ele>
        <time>2021-08-16T07:44:34.474Z</time>
      </trkpt>
      <trkpt lat="42.26575" lon="42.72013">
        <ele>178.683389</ele>
        <time>2021-08-16T07:44:36.942Z</time>
      </trkpt>
      <trkpt lat="42.26574" lon="42.72041">
        <ele>176.720508</ele>
        <time>2021-08-16T07:44:40.053Z</time>
      </trkpt>
      <trkpt lat="42.26568" lon="42.7208">
        <ele>174.002073</ele>
        <time>2021-08-16T07:44:44.331Z</time>
      </trkpt>
      <trkpt lat="42.26568" lon="42.72102">
        <ele>172.150237</ele>
        <time>2021-08-16T07:44:46.727Z</time>
      </trkpt>
      <trkpt lat="42.2657" lon="42.72259">
        <ele>158.873904</ele>
        <time>2021-08-16T07:45:03.604Z</time>
      </trkpt>
      <trkpt lat="42.26543" lon="42.72403">
        <ele>147.882058</ele>
        <time>2021-08-16T07:45:19.909Z</time>
      </trkpt>
      <trkpt lat="42.2653" lon="42.72419">
        <ele>146.375395</ele>
        <time>2021-08-16T07:45:22.445Z</time>
      </trkpt>
      <trkpt lat="42.26527" lon="42.72494">
        <ele>141.473348</ele>
        <time>2021-08-16T07:45:30.668Z</time>
      </trkpt>
      <trkpt lat="42.26526" lon="42.72608">
        <ele>135.917166</ele>
        <time>2021-08-16T07:45:43.281Z</time>
      </trkpt>
      <trkpt lat="42.26535" lon="42.72662">
        <ele>134.325106</ele>
        <time>2021-08-16T07:45:49.920Z</time>
      </trkpt>
      <trkpt lat="42.26568" lon="42.72812">
        <ele>130.512045</ele>
        <time>2021-08-16T07:46:10.691Z</time>
      </trkpt>
      <trkpt lat="42.26589" lon="42.72877">
        <ele>130.820119</ele>
        <time>2021-08-16T07:46:22.021Z</time>
      </trkpt>
      <trkpt lat="42.26609" lon="42.72916">
        <ele>131.027641</ele>
        <time>2021-08-16T07:46:31.812Z</time>
      </trkpt>
      <trkpt lat="42.26616" lon="42.72933">
        <ele>131.111036</ele>
        <time>2021-08-16T07:46:35.614Z</time>
      </trkpt>
      <trkpt lat="42.26615" lon="42.7295">
        <ele>131.186445</ele>
        <time>2021-08-16T07:46:40.339Z</time>
      </trkpt>
      <trkpt lat="42.26572" lon="42.73024">
        <ele>131.699357</ele>
        <time>2021-08-16T07:47:02.389Z</time>
      </trkpt>
      <trkpt lat="42.26538" lon="42.73062">
        <ele>132.221304</ele>
        <time>2021-08-16T07:47:17.116Z</time>
      </trkpt>
      <trkpt lat="42.26509" lon="42.73089">
        <ele>132.636921</ele>
        <time>2021-08-16T07:47:28.677Z</time>
      </trkpt>
      <trkpt lat="42.26488" lon="42.73102">
        <ele>132.911417</ele>
        <time>2021-08-16T07:47:35.061Z</time>
      </trkpt>
      <trkpt lat="42.26299" lon="42.73128">
        <ele>133.808064</ele>
        <time>2021-08-16T07:48:15.958Z</time>
      </trkpt>
      <trkpt lat="42.26229" lon="42.73112">
        <ele>134.735558</ele>
        <time>2021-08-16T07:48:34.431Z</time>
      </trkpt>
      <trkpt lat="42.26182" lon="42.73101">
        <ele>136.508362</ele>
        <time>2021-08-16T07:48:49.744Z</time>
      </trkpt>
      <trkpt lat="42.26164" lon="42.73098">
        <ele>137.17776</ele>
        <time>2021-08-16T07:48:57.203Z</time>
      </trkpt>
      <trkpt lat="42.26148" lon="42.731">
        <ele>137.779922</ele>
        <time>2021-08-16T07:49:03.147Z</time>
      </trkpt>
      <trkpt lat="42.26129" lon="42.73111">
        <ele>138.547411</ele>
        <time>2021-08-16T07:49:12.636Z</time>
      </trkpt>
      <trkpt lat="42.26096" lon="42.73149">
        <ele>140.190089</ele>
        <time>2021-08-16T07:49:34.328Z</time>
      </trkpt>
      <trkpt lat="42.26067" lon="42.73191">
        <ele>143.138663</ele>
        <time>2021-08-16T07:49:59.236Z</time>
      </trkpt>
      <trkpt lat="42.26055" lon="42.73221">
        <ele>145.175265</ele>
        <time>2021-08-16T07:50:15.898Z</time>
      </trkpt>
      <trkpt lat="42.26052" lon="42.73253">
        <ele>147.159706</ele>
        <time>2021-08-16T07:50:31.605Z</time>
      </trkpt>
      <trkpt lat="42.26056" lon="42.73277">
        <ele>148.581164</ele>
        <time>2021-08-16T07:50:43.017Z</time>
      </trkpt>
      <trkpt lat="42.26091" lon="42.7341">
        <ele>156.852835</ele>
        <time>2021-08-16T07:51:51.994Z</time>
      </trkpt>
      <trkpt lat="42.26093" lon="42.73449">
        <ele>158.90459</ele>
        <time>2021-08-16T07:52:10.291Z</time>
      </trkpt>
      <trkpt lat="42.26089" lon="42.73492">
        <ele>161.231495</ele>
        <time>2021-08-16T07:52:30.403Z</time>
      </trkpt>
      <trkpt lat="42.26083" lon="42.73512">
        <ele>162.3618</ele>
        <time>2021-08-16T07:52:39.813Z</time>
      </trkpt>
      <trkpt lat="42.26076" lon="42.73524">
        <ele>163.159554</ele>
        <time>2021-08-16T07:52:46.187Z</time>
      </trkpt>
      <trkpt lat="42.26057" lon="42.73531">
        <ele>164.559838</ele>
        <time>2021-08-16T07:52:57.166Z</time>
      </trkpt>
      <trkpt lat="42.25984" lon="42.73496">
        <ele>169.438879</ele>
        <time>2021-08-16T07:53:36.199Z</time>
      </trkpt>
      <trkpt lat="42.25961" lon="42.73493">
        <ele>170.532855</ele>
        <time>2021-08-16T07:53:46.606Z</time>
      </trkpt>
      <trkpt lat="42.25932" lon="42.73516">
        <ele>172.123914</ele>
        <time>2021-08-16T07:54:01.185Z</time>
      </trkpt>
      <trkpt lat="42.25915" lon="42.73552">
        <ele>173.640662</ele>
        <time>2021-08-16T07:54:15.010Z</time>
      </trkpt>
      <trkpt lat="42.25909" lon="42.73692">
        <ele>178.904403</ele>
        <time>2021-08-16T07:55:02.248Z</time>
      </trkpt>
      <trkpt lat="42.25881" lon="42.73845">
        <ele>185.265092</ele>
        <time>2021-08-16T07:56:00.449Z</time>
      </trkpt>
      <trkpt lat="42.25838" lon="42.74189">
        <ele>201.453012</ele>
        <time>2021-08-16T07:58:22.185Z</time>
      </trkpt>
      <trkpt lat="42.25833" lon="42.74203">
        <ele>202.137911</ele>
        <time>2021-08-16T07:58:28.923Z</time>
      </trkpt>
      <trkpt lat="42.25806" lon="42.74294">
        <ele>206.519367</ele>
        <time>2021-08-16T07:59:06.177Z</time>
      </trkpt>
      <trkpt lat="42.25796" lon="42.74328">
        <ele>208.161234</ele>
        <time>2021-08-16T07:59:19.551Z</time>
      </trkpt>
      <trkpt lat="42.25752" lon="42.7444">
        <ele>213.459593</ele>
        <time>2021-08-16T08:00:06.366Z</time>
      </trkpt>
      <trkpt lat="42.25741" lon="42.74505">
        <ele>216.226659</ele>
        <time>2021-08-16T08:00:31.598Z</time>
      </trkpt>
      <trkpt lat="42.25742" lon="42.74593">
        <ele>219.677564</ele>
        <time>2021-08-16T08:01:04.456Z</time>
      </trkpt>
      <trkpt lat="42.25723" lon="42.74661">
        <ele>222.022777</ele>
        <time>2021-08-16T08:01:31.002Z</time>
      </trkpt>
      <trkpt lat="42.25696" lon="42.74717">
        <ele>224.175513</ele>
        <time>2021-08-16T08:01:54.499Z</time>
      </trkpt>
      <trkpt lat="42.25213" lon="42.7501">
        <ele>236.393735</ele>
        <time>2021-08-16T08:05:00.845Z</time>
      </trkpt>
      <trkpt lat="42.25175" lon="42.75086">
        <ele>236.467951</ele>
        <time>2021-08-16T08:05:13.350Z</time>
      </trkpt>
      <trkpt lat="42.25015" lon="42.75402">
        <ele>218.369541</ele>
        <time>2021-08-16T08:05:56.218Z</time>
      </trkpt>
      <trkpt lat="42.24913" lon="42.75521">
        <ele>208.984252</ele>
        <time>2021-08-16T08:06:16.184Z</time>
      </trkpt>
      <trkpt lat="42.24769" lon="42.75619">
        <ele>198.904614</ele>
        <time>2021-08-16T08:06:40.725Z</time>
      </trkpt>
      <trkpt lat="42.2458" lon="42.7586">
        <ele>188.296576</ele>
        <time>2021-08-16T08:07:23.374Z</time>
      </trkpt>
      <trkpt lat="42.24033" lon="42.76554">
        <ele>172.826364</ele>
        <time>2021-08-16T08:09:41.300Z</time>
      </trkpt>
      <trkpt lat="42.24005" lon="42.76567">
        <ele>172.329611</ele>
        <time>2021-08-16T08:09:47.086Z</time>
      </trkpt>
      <trkpt lat="42.2399" lon="42.76573">
        <ele>172.270915</ele>
        <time>2021-08-16T08:09:50.300Z</time>
      </trkpt>
      <trkpt lat="42.23988" lon="42.76572">
        <ele>172.270393</ele>
        <time>2021-08-16T08:09:50.619Z</time>
      </trkpt>
      <trkpt lat="42.23979" lon="42.76577">
        <ele>172.267011</ele>
        <time>2021-08-16T08:09:52.629Z</time>
      </trkpt>
      <trkpt lat="42.23954" lon="42.76599">
        <ele>172.257168</ele>
        <time>2021-08-16T08:09:58.764Z</time>
      </trkpt>
      <trkpt lat="42.23948" lon="42.76607">
        <ele>172.254208</ele>
        <time>2021-08-16T08:10:00.614Z</time>
      </trkpt>
      <trkpt lat="42.23946" lon="42.76613">
        <ele>172.252582</ele>
        <time>2021-08-16T08:10:01.691Z</time>
      </trkpt>
      <trkpt lat="42.23938" lon="42.76633">
        <ele>172.247054</ele>
        <time>2021-08-16T08:10:05.321Z</time>
      </trkpt>
      <trkpt lat="42.23898" lon="42.76709">
        <ele>172.2241</ele>
        <time>2021-08-16T08:10:21.624Z</time>
      </trkpt>
      <trkpt lat="42.23882" lon="42.76739">
        <ele>172.226017</ele>
        <time>2021-08-16T08:10:28.595Z</time>
      </trkpt>
      <trkpt lat="42.23508" lon="42.7722">
        <ele>178.068915</ele>
        <time>2021-08-16T08:12:57.229Z</time>
      </trkpt>
      <trkpt lat="42.23312" lon="42.77453">
        <ele>176.103849</ele>
        <time>2021-08-16T08:13:48.826Z</time>
      </trkpt>
      <trkpt lat="42.23201" lon="42.77582">
        <ele>174.786887</ele>
        <time>2021-08-16T08:14:18.397Z</time>
      </trkpt>
      <trkpt lat="42.22996" lon="42.7786">
        <ele>172.500789</ele>
        <time>2021-08-16T08:15:17.065Z</time>
      </trkpt>
      <trkpt lat="42.22866" lon="42.77971">
        <ele>172.398445</ele>
        <time>2021-08-16T08:15:50.061Z</time>
      </trkpt>
      <trkpt lat="42.22829" lon="42.78009">
        <ele>172.485771</ele>
        <time>2021-08-16T08:16:02.293Z</time>
      </trkpt>
      <trkpt lat="42.22813" lon="42.78029">
        <ele>172.525931</ele>
        <time>2021-08-16T08:16:08.195Z</time>
      </trkpt>
      <trkpt lat="42.22799" lon="42.7806">
        <ele>172.637608</ele>
        <time>2021-08-16T08:16:15.783Z</time>
      </trkpt>
      <trkpt lat="42.22778" lon="42.78174">
        <ele>173.016937</ele>
        <time>2021-08-16T08:16:39.507Z</time>
      </trkpt>
      <trkpt lat="42.22758" lon="42.7823">
        <ele>173.219149</ele>
        <time>2021-08-16T08:16:51.145Z</time>
      </trkpt>
      <trkpt lat="42.22752" lon="42.78258">
        <ele>173.311953</ele>
        <time>2021-08-16T08:16:55.627Z</time>
      </trkpt>
      <trkpt lat="42.22753" lon="42.78288">
        <ele>172.652337</ele>
        <time>2021-08-16T08:16:59.900Z</time>
      </trkpt>
      <trkpt lat="42.22769" lon="42.784">
        <ele>170.078365</ele>
        <time>2021-08-16T08:17:14.871Z</time>
      </trkpt>
      <trkpt lat="42.2276" lon="42.78494">
        <ele>167.963013</ele>
        <time>2021-08-16T08:17:26.249Z</time>
      </trkpt>
      <trkpt lat="42.22751" lon="42.78538">
        <ele>166.27896</ele>
        <time>2021-08-16T08:17:31.597Z</time>
      </trkpt>
      <trkpt lat="42.22738" lon="42.78572">
        <ele>164.794613</ele>
        <time>2021-08-16T08:17:36.076Z</time>
      </trkpt>
      <trkpt lat="42.22723" lon="42.78606">
        <ele>163.284235</ele>
        <time>2021-08-16T08:17:40.600Z</time>
      </trkpt>
      <trkpt lat="42.22689" lon="42.78662">
        <ele>160.459904</ele>
        <time>2021-08-16T08:17:49.037Z</time>
      </trkpt>
      <trkpt lat="42.22565" lon="42.78806">
        <ele>152.815697</ele>
        <time>2021-08-16T08:18:15.089Z</time>
      </trkpt>
      <trkpt lat="42.22525" lon="42.78845">
        <ele>150.608681</ele>
        <time>2021-08-16T08:18:23.195Z</time>
      </trkpt>
      <trkpt lat="42.22462" lon="42.78876">
        <ele>148.882594</ele>
        <time>2021-08-16T08:18:34.725Z</time>
      </trkpt>
      <trkpt lat="42.22413" lon="42.7889">
        <ele>147.668404</ele>
        <time>2021-08-16T08:18:43.719Z</time>
      </trkpt>
      <trkpt lat="42.22406" lon="42.78893">
        <ele>147.480192</ele>
        <time>2021-08-16T08:18:45.150Z</time>
      </trkpt>
      <trkpt lat="42.22334" lon="42.78948">
        <ele>145.560183</ele>
        <time>2021-08-16T08:19:00.477Z</time>
      </trkpt>
      <trkpt lat="42.22269" lon="42.79024">
        <ele>143.794711</ele>
        <time>2021-08-16T08:19:16.653Z</time>
      </trkpt>
      <trkpt lat="42.22246" lon="42.79065">
        <ele>143.021355</ele>
        <time>2021-08-16T08:19:23.626Z</time>
      </trkpt>
      <trkpt lat="42.22208" lon="42.79178">
        <ele>140.713951</ele>
        <time>2021-08-16T08:19:39.751Z</time>
      </trkpt>
      <trkpt lat="42.22194" lon="42.79199">
        <ele>140.119632</ele>
        <time>2021-08-16T08:19:43.502Z</time>
      </trkpt>
      <trkpt lat="42.22163" lon="42.79221">
        <ele>139.159825</ele>
        <time>2021-08-16T08:19:49.499Z</time>
      </trkpt>
      <trkpt lat="42.22135" lon="42.79236">
        <ele>138.314548</ele>
        <time>2021-08-16T08:19:54.733Z</time>
      </trkpt>
      <trkpt lat="42.22071" lon="42.79283">
        <ele>136.187284</ele>
        <time>2021-08-16T08:20:07.333Z</time>
      </trkpt>
      <trkpt lat="42.21945" lon="42.79431">
        <ele>131.29949</ele>
        <time>2021-08-16T08:20:36.049Z</time>
      </trkpt>
      <trkpt lat="42.21923" lon="42.79445">
        <ele>130.690316</ele>
        <time>2021-08-16T08:20:40.324Z</time>
      </trkpt>
      <trkpt lat="42.21699" lon="42.79525">
        <ele>125.477241</ele>
        <time>2021-08-16T08:21:22.110Z</time>
      </trkpt>
      <trkpt lat="42.21657" lon="42.79546">
        <ele>124.60705</ele>
        <time>2021-08-16T08:21:30.434Z</time>
      </trkpt>
      <trkpt lat="42.21622" lon="42.79575">
        <ele>123.827469</ele>
        <time>2021-08-16T08:21:38.196Z</time>
      </trkpt>
      <trkpt lat="42.21591" lon="42.79625">
        <ele>123.126129</ele>
        <time>2021-08-16T08:21:47.380Z</time>
      </trkpt>
      <trkpt lat="42.2146" lon="42.79916">
        <ele>120.576241</ele>
        <time>2021-08-16T08:22:36.027Z</time>
      </trkpt>
      <trkpt lat="42.21443" lon="42.7996">
        <ele>120.363765</ele>
        <time>2021-08-16T08:22:45.276Z</time>
      </trkpt>
      <trkpt lat="42.21431" lon="42.80015">
        <ele>120.986522</ele>
        <time>2021-08-16T08:22:57.400Z</time>
      </trkpt>
      <trkpt lat="42.21426" lon="42.8009">
        <ele>122.520917</ele>
        <time>2021-08-16T08:23:15.673Z</time>
      </trkpt>
      <trkpt lat="42.21423" lon="42.80129">
        <ele>123.30619</ele>
        <time>2021-08-16T08:23:26.439Z</time>
      </trkpt>
      <trkpt lat="42.21418" lon="42.80243">
        <ele>125.700013</ele>
        <time>2021-08-16T08:24:02.688Z</time>
      </trkpt>
      <trkpt lat="42.21423" lon="42.80348">
        <ele>128.230283</ele>
        <time>2021-08-16T08:24:35.838Z</time>
      </trkpt>
      <trkpt lat="42.21429" lon="42.80392">
        <ele>129.305484</ele>
        <time>2021-08-16T08:24:48.128Z</time>
      </trkpt>
      <trkpt lat="42.21439" lon="42.80434">
        <ele>130.345586</ele>
        <time>2021-08-16T08:24:59.319Z</time>
      </trkpt>
      <trkpt lat="42.21446" lon="42.80465">
        <ele>131.068847</ele>
        <time>2021-08-16T08:25:07.569Z</time>
      </trkpt>
      <trkpt lat="42.21453" lon="42.80493">
        <ele>131.360049</ele>
        <time>2021-08-16T08:25:14.084Z</time>
      </trkpt>
      <trkpt lat="42.2155" lon="42.80806">
        <ele>134.723024</ele>
        <time>2021-08-16T08:26:24.320Z</time>
      </trkpt>
      <trkpt lat="42.21558" lon="42.80851">
        <ele>135.182164</ele>
        <time>2021-08-16T08:26:34.867Z</time>
      </trkpt>
      <trkpt lat="42.2156" lon="42.80873">
        <ele>135.401541</ele>
        <time>2021-08-16T08:26:40.706Z</time>
      </trkpt>
      <trkpt lat="42.21563" lon="42.80913">
        <ele>135.808376</ele>
        <time>2021-08-16T08:26:49.497Z</time>
      </trkpt>
      <trkpt lat="42.2156" lon="42.80954">
        <ele>135.97441</ele>
        <time>2021-08-16T08:26:57.922Z</time>
      </trkpt>
      <trkpt lat="42.21555" lon="42.80992">
        <ele>136.114969</ele>
        <time>2021-08-16T08:27:06.064Z</time>
      </trkpt>
      <trkpt lat="42.2154" lon="42.81064">
        <ele>136.387988</ele>
        <time>2021-08-16T08:27:22.008Z</time>
      </trkpt>
      <trkpt lat="42.21522" lon="42.81142">
        <ele>136.685907</ele>
        <time>2021-08-16T08:27:34.728Z</time>
      </trkpt>
      <trkpt lat="42.21484" lon="42.81318">
        <ele>135.249923</ele>
        <time>2021-08-16T08:28:00.935Z</time>
      </trkpt>
      <trkpt lat="42.21449" lon="42.81501">
        <ele>133.78733</ele>
        <time>2021-08-16T08:28:28.644Z</time>
      </trkpt>
      <trkpt lat="42.21427" lon="42.81601">
        <ele>133.023578</ele>
        <time>2021-08-16T08:28:44.160Z</time>
      </trkpt>
      <trkpt lat="42.21424" lon="42.81612">
        <ele>132.938718</ele>
        <time>2021-08-16T08:28:45.946Z</time>
      </trkpt>
      <trkpt lat="42.21405" lon="42.81711">
        <ele>132.310573</ele>
        <time>2021-08-16T08:29:01.294Z</time>
      </trkpt>
      <trkpt lat="42.214" lon="42.81737">
        <ele>132.142386</ele>
        <time>2021-08-16T08:29:05.358Z</time>
      </trkpt>
      <trkpt lat="42.21377" lon="42.81844">
        <ele>131.466836</ele>
        <time>2021-08-16T08:29:22.045Z</time>
      </trkpt>
      <trkpt lat="42.21365" lon="42.81869">
        <ele>131.286435</ele>
        <time>2021-08-16T08:29:26.377Z</time>
      </trkpt>
      <trkpt lat="42.21359" lon="42.81881">
        <ele>131.192993</ele>
        <time>2021-08-16T08:29:28.728Z</time>
      </trkpt>
      <trkpt lat="42.21351" lon="42.81895">
        <ele>131.084631</ele>
        <time>2021-08-16T08:29:31.296Z</time>
      </trkpt>
      <trkpt lat="42.21347" lon="42.81896">
        <ele>131.049256</ele>
        <time>2021-08-16T08:29:32.065Z</time>
      </trkpt>
      <trkpt lat="42.21337" lon="42.81904">
        <ele>130.946857</ele>
        <time>2021-08-16T08:29:34.686Z</time>
      </trkpt>
      <trkpt lat="42.21334" lon="42.81909">
        <ele>130.911851</ele>
        <time>2021-08-16T08:29:35.520Z</time>
      </trkpt>
      <trkpt lat="42.21332" lon="42.81918">
        <ele>130.852865</ele>
        <time>2021-08-16T08:29:36.952Z</time>
      </trkpt>
      <trkpt lat="42.21333" lon="42.81927">
        <ele>130.794236</ele>
        <time>2021-08-16T08:29:38.362Z</time>
      </trkpt>
      <trkpt lat="42.21336" lon="42.81936">
        <ele>130.735537</ele>
        <time>2021-08-16T08:29:39.725Z</time>
      </trkpt>
      <trkpt lat="42.21339" lon="42.8194">
        <ele>130.697217</ele>
        <time>2021-08-16T08:29:40.725Z</time>
      </trkpt>
      <trkpt lat="42.21343" lon="42.81943">
        <ele>130.659642</ele>
        <time>2021-08-16T08:29:41.735Z</time>
      </trkpt>
      <trkpt lat="42.21347" lon="42.81952">
        <ele>130.593884</ele>
        <time>2021-08-16T08:29:43.385Z</time>
      </trkpt>
      <trkpt lat="42.21353" lon="42.81967">
        <ele>130.490432</ele>
        <time>2021-08-16T08:29:45.866Z</time>
      </trkpt>
      <trkpt lat="42.21359" lon="42.81995">
        <ele>130.310258</ele>
        <time>2021-08-16T08:29:50.329Z</time>
      </trkpt>
      <trkpt lat="42.21355" lon="42.82038">
        <ele>130.042151</ele>
        <time>2021-08-16T08:29:56.841Z</time>
      </trkpt>
      <trkpt lat="42.21347" lon="42.82201">
        <ele>128.634968</ele>
        <time>2021-08-16T08:30:20.409Z</time>
      </trkpt>
      <trkpt lat="42.2134" lon="42.82257">
        <ele>128.128792</ele>
        <time>2021-08-16T08:30:28.353Z</time>
      </trkpt>
      <trkpt lat="42.21319" lon="42.82322">
        <ele>127.698587</ele>
        <time>2021-08-16T08:30:38.718Z</time>
      </trkpt>
      <trkpt lat="42.21274" lon="42.8239">
        <ele>127.635782</ele>
        <time>2021-08-16T08:30:52.665Z</time>
      </trkpt>
      <trkpt lat="42.21108" lon="42.82589">
        <ele>128.0409</ele>
        <time>2021-08-16T08:31:48.441Z</time>
      </trkpt>
      <trkpt lat="42.21131" lon="42.82621">
        <ele>128.166627</ele>
        <time>2021-08-16T08:32:00.879Z</time>
      </trkpt>
      <trkpt lat="42.21127" lon="42.82628">
        <ele>128.189971</ele>
        <time>2021-08-16T08:32:03.133Z</time>
      </trkpt>
      <trkpt lat="42.21106" lon="42.8267">
        <ele>128.232872</ele>
        <time>2021-08-16T08:32:17.174Z</time>
      </trkpt>
      <trkpt lat="42.2106" lon="42.82733">
        <ele>128.213279</ele>
        <time>2021-08-16T08:32:40.958Z</time>
      </trkpt>
      <trkpt lat="42.21084" lon="42.83011">
        <ele>128.906718</ele>
        <time>2021-08-16T08:33:58.536Z</time>
      </trkpt>
      <trkpt lat="42.21146" lon="42.83611">
        <ele>135.691532</ele>
        <time>2021-08-16T08:37:20.100Z</time>
      </trkpt>
      <trkpt lat="42.21178" lon="42.83868">
        <ele>140.604141</ele>
        <time>2021-08-16T08:39:01.143Z</time>
      </trkpt>
      <trkpt lat="42.21202" lon="42.83939">
        <ele>141.650508</ele>
        <time>2021-08-16T08:39:31.887Z</time>
      </trkpt>
      <trkpt lat="42.21255" lon="42.84102">
        <ele>141.974287</ele>
        <time>2021-08-16T08:40:23.841Z</time>
      </trkpt>
      <trkpt lat="42.21235" lon="42.84093">
        <ele>141.476785</ele>
        <time>2021-08-16T08:40:30.606Z</time>
      </trkpt>
      <trkpt lat="42.21114" lon="42.84065">
        <ele>138.284341</ele>
        <time>2021-08-16T08:41:07.845Z</time>
      </trkpt>
      <trkpt lat="42.20979" lon="42.84046">
        <ele>132.018292</ele>
        <time>2021-08-16T08:41:46.679Z</time>
      </trkpt>
      <trkpt lat="42.20815" lon="42.83995">
        <ele>125.160054</ele>
        <time>2021-08-16T08:42:36.602Z</time>
      </trkpt>
      <trkpt lat="42.20671" lon="42.83958">
        <ele>120.595489</ele>
        <time>2021-08-16T08:43:21.752Z</time>
      </trkpt>
      <trkpt lat="42.20585" lon="42.83946">
        <ele>118.240782</ele>
        <time>2021-08-16T08:43:49.261Z</time>
      </trkpt>
      <trkpt lat="42.20497" lon="42.83946">
        <ele>116.360249</ele>
        <time>2021-08-16T08:44:17.235Z</time>
      </trkpt>
      <trkpt lat="42.20488" lon="42.83943">
        <ele>116.147202</ele>
        <time>2021-08-16T08:44:20.283Z</time>
      </trkpt>
      <trkpt lat="42.20473" lon="42.83978">
        <ele>115.515255</ele>
        <time>2021-08-16T08:44:30.051Z</time>
      </trkpt>
      <trkpt lat="42.20459" lon="42.83994">
        <ele>115.129986</ele>
        <time>2021-08-16T08:44:36.004Z</time>
      </trkpt>
      <trkpt lat="42.20451" lon="42.83994">
        <ele>114.943539</ele>
        <time>2021-08-16T08:44:38.942Z</time>
      </trkpt>
      <trkpt lat="42.20421" lon="42.83982">
        <ele>114.367412</ele>
        <time>2021-08-16T08:44:44.986Z</time>
      </trkpt>
      <trkpt lat="42.20402" lon="42.83974">
        <ele>114.049292</ele>
        <time>2021-08-16T08:44:51.353Z</time>
      </trkpt>
      <trkpt lat="42.20399" lon="42.84004">
        <ele>113.683457</ele>
        <time>2021-08-16T08:44:59.223Z</time>
      </trkpt>
      <trkpt lat="42.20398" lon="42.84055">
        <ele>113.065765</ele>
        <time>2021-08-16T08:45:11.876Z</time>
      </trkpt>
      <trkpt lat="42.20373" lon="42.8416">
        <ele>111.747569</ele>
        <time>2021-08-16T08:45:38.693Z</time>
      </trkpt>
      <trkpt lat="42.20363" lon="42.84178">
        <ele>111.49607</ele>
        <time>2021-08-16T08:45:44.506Z</time>
      </trkpt>
      <trkpt lat="42.20347" lon="42.84199">
        <ele>111.160793</ele>
        <time>2021-08-16T08:45:52.081Z</time>
      </trkpt>
      <trkpt lat="42.20279" lon="42.84204">
        <ele>110.136988</ele>
        <time>2021-08-16T08:46:05.652Z</time>
      </trkpt>
      <trkpt lat="42.20208" lon="42.84209">
        <ele>109.062272</ele>
        <time>2021-08-16T08:46:19.559Z</time>
      </trkpt>
      <trkpt lat="42.20081" lon="42.84226">
        <ele>107.922271</ele>
        <time>2021-08-16T08:46:45.773Z</time>
      </trkpt>
      <trkpt lat="42.19686" lon="42.84275">
        <ele>106.773782</ele>
        <time>2021-08-16T08:48:15.410Z</time>
      </trkpt>
      <trkpt lat="42.19664" lon="42.8429">
        <ele>106.729989</ele>
        <time>2021-08-16T08:48:21.072Z</time>
      </trkpt>
      <trkpt lat="42.19663" lon="42.84314">
        <ele>106.709324</ele>
        <time>2021-08-16T08:48:27.515Z</time>
      </trkpt>
      <trkpt lat="42.19669" lon="42.84331">
        <ele>106.693607</ele>
        <time>2021-08-16T08:48:32.485Z</time>
      </trkpt>
      <trkpt lat="42.19686" lon="42.84334">
        <ele>106.67374</ele>
        <time>2021-08-16T08:48:38.706Z</time>
      </trkpt>
      <trkpt lat="42.19694" lon="42.84361">
        <ele>106.648138</ele>
        <time>2021-08-16T08:48:46.798Z</time>
      </trkpt>
      <trkpt lat="42.19699" lon="42.84449">
        <ele>106.572199</ele>
        <time>2021-08-16T08:49:10.806Z</time>
      </trkpt>
      <trkpt lat="42.19673" lon="42.84483">
        <ele>106.530457</ele>
        <time>2021-08-16T08:49:24.064Z</time>
      </trkpt>
      <trkpt lat="42.19648" lon="42.84533">
        <ele>106.587769</ele>
        <time>2021-08-16T08:49:40.889Z</time>
      </trkpt>
      <trkpt lat="42.19637" lon="42.8464">
        <ele>106.704108</ele>
        <time>2021-08-16T08:50:11.539Z</time>
      </trkpt>
      <trkpt lat="42.19628" lon="42.84808">
        <ele>106.836006</ele>
        <time>2021-08-16T08:50:58.726Z</time>
      </trkpt>
      <trkpt lat="42.19632" lon="42.85016">
        <ele>107.036558</ele>
        <time>2021-08-16T08:51:56.323Z</time>
      </trkpt>
      <trkpt lat="42.19629" lon="42.85119">
        <ele>107.258931</ele>
        <time>2021-08-16T08:52:25.669Z</time>
      </trkpt>
      <trkpt lat="42.19607" lon="42.85187">
        <ele>107.420761</ele>
        <time>2021-08-16T08:52:47.535Z</time>
      </trkpt>
      <trkpt lat="42.19601" lon="42.85289">
        <ele>107.771736</ele>
        <time>2021-08-16T08:53:17.730Z</time>
      </trkpt>
      <trkpt lat="42.19601" lon="42.85484">
        <ele>108.375575</ele>
        <time>2021-08-16T08:54:14.966Z</time>
      </trkpt>
      <trkpt lat="42.19584" lon="42.85552">
        <ele>108.475148</ele>
        <time>2021-08-16T08:54:35.299Z</time>
      </trkpt>
      <trkpt lat="42.19527" lon="42.85629">
        <ele>108.626234</ele>
        <time>2021-08-16T08:55:05.507Z</time>
      </trkpt>
      <trkpt lat="42.19471" lon="42.85741">
        <ele>108.669847</ele>
        <time>2021-08-16T08:55:42.362Z</time>
      </trkpt>
      <trkpt lat="42.19436" lon="42.85885">
        <ele>108.719736</ele>
        <time>2021-08-16T08:56:24.479Z</time>
      </trkpt>
      <trkpt lat="42.19404" lon="42.86061">
        <ele>108.917587</ele>
        <time>2021-08-16T08:57:15.604Z</time>
      </trkpt>
      <trkpt lat="42.19393" lon="42.86183">
        <ele>109.100954</ele>
        <time>2021-08-16T08:57:50.232Z</time>
      </trkpt>
      <trkpt lat="42.19408" lon="42.86222">
        <ele>109.171939</ele>
        <time>2021-08-16T08:58:02.022Z</time>
      </trkpt>
      <trkpt lat="42.19422" lon="42.86241">
        <ele>109.216886</ele>
        <time>2021-08-16T08:58:09.800Z</time>
      </trkpt>
      <trkpt lat="42.19417" lon="42.86282">
        <ele>109.284913</ele>
        <time>2021-08-16T08:58:21.663Z</time>
      </trkpt>
      <trkpt lat="42.19425" lon="42.86322">
        <ele>109.354195</ele>
        <time>2021-08-16T08:58:33.867Z</time>
      </trkpt>
      <trkpt lat="42.19422" lon="42.86361">
        <ele>109.511323</ele>
        <time>2021-08-16T08:58:45.213Z</time>
      </trkpt>
      <trkpt lat="42.19393" lon="42.86376">
        <ele>109.684253</ele>
        <time>2021-08-16T08:58:57.506Z</time>
      </trkpt>
      <trkpt lat="42.19401" lon="42.8643">
        <ele>109.908663</ele>
        <time>2021-08-16T08:59:13.875Z</time>
      </trkpt>
      <trkpt lat="42.19406" lon="42.86473">
        <ele>110.086501</ele>
        <time>2021-08-16T08:59:26.774Z</time>
      </trkpt>
      <trkpt lat="42.19382" lon="42.86516">
        <ele>110.303544</ele>
        <time>2021-08-16T08:59:42.606Z</time>
      </trkpt>
      <trkpt lat="42.19371" lon="42.86578">
        <ele>110.457538</ele>
        <time>2021-08-16T09:00:01.971Z</time>
      </trkpt>
      <trkpt lat="42.19369" lon="42.8664">
        <ele>110.582803</ele>
        <time>2021-08-16T09:00:20.358Z</time>
      </trkpt>
      <trkpt lat="42.19383" lon="42.86864">
        <ele>110.639076</ele>
        <time>2021-08-16T09:01:21.721Z</time>
      </trkpt>
      <trkpt lat="42.19383" lon="42.87115">
        <ele>110.209102</ele>
        <time>2021-08-16T09:02:28.667Z</time>
      </trkpt>
      <trkpt lat="42.1938" lon="42.872">
        <ele>110.105877</ele>
        <time>2021-08-16T09:02:52.162Z</time>
      </trkpt>
      <trkpt lat="42.19369" lon="42.87261">
        <ele>110.082333</ele>
        <time>2021-08-16T09:03:09.517Z</time>
      </trkpt>
      <trkpt lat="42.19352" lon="42.87286">
        <ele>110.217371</ele>
        <time>2021-08-16T09:03:19.267Z</time>
      </trkpt>
      <trkpt lat="42.19326" lon="42.8731">
        <ele>110.38502</ele>
        <time>2021-08-16T09:03:31.596Z</time>
      </trkpt>
      <trkpt lat="42.19294" lon="42.87325">
        <ele>110.564781</ele>
        <time>2021-08-16T09:03:44.988Z</time>
      </trkpt>
      <trkpt lat="42.19269" lon="42.87387">
        <ele>110.843167</ele>
        <time>2021-08-16T09:04:06.175Z</time>
      </trkpt>
      <trkpt lat="42.1924" lon="42.87482">
        <ele>111.377347</ele>
        <time>2021-08-16T09:04:37.431Z</time>
      </trkpt>
      <trkpt lat="42.19198" lon="42.87567">
        <ele>111.995377</ele>
        <time>2021-08-16T09:05:08.830Z</time>
      </trkpt>
      <trkpt lat="42.19152" lon="42.87681">
        <ele>112.692951</ele>
        <time>2021-08-16T09:05:48.459Z</time>
      </trkpt>
      <trkpt lat="42.19104" lon="42.87747">
        <ele>113.103796</ele>
        <time>2021-08-16T09:06:16.285Z</time>
      </trkpt>
      <trkpt lat="42.19023" lon="42.8781">
        <ele>113.575287</ele>
        <time>2021-08-16T09:06:53.121Z</time>
      </trkpt>
      <trkpt lat="42.18988" lon="42.87872">
        <ele>113.671689</ele>
        <time>2021-08-16T09:07:15.324Z</time>
      </trkpt>
      <trkpt lat="42.18967" lon="42.8793">
        <ele>113.751121</ele>
        <time>2021-08-16T09:07:33.294Z</time>
      </trkpt>
      <trkpt lat="42.18965" lon="42.87969">
        <ele>113.799558</ele>
        <time>2021-08-16T09:07:44.078Z</time>
      </trkpt>
      <trkpt lat="42.18924" lon="42.87971">
        <ele>113.826598</ele>
        <time>2021-08-16T09:07:59.289Z</time>
      </trkpt>
      <trkpt lat="42.18852" lon="42.88016">
        <ele>113.762828</ele>
        <time>2021-08-16T09:08:28.487Z</time>
      </trkpt>
      <trkpt lat="42.1881" lon="42.88075">
        <ele>113.714334</ele>
        <time>2021-08-16T09:08:50.772Z</time>
      </trkpt>
      <trkpt lat="42.18794" lon="42.88133">
        <ele>113.671165</ele>
        <time>2021-08-16T09:09:07.583Z</time>
      </trkpt>
      <trkpt lat="42.1875" lon="42.88155">
        <ele>113.620295</ele>
        <time>2021-08-16T09:09:24.663Z</time>
      </trkpt>
      <trkpt lat="42.18707" lon="42.88189">
        <ele>113.565805</ele>
        <time>2021-08-16T09:09:42.944Z</time>
      </trkpt>
      <trkpt lat="42.18663" lon="42.88266">
        <ele>113.486678</ele>
        <time>2021-08-16T09:10:09.444Z</time>
      </trkpt>
      <trkpt lat="42.18586" lon="42.88336">
        <ele>113.384894</ele>
        <time>2021-08-16T09:10:43.457Z</time>
      </trkpt>
      <trkpt lat="42.18576" lon="42.88365">
        <ele>113.359305</ele>
        <time>2021-08-16T09:10:52.040Z</time>
      </trkpt>
      <trkpt lat="42.18525" lon="42.88349">
        <ele>113.302758</ele>
        <time>2021-08-16T09:11:11.009Z</time>
      </trkpt>
      <trkpt lat="42.18446" lon="42.88357">
        <ele>113.420659</ele>
        <time>2021-08-16T09:11:40.699Z</time>
      </trkpt>
      <trkpt lat="42.18375" lon="42.88384">
        <ele>113.532088</ele>
        <time>2021-08-16T09:12:08.883Z</time>
      </trkpt>
      <trkpt lat="42.18289" lon="42.88457">
        <ele>113.879381</ele>
        <time>2021-08-16T09:12:48.469Z</time>
      </trkpt>
      <trkpt lat="42.1826" lon="42.8851">
        <ele>114.084698</ele>
        <time>2021-08-16T09:13:08.064Z</time>
      </trkpt>
      <trkpt lat="42.18229" lon="42.88549">
        <ele>114.257832</ele>
        <time>2021-08-16T09:13:24.590Z</time>
      </trkpt>
      <trkpt lat="42.18117" lon="42.88771">
        <ele>114.827168</ele>
        <time>2021-08-16T09:14:41.586Z</time>
      </trkpt>
      <trkpt lat="42.18055" lon="42.88879">
        <ele>114.870469</ele>
        <time>2021-08-16T09:15:19.142Z</time>
      </trkpt>
      <trkpt lat="42.18037" lon="42.88934">
        <ele>114.889275</ele>
        <time>2021-08-16T09:15:35.403Z</time>
      </trkpt>
      <trkpt lat="42.17978" lon="42.89036">
        <ele>115.01458</ele>
        <time>2021-08-16T09:16:11.221Z</time>
      </trkpt>
      <trkpt lat="42.17938" lon="42.8912">
        <ele>115.139223</ele>
        <time>2021-08-16T09:16:39.404Z</time>
      </trkpt>
      <trkpt lat="42.1791" lon="42.89124">
        <ele>115.186776</ele>
        <time>2021-08-16T09:16:50.374Z</time>
      </trkpt>
      <trkpt lat="42.17805" lon="42.8918">
        <ele>115.651588</ele>
        <time>2021-08-16T09:17:34.797Z</time>
      </trkpt>
      <trkpt lat="42.17774" lon="42.89259">
        <ele>115.941777</ele>
        <time>2021-08-16T09:18:00.771Z</time>
      </trkpt>
      <trkpt lat="42.17775" lon="42.89285">
        <ele>116.016318</ele>
        <time>2021-08-16T09:18:08.353Z</time>
      </trkpt>
      <trkpt lat="42.17755" lon="42.89389">
        <ele>116.248197</ele>
        <time>2021-08-16T09:18:39.220Z</time>
      </trkpt>
      <trkpt lat="42.17716" lon="42.89501">
        <ele>116.516482</ele>
        <time>2021-08-16T09:19:14.472Z</time>
      </trkpt>
      <trkpt lat="42.1767" lon="42.89568">
        <ele>116.674341</ele>
        <time>2021-08-16T09:19:40.165Z</time>
      </trkpt>
      <trkpt lat="42.17589" lon="42.89615">
        <ele>116.881713</ele>
        <time>2021-08-16T09:20:14.034Z</time>
      </trkpt>
      <trkpt lat="42.17544" lon="42.8967">
        <ele>117.036994</ele>
        <time>2021-08-16T09:20:37.059Z</time>
      </trkpt>
      <trkpt lat="42.17506" lon="42.89697">
        <ele>117.156353</ele>
        <time>2021-08-16T09:20:53.732Z</time>
      </trkpt>
      <trkpt lat="42.17494" lon="42.89726">
        <ele>117.224573</ele>
        <time>2021-08-16T09:21:03.286Z</time>
      </trkpt>
      <trkpt lat="42.17471" lon="42.89747">
        <ele>117.301118</ele>
        <time>2021-08-16T09:21:14.004Z</time>
      </trkpt>
      <trkpt lat="42.17457" lon="42.89769">
        <ele>117.360625</ele>
        <time>2021-08-16T09:21:22.365Z</time>
      </trkpt>
      <trkpt lat="42.17445" lon="42.89802">
        <ele>117.434348</ele>
        <time>2021-08-16T09:21:32.767Z</time>
      </trkpt>
      <trkpt lat="42.17428" lon="42.89818">
        <ele>117.505652</ele>
        <time>2021-08-16T09:21:40.550Z</time>
      </trkpt>
      <trkpt lat="42.17377" lon="42.89844">
        <ele>117.700225</ele>
        <time>2021-08-16T09:22:01.765Z</time>
      </trkpt>
      <trkpt lat="42.17271" lon="42.89881">
        <ele>118.088667</ele>
        <time>2021-08-16T09:22:44.372Z</time>
      </trkpt>
      <trkpt lat="42.17153" lon="42.89937">
        <ele>118.499804</ele>
        <time>2021-08-16T09:23:33.216Z</time>
      </trkpt>
      <trkpt lat="42.17066" lon="42.89992">
        <ele>118.822579</ele>
        <time>2021-08-16T09:24:09.885Z</time>
      </trkpt>
      <trkpt lat="42.17035" lon="42.9004">
        <ele>118.992387</ele>
        <time>2021-08-16T09:24:28.410Z</time>
      </trkpt>
      <trkpt lat="42.16807" lon="42.90283">
        <ele>120.091573</ele>
        <time>2021-08-16T09:26:21.450Z</time>
      </trkpt>
      <trkpt lat="42.16767" lon="42.90349">
        <ele>120.460033</ele>
        <time>2021-08-16T09:26:46.881Z</time>
      </trkpt>
      <trkpt lat="42.16751" lon="42.90408">
        <ele>120.728117</ele>
        <time>2021-08-16T09:27:05.484Z</time>
      </trkpt>
      <trkpt lat="42.16702" lon="42.90479">
        <ele>121.055667</ele>
        <time>2021-08-16T09:27:34.447Z</time>
      </trkpt>
      <trkpt lat="42.16691" lon="42.90527">
        <ele>121.139791</ele>
        <time>2021-08-16T09:27:49.110Z</time>
      </trkpt>
      <trkpt lat="42.16638" lon="42.90671">
        <ele>121.403491</ele>
        <time>2021-08-16T09:28:34.013Z</time>
      </trkpt>
      <trkpt lat="42.16617" lon="42.90701">
        <ele>121.345435</ele>
        <time>2021-08-16T09:28:44.936Z</time>
      </trkpt>
      <trkpt lat="42.16612" lon="42.9073">
        <ele>121.301926</ele>
        <time>2021-08-16T09:28:53.112Z</time>
      </trkpt>
      <trkpt lat="42.1661" lon="42.90806">
        <ele>121.193118</ele>
        <time>2021-08-16T09:29:13.513Z</time>
      </trkpt>
      <trkpt lat="42.1663" lon="42.90868">
        <ele>121.096205</ele>
        <time>2021-08-16T09:29:31.619Z</time>
      </trkpt>
      <trkpt lat="42.16632" lon="42.90905">
        <ele>121.085819</ele>
        <time>2021-08-16T09:29:41.632Z</time>
      </trkpt>
      <trkpt lat="42.16576" lon="42.91102">
        <ele>121.572192</ele>
        <time>2021-08-16T09:30:41.898Z</time>
      </trkpt>
      <trkpt lat="42.16508" lon="42.91133">
        <ele>122.162963</ele>
        <time>2021-08-16T09:31:11.905Z</time>
      </trkpt>
      <trkpt lat="42.16461" lon="42.91173">
        <ele>122.693519</ele>
        <time>2021-08-16T09:31:35.524Z</time>
      </trkpt>
      <trkpt lat="42.1639" lon="42.91283">
        <ele>123.541209</ele>
        <time>2021-08-16T09:32:21.399Z</time>
      </trkpt>
      <trkpt lat="42.16262" lon="42.91399">
        <ele>124.188065</ele>
        <time>2021-08-16T09:33:21.290Z</time>
      </trkpt>
      <trkpt lat="42.16159" lon="42.91521">
        <ele>123.854219</ele>
        <time>2021-08-16T09:34:11.011Z</time>
      </trkpt>
      <trkpt lat="42.16073" lon="42.91567">
        <ele>123.862376</ele>
        <time>2021-08-16T09:34:44.146Z</time>
      </trkpt>
      <trkpt lat="42.15951" lon="42.91649">
        <ele>124.16746</ele>
        <time>2021-08-16T09:35:37.273Z</time>
      </trkpt>
      <trkpt lat="42.15936" lon="42.91643">
        <ele>124.298389</ele>
        <time>2021-08-16T09:35:43.663Z</time>
      </trkpt>
      <trkpt lat="42.15925" lon="42.9166">
        <ele>124.438123</ele>
        <time>2021-08-16T09:35:48.523Z</time>
      </trkpt>
      <trkpt lat="42.15887" lon="42.91701">
        <ele>124.839093</ele>
        <time>2021-08-16T09:36:02.042Z</time>
      </trkpt>
      <trkpt lat="42.15856" lon="42.91709">
        <ele>125.093888</ele>
        <time>2021-08-16T09:36:10.884Z</time>
      </trkpt>
      <trkpt lat="42.15843" lon="42.91593">
        <ele>125.620959</ele>
        <time>2021-08-16T09:36:34.771Z</time>
      </trkpt>
      <trkpt lat="42.1583" lon="42.91586">
        <ele>125.674734</ele>
        <time>2021-08-16T09:36:38.388Z</time>
      </trkpt>
      <trkpt lat="42.15803" lon="42.91597">
        <ele>125.777769</ele>
        <time>2021-08-16T09:36:45.391Z</time>
      </trkpt>
      <trkpt lat="42.1578" lon="42.91618">
        <ele>125.880725</ele>
        <time>2021-08-16T09:36:52.326Z</time>
      </trkpt>
      <trkpt lat="42.1579" lon="42.91635">
        <ele>125.941907</ele>
        <time>2021-08-16T09:36:56.116Z</time>
      </trkpt>
      <trkpt lat="42.15808" lon="42.91683">
        <ele>126.087842</ele>
        <time>2021-08-16T09:37:05.226Z</time>
      </trkpt>
      <trkpt lat="42.1581" lon="42.91708">
        <ele>126.126313</ele>
        <time>2021-08-16T09:37:09.503Z</time>
      </trkpt>
      <trkpt lat="42.15833" lon="42.91879">
        <ele>125.984985</ele>
        <time>2021-08-16T09:37:37.639Z</time>
      </trkpt>
      <trkpt lat="42.15835" lon="42.91896">
        <ele>125.970777</ele>
        <time>2021-08-16T09:37:40.450Z</time>
      </trkpt>
      <trkpt lat="42.15833" lon="42.91975">
        <ele>125.896307</ele>
        <time>2021-08-16T09:37:53.189Z</time>
      </trkpt>
      <trkpt lat="42.15812" lon="42.92182">
        <ele>125.673623</ele>
        <time>2021-08-16T09:38:26.909Z</time>
      </trkpt>
      <trkpt lat="42.15808" lon="42.92239">
        <ele>125.785147</ele>
        <time>2021-08-16T09:38:36.432Z</time>
      </trkpt>
      <trkpt lat="42.15806" lon="42.92266">
        <ele>125.838858</ele>
        <time>2021-08-16T09:38:41.290Z</time>
      </trkpt>
      <trkpt lat="42.15795" lon="42.92319">
        <ele>125.944749</ele>
        <time>2021-08-16T09:38:50.817Z</time>
      </trkpt>
      <trkpt lat="42.15785" lon="42.92338">
        <ele>125.990825</ele>
        <time>2021-08-16T09:38:54.991Z</time>
      </trkpt>
      <trkpt lat="42.15649" lon="42.92524">
        <ele>126.815412</ele>
        <time>2021-08-16T09:39:43.435Z</time>
      </trkpt>
      <trkpt lat="42.15632" lon="42.92563">
        <ele>126.979416</ele>
        <time>2021-08-16T09:39:51.496Z</time>
      </trkpt>
      <trkpt lat="42.15551" lon="42.92803">
        <ele>127.688536</ele>
        <time>2021-08-16T09:40:38.623Z</time>
      </trkpt>
      <trkpt lat="42.15525" lon="42.92869">
        <ele>127.798072</ele>
        <time>2021-08-16T09:40:52.045Z</time>
      </trkpt>
      <trkpt lat="42.15496" lon="42.92917">
        <ele>127.887466</ele>
        <time>2021-08-16T09:41:02.818Z</time>
      </trkpt>
      <trkpt lat="42.15456" lon="42.92945">
        <ele>127.974668</ele>
        <time>2021-08-16T09:41:13.176Z</time>
      </trkpt>
      <trkpt lat="42.15133" lon="42.93091">
        <ele>127.811686</ele>
        <time>2021-08-16T09:42:27.689Z</time>
      </trkpt>
      <trkpt lat="42.15094" lon="42.93115">
        <ele>127.797497</ele>
        <time>2021-08-16T09:42:37.437Z</time>
      </trkpt>
      <trkpt lat="42.14495" lon="42.93878">
        <ele>130.70101</ele>
        <time>2021-08-16T09:45:55.692Z</time>
      </trkpt>
      <trkpt lat="42.14242" lon="42.94157">
        <ele>131.84189</ele>
        <time>2021-08-16T09:47:14.552Z</time>
      </trkpt>
      <trkpt lat="42.14006" lon="42.94413">
        <ele>132.545069</ele>
        <time>2021-08-16T09:48:25.084Z</time>
      </trkpt>
      <trkpt lat="42.13967" lon="42.94458">
        <ele>132.593407</ele>
        <time>2021-08-16T09:48:36.590Z</time>
      </trkpt>
      <trkpt lat="42.13941" lon="42.94493">
        <ele>132.627508</ele>
        <time>2021-08-16T09:48:44.769Z</time>
      </trkpt>
      <trkpt lat="42.13911" lon="42.94587">
        <ele>132.698387</ele>
        <time>2021-08-16T09:49:01.919Z</time>
      </trkpt>
      <trkpt lat="42.13818" lon="42.94963">
        <ele>133.824403</ele>
        <time>2021-08-16T09:50:13.312Z</time>
      </trkpt>
      <trkpt lat="42.1379" lon="42.95104">
        <ele>134.270765</ele>
        <time>2021-08-16T09:50:39.860Z</time>
      </trkpt>
      <trkpt lat="42.1377" lon="42.95152">
        <ele>134.424491</ele>
        <time>2021-08-16T09:50:49.649Z</time>
      </trkpt>
      <trkpt lat="42.13663" lon="42.95376">
        <ele>135.218177</ele>
        <time>2021-08-16T09:51:36.737Z</time>
      </trkpt>
      <trkpt lat="42.13543" lon="42.9564">
        <ele>136.447253</ele>
        <time>2021-08-16T09:52:34.730Z</time>
      </trkpt>
      <trkpt lat="42.1339" lon="42.9603">
        <ele>138.614983</ele>
        <time>2021-08-16T09:53:58.836Z</time>
      </trkpt>
      <trkpt lat="42.13257" lon="42.96389">
        <ele>140.024361</ele>
        <time>2021-08-16T09:55:13.041Z</time>
      </trkpt>
      <trkpt lat="42.13238" lon="42.96443">
        <ele>140.103669</ele>
        <time>2021-08-16T09:55:23.367Z</time>
      </trkpt>
      <trkpt lat="42.13218" lon="42.96526">
        <ele>140.220284</ele>
        <time>2021-08-16T09:55:37.816Z</time>
      </trkpt>
      <trkpt lat="42.13141" lon="42.96826">
        <ele>140.180527</ele>
        <time>2021-08-16T09:56:29.374Z</time>
      </trkpt>
      <trkpt lat="42.13131" lon="42.96864">
        <ele>140.266167</ele>
        <time>2021-08-16T09:56:36.285Z</time>
      </trkpt>
      <trkpt lat="42.13121" lon="42.96869">
        <ele>140.294856</ele>
        <time>2021-08-16T09:56:38.770Z</time>
      </trkpt>
      <trkpt lat="42.12721" lon="42.97048">
        <ele>141.494702</ele>
        <time>2021-08-16T09:58:19.891Z</time>
      </trkpt>
      <trkpt lat="42.12588" lon="42.97107">
        <ele>141.631319</ele>
        <time>2021-08-16T09:58:51.515Z</time>
      </trkpt>
      <trkpt lat="42.12436" lon="42.97174">
        <ele>141.55581</ele>
        <time>2021-08-16T09:59:26.725Z</time>
      </trkpt>
      <trkpt lat="42.12262" lon="42.97256">
        <ele>141.469258</ele>
        <time>2021-08-16T10:00:06.822Z</time>
      </trkpt>
      <trkpt lat="42.12243" lon="42.97283">
        <ele>141.48111</ele>
        <time>2021-08-16T10:00:12.913Z</time>
      </trkpt>
      <trkpt lat="42.12202" lon="42.97392">
        <ele>141.655751</ele>
        <time>2021-08-16T10:00:34.417Z</time>
      </trkpt>
      <trkpt lat="42.12184" lon="42.97419">
        <ele>141.848373</ele>
        <time>2021-08-16T10:00:41.151Z</time>
      </trkpt>
      <trkpt lat="42.12176" lon="42.9743">
        <ele>141.928678</ele>
        <time>2021-08-16T10:00:43.933Z</time>
      </trkpt>
      <trkpt lat="42.12157" lon="42.97455">
        <ele>142.120804</ele>
        <time>2021-08-16T10:00:50.866Z</time>
      </trkpt>
      <trkpt lat="42.12119" lon="42.97497">
        <ele>142.473957</ele>
        <time>2021-08-16T10:01:03.890Z</time>
      </trkpt>
      <trkpt lat="42.12047" lon="42.9755">
        <ele>143.063515</ele>
        <time>2021-08-16T10:01:26.602Z</time>
      </trkpt>
      <trkpt lat="42.12014" lon="42.97553">
        <ele>143.296054</ele>
        <time>2021-08-16T10:01:35.229Z</time>
      </trkpt>
      <trkpt lat="42.11991" lon="42.97549">
        <ele>143.464096</ele>
        <time>2021-08-16T10:01:41.126Z</time>
      </trkpt>
      <trkpt lat="42.11973" lon="42.97548">
        <ele>143.595598</ele>
        <time>2021-08-16T10:01:45.991Z</time>
      </trkpt>
      <trkpt lat="42.11901" lon="42.97708">
        <ele>144.166073</ele>
        <time>2021-08-16T10:02:21.007Z</time>
      </trkpt>
      <trkpt lat="42.11883" lon="42.97752">
        <ele>144.204751</ele>
        <time>2021-08-16T10:02:29.519Z</time>
      </trkpt>
      <trkpt lat="42.1188" lon="42.97808">
        <ele>144.249018</ele>
        <time>2021-08-16T10:02:39.181Z</time>
      </trkpt>
      <trkpt lat="42.11924" lon="42.98369">
        <ele>144.152418</ele>
        <time>2021-08-16T10:04:15.161Z</time>
      </trkpt>
      <trkpt lat="42.11927" lon="42.98478">
        <ele>144.591731</ele>
        <time>2021-08-16T10:04:36.203Z</time>
      </trkpt>
      <trkpt lat="42.11925" lon="42.98533">
        <ele>144.815347</ele>
        <time>2021-08-16T10:04:47.491Z</time>
      </trkpt>
      <trkpt lat="42.11892" lon="42.98777">
        <ele>146.090066</ele>
        <time>2021-08-16T10:05:38.135Z</time>
      </trkpt>
      <trkpt lat="42.11901" lon="42.98886">
        <ele>146.318575</ele>
        <time>2021-08-16T10:05:58.078Z</time>
      </trkpt>
      <trkpt lat="42.11933" lon="42.99018">
        <ele>146.382267</ele>
        <time>2021-08-16T10:06:21.740Z</time>
      </trkpt>
      <trkpt lat="42.11935" lon="42.99058">
        <ele>146.392598</ele>
        <time>2021-08-16T10:06:28.594Z</time>
      </trkpt>
      <trkpt lat="42.1192" lon="42.99214">
        <ele>146.339442</ele>
        <time>2021-08-16T10:06:55.306Z</time>
      </trkpt>
      <trkpt lat="42.11897" lon="42.99316">
        <ele>146.34109</ele>
        <time>2021-08-16T10:07:14.097Z</time>
      </trkpt>
      <trkpt lat="42.11858" lon="42.99455">
        <ele>146.466668</ele>
        <time>2021-08-16T10:07:40.067Z</time>
      </trkpt>
      <trkpt lat="42.11854" lon="42.99505">
        <ele>146.50985</ele>
        <time>2021-08-16T10:07:49.033Z</time>
      </trkpt>
      <trkpt lat="42.11865" lon="42.99628">
        <ele>146.801181</ele>
        <time>2021-08-16T10:08:11.156Z</time>
      </trkpt>
      <trkpt lat="42.11872" lon="42.99813">
        <ele>147.310821</ele>
        <time>2021-08-16T10:08:46.274Z</time>
      </trkpt>
      <trkpt lat="42.1188" lon="42.9991">
        <ele>147.629528</ele>
        <time>2021-08-16T10:09:04.909Z</time>
      </trkpt>
      <trkpt lat="42.11891" lon="42.99979">
        <ele>147.860587</ele>
        <time>2021-08-16T10:09:18.167Z</time>
      </trkpt>
      <trkpt lat="42.119" lon="43.00011">
        <ele>147.948997</ele>
        <time>2021-08-16T10:09:24.576Z</time>
      </trkpt>
      <trkpt lat="42.11947" lon="43.00119">
        <ele>148.144294</ele>
        <time>2021-08-16T10:09:47.252Z</time>
      </trkpt>
      <trkpt lat="42.11983" lon="43.00223">
        <ele>148.31977</ele>
        <time>2021-08-16T10:10:07.793Z</time>
      </trkpt>
      <trkpt lat="42.11999" lon="43.00274">
        <ele>148.384109</ele>
        <time>2021-08-16T10:10:17.510Z</time>
      </trkpt>
      <trkpt lat="42.12035" lon="43.00417">
        <ele>148.563112</ele>
        <time>2021-08-16T10:10:44.041Z</time>
      </trkpt>
      <trkpt lat="42.12053" lon="43.00471">
        <ele>148.71141</ele>
        <time>2021-08-16T10:10:54.911Z</time>
      </trkpt>
      <trkpt lat="42.12063" lon="43.00491">
        <ele>148.794813</ele>
        <time>2021-08-16T10:10:59.450Z</time>
      </trkpt>
      <trkpt lat="42.12075" lon="43.00506">
        <ele>148.867361</ele>
        <time>2021-08-16T10:11:03.446Z</time>
      </trkpt>
      <trkpt lat="42.12117" lon="43.00533">
        <ele>149.078803</ele>
        <time>2021-08-16T10:11:15.069Z</time>
      </trkpt>
      <trkpt lat="42.12134" lon="43.00548">
        <ele>149.172887</ele>
        <time>2021-08-16T10:11:20.602Z</time>
      </trkpt>
      <trkpt lat="42.1215" lon="43.00562">
        <ele>149.260903</ele>
        <time>2021-08-16T10:11:25.555Z</time>
      </trkpt>
      <trkpt lat="42.12158" lon="43.00572">
        <ele>149.312069</ele>
        <time>2021-08-16T10:11:28.611Z</time>
      </trkpt>
      <trkpt lat="42.12171" lon="43.0059">
        <ele>149.395739</ele>
        <time>2021-08-16T10:11:33.325Z</time>
      </trkpt>
      <trkpt lat="42.12217" lon="43.00654">
        <ele>149.724394</ele>
        <time>2021-08-16T10:11:50.834Z</time>
      </trkpt>
      <trkpt lat="42.1223" lon="43.00667">
        <ele>149.80513</ele>
        <time>2021-08-16T10:11:55.208Z</time>
      </trkpt>
      <trkpt lat="42.12217" lon="43.00692">
        <ele>149.919236</ele>
        <time>2021-08-16T10:12:01.246Z</time>
      </trkpt>
      <trkpt lat="42.12091" lon="43.0094">
        <ele>150.634843</ele>
        <time>2021-08-16T10:12:53.589Z</time>
      </trkpt>
      <trkpt lat="42.12024" lon="43.01072">
        <ele>150.830819</ele>
        <time>2021-08-16T10:13:20.689Z</time>
      </trkpt>
      <trkpt lat="42.11971" lon="43.01198">
        <ele>150.978937</ele>
        <time>2021-08-16T10:13:45.608Z</time>
      </trkpt>
      <trkpt lat="42.11786" lon="43.01767">
        <ele>151.559102</ele>
        <time>2021-08-16T10:15:30.909Z</time>
      </trkpt>
      <trkpt lat="42.11782" lon="43.01782">
        <ele>151.578752</ele>
        <time>2021-08-16T10:15:33.782Z</time>
      </trkpt>
      <trkpt lat="42.11766" lon="43.01829">
        <ele>151.639983</ele>
        <time>2021-08-16T10:15:42.607Z</time>
      </trkpt>
      <trkpt lat="42.11734" lon="43.01925">
        <ele>151.881871</ele>
        <time>2021-08-16T10:16:01.094Z</time>
      </trkpt>
      <trkpt lat="42.11704" lon="43.02018">
        <ele>152.145942</ele>
        <time>2021-08-16T10:16:19.091Z</time>
      </trkpt>
      <trkpt lat="42.1168" lon="43.02085">
        <ele>152.356505</ele>
        <time>2021-08-16T10:16:32.584Z</time>
      </trkpt>
      <trkpt lat="42.11662" lon="43.02118">
        <ele>152.506267</ele>
        <time>2021-08-16T10:16:40.084Z</time>
      </trkpt>
      <trkpt lat="42.11568" lon="43.02237">
        <ele>153.14238</ele>
        <time>2021-08-16T10:17:12.219Z</time>
      </trkpt>
      <trkpt lat="42.11523" lon="43.02291">
        <ele>153.391019</ele>
        <time>2021-08-16T10:17:26.592Z</time>
      </trkpt>
      <trkpt lat="42.1149" lon="43.02331">
        <ele>153.569205</ele>
        <time>2021-08-16T10:17:37.112Z</time>
      </trkpt>
      <trkpt lat="42.11447" lon="43.02371">
        <ele>153.778636</ele>
        <time>2021-08-16T10:17:49.991Z</time>
      </trkpt>
      <trkpt lat="42.11408" lon="43.02392">
        <ele>153.976934</ele>
        <time>2021-08-16T10:18:00.631Z</time>
      </trkpt>
      <trkpt lat="42.11392" lon="43.02398">
        <ele>154.086769</ele>
        <time>2021-08-16T10:18:04.425Z</time>
      </trkpt>
      <trkpt lat="42.11367" lon="43.024">
        <ele>154.260818</ele>
        <time>2021-08-16T10:18:10.492Z</time>
      </trkpt>
      <trkpt lat="42.11349" lon="43.02404">
        <ele>154.38557</ele>
        <time>2021-08-16T10:18:14.809Z</time>
      </trkpt>
      <trkpt lat="42.11325" lon="43.02411">
        <ele>154.554936</ele>
        <time>2021-08-16T10:18:20.903Z</time>
      </trkpt>
      <trkpt lat="42.11313" lon="43.02415">
        <ele>154.636207</ele>
        <time>2021-08-16T10:18:23.949Z</time>
      </trkpt>
      <trkpt lat="42.11294" lon="43.02422">
        <ele>154.769272</ele>
        <time>2021-08-16T10:18:28.972Z</time>
      </trkpt>
      <trkpt lat="42.11287" lon="43.02424">
        <ele>154.822264</ele>
        <time>2021-08-16T10:18:30.868Z</time>
      </trkpt>
      <trkpt lat="42.11279" lon="43.02428">
        <ele>154.881834</ele>
        <time>2021-08-16T10:18:33.257Z</time>
      </trkpt>
      <trkpt lat="42.11275" lon="43.02428">
        <ele>154.907842</ele>
        <time>2021-08-16T10:18:34.281Z</time>
      </trkpt>
      <trkpt lat="42.11268" lon="43.02433">
        <ele>154.959025</ele>
        <time>2021-08-16T10:18:36.255Z</time>
      </trkpt>
      <trkpt lat="42.11266" lon="43.02437">
        <ele>154.984715</ele>
        <time>2021-08-16T10:18:37.288Z</time>
      </trkpt>
      <trkpt lat="42.11265" lon="43.02442">
        <ele>155.01209</ele>
        <time>2021-08-16T10:18:38.346Z</time>
      </trkpt>
      <trkpt lat="42.11268" lon="43.02456">
        <ele>155.091153</ele>
        <time>2021-08-16T10:18:41.334Z</time>
      </trkpt>
      <trkpt lat="42.11271" lon="43.02459">
        <ele>155.11839</ele>
        <time>2021-08-16T10:18:42.481Z</time>
      </trkpt>
      <trkpt lat="42.11274" lon="43.0246">
        <ele>155.13363</ele>
        <time>2021-08-16T10:18:43.122Z</time>
      </trkpt>
      <trkpt lat="42.1128" lon="43.02472">
        <ele>155.333399</ele>
        <time>2021-08-16T10:18:45.932Z</time>
      </trkpt>
      <trkpt lat="42.11289" lon="43.02491">
        <ele>155.695475</ele>
        <time>2021-08-16T10:18:50.870Z</time>
      </trkpt>
      <trkpt lat="42.11323" lon="43.0261">
        <ele>157.726699</ele>
        <time>2021-08-16T10:19:20.970Z</time>
      </trkpt>
      <trkpt lat="42.11335" lon="43.02657">
        <ele>158.522291</ele>
        <time>2021-08-16T10:19:34.418Z</time>
      </trkpt>
      <trkpt lat="42.1134" lon="43.02674">
        <ele>158.810334</ele>
        <time>2021-08-16T10:19:39.788Z</time>
      </trkpt>
      <trkpt lat="42.11342" lon="43.02684">
        <ele>158.9727</ele>
        <time>2021-08-16T10:19:42.716Z</time>
      </trkpt>
      <trkpt lat="42.11344" lon="43.0269">
        <ele>159.119787</ele>
        <time>2021-08-16T10:19:44.740Z</time>
      </trkpt>
      <trkpt lat="42.11371" lon="43.02792">
        <ele>161.641991</ele>
        <time>2021-08-16T10:20:16.327Z</time>
      </trkpt>
      <trkpt lat="42.11371" lon="43.02793">
        <ele>161.681519</ele>
        <time>2021-08-16T10:20:16.798Z</time>
      </trkpt>
      <trkpt lat="42.11395" lon="43.02888">
        <ele>164.020814</ele>
        <time>2021-08-16T10:20:45.678Z</time>
      </trkpt>
      <trkpt lat="42.11392" lon="43.02909">
        <ele>164.534185</ele>
        <time>2021-08-16T10:20:51.533Z</time>
      </trkpt>
      <trkpt lat="42.1139" lon="43.02915">
        <ele>164.687817</ele>
        <time>2021-08-16T10:20:53.423Z</time>
      </trkpt>
      <trkpt lat="42.11388" lon="43.02921">
        <ele>164.76983</ele>
        <time>2021-08-16T10:20:54.981Z</time>
      </trkpt>
      <trkpt lat="42.11387" lon="43.02924">
        <ele>164.827923</ele>
        <time>2021-08-16T10:20:56.099Z</time>
      </trkpt>
      <trkpt lat="42.11385" lon="43.02928">
        <ele>164.887247</ele>
        <time>2021-08-16T10:20:57.219Z</time>
      </trkpt>
      <trkpt lat="42.11383" lon="43.02939">
        <ele>165.04587</ele>
        <time>2021-08-16T10:21:00.066Z</time>
      </trkpt>
      <trkpt lat="42.11383" lon="43.02944">
        <ele>165.12104</ele>
        <time>2021-08-16T10:21:01.337Z</time>
      </trkpt>
      <trkpt lat="42.1138" lon="43.0298">
        <ele>165.623498</ele>
        <time>2021-08-16T10:21:10.135Z</time>
      </trkpt>
      <trkpt lat="42.1138" lon="43.02995">
        <ele>165.845049</ele>
        <time>2021-08-16T10:21:13.607Z</time>
      </trkpt>
      <trkpt lat="42.11381" lon="43.03011">
        <ele>166.065915</ele>
        <time>2021-08-16T10:21:17.192Z</time>
      </trkpt>
      <trkpt lat="42.11381" lon="43.03042">
        <ele>166.502076</ele>
        <time>2021-08-16T10:21:24.577Z</time>
      </trkpt>
      <trkpt lat="42.11383" lon="43.03091">
        <ele>167.195556</ele>
        <time>2021-08-16T10:21:35.532Z</time>
      </trkpt>
      <trkpt lat="42.11389" lon="43.03137">
        <ele>167.856518</ele>
        <time>2021-08-16T10:21:45.482Z</time>
      </trkpt>
      <trkpt lat="42.11398" lon="43.03214">
        <ele>169.031335</ele>
        <time>2021-08-16T10:22:02.183Z</time>
      </trkpt>
      <trkpt lat="42.11401" lon="43.03238">
        <ele>169.405498</ele>
        <time>2021-08-16T10:22:08.392Z</time>
      </trkpt>
      <trkpt lat="42.11403" lon="43.03328">
        <ele>170.799175</ele>
        <time>2021-08-16T10:22:30.602Z</time>
      </trkpt>
      <trkpt lat="42.11391" lon="43.03404">
        <ele>171.977478</ele>
        <time>2021-08-16T10:22:51.030Z</time>
      </trkpt>
      <trkpt lat="42.11383" lon="43.03433">
        <ele>172.386577</ele>
        <time>2021-08-16T10:22:59.551Z</time>
      </trkpt>
      <trkpt lat="42.11365" lon="43.03489">
        <ele>173.182294</ele>
        <time>2021-08-16T10:23:14.520Z</time>
      </trkpt>
      <trkpt lat="42.11331" lon="43.03569">
        <ele>174.383188</ele>
        <time>2021-08-16T10:23:34.414Z</time>
      </trkpt>
      <trkpt lat="42.1133" lon="43.03572">
        <ele>174.435206</ele>
        <time>2021-08-16T10:23:35.688Z</time>
      </trkpt>
      <trkpt lat="42.11253" lon="43.03745">
        <ele>175.724623</ele>
        <time>2021-08-16T10:24:15.699Z</time>
      </trkpt>
      <trkpt lat="42.11234" lon="43.03789">
        <ele>175.957556</ele>
        <time>2021-08-16T10:24:24.061Z</time>
      </trkpt>
      <trkpt lat="42.11212" lon="43.03843">
        <ele>176.157853</ele>
        <time>2021-08-16T10:24:34.128Z</time>
      </trkpt>
      <trkpt lat="42.11203" lon="43.03867">
        <ele>176.203545</ele>
        <time>2021-08-16T10:24:38.778Z</time>
      </trkpt>
      <trkpt lat="42.11165" lon="43.03982">
        <ele>176.413702</ele>
        <time>2021-08-16T10:25:01.414Z</time>
      </trkpt>
      <trkpt lat="42.11146" lon="43.04043">
        <ele>176.511734</ele>
        <time>2021-08-16T10:25:13.164Z</time>
      </trkpt>
      <trkpt lat="42.11106" lon="43.04171">
        <ele>176.201346</ele>
        <time>2021-08-16T10:25:35.825Z</time>
      </trkpt>
      <trkpt lat="42.1107" lon="43.04267">
        <ele>175.907101</ele>
        <time>2021-08-16T10:25:52.489Z</time>
      </trkpt>
      <trkpt lat="42.1104" lon="43.04346">
        <ele>175.025891</ele>
        <time>2021-08-16T10:26:05.268Z</time>
      </trkpt>
      <trkpt lat="42.10986" lon="43.04466">
        <ele>173.624146</ele>
        <time>2021-08-16T10:26:25.063Z</time>
      </trkpt>
      <trkpt lat="42.10961" lon="43.0453">
        <ele>173.006452</ele>
        <time>2021-08-16T10:26:35.325Z</time>
      </trkpt>
      <trkpt lat="42.10959" lon="43.04538">
        <ele>172.939422</ele>
        <time>2021-08-16T10:26:36.485Z</time>
      </trkpt>
      <trkpt lat="42.10947" lon="43.04586">
        <ele>172.507609</ele>
        <time>2021-08-16T10:26:43.830Z</time>
      </trkpt>
      <trkpt lat="42.10928" lon="43.04659">
        <ele>171.861884</ele>
        <time>2021-08-16T10:26:54.861Z</time>
      </trkpt>
      <trkpt lat="42.10921" lon="43.04682">
        <ele>171.647933</ele>
        <time>2021-08-16T10:26:58.480Z</time>
      </trkpt>
      <trkpt lat="42.10918" lon="43.04689">
        <ele>171.580823</ele>
        <time>2021-08-16T10:26:59.825Z</time>
      </trkpt>
      <trkpt lat="42.10915" lon="43.04692">
        <ele>171.536445</ele>
        <time>2021-08-16T10:27:00.536Z</time>
      </trkpt>
      <trkpt lat="42.10908" lon="43.04699">
        <ele>171.611707</ele>
        <time>2021-08-16T10:27:02.337Z</time>
      </trkpt>
      <trkpt lat="42.10904" lon="43.04702">
        <ele>171.668929</ele>
        <time>2021-08-16T10:27:03.283Z</time>
      </trkpt>
      <trkpt lat="42.10788" lon="43.04756">
        <ele>173.061049</ele>
        <time>2021-08-16T10:27:36.634Z</time>
      </trkpt>
      <trkpt lat="42.10776" lon="43.04764">
        <ele>173.218046</ele>
        <time>2021-08-16T10:27:41.216Z</time>
      </trkpt>
      <trkpt lat="42.10766" lon="43.04774">
        <ele>173.359566</ele>
        <time>2021-08-16T10:27:44.524Z</time>
      </trkpt>
      <trkpt lat="42.10748" lon="43.04784">
        <ele>173.591933</ele>
        <time>2021-08-16T10:27:52.525Z</time>
      </trkpt>
      <trkpt lat="42.10705" lon="43.04822">
        <ele>175.154246</ele>
        <time>2021-08-16T10:28:11.709Z</time>
      </trkpt>
      <trkpt lat="42.10672" lon="43.04845">
        <ele>176.284094</ele>
        <time>2021-08-16T10:28:26.854Z</time>
      </trkpt>
      <trkpt lat="42.10673" lon="43.04862">
        <ele>176.669344</ele>
        <time>2021-08-16T10:28:33.025Z</time>
      </trkpt>
      <trkpt lat="42.10649" lon="43.05003">
        <ele>179.670186</ele>
        <time>2021-08-16T10:29:14.120Z</time>
      </trkpt>
      <trkpt lat="42.10626" lon="43.05103">
        <ele>181.340867</ele>
        <time>2021-08-16T10:29:40.440Z</time>
      </trkpt>
      <trkpt lat="42.10606" lon="43.05141">
        <ele>182.096267</ele>
        <time>2021-08-16T10:29:51.248Z</time>
      </trkpt>
      <trkpt lat="42.1057" lon="43.05188">
        <ele>183.233549</ele>
        <time>2021-08-16T10:30:06.057Z</time>
      </trkpt>
      <trkpt lat="42.10566" lon="43.05202">
        <ele>183.520732</ele>
        <time>2021-08-16T10:30:09.730Z</time>
      </trkpt>
      <trkpt lat="42.10562" lon="43.05204">
        <ele>183.632762</ele>
        <time>2021-08-16T10:30:11.729Z</time>
      </trkpt>
      <trkpt lat="42.10477" lon="43.05309">
        <ele>186.677996</ele>
        <time>2021-08-16T10:30:53.139Z</time>
      </trkpt>
      <trkpt lat="42.10469" lon="43.0532">
        <ele>186.977587</ele>
        <time>2021-08-16T10:30:57.325Z</time>
      </trkpt>
      <trkpt lat="42.10451" lon="43.05343">
        <ele>187.630622</ele>
        <time>2021-08-16T10:31:08.098Z</time>
      </trkpt>
      <trkpt lat="42.10413" lon="43.05386">
        <ele>189.551241</ele>
        <time>2021-08-16T10:31:28.178Z</time>
      </trkpt>
      <trkpt lat="42.10392" lon="43.05409">
        <ele>190.594835</ele>
        <time>2021-08-16T10:31:39.663Z</time>
      </trkpt>
      <trkpt lat="42.10345" lon="43.05461">
        <ele>192.993857</ele>
        <time>2021-08-16T10:32:07.155Z</time>
      </trkpt>
      <trkpt lat="42.10264" lon="43.05556">
        <ele>197.26469</ele>
        <time>2021-08-16T10:32:53.258Z</time>
      </trkpt>
      <trkpt lat="42.10216" lon="43.05614">
        <ele>199.887385</ele>
        <time>2021-08-16T10:33:22.525Z</time>
      </trkpt>
      <trkpt lat="42.10174" lon="43.05666">
        <ele>202.149498</ele>
        <time>2021-08-16T10:33:46.465Z</time>
      </trkpt>
      <trkpt lat="42.10152" lon="43.05689">
        <ele>203.098591</ele>
        <time>2021-08-16T10:33:57.497Z</time>
      </trkpt>
      <trkpt lat="42.10142" lon="43.057">
        <ele>203.555119</ele>
        <time>2021-08-16T10:34:03.473Z</time>
      </trkpt>
      <trkpt lat="42.10096" lon="43.05754">
        <ele>205.632066</ele>
        <time>2021-08-16T10:34:27.754Z</time>
      </trkpt>
      <trkpt lat="42.10085" lon="43.05774">
        <ele>206.255105</ele>
        <time>2021-08-16T10:34:35.518Z</time>
      </trkpt>
      <trkpt lat="42.10073" lon="43.05812">
        <ele>207.308293</ele>
        <time>2021-08-16T10:34:48.052Z</time>
      </trkpt>
      <trkpt lat="42.10063" lon="43.05879">
        <ele>208.666813</ele>
        <time>2021-08-16T10:35:07.771Z</time>
      </trkpt>
      <trkpt lat="42.1006" lon="43.05908">
        <ele>209.105572</ele>
        <time>2021-08-16T10:35:14.820Z</time>
      </trkpt>
      <trkpt lat="42.10059" lon="43.05924">
        <ele>209.351967</ele>
        <time>2021-08-16T10:35:19.229Z</time>
      </trkpt>
      <trkpt lat="42.10051" lon="43.05987">
        <ele>210.33009</ele>
        <time>2021-08-16T10:35:34.783Z</time>
      </trkpt>
      <trkpt lat="42.10033" lon="43.06047">
        <ele>211.30276</ele>
        <time>2021-08-16T10:35:50.316Z</time>
      </trkpt>
      <trkpt lat="42.10028" lon="43.06065">
        <ele>211.60701</ele>
        <time>2021-08-16T10:35:54.956Z</time>
      </trkpt>
      <trkpt lat="42.10011" lon="43.06106">
        <ele>211.820275</ele>
        <time>2021-08-16T10:36:04.863Z</time>
      </trkpt>
      <trkpt lat="42.0999" lon="43.06146">
        <ele>211.85241</ele>
        <time>2021-08-16T10:36:13.696Z</time>
      </trkpt>
      <trkpt lat="42.09973" lon="43.0618">
        <ele>211.878962</ele>
        <time>2021-08-16T10:36:20.632Z</time>
      </trkpt>
      <trkpt lat="42.09954" lon="43.06209">
        <ele>211.904487</ele>
        <time>2021-08-16T10:36:27.241Z</time>
      </trkpt>
      <trkpt lat="42.0994" lon="43.06229">
        <ele>211.922522</ele>
        <time>2021-08-16T10:36:31.824Z</time>
      </trkpt>
      <trkpt lat="42.09926" lon="43.06248">
        <ele>211.939751</ele>
        <time>2021-08-16T10:36:36.036Z</time>
      </trkpt>
      <trkpt lat="42.09906" lon="43.06268">
        <ele>211.88535</ele>
        <time>2021-08-16T10:36:41.485Z</time>
      </trkpt>
      <trkpt lat="42.09882" lon="43.06292">
        <ele>211.531469</ele>
        <time>2021-08-16T10:36:47.869Z</time>
      </trkpt>
      <trkpt lat="42.09873" lon="43.063">
        <ele>211.402854</ele>
        <time>2021-08-16T10:36:50.199Z</time>
      </trkpt>
      <trkpt lat="42.09831" lon="43.06334">
        <ele>210.820431</ele>
        <time>2021-08-16T10:37:00.280Z</time>
      </trkpt>
      <trkpt lat="42.0977" lon="43.06387">
        <ele>209.967568</ele>
        <time>2021-08-16T10:37:14.745Z</time>
      </trkpt>
      <trkpt lat="42.09713" lon="43.06447">
        <ele>208.185787</ele>
        <time>2021-08-16T10:37:29.078Z</time>
      </trkpt>
      <trkpt lat="42.09621" lon="43.06541">
        <ele>205.074649</ele>
        <time>2021-08-16T10:37:49.911Z</time>
      </trkpt>
      <trkpt lat="42.09597" lon="43.06566">
        <ele>203.893902</ele>
        <time>2021-08-16T10:37:55.059Z</time>
      </trkpt>
      <trkpt lat="42.09569" lon="43.06584">
        <ele>202.611642</ele>
        <time>2021-08-16T10:38:00.346Z</time>
      </trkpt>
      <trkpt lat="42.09505" lon="43.06628">
        <ele>199.596131</ele>
        <time>2021-08-16T10:38:12.639Z</time>
      </trkpt>
      <trkpt lat="42.09403" lon="43.06679">
        <ele>195.584163</ele>
        <time>2021-08-16T10:38:31.221Z</time>
      </trkpt>
      <trkpt lat="42.09341" lon="43.06718">
        <ele>193.339017</ele>
        <time>2021-08-16T10:38:43.328Z</time>
      </trkpt>
      <trkpt lat="42.09247" lon="43.06762">
        <ele>191.153453</ele>
        <time>2021-08-16T10:39:02.240Z</time>
      </trkpt>
      <trkpt lat="42.09189" lon="43.06797">
        <ele>190.580858</ele>
        <time>2021-08-16T10:39:15.175Z</time>
      </trkpt>
      <trkpt lat="42.08918" lon="43.06801">
        <ele>191.048178</ele>
        <time>2021-08-16T10:40:22.270Z</time>
      </trkpt>
      <trkpt lat="42.08846" lon="43.0684">
        <ele>192.352588</ele>
        <time>2021-08-16T10:40:46.453Z</time>
      </trkpt>
      <trkpt lat="42.08731" lon="43.06928">
        <ele>195.114987</ele>
        <time>2021-08-16T10:41:32.379Z</time>
      </trkpt>
      <trkpt lat="42.08649" lon="43.06966">
        <ele>197.454631</ele>
        <time>2021-08-16T10:42:04.171Z</time>
      </trkpt>
      <trkpt lat="42.08637" lon="43.06975">
        <ele>197.822896</ele>
        <time>2021-08-16T10:42:09.298Z</time>
      </trkpt>
      <trkpt lat="42.08642" lon="43.07033">
        <ele>199.071503</ele>
        <time>2021-08-16T10:42:25.956Z</time>
      </trkpt>
      <trkpt lat="42.08637" lon="43.07104">
        <ele>200.711195</ele>
        <time>2021-08-16T10:42:46.037Z</time>
      </trkpt>
      <trkpt lat="42.08615" lon="43.07179">
        <ele>202.579551</ele>
        <time>2021-08-16T10:43:08.535Z</time>
      </trkpt>
      <trkpt lat="42.08612" lon="43.07191">
        <ele>202.882259</ele>
        <time>2021-08-16T10:43:12.705Z</time>
      </trkpt>
      <trkpt lat="42.08605" lon="43.07202">
        <ele>203.210459</ele>
        <time>2021-08-16T10:43:16.547Z</time>
      </trkpt>
      <trkpt lat="42.08538" lon="43.07255">
        <ele>206.37247</ele>
        <time>2021-08-16T10:43:45.221Z</time>
      </trkpt>
      <trkpt lat="42.08457" lon="43.07301">
        <ele>210.561854</ele>
        <time>2021-08-16T10:44:23.934Z</time>
      </trkpt>
      <trkpt lat="42.08419" lon="43.07337">
        <ele>212.768012</ele>
        <time>2021-08-16T10:44:46.870Z</time>
      </trkpt>
      <trkpt lat="42.08352" lon="43.07414">
        <ele>221.519102</ele>
        <time>2021-08-16T10:45:46.910Z</time>
      </trkpt>
      <trkpt lat="42.08302" lon="43.07508">
        <ele>229.967307</ele>
        <time>2021-08-16T10:46:55.426Z</time>
      </trkpt>
      <trkpt lat="42.08277" lon="43.07567">
        <ele>235.4139</ele>
        <time>2021-08-16T10:47:36.114Z</time>
      </trkpt>
      <trkpt lat="42.08272" lon="43.07576">
        <ele>236.358039</ele>
        <time>2021-08-16T10:47:44.708Z</time>
      </trkpt>
      <trkpt lat="42.08255" lon="43.07581">
        <ele>238.297837</ele>
        <time>2021-08-16T10:47:57.288Z</time>
      </trkpt>
      <trkpt lat="42.08197" lon="43.07538">
        <ele>245.553099</ele>
        <time>2021-08-16T10:48:49.709Z</time>
      </trkpt>
      <trkpt lat="42.08162" lon="43.07522">
        <ele>249.603337</ele>
        <time>2021-08-16T10:49:18.044Z</time>
      </trkpt>
      <trkpt lat="42.08134" lon="43.07489">
        <ele>252.795905</ele>
        <time>2021-08-16T10:49:42.776Z</time>
      </trkpt>
      <trkpt lat="42.08126" lon="43.0749">
        <ele>253.448728</ele>
        <time>2021-08-16T10:49:47.324Z</time>
      </trkpt>
      <trkpt lat="42.08121" lon="43.07502">
        <ele>254.287579</ele>
        <time>2021-08-16T10:49:53.251Z</time>
      </trkpt>
      <trkpt lat="42.08166" lon="43.07578">
        <ele>260.141131</ele>
        <time>2021-08-16T10:50:36.309Z</time>
      </trkpt>
      <trkpt lat="42.08178" lon="43.07622">
        <ele>262.94182</ele>
        <time>2021-08-16T10:50:57.782Z</time>
      </trkpt>
      <trkpt lat="42.08176" lon="43.07642">
        <ele>264.167921</ele>
        <time>2021-08-16T10:51:07.155Z</time>
      </trkpt>
      <trkpt lat="42.08134" lon="43.07793">
        <ele>272.644987</ele>
        <time>2021-08-16T10:52:19.791Z</time>
      </trkpt>
      <trkpt lat="42.08115" lon="43.07809">
        <ele>274.210613</ele>
        <time>2021-08-16T10:52:32.656Z</time>
      </trkpt>
      <trkpt lat="42.08077" lon="43.07824">
        <ele>276.928055</ele>
        <time>2021-08-16T10:52:53.839Z</time>
      </trkpt>
      <trkpt lat="42.08016" lon="43.07898">
        <ele>280.060718</ele>
        <time>2021-08-16T10:53:31.313Z</time>
      </trkpt>
      <trkpt lat="42.08003" lon="43.07924">
        <ele>280.863787</ele>
        <time>2021-08-16T10:53:40.066Z</time>
      </trkpt>
      <trkpt lat="42.07996" lon="43.07971">
        <ele>282.099053</ele>
        <time>2021-08-16T10:53:52.416Z</time>
      </trkpt>
      <trkpt lat="42.07985" lon="43.07991">
        <ele>282.729617</ele>
        <time>2021-08-16T10:53:58.238Z</time>
      </trkpt>
      <trkpt lat="42.07932" lon="43.0802">
        <ele>284.36464</ele>
        <time>2021-08-16T10:54:16.127Z</time>
      </trkpt>
      <trkpt lat="42.07891" lon="43.08056">
        <ele>285.448578</ele>
        <time>2021-08-16T10:54:30.989Z</time>
      </trkpt>
      <trkpt lat="42.0784" lon="43.08116">
        <ele>286.960084</ele>
        <time>2021-08-16T10:54:52.727Z</time>
      </trkpt>
      <trkpt lat="42.07689" lon="43.08184">
        <ele>292.162185</ele>
        <time>2021-08-16T10:55:55.277Z</time>
      </trkpt>
      <trkpt lat="42.07648" lon="43.08213">
        <ele>293.817987</ele>
        <time>2021-08-16T10:56:15.140Z</time>
      </trkpt>
      <trkpt lat="42.0757" lon="43.08336">
        <ele>298.739609</ele>
        <time>2021-08-16T10:57:05.728Z</time>
      </trkpt>
      <trkpt lat="42.0754" lon="43.08369">
        <ele>300.349775</ele>
        <time>2021-08-16T10:57:21.905Z</time>
      </trkpt>
      <trkpt lat="42.07467" lon="43.08471">
        <ele>306.364325</ele>
        <time>2021-08-16T10:58:11.144Z</time>
      </trkpt>
      <trkpt lat="42.07389" lon="43.08566">
        <ele>313.004846</ele>
        <time>2021-08-16T10:59:11.060Z</time>
      </trkpt>
      <trkpt lat="42.07385" lon="43.08571">
        <ele>313.425154</ele>
        <time>2021-08-16T10:59:15.452Z</time>
      </trkpt>
      <trkpt lat="42.07381" lon="43.08577">
        <ele>313.904104</ele>
        <time>2021-08-16T10:59:20.472Z</time>
      </trkpt>
      <trkpt lat="42.07359" lon="43.08612">
        <ele>316.773992</ele>
        <time>2021-08-16T10:59:41.705Z</time>
      </trkpt>
      <trkpt lat="42.0733" lon="43.08637">
        <ele>319.56004</ele>
        <time>2021-08-16T11:00:04.189Z</time>
      </trkpt>
      <trkpt lat="42.07311" lon="43.08664">
        <ele>321.815307</ele>
        <time>2021-08-16T11:00:20.480Z</time>
      </trkpt>
      <trkpt lat="42.07286" lon="43.08725">
        <ele>326.131934</ele>
        <time>2021-08-16T11:00:59.892Z</time>
      </trkpt>
      <trkpt lat="42.07256" lon="43.08771">
        <ele>329.097776</ele>
        <time>2021-08-16T11:01:24.125Z</time>
      </trkpt>
      <trkpt lat="42.07251" lon="43.08786">
        <ele>329.705982</ele>
        <time>2021-08-16T11:01:29.484Z</time>
      </trkpt>
      <trkpt lat="42.07248" lon="43.08799">
        <ele>330.208885</ele>
        <time>2021-08-16T11:01:36.504Z</time>
      </trkpt>
      <trkpt lat="42.0725" lon="43.08802">
        <ele>330.397697</ele>
        <time>2021-08-16T11:01:38.734Z</time>
      </trkpt>
      <trkpt lat="42.07271" lon="43.08875">
        <ele>333.347554</ele>
        <time>2021-08-16T11:02:14.443Z</time>
      </trkpt>
      <trkpt lat="42.07282" lon="43.08897">
        <ele>334.358772</ele>
        <time>2021-08-16T11:02:27.181Z</time>
      </trkpt>
      <trkpt lat="42.07318" lon="43.08926">
        <ele>336.506211</ele>
        <time>2021-08-16T11:02:50.498Z</time>
      </trkpt>
      <trkpt lat="42.07339" lon="43.08951">
        <ele>337.077735</ele>
        <time>2021-08-16T11:03:05.700Z</time>
      </trkpt>
      <trkpt lat="42.07344" lon="43.0897">
        <ele>337.17587</ele>
        <time>2021-08-16T11:03:12.346Z</time>
      </trkpt>
      <trkpt lat="42.07345" lon="43.09008">
        <ele>337.359764</ele>
        <time>2021-08-16T11:03:23.275Z</time>
      </trkpt>
      <trkpt lat="42.07349" lon="43.09021">
        <ele>337.428709</ele>
        <time>2021-08-16T11:03:28.176Z</time>
      </trkpt>
      <trkpt lat="42.07331" lon="43.09031">
        <ele>337.552437</ele>
        <time>2021-08-16T11:03:35.090Z</time>
      </trkpt>
      <trkpt lat="42.07273" lon="43.09042">
        <ele>337.932891</ele>
        <time>2021-08-16T11:03:56.924Z</time>
      </trkpt>
      <trkpt lat="42.07237" lon="43.09073">
        <ele>338.019487</ele>
        <time>2021-08-16T11:04:11.691Z</time>
      </trkpt>
      <trkpt lat="42.07203" lon="43.09117">
        <ele>337.623972</ele>
        <time>2021-08-16T11:04:27.905Z</time>
      </trkpt>
      <trkpt lat="42.07178" lon="43.09165">
        <ele>337.266462</ele>
        <time>2021-08-16T11:04:42.371Z</time>
      </trkpt>
      <trkpt lat="42.07163" lon="43.09209">
        <ele>336.961138</ele>
        <time>2021-08-16T11:04:54.953Z</time>
      </trkpt>
      <trkpt lat="42.07155" lon="43.09214">
        <ele>336.893763</ele>
        <time>2021-08-16T11:04:57.563Z</time>
      </trkpt>
      <trkpt lat="42.07145" lon="43.09244">
        <ele>336.689352</ele>
        <time>2021-08-16T11:05:06.432Z</time>
      </trkpt>
      <trkpt lat="42.0714" lon="43.09275">
        <ele>336.799279</ele>
        <time>2021-08-16T11:05:15.862Z</time>
      </trkpt>
      <trkpt lat="42.07142" lon="43.09338">
        <ele>337.269624</ele>
        <time>2021-08-16T11:05:34.794Z</time>
      </trkpt>
      <trkpt lat="42.07155" lon="43.09408">
        <ele>337.81174</ele>
        <time>2021-08-16T11:05:57.719Z</time>
      </trkpt>
      <trkpt lat="42.07168" lon="43.0943">
        <ele>338.02018</ele>
        <time>2021-08-16T11:06:06.928Z</time>
      </trkpt>
      <trkpt lat="42.07175" lon="43.09453">
        <ele>338.204531</ele>
        <time>2021-08-16T11:06:15.861Z</time>
      </trkpt>
      <trkpt lat="42.07167" lon="43.0946">
        <ele>338.301356</ele>
        <time>2021-08-16T11:06:20.336Z</time>
      </trkpt>
      <trkpt lat="42.07139" lon="43.09486">
        <ele>338.345871</ele>
        <time>2021-08-16T11:06:35.842Z</time>
      </trkpt>
      <trkpt lat="42.07107" lon="43.09565">
        <ele>337.990396</ele>
        <time>2021-08-16T11:07:04.477Z</time>
      </trkpt>
      <trkpt lat="42.07061" lon="43.09632">
        <ele>337.627541</ele>
        <time>2021-08-16T11:07:27.254Z</time>
      </trkpt>
      <trkpt lat="42.0702" lon="43.09665">
        <ele>336.416459</ele>
        <time>2021-08-16T11:07:41.899Z</time>
      </trkpt>
      <trkpt lat="42.06997" lon="43.09664">
        <ele>335.261552</ele>
        <time>2021-08-16T11:07:48.743Z</time>
      </trkpt>
      <trkpt lat="42.06927" lon="43.09645">
        <ele>331.681136</ele>
        <time>2021-08-16T11:08:09.516Z</time>
      </trkpt>
      <trkpt lat="42.0691" lon="43.09648">
        <ele>330.840859</ele>
        <time>2021-08-16T11:08:14.409Z</time>
      </trkpt>
      <trkpt lat="42.06891" lon="43.09669">
        <ele>329.619458</ele>
        <time>2021-08-16T11:08:21.066Z</time>
      </trkpt>
      <trkpt lat="42.06851" lon="43.09686">
        <ele>326.827514</ele>
        <time>2021-08-16T11:08:32.639Z</time>
      </trkpt>
      <trkpt lat="42.06824" lon="43.0971">
        <ele>324.151228</ele>
        <time>2021-08-16T11:08:41.328Z</time>
      </trkpt>
      <trkpt lat="42.06806" lon="43.09718">
        <ele>322.563349</ele>
        <time>2021-08-16T11:08:44.371Z</time>
      </trkpt>
      <trkpt lat="42.06773" lon="43.09717">
        <ele>319.870137</ele>
        <time>2021-08-16T11:08:49.466Z</time>
      </trkpt>
      <trkpt lat="42.06754" lon="43.09716">
        <ele>318.320396</ele>
        <time>2021-08-16T11:08:52.305Z</time>
      </trkpt>
      <trkpt lat="42.06666" lon="43.0972">
        <ele>309.782727</ele>
        <time>2021-08-16T11:09:05.482Z</time>
      </trkpt>
      <trkpt lat="42.06626" lon="43.09735">
        <ele>304.753421</ele>
        <time>2021-08-16T11:09:11.483Z</time>
      </trkpt>
      <trkpt lat="42.06589" lon="43.0971">
        <ele>299.728752</ele>
        <time>2021-08-16T11:09:17.442Z</time>
      </trkpt>
      <trkpt lat="42.06574" lon="43.09708">
        <ele>297.914639</ele>
        <time>2021-08-16T11:09:19.583Z</time>
      </trkpt>
      <trkpt lat="42.06543" lon="43.09705">
        <ele>294.177977</ele>
        <time>2021-08-16T11:09:24.067Z</time>
      </trkpt>
      <trkpt lat="42.06538" lon="43.09705">
        <ele>293.582824</ele>
        <time>2021-08-16T11:09:24.738Z</time>
      </trkpt>
      <trkpt lat="42.06521" lon="43.09677">
        <ele>290.112537</ele>
        <time>2021-08-16T11:09:28.691Z</time>
      </trkpt>
      <trkpt lat="42.06519" lon="43.09659">
        <ele>288.262204</ele>
        <time>2021-08-16T11:09:30.660Z</time>
      </trkpt>
      <trkpt lat="42.06529" lon="43.09617">
        <ele>283.950609</ele>
        <time>2021-08-16T11:09:35.276Z</time>
      </trkpt>
      <trkpt lat="42.06525" lon="43.09607">
        <ele>282.858049</ele>
        <time>2021-08-16T11:09:36.450Z</time>
      </trkpt>
      <trkpt lat="42.0652" lon="43.09606">
        <ele>282.178086</ele>
        <time>2021-08-16T11:09:37.177Z</time>
      </trkpt>
      <trkpt lat="42.06487" lon="43.09642">
        <ele>276.430633</ele>
        <time>2021-08-16T11:09:43.227Z</time>
      </trkpt>
      <trkpt lat="42.06469" lon="43.09685">
        <ele>271.581695</ele>
        <time>2021-08-16T11:09:48.365Z</time>
      </trkpt>
      <trkpt lat="42.06461" lon="43.09693">
        <ele>270.24918</ele>
        <time>2021-08-16T11:09:49.813Z</time>
      </trkpt>
      <trkpt lat="42.06447" lon="43.09736">
        <ele>265.852908</ele>
        <time>2021-08-16T11:09:54.852Z</time>
      </trkpt>
      <trkpt lat="42.06423" lon="43.09797">
        <ele>259.8463</ele>
        <time>2021-08-16T11:10:02.300Z</time>
      </trkpt>
      <trkpt lat="42.06404" lon="43.09838">
        <ele>255.668018</ele>
        <time>2021-08-16T11:10:11.309Z</time>
      </trkpt>
      <trkpt lat="42.06416" lon="43.09901">
        <ele>250.050731</ele>
        <time>2021-08-16T11:10:23.498Z</time>
      </trkpt>
      <trkpt lat="42.06412" lon="43.09919">
        <ele>248.481904</ele>
        <time>2021-08-16T11:10:26.925Z</time>
      </trkpt>
      <trkpt lat="42.06397" lon="43.09934">
        <ele>246.518164</ele>
        <time>2021-08-16T11:10:31.552Z</time>
      </trkpt>
      <trkpt lat="42.06364" lon="43.09952">
        <ele>244.139705</ele>
        <time>2021-08-16T11:10:40.870Z</time>
      </trkpt>
      <trkpt lat="42.06326" lon="43.09955">
        <ele>241.634335</ele>
        <time>2021-08-16T11:10:51.098Z</time>
      </trkpt>
      <trkpt lat="42.0631" lon="43.09944">
        <ele>240.428662</ele>
        <time>2021-08-16T11:10:56.291Z</time>
      </trkpt>
      <trkpt lat="42.06297" lon="43.09924">
        <ele>239.152093</ele>
        <time>2021-08-16T11:11:01.743Z</time>
      </trkpt>
      <trkpt lat="42.063" lon="43.09946">
        <ele>238.070667</ele>
        <time>2021-08-16T11:11:04.500Z</time>
      </trkpt>
      <trkpt lat="42.06315" lon="43.10009">
        <ele>234.848114</ele>
        <time>2021-08-16T11:11:12.723Z</time>
      </trkpt>
      <trkpt lat="42.06331" lon="43.10414">
        <ele>226.777967</ele>
        <time>2021-08-16T11:12:08.034Z</time>
      </trkpt>
      <trkpt lat="42.06324" lon="43.10453">
        <ele>226.147679</ele>
        <time>2021-08-16T11:12:14.148Z</time>
      </trkpt>
      <trkpt lat="42.06304" lon="43.10475">
        <ele>225.604102</ele>
        <time>2021-08-16T11:12:19.609Z</time>
      </trkpt>
      <trkpt lat="42.06291" lon="43.10486">
        <ele>225.695475</ele>
        <time>2021-08-16T11:12:22.785Z</time>
      </trkpt>
      <trkpt lat="42.06261" lon="43.10513">
        <ele>226.071469</ele>
        <time>2021-08-16T11:12:30.908Z</time>
      </trkpt>
      <trkpt lat="42.06207" lon="43.1054">
        <ele>226.677398</ele>
        <time>2021-08-16T11:12:46.214Z</time>
      </trkpt>
      <trkpt lat="42.06179" lon="43.10553">
        <ele>226.985408</ele>
        <time>2021-08-16T11:12:54.953Z</time>
      </trkpt>
      <trkpt lat="42.06153" lon="43.10584">
        <ele>227.343043</ele>
        <time>2021-08-16T11:13:05.902Z</time>
      </trkpt>
      <trkpt lat="42.06128" lon="43.10649">
        <ele>230.023452</ele>
        <time>2021-08-16T11:13:29.777Z</time>
      </trkpt>
      <trkpt lat="42.06092" lon="43.10791">
        <ele>236.305963</ele>
        <time>2021-08-16T11:14:31.124Z</time>
      </trkpt>
      <trkpt lat="42.06084" lon="43.10806">
        <ele>237.106071</ele>
        <time>2021-08-16T11:14:39.476Z</time>
      </trkpt>
      <trkpt lat="42.0607" lon="43.10821">
        <ele>238.078039</ele>
        <time>2021-08-16T11:14:51.203Z</time>
      </trkpt>
      <trkpt lat="42.05934" lon="43.10879">
        <ele>245.777712</ele>
        <time>2021-08-16T11:16:11.324Z</time>
      </trkpt>
      <trkpt lat="42.05905" lon="43.10877">
        <ele>247.291273</ele>
        <time>2021-08-16T11:16:21.264Z</time>
      </trkpt>
      <trkpt lat="42.05782" lon="43.10827">
        <ele>246.696924</ele>
        <time>2021-08-16T11:16:48.639Z</time>
      </trkpt>
      <trkpt lat="42.05705" lon="43.10808">
        <ele>246.244001</ele>
        <time>2021-08-16T11:17:03.260Z</time>
      </trkpt>
      <trkpt lat="42.05487" lon="43.10836">
        <ele>245.102591</ele>
        <time>2021-08-16T11:17:51.245Z</time>
      </trkpt>
      <trkpt lat="42.05447" lon="43.10852">
        <ele>245.155512</ele>
        <time>2021-08-16T11:18:02.259Z</time>
      </trkpt>
      <trkpt lat="42.05377" lon="43.10837">
        <ele>245.24635</ele>
        <time>2021-08-16T11:18:20.575Z</time>
      </trkpt>
      <trkpt lat="42.05246" lon="43.1085">
        <ele>245.69466</ele>
        <time>2021-08-16T11:18:52.706Z</time>
      </trkpt>
      <trkpt lat="42.0516" lon="43.10871">
        <ele>246.219183</ele>
        <time>2021-08-16T11:19:14.054Z</time>
      </trkpt>
      <trkpt lat="42.0507" lon="43.10904">
        <ele>247.090126</ele>
        <time>2021-08-16T11:19:40.326Z</time>
      </trkpt>
      <trkpt lat="42.05026" lon="43.10918">
        <ele>247.512084</ele>
        <time>2021-08-16T11:19:53.924Z</time>
      </trkpt>
      <trkpt lat="42.04998" lon="43.10923">
        <ele>247.887702</ele>
        <time>2021-08-16T11:20:02.768Z</time>
      </trkpt>
      <trkpt lat="42.04797" lon="43.10936">
        <ele>250.424018</ele>
        <time>2021-08-16T11:21:03.148Z</time>
      </trkpt>
      <trkpt lat="42.0476" lon="43.10953">
        <ele>250.768518</ele>
        <time>2021-08-16T11:21:13.237Z</time>
      </trkpt>
      <trkpt lat="42.04708" lon="43.10986">
        <ele>251.28259</ele>
        <time>2021-08-16T11:21:28.302Z</time>
      </trkpt>
      <trkpt lat="42.04688" lon="43.11001">
        <ele>251.487049</ele>
        <time>2021-08-16T11:21:33.821Z</time>
      </trkpt>
      <trkpt lat="42.04669" lon="43.11017">
        <ele>251.767456</ele>
        <time>2021-08-16T11:21:39.828Z</time>
      </trkpt>
      <trkpt lat="42.0458" lon="43.11088">
        <ele>253.802437</ele>
        <time>2021-08-16T11:22:11.977Z</time>
      </trkpt>
      <trkpt lat="42.04546" lon="43.11106">
        <ele>254.510772</ele>
        <time>2021-08-16T11:22:25.237Z</time>
      </trkpt>
      <trkpt lat="42.04523" lon="43.11118">
        <ele>254.986381</ele>
        <time>2021-08-16T11:22:34.641Z</time>
      </trkpt>
      <trkpt lat="42.04498" lon="43.11132">
        <ele>255.950335</ele>
        <time>2021-08-16T11:22:45.447Z</time>
      </trkpt>
      <trkpt lat="42.04456" lon="43.11156">
        <ele>257.810215</ele>
        <time>2021-08-16T11:23:03.370Z</time>
      </trkpt>
      <trkpt lat="42.04399" lon="43.11192">
        <ele>260.378915</ele>
        <time>2021-08-16T11:23:33.760Z</time>
      </trkpt>
      <trkpt lat="42.04325" lon="43.11238">
        <ele>263.512542</ele>
        <time>2021-08-16T11:24:10.147Z</time>
      </trkpt>
      <trkpt lat="42.04317" lon="43.11242">
        <ele>263.850937</ele>
        <time>2021-08-16T11:24:14.921Z</time>
      </trkpt>
      <trkpt lat="42.04295" lon="43.11251">
        <ele>264.653023</ele>
        <time>2021-08-16T11:24:23.456Z</time>
      </trkpt>
      <trkpt lat="42.04279" lon="43.11259">
        <ele>265.281244</ele>
        <time>2021-08-16T11:24:30.960Z</time>
      </trkpt>
      <trkpt lat="42.04185" lon="43.11267">
        <ele>268.67599</ele>
        <time>2021-08-16T11:25:07.188Z</time>
      </trkpt>
      <trkpt lat="42.04152" lon="43.11266">
        <ele>269.910118</ele>
        <time>2021-08-16T11:25:21.308Z</time>
      </trkpt>
      <trkpt lat="42.04129" lon="43.11267">
        <ele>270.795248</ele>
        <time>2021-08-16T11:25:29.408Z</time>
      </trkpt>
      <trkpt lat="42.04113" lon="43.11269">
        <ele>271.44575</ele>
        <time>2021-08-16T11:25:35.941Z</time>
      </trkpt>
      <trkpt lat="42.04083" lon="43.1128">
        <ele>272.630719</ele>
        <time>2021-08-16T11:25:48.294Z</time>
      </trkpt>
      <trkpt lat="42.04062" lon="43.11285">
        <ele>273.469388</ele>
        <time>2021-08-16T11:25:56.565Z</time>
      </trkpt>
      <trkpt lat="42.04052" lon="43.11288">
        <ele>273.85899</ele>
        <time>2021-08-16T11:26:02.357Z</time>
      </trkpt>
      <trkpt lat="42.04012" lon="43.11319">
        <ele>275.637335</ele>
        <time>2021-08-16T11:26:23.094Z</time>
      </trkpt>
      <trkpt lat="42.03988" lon="43.11368">
        <ele>277.908499</ele>
        <time>2021-08-16T11:26:43.644Z</time>
      </trkpt>
      <trkpt lat="42.03962" lon="43.11429">
        <ele>280.807543</ele>
        <time>2021-08-16T11:27:11.834Z</time>
      </trkpt>
      <trkpt lat="42.03935" lon="43.11511">
        <ele>284.44723</ele>
        <time>2021-08-16T11:27:45.600Z</time>
      </trkpt>
      <trkpt lat="42.03916" lon="43.11578">
        <ele>287.600857</ele>
        <time>2021-08-16T11:28:13.291Z</time>
      </trkpt>
      <trkpt lat="42.0391" lon="43.11624">
        <ele>289.734082</ele>
        <time>2021-08-16T11:28:30.587Z</time>
      </trkpt>
      <trkpt lat="42.03907" lon="43.11826">
        <ele>299.560591</ele>
        <time>2021-08-16T11:29:54.374Z</time>
      </trkpt>
      <trkpt lat="42.03906" lon="43.11897">
        <ele>303.603821</ele>
        <time>2021-08-16T11:30:26.891Z</time>
      </trkpt>
      <trkpt lat="42.03904" lon="43.11971">
        <ele>307.77093</ele>
        <time>2021-08-16T11:31:00.833Z</time>
      </trkpt>
      <trkpt lat="42.03892" lon="43.12113">
        <ele>315.772258</ele>
        <time>2021-08-16T11:32:11.292Z</time>
      </trkpt>
      <trkpt lat="42.03894" lon="43.12191">
        <ele>320.172733</ele>
        <time>2021-08-16T11:32:48.428Z</time>
      </trkpt>
      <trkpt lat="42.03902" lon="43.12242">
        <ele>323.053597</ele>
        <time>2021-08-16T11:33:08.188Z</time>
      </trkpt>
      <trkpt lat="42.03909" lon="43.12254">
        <ele>323.87912</ele>
        <time>2021-08-16T11:33:14.690Z</time>
      </trkpt>
      <trkpt lat="42.03903" lon="43.12297">
        <ele>325.844551</ele>
        <time>2021-08-16T11:33:36.054Z</time>
      </trkpt>
      <trkpt lat="42.03897" lon="43.12358">
        <ele>328.493748</ele>
        <time>2021-08-16T11:34:05.281Z</time>
      </trkpt>
      <trkpt lat="42.03903" lon="43.12297">
        <ele>331.142945</ele>
        <time>2021-08-16T11:34:33.666Z</time>
      </trkpt>
      <trkpt lat="42.03909" lon="43.12254">
        <ele>333.049639</ele>
        <time>2021-08-16T11:34:57.056Z</time>
      </trkpt>
      <trkpt lat="42.03916" lon="43.12263">
        <ele>333.644654</ele>
        <time>2021-08-16T11:35:04.370Z</time>
      </trkpt>
      <trkpt lat="42.03971" lon="43.12335">
        <ele>338.832491</ele>
        <time>2021-08-16T11:35:43.046Z</time>
      </trkpt>
      <trkpt lat="42.03987" lon="43.1236">
        <ele>340.557331</ele>
        <time>2021-08-16T11:35:55.008Z</time>
      </trkpt>
      <trkpt lat="42.03994" lon="43.12385">
        <ele>341.98996</ele>
        <time>2021-08-16T11:36:06.079Z</time>
      </trkpt>
      <trkpt lat="42.03994" lon="43.12399">
        <ele>342.708694</ele>
        <time>2021-08-16T11:36:12.873Z</time>
      </trkpt>
      <trkpt lat="42.03985" lon="43.12422">
        <ele>344.108933</ele>
        <time>2021-08-16T11:36:27.933Z</time>
      </trkpt>
      <trkpt lat="42.03963" lon="43.12538">
        <ele>351.099405</ele>
        <time>2021-08-16T11:37:32.112Z</time>
      </trkpt>
      <trkpt lat="42.03967" lon="43.12568">
        <ele>353.059926</ele>
        <time>2021-08-16T11:37:49.124Z</time>
      </trkpt>
      <trkpt lat="42.03987" lon="43.12621">
        <ele>356.928437</ele>
        <time>2021-08-16T11:38:20.378Z</time>
      </trkpt>
      <trkpt lat="42.03997" lon="43.12674">
        <ele>360.493171</ele>
        <time>2021-08-16T11:38:49.080Z</time>
      </trkpt>
      <trkpt lat="42.04002" lon="43.12692">
        <ele>361.75044</ele>
        <time>2021-08-16T11:39:01.025Z</time>
      </trkpt>
      <trkpt lat="42.04002" lon="43.12704">
        <ele>362.54021</ele>
        <time>2021-08-16T11:39:07.728Z</time>
      </trkpt>
      <trkpt lat="42.0399" lon="43.12776">
        <ele>367.484703</ele>
        <time>2021-08-16T11:39:44.526Z</time>
      </trkpt>
      <trkpt lat="42.03989" lon="43.12821">
        <ele>370.544917</ele>
        <time>2021-08-16T11:40:07.866Z</time>
      </trkpt>
      <trkpt lat="42.03991" lon="43.12835">
        <ele>371.563029</ele>
        <time>2021-08-16T11:40:16.899Z</time>
      </trkpt>
      <trkpt lat="42.03997" lon="43.1287">
        <ele>373.964991</ele>
        <time>2021-08-16T11:40:35.000Z</time>
      </trkpt>
      <trkpt lat="42.04014" lon="43.131">
        <ele>388.612026</ele>
        <time>2021-08-16T11:42:30.263Z</time>
      </trkpt>
      <trkpt lat="42.04015" lon="43.13145">
        <ele>391.361109</ele>
        <time>2021-08-16T11:42:50.713Z</time>
      </trkpt>
      <trkpt lat="42.04003" lon="43.13219">
        <ele>395.409987</ele>
        <time>2021-08-16T11:43:23.715Z</time>
      </trkpt>
      <trkpt lat="42.04001" lon="43.13229">
        <ele>395.838498</ele>
        <time>2021-08-16T11:43:28.931Z</time>
      </trkpt>
      <trkpt lat="42.03987" lon="43.13291">
        <ele>398.518218</ele>
        <time>2021-08-16T11:43:55.953Z</time>
      </trkpt>
      <trkpt lat="42.0398" lon="43.13373">
        <ele>401.964857</ele>
        <time>2021-08-16T11:44:25.326Z</time>
      </trkpt>
      <trkpt lat="42.03981" lon="43.1339">
        <ele>402.670934</ele>
        <time>2021-08-16T11:44:32.174Z</time>
      </trkpt>
      <trkpt lat="42.03912" lon="43.13366">
        <ele>405.768985</ele>
        <time>2021-08-16T11:45:01.834Z</time>
      </trkpt>
      <trkpt lat="42.03871" lon="43.13358">
        <ele>407.195997</ele>
        <time>2021-08-16T11:45:16.023Z</time>
      </trkpt>
      <trkpt lat="42.03833" lon="43.13366">
        <ele>408.552729</ele>
        <time>2021-08-16T11:45:29.933Z</time>
      </trkpt>
      <trkpt lat="42.03793" lon="43.13355">
        <ele>409.944567</ele>
        <time>2021-08-16T11:45:44.403Z</time>
      </trkpt>
      <trkpt lat="42.03783" lon="43.1336">
        <ele>410.330001</ele>
        <time>2021-08-16T11:45:49.031Z</time>
      </trkpt>
      <trkpt lat="42.03771" lon="43.13357">
        <ele>410.922587</ele>
        <time>2021-08-16T11:45:53.772Z</time>
      </trkpt>
      <trkpt lat="42.03763" lon="43.13347">
        <ele>411.702759</ele>
        <time>2021-08-16T11:45:58.760Z</time>
      </trkpt>
      <trkpt lat="42.03699" lon="43.13345">
        <ele>416.207343</ele>
        <time>2021-08-16T11:46:33.068Z</time>
      </trkpt>
      <trkpt lat="42.03649" lon="43.13349">
        <ele>419.709823</ele>
        <time>2021-08-16T11:47:02.776Z</time>
      </trkpt>
      <trkpt lat="42.03626" lon="43.13385">
        <ele>422.259777</ele>
        <time>2021-08-16T11:47:26.125Z</time>
      </trkpt>
      <trkpt lat="42.03616" lon="43.13402">
        <ele>423.417341</ele>
        <time>2021-08-16T11:47:37.669Z</time>
      </trkpt>
      <trkpt lat="42.03587" lon="43.13472">
        <ele>429.250013</ele>
        <time>2021-08-16T11:48:22.031Z</time>
      </trkpt>
      <trkpt lat="42.03576" lon="43.13514">
        <ele>432.440127</ele>
        <time>2021-08-16T11:48:44.987Z</time>
      </trkpt>
      <trkpt lat="42.03574" lon="43.13555">
        <ele>435.387214</ele>
        <time>2021-08-16T11:49:06.197Z</time>
      </trkpt>
      <trkpt lat="42.03577" lon="43.13566">
        <ele>436.270123</ele>
        <time>2021-08-16T11:49:14.580Z</time>
      </trkpt>
      <trkpt lat="42.03583" lon="43.13607">
        <ele>439.257696</ele>
        <time>2021-08-16T11:49:37.103Z</time>
      </trkpt>
      <trkpt lat="42.03583" lon="43.13627">
        <ele>440.674691</ele>
        <time>2021-08-16T11:49:46.982Z</time>
      </trkpt>
      <trkpt lat="42.03559" lon="43.13718">
        <ele>446.47687</ele>
        <time>2021-08-16T11:50:34.150Z</time>
      </trkpt>
      <trkpt lat="42.03549" lon="43.13755">
        <ele>448.847728</ele>
        <time>2021-08-16T11:50:53.375Z</time>
      </trkpt>
      <trkpt lat="42.03541" lon="43.13787">
        <ele>450.854733</ele>
        <time>2021-08-16T11:51:07.879Z</time>
      </trkpt>
      <trkpt lat="42.03489" lon="43.13973">
        <ele>461.82029</ele>
        <time>2021-08-16T11:52:30.724Z</time>
      </trkpt>
      <trkpt lat="42.03483" lon="43.14032">
        <ele>464.941074</ele>
        <time>2021-08-16T11:52:55.643Z</time>
      </trkpt>
      <trkpt lat="42.03481" lon="43.14081">
        <ele>467.487385</ele>
        <time>2021-08-16T11:53:17.316Z</time>
      </trkpt>
      <trkpt lat="42.03483" lon="43.14138">
        <ele>470.89846</ele>
        <time>2021-08-16T11:53:43.546Z</time>
      </trkpt>
      <trkpt lat="42.03477" lon="43.14163">
        <ele>472.493646</ele>
        <time>2021-08-16T11:53:57.184Z</time>
      </trkpt>
      <trkpt lat="42.03466" lon="43.14217">
        <ele>475.918829</ele>
        <time>2021-08-16T11:54:24.274Z</time>
      </trkpt>
      <trkpt lat="42.0343" lon="43.14298">
        <ele>481.657387</ele>
        <time>2021-08-16T11:55:11.453Z</time>
      </trkpt>
      <trkpt lat="42.03393" lon="43.14447">
        <ele>489.26759</ele>
        <time>2021-08-16T11:56:20.010Z</time>
      </trkpt>
      <trkpt lat="42.03388" lon="43.14474">
        <ele>490.568808</ele>
        <time>2021-08-16T11:56:31.027Z</time>
      </trkpt>
      <trkpt lat="42.03382" lon="43.14505">
        <ele>492.034391</ele>
        <time>2021-08-16T11:56:42.881Z</time>
      </trkpt>
      <trkpt lat="42.03381" lon="43.14554">
        <ele>494.152061</ele>
        <time>2021-08-16T11:56:59.653Z</time>
      </trkpt>
      <trkpt lat="42.03388" lon="43.14592">
        <ele>495.030027</ele>
        <time>2021-08-16T11:57:11.575Z</time>
      </trkpt>
      <trkpt lat="42.03387" lon="43.14601">
        <ele>495.244421</ele>
        <time>2021-08-16T11:57:15.267Z</time>
      </trkpt>
      <trkpt lat="42.03386" lon="43.14616">
        <ele>495.584129</ele>
        <time>2021-08-16T11:57:19.601Z</time>
      </trkpt>
      <trkpt lat="42.03384" lon="43.14635">
        <ele>496.009408</ele>
        <time>2021-08-16T11:57:24.740Z</time>
      </trkpt>
      <trkpt lat="42.03383" lon="43.14644">
        <ele>496.22504</ele>
        <time>2021-08-16T11:57:28.826Z</time>
      </trkpt>
      <trkpt lat="42.03382" lon="43.14653">
        <ele>496.423331</ele>
        <time>2021-08-16T11:57:30.607Z</time>
      </trkpt>
      <trkpt lat="42.03394" lon="43.14746">
        <ele>498.576254</ele>
        <time>2021-08-16T11:57:55.655Z</time>
      </trkpt>
      <trkpt lat="42.03394" lon="43.1488">
        <ele>501.495138</ele>
        <time>2021-08-16T11:58:27.863Z</time>
      </trkpt>
      <trkpt lat="42.03379" lon="43.14982">
        <ele>503.737924</ele>
        <time>2021-08-16T11:58:57.198Z</time>
      </trkpt>
      <trkpt lat="42.03402" lon="43.15073">
        <ele>505.871659</ele>
        <time>2021-08-16T11:59:29.810Z</time>
      </trkpt>
      <trkpt lat="42.03402" lon="43.15121">
        <ele>506.950902</ele>
        <time>2021-08-16T11:59:46.379Z</time>
      </trkpt>
      <trkpt lat="42.0339" lon="43.15165">
        <ele>508.001907</ele>
        <time>2021-08-16T12:00:00.309Z</time>
      </trkpt>
      <trkpt lat="42.03378" lon="43.15192">
        <ele>508.726363</ele>
        <time>2021-08-16T12:00:08.488Z</time>
      </trkpt>
      <trkpt lat="42.03368" lon="43.15215">
        <ele>509.33495</ele>
        <time>2021-08-16T12:00:15.864Z</time>
      </trkpt>
      <trkpt lat="42.03349" lon="43.15238">
        <ele>510.094388</ele>
        <time>2021-08-16T12:00:23.260Z</time>
      </trkpt>
      <trkpt lat="42.03348" lon="43.15239">
        <ele>510.129253</ele>
        <time>2021-08-16T12:00:24.954Z</time>
      </trkpt>
      <trkpt lat="42.03338" lon="43.15253">
        <ele>509.879498</ele>
        <time>2021-08-16T12:00:28.341Z</time>
      </trkpt>
      <trkpt lat="42.03332" lon="43.15262">
        <ele>509.718219</ele>
        <time>2021-08-16T12:00:30.339Z</time>
      </trkpt>
      <trkpt lat="42.03325" lon="43.15273">
        <ele>509.525189</ele>
        <time>2021-08-16T12:00:32.735Z</time>
      </trkpt>
      <trkpt lat="42.03312" lon="43.15295">
        <ele>509.149646</ele>
        <time>2021-08-16T12:00:37.641Z</time>
      </trkpt>
      <trkpt lat="42.0327" lon="43.15363">
        <ele>507.980944</ele>
        <time>2021-08-16T12:00:50.753Z</time>
      </trkpt>
      <trkpt lat="42.03257" lon="43.15376">
        <ele>507.693087</ele>
        <time>2021-08-16T12:00:53.541Z</time>
      </trkpt>
      <trkpt lat="42.03238" lon="43.15384">
        <ele>507.345478</ele>
        <time>2021-08-16T12:00:57.103Z</time>
      </trkpt>
      <trkpt lat="42.03215" lon="43.15386">
        <ele>506.897418</ele>
        <time>2021-08-16T12:01:01.040Z</time>
      </trkpt>
      <trkpt lat="42.03187" lon="43.15395">
        <ele>505.025828</ele>
        <time>2021-08-16T12:01:05.610Z</time>
      </trkpt>
      <trkpt lat="42.0317" lon="43.15405">
        <ele>503.774088</ele>
        <time>2021-08-16T12:01:08.776Z</time>
      </trkpt>
      <trkpt lat="42.03148" lon="43.15428">
        <ele>501.920762</ele>
        <time>2021-08-16T12:01:13.116Z</time>
      </trkpt>
      <trkpt lat="42.03108" lon="43.15486">
        <ele>497.997987</ele>
        <time>2021-08-16T12:01:22.267Z</time>
      </trkpt>
      <trkpt lat="42.03102" lon="43.15507">
        <ele>496.882855</ele>
        <time>2021-08-16T12:01:24.882Z</time>
      </trkpt>
      <trkpt lat="42.0311" lon="43.15562">
        <ele>493.994878</ele>
        <time>2021-08-16T12:01:31.442Z</time>
      </trkpt>
      <trkpt lat="42.03116" lon="43.15594">
        <ele>492.126184</ele>
        <time>2021-08-16T12:01:35.281Z</time>
      </trkpt>
      <trkpt lat="42.03122" lon="43.15623">
        <ele>490.473465</ele>
        <time>2021-08-16T12:01:38.716Z</time>
      </trkpt>
      <trkpt lat="42.0313" lon="43.15706">
        <ele>485.825118</ele>
        <time>2021-08-16T12:01:48.407Z</time>
      </trkpt>
      <trkpt lat="42.03122" lon="43.15733">
        <ele>484.171476</ele>
        <time>2021-08-16T12:01:51.764Z</time>
      </trkpt>
      <trkpt lat="42.03025" lon="43.15855">
        <ele>474.86587</ele>
        <time>2021-08-16T12:02:12.489Z</time>
      </trkpt>
      <trkpt lat="42.03009" lon="43.15887">
        <ele>472.884288</ele>
        <time>2021-08-16T12:02:17.094Z</time>
      </trkpt>
      <trkpt lat="42.03" lon="43.15911">
        <ele>471.516315</ele>
        <time>2021-08-16T12:02:20.272Z</time>
      </trkpt>
      <trkpt lat="42.02984" lon="43.15956">
        <ele>469.00804</ele>
        <time>2021-08-16T12:02:26.211Z</time>
      </trkpt>
      <trkpt lat="42.02919" lon="43.16097">
        <ele>462.255336</ele>
        <time>2021-08-16T12:02:46.268Z</time>
      </trkpt>
      <trkpt lat="42.02879" lon="43.16202">
        <ele>457.975746</ele>
        <time>2021-08-16T12:03:01.124Z</time>
      </trkpt>
      <trkpt lat="42.02869" lon="43.16213">
        <ele>457.461065</ele>
        <time>2021-08-16T12:03:03.323Z</time>
      </trkpt>
      <trkpt lat="42.02838" lon="43.16229">
        <ele>456.113664</ele>
        <time>2021-08-16T12:03:09.118Z</time>
      </trkpt>
      <trkpt lat="42.02824" lon="43.16244">
        <ele>455.390315</ele>
        <time>2021-08-16T12:03:12.236Z</time>
      </trkpt>
      <trkpt lat="42.02818" lon="43.16264">
        <ele>454.77364</ele>
        <time>2021-08-16T12:03:14.929Z</time>
      </trkpt>
      <trkpt lat="42.02826" lon="43.16314">
        <ele>453.249582</ele>
        <time>2021-08-16T12:03:21.628Z</time>
      </trkpt>
      <trkpt lat="42.02816" lon="43.16336">
        <ele>452.484606</ele>
        <time>2021-08-16T12:03:25.010Z</time>
      </trkpt>
      <trkpt lat="42.02753" lon="43.16346">
        <ele>450.30159</ele>
        <time>2021-08-16T12:03:36.013Z</time>
      </trkpt>
      <trkpt lat="42.02648" lon="43.16375">
        <ele>446.655497</ele>
        <time>2021-08-16T12:03:55.147Z</time>
      </trkpt>
      <trkpt lat="42.02634" lon="43.16381">
        <ele>446.161082</ele>
        <time>2021-08-16T12:03:57.672Z</time>
      </trkpt>
      <trkpt lat="42.02574" lon="43.16421">
        <ele>443.920674</ele>
        <time>2021-08-16T12:04:09.879Z</time>
      </trkpt>
      <trkpt lat="42.02494" lon="43.16478">
        <ele>440.870979</ele>
        <time>2021-08-16T12:04:25.960Z</time>
      </trkpt>
      <trkpt lat="42.0248" lon="43.16483">
        <ele>440.396204</ele>
        <time>2021-08-16T12:04:28.543Z</time>
      </trkpt>
      <trkpt lat="42.02453" lon="43.16491">
        <ele>439.145328</ele>
        <time>2021-08-16T12:04:33.431Z</time>
      </trkpt>
      <trkpt lat="42.02358" lon="43.16531">
        <ele>433.604555</ele>
        <time>2021-08-16T12:04:50.543Z</time>
      </trkpt>
      <trkpt lat="42.02331" lon="43.16548">
        <ele>431.986817</ele>
        <time>2021-08-16T12:04:55.383Z</time>
      </trkpt>
      <trkpt lat="42.02288" lon="43.16608">
        <ele>427.241414</ele>
        <time>2021-08-16T12:05:04.592Z</time>
      </trkpt>
      <trkpt lat="42.0224" lon="43.16632">
        <ele>421.804157</ele>
        <time>2021-08-16T12:05:12.310Z</time>
      </trkpt>
      <trkpt lat="42.02215" lon="43.16676">
        <ele>417.414588</ele>
        <time>2021-08-16T12:05:18.388Z</time>
      </trkpt>
      <trkpt lat="42.0221" lon="43.16674">
        <ele>416.852122</ele>
        <time>2021-08-16T12:05:19.132Z</time>
      </trkpt>
      <trkpt lat="42.02203" lon="43.16671">
        <ele>416.069117</ele>
        <time>2021-08-16T12:05:20.136Z</time>
      </trkpt>
      <trkpt lat="42.02184" lon="43.16644">
        <ele>413.118482</ele>
        <time>2021-08-16T12:05:24.271Z</time>
      </trkpt>
      <trkpt lat="42.02174" lon="43.16639">
        <ele>412.024763</ele>
        <time>2021-08-16T12:05:25.703Z</time>
      </trkpt>
      <trkpt lat="42.02128" lon="43.16636">
        <ele>407.596392</ele>
        <time>2021-08-16T12:05:32.495Z</time>
      </trkpt>
      <trkpt lat="42.0212" lon="43.16647">
        <ele>406.577277</ele>
        <time>2021-08-16T12:05:34.200Z</time>
      </trkpt>
      <trkpt lat="42.02122" lon="43.16654">
        <ele>406.110248</ele>
        <time>2021-08-16T12:05:34.918Z</time>
      </trkpt>
      <trkpt lat="42.02148" lon="43.16692">
        <ele>402.551643</ele>
        <time>2021-08-16T12:05:40.559Z</time>
      </trkpt>
      <trkpt lat="42.02144" lon="43.16721">
        <ele>400.491842</ele>
        <time>2021-08-16T12:05:43.920Z</time>
      </trkpt>
      <trkpt lat="42.02131" lon="43.16732">
        <ele>399.059733</ele>
        <time>2021-08-16T12:05:46.358Z</time>
      </trkpt>
      <trkpt lat="42.021" lon="43.16688">
        <ele>394.908373</ele>
        <time>2021-08-16T12:05:53.586Z</time>
      </trkpt>
      <trkpt lat="42.02084" lon="43.16673">
        <ele>393.887827</ele>
        <time>2021-08-16T12:05:56.682Z</time>
      </trkpt>
      <trkpt lat="42.02077" lon="43.16651">
        <ele>393.252592</ele>
        <time>2021-08-16T12:05:59.676Z</time>
      </trkpt>
      <trkpt lat="42.02078" lon="43.166">
        <ele>391.893456</ele>
        <time>2021-08-16T12:06:06.344Z</time>
      </trkpt>
      <trkpt lat="42.02086" lon="43.16578">
        <ele>391.248829</ele>
        <time>2021-08-16T12:06:09.623Z</time>
      </trkpt>
      <trkpt lat="42.02092" lon="43.16571">
        <ele>390.934739</ele>
        <time>2021-08-16T12:06:11.240Z</time>
      </trkpt>
      <trkpt lat="42.02133" lon="43.16568">
        <ele>389.485852</ele>
        <time>2021-08-16T12:06:18.989Z</time>
      </trkpt>
      <trkpt lat="42.02145" lon="43.16561">
        <ele>389.019639</ele>
        <time>2021-08-16T12:06:21.481Z</time>
      </trkpt>
      <trkpt lat="42.02198" lon="43.16495">
        <ele>386.511151</ele>
        <time>2021-08-16T12:06:34.511Z</time>
      </trkpt>
      <trkpt lat="42.02195" lon="43.16476">
        <ele>386.025077</ele>
        <time>2021-08-16T12:06:36.964Z</time>
      </trkpt>
      <trkpt lat="42.02161" lon="43.16482">
        <ele>384.842838</ele>
        <time>2021-08-16T12:06:42.951Z</time>
      </trkpt>
      <trkpt lat="42.02123" lon="43.16481">
        <ele>383.543795</ele>
        <time>2021-08-16T12:06:49.486Z</time>
      </trkpt>
      <trkpt lat="42.02049" lon="43.16497">
        <ele>381.144568</ele>
        <time>2021-08-16T12:07:02.856Z</time>
      </trkpt>
      <trkpt lat="42.02008" lon="43.16518">
        <ele>379.901471</ele>
        <time>2021-08-16T12:07:10.891Z</time>
      </trkpt>
      <trkpt lat="42.01991" lon="43.16537">
        <ele>379.271873</ele>
        <time>2021-08-16T12:07:14.854Z</time>
      </trkpt>
      <trkpt lat="42.01987" lon="43.16548">
        <ele>379.022689</ele>
        <time>2021-08-16T12:07:16.434Z</time>
      </trkpt>
      <trkpt lat="42.01984" lon="43.16561">
        <ele>378.731399</ele>
        <time>2021-08-16T12:07:18.601Z</time>
      </trkpt>
      <trkpt lat="42.01992" lon="43.16658">
        <ele>376.696025</ele>
        <time>2021-08-16T12:07:31.956Z</time>
      </trkpt>
      <trkpt lat="42.01975" lon="43.16732">
        <ele>374.742737</ele>
        <time>2021-08-16T12:07:42.731Z</time>
      </trkpt>
      <trkpt lat="42.01976" lon="43.1678">
        <ele>373.514761</ele>
        <time>2021-08-16T12:07:49.470Z</time>
      </trkpt>
      <trkpt lat="42.01987" lon="43.16825">
        <ele>372.325609</ele>
        <time>2021-08-16T12:07:55.546Z</time>
      </trkpt>
      <trkpt lat="42.02026" lon="43.16899">
        <ele>369.963123</ele>
        <time>2021-08-16T12:08:06.916Z</time>
      </trkpt>
      <trkpt lat="42.02029" lon="43.16925">
        <ele>369.207352</ele>
        <time>2021-08-16T12:08:10.237Z</time>
      </trkpt>
      <trkpt lat="42.02005" lon="43.17041">
        <ele>365.724274</ele>
        <time>2021-08-16T12:08:25.909Z</time>
      </trkpt>
      <trkpt lat="42.02002" lon="43.17081">
        <ele>364.56215</ele>
        <time>2021-08-16T12:08:31.157Z</time>
      </trkpt>
      <trkpt lat="42.02009" lon="43.17151">
        <ele>362.912333</ele>
        <time>2021-08-16T12:08:40.255Z</time>
      </trkpt>
      <trkpt lat="42.0202" lon="43.17259">
        <ele>360.908352</ele>
        <time>2021-08-16T12:08:54.916Z</time>
      </trkpt>
      <trkpt lat="42.02029" lon="43.17285">
        <ele>360.371723</ele>
        <time>2021-08-16T12:08:58.903Z</time>
      </trkpt>
      <trkpt lat="42.02032" lon="43.173">
        <ele>360.099717</ele>
        <time>2021-08-16T12:09:01.088Z</time>
      </trkpt>
      <trkpt lat="42.02028" lon="43.17346">
        <ele>359.232572</ele>
        <time>2021-08-16T12:09:08.287Z</time>
      </trkpt>
      <trkpt lat="42.02028" lon="43.17375">
        <ele>359.584039</ele>
        <time>2021-08-16T12:09:13.363Z</time>
      </trkpt>
      <trkpt lat="42.02039" lon="43.17439">
        <ele>360.656648</ele>
        <time>2021-08-16T12:09:26.777Z</time>
      </trkpt>
      <trkpt lat="42.0204" lon="43.17465">
        <ele>361.082789</ele>
        <time>2021-08-16T12:09:32.738Z</time>
      </trkpt>
      <trkpt lat="42.02041" lon="43.17542">
        <ele>362.352538</ele>
        <time>2021-08-16T12:09:54.978Z</time>
      </trkpt>
      <trkpt lat="42.02042" lon="43.17553">
        <ele>362.526731</ele>
        <time>2021-08-16T12:09:58.986Z</time>
      </trkpt>
      <trkpt lat="42.02064" lon="43.17695">
        <ele>366.600431</ele>
        <time>2021-08-16T12:10:50.872Z</time>
      </trkpt>
      <trkpt lat="42.02068" lon="43.17724">
        <ele>367.535097</ele>
        <time>2021-08-16T12:11:00.551Z</time>
      </trkpt>
      <trkpt lat="42.02065" lon="43.178">
        <ele>369.971231</ele>
        <time>2021-08-16T12:11:25.609Z</time>
      </trkpt>
      <trkpt lat="42.02062" lon="43.17838">
        <ele>371.267423</ele>
        <time>2021-08-16T12:11:37.411Z</time>
      </trkpt>
      <trkpt lat="42.02055" lon="43.17905">
        <ele>373.77199</ele>
        <time>2021-08-16T12:11:56.320Z</time>
      </trkpt>
      <trkpt lat="42.02054" lon="43.18032">
        <ele>378.487561</ele>
        <time>2021-08-16T12:12:39.491Z</time>
      </trkpt>
      <trkpt lat="42.02046" lon="43.18102">
        <ele>382.273228</ele>
        <time>2021-08-16T12:13:12.535Z</time>
      </trkpt>
      <trkpt lat="42.02044" lon="43.18185">
        <ele>388.231515</ele>
        <time>2021-08-16T12:13:57.853Z</time>
      </trkpt>
      <trkpt lat="42.02045" lon="43.18216">
        <ele>390.43505</ele>
        <time>2021-08-16T12:14:14.160Z</time>
      </trkpt>
      <trkpt lat="42.0205" lon="43.18241">
        <ele>392.308577</ele>
        <time>2021-08-16T12:14:29.725Z</time>
      </trkpt>
      <trkpt lat="42.02055" lon="43.18258">
        <ele>393.628225</ele>
        <time>2021-08-16T12:14:39.378Z</time>
      </trkpt>
      <trkpt lat="42.02051" lon="43.18282">
        <ele>395.422345</ele>
        <time>2021-08-16T12:14:59.061Z</time>
      </trkpt>
      <trkpt lat="42.02076" lon="43.1838">
        <ele>400.172977</ele>
        <time>2021-08-16T12:16:07.447Z</time>
      </trkpt>
      <trkpt lat="42.02085" lon="43.1846">
        <ele>403.136713</ele>
        <time>2021-08-16T12:16:47.934Z</time>
      </trkpt>
      <trkpt lat="42.02089" lon="43.18478">
        <ele>403.836286</ele>
        <time>2021-08-16T12:16:57.008Z</time>
      </trkpt>
      <trkpt lat="42.02099" lon="43.18497">
        <ele>404.699521</ele>
        <time>2021-08-16T12:17:02.392Z</time>
      </trkpt>
      <trkpt lat="42.02113" lon="43.18523">
        <ele>405.907077</ele>
        <time>2021-08-16T12:17:11.358Z</time>
      </trkpt>
      <trkpt lat="42.0212" lon="43.18535">
        <ele>405.952826</ele>
        <time>2021-08-16T12:17:14.504Z</time>
      </trkpt>
      <trkpt lat="42.02144" lon="43.18575">
        <ele>403.334641</ele>
        <time>2021-08-16T12:17:26.135Z</time>
      </trkpt>
      <trkpt lat="42.02157" lon="43.18621">
        <ele>400.812341</ele>
        <time>2021-08-16T12:17:36.730Z</time>
      </trkpt>
      <trkpt lat="42.02155" lon="43.18638">
        <ele>399.961778</ele>
        <time>2021-08-16T12:17:40.507Z</time>
      </trkpt>
      <trkpt lat="42.02148" lon="43.18669">
        <ele>398.31984</ele>
        <time>2021-08-16T12:17:46.820Z</time>
      </trkpt>
      <trkpt lat="42.02131" lon="43.18801">
        <ele>389.387885</ele>
        <time>2021-08-16T12:18:12.145Z</time>
      </trkpt>
      <trkpt lat="42.02134" lon="43.18901">
        <ele>379.805617</ele>
        <time>2021-08-16T12:18:30.535Z</time>
      </trkpt>
      <trkpt lat="42.02135" lon="43.18908">
        <ele>379.058579</ele>
        <time>2021-08-16T12:18:31.893Z</time>
      </trkpt>
      <trkpt lat="42.02139" lon="43.18941">
        <ele>375.92698</ele>
        <time>2021-08-16T12:18:37.957Z</time>
      </trkpt>
      <trkpt lat="42.02153" lon="43.19004">
        <ele>369.599046</ele>
        <time>2021-08-16T12:18:50.059Z</time>
      </trkpt>
      <trkpt lat="42.02157" lon="43.19069">
        <ele>363.341486</ele>
        <time>2021-08-16T12:19:01.863Z</time>
      </trkpt>
      <trkpt lat="42.02157" lon="43.19095">
        <ele>360.750194</ele>
        <time>2021-08-16T12:19:06.687Z</time>
      </trkpt>
      <trkpt lat="42.02153" lon="43.19224">
        <ele>348.310069</ele>
        <time>2021-08-16T12:19:30.506Z</time>
      </trkpt>
      <trkpt lat="42.02159" lon="43.19254">
        <ele>345.839667</ele>
        <time>2021-08-16T12:19:36.201Z</time>
      </trkpt>
      <trkpt lat="42.02152" lon="43.19268">
        <ele>344.547291</ele>
        <time>2021-08-16T12:19:38.051Z</time>
      </trkpt>
      <trkpt lat="42.02138" lon="43.19303">
        <ele>341.690334</ele>
        <time>2021-08-16T12:19:42.167Z</time>
      </trkpt>
      <trkpt lat="42.02128" lon="43.19333">
        <ele>339.31991</ele>
        <time>2021-08-16T12:19:45.625Z</time>
      </trkpt>
      <trkpt lat="42.02124" lon="43.19345">
        <ele>338.290996</ele>
        <time>2021-08-16T12:19:47.135Z</time>
      </trkpt>
      <trkpt lat="42.02113" lon="43.19382">
        <ele>335.430065</ele>
        <time>2021-08-16T12:19:51.294Z</time>
      </trkpt>
      <trkpt lat="42.021" lon="43.19423">
        <ele>332.122571</ele>
        <time>2021-08-16T12:19:56.067Z</time>
      </trkpt>
      <trkpt lat="42.02075" lon="43.19507">
        <ele>326.923337</ele>
        <time>2021-08-16T12:20:05.999Z</time>
      </trkpt>
      <trkpt lat="42.02067" lon="43.19534">
        <ele>325.534646</ele>
        <time>2021-08-16T12:20:09.193Z</time>
      </trkpt>
      <trkpt lat="42.02056" lon="43.19568">
        <ele>323.749009</ele>
        <time>2021-08-16T12:20:13.399Z</time>
      </trkpt>
      <trkpt lat="42.02045" lon="43.19608">
        <ele>321.669624</ele>
        <time>2021-08-16T12:20:18.358Z</time>
      </trkpt>
      <trkpt lat="42.02032" lon="43.19662">
        <ele>318.877133</ele>
        <time>2021-08-16T12:20:25.193Z</time>
      </trkpt>
      <trkpt lat="42.02021" lon="43.19769">
        <ele>313.263081</ele>
        <time>2021-08-16T12:20:37.478Z</time>
      </trkpt>
      <trkpt lat="42.02003" lon="43.1985">
        <ele>308.78714</ele>
        <time>2021-08-16T12:20:46.988Z</time>
      </trkpt>
      <trkpt lat="42.02003" lon="43.19874">
        <ele>307.505387</ele>
        <time>2021-08-16T12:20:49.791Z</time>
      </trkpt>
      <trkpt lat="42.02006" lon="43.199">
        <ele>306.107625</ele>
        <time>2021-08-16T12:20:52.616Z</time>
      </trkpt>
      <trkpt lat="42.0202" lon="43.19947">
        <ele>302.940632</ele>
        <time>2021-08-16T12:20:57.842Z</time>
      </trkpt>
      <trkpt lat="42.02054" lon="43.19987">
        <ele>298.668362</ele>
        <time>2021-08-16T12:21:04.278Z</time>
      </trkpt>
      <trkpt lat="42.02062" lon="43.2001">
        <ele>296.896446</ele>
        <time>2021-08-16T12:21:06.865Z</time>
      </trkpt>
      <trkpt lat="42.02059" lon="43.20043">
        <ele>294.521505</ele>
        <time>2021-08-16T12:21:10.575Z</time>
      </trkpt>
      <trkpt lat="42.02043" lon="43.20088">
        <ele>291.007291</ele>
        <time>2021-08-16T12:21:15.877Z</time>
      </trkpt>
      <trkpt lat="42.02039" lon="43.20101">
        <ele>290.046293</ele>
        <time>2021-08-16T12:21:17.259Z</time>
      </trkpt>
      <trkpt lat="42.02027" lon="43.20111">
        <ele>288.725477</ele>
        <time>2021-08-16T12:21:19.409Z</time>
      </trkpt>
      <trkpt lat="42.01962" lon="43.20137">
        <ele>285.475504</ele>
        <time>2021-08-16T12:21:29.663Z</time>
      </trkpt>
      <trkpt lat="42.01862" lon="43.20166">
        <ele>280.956817</ele>
        <time>2021-08-16T12:21:46.953Z</time>
      </trkpt>
      <trkpt lat="42.01849" lon="43.2017">
        <ele>280.402655</ele>
        <time>2021-08-16T12:21:49.663Z</time>
      </trkpt>
      <trkpt lat="42.01817" lon="43.20179">
        <ele>280.064856</ele>
        <time>2021-08-16T12:21:56.346Z</time>
      </trkpt>
      <trkpt lat="42.01803" lon="43.20183">
        <ele>279.956468</ele>
        <time>2021-08-16T12:21:59.427Z</time>
      </trkpt>
      <trkpt lat="42.01711" lon="43.20216">
        <ele>279.257696</ele>
        <time>2021-08-16T12:22:19.348Z</time>
      </trkpt>
      <trkpt lat="42.01679" lon="43.20227">
        <ele>279.015378</ele>
        <time>2021-08-16T12:22:26.306Z</time>
      </trkpt>
      <trkpt lat="42.01649" lon="43.2024">
        <ele>279.059063</ele>
        <time>2021-08-16T12:22:32.991Z</time>
      </trkpt>
      <trkpt lat="42.01618" lon="43.20252">
        <ele>279.184307</ele>
        <time>2021-08-16T12:22:39.849Z</time>
      </trkpt>
      <trkpt lat="42.0157" lon="43.20256">
        <ele>279.367988</ele>
        <time>2021-08-16T12:22:50.704Z</time>
      </trkpt>
      <trkpt lat="42.01535" lon="43.20258">
        <ele>279.506227</ele>
        <time>2021-08-16T12:23:00.421Z</time>
      </trkpt>
      <trkpt lat="42.01515" lon="43.20264">
        <ele>279.58493</ele>
        <time>2021-08-16T12:23:06.106Z</time>
      </trkpt>
      <trkpt lat="42.01439" lon="43.20322">
        <ele>280.802383</ele>
        <time>2021-08-16T12:23:30.676Z</time>
      </trkpt>
      <trkpt lat="42.01431" lon="43.2033">
        <ele>280.981347</ele>
        <time>2021-08-16T12:23:34.154Z</time>
      </trkpt>
      <trkpt lat="42.01425" lon="43.20335">
        <ele>281.094232</ele>
        <time>2021-08-16T12:23:36.399Z</time>
      </trkpt>
      <trkpt lat="42.014" lon="43.20367">
        <ele>281.670426</ele>
        <time>2021-08-16T12:23:47.384Z</time>
      </trkpt>
      <trkpt lat="42.01377" lon="43.20396">
        <ele>282.208596</ele>
        <time>2021-08-16T12:23:57.082Z</time>
      </trkpt>
      <trkpt lat="42.01361" lon="43.20424">
        <ele>282.656299</ele>
        <time>2021-08-16T12:24:05.336Z</time>
      </trkpt>
      <trkpt lat="42.0134" lon="43.2046">
        <ele>283.526342</ele>
        <time>2021-08-16T12:24:16.685Z</time>
      </trkpt>
      <trkpt lat="42.01327" lon="43.20487">
        <ele>284.157026</ele>
        <time>2021-08-16T12:24:25.202Z</time>
      </trkpt>
      <trkpt lat="42.01314" lon="43.20513">
        <ele>284.769759</ele>
        <time>2021-08-16T12:24:33.698Z</time>
      </trkpt>
      <trkpt lat="42.01299" lon="43.2054">
        <ele>285.445182</ele>
        <time>2021-08-16T12:24:43.516Z</time>
      </trkpt>
      <trkpt lat="42.01286" lon="43.20566">
        <ele>286.050724</ele>
        <time>2021-08-16T12:24:52.601Z</time>
      </trkpt>
      <trkpt lat="42.01212" lon="43.20586">
        <ele>287.87821</ele>
        <time>2021-08-16T12:25:20.531Z</time>
      </trkpt>
      <trkpt lat="42.01145" lon="43.20605">
        <ele>289.109238</ele>
        <time>2021-08-16T12:25:41.790Z</time>
      </trkpt>
      <trkpt lat="42.01137" lon="43.2061">
        <ele>289.278974</ele>
        <time>2021-08-16T12:25:44.542Z</time>
      </trkpt>
      <trkpt lat="42.0112" lon="43.20625">
        <ele>289.650016</ele>
        <time>2021-08-16T12:25:51.629Z</time>
      </trkpt>
      <trkpt lat="42.01102" lon="43.20672">
        <ele>290.360106</ele>
        <time>2021-08-16T12:26:04.342Z</time>
      </trkpt>
      <trkpt lat="42.01092" lon="43.207">
        <ele>290.7629</ele>
        <time>2021-08-16T12:26:11.238Z</time>
      </trkpt>
      <trkpt lat="42.01084" lon="43.20725">
        <ele>291.002824</ele>
        <time>2021-08-16T12:26:16.986Z</time>
      </trkpt>
      <trkpt lat="42.01072" lon="43.20772">
        <ele>291.452173</ele>
        <time>2021-08-16T12:26:26.080Z</time>
      </trkpt>
      <trkpt lat="42.01039" lon="43.20894">
        <ele>292.610776</ele>
        <time>2021-08-16T12:26:53.033Z</time>
      </trkpt>
      <trkpt lat="42.01032" lon="43.2092">
        <ele>292.851956</ele>
        <time>2021-08-16T12:26:59.022Z</time>
      </trkpt>
      <trkpt lat="42.01031" lon="43.20946">
        <ele>293.349175</ele>
        <time>2021-08-16T12:27:06.771Z</time>
      </trkpt>
      <trkpt lat="42.01037" lon="43.20949">
        <ele>293.525135</ele>
        <time>2021-08-16T12:27:08.939Z</time>
      </trkpt>
      <trkpt lat="42.01046" lon="43.20957">
        <ele>293.841387</ele>
        <time>2021-08-16T12:27:12.062Z</time>
      </trkpt>
      <trkpt lat="42.01024" lon="43.20991">
        <ele>294.796979</ele>
        <time>2021-08-16T12:27:24.402Z</time>
      </trkpt>
      <trkpt lat="42.01011" lon="43.21009">
        <ele>295.310668</ele>
        <time>2021-08-16T12:27:31.721Z</time>
      </trkpt>
      <trkpt lat="42.00918" lon="43.2109">
        <ele>298.526768</ele>
        <time>2021-08-16T12:28:13.700Z</time>
      </trkpt>
      <trkpt lat="42.00876" lon="43.21145">
        <ele>300.456461</ele>
        <time>2021-08-16T12:28:37.104Z</time>
      </trkpt>
      <trkpt lat="42.0083" lon="43.21225">
        <ele>302.958087</ele>
        <time>2021-08-16T12:29:06.115Z</time>
      </trkpt>
      <trkpt lat="42.00772" lon="43.21318">
        <ele>305.960323</ele>
        <time>2021-08-16T12:29:40.851Z</time>
      </trkpt>
      <trkpt lat="42.00748" lon="43.21366">
        <ele>307.392214</ele>
        <time>2021-08-16T12:30:03.979Z</time>
      </trkpt>
      <trkpt lat="42.0064" lon="43.21539">
        <ele>312.89851</ele>
        <time>2021-08-16T12:31:35.324Z</time>
      </trkpt>
      <trkpt lat="42.00589" lon="43.21637">
        <ele>315.744954</ele>
        <time>2021-08-16T12:32:22.861Z</time>
      </trkpt>
      <trkpt lat="42.00568" lon="43.21663">
        <ele>316.084798</ele>
        <time>2021-08-16T12:32:37.111Z</time>
      </trkpt>
      <trkpt lat="42.00535" lon="43.21773">
        <ele>317.136469</ele>
        <time>2021-08-16T12:33:16.610Z</time>
      </trkpt>
      <trkpt lat="42.00481" lon="43.2184">
        <ele>317.58173</ele>
        <time>2021-08-16T12:33:45.300Z</time>
      </trkpt>
      <trkpt lat="42.00471" lon="43.21869">
        <ele>316.985626</ele>
        <time>2021-08-16T12:33:53.060Z</time>
      </trkpt>
      <trkpt lat="42.00467" lon="43.2191">
        <ele>316.198445</ele>
        <time>2021-08-16T12:34:02.789Z</time>
      </trkpt>
      <trkpt lat="42.00465" lon="43.21967">
        <ele>315.09214</ele>
        <time>2021-08-16T12:34:15.984Z</time>
      </trkpt>
      <trkpt lat="42.00469" lon="43.22039">
        <ele>313.722798</ele>
        <time>2021-08-16T12:34:32.188Z</time>
      </trkpt>
      <trkpt lat="42.00453" lon="43.22103">
        <ele>312.609313</ele>
        <time>2021-08-16T12:34:47.418Z</time>
      </trkpt>
      <trkpt lat="42.0045" lon="43.22114">
        <ele>312.425366</ele>
        <time>2021-08-16T12:34:50.160Z</time>
      </trkpt>
      <trkpt lat="42.00439" lon="43.2216">
        <ele>311.697565</ele>
        <time>2021-08-16T12:35:01.186Z</time>
      </trkpt>
      <trkpt lat="42.00412" lon="43.22212">
        <ele>310.766629</ele>
        <time>2021-08-16T12:35:15.771Z</time>
      </trkpt>
      <trkpt lat="42.00373" lon="43.2225">
        <ele>309.78914</ele>
        <time>2021-08-16T12:35:32.350Z</time>
      </trkpt>
      <trkpt lat="42.00334" lon="43.22271">
        <ele>311.300381</ele>
        <time>2021-08-16T12:35:51.136Z</time>
      </trkpt>
      <trkpt lat="42.00303" lon="43.22266">
        <ele>312.851891</ele>
        <time>2021-08-16T12:36:08.165Z</time>
      </trkpt>
      <trkpt lat="42.0025" lon="43.22234">
        <ele>315.722561</ele>
        <time>2021-08-16T12:36:45.696Z</time>
      </trkpt>
      <trkpt lat="42.00214" lon="43.22197">
        <ele>317.907036</ele>
        <time>2021-08-16T12:37:18.953Z</time>
      </trkpt>
      <trkpt lat="42.0014" lon="43.22177">
        <ele>323.012957</ele>
        <time>2021-08-16T12:38:23.246Z</time>
      </trkpt>
      <trkpt lat="42.00112" lon="43.22179">
        <ele>324.980143</ele>
        <time>2021-08-16T12:38:47.768Z</time>
      </trkpt>
      <trkpt lat="42.00078" lon="43.22227">
        <ele>328.379283</ele>
        <time>2021-08-16T12:39:21.178Z</time>
      </trkpt>
      <trkpt lat="42.0005" lon="43.22327">
        <ele>330.957951</ele>
        <time>2021-08-16T12:40:04.773Z</time>
      </trkpt>
      <trkpt lat="42.00048" lon="43.22376">
        <ele>330.859611</ele>
        <time>2021-08-16T12:40:20.435Z</time>
      </trkpt>
      <trkpt lat="42.0008" lon="43.22403">
        <ele>330.758553</ele>
        <time>2021-08-16T12:40:28.278Z</time>
      </trkpt>
      <trkpt lat="42.00044" lon="43.22437">
        <ele>330.639893</ele>
        <time>2021-08-16T12:40:36.724Z</time>
      </trkpt>
      <trkpt lat="42.00026" lon="43.2247">
        <ele>330.241949</ele>
        <time>2021-08-16T12:40:45.615Z</time>
      </trkpt>
      <trkpt lat="41.99987" lon="43.2255">
        <ele>327.842126</ele>
        <time>2021-08-16T12:41:05.919Z</time>
      </trkpt>
      <trkpt lat="41.99953" lon="43.22595">
        <ele>326.241434</ele>
        <time>2021-08-16T12:41:22.284Z</time>
      </trkpt>
      <trkpt lat="41.99901" lon="43.22707">
        <ele>323.400456</ele>
        <time>2021-08-16T12:41:52.530Z</time>
      </trkpt>
      <trkpt lat="41.99891" lon="43.22753">
        <ele>322.572142</ele>
        <time>2021-08-16T12:42:03.536Z</time>
      </trkpt>
      <trkpt lat="41.99889" lon="43.228">
        <ele>321.747049</ele>
        <time>2021-08-16T12:42:14.651Z</time>
      </trkpt>
      <trkpt lat="41.99894" lon="43.22971">
        <ele>320.442236</ele>
        <time>2021-08-16T12:42:57.581Z</time>
      </trkpt>
      <trkpt lat="41.99891" lon="43.22993">
        <ele>320.480377</ele>
        <time>2021-08-16T12:43:04.168Z</time>
      </trkpt>
      <trkpt lat="41.99877" lon="43.23009">
        <ele>320.524077</ele>
        <time>2021-08-16T12:43:12.563Z</time>
      </trkpt>
      <trkpt lat="41.99832" lon="43.23023">
        <ele>320.634967</ele>
        <time>2021-08-16T12:43:32.422Z</time>
      </trkpt>
      <trkpt lat="41.9978" lon="43.23024">
        <ele>320.886582</ele>
        <time>2021-08-16T12:43:54.779Z</time>
      </trkpt>
      <trkpt lat="41.99775" lon="43.23028">
        <ele>320.945434</ele>
        <time>2021-08-16T12:43:57.861Z</time>
      </trkpt>
      <trkpt lat="41.99763" lon="43.23055">
        <ele>321.164417</ele>
        <time>2021-08-16T12:44:04.296Z</time>
      </trkpt>
      <trkpt lat="41.9976" lon="43.23069">
        <ele>321.263452</ele>
        <time>2021-08-16T12:44:09.082Z</time>
      </trkpt>
      <trkpt lat="41.99759" lon="43.23083">
        <ele>321.362227</ele>
        <time>2021-08-16T12:44:14.073Z</time>
      </trkpt>
      <trkpt lat="41.99758" lon="43.2309">
        <ele>321.414139</ele>
        <time>2021-08-16T12:44:15.959Z</time>
      </trkpt>
      <trkpt lat="41.99757" lon="43.23109">
        <ele>321.543563</ele>
        <time>2021-08-16T12:44:21.841Z</time>
      </trkpt>
      <trkpt lat="41.99772" lon="43.23229">
        <ele>322.390012</ele>
        <time>2021-08-16T12:44:59.729Z</time>
      </trkpt>
      <trkpt lat="41.99801" lon="43.23337">
        <ele>323.815984</ele>
        <time>2021-08-16T12:45:30.847Z</time>
      </trkpt>
      <trkpt lat="41.99808" lon="43.23382">
        <ele>324.387124</ele>
        <time>2021-08-16T12:45:44.920Z</time>
      </trkpt>
      <trkpt lat="41.99807" lon="43.23453">
        <ele>325.266095</ele>
        <time>2021-08-16T12:46:09.320Z</time>
      </trkpt>
      <trkpt lat="41.99801" lon="43.23469">
        <ele>325.995509</ele>
        <time>2021-08-16T12:46:17.484Z</time>
      </trkpt>
      <trkpt lat="41.99797" lon="43.23475">
        <ele>326.63268</ele>
        <time>2021-08-16T12:46:21.246Z</time>
      </trkpt>
      <trkpt lat="41.99792" lon="43.23483">
        <ele>327.560278</ele>
        <time>2021-08-16T12:46:26.655Z</time>
      </trkpt>
      <trkpt lat="41.99777" lon="43.23507">
        <ele>330.335405</ele>
        <time>2021-08-16T12:46:45.796Z</time>
      </trkpt>
      <trkpt lat="41.99739" lon="43.23552">
        <ele>336.435887</ele>
        <time>2021-08-16T12:47:31.770Z</time>
      </trkpt>
      <trkpt lat="41.9972" lon="43.23619">
        <ele>342.783092</ele>
        <time>2021-08-16T12:48:28.640Z</time>
      </trkpt>
      <trkpt lat="41.99685" lon="43.23601">
        <ele>347.429132</ele>
        <time>2021-08-16T12:49:09.402Z</time>
      </trkpt>
      <trkpt lat="41.99663" lon="43.23596">
        <ele>351.382161</ele>
        <time>2021-08-16T12:49:38.100Z</time>
      </trkpt>
      <trkpt lat="41.99638" lon="43.23616">
        <ele>356.646337</ele>
        <time>2021-08-16T12:50:15.276Z</time>
      </trkpt>
      <trkpt lat="41.99596" lon="43.23617">
        <ele>364.17572</ele>
        <time>2021-08-16T12:51:07.231Z</time>
      </trkpt>
      <trkpt lat="41.99552" lon="43.23633">
        <ele>372.238817</ele>
        <time>2021-08-16T12:52:00.997Z</time>
      </trkpt>
      <trkpt lat="41.99529" lon="43.23634">
        <ele>376.264387</ele>
        <time>2021-08-16T12:52:25.921Z</time>
      </trkpt>
      <trkpt lat="41.99533" lon="43.23652">
        <ele>378.772709</ele>
        <time>2021-08-16T12:52:37.990Z</time>
      </trkpt>
      <trkpt lat="41.99559" lon="43.23694">
        <ele>381.054189</ele>
        <time>2021-08-16T12:53:14.249Z</time>
      </trkpt>
      <trkpt lat="41.99565" lon="43.23717">
        <ele>382.032365</ele>
        <time>2021-08-16T12:53:26.885Z</time>
      </trkpt>
      <trkpt lat="41.99565" lon="43.23767">
        <ele>384.067717</ele>
        <time>2021-08-16T12:53:49.633Z</time>
      </trkpt>
      <trkpt lat="41.99572" lon="43.23786">
        <ele>384.89743</ele>
        <time>2021-08-16T12:53:57.813Z</time>
      </trkpt>
      <trkpt lat="41.99573" lon="43.23813">
        <ele>385.980994</ele>
        <time>2021-08-16T12:54:08.450Z</time>
      </trkpt>
      <trkpt lat="41.99569" lon="43.23835">
        <ele>386.897914</ele>
        <time>2021-08-16T12:54:15.401Z</time>
      </trkpt>
      <trkpt lat="41.99555" lon="43.23861">
        <ele>388.221</ele>
        <time>2021-08-16T12:54:22.452Z</time>
      </trkpt>
      <trkpt lat="41.99551" lon="43.2388">
        <ele>387.944103</ele>
        <time>2021-08-16T12:54:26.973Z</time>
      </trkpt>
      <trkpt lat="41.99548" lon="43.23892">
        <ele>386.911171</ele>
        <time>2021-08-16T12:54:29.430Z</time>
      </trkpt>
      <trkpt lat="41.99531" lon="43.23931">
        <ele>383.304933</ele>
        <time>2021-08-16T12:54:38.516Z</time>
      </trkpt>
      <trkpt lat="41.99504" lon="43.23963">
        <ele>379.342847</ele>
        <time>2021-08-16T12:54:47.932Z</time>
      </trkpt>
      <trkpt lat="41.99513" lon="43.24">
        <ele>376.195997</ele>
        <time>2021-08-16T12:54:55.212Z</time>
      </trkpt>
      <trkpt lat="41.9951" lon="43.2402">
        <ele>374.599432</ele>
        <time>2021-08-16T12:54:58.744Z</time>
      </trkpt>
      <trkpt lat="41.99489" lon="43.24055">
        <ele>370.944751</ele>
        <time>2021-08-16T12:55:06.881Z</time>
      </trkpt>
      <trkpt lat="41.99487" lon="43.24065">
        <ele>370.03241</ele>
        <time>2021-08-16T12:55:08.893Z</time>
      </trkpt>
      <trkpt lat="41.99513" lon="43.24097">
        <ele>365.012286</ele>
        <time>2021-08-16T12:55:17.363Z</time>
      </trkpt>
      <trkpt lat="41.99518" lon="43.24112">
        <ele>363.166648</ele>
        <time>2021-08-16T12:55:20.250Z</time>
      </trkpt>
      <trkpt lat="41.99511" lon="43.24143">
        <ele>359.512144</ele>
        <time>2021-08-16T12:55:25.830Z</time>
      </trkpt>
      <trkpt lat="41.99535" lon="43.24224">
        <ele>349.573581</ele>
        <time>2021-08-16T12:55:41.288Z</time>
      </trkpt>
      <trkpt lat="41.99533" lon="43.24248">
        <ele>346.847929</ele>
        <time>2021-08-16T12:55:45.758Z</time>
      </trkpt>
      <trkpt lat="41.99522" lon="43.24297">
        <ele>341.372736</ele>
        <time>2021-08-16T12:55:55.216Z</time>
      </trkpt>
      <trkpt lat="41.99525" lon="43.24311">
        <ele>340.744796</ele>
        <time>2021-08-16T12:55:57.855Z</time>
      </trkpt>
      <trkpt lat="41.99507" lon="43.2433">
        <ele>339.486404</ele>
        <time>2021-08-16T12:56:03.961Z</time>
      </trkpt>
      <trkpt lat="41.99475" lon="43.24349">
        <ele>337.498959</ele>
        <time>2021-08-16T12:56:13.356Z</time>
      </trkpt>
      <trkpt lat="41.99404" lon="43.2435">
        <ele>333.453018</ele>
        <time>2021-08-16T12:56:34.376Z</time>
      </trkpt>
      <trkpt lat="41.99367" lon="43.24384">
        <ele>331.548599</ele>
        <time>2021-08-16T12:56:49.760Z</time>
      </trkpt>
      <trkpt lat="41.99349" lon="43.24408">
        <ele>331.917811</ele>
        <time>2021-08-16T12:57:01.964Z</time>
      </trkpt>
      <trkpt lat="41.99316" lon="43.24482">
        <ele>332.843518</ele>
        <time>2021-08-16T12:57:33.284Z</time>
      </trkpt>
      <trkpt lat="41.99299" lon="43.24565">
        <ele>333.775777</ele>
        <time>2021-08-16T12:58:04.365Z</time>
      </trkpt>
      <trkpt lat="41.99299" lon="43.24611">
        <ele>334.107103</ele>
        <time>2021-08-16T12:58:19.695Z</time>
      </trkpt>
      <trkpt lat="41.99283" lon="43.24657">
        <ele>334.289597</ele>
        <time>2021-08-16T12:58:35.530Z</time>
      </trkpt>
      <trkpt lat="41.9928" lon="43.24668">
        <ele>334.332735</ele>
        <time>2021-08-16T12:58:39.527Z</time>
      </trkpt>
      <trkpt lat="41.99253" lon="43.24707">
        <ele>334.525615</ele>
        <time>2021-08-16T12:58:54.975Z</time>
      </trkpt>
      <trkpt lat="41.99227" lon="43.2473">
        <ele>334.675744</ele>
        <time>2021-08-16T12:59:06.549Z</time>
      </trkpt>
      <trkpt lat="41.99213" lon="43.24732">
        <ele>334.74254</ele>
        <time>2021-08-16T12:59:11.548Z</time>
      </trkpt>
      <trkpt lat="41.99188" lon="43.24724">
        <ele>334.867671</ele>
        <time>2021-08-16T12:59:20.971Z</time>
      </trkpt>
      <trkpt lat="41.99161" lon="43.24732">
        <ele>335.0019</ele>
        <time>2021-08-16T12:59:30.637Z</time>
      </trkpt>
      <trkpt lat="41.99086" lon="43.24819">
        <ele>335.48626</ele>
        <time>2021-08-16T13:00:05.220Z</time>
      </trkpt>
      <trkpt lat="41.99064" lon="43.24863">
        <ele>335.674527</ele>
        <time>2021-08-16T13:00:21.978Z</time>
      </trkpt>
      <trkpt lat="41.99051" lon="43.24924">
        <ele>337.573503</ele>
        <time>2021-08-16T13:00:48.036Z</time>
      </trkpt>
      <trkpt lat="41.99038" lon="43.24951">
        <ele>339.137091</ele>
        <time>2021-08-16T13:01:03.059Z</time>
      </trkpt>
      <trkpt lat="41.99" lon="43.24983">
        <ele>342.112392</ele>
        <time>2021-08-16T13:01:34.625Z</time>
      </trkpt>
      <trkpt lat="41.98955" lon="43.25003">
        <ele>345.265528</ele>
        <time>2021-08-16T13:02:12.085Z</time>
      </trkpt>
      <trkpt lat="41.98927" lon="43.25">
        <ele>347.096552</ele>
        <time>2021-08-16T13:02:34.689Z</time>
      </trkpt>
      <trkpt lat="41.98886" lon="43.24973">
        <ele>349.855724</ele>
        <time>2021-08-16T13:03:13.370Z</time>
      </trkpt>
      <trkpt lat="41.98872" lon="43.24973">
        <ele>350.665766</ele>
        <time>2021-08-16T13:03:24.217Z</time>
      </trkpt>
      <trkpt lat="41.98854" lon="43.2498">
        <ele>351.816777</ele>
        <time>2021-08-16T13:03:40.082Z</time>
      </trkpt>
      <trkpt lat="41.98822" lon="43.2502">
        <ele>354.364943</ele>
        <time>2021-08-16T13:04:10.778Z</time>
      </trkpt>
      <trkpt lat="41.98811" lon="43.25057">
        <ele>356.121647</ele>
        <time>2021-08-16T13:04:28.711Z</time>
      </trkpt>
      <trkpt lat="41.98811" lon="43.25121">
        <ele>358.213066</ele>
        <time>2021-08-16T13:04:51.298Z</time>
      </trkpt>
      <trkpt lat="41.98804" lon="43.25157">
        <ele>357.941229</ele>
        <time>2021-08-16T13:05:02.029Z</time>
      </trkpt>
      <trkpt lat="41.9877" lon="43.25286">
        <ele>356.94261</ele>
        <time>2021-08-16T13:05:35.240Z</time>
      </trkpt>
      <trkpt lat="41.98747" lon="43.25311">
        <ele>356.645443</ele>
        <time>2021-08-16T13:05:44.838Z</time>
      </trkpt>
      <trkpt lat="41.98713" lon="43.25322">
        <ele>356.399595</ele>
        <time>2021-08-16T13:05:55.956Z</time>
      </trkpt>
      <trkpt lat="41.98695" lon="43.25334">
        <ele>356.279646</ele>
        <time>2021-08-16T13:06:02.551Z</time>
      </trkpt>
      <trkpt lat="41.98665" lon="43.25365">
        <ele>356.054739</ele>
        <time>2021-08-16T13:06:15.339Z</time>
      </trkpt>
      <trkpt lat="41.98597" lon="43.25464">
        <ele>355.511616</ele>
        <time>2021-08-16T13:06:52.770Z</time>
      </trkpt>
      <trkpt lat="41.98506" lon="43.25632">
        <ele>357.938974</ele>
        <time>2021-08-16T13:08:03.170Z</time>
      </trkpt>
      <trkpt lat="41.98491" lon="43.257">
        <ele>358.799713</ele>
        <time>2021-08-16T13:08:28.477Z</time>
      </trkpt>
      <trkpt lat="41.98406" lon="43.25885">
        <ele>361.347314</ele>
        <time>2021-08-16T13:09:43.583Z</time>
      </trkpt>
      <trkpt lat="41.9836" lon="43.26058">
        <ele>361.396543</ele>
        <time>2021-08-16T13:10:33.747Z</time>
      </trkpt>
      <trkpt lat="41.98325" lon="43.26138">
        <ele>361.431509</ele>
        <time>2021-08-16T13:10:57.476Z</time>
      </trkpt>
      <trkpt lat="41.98248" lon="43.26228">
        <ele>361.496924</ele>
        <time>2021-08-16T13:11:34.860Z</time>
      </trkpt>
      <trkpt lat="41.98204" lon="43.26267">
        <ele>361.76739</ele>
        <time>2021-08-16T13:11:56.907Z</time>
      </trkpt>
      <trkpt lat="41.98145" lon="43.263">
        <ele>363.044878</ele>
        <time>2021-08-16T13:12:26.936Z</time>
      </trkpt>
      <trkpt lat="41.98074" lon="43.26376">
        <ele>364.860049</ele>
        <time>2021-08-16T13:13:12.297Z</time>
      </trkpt>
      <trkpt lat="41.98068" lon="43.26389">
        <ele>365.092148</ele>
        <time>2021-08-16T13:13:18.126Z</time>
      </trkpt>
      <trkpt lat="41.98055" lon="43.26487">
        <ele>365.552681</ele>
        <time>2021-08-16T13:13:52.170Z</time>
      </trkpt>
      <trkpt lat="41.98018" lon="43.26597">
        <ele>366.077544</ele>
        <time>2021-08-16T13:14:26.725Z</time>
      </trkpt>
      <trkpt lat="41.98018" lon="43.26617">
        <ele>366.163471</ele>
        <time>2021-08-16T13:14:31.750Z</time>
      </trkpt>
      <trkpt lat="41.98037" lon="43.26695">
        <ele>365.172384</ele>
        <time>2021-08-16T13:14:51.451Z</time>
      </trkpt>
      <trkpt lat="41.98029" lon="43.26774">
        <ele>364.14414</ele>
        <time>2021-08-16T13:15:10.176Z</time>
      </trkpt>
      <trkpt lat="41.98013" lon="43.26814">
        <ele>363.553412</ele>
        <time>2021-08-16T13:15:21.361Z</time>
      </trkpt>
      <trkpt lat="41.97981" lon="43.26848">
        <ele>363.101379</ele>
        <time>2021-08-16T13:15:35.195Z</time>
      </trkpt>
      <trkpt lat="41.97964" lon="43.26862">
        <ele>363.189183</ele>
        <time>2021-08-16T13:15:42.266Z</time>
      </trkpt>
      <trkpt lat="41.97952" lon="43.2687">
        <ele>363.244187</ele>
        <time>2021-08-16T13:15:47.375Z</time>
      </trkpt>
      <trkpt lat="41.97923" lon="43.26884">
        <ele>363.375575</ele>
        <time>2021-08-16T13:15:58.946Z</time>
      </trkpt>
      <trkpt lat="41.97905" lon="43.26888">
        <ele>363.449336</ele>
        <time>2021-08-16T13:16:05.585Z</time>
      </trkpt>
      <trkpt lat="41.97869" lon="43.26932">
        <ele>363.65478</ele>
        <time>2021-08-16T13:16:25.471Z</time>
      </trkpt>
      <trkpt lat="41.97825" lon="43.27024">
        <ele>364.444557</ele>
        <time>2021-08-16T13:17:04.655Z</time>
      </trkpt>
      <trkpt lat="41.978" lon="43.27057">
        <ele>364.946836</ele>
        <time>2021-08-16T13:17:20.557Z</time>
      </trkpt>
      <trkpt lat="41.97758" lon="43.2713">
        <ele>365.920054</ele>
        <time>2021-08-16T13:17:48.706Z</time>
      </trkpt>
      <trkpt lat="41.97718" lon="43.27214">
        <ele>368.756659</ele>
        <time>2021-08-16T13:18:18.731Z</time>
      </trkpt>
      <trkpt lat="41.97691" lon="43.27301">
        <ele>372.736953</ele>
        <time>2021-08-16T13:19:04.960Z</time>
      </trkpt>
      <trkpt lat="41.9769" lon="43.27319">
        <ele>373.506663</ele>
        <time>2021-08-16T13:19:15.244Z</time>
      </trkpt>
      <trkpt lat="41.97693" lon="43.27353">
        <ele>374.943301</ele>
        <time>2021-08-16T13:19:34.841Z</time>
      </trkpt>
      <trkpt lat="41.97695" lon="43.27379">
        <ele>376.02168</ele>
        <time>2021-08-16T13:19:50.124Z</time>
      </trkpt>
      <trkpt lat="41.9771" lon="43.27466">
        <ele>382.84014</ele>
        <time>2021-08-16T13:20:49.494Z</time>
      </trkpt>
      <trkpt lat="41.9775" lon="43.27568">
        <ele>392.31385</ele>
        <time>2021-08-16T13:22:15.428Z</time>
      </trkpt>
      <trkpt lat="41.97808" lon="43.2765">
        <ele>399.854956</ele>
        <time>2021-08-16T13:23:32.273Z</time>
      </trkpt>
      <trkpt lat="41.97855" lon="43.27728">
        <ele>405.303358</ele>
        <time>2021-08-16T13:24:26.557Z</time>
      </trkpt>
      <trkpt lat="41.97881" lon="43.27817">
        <ele>409.724447</ele>
        <time>2021-08-16T13:25:11.847Z</time>
      </trkpt>
      <trkpt lat="41.9793" lon="43.27934">
        <ele>410.747871</ele>
        <time>2021-08-16T13:25:57.452Z</time>
      </trkpt>
      <trkpt lat="41.97953" lon="43.27977">
        <ele>411.151655</ele>
        <time>2021-08-16T13:26:11.401Z</time>
      </trkpt>
      <trkpt lat="41.98015" lon="43.28061">
        <ele>409.343226</ele>
        <time>2021-08-16T13:26:39.364Z</time>
      </trkpt>
      <trkpt lat="41.98053" lon="43.28123">
        <ele>407.281291</ele>
        <time>2021-08-16T13:26:57.286Z</time>
      </trkpt>
      <trkpt lat="41.98066" lon="43.28222">
        <ele>404.556254</ele>
        <time>2021-08-16T13:27:19.413Z</time>
      </trkpt>
      <trkpt lat="41.98095" lon="43.28326">
        <ele>400.866555</ele>
        <time>2021-08-16T13:27:43.477Z</time>
      </trkpt>
      <trkpt lat="41.98101" lon="43.28387">
        <ele>398.82763</ele>
        <time>2021-08-16T13:27:56.737Z</time>
      </trkpt>
      <trkpt lat="41.98084" lon="43.2845">
        <ele>396.894148</ele>
        <time>2021-08-16T13:28:11.497Z</time>
      </trkpt>
      <trkpt lat="41.98088" lon="43.28505">
        <ele>395.995634</ele>
        <time>2021-08-16T13:28:23.763Z</time>
      </trkpt>
      <trkpt lat="41.98056" lon="43.28558">
        <ele>394.904634</ele>
        <time>2021-08-16T13:28:39.224Z</time>
      </trkpt>
      <trkpt lat="41.98023" lon="43.286">
        <ele>393.910013</ele>
        <time>2021-08-16T13:28:54.278Z</time>
      </trkpt>
      <trkpt lat="41.97992" lon="43.28624">
        <ele>393.616263</ele>
        <time>2021-08-16T13:29:07.843Z</time>
      </trkpt>
      <trkpt lat="41.97983" lon="43.28624">
        <ele>394.152991</ele>
        <time>2021-08-16T13:29:12.063Z</time>
      </trkpt>
      <trkpt lat="41.9793" lon="43.28592">
        <ele>397.365511</ele>
        <time>2021-08-16T13:29:45.084Z</time>
      </trkpt>
      <trkpt lat="41.97878" lon="43.28593">
        <ele>400.220587</ele>
        <time>2021-08-16T13:30:21.492Z</time>
      </trkpt>
      <trkpt lat="41.97833" lon="43.28619">
        <ele>402.941817</ele>
        <time>2021-08-16T13:31:00.967Z</time>
      </trkpt>
      <trkpt lat="41.97815" lon="43.28636">
        <ele>404.372579</ele>
        <time>2021-08-16T13:31:19.764Z</time>
      </trkpt>
      <trkpt lat="41.978" lon="43.28661">
        <ele>405.99816</ele>
        <time>2021-08-16T13:31:40.213Z</time>
      </trkpt>
      <trkpt lat="41.97772" lon="43.28726">
        <ele>409.712661</ele>
        <time>2021-08-16T13:32:25.509Z</time>
      </trkpt>
      <trkpt lat="41.97746" lon="43.28812">
        <ele>414.362591</ele>
        <time>2021-08-16T13:33:12.543Z</time>
      </trkpt>
      <trkpt lat="41.97721" lon="43.28861">
        <ele>414.079812</ele>
        <time>2021-08-16T13:33:32.744Z</time>
      </trkpt>
      <trkpt lat="41.97715" lon="43.28888">
        <ele>413.215918</ele>
        <time>2021-08-16T13:33:40.112Z</time>
      </trkpt>
      <trkpt lat="41.97713" lon="43.28954">
        <ele>411.221688</ele>
        <time>2021-08-16T13:33:55.160Z</time>
      </trkpt>
      <trkpt lat="41.97723" lon="43.29172">
        <ele>401.258581</ele>
        <time>2021-08-16T13:34:37.984Z</time>
      </trkpt>
      <trkpt lat="41.97722" lon="43.29199">
        <ele>399.633505</ele>
        <time>2021-08-16T13:34:43.100Z</time>
      </trkpt>
      <trkpt lat="41.97714" lon="43.29228">
        <ele>397.811833</ele>
        <time>2021-08-16T13:34:48.954Z</time>
      </trkpt>
      <trkpt lat="41.97705" lon="43.29249">
        <ele>396.351965</ele>
        <time>2021-08-16T13:34:53.647Z</time>
      </trkpt>
      <trkpt lat="41.97696" lon="43.29259">
        <ele>395.403333</ele>
        <time>2021-08-16T13:34:56.753Z</time>
      </trkpt>
      <trkpt lat="41.97683" lon="43.29263">
        <ele>394.3055</ele>
        <time>2021-08-16T13:35:00.512Z</time>
      </trkpt>
      <trkpt lat="41.97667" lon="43.29261">
        <ele>393.403104</ele>
        <time>2021-08-16T13:35:05.469Z</time>
      </trkpt>
      <trkpt lat="41.97621" lon="43.29229">
        <ele>393.227553</ele>
        <time>2021-08-16T13:35:21.450Z</time>
      </trkpt>
      <trkpt lat="41.97611" lon="43.29225">
        <ele>393.194144</ele>
        <time>2021-08-16T13:35:25.408Z</time>
      </trkpt>
      <trkpt lat="41.976" lon="43.29226">
        <ele>393.156198</ele>
        <time>2021-08-16T13:35:30.053Z</time>
      </trkpt>
      <trkpt lat="41.97563" lon="43.29244">
        <ele>393.025518</ele>
        <time>2021-08-16T13:35:39.682Z</time>
      </trkpt>
      <trkpt lat="41.97553" lon="43.29249">
        <ele>392.989418</ele>
        <time>2021-08-16T13:35:43.473Z</time>
      </trkpt>
      <trkpt lat="41.97537" lon="43.29265">
        <ele>392.92181</ele>
        <time>2021-08-16T13:35:55.406Z</time>
      </trkpt>
      <trkpt lat="41.97525" lon="43.29287">
        <ele>392.853808</ele>
        <time>2021-08-16T13:36:04.689Z</time>
      </trkpt>
      <trkpt lat="41.97521" lon="43.29324">
        <ele>393.24779</ele>
        <time>2021-08-16T13:36:19.987Z</time>
      </trkpt>
      <trkpt lat="41.97526" lon="43.29349">
        <ele>393.760657</ele>
        <time>2021-08-16T13:36:31.896Z</time>
      </trkpt>
      <trkpt lat="41.9758" lon="43.29443">
        <ele>396.039706</ele>
        <time>2021-08-16T13:37:20.375Z</time>
      </trkpt>
      <trkpt lat="41.9759" lon="43.29468">
        <ele>396.599076</ele>
        <time>2021-08-16T13:37:29.592Z</time>
      </trkpt>
      <trkpt lat="41.97593" lon="43.29491">
        <ele>397.058591</ele>
        <time>2021-08-16T13:37:36.869Z</time>
      </trkpt>
      <trkpt lat="41.97592" lon="43.29525">
        <ele>397.567873</ele>
        <time>2021-08-16T13:37:47.040Z</time>
      </trkpt>
      <trkpt lat="41.97579" lon="43.29574">
        <ele>397.891935</ele>
        <time>2021-08-16T13:38:02.096Z</time>
      </trkpt>
      <trkpt lat="41.97558" lon="43.2962">
        <ele>398.232869</ele>
        <time>2021-08-16T13:38:17.601Z</time>
      </trkpt>
      <trkpt lat="41.97484" lon="43.29911">
        <ele>400.168019</ele>
        <time>2021-08-16T13:39:54.845Z</time>
      </trkpt>
      <trkpt lat="41.97459" lon="43.29983">
        <ele>400.453007</ele>
        <time>2021-08-16T13:40:18.743Z</time>
      </trkpt>
      <trkpt lat="41.97428" lon="43.30129">
        <ele>399.774654</ele>
        <time>2021-08-16T13:40:58.162Z</time>
      </trkpt>
      <trkpt lat="41.97376" lon="43.30299">
        <ele>400.150015</ele>
        <time>2021-08-16T13:41:45.705Z</time>
      </trkpt>
      <trkpt lat="41.97368" lon="43.3032">
        <ele>400.288591</ele>
        <time>2021-08-16T13:41:51.940Z</time>
      </trkpt>
      <trkpt lat="41.97341" lon="43.30362">
        <ele>400.624361</ele>
        <time>2021-08-16T13:42:11.498Z</time>
      </trkpt>
      <trkpt lat="41.97331" lon="43.30386">
        <ele>400.791143</ele>
        <time>2021-08-16T13:42:21.990Z</time>
      </trkpt>
      <trkpt lat="41.97326" lon="43.30421">
        <ele>401.517447</ele>
        <time>2021-08-16T13:42:36.103Z</time>
      </trkpt>
      <trkpt lat="41.97327" lon="43.30439">
        <ele>402.294205</ele>
        <time>2021-08-16T13:42:44.108Z</time>
      </trkpt>
      <trkpt lat="41.97347" lon="43.30506">
        <ele>405.35282</ele>
        <time>2021-08-16T13:43:08.712Z</time>
      </trkpt>
      <trkpt lat="41.9735" lon="43.30518">
        <ele>405.883611</ele>
        <time>2021-08-16T13:43:14.958Z</time>
      </trkpt>
      <trkpt lat="41.97353" lon="43.30539">
        <ele>406.798383</ele>
        <time>2021-08-16T13:43:26.871Z</time>
      </trkpt>
      <trkpt lat="41.97318" lon="43.30836">
        <ele>422.031325</ele>
        <time>2021-08-16T13:46:08.765Z</time>
      </trkpt>
      <trkpt lat="41.97319" lon="43.30856">
        <ele>423.110811</ele>
        <time>2021-08-16T13:46:22.047Z</time>
      </trkpt>
      <trkpt lat="41.97338" lon="43.30899">
        <ele>425.747762</ele>
        <time>2021-08-16T13:46:51.011Z</time>
      </trkpt>
      <trkpt lat="41.97339" lon="43.30924">
        <ele>427.019544</ele>
        <time>2021-08-16T13:47:03.622Z</time>
      </trkpt>
      <trkpt lat="41.97333" lon="43.30937">
        <ele>427.777707</ele>
        <time>2021-08-16T13:47:14.562Z</time>
      </trkpt>
      <trkpt lat="41.97327" lon="43.30945">
        <ele>428.402504</ele>
        <time>2021-08-16T13:47:21.340Z</time>
      </trkpt>
      <trkpt lat="41.97291" lon="43.30983">
        <ele>431.510529</ele>
        <time>2021-08-16T13:47:54.906Z</time>
      </trkpt>
      <trkpt lat="41.97252" lon="43.31055">
        <ele>436.044052</ele>
        <time>2021-08-16T13:48:41.749Z</time>
      </trkpt>
      <trkpt lat="41.97228" lon="43.31101">
        <ele>436.698286</ele>
        <time>2021-08-16T13:49:07.009Z</time>
      </trkpt>
      <trkpt lat="41.97198" lon="43.31139">
        <ele>436.575606</ele>
        <time>2021-08-16T13:49:24.041Z</time>
      </trkpt>
      <trkpt lat="41.97176" lon="43.31156">
        <ele>436.501543</ele>
        <time>2021-08-16T13:49:32.768Z</time>
      </trkpt>
      <trkpt lat="41.97116" lon="43.31182">
        <ele>436.314299</ele>
        <time>2021-08-16T13:49:52.908Z</time>
      </trkpt>
      <trkpt lat="41.97074" lon="43.31213">
        <ele>434.77054</ele>
        <time>2021-08-16T13:50:06.899Z</time>
      </trkpt>
      <trkpt lat="41.97062" lon="43.31239">
        <ele>433.61866</ele>
        <time>2021-08-16T13:50:13.248Z</time>
      </trkpt>
      <trkpt lat="41.9706" lon="43.31256">
        <ele>432.944038</ele>
        <time>2021-08-16T13:50:16.983Z</time>
      </trkpt>
      <trkpt lat="41.97051" lon="43.31425">
        <ele>426.993618</ele>
        <time>2021-08-16T13:50:52.268Z</time>
      </trkpt>
      <trkpt lat="41.97039" lon="43.31467">
        <ele>426.973932</ele>
        <time>2021-08-16T13:51:02.406Z</time>
      </trkpt>
      <trkpt lat="41.97014" lon="43.31498">
        <ele>426.95449</ele>
        <time>2021-08-16T13:51:14.135Z</time>
      </trkpt>
      <trkpt lat="41.97012" lon="43.31501">
        <ele>426.952609</ele>
        <time>2021-08-16T13:51:14.991Z</time>
      </trkpt>
      <trkpt lat="41.97008" lon="43.31506">
        <ele>426.949477</ele>
        <time>2021-08-16T13:51:17.307Z</time>
      </trkpt>
      <trkpt lat="41.97006" lon="43.31516">
        <ele>426.944981</ele>
        <time>2021-08-16T13:51:21.134Z</time>
      </trkpt>
      <trkpt lat="41.9701" lon="43.31536">
        <ele>426.936019</ele>
        <time>2021-08-16T13:51:27.943Z</time>
      </trkpt>
      <trkpt lat="41.97046" lon="43.31597">
        <ele>426.902705</ele>
        <time>2021-08-16T13:51:56.466Z</time>
      </trkpt>
      <trkpt lat="41.97049" lon="43.3163">
        <ele>427.546243</ele>
        <time>2021-08-16T13:52:10.015Z</time>
      </trkpt>
      <trkpt lat="41.97053" lon="43.31689">
        <ele>429.933268</ele>
        <time>2021-08-16T13:52:38.630Z</time>
      </trkpt>
      <trkpt lat="41.97051" lon="43.31761">
        <ele>432.821309</ele>
        <time>2021-08-16T13:53:15.791Z</time>
      </trkpt>
      <trkpt lat="41.97058" lon="43.31796">
        <ele>434.287126</ele>
        <time>2021-08-16T13:53:35.544Z</time>
      </trkpt>
      <trkpt lat="41.97076" lon="43.31843">
        <ele>436.392941</ele>
        <time>2021-08-16T13:54:03.341Z</time>
      </trkpt>
      <trkpt lat="41.97148" lon="43.31965">
        <ele>439.218534</ele>
        <time>2021-08-16T13:55:05.338Z</time>
      </trkpt>
      <trkpt lat="41.97155" lon="43.31985">
        <ele>439.61121</ele>
        <time>2021-08-16T13:55:12.394Z</time>
      </trkpt>
      <trkpt lat="41.97168" lon="43.32114">
        <ele>440.162921</ele>
        <time>2021-08-16T13:55:47.147Z</time>
      </trkpt>
      <trkpt lat="41.97187" lon="43.32172">
        <ele>439.489942</ele>
        <time>2021-08-16T13:56:02.639Z</time>
      </trkpt>
      <trkpt lat="41.97212" lon="43.32201">
        <ele>439.019127</ele>
        <time>2021-08-16T13:56:13.259Z</time>
      </trkpt>
      <trkpt lat="41.97292" lon="43.32274">
        <ele>438.140519</ele>
        <time>2021-08-16T13:56:44.974Z</time>
      </trkpt>
      <trkpt lat="41.97317" lon="43.32303">
        <ele>438.058686</ele>
        <time>2021-08-16T13:56:56.343Z</time>
      </trkpt>
      <trkpt lat="41.97376" lon="43.32351">
        <ele>437.88984</ele>
        <time>2021-08-16T13:57:21.423Z</time>
      </trkpt>
      <trkpt lat="41.97419" lon="43.3241">
        <ele>438.751738</ele>
        <time>2021-08-16T13:57:48.480Z</time>
      </trkpt>
      <trkpt lat="41.97503" lon="43.32468">
        <ele>442.253473</ele>
        <time>2021-08-16T13:58:40.537Z</time>
      </trkpt>
      <trkpt lat="41.9754" lon="43.32523">
        <ele>444.312461</ele>
        <time>2021-08-16T13:59:15.628Z</time>
      </trkpt>
      <trkpt lat="41.97557" lon="43.32571">
        <ele>446.255859</ele>
        <time>2021-08-16T13:59:41.611Z</time>
      </trkpt>
      <trkpt lat="41.97561" lon="43.32605">
        <ele>447.551141</ele>
        <time>2021-08-16T13:59:58.520Z</time>
      </trkpt>
      <trkpt lat="41.97559" lon="43.32687">
        <ele>450.656595</ele>
        <time>2021-08-16T14:00:38.555Z</time>
      </trkpt>
      <trkpt lat="41.97561" lon="43.32783">
        <ele>453.849281</ele>
        <time>2021-08-16T14:01:21.094Z</time>
      </trkpt>
      <trkpt lat="41.97568" lon="43.32829">
        <ele>454.528144</ele>
        <time>2021-08-16T14:01:39.360Z</time>
      </trkpt>
      <trkpt lat="41.97587" lon="43.32871">
        <ele>455.256869</ele>
        <time>2021-08-16T14:01:56.913Z</time>
      </trkpt>
      <trkpt lat="41.97655" lon="43.32947">
        <ele>456.985811</ele>
        <time>2021-08-16T14:02:34.073Z</time>
      </trkpt>
      <trkpt lat="41.97705" lon="43.32986">
        <ele>457.676616</ele>
        <time>2021-08-16T14:02:56.883Z</time>
      </trkpt>
      <trkpt lat="41.97739" lon="43.32998">
        <ele>458.056342</ele>
        <time>2021-08-16T14:03:09.885Z</time>
      </trkpt>
      <trkpt lat="41.97803" lon="43.3298">
        <ele>458.777253</ele>
        <time>2021-08-16T14:03:37.377Z</time>
      </trkpt>
      <trkpt lat="41.97829" lon="43.32979">
        <ele>459.061376</ele>
        <time>2021-08-16T14:03:49.372Z</time>
      </trkpt>
      <trkpt lat="41.97876" lon="43.33001">
        <ele>460.719796</ele>
        <time>2021-08-16T14:04:15.219Z</time>
      </trkpt>
      <trkpt lat="41.97906" lon="43.33035">
        <ele>462.096663</ele>
        <time>2021-08-16T14:04:38.892Z</time>
      </trkpt>
      <trkpt lat="41.97914" lon="43.33049">
        <ele>462.549488</ele>
        <time>2021-08-16T14:04:46.217Z</time>
      </trkpt>
      <trkpt lat="41.97924" lon="43.33067">
        <ele>463.113031</ele>
        <time>2021-08-16T14:04:56.662Z</time>
      </trkpt>
      <trkpt lat="41.9796" lon="43.33146">
        <ele>465.446388</ele>
        <time>2021-08-16T14:05:33.990Z</time>
      </trkpt>
      <trkpt lat="41.97984" lon="43.33187">
        <ele>466.391436</ele>
        <time>2021-08-16T14:05:54.768Z</time>
      </trkpt>
      <trkpt lat="41.97994" lon="43.33203">
        <ele>466.773659</ele>
        <time>2021-08-16T14:06:02.206Z</time>
      </trkpt>
      <trkpt lat="41.98015" lon="43.33327">
        <ele>469.078091</ele>
        <time>2021-08-16T14:06:48.777Z</time>
      </trkpt>
      <trkpt lat="41.98038" lon="43.3339">
        <ele>470.326829</ele>
        <time>2021-08-16T14:07:11.186Z</time>
      </trkpt>
      <trkpt lat="41.9804" lon="43.33408">
        <ele>470.653924</ele>
        <time>2021-08-16T14:07:17.013Z</time>
      </trkpt>
      <trkpt lat="41.98039" lon="43.33464">
        <ele>471.650848</ele>
        <time>2021-08-16T14:07:36.501Z</time>
      </trkpt>
      <trkpt lat="41.98027" lon="43.33573">
        <ele>473.597602</ele>
        <time>2021-08-16T14:08:19.220Z</time>
      </trkpt>
      <trkpt lat="41.98019" lon="43.33612">
        <ele>474.176398</ele>
        <time>2021-08-16T14:08:35.318Z</time>
      </trkpt>
      <trkpt lat="41.98021" lon="43.33651">
        <ele>474.588487</ele>
        <time>2021-08-16T14:08:50.587Z</time>
      </trkpt>
      <trkpt lat="41.98029" lon="43.33677">
        <ele>474.884894</ele>
        <time>2021-08-16T14:09:01.378Z</time>
      </trkpt>
      <trkpt lat="41.98149" lon="43.3387">
        <ele>475.942192</ele>
        <time>2021-08-16T14:10:15.597Z</time>
      </trkpt>
      <trkpt lat="41.98166" lon="43.33881">
        <ele>475.788391</ele>
        <time>2021-08-16T14:10:21.659Z</time>
      </trkpt>
      <trkpt lat="41.98236" lon="43.33895">
        <ele>475.21276</ele>
        <time>2021-08-16T14:10:44.564Z</time>
      </trkpt>
      <trkpt lat="41.98313" lon="43.33924">
        <ele>474.999628</ele>
        <time>2021-08-16T14:11:12.020Z</time>
      </trkpt>
      <trkpt lat="41.98333" lon="43.33952">
        <ele>474.971361</ele>
        <time>2021-08-16T14:11:22.441Z</time>
      </trkpt>
      <trkpt lat="41.98344" lon="43.33999">
        <ele>474.936038</ele>
        <time>2021-08-16T14:11:36.210Z</time>
      </trkpt>
      <trkpt lat="41.98344" lon="43.34021">
        <ele>474.919916</ele>
        <time>2021-08-16T14:11:43.053Z</time>
      </trkpt>
      <trkpt lat="41.98331" lon="43.34063">
        <ele>474.88692</ele>
        <time>2021-08-16T14:11:57.169Z</time>
      </trkpt>
      <trkpt lat="41.98321" lon="43.34081">
        <ele>475.155517</ele>
        <time>2021-08-16T14:12:04.479Z</time>
      </trkpt>
      <trkpt lat="41.98277" lon="43.34129">
        <ele>476.205689</ele>
        <time>2021-08-16T14:12:30.976Z</time>
      </trkpt>
      <trkpt lat="41.9827" lon="43.3414">
        <ele>476.414451</ele>
        <time>2021-08-16T14:12:36.656Z</time>
      </trkpt>
      <trkpt lat="41.98267" lon="43.34156">
        <ele>476.642743</ele>
        <time>2021-08-16T14:12:42.579Z</time>
      </trkpt>
      <trkpt lat="41.98267" lon="43.34171">
        <ele>476.856101</ele>
        <time>2021-08-16T14:12:48.203Z</time>
      </trkpt>
      <trkpt lat="41.98281" lon="43.34215">
        <ele>477.524046</ele>
        <time>2021-08-16T14:13:05.006Z</time>
      </trkpt>
      <trkpt lat="41.98287" lon="43.34257">
        <ele>478.119415</ele>
        <time>2021-08-16T14:13:19.680Z</time>
      </trkpt>
      <trkpt lat="41.98283" lon="43.34356">
        <ele>479.571724</ele>
        <time>2021-08-16T14:13:53.771Z</time>
      </trkpt>
      <trkpt lat="41.9827" lon="43.34393">
        <ele>480.187692</ele>
        <time>2021-08-16T14:14:08.576Z</time>
      </trkpt>
      <trkpt lat="41.98244" lon="43.34442">
        <ele>481.064529</ele>
        <time>2021-08-16T14:14:29.809Z</time>
      </trkpt>
      <trkpt lat="41.9824" lon="43.34462">
        <ele>481.368788</ele>
        <time>2021-08-16T14:14:37.063Z</time>
      </trkpt>
      <trkpt lat="41.98243" lon="43.34525">
        <ele>482.489378</ele>
        <time>2021-08-16T14:14:58.796Z</time>
      </trkpt>
      <trkpt lat="41.98245" lon="43.34553">
        <ele>483.082417</ele>
        <time>2021-08-16T14:15:08.659Z</time>
      </trkpt>
      <trkpt lat="41.98236" lon="43.34626">
        <ele>484.598689</ele>
        <time>2021-08-16T14:15:34.985Z</time>
      </trkpt>
      <trkpt lat="41.98167" lon="43.34736">
        <ele>488.160037</ele>
        <time>2021-08-16T14:16:34.013Z</time>
      </trkpt>
      <trkpt lat="41.98162" lon="43.34757">
        <ele>488.966785</ele>
        <time>2021-08-16T14:16:43.453Z</time>
      </trkpt>
      <trkpt lat="41.98162" lon="43.34781">
        <ele>489.860131</ele>
        <time>2021-08-16T14:16:53.781Z</time>
      </trkpt>
      <trkpt lat="41.98167" lon="43.34803">
        <ele>490.70488</ele>
        <time>2021-08-16T14:17:04.111Z</time>
      </trkpt>
      <trkpt lat="41.9819" lon="43.34847">
        <ele>492.682324</ele>
        <time>2021-08-16T14:17:29.337Z</time>
      </trkpt>
      <trkpt lat="41.98194" lon="43.34863">
        <ele>493.314928</ele>
        <time>2021-08-16T14:17:37.634Z</time>
      </trkpt>
      <trkpt lat="41.98194" lon="43.34874">
        <ele>493.712239</ele>
        <time>2021-08-16T14:17:42.974Z</time>
      </trkpt>
      <trkpt lat="41.98182" lon="43.34915">
        <ele>495.318724</ele>
        <time>2021-08-16T14:18:05.318Z</time>
      </trkpt>
      <trkpt lat="41.9816" lon="43.34961">
        <ele>497.257975</ele>
        <time>2021-08-16T14:18:34.048Z</time>
      </trkpt>
      <trkpt lat="41.98088" lon="43.34986">
        <ele>500.726587</ele>
        <time>2021-08-16T14:19:20.639Z</time>
      </trkpt>
      <trkpt lat="41.98051" lon="43.35031">
        <ele>503.057962</ele>
        <time>2021-08-16T14:19:48.978Z</time>
      </trkpt>
      <trkpt lat="41.98033" lon="43.35063">
        <ele>504.148614</ele>
        <time>2021-08-16T14:20:05.285Z</time>
      </trkpt>
      <trkpt lat="41.98026" lon="43.35084">
        <ele>504.152075</ele>
        <time>2021-08-16T14:20:13.792Z</time>
      </trkpt>
      <trkpt lat="41.98023" lon="43.35125">
        <ele>504.158518</ele>
        <time>2021-08-16T14:20:28.606Z</time>
      </trkpt>
      <trkpt lat="41.98005" lon="43.35158">
        <ele>504.164711</ele>
        <time>2021-08-16T14:20:40.894Z</time>
      </trkpt>
      <trkpt lat="41.97988" lon="43.35173">
        <ele>504.169069</ele>
        <time>2021-08-16T14:20:48.292Z</time>
      </trkpt>
      <trkpt lat="41.9796" lon="43.35186">
        <ele>504.17506</ele>
        <time>2021-08-16T14:20:57.906Z</time>
      </trkpt>
      <trkpt lat="41.9794" lon="43.3519">
        <ele>504.179242</ele>
        <time>2021-08-16T14:21:04.362Z</time>
      </trkpt>
      <trkpt lat="41.97912" lon="43.35182">
        <ele>504.133298</ele>
        <time>2021-08-16T14:21:13.438Z</time>
      </trkpt>
      <trkpt lat="41.97901" lon="43.35184">
        <ele>503.986074</ele>
        <time>2021-08-16T14:21:16.937Z</time>
      </trkpt>
      <trkpt lat="41.97894" lon="43.35193">
        <ele>503.861111</ele>
        <time>2021-08-16T14:21:19.884Z</time>
      </trkpt>
      <trkpt lat="41.97887" lon="43.35226">
        <ele>503.52578</ele>
        <time>2021-08-16T14:21:27.893Z</time>
      </trkpt>
      <trkpt lat="41.97863" lon="43.35276">
        <ele>502.955295</ele>
        <time>2021-08-16T14:21:42.601Z</time>
      </trkpt>
      <trkpt lat="41.9787" lon="43.35385">
        <ele>501.902933</ele>
        <time>2021-08-16T14:22:11.649Z</time>
      </trkpt>
      <trkpt lat="41.9788" lon="43.3542">
        <ele>502.061503</ele>
        <time>2021-08-16T14:22:21.981Z</time>
      </trkpt>
      <trkpt lat="41.97904" lon="43.35396">
        <ele>502.317773</ele>
        <time>2021-08-16T14:22:34.951Z</time>
      </trkpt>
      <trkpt lat="41.97916" lon="43.35397">
        <ele>502.423656</ele>
        <time>2021-08-16T14:22:40.117Z</time>
      </trkpt>
      <trkpt lat="41.98035" lon="43.35527">
        <ele>503.123223</ele>
        <time>2021-08-16T14:23:46.417Z</time>
      </trkpt>
      <trkpt lat="41.98046" lon="43.35558">
        <ele>502.932189</ele>
        <time>2021-08-16T14:23:55.358Z</time>
      </trkpt>
      <trkpt lat="41.98041" lon="43.35579">
        <ele>502.817012</ele>
        <time>2021-08-16T14:24:00.598Z</time>
      </trkpt>
      <trkpt lat="41.98017" lon="43.35655">
        <ele>502.360038</ele>
        <time>2021-08-16T14:24:21.499Z</time>
      </trkpt>
      <trkpt lat="41.98009" lon="43.35663">
        <ele>502.288198</ele>
        <time>2021-08-16T14:24:23.395Z</time>
      </trkpt>
      <trkpt lat="41.98017" lon="43.35673">
        <ele>502.211525</ele>
        <time>2021-08-16T14:24:26.924Z</time>
      </trkpt>
      <trkpt lat="41.98032" lon="43.35715">
        <ele>501.975651</ele>
        <time>2021-08-16T14:24:38.414Z</time>
      </trkpt>
      <trkpt lat="41.98032" lon="43.35826">
        <ele>501.467562</ele>
        <time>2021-08-16T14:25:06.161Z</time>
      </trkpt>
      <trkpt lat="41.98055" lon="43.35946">
        <ele>501.111935</ele>
        <time>2021-08-16T14:25:42.619Z</time>
      </trkpt>
      <trkpt lat="41.98083" lon="43.36007">
        <ele>501.67945</ele>
        <time>2021-08-16T14:26:04.368Z</time>
      </trkpt>
      <trkpt lat="41.98111" lon="43.36109">
        <ele>502.553105</ele>
        <time>2021-08-16T14:26:38.624Z</time>
      </trkpt>
      <trkpt lat="41.98151" lon="43.36184">
        <ele>504.41633</ele>
        <time>2021-08-16T14:27:09.181Z</time>
      </trkpt>
      <trkpt lat="41.98181" lon="43.36238">
        <ele>506.568326</ele>
        <time>2021-08-16T14:27:36.408Z</time>
      </trkpt>
      <trkpt lat="41.98189" lon="43.36255">
        <ele>507.24066</ele>
        <time>2021-08-16T14:27:47.098Z</time>
      </trkpt>
      <trkpt lat="41.98194" lon="43.3628">
        <ele>508.046263</ele>
        <time>2021-08-16T14:27:59.639Z</time>
      </trkpt>
      <trkpt lat="41.98193" lon="43.36292">
        <ele>508.435938</ele>
        <time>2021-08-16T14:28:05.519Z</time>
      </trkpt>
      <trkpt lat="41.98187" lon="43.36322">
        <ele>509.427646</ele>
        <time>2021-08-16T14:28:21.724Z</time>
      </trkpt>
      <trkpt lat="41.98185" lon="43.36373">
        <ele>511.037413</ele>
        <time>2021-08-16T14:28:47.122Z</time>
      </trkpt>
      <trkpt lat="41.98185" lon="43.36393">
        <ele>511.600727</ele>
        <time>2021-08-16T14:28:56.204Z</time>
      </trkpt>
      <trkpt lat="41.98171" lon="43.36395">
        <ele>512.156989</ele>
        <time>2021-08-16T14:29:04.176Z</time>
      </trkpt>
      <trkpt lat="41.98149" lon="43.36402">
        <ele>513.071798</ele>
        <time>2021-08-16T14:29:14.778Z</time>
      </trkpt>
      <trkpt lat="41.9814" lon="43.36412">
        <ele>513.502728</ele>
        <time>2021-08-16T14:29:20.972Z</time>
      </trkpt>
      <trkpt lat="41.98132" lon="43.36496">
        <ele>515.985249</ele>
        <time>2021-08-16T14:29:49.299Z</time>
      </trkpt>
      <trkpt lat="41.9816" lon="43.36727">
        <ele>518.230362</ele>
        <time>2021-08-16T14:30:33.036Z</time>
      </trkpt>
      <trkpt lat="41.98168" lon="43.36749">
        <ele>518.297483</ele>
        <time>2021-08-16T14:30:36.298Z</time>
      </trkpt>
      <trkpt lat="41.98245" lon="43.36866">
        <ele>519.634839</ele>
        <time>2021-08-16T14:31:01.751Z</time>
      </trkpt>
      <trkpt lat="41.98259" lon="43.36896">
        <ele>520.022361</ele>
        <time>2021-08-16T14:31:10.537Z</time>
      </trkpt>
      <trkpt lat="41.98264" lon="43.3692">
        <ele>520.289912</ele>
        <time>2021-08-16T14:31:17.044Z</time>
      </trkpt>
      <trkpt lat="41.98268" lon="43.36953">
        <ele>520.656915</ele>
        <time>2021-08-16T14:31:26.327Z</time>
      </trkpt>
      <trkpt lat="41.98264" lon="43.36976">
        <ele>520.909664</ele>
        <time>2021-08-16T14:31:32.969Z</time>
      </trkpt>
      <trkpt lat="41.98253" lon="43.36994">
        <ele>521.290102</ele>
        <time>2021-08-16T14:31:39.616Z</time>
      </trkpt>
      <trkpt lat="41.98226" lon="43.3702">
        <ele>522.23824</ele>
        <time>2021-08-16T14:31:52.829Z</time>
      </trkpt>
      <trkpt lat="41.98217" lon="43.37039">
        <ele>522.737778</ele>
        <time>2021-08-16T14:32:00.056Z</time>
      </trkpt>
      <trkpt lat="41.98216" lon="43.37073">
        <ele>523.490285</ele>
        <time>2021-08-16T14:32:11.320Z</time>
      </trkpt>
      <trkpt lat="41.98332" lon="43.37579">
        <ele>535.357187</ele>
        <time>2021-08-16T14:34:31.688Z</time>
      </trkpt>
      <trkpt lat="41.98419" lon="43.37999">
        <ele>548.96011</ele>
        <time>2021-08-16T14:36:52.918Z</time>
      </trkpt>
      <trkpt lat="41.98421" lon="43.38061">
        <ele>551.185823</ele>
        <time>2021-08-16T14:37:14.208Z</time>
      </trkpt>
      <trkpt lat="41.98415" lon="43.38176">
        <ele>555.671694</ele>
        <time>2021-08-16T14:38:10.332Z</time>
      </trkpt>
      <trkpt lat="41.98402" lon="43.38289">
        <ele>560.679207</ele>
        <time>2021-08-16T14:39:08.026Z</time>
      </trkpt>
      <trkpt lat="41.98393" lon="43.38326">
        <ele>562.403839</ele>
        <time>2021-08-16T14:39:28.875Z</time>
      </trkpt>
      <trkpt lat="41.98388" lon="43.38372">
        <ele>564.355143</ele>
        <time>2021-08-16T14:39:52.017Z</time>
      </trkpt>
      <trkpt lat="41.98402" lon="43.38478">
        <ele>566.927673</ele>
        <time>2021-08-16T14:40:40.083Z</time>
      </trkpt>
      <trkpt lat="41.98414" lon="43.38531">
        <ele>568.257289</ele>
        <time>2021-08-16T14:40:57.148Z</time>
      </trkpt>
      <trkpt lat="41.98429" lon="43.38599">
        <ele>569.988315</ele>
        <time>2021-08-16T14:41:11.461Z</time>
      </trkpt>
      <trkpt lat="41.98438" lon="43.38644">
        <ele>569.339255</ele>
        <time>2021-08-16T14:41:18.883Z</time>
      </trkpt>
      <trkpt lat="41.98419" lon="43.38717">
        <ele>568.011067</ele>
        <time>2021-08-16T14:41:29.899Z</time>
      </trkpt>
      <trkpt lat="41.98417" lon="43.38765">
        <ele>567.196918</ele>
        <time>2021-08-16T14:41:35.761Z</time>
      </trkpt>
      <trkpt lat="41.98407" lon="43.38786">
        <ele>566.767627</ele>
        <time>2021-08-16T14:41:38.890Z</time>
      </trkpt>
      <trkpt lat="41.98363" lon="43.38818">
        <ele>565.421963</ele>
        <time>2021-08-16T14:41:47.033Z</time>
      </trkpt>
      <trkpt lat="41.98357" lon="43.38827">
        <ele>565.076281</ele>
        <time>2021-08-16T14:41:48.578Z</time>
      </trkpt>
      <trkpt lat="41.98345" lon="43.38898">
        <ele>563.032953</ele>
        <time>2021-08-16T14:41:57.522Z</time>
      </trkpt>
      <trkpt lat="41.98338" lon="43.38905">
        <ele>562.702827</ele>
        <time>2021-08-16T14:41:58.878Z</time>
      </trkpt>
      <trkpt lat="41.98303" lon="43.38924">
        <ele>561.279511</ele>
        <time>2021-08-16T14:42:05.050Z</time>
      </trkpt>
      <trkpt lat="41.98274" lon="43.38961">
        <ele>559.737514</ele>
        <time>2021-08-16T14:42:11.766Z</time>
      </trkpt>
      <trkpt lat="41.98256" lon="43.39">
        <ele>559.053826</ele>
        <time>2021-08-16T14:42:17.667Z</time>
      </trkpt>
      <trkpt lat="41.98247" lon="43.39011">
        <ele>558.998706</ele>
        <time>2021-08-16T14:42:19.985Z</time>
      </trkpt>
      <trkpt lat="41.98228" lon="43.39024">
        <ele>558.906807</ele>
        <time>2021-08-16T14:42:23.725Z</time>
      </trkpt>
      <trkpt lat="41.98186" lon="43.39039">
        <ele>558.711645</ele>
        <time>2021-08-16T14:42:32.891Z</time>
      </trkpt>
      <trkpt lat="41.98144" lon="43.39039">
        <ele>558.527229</ele>
        <time>2021-08-16T14:42:42.898Z</time>
      </trkpt>
      <trkpt lat="41.9811" lon="43.39052">
        <ele>558.370216</ele>
        <time>2021-08-16T14:42:52.906Z</time>
      </trkpt>
      <trkpt lat="41.98067" lon="43.3908">
        <ele>559.54266</ele>
        <time>2021-08-16T14:43:08.208Z</time>
      </trkpt>
      <trkpt lat="41.9805" lon="43.39084">
        <ele>560.054685</ele>
        <time>2021-08-16T14:43:14.098Z</time>
      </trkpt>
      <trkpt lat="41.98014" lon="43.39072">
        <ele>561.174441</ele>
        <time>2021-08-16T14:43:27.881Z</time>
      </trkpt>
      <trkpt lat="41.97996" lon="43.39076">
        <ele>561.720014</ele>
        <time>2021-08-16T14:43:35.399Z</time>
      </trkpt>
      <trkpt lat="41.97975" lon="43.39095">
        <ele>562.50096</ele>
        <time>2021-08-16T14:43:46.576Z</time>
      </trkpt>
      <trkpt lat="41.97944" lon="43.39142">
        <ele>563.91343</ele>
        <time>2021-08-16T14:44:04.856Z</time>
      </trkpt>
      <trkpt lat="41.97854" lon="43.3917">
        <ele>566.78746</ele>
        <time>2021-08-16T14:44:45.874Z</time>
      </trkpt>
      <trkpt lat="41.97803" lon="43.39239">
        <ele>569.025846</ele>
        <time>2021-08-16T14:45:09.954Z</time>
      </trkpt>
      <trkpt lat="41.97789" lon="43.39249">
        <ele>569.400723</ele>
        <time>2021-08-16T14:45:14.270Z</time>
      </trkpt>
      <trkpt lat="41.9776" lon="43.39254">
        <ele>569.774372</ele>
        <time>2021-08-16T14:45:23.245Z</time>
      </trkpt>
      <trkpt lat="41.97754" lon="43.39282">
        <ele>570.048942</ele>
        <time>2021-08-16T14:45:28.606Z</time>
      </trkpt>
      <trkpt lat="41.97757" lon="43.39303">
        <ele>570.25493</ele>
        <time>2021-08-16T14:45:33.339Z</time>
      </trkpt>
      <trkpt lat="41.97762" lon="43.39327">
        <ele>570.487076</ele>
        <time>2021-08-16T14:45:37.813Z</time>
      </trkpt>
      <trkpt lat="41.97766" lon="43.39366">
        <ele>570.86103</ele>
        <time>2021-08-16T14:45:45.135Z</time>
      </trkpt>
      <trkpt lat="41.97756" lon="43.39387">
        <ele>571.088377</ele>
        <time>2021-08-16T14:45:50.430Z</time>
      </trkpt>
      <trkpt lat="41.97731" lon="43.3941">
        <ele>571.475779</ele>
        <time>2021-08-16T14:45:58.463Z</time>
      </trkpt>
      <trkpt lat="41.97721" lon="43.3943">
        <ele>572.036656</ele>
        <time>2021-08-16T14:46:03.238Z</time>
      </trkpt>
      <trkpt lat="41.97714" lon="43.39452">
        <ele>572.968388</ele>
        <time>2021-08-16T14:46:10.613Z</time>
      </trkpt>
      <trkpt lat="41.97673" lon="43.39559">
        <ele>577.846382</ele>
        <time>2021-08-16T14:46:50.614Z</time>
      </trkpt>
      <trkpt lat="41.97667" lon="43.39587">
        <ele>579.019051</ele>
        <time>2021-08-16T14:47:07.728Z</time>
      </trkpt>
      <trkpt lat="41.97671" lon="43.39591">
        <ele>579.267753</ele>
        <time>2021-08-16T14:47:09.665Z</time>
      </trkpt>
      <trkpt lat="41.97676" lon="43.39602">
        <ele>579.810084</ele>
        <time>2021-08-16T14:47:13.826Z</time>
      </trkpt>
      <trkpt lat="41.97679" lon="43.39607">
        <ele>580.024327</ele>
        <time>2021-08-16T14:47:19.249Z</time>
      </trkpt>
      <trkpt lat="41.97688" lon="43.39637">
        <ele>581.337587</ele>
        <time>2021-08-16T14:47:32.816Z</time>
      </trkpt>
      <trkpt lat="41.97688" lon="43.39664">
        <ele>583.015762</ele>
        <time>2021-08-16T14:47:47.511Z</time>
      </trkpt>
      <trkpt lat="41.97699" lon="43.39715">
        <ele>586.333261</ele>
        <time>2021-08-16T14:48:14.047Z</time>
      </trkpt>
      <trkpt lat="41.97707" lon="43.39733">
        <ele>587.670065</ele>
        <time>2021-08-16T14:48:21.235Z</time>
      </trkpt>
      <trkpt lat="41.97722" lon="43.3976">
        <ele>589.74214</ele>
        <time>2021-08-16T14:48:41.629Z</time>
      </trkpt>
      <trkpt lat="41.97746" lon="43.39774">
        <ele>591.913361</ele>
        <time>2021-08-16T14:48:59.408Z</time>
      </trkpt>
      <trkpt lat="41.97779" lon="43.39802">
        <ele>595.200903</ele>
        <time>2021-08-16T14:49:23.121Z</time>
      </trkpt>
      <trkpt lat="41.97795" lon="43.39818">
        <ele>596.800058</ele>
        <time>2021-08-16T14:49:33.311Z</time>
      </trkpt>
      <trkpt lat="41.97809" lon="43.39833">
        <ele>598.094538</ele>
        <time>2021-08-16T14:49:47.004Z</time>
      </trkpt>
      <trkpt lat="41.97841" lon="43.3989">
        <ele>601.889534</ele>
        <time>2021-08-16T14:50:16.734Z</time>
      </trkpt>
      <trkpt lat="41.97864" lon="43.39906">
        <ele>603.715103</ele>
        <time>2021-08-16T14:50:31.111Z</time>
      </trkpt>
      <trkpt lat="41.97883" lon="43.39923">
        <ele>605.36813</ele>
        <time>2021-08-16T14:50:43.828Z</time>
      </trkpt>
      <trkpt lat="41.9789" lon="43.39929">
        <ele>605.969517</ele>
        <time>2021-08-16T14:50:49.965Z</time>
      </trkpt>
      <trkpt lat="41.97955" lon="43.39985">
        <ele>611.30277</ele>
        <time>2021-08-16T14:51:35.712Z</time>
      </trkpt>
      <trkpt lat="41.9797" lon="43.40007">
        <ele>612.758957</ele>
        <time>2021-08-16T14:51:48.399Z</time>
      </trkpt>
      <trkpt lat="41.97988" lon="43.40078">
        <ele>616.437774</ele>
        <time>2021-08-16T14:52:22.645Z</time>
      </trkpt>
      <trkpt lat="41.98017" lon="43.40155">
        <ele>620.722571</ele>
        <time>2021-08-16T14:52:55.917Z</time>
      </trkpt>
      <trkpt lat="41.98064" lon="43.40219">
        <ele>623.779716</ele>
        <time>2021-08-16T14:53:28.513Z</time>
      </trkpt>
      <trkpt lat="41.98113" lon="43.40297">
        <ele>627.031684</ele>
        <time>2021-08-16T14:54:01.981Z</time>
      </trkpt>
      <trkpt lat="41.98171" lon="43.40433">
        <ele>631.205441</ele>
        <time>2021-08-16T14:54:48.033Z</time>
      </trkpt>
      <trkpt lat="41.98189" lon="43.40503">
        <ele>632.929951</ele>
        <time>2021-08-16T14:55:08.384Z</time>
      </trkpt>
      <trkpt lat="41.98196" lon="43.4058">
        <ele>634.867667</ele>
        <time>2021-08-16T14:55:29.503Z</time>
      </trkpt>
      <trkpt lat="41.98192" lon="43.40619">
        <ele>636.923474</ele>
        <time>2021-08-16T14:55:40.791Z</time>
      </trkpt>
      <trkpt lat="41.98204" lon="43.40644">
        <ele>638.412997</ele>
        <time>2021-08-16T14:55:52.300Z</time>
      </trkpt>
      <trkpt lat="41.98213" lon="43.4068">
        <ele>640.366032</ele>
        <time>2021-08-16T14:56:05.403Z</time>
      </trkpt>
      <trkpt lat="41.98222" lon="43.40687">
        <ele>641.135274</ele>
        <time>2021-08-16T14:56:14.012Z</time>
      </trkpt>
      <trkpt lat="41.98292" lon="43.40669">
        <ele>646.057996</ele>
        <time>2021-08-16T14:57:03.000Z</time>
      </trkpt>
      <trkpt lat="41.98315" lon="43.40653">
        <ele>648.33394</ele>
        <time>2021-08-16T14:57:20.042Z</time>
      </trkpt>
      <trkpt lat="41.98319" lon="43.40649">
        <ele>648.890111</ele>
        <time>2021-08-16T14:57:25.179Z</time>
      </trkpt>
      <trkpt lat="41.98337" lon="43.4067">
        <ele>651.498632</ele>
        <time>2021-08-16T14:57:40.496Z</time>
      </trkpt>
      <trkpt lat="41.98344" lon="43.40684">
        <ele>652.880025</ele>
        <time>2021-08-16T14:57:51.769Z</time>
      </trkpt>
      <trkpt lat="41.98362" lon="43.40706">
        <ele>655.539514</ele>
        <time>2021-08-16T14:58:08.328Z</time>
      </trkpt>
      <trkpt lat="41.98365" lon="43.40711">
        <ele>656.116858</ele>
        <time>2021-08-16T14:58:13.332Z</time>
      </trkpt>
      <trkpt lat="41.98379" lon="43.40717">
        <ele>657.697078</ele>
        <time>2021-08-16T14:58:25.234Z</time>
      </trkpt>
      <trkpt lat="41.98389" lon="43.40731">
        <ele>659.34986</ele>
        <time>2021-08-16T14:58:36.259Z</time>
      </trkpt>
      <trkpt lat="41.98397" lon="43.40757">
        <ele>661.648129</ele>
        <time>2021-08-16T14:58:54.902Z</time>
      </trkpt>
      <trkpt lat="41.98399" lon="43.40816">
        <ele>666.484666</ele>
        <time>2021-08-16T14:59:32.951Z</time>
      </trkpt>
      <trkpt lat="41.98444" lon="43.40932">
        <ele>679.050469</ele>
        <time>2021-08-16T15:00:51.677Z</time>
      </trkpt>
      <trkpt lat="41.98459" lon="43.40954">
        <ele>681.864123</ele>
        <time>2021-08-16T15:01:09.761Z</time>
      </trkpt>
      <trkpt lat="41.98552" lon="43.41054">
        <ele>699.75158</ele>
        <time>2021-08-16T15:03:06.762Z</time>
      </trkpt>
      <trkpt lat="41.98583" lon="43.41079">
        <ele>705.879846</ele>
        <time>2021-08-16T15:03:46.232Z</time>
      </trkpt>
      <trkpt lat="41.98621" lon="43.41098">
        <ele>712.941092</ele>
        <time>2021-08-16T15:04:33.671Z</time>
      </trkpt>
      <trkpt lat="41.98652" lon="43.41122">
        <ele>718.996558</ele>
        <time>2021-08-16T15:05:15.002Z</time>
      </trkpt>
      <trkpt lat="41.98704" lon="43.41185">
        <ele>730.607502</ele>
        <time>2021-08-16T15:06:38.325Z</time>
      </trkpt>
      <trkpt lat="41.98731" lon="43.41207">
        <ele>735.794916</ele>
        <time>2021-08-16T15:07:14.262Z</time>
      </trkpt>
      <trkpt lat="41.98808" lon="43.41228">
        <ele>748.743597</ele>
        <time>2021-08-16T15:08:34.092Z</time>
      </trkpt>
      <trkpt lat="41.98833" lon="43.41251">
        <ele>752.16273</ele>
        <time>2021-08-16T15:09:00.616Z</time>
      </trkpt>
      <trkpt lat="41.98849" lon="43.41311">
        <ele>755.891826</ele>
        <time>2021-08-16T15:09:35.798Z</time>
      </trkpt>
      <trkpt lat="41.98849" lon="43.41438">
        <ele>763.259093</ele>
        <time>2021-08-16T15:10:26.470Z</time>
      </trkpt>
      <trkpt lat="41.98833" lon="43.41543">
        <ele>766.186854</ele>
        <time>2021-08-16T15:10:58.088Z</time>
      </trkpt>
      <trkpt lat="41.98833" lon="43.41579">
        <ele>766.79595</ele>
        <time>2021-08-16T15:11:07.063Z</time>
      </trkpt>
      <trkpt lat="41.98836" lon="43.41621">
        <ele>767.512537</ele>
        <time>2021-08-16T15:11:17.052Z</time>
      </trkpt>
      <trkpt lat="41.98854" lon="43.41646">
        <ele>768.120836</ele>
        <time>2021-08-16T15:11:25.381Z</time>
      </trkpt>
      <trkpt lat="41.98868" lon="43.41675">
        <ele>768.704199</ele>
        <time>2021-08-16T15:11:32.562Z</time>
      </trkpt>
      <trkpt lat="41.9889" lon="43.41698">
        <ele>768.673493</ele>
        <time>2021-08-16T15:11:40.151Z</time>
      </trkpt>
      <trkpt lat="41.98918" lon="43.41707">
        <ele>768.245537</ele>
        <time>2021-08-16T15:11:47.892Z</time>
      </trkpt>
      <trkpt lat="41.98972" lon="43.41705">
        <ele>767.454087</ele>
        <time>2021-08-16T15:12:01.365Z</time>
      </trkpt>
      <trkpt lat="41.99005" lon="43.41721">
        <ele>766.942312</ele>
        <time>2021-08-16T15:12:08.097Z</time>
      </trkpt>
      <trkpt lat="41.99077" lon="43.41801">
        <ele>762.454547</ele>
        <time>2021-08-16T15:12:23.573Z</time>
      </trkpt>
      <trkpt lat="41.99111" lon="43.41827">
        <ele>759.451601</ele>
        <time>2021-08-16T15:12:29.587Z</time>
      </trkpt>
      <trkpt lat="41.99155" lon="43.4184">
        <ele>755.927846</ele>
        <time>2021-08-16T15:12:41.441Z</time>
      </trkpt>
      <trkpt lat="41.99223" lon="43.41867">
        <ele>750.136359</ele>
        <time>2021-08-16T15:12:59.489Z</time>
      </trkpt>
      <trkpt lat="41.99315" lon="43.41919">
        <ele>740.934875</ele>
        <time>2021-08-16T15:13:25.485Z</time>
      </trkpt>
      <trkpt lat="41.99411" lon="43.41982">
        <ele>730.138977</ele>
        <time>2021-08-16T15:13:53.730Z</time>
      </trkpt>
      <trkpt lat="41.99409" lon="43.42079">
        <ele>722.258375</ele>
        <time>2021-08-16T15:14:12.368Z</time>
      </trkpt>
      <trkpt lat="41.9944" lon="43.42124">
        <ele>717.241783</ele>
        <time>2021-08-16T15:14:23.701Z</time>
      </trkpt>
      <trkpt lat="41.99489" lon="43.42157">
        <ele>708.23127</ele>
        <time>2021-08-16T15:14:36.838Z</time>
      </trkpt>
      <trkpt lat="41.99508" lon="43.4221">
        <ele>700.438951</ele>
        <time>2021-08-16T15:14:47.167Z</time>
      </trkpt>
      <trkpt lat="41.99515" lon="43.42323">
        <ele>685.388583</ele>
        <time>2021-08-16T15:15:06.979Z</time>
      </trkpt>
      <trkpt lat="41.99505" lon="43.42391">
        <ele>677.868827</ele>
        <time>2021-08-16T15:15:18.961Z</time>
      </trkpt>
      <trkpt lat="41.99486" lon="43.42477">
        <ele>668.40509</ele>
        <time>2021-08-16T15:15:34.775Z</time>
      </trkpt>
      <trkpt lat="41.995" lon="43.42495">
        <ele>665.728833</ele>
        <time>2021-08-16T15:15:39.550Z</time>
      </trkpt>
      <trkpt lat="41.99514" lon="43.42488">
        <ele>663.576498</ele>
        <time>2021-08-16T15:15:43.390Z</time>
      </trkpt>
      <trkpt lat="41.99523" lon="43.42473">
        <ele>661.532076</ele>
        <time>2021-08-16T15:15:47.332Z</time>
      </trkpt>
      <trkpt lat="41.99541" lon="43.42492">
        <ele>658.597557</ele>
        <time>2021-08-16T15:15:53.416Z</time>
      </trkpt>
      <trkpt lat="41.99562" lon="43.42528">
        <ele>659.665422</ele>
        <time>2021-08-16T15:16:03.869Z</time>
      </trkpt>
      <trkpt lat="41.99566" lon="43.42602">
        <ele>661.407704</ele>
        <time>2021-08-16T15:16:29.922Z</time>
      </trkpt>
      <trkpt lat="41.99576" lon="43.42669">
        <ele>663.004005</ele>
        <time>2021-08-16T15:17:03.854Z</time>
      </trkpt>
      <trkpt lat="41.99589" lon="43.42717">
        <ele>664.183684</ele>
        <time>2021-08-16T15:17:36.232Z</time>
      </trkpt>
      <trkpt lat="41.9967" lon="43.42934">
        <ele>683.419049</ele>
        <time>2021-08-16T15:20:30.766Z</time>
      </trkpt>
      <trkpt lat="41.99663" lon="43.42981">
        <ele>684.620103</ele>
        <time>2021-08-16T15:20:56.818Z</time>
      </trkpt>
      <trkpt lat="41.99664" lon="43.43156">
        <ele>689.102493</ele>
        <time>2021-08-16T15:22:04.596Z</time>
      </trkpt>
      <trkpt lat="41.9969" lon="43.4329">
        <ele>685.726583</ele>
        <time>2021-08-16T15:22:35.180Z</time>
      </trkpt>
      <trkpt lat="41.99695" lon="43.43303">
        <ele>685.236182</ele>
        <time>2021-08-16T15:22:38.693Z</time>
      </trkpt>
      <trkpt lat="41.99703" lon="43.43306">
        <ele>684.901498</ele>
        <time>2021-08-16T15:22:40.782Z</time>
      </trkpt>
      <trkpt lat="41.99712" lon="43.43347">
        <ele>683.486015</ele>
        <time>2021-08-16T15:22:49.942Z</time>
      </trkpt>
      <trkpt lat="41.99713" lon="43.43352">
        <ele>683.323265</ele>
        <time>2021-08-16T15:22:50.881Z</time>
      </trkpt>
      <trkpt lat="41.99716" lon="43.43361">
        <ele>683.029343</ele>
        <time>2021-08-16T15:22:52.608Z</time>
      </trkpt>
      <trkpt lat="41.99735" lon="43.43352">
        <ele>682.153108</ele>
        <time>2021-08-16T15:22:58.583Z</time>
      </trkpt>
      <trkpt lat="41.99739" lon="43.43337">
        <ele>681.627001</ele>
        <time>2021-08-16T15:23:01.839Z</time>
      </trkpt>
      <trkpt lat="41.99741" lon="43.43292">
        <ele>680.233582</ele>
        <time>2021-08-16T15:23:11.104Z</time>
      </trkpt>
      <trkpt lat="41.99735" lon="43.43236">
        <ele>678.443491</ele>
        <time>2021-08-16T15:23:22.970Z</time>
      </trkpt>
      <trkpt lat="41.99746" lon="43.43228">
        <ele>677.907215</ele>
        <time>2021-08-16T15:23:26.959Z</time>
      </trkpt>
      <trkpt lat="41.99757" lon="43.43219">
        <ele>677.351024</ele>
        <time>2021-08-16T15:23:30.786Z</time>
      </trkpt>
      <trkpt lat="41.99767" lon="43.43236">
        <ele>676.67033</ele>
        <time>2021-08-16T15:23:35.282Z</time>
      </trkpt>
      <trkpt lat="41.99776" lon="43.43244">
        <ele>676.229838</ele>
        <time>2021-08-16T15:23:38.559Z</time>
      </trkpt>
      <trkpt lat="41.99781" lon="43.43259">
        <ele>675.68826</ele>
        <time>2021-08-16T15:23:42.518Z</time>
      </trkpt>
      <trkpt lat="41.99784" lon="43.4326">
        <ele>675.569912</ele>
        <time>2021-08-16T15:23:43.652Z</time>
      </trkpt>
      <trkpt lat="41.99783" lon="43.433">
        <ele>674.316316</ele>
        <time>2021-08-16T15:23:49.250Z</time>
      </trkpt>
      <trkpt lat="41.99793" lon="43.43428">
        <ele>674.14956</ele>
        <time>2021-08-16T15:24:10.225Z</time>
      </trkpt>
      <trkpt lat="41.99805" lon="43.43512">
        <ele>674.157483</ele>
        <time>2021-08-16T15:24:28.903Z</time>
      </trkpt>
      <trkpt lat="41.99827" lon="43.43562">
        <ele>674.382309</ele>
        <time>2021-08-16T15:24:40.242Z</time>
      </trkpt>
      <trkpt lat="41.99847" lon="43.4364">
        <ele>675.1279</ele>
        <time>2021-08-16T15:24:57.800Z</time>
      </trkpt>
      <trkpt lat="41.99849" lon="43.43643">
        <ele>675.161945</ele>
        <time>2021-08-16T15:25:00.014Z</time>
      </trkpt>
      <trkpt lat="41.99864" lon="43.43673">
        <ele>675.493749</ele>
        <time>2021-08-16T15:25:06.620Z</time>
      </trkpt>
      <trkpt lat="41.99869" lon="43.43684">
        <ele>675.60265</ele>
        <time>2021-08-16T15:25:10.919Z</time>
      </trkpt>
      <trkpt lat="41.99874" lon="43.43703">
        <ele>675.785286</ele>
        <time>2021-08-16T15:25:14.041Z</time>
      </trkpt>
      <trkpt lat="41.99884" lon="43.43718">
        <ele>675.963655</ele>
        <time>2021-08-16T15:25:18.987Z</time>
      </trkpt>
      <trkpt lat="41.99966" lon="43.43814">
        <ele>677.901483</ele>
        <time>2021-08-16T15:25:51.868Z</time>
      </trkpt>
      <trkpt lat="42.00017" lon="43.43903">
        <ele>679.580207</ele>
        <time>2021-08-16T15:26:21.201Z</time>
      </trkpt>
      <trkpt lat="42.00037" lon="43.4396">
        <ele>680.768539</ele>
        <time>2021-08-16T15:26:38.789Z</time>
      </trkpt>
      <trkpt lat="42.00058" lon="43.43997">
        <ele>681.734858</ele>
        <time>2021-08-16T15:26:51.335Z</time>
      </trkpt>
      <trkpt lat="42.00084" lon="43.44028">
        <ele>682.727979</ele>
        <time>2021-08-16T15:27:04.101Z</time>
      </trkpt>
      <trkpt lat="42.00101" lon="43.44047">
        <ele>683.336614</ele>
        <time>2021-08-16T15:27:12.125Z</time>
      </trkpt>
      <trkpt lat="42.00128" lon="43.44086">
        <ele>684.471225</ele>
        <time>2021-08-16T15:27:26.626Z</time>
      </trkpt>
      <trkpt lat="42.00211" lon="43.4418">
        <ele>688.298509</ele>
        <time>2021-08-16T15:28:10.427Z</time>
      </trkpt>
      <trkpt lat="42.00232" lon="43.44203">
        <ele>689.327252</ele>
        <time>2021-08-16T15:28:21.587Z</time>
      </trkpt>
      <trkpt lat="42.00244" lon="43.44212">
        <ele>689.838784</ele>
        <time>2021-08-16T15:28:27.317Z</time>
      </trkpt>
      <trkpt lat="42.00268" lon="43.44235">
        <ele>690.916081</ele>
        <time>2021-08-16T15:28:39.357Z</time>
      </trkpt>
      <trkpt lat="42.00282" lon="43.44246">
        <ele>691.515991</ele>
        <time>2021-08-16T15:28:46.411Z</time>
      </trkpt>
      <trkpt lat="42.00289" lon="43.4426">
        <ele>692.096233</ele>
        <time>2021-08-16T15:28:52.242Z</time>
      </trkpt>
      <trkpt lat="42.00375" lon="43.44352">
        <ele>698.217971</ele>
        <time>2021-08-16T15:29:47.673Z</time>
      </trkpt>
      <trkpt lat="42.00419" lon="43.44419">
        <ele>701.922161</ele>
        <time>2021-08-16T15:30:22.348Z</time>
      </trkpt>
      <trkpt lat="42.00456" lon="43.44487">
        <ele>706.357756</ele>
        <time>2021-08-16T15:30:59.992Z</time>
      </trkpt>
      <trkpt lat="42.00485" lon="43.44573">
        <ele>711.234341</ele>
        <time>2021-08-16T15:31:42.033Z</time>
      </trkpt>
      <trkpt lat="42.00488" lon="43.44594">
        <ele>712.367997</ele>
        <time>2021-08-16T15:31:51.104Z</time>
      </trkpt>
      <trkpt lat="42.00487" lon="43.4463">
        <ele>714.249402</ele>
        <time>2021-08-16T15:32:07.235Z</time>
      </trkpt>
      <trkpt lat="42.0048" lon="43.44677">
        <ele>716.233148</ele>
        <time>2021-08-16T15:32:27.707Z</time>
      </trkpt>
      <trkpt lat="42.0046" lon="43.44822">
        <ele>722.396534</ele>
        <time>2021-08-16T15:33:26.969Z</time>
      </trkpt>
      <trkpt lat="42.00461" lon="43.44896">
        <ele>724.828768</ele>
        <time>2021-08-16T15:33:49.088Z</time>
      </trkpt>
      <trkpt lat="42.00461" lon="43.44916">
        <ele>725.15487</ele>
        <time>2021-08-16T15:33:54.179Z</time>
      </trkpt>
      <trkpt lat="42.00473" lon="43.44999">
        <ele>726.574674</ele>
        <time>2021-08-16T15:34:15.666Z</time>
      </trkpt>
      <trkpt lat="42.00491" lon="43.45059">
        <ele>727.659824</ele>
        <time>2021-08-16T15:34:31.162Z</time>
      </trkpt>
      <trkpt lat="42.00525" lon="43.45127">
        <ele>729.25777</ele>
        <time>2021-08-16T15:34:49.314Z</time>
      </trkpt>
      <trkpt lat="42.0056" lon="43.45181">
        <ele>730.879314</ele>
        <time>2021-08-16T15:35:05.473Z</time>
      </trkpt>
      <trkpt lat="42.00723" lon="43.45401">
        <ele>740.114657</ele>
        <time>2021-08-16T15:36:49.849Z</time>
      </trkpt>
      <trkpt lat="42.00763" lon="43.45449">
        <ele>742.633024</ele>
        <time>2021-08-16T15:37:16.439Z</time>
      </trkpt>
      <trkpt lat="42.00801" lon="43.4546">
        <ele>744.595242</ele>
        <time>2021-08-16T15:37:35.687Z</time>
      </trkpt>
      <trkpt lat="42.00824" lon="43.45449">
        <ele>745.887851</ele>
        <time>2021-08-16T15:37:49.565Z</time>
      </trkpt>
      <trkpt lat="42.00827" lon="43.45462">
        <ele>746.412955</ele>
        <time>2021-08-16T15:37:53.181Z</time>
      </trkpt>
      <trkpt lat="42.00826" lon="43.45482">
        <ele>747.184348</ele>
        <time>2021-08-16T15:38:01.812Z</time>
      </trkpt>
      <trkpt lat="42.00828" lon="43.45494">
        <ele>747.632928</ele>
        <time>2021-08-16T15:38:06.116Z</time>
      </trkpt>
      <trkpt lat="42.00836" lon="43.45506">
        <ele>748.267982</ele>
        <time>2021-08-16T15:38:11.012Z</time>
      </trkpt>
      <trkpt lat="42.00842" lon="43.45523">
        <ele>748.981138</ele>
        <time>2021-08-16T15:38:18.992Z</time>
      </trkpt>
      <trkpt lat="42.0086" lon="43.45547">
        <ele>750.289837</ele>
        <time>2021-08-16T15:38:30.365Z</time>
      </trkpt>
      <trkpt lat="42.00908" lon="43.45622">
        <ele>754.172191</ele>
        <time>2021-08-16T15:39:04.644Z</time>
      </trkpt>
      <trkpt lat="42.00954" lon="43.45683">
        <ele>757.659259</ele>
        <time>2021-08-16T15:39:33.086Z</time>
      </trkpt>
      <trkpt lat="42.00999" lon="43.4573">
        <ele>760.766904</ele>
        <time>2021-08-16T15:40:04.964Z</time>
      </trkpt>
      <trkpt lat="42.01086" lon="43.45808">
        <ele>768.388617</ele>
        <time>2021-08-16T15:41:08.988Z</time>
      </trkpt>
      <trkpt lat="42.01102" lon="43.4582">
        <ele>769.764529</ele>
        <time>2021-08-16T15:41:20.842Z</time>
      </trkpt>
      <trkpt lat="42.01167" lon="43.45863">
        <ele>775.225573</ele>
        <time>2021-08-16T15:42:05.233Z</time>
      </trkpt>
      <trkpt lat="42.01183" lon="43.45876">
        <ele>776.544943</ele>
        <time>2021-08-16T15:42:19.535Z</time>
      </trkpt>
      <trkpt lat="42.01198" lon="43.45874">
        <ele>777.612674</ele>
        <time>2021-08-16T15:42:31.028Z</time>
      </trkpt>
      <trkpt lat="42.01212" lon="43.45859">
        <ele>778.834174</ele>
        <time>2021-08-16T15:42:43.944Z</time>
      </trkpt>
      <trkpt lat="42.01227" lon="43.45857">
        <ele>779.836555</ele>
        <time>2021-08-16T15:42:54.883Z</time>
      </trkpt>
      <trkpt lat="42.01291" lon="43.45953">
        <ele>786.488972</ele>
        <time>2021-08-16T15:44:03.141Z</time>
      </trkpt>
      <trkpt lat="42.01383" lon="43.45958">
        <ele>792.078558</ele>
        <time>2021-08-16T15:45:03.525Z</time>
      </trkpt>
      <trkpt lat="42.01411" lon="43.45978">
        <ele>793.976397</ele>
        <time>2021-08-16T15:45:23.974Z</time>
      </trkpt>
      <trkpt lat="42.01444" lon="43.46013">
        <ele>796.461746</ele>
        <time>2021-08-16T15:45:50.737Z</time>
      </trkpt>
      <trkpt lat="42.01484" lon="43.46069">
        <ele>800.9581</ele>
        <time>2021-08-16T15:46:30.357Z</time>
      </trkpt>
      <trkpt lat="42.01541" lon="43.46086">
        <ele>806.476563</ele>
        <time>2021-08-16T15:47:16.607Z</time>
      </trkpt>
      <trkpt lat="42.0158" lon="43.46134">
        <ele>811.472024</ele>
        <time>2021-08-16T15:48:03.759Z</time>
      </trkpt>
      <trkpt lat="42.01603" lon="43.46151">
        <ele>813.996636</ele>
        <time>2021-08-16T15:48:29.416Z</time>
      </trkpt>
      <trkpt lat="42.01631" lon="43.46161">
        <ele>817.274781</ele>
        <time>2021-08-16T15:48:57.972Z</time>
      </trkpt>
      <trkpt lat="42.0165" lon="43.4616">
        <ele>819.832372</ele>
        <time>2021-08-16T15:49:18.282Z</time>
      </trkpt>
      <trkpt lat="42.01664" lon="43.46149">
        <ele>821.921527</ele>
        <time>2021-08-16T15:49:35.129Z</time>
      </trkpt>
      <trkpt lat="42.01701" lon="43.46088">
        <ele>829.563534</ele>
        <time>2021-08-16T15:50:38.496Z</time>
      </trkpt>
      <trkpt lat="42.01725" lon="43.46014">
        <ele>837.372172</ele>
        <time>2021-08-16T15:51:42.553Z</time>
      </trkpt>
      <trkpt lat="42.01764" lon="43.45945">
        <ele>842.579214</ele>
        <time>2021-08-16T15:52:41.367Z</time>
      </trkpt>
      <trkpt lat="42.01789" lon="43.45885">
        <ele>846.322876</ele>
        <time>2021-08-16T15:53:21.041Z</time>
      </trkpt>
      <trkpt lat="42.01813" lon="43.4586">
        <ele>848.593924</ele>
        <time>2021-08-16T15:53:41.073Z</time>
      </trkpt>
      <trkpt lat="42.01867" lon="43.45825">
        <ele>851.612338</ele>
        <time>2021-08-16T15:54:11.697Z</time>
      </trkpt>
      <trkpt lat="42.01887" lon="43.45772">
        <ele>851.330172</ele>
        <time>2021-08-16T15:54:30.416Z</time>
      </trkpt>
      <trkpt lat="42.01933" lon="43.45723">
        <ele>850.952877</ele>
        <time>2021-08-16T15:54:50.226Z</time>
      </trkpt>
      <trkpt lat="42.01968" lon="43.45705">
        <ele>850.708173</ele>
        <time>2021-08-16T15:55:02.287Z</time>
      </trkpt>
      <trkpt lat="42.01986" lon="43.45717">
        <ele>850.582974</ele>
        <time>2021-08-16T15:55:08.367Z</time>
      </trkpt>
      <trkpt lat="42.01988" lon="43.45728">
        <ele>850.356858</ele>
        <time>2021-08-16T15:55:10.842Z</time>
      </trkpt>
      <trkpt lat="42.01983" lon="43.45746">
        <ele>849.811122</ele>
        <time>2021-08-16T15:55:15.229Z</time>
      </trkpt>
      <trkpt lat="42.01949" lon="43.45802">
        <ele>847.714332</ele>
        <time>2021-08-16T15:55:31.534Z</time>
      </trkpt>
      <trkpt lat="42.0191" lon="43.45905">
        <ele>844.409506</ele>
        <time>2021-08-16T15:55:56.912Z</time>
      </trkpt>
      <trkpt lat="42.01877" lon="43.45979">
        <ele>842.345849</ele>
        <time>2021-08-16T15:56:15.759Z</time>
      </trkpt>
      <trkpt lat="42.0185" lon="43.46019">
        <ele>841.157905</ele>
        <time>2021-08-16T15:56:27.899Z</time>
      </trkpt>
      <trkpt lat="42.01842" lon="43.46041">
        <ele>840.631305</ele>
        <time>2021-08-16T15:56:33.349Z</time>
      </trkpt>
      <trkpt lat="42.01813" lon="43.46173">
        <ele>838.789259</ele>
        <time>2021-08-16T15:57:06.805Z</time>
      </trkpt>
      <trkpt lat="42.0181" lon="43.46205">
        <ele>839.237323</ele>
        <time>2021-08-16T15:57:16.023Z</time>
      </trkpt>
      <trkpt lat="42.01812" lon="43.4622">
        <ele>839.441814</ele>
        <time>2021-08-16T15:57:20.540Z</time>
      </trkpt>
      <trkpt lat="42.01824" lon="43.46243">
        <ele>839.828668</ele>
        <time>2021-08-16T15:57:29.957Z</time>
      </trkpt>
      <trkpt lat="42.01883" lon="43.46334">
        <ele>841.485542</ele>
        <time>2021-08-16T15:58:16.437Z</time>
      </trkpt>
      <trkpt lat="42.01893" lon="43.46462">
        <ele>846.627494</ele>
        <time>2021-08-16T15:59:18.214Z</time>
      </trkpt>
      <trkpt lat="42.01917" lon="43.4653">
        <ele>849.816352</ele>
        <time>2021-08-16T15:59:56.738Z</time>
      </trkpt>
      <trkpt lat="42.01948" lon="43.46649">
        <ele>855.449061</ele>
        <time>2021-08-16T16:01:02.675Z</time>
      </trkpt>
      <trkpt lat="42.01966" lon="43.46676">
        <ele>857.134772</ele>
        <time>2021-08-16T16:01:21.349Z</time>
      </trkpt>
      <trkpt lat="42.01966" lon="43.46744">
        <ele>860.273766</ele>
        <time>2021-08-16T16:01:56.650Z</time>
      </trkpt>
      <trkpt lat="42.01974" lon="43.46766">
        <ele>861.367484</ele>
        <time>2021-08-16T16:02:08.771Z</time>
      </trkpt>
      <trkpt lat="42.02021" lon="43.46831">
        <ele>864.917083</ele>
        <time>2021-08-16T16:02:52.057Z</time>
      </trkpt>
      <trkpt lat="42.02031" lon="43.46851">
        <ele>865.712652</ele>
        <time>2021-08-16T16:03:02.620Z</time>
      </trkpt>
      <trkpt lat="42.02037" lon="43.46872">
        <ele>866.440501</ele>
        <time>2021-08-16T16:03:11.980Z</time>
      </trkpt>
      <trkpt lat="42.02043" lon="43.46948">
        <ele>869.01138</ele>
        <time>2021-08-16T16:03:44.930Z</time>
      </trkpt>
      <trkpt lat="42.02069" lon="43.47009">
        <ele>871.346062</ele>
        <time>2021-08-16T16:04:14.524Z</time>
      </trkpt>
      <trkpt lat="42.02069" lon="43.47025">
        <ele>871.91635</ele>
        <time>2021-08-16T16:04:21.313Z</time>
      </trkpt>
      <trkpt lat="42.0205" lon="43.47049">
        <ele>873.205253</ele>
        <time>2021-08-16T16:04:36.633Z</time>
      </trkpt>
      <trkpt lat="42.02041" lon="43.47079">
        <ele>874.384984</ele>
        <time>2021-08-16T16:04:50.811Z</time>
      </trkpt>
      <trkpt lat="42.0204" lon="43.47137">
        <ele>876.47612</ele>
        <time>2021-08-16T16:05:16.461Z</time>
      </trkpt>
      <trkpt lat="42.02046" lon="43.47205">
        <ele>878.972309</ele>
        <time>2021-08-16T16:05:48.866Z</time>
      </trkpt>
      <trkpt lat="42.02043" lon="43.47297">
        <ele>882.9266</ele>
        <time>2021-08-16T16:06:35.576Z</time>
      </trkpt>
      <trkpt lat="42.02031" lon="43.47343">
        <ele>885.231144</ele>
        <time>2021-08-16T16:07:01.919Z</time>
      </trkpt>
      <trkpt lat="42.02024" lon="43.47408">
        <ele>888.268048</ele>
        <time>2021-08-16T16:07:36.598Z</time>
      </trkpt>
      <trkpt lat="42.02007" lon="43.47489">
        <ele>891.794382</ele>
        <time>2021-08-16T16:08:18.587Z</time>
      </trkpt>
      <trkpt lat="42.02004" lon="43.4756">
        <ele>893.748369</ele>
        <time>2021-08-16T16:08:50.504Z</time>
      </trkpt>
      <trkpt lat="42.01995" lon="43.47591">
        <ele>894.670708</ele>
        <time>2021-08-16T16:09:04.464Z</time>
      </trkpt>
      <trkpt lat="42.01965" lon="43.4764">
        <ele>896.420735</ele>
        <time>2021-08-16T16:09:29.102Z</time>
      </trkpt>
      <trkpt lat="42.01959" lon="43.47666">
        <ele>897.195808</ele>
        <time>2021-08-16T16:09:39.355Z</time>
      </trkpt>
      <trkpt lat="42.01957" lon="43.47711">
        <ele>898.089655</ele>
        <time>2021-08-16T16:09:55.144Z</time>
      </trkpt>
      <trkpt lat="42.0192" lon="43.47789">
        <ele>898.834682</ele>
        <time>2021-08-16T16:10:25.147Z</time>
      </trkpt>
      <trkpt lat="42.01916" lon="43.47821">
        <ele>899.100711</ele>
        <time>2021-08-16T16:10:35.353Z</time>
      </trkpt>
      <trkpt lat="42.01919" lon="43.47879">
        <ele>899.569581</ele>
        <time>2021-08-16T16:10:52.821Z</time>
      </trkpt>
      <trkpt lat="42.01915" lon="43.47926">
        <ele>899.896641</ele>
        <time>2021-08-16T16:11:06.741Z</time>
      </trkpt>
      <trkpt lat="42.01937" lon="43.48001">
        <ele>899.906673</ele>
        <time>2021-08-16T16:11:29.692Z</time>
      </trkpt>
      <trkpt lat="42.01955" lon="43.48123">
        <ele>899.92228</ele>
        <time>2021-08-16T16:12:02.885Z</time>
      </trkpt>
      <trkpt lat="42.01991" lon="43.48296">
        <ele>901.759009</ele>
        <time>2021-08-16T16:12:55.233Z</time>
      </trkpt>
      <trkpt lat="42.01991" lon="43.48328">
        <ele>902.148277</ele>
        <time>2021-08-16T16:13:05.655Z</time>
      </trkpt>
      <trkpt lat="42.01989" lon="43.4836">
        <ele>902.534763</ele>
        <time>2021-08-16T16:13:15.305Z</time>
      </trkpt>
      <trkpt lat="42.01993" lon="43.48384">
        <ele>902.846748</ele>
        <time>2021-08-16T16:13:25.757Z</time>
      </trkpt>
      <trkpt lat="42.02005" lon="43.48429">
        <ele>905.306375</ele>
        <time>2021-08-16T16:13:47.515Z</time>
      </trkpt>
      <trkpt lat="42.02018" lon="43.48462">
        <ele>907.410266</ele>
        <time>2021-08-16T16:14:06.986Z</time>
      </trkpt>
      <trkpt lat="42.02002" lon="43.48464">
        <ele>908.652879</ele>
        <time>2021-08-16T16:14:16.730Z</time>
      </trkpt>
      <trkpt lat="42.01977" lon="43.48468">
        <ele>910.532992</ele>
        <time>2021-08-16T16:14:32.079Z</time>
      </trkpt>
      <trkpt lat="42.01988" lon="43.48495">
        <ele>912.243802</ele>
        <time>2021-08-16T16:14:51.669Z</time>
      </trkpt>
      <trkpt lat="42.02015" lon="43.48541">
        <ele>915.529009</ele>
        <time>2021-08-16T16:15:28.619Z</time>
      </trkpt>
      <trkpt lat="42.02035" lon="43.48605">
        <ele>919.957561</ele>
        <time>2021-08-16T16:16:12.633Z</time>
      </trkpt>
      <trkpt lat="42.02087" lon="43.48711">
        <ele>928.535242</ele>
        <time>2021-08-16T16:17:34.652Z</time>
      </trkpt>
      <trkpt lat="42.02246" lon="43.4894">
        <ele>945.672136</ele>
        <time>2021-08-16T16:20:25.866Z</time>
      </trkpt>
      <trkpt lat="42.02271" lon="43.49002">
        <ele>947.640917</ele>
        <time>2021-08-16T16:20:57.512Z</time>
      </trkpt>
      <trkpt lat="42.0229" lon="43.49053">
        <ele>949.255277</ele>
        <time>2021-08-16T16:21:21.797Z</time>
      </trkpt>
      <trkpt lat="42.02306" lon="43.49131">
        <ele>951.522018</ele>
        <time>2021-08-16T16:21:53.368Z</time>
      </trkpt>
      <trkpt lat="42.0233" lon="43.49324">
        <ele>952.134301</ele>
        <time>2021-08-16T16:22:51.694Z</time>
      </trkpt>
      <trkpt lat="42.02338" lon="43.49447">
        <ele>950.997903</ele>
        <time>2021-08-16T16:23:21.577Z</time>
      </trkpt>
      <trkpt lat="42.02342" lon="43.49481">
        <ele>950.276638</ele>
        <time>2021-08-16T16:23:29.642Z</time>
      </trkpt>
      <trkpt lat="42.02342" lon="43.49493">
        <ele>950.023502</ele>
        <time>2021-08-16T16:23:32.363Z</time>
      </trkpt>
      <trkpt lat="42.02357" lon="43.4959">
        <ele>947.932206</ele>
        <time>2021-08-16T16:23:54.963Z</time>
      </trkpt>
      <trkpt lat="42.02353" lon="43.49639">
        <ele>946.937164</ele>
        <time>2021-08-16T16:24:06.192Z</time>
      </trkpt>
      <trkpt lat="42.02354" lon="43.49678">
        <ele>946.488516</ele>
        <time>2021-08-16T16:24:14.946Z</time>
      </trkpt>
      <trkpt lat="42.02361" lon="43.49721">
        <ele>945.980165</ele>
        <time>2021-08-16T16:24:25.548Z</time>
      </trkpt>
      <trkpt lat="42.02358" lon="43.49741">
        <ele>945.75024</ele>
        <time>2021-08-16T16:24:30.673Z</time>
      </trkpt>
      <trkpt lat="42.02363" lon="43.49777">
        <ele>945.329102</ele>
        <time>2021-08-16T16:24:39.724Z</time>
      </trkpt>
      <trkpt lat="42.02361" lon="43.49839">
        <ele>944.607595</ele>
        <time>2021-08-16T16:24:56.042Z</time>
      </trkpt>
      <trkpt lat="42.02356" lon="43.49862">
        <ele>944.328389</ele>
        <time>2021-08-16T16:25:02.222Z</time>
      </trkpt>
      <trkpt lat="42.0234" lon="43.49889">
        <ele>944.33208</ele>
        <time>2021-08-16T16:25:11.832Z</time>
      </trkpt>
      <trkpt lat="42.02325" lon="43.4993">
        <ele>944.596645</ele>
        <time>2021-08-16T16:25:25.088Z</time>
      </trkpt>
      <trkpt lat="42.02327" lon="43.5003">
        <ele>945.173774</ele>
        <time>2021-08-16T16:25:56.480Z</time>
      </trkpt>
      <trkpt lat="42.0232" lon="43.50072">
        <ele>945.419612</ele>
        <time>2021-08-16T16:26:10.935Z</time>
      </trkpt>
      <trkpt lat="42.02322" lon="43.50104">
        <ele>945.602108</ele>
        <time>2021-08-16T16:26:21.833Z</time>
      </trkpt>
      <trkpt lat="42.02304" lon="43.50177">
        <ele>945.888098</ele>
        <time>2021-08-16T16:26:46.244Z</time>
      </trkpt>
      <trkpt lat="42.02295" lon="43.50282">
        <ele>946.281499</ele>
        <time>2021-08-16T16:27:17.347Z</time>
      </trkpt>
      <trkpt lat="42.02267" lon="43.50423">
        <ele>946.386769</ele>
        <time>2021-08-16T16:27:56.194Z</time>
      </trkpt>
      <trkpt lat="42.02267" lon="43.50509">
        <ele>946.277884</ele>
        <time>2021-08-16T16:28:19.037Z</time>
      </trkpt>
      <trkpt lat="42.02258" lon="43.50529">
        <ele>946.248337</ele>
        <time>2021-08-16T16:28:26.477Z</time>
      </trkpt>
      <trkpt lat="42.02253" lon="43.50563">
        <ele>946.204273</ele>
        <time>2021-08-16T16:28:36.145Z</time>
      </trkpt>
      <trkpt lat="42.0224" lon="43.50612">
        <ele>946.011037</ele>
        <time>2021-08-16T16:28:51.616Z</time>
      </trkpt>
      <trkpt lat="42.02233" lon="43.5064">
        <ele>945.883402</ele>
        <time>2021-08-16T16:28:59.823Z</time>
      </trkpt>
      <trkpt lat="42.02225" lon="43.50667">
        <ele>945.760382</ele>
        <time>2021-08-16T16:29:06.290Z</time>
      </trkpt>
      <trkpt lat="42.02224" lon="43.50739">
        <ele>945.452936</ele>
        <time>2021-08-16T16:29:18.032Z</time>
      </trkpt>
      <trkpt lat="42.02235" lon="43.50815">
        <ele>944.820495</ele>
        <time>2021-08-16T16:29:29.669Z</time>
      </trkpt>
      <trkpt lat="42.02252" lon="43.50891">
        <ele>941.520848</ele>
        <time>2021-08-16T16:29:40.195Z</time>
      </trkpt>
      <trkpt lat="42.02326" lon="43.51094">
        <ele>931.581511</ele>
        <time>2021-08-16T16:30:06.488Z</time>
      </trkpt>
      <trkpt lat="42.02355" lon="43.51187">
        <ele>926.595632</ele>
        <time>2021-08-16T16:30:18.163Z</time>
      </trkpt>
      <trkpt lat="42.02361" lon="43.51228">
        <ele>924.535899</ele>
        <time>2021-08-16T16:30:23.158Z</time>
      </trkpt>
      <trkpt lat="42.02344" lon="43.51346">
        <ele>920.216348</ele>
        <time>2021-08-16T16:30:38.281Z</time>
      </trkpt>
      <trkpt lat="42.02356" lon="43.51447">
        <ele>916.944616</ele>
        <time>2021-08-16T16:30:51.762Z</time>
      </trkpt>
      <trkpt lat="42.02386" lon="43.51579">
        <ele>911.36017</ele>
        <time>2021-08-16T16:31:09.325Z</time>
      </trkpt>
      <trkpt lat="42.02506" lon="43.5194">
        <ele>891.357577</ele>
        <time>2021-08-16T16:31:55.447Z</time>
      </trkpt>
      <trkpt lat="42.02541" lon="43.52087">
        <ele>883.009575</ele>
        <time>2021-08-16T16:32:13.303Z</time>
      </trkpt>
      <trkpt lat="42.02571" lon="43.52193">
        <ele>876.809862</ele>
        <time>2021-08-16T16:32:26.621Z</time>
      </trkpt>
      <trkpt lat="42.0265" lon="43.5239">
        <ele>864.44808</ele>
        <time>2021-08-16T16:32:52.597Z</time>
      </trkpt>
      <trkpt lat="42.0266" lon="43.52463">
        <ele>859.734701</ele>
        <time>2021-08-16T16:33:01.071Z</time>
      </trkpt>
      <trkpt lat="42.02643" lon="43.52563">
        <ele>853.190232</ele>
        <time>2021-08-16T16:33:12.722Z</time>
      </trkpt>
      <trkpt lat="42.02617" lon="43.52645">
        <ele>847.38414</ele>
        <time>2021-08-16T16:33:22.710Z</time>
      </trkpt>
      <trkpt lat="42.02593" lon="43.52708">
        <ele>842.622358</ele>
        <time>2021-08-16T16:33:30.558Z</time>
      </trkpt>
      <trkpt lat="42.02565" lon="43.52758">
        <ele>838.323424</ele>
        <time>2021-08-16T16:33:37.655Z</time>
      </trkpt>
      <trkpt lat="42.02542" lon="43.52788">
        <ele>835.393779</ele>
        <time>2021-08-16T16:33:42.491Z</time>
      </trkpt>
      <trkpt lat="42.02509" lon="43.52811">
        <ele>832.181195</ele>
        <time>2021-08-16T16:33:48.197Z</time>
      </trkpt>
      <trkpt lat="42.02446" lon="43.52845">
        <ele>827.16869</ele>
        <time>2021-08-16T16:33:58.247Z</time>
      </trkpt>
      <trkpt lat="42.02392" lon="43.52866">
        <ele>823.009339</ele>
        <time>2021-08-16T16:34:07.038Z</time>
      </trkpt>
      <trkpt lat="42.02364" lon="43.52889">
        <ele>820.529999</ele>
        <time>2021-08-16T16:34:12.508Z</time>
      </trkpt>
      <trkpt lat="42.02354" lon="43.52897">
        <ele>819.793377</ele>
        <time>2021-08-16T16:34:14.358Z</time>
      </trkpt>
      <trkpt lat="42.02342" lon="43.52895">
        <ele>819.783313</ele>
        <time>2021-08-16T16:34:16.526Z</time>
      </trkpt>
      <trkpt lat="42.02299" lon="43.52913">
        <ele>819.746999</ele>
        <time>2021-08-16T16:34:24.630Z</time>
      </trkpt>
      <trkpt lat="42.02281" lon="43.52912">
        <ele>819.731991</ele>
        <time>2021-08-16T16:34:27.939Z</time>
      </trkpt>
      <trkpt lat="42.02262" lon="43.52904">
        <ele>819.7159</ele>
        <time>2021-08-16T16:34:34.250Z</time>
      </trkpt>
      <trkpt lat="42.02252" lon="43.52909">
        <ele>819.707312</ele>
        <time>2021-08-16T16:34:36.495Z</time>
      </trkpt>
      <trkpt lat="42.02251" lon="43.52973">
        <ele>819.668242</ele>
        <time>2021-08-16T16:34:51.994Z</time>
      </trkpt>
      <trkpt lat="42.02239" lon="43.53047">
        <ele>820.800217</ele>
        <time>2021-08-16T16:35:20.426Z</time>
      </trkpt>
      <trkpt lat="42.0223" lon="43.53072">
        <ele>821.568193</ele>
        <time>2021-08-16T16:35:29.451Z</time>
      </trkpt>
      <trkpt lat="42.02228" lon="43.5309">
        <ele>822.04941</ele>
        <time>2021-08-16T16:35:36.998Z</time>
      </trkpt>
      <trkpt lat="42.02219" lon="43.53151">
        <ele>823.772258</ele>
        <time>2021-08-16T16:35:57.877Z</time>
      </trkpt>
      <trkpt lat="42.02226" lon="43.53269">
        <ele>826.038865</ele>
        <time>2021-08-16T16:36:31.522Z</time>
      </trkpt>
      <trkpt lat="42.02237" lon="43.53366">
        <ele>825.048681</ele>
        <time>2021-08-16T16:36:47.712Z</time>
      </trkpt>
      <trkpt lat="42.02261" lon="43.53472">
        <ele>823.924208</ele>
        <time>2021-08-16T16:37:02.503Z</time>
      </trkpt>
      <trkpt lat="42.02299" lon="43.53606">
        <ele>818.608457</ele>
        <time>2021-08-16T16:37:20.341Z</time>
      </trkpt>
      <trkpt lat="42.02334" lon="43.53713">
        <ele>813.904471</ele>
        <time>2021-08-16T16:37:34.520Z</time>
      </trkpt>
      <trkpt lat="42.0236" lon="43.53774">
        <ele>809.93766</ele>
        <time>2021-08-16T16:37:42.986Z</time>
      </trkpt>
      <trkpt lat="42.02473" lon="43.53979">
        <ele>793.978043</ele>
        <time>2021-08-16T16:38:11.902Z</time>
      </trkpt>
      <trkpt lat="42.02487" lon="43.54003">
        <ele>791.738234</ele>
        <time>2021-08-16T16:38:15.343Z</time>
      </trkpt>
      <trkpt lat="42.02501" lon="43.54014">
        <ele>790.188192</ele>
        <time>2021-08-16T16:38:17.662Z</time>
      </trkpt>
      <trkpt lat="42.02519" lon="43.54029">
        <ele>788.159859</ele>
        <time>2021-08-16T16:38:20.796Z</time>
      </trkpt>
      <trkpt lat="42.02557" lon="43.54086">
        <ele>782.56909</ele>
        <time>2021-08-16T16:38:29.162Z</time>
      </trkpt>
      <trkpt lat="42.02606" lon="43.54232">
        <ele>771.136886</ele>
        <time>2021-08-16T16:38:46.820Z</time>
      </trkpt>
      <trkpt lat="42.02608" lon="43.54243">
        <ele>770.335423</ele>
        <time>2021-08-16T16:38:48.044Z</time>
      </trkpt>
      <trkpt lat="42.02611" lon="43.54264">
        <ele>768.848143</ele>
        <time>2021-08-16T16:38:50.439Z</time>
      </trkpt>
      <trkpt lat="42.02617" lon="43.54283">
        <ele>767.37985</ele>
        <time>2021-08-16T16:38:52.892Z</time>
      </trkpt>
      <trkpt lat="42.02638" lon="43.54299">
        <ele>765.523226</ele>
        <time>2021-08-16T16:38:56.660Z</time>
      </trkpt>
      <trkpt lat="42.02639" lon="43.54307">
        <ele>765.23303</ele>
        <time>2021-08-16T16:38:58.390Z</time>
      </trkpt>
      <trkpt lat="42.02636" lon="43.54328">
        <ele>764.430611</ele>
        <time>2021-08-16T16:39:02.758Z</time>
      </trkpt>
      <trkpt lat="42.02632" lon="43.54412">
        <ele>761.382871</ele>
        <time>2021-08-16T16:39:20.460Z</time>
      </trkpt>
      <trkpt lat="42.02625" lon="43.5445">
        <ele>759.930605</ele>
        <time>2021-08-16T16:39:29.060Z</time>
      </trkpt>
      <trkpt lat="42.02624" lon="43.54457">
        <ele>759.672583</ele>
        <time>2021-08-16T16:39:30.748Z</time>
      </trkpt>
      <trkpt lat="42.02617" lon="43.54486">
        <ele>758.580901</ele>
        <time>2021-08-16T16:39:37.543Z</time>
      </trkpt>
      <trkpt lat="42.02613" lon="43.54501">
        <ele>757.989709</ele>
        <time>2021-08-16T16:39:41.377Z</time>
      </trkpt>
      <trkpt lat="42.02602" lon="43.54545">
        <ele>756.880571</ele>
        <time>2021-08-16T16:39:47.985Z</time>
      </trkpt>
      <trkpt lat="42.02587" lon="43.54615">
        <ele>755.931737</ele>
        <time>2021-08-16T16:39:58.636Z</time>
      </trkpt>
      <trkpt lat="42.02558" lon="43.54784">
        <ele>753.790979</ele>
        <time>2021-08-16T16:40:24.476Z</time>
      </trkpt>
      <trkpt lat="42.0254" lon="43.54847">
        <ele>753.188971</ele>
        <time>2021-08-16T16:40:34.548Z</time>
      </trkpt>
      <trkpt lat="42.02449" lon="43.54997">
        <ele>751.248484</ele>
        <time>2021-08-16T16:41:04.350Z</time>
      </trkpt>
      <trkpt lat="42.02438" lon="43.55022">
        <ele>750.874487</ele>
        <time>2021-08-16T16:41:08.650Z</time>
      </trkpt>
      <trkpt lat="42.0243" lon="43.55031">
        <ele>750.689062</ele>
        <time>2021-08-16T16:41:10.786Z</time>
      </trkpt>
      <trkpt lat="42.02421" lon="43.55046">
        <ele>750.439646</ele>
        <time>2021-08-16T16:41:13.594Z</time>
      </trkpt>
      <trkpt lat="42.02407" lon="43.55107">
        <ele>749.621311</ele>
        <time>2021-08-16T16:41:22.608Z</time>
      </trkpt>
      <trkpt lat="42.02402" lon="43.55173">
        <ele>748.758568</ele>
        <time>2021-08-16T16:41:32.030Z</time>
      </trkpt>
      <trkpt lat="42.02398" lon="43.55234">
        <ele>747.722128</ele>
        <time>2021-08-16T16:41:40.623Z</time>
      </trkpt>
      <trkpt lat="42.02393" lon="43.55269">
        <ele>747.120923</ele>
        <time>2021-08-16T16:41:45.456Z</time>
      </trkpt>
      <trkpt lat="42.02376" lon="43.55368">
        <ele>745.377057</ele>
        <time>2021-08-16T16:41:59.573Z</time>
      </trkpt>
      <trkpt lat="42.02344" lon="43.55464">
        <ele>744.059047</ele>
        <time>2021-08-16T16:42:14.662Z</time>
      </trkpt>
      <trkpt lat="42.02316" lon="43.55535">
        <ele>743.338258</ele>
        <time>2021-08-16T16:42:26.858Z</time>
      </trkpt>
      <trkpt lat="42.02305" lon="43.55564">
        <ele>743.04157</ele>
        <time>2021-08-16T16:42:32.004Z</time>
      </trkpt>
      <trkpt lat="42.02279" lon="43.55619">
        <ele>742.451101</ele>
        <time>2021-08-16T16:42:42.371Z</time>
      </trkpt>
      <trkpt lat="42.02183" lon="43.55777">
        <ele>741.437678</ele>
        <time>2021-08-16T16:43:15.509Z</time>
      </trkpt>
      <trkpt lat="42.0214" lon="43.55825">
        <ele>740.937173</ele>
        <time>2021-08-16T16:43:27.015Z</time>
      </trkpt>
      <trkpt lat="42.02126" lon="43.55836">
        <ele>740.723699</ele>
        <time>2021-08-16T16:43:30.791Z</time>
      </trkpt>
      <trkpt lat="42.02124" lon="43.5584">
        <ele>740.692183</ele>
        <time>2021-08-16T16:43:31.295Z</time>
      </trkpt>
      <trkpt lat="42.02123" lon="43.55845">
        <ele>740.64174</ele>
        <time>2021-08-16T16:43:32.128Z</time>
      </trkpt>
      <trkpt lat="42.02123" lon="43.55851">
        <ele>740.581906</ele>
        <time>2021-08-16T16:43:32.949Z</time>
      </trkpt>
      <trkpt lat="42.02127" lon="43.55861">
        <ele>740.475286</ele>
        <time>2021-08-16T16:43:34.649Z</time>
      </trkpt>
      <trkpt lat="42.02124" lon="43.55883">
        <ele>740.269634</ele>
        <time>2021-08-16T16:43:38.027Z</time>
      </trkpt>
      <trkpt lat="42.02087" lon="43.55976">
        <ele>739.302874</ele>
        <time>2021-08-16T16:43:53.129Z</time>
      </trkpt>
      <trkpt lat="42.02087" lon="43.55987">
        <ele>739.203767</ele>
        <time>2021-08-16T16:43:54.510Z</time>
      </trkpt>
      <trkpt lat="42.02083" lon="43.5599">
        <ele>739.14201</ele>
        <time>2021-08-16T16:43:55.539Z</time>
      </trkpt>
      <trkpt lat="42.02074" lon="43.55999">
        <ele>739.005712</ele>
        <time>2021-08-16T16:43:57.708Z</time>
      </trkpt>
      <trkpt lat="42.02066" lon="43.56006">
        <ele>738.879032</ele>
        <time>2021-08-16T16:43:59.489Z</time>
      </trkpt>
      <trkpt lat="42.02062" lon="43.56011">
        <ele>738.799706</ele>
        <time>2021-08-16T16:44:00.485Z</time>
      </trkpt>
      <trkpt lat="42.02044" lon="43.5603">
        <ele>738.484561</ele>
        <time>2021-08-16T16:44:04.885Z</time>
      </trkpt>
      <trkpt lat="42.01991" lon="43.56085">
        <ele>737.565425</ele>
        <time>2021-08-16T16:44:17.832Z</time>
      </trkpt>
      <trkpt lat="42.01969" lon="43.56109">
        <ele>737.170953</ele>
        <time>2021-08-16T16:44:23.337Z</time>
      </trkpt>
      <trkpt lat="42.01951" lon="43.56126">
        <ele>736.860861</ele>
        <time>2021-08-16T16:44:27.583Z</time>
      </trkpt>
      <trkpt lat="42.01904" lon="43.56177">
        <ele>736.062478</ele>
        <time>2021-08-16T16:44:39.247Z</time>
      </trkpt>
      <trkpt lat="42.01888" lon="43.5619">
        <ele>735.831751</ele>
        <time>2021-08-16T16:44:42.654Z</time>
      </trkpt>
      <trkpt lat="42.0188" lon="43.56198">
        <ele>735.699102</ele>
        <time>2021-08-16T16:44:44.654Z</time>
      </trkpt>
      <trkpt lat="42.01863" lon="43.56215">
        <ele>735.432282</ele>
        <time>2021-08-16T16:44:48.626Z</time>
      </trkpt>
      <trkpt lat="42.01846" lon="43.56233">
        <ele>735.15123</ele>
        <time>2021-08-16T16:44:52.968Z</time>
      </trkpt>
      <trkpt lat="42.01843" lon="43.56236">
        <ele>735.105481</ele>
        <time>2021-08-16T16:44:53.644Z</time>
      </trkpt>
      <trkpt lat="42.0184" lon="43.56239">
        <ele>735.05814</ele>
        <time>2021-08-16T16:44:54.286Z</time>
      </trkpt>
      <trkpt lat="42.01805" lon="43.56275">
        <ele>734.493246</ele>
        <time>2021-08-16T16:45:03.025Z</time>
      </trkpt>
      <trkpt lat="42.01738" lon="43.56345">
        <ele>733.573309</ele>
        <time>2021-08-16T16:45:19.853Z</time>
      </trkpt>
      <trkpt lat="42.01725" lon="43.5636">
        <ele>733.401883</ele>
        <time>2021-08-16T16:45:23.092Z</time>
      </trkpt>
      <trkpt lat="42.01667" lon="43.56425">
        <ele>732.627537</ele>
        <time>2021-08-16T16:45:38.387Z</time>
      </trkpt>
      <trkpt lat="42.0162" lon="43.56486">
        <ele>731.825822</ele>
        <time>2021-08-16T16:45:51.245Z</time>
      </trkpt>
      <trkpt lat="42.01561" lon="43.56561">
        <ele>730.736133</ele>
        <time>2021-08-16T16:46:06.832Z</time>
      </trkpt>
      <trkpt lat="42.01522" lon="43.56613">
        <ele>729.998297</ele>
        <time>2021-08-16T16:46:17.306Z</time>
      </trkpt>
      <trkpt lat="42.01506" lon="43.56633">
        <ele>729.728409</ele>
        <time>2021-08-16T16:46:21.431Z</time>
      </trkpt>
      <trkpt lat="42.01486" lon="43.56653">
        <ele>729.421636</ele>
        <time>2021-08-16T16:46:26.159Z</time>
      </trkpt>
      <trkpt lat="42.0145" lon="43.56687">
        <ele>728.872276</ele>
        <time>2021-08-16T16:46:34.710Z</time>
      </trkpt>
      <trkpt lat="42.01432" lon="43.56701">
        <ele>728.610842</ele>
        <time>2021-08-16T16:46:38.749Z</time>
      </trkpt>
      <trkpt lat="42.01409" lon="43.56722">
        <ele>728.264717</ele>
        <time>2021-08-16T16:46:44.182Z</time>
      </trkpt>
      <trkpt lat="42.01401" lon="43.5673">
        <ele>728.1524</ele>
        <time>2021-08-16T16:46:45.870Z</time>
      </trkpt>
      <trkpt lat="42.01394" lon="43.56739">
        <ele>728.03058</ele>
        <time>2021-08-16T16:46:47.844Z</time>
      </trkpt>
      <trkpt lat="42.01358" lon="43.56799">
        <ele>727.609771</ele>
        <time>2021-08-16T16:46:59.390Z</time>
      </trkpt>
      <trkpt lat="42.01325" lon="43.56851">
        <ele>727.411289</ele>
        <time>2021-08-16T16:47:10.196Z</time>
      </trkpt>
      <trkpt lat="42.01308" lon="43.56873">
        <ele>727.31779</ele>
        <time>2021-08-16T16:47:15.340Z</time>
      </trkpt>
      <trkpt lat="42.01269" lon="43.56914">
        <ele>727.125036</ele>
        <time>2021-08-16T16:47:26.089Z</time>
      </trkpt>
      <trkpt lat="42.01242" lon="43.56945">
        <ele>727.055618</ele>
        <time>2021-08-16T16:47:33.837Z</time>
      </trkpt>
      <trkpt lat="42.01233" lon="43.56954">
        <ele>727.068424</ele>
        <time>2021-08-16T16:47:36.541Z</time>
      </trkpt>
      <trkpt lat="42.01218" lon="43.56968">
        <ele>727.087537</ele>
        <time>2021-08-16T16:47:40.548Z</time>
      </trkpt>
      <trkpt lat="42.01098" lon="43.5708">
        <ele>727.227089</ele>
        <time>2021-08-16T16:48:14.604Z</time>
      </trkpt>
      <trkpt lat="42.01064" lon="43.57112">
        <ele>727.191211</ele>
        <time>2021-08-16T16:48:23.599Z</time>
      </trkpt>
      <trkpt lat="42.00979" lon="43.57194">
        <ele>727.09981</ele>
        <time>2021-08-16T16:48:46.464Z</time>
      </trkpt>
      <trkpt lat="42.00902" lon="43.57258">
        <ele>726.901496</ele>
        <time>2021-08-16T16:49:06.119Z</time>
      </trkpt>
      <trkpt lat="42.00743" lon="43.57414">
        <ele>726.051178</ele>
        <time>2021-08-16T16:49:48.170Z</time>
      </trkpt>
      <trkpt lat="42.00645" lon="43.57542">
        <ele>724.999304</ele>
        <time>2021-08-16T16:50:15.482Z</time>
      </trkpt>
      <trkpt lat="42.00617" lon="43.57591">
        <ele>724.511358</ele>
        <time>2021-08-16T16:50:24.508Z</time>
      </trkpt>
      <trkpt lat="42.006" lon="43.57622">
        <ele>724.205442</ele>
        <time>2021-08-16T16:50:30.126Z</time>
      </trkpt>
      <trkpt lat="42.00587" lon="43.57617">
        <ele>724.06628</ele>
        <time>2021-08-16T16:50:32.751Z</time>
      </trkpt>
      <trkpt lat="42.00576" lon="43.57616">
        <ele>723.944825</ele>
        <time>2021-08-16T16:50:34.993Z</time>
      </trkpt>
      <trkpt lat="42.00543" lon="43.57617">
        <ele>723.59711</ele>
        <time>2021-08-16T16:50:41.478Z</time>
      </trkpt>
      <trkpt lat="42.00526" lon="43.57622">
        <ele>723.433083</ele>
        <time>2021-08-16T16:50:44.786Z</time>
      </trkpt>
      <trkpt lat="42.00491" lon="43.57648">
        <ele>723.069789</ele>
        <time>2021-08-16T16:50:52.894Z</time>
      </trkpt>
      <trkpt lat="42.00364" lon="43.57767">
        <ele>721.634043</ele>
        <time>2021-08-16T16:51:24.076Z</time>
      </trkpt>
      <trkpt lat="42.00332" lon="43.57797">
        <ele>721.185713</ele>
        <time>2021-08-16T16:51:31.987Z</time>
      </trkpt>
      <trkpt lat="42.00287" lon="43.57838">
        <ele>720.570257</ele>
        <time>2021-08-16T16:51:42.689Z</time>
      </trkpt>
      <trkpt lat="42.00096" lon="43.58021">
        <ele>717.292965</ele>
        <time>2021-08-16T16:52:27.535Z</time>
      </trkpt>
      <trkpt lat="42.00042" lon="43.58071">
        <ele>716.344736</ele>
        <time>2021-08-16T16:52:39.935Z</time>
      </trkpt>
      <trkpt lat="41.99978" lon="43.58133">
        <ele>715.21235</ele>
        <time>2021-08-16T16:52:54.932Z</time>
      </trkpt>
      <trkpt lat="41.99962" lon="43.58147">
        <ele>714.924931</ele>
        <time>2021-08-16T16:52:58.760Z</time>
      </trkpt>
      <trkpt lat="41.99902" lon="43.58203">
        <ele>713.913404</ele>
        <time>2021-08-16T16:53:12.577Z</time>
      </trkpt>
      <trkpt lat="41.99814" lon="43.58286">
        <ele>712.440689</ele>
        <time>2021-08-16T16:53:33.311Z</time>
      </trkpt>
      <trkpt lat="41.99786" lon="43.58313">
        <ele>711.934353</ele>
        <time>2021-08-16T16:53:40.039Z</time>
      </trkpt>
      <trkpt lat="41.99744" lon="43.58352">
        <ele>711.078614</ele>
        <time>2021-08-16T16:53:49.933Z</time>
      </trkpt>
      <trkpt lat="41.99705" lon="43.58389">
        <ele>710.285071</ele>
        <time>2021-08-16T16:53:58.996Z</time>
      </trkpt>
      <trkpt lat="41.99662" lon="43.58429">
        <ele>709.407861</ele>
        <time>2021-08-16T16:54:08.773Z</time>
      </trkpt>
      <trkpt lat="41.99611" lon="43.58478">
        <ele>707.80681</ele>
        <time>2021-08-16T16:54:19.834Z</time>
      </trkpt>
      <trkpt lat="41.99591" lon="43.58497">
        <ele>707.083217</ele>
        <time>2021-08-16T16:54:24.147Z</time>
      </trkpt>
      <trkpt lat="41.9958" lon="43.58508">
        <ele>706.668751</ele>
        <time>2021-08-16T16:54:26.590Z</time>
      </trkpt>
      <trkpt lat="41.99555" lon="43.5853">
        <ele>705.804466</ele>
        <time>2021-08-16T16:54:31.671Z</time>
      </trkpt>
      <trkpt lat="41.9953" lon="43.58554">
        <ele>704.897259</ele>
        <time>2021-08-16T16:54:36.908Z</time>
      </trkpt>
      <trkpt lat="41.99496" lon="43.58587">
        <ele>703.693321</ele>
        <time>2021-08-16T16:54:43.891Z</time>
      </trkpt>
      <trkpt lat="41.99442" lon="43.58636">
        <ele>702.005777</ele>
        <time>2021-08-16T16:54:54.961Z</time>
      </trkpt>
      <trkpt lat="41.99414" lon="43.58664">
        <ele>701.112319</ele>
        <time>2021-08-16T16:55:01.006Z</time>
      </trkpt>
      <trkpt lat="41.99366" lon="43.58714">
        <ele>699.550191</ele>
        <time>2021-08-16T16:55:12.011Z</time>
      </trkpt>
      <trkpt lat="41.99273" lon="43.58812">
        <ele>698.844945</ele>
        <time>2021-08-16T16:55:36.419Z</time>
      </trkpt>
      <trkpt lat="41.99217" lon="43.58869">
        <ele>698.604486</ele>
        <time>2021-08-16T16:55:53.393Z</time>
      </trkpt>
      <trkpt lat="41.9916" lon="43.58925">
        <ele>698.627503</ele>
        <time>2021-08-16T16:56:10.054Z</time>
      </trkpt>
      <trkpt lat="41.991" lon="43.58985">
        <ele>698.673972</ele>
        <time>2021-08-16T16:56:26.632Z</time>
      </trkpt>
      <trkpt lat="41.99041" lon="43.58817">
        <ele>698.559654</ele>
        <time>2021-08-16T16:57:06.437Z</time>
      </trkpt>
      <trkpt lat="41.99022" lon="43.58768">
        <ele>698.501684</ele>
        <time>2021-08-16T16:57:18.225Z</time>
      </trkpt>
      <trkpt lat="41.98987" lon="43.58806">
        <ele>698.447626</ele>
        <time>2021-08-16T16:57:28.584Z</time>
      </trkpt>
      <trkpt lat="41.98927" lon="43.5863">
        <ele>698.539375</ele>
        <time>2021-08-16T16:58:02.831Z</time>
      </trkpt>
      <trkpt lat="41.98867" lon="43.58446">
        <ele>698.577086</ele>
        <time>2021-08-16T16:58:37.312Z</time>
      </trkpt>
      <trkpt lat="41.98826" lon="43.58474">
        <ele>698.583993</ele>
        <time>2021-08-16T16:58:48.177Z</time>
      </trkpt>
      <trkpt lat="41.98777" lon="43.58508">
        <ele>698.661337</ele>
        <time>2021-08-16T16:59:01.092Z</time>
      </trkpt>
      <trkpt lat="41.9873" lon="43.58543">
        <ele>698.763949</ele>
        <time>2021-08-16T16:59:14.067Z</time>
      </trkpt>
      <trkpt lat="41.98683" lon="43.58575">
        <ele>698.864569</ele>
        <time>2021-08-16T16:59:26.873Z</time>
      </trkpt>
      <trkpt lat="41.98674" lon="43.58577">
        <ele>698.881993</ele>
        <time>2021-08-16T16:59:29.067Z</time>
      </trkpt>
      <trkpt lat="41.98629" lon="43.58596">
        <ele>698.964164</ele>
        <time>2021-08-16T16:59:40.692Z</time>
      </trkpt>
      <trkpt lat="41.98577" lon="43.58622">
        <ele>699.050214</ele>
        <time>2021-08-16T16:59:54.477Z</time>
      </trkpt>
      <trkpt lat="41.98528" lon="43.58647">
        <ele>699.131501</ele>
        <time>2021-08-16T17:00:06.738Z</time>
      </trkpt>
      <trkpt lat="41.98477" lon="43.58673">
        <ele>699.23004</ele>
        <time>2021-08-16T17:00:19.287Z</time>
      </trkpt>
      <trkpt lat="41.98427" lon="43.58697">
        <ele>699.472808</ele>
        <time>2021-08-16T17:00:31.826Z</time>
      </trkpt>
      <trkpt lat="41.98396" lon="43.58708">
        <ele>699.620491</ele>
        <time>2021-08-16T17:00:39.839Z</time>
      </trkpt>
      <trkpt lat="41.9839" lon="43.5871">
        <ele>699.647267</ele>
        <time>2021-08-16T17:00:41.142Z</time>
      </trkpt>
      <trkpt lat="41.98383" lon="43.58681">
        <ele>699.750207</ele>
        <time>2021-08-16T17:00:46.667Z</time>
      </trkpt>
      <trkpt lat="41.98287" lon="43.5833">
        <ele>702.103512</ele>
        <time>2021-08-16T17:02:02.903Z</time>
      </trkpt>
      <trkpt lat="41.98195" lon="43.57985">
        <ele>703.851902</ele>
        <time>2021-08-16T17:03:13.565Z</time>
      </trkpt>
      <trkpt lat="41.98169" lon="43.57884">
        <ele>704.037598</ele>
        <time>2021-08-16T17:03:30.898Z</time>
      </trkpt>
      <trkpt lat="41.98129" lon="43.57732">
        <ele>703.836991</ele>
        <time>2021-08-16T17:03:56.876Z</time>
      </trkpt>
      <trkpt lat="41.98097" lon="43.57615">
        <ele>703.800395</ele>
        <time>2021-08-16T17:04:17.221Z</time>
      </trkpt>
      <trkpt lat="41.98004" lon="43.57268">
        <ele>704.008456</ele>
        <time>2021-08-16T17:05:19.374Z</time>
      </trkpt>
      <trkpt lat="41.97978" lon="43.57171">
        <ele>704.129048</ele>
        <time>2021-08-16T17:05:37.251Z</time>
      </trkpt>
      <trkpt lat="41.97814" lon="43.5656">
        <ele>705.060218</ele>
        <time>2021-08-16T17:07:29.070Z</time>
      </trkpt>
      <trkpt lat="41.97628" lon="43.55866">
        <ele>707.586577</ele>
        <time>2021-08-16T17:09:43.694Z</time>
      </trkpt>
      <trkpt lat="41.97567" lon="43.55642">
        <ele>709.609195</ele>
        <time>2021-08-16T17:10:33.798Z</time>
      </trkpt>
      <trkpt lat="41.97498" lon="43.55392">
        <ele>712.26214</ele>
        <time>2021-08-16T17:11:34.266Z</time>
      </trkpt>
      <trkpt lat="41.97417" lon="43.55067">
        <ele>712.454581</ele>
        <time>2021-08-16T17:12:30.265Z</time>
      </trkpt>
      <trkpt lat="41.97352" lon="43.54838">
        <ele>712.363486</ele>
        <time>2021-08-16T17:13:09.824Z</time>
      </trkpt>
      <trkpt lat="41.97155" lon="43.54085">
        <ele>714.305602</ele>
        <time>2021-08-16T17:15:33.038Z</time>
      </trkpt>
      <trkpt lat="41.96608" lon="43.52067">
        <ele>720.399743</ele>
        <time>2021-08-16T17:21:59.883Z</time>
      </trkpt>
      <trkpt lat="41.9655" lon="43.51879">
        <ele>720.604809</ele>
        <time>2021-08-16T17:22:34.628Z</time>
      </trkpt>
      <trkpt lat="41.96403" lon="43.51555">
        <ele>720.614826</ele>
        <time>2021-08-16T17:23:36.915Z</time>
      </trkpt>
      <trkpt lat="41.96363" lon="43.51469">
        <ele>720.794121</ele>
        <time>2021-08-16T17:23:54.728Z</time>
      </trkpt>
      <trkpt lat="41.96289" lon="43.5131">
        <ele>721.115113</ele>
        <time>2021-08-16T17:24:28.121Z</time>
      </trkpt>
      <trkpt lat="41.9622" lon="43.512">
        <ele>721.355221</ele>
        <time>2021-08-16T17:24:52.997Z</time>
      </trkpt>
      <trkpt lat="41.9618" lon="43.51156">
        <ele>721.475891</ele>
        <time>2021-08-16T17:25:04.630Z</time>
      </trkpt>
      <trkpt lat="41.96093" lon="43.511">
        <ele>721.707914</ele>
        <time>2021-08-16T17:25:26.992Z</time>
      </trkpt>
      <trkpt lat="41.95812" lon="43.50917">
        <ele>722.616876</ele>
        <time>2021-08-16T17:26:43.214Z</time>
      </trkpt>
      <trkpt lat="41.95741" lon="43.50886">
        <ele>722.623429</ele>
        <time>2021-08-16T17:26:59.223Z</time>
      </trkpt>
      <trkpt lat="41.95733" lon="43.50882">
        <ele>722.624187</ele>
        <time>2021-08-16T17:27:00.961Z</time>
      </trkpt>
      <trkpt lat="41.95663" lon="43.50869">
        <ele>722.355369</ele>
        <time>2021-08-16T17:27:15.806Z</time>
      </trkpt>
      <trkpt lat="41.95596" lon="43.50865">
        <ele>722.064178</ele>
        <time>2021-08-16T17:27:29.639Z</time>
      </trkpt>
      <trkpt lat="41.95521" lon="43.50871">
        <ele>721.874486</ele>
        <time>2021-08-16T17:27:45.523Z</time>
      </trkpt>
      <trkpt lat="41.95359" lon="43.50896">
        <ele>722.135613</ele>
        <time>2021-08-16T17:28:23.910Z</time>
      </trkpt>
      <trkpt lat="41.94852" lon="43.5104">
        <ele>724.243122</ele>
        <time>2021-08-16T17:30:29.112Z</time>
      </trkpt>
      <trkpt lat="41.94799" lon="43.51045">
        <ele>724.926464</ele>
        <time>2021-08-16T17:30:43.202Z</time>
      </trkpt>
      <trkpt lat="41.94741" lon="43.51039">
        <ele>725.835667</ele>
        <time>2021-08-16T17:30:59.852Z</time>
      </trkpt>
      <trkpt lat="41.94646" lon="43.50978">
        <ele>727.60521</ele>
        <time>2021-08-16T17:31:34.613Z</time>
      </trkpt>
      <trkpt lat="41.94613" lon="43.50949">
        <ele>728.435108</ele>
        <time>2021-08-16T17:31:48.254Z</time>
      </trkpt>
      <trkpt lat="41.946" lon="43.50938">
        <ele>728.73756</ele>
        <time>2021-08-16T17:31:53.642Z</time>
      </trkpt>
      <trkpt lat="41.94541" lon="43.50881">
        <ele>730.264147</ele>
        <time>2021-08-16T17:32:18.027Z</time>
      </trkpt>
      <trkpt lat="41.94473" lon="43.50806">
        <ele>731.037692</ele>
        <time>2021-08-16T17:32:43.606Z</time>
      </trkpt>
      <trkpt lat="41.94419" lon="43.50727">
        <ele>731.247891</ele>
        <time>2021-08-16T17:33:01.187Z</time>
      </trkpt>
      <trkpt lat="41.94376" lon="43.50676">
        <ele>731.261613</ele>
        <time>2021-08-16T17:33:12.974Z</time>
      </trkpt>
      <trkpt lat="41.94187" lon="43.50547">
        <ele>730.756966</ele>
        <time>2021-08-16T17:33:55.989Z</time>
      </trkpt>
      <trkpt lat="41.94059" lon="43.50424">
        <ele>732.786328</ele>
        <time>2021-08-16T17:34:46.121Z</time>
      </trkpt>
      <trkpt lat="41.94019" lon="43.5038">
        <ele>733.722952</ele>
        <time>2021-08-16T17:35:05.271Z</time>
      </trkpt>
      <trkpt lat="41.93982" lon="43.50329">
        <ele>734.676011</ele>
        <time>2021-08-16T17:35:21.928Z</time>
      </trkpt>
      <trkpt lat="41.93969" lon="43.50304">
        <ele>735.085667</ele>
        <time>2021-08-16T17:35:29.308Z</time>
      </trkpt>
      <trkpt lat="41.93945" lon="43.50259">
        <ele>735.546261</ele>
        <time>2021-08-16T17:35:40.486Z</time>
      </trkpt>
      <trkpt lat="41.93861" lon="43.50057">
        <ele>734.990745</ele>
        <time>2021-08-16T17:36:16.115Z</time>
      </trkpt>
      <trkpt lat="41.9383" lon="43.49964">
        <ele>734.777058</ele>
        <time>2021-08-16T17:36:31.373Z</time>
      </trkpt>
      <trkpt lat="41.93805" lon="43.49866">
        <ele>734.559139</ele>
        <time>2021-08-16T17:36:48.089Z</time>
      </trkpt>
      <trkpt lat="41.9377" lon="43.49678">
        <ele>735.254808</ele>
        <time>2021-08-16T17:37:25.645Z</time>
      </trkpt>
      <trkpt lat="41.93748" lon="43.49579">
        <ele>735.623783</ele>
        <time>2021-08-16T17:37:45.333Z</time>
      </trkpt>
      <trkpt lat="41.93743" lon="43.4954">
        <ele>735.651353</ele>
        <time>2021-08-16T17:37:52.390Z</time>
      </trkpt>
      <trkpt lat="41.93739" lon="43.49258">
        <ele>735.646517</ele>
        <time>2021-08-16T17:38:38.507Z</time>
      </trkpt>
      <trkpt lat="41.9372" lon="43.49132">
        <ele>735.491886</ele>
        <time>2021-08-16T17:38:59.121Z</time>
      </trkpt>
      <trkpt lat="41.93716" lon="43.49112">
        <ele>735.457815</ele>
        <time>2021-08-16T17:39:02.868Z</time>
      </trkpt>
      <trkpt lat="41.93709" lon="43.49079">
        <ele>735.397695</ele>
        <time>2021-08-16T17:39:08.105Z</time>
      </trkpt>
      <trkpt lat="41.93693" lon="43.49034">
        <ele>735.308508</ele>
        <time>2021-08-16T17:39:16.161Z</time>
      </trkpt>
      <trkpt lat="41.93669" lon="43.48968">
        <ele>735.176144</ele>
        <time>2021-08-16T17:39:28.126Z</time>
      </trkpt>
      <trkpt lat="41.93651" lon="43.4892">
        <ele>735.08015</ele>
        <time>2021-08-16T17:39:36.730Z</time>
      </trkpt>
      <trkpt lat="41.93604" lon="43.48803">
        <ele>734.999624</ele>
        <time>2021-08-16T17:39:57.811Z</time>
      </trkpt>
      <trkpt lat="41.93578" lon="43.48753">
        <ele>734.972109</ele>
        <time>2021-08-16T17:40:07.856Z</time>
      </trkpt>
      <trkpt lat="41.93492" lon="43.48612">
        <ele>735.502125</ele>
        <time>2021-08-16T17:40:40.955Z</time>
      </trkpt>
      <trkpt lat="41.93373" lon="43.48439">
        <ele>736.600549</ele>
        <time>2021-08-16T17:41:27.441Z</time>
      </trkpt>
      <trkpt lat="41.93299" lon="43.48302">
        <ele>737.167043</ele>
        <time>2021-08-16T17:41:58.327Z</time>
      </trkpt>
      <trkpt lat="41.93252" lon="43.48242">
        <ele>737.101338</ele>
        <time>2021-08-16T17:42:12.579Z</time>
      </trkpt>
      <trkpt lat="41.93209" lon="43.48225">
        <ele>737.056435</ele>
        <time>2021-08-16T17:42:22.070Z</time>
      </trkpt>
      <trkpt lat="41.93171" lon="43.48225">
        <ele>737.017727</ele>
        <time>2021-08-16T17:42:30.268Z</time>
      </trkpt>
      <trkpt lat="41.93124" lon="43.48231">
        <ele>737.170599</ele>
        <time>2021-08-16T17:42:40.275Z</time>
      </trkpt>
      <trkpt lat="41.93084" lon="43.4824">
        <ele>737.316015</ele>
        <time>2021-08-16T17:42:49.355Z</time>
      </trkpt>
      <trkpt lat="41.93052" lon="43.48246">
        <ele>737.429107</ele>
        <time>2021-08-16T17:42:56.899Z</time>
      </trkpt>
      <trkpt lat="41.92983" lon="43.48261">
        <ele>737.787626</ele>
        <time>2021-08-16T17:43:15.436Z</time>
      </trkpt>
      <trkpt lat="41.92871" lon="43.48295">
        <ele>739.913627</ele>
        <time>2021-08-16T17:43:51.471Z</time>
      </trkpt>
      <trkpt lat="41.92744" lon="43.48335">
        <ele>742.002167</ele>
        <time>2021-08-16T17:44:35.416Z</time>
      </trkpt>
      <trkpt lat="41.92708" lon="43.48356">
        <ele>742.552839</ele>
        <time>2021-08-16T17:44:47.086Z</time>
      </trkpt>
      <trkpt lat="41.92693" lon="43.48371">
        <ele>742.813176</ele>
        <time>2021-08-16T17:44:52.940Z</time>
      </trkpt>
      <trkpt lat="41.92679" lon="43.48387">
        <ele>743.069461</ele>
        <time>2021-08-16T17:44:57.209Z</time>
      </trkpt>
      <trkpt lat="41.9263" lon="43.48437">
        <ele>743.198879</ele>
        <time>2021-08-16T17:45:11.628Z</time>
      </trkpt>
      <trkpt lat="41.92553" lon="43.48472">
        <ele>742.380723</ele>
        <time>2021-08-16T17:45:27.778Z</time>
      </trkpt>
      <trkpt lat="41.92435" lon="43.48485">
        <ele>740.988441</ele>
        <time>2021-08-16T17:45:49.942Z</time>
      </trkpt>
      <trkpt lat="41.92361" lon="43.48516">
        <ele>739.911554</ele>
        <time>2021-08-16T17:46:04.501Z</time>
      </trkpt>
      <trkpt lat="41.92318" lon="43.48522">
        <ele>739.309936</ele>
        <time>2021-08-16T17:46:12.971Z</time>
      </trkpt>
      <trkpt lat="41.923" lon="43.48522">
        <ele>739.20758</ele>
        <time>2021-08-16T17:46:16.503Z</time>
      </trkpt>
      <trkpt lat="41.92285" lon="43.48522">
        <ele>739.240334</ele>
        <time>2021-08-16T17:46:19.580Z</time>
      </trkpt>
      <trkpt lat="41.92211" lon="43.48515">
        <ele>739.407076</ele>
        <time>2021-08-16T17:46:35.984Z</time>
      </trkpt>
      <trkpt lat="41.92157" lon="43.48498">
        <ele>739.529532</ele>
        <time>2021-08-16T17:46:49.675Z</time>
      </trkpt>
      <trkpt lat="41.92114" lon="43.4848">
        <ele>739.955066</ele>
        <time>2021-08-16T17:47:02.917Z</time>
      </trkpt>
      <trkpt lat="41.92052" lon="43.48456">
        <ele>741.17811</ele>
        <time>2021-08-16T17:47:22.981Z</time>
      </trkpt>
      <trkpt lat="41.91896" lon="43.48382">
        <ele>744.515086</ele>
        <time>2021-08-16T17:48:18.838Z</time>
      </trkpt>
      <trkpt lat="41.91867" lon="43.48368">
        <ele>745.184272</ele>
        <time>2021-08-16T17:48:28.393Z</time>
      </trkpt>
      <trkpt lat="41.91837" lon="43.4837">
        <ele>745.838928</ele>
        <time>2021-08-16T17:48:37.441Z</time>
      </trkpt>
      <trkpt lat="41.91697" lon="43.48342">
        <ele>750.187867</ele>
        <time>2021-08-16T17:49:28.371Z</time>
      </trkpt>
      <trkpt lat="41.91682" lon="43.48346">
        <ele>750.745919</ele>
        <time>2021-08-16T17:49:34.411Z</time>
      </trkpt>
      <trkpt lat="41.91674" lon="43.48357">
        <ele>751.165051</ele>
        <time>2021-08-16T17:49:38.401Z</time>
      </trkpt>
      <trkpt lat="41.91664" lon="43.48348">
        <ele>751.574858</ele>
        <time>2021-08-16T17:49:44.595Z</time>
      </trkpt>
      <trkpt lat="41.91652" lon="43.48324">
        <ele>752.350642</ele>
        <time>2021-08-16T17:49:53.028Z</time>
      </trkpt>
      <trkpt lat="41.91649" lon="43.48278">
        <ele>753.693523</ele>
        <time>2021-08-16T17:50:09.557Z</time>
      </trkpt>
      <trkpt lat="41.91656" lon="43.48205">
        <ele>756.609189</ele>
        <time>2021-08-16T17:50:42.652Z</time>
      </trkpt>
      <trkpt lat="41.91664" lon="43.48168">
        <ele>758.113272</ele>
        <time>2021-08-16T17:50:58.429Z</time>
      </trkpt>
      <trkpt lat="41.91656" lon="43.4809">
        <ele>761.20985</ele>
        <time>2021-08-16T17:51:27.574Z</time>
      </trkpt>
      <trkpt lat="41.91662" lon="43.48068">
        <ele>762.119792</ele>
        <time>2021-08-16T17:51:36.705Z</time>
      </trkpt>
      <trkpt lat="41.91647" lon="43.48009">
        <ele>762.887915</ele>
        <time>2021-08-16T17:51:54.531Z</time>
      </trkpt>
      <trkpt lat="41.91585" lon="43.4786">
        <ele>762.876801</ele>
        <time>2021-08-16T17:52:22.200Z</time>
      </trkpt>
      <trkpt lat="41.91572" lon="43.47797">
        <ele>761.692521</ele>
        <time>2021-08-16T17:52:30.123Z</time>
      </trkpt>
      <trkpt lat="41.9154" lon="43.47769">
        <ele>760.071861</ele>
        <time>2021-08-16T17:52:36.192Z</time>
      </trkpt>
      <trkpt lat="41.91502" lon="43.47704">
        <ele>757.440754</ele>
        <time>2021-08-16T17:52:45.969Z</time>
      </trkpt>
      <trkpt lat="41.91447" lon="43.47487">
        <ele>751.360724</ele>
        <time>2021-08-16T17:53:14.001Z</time>
      </trkpt>
      <trkpt lat="41.91422" lon="43.47419">
        <ele>749.49842</ele>
        <time>2021-08-16T17:53:24.398Z</time>
      </trkpt>
      <trkpt lat="41.91379" lon="43.47355">
        <ele>748.826213</ele>
        <time>2021-08-16T17:53:36.700Z</time>
      </trkpt>
      <trkpt lat="41.91334" lon="43.47303">
        <ele>748.326405</ele>
        <time>2021-08-16T17:53:48.789Z</time>
      </trkpt>
      <trkpt lat="41.91299" lon="43.47276">
        <ele>747.988628</ele>
        <time>2021-08-16T17:53:57.286Z</time>
      </trkpt>
      <trkpt lat="41.91195" lon="43.47221">
        <ele>748.542588</ele>
        <time>2021-08-16T17:54:23.285Z</time>
      </trkpt>
      <trkpt lat="41.91074" lon="43.47139">
        <ele>750.232577</ele>
        <time>2021-08-16T17:55:03.535Z</time>
      </trkpt>
      <trkpt lat="41.91021" lon="43.47137">
        <ele>751.34714</ele>
        <time>2021-08-16T17:55:21.701Z</time>
      </trkpt>
      <trkpt lat="41.90899" lon="43.47203">
        <ele>753.922385</ele>
        <time>2021-08-16T17:56:05.812Z</time>
      </trkpt>
      <trkpt lat="41.90863" lon="43.47212">
        <ele>754.578256</ele>
        <time>2021-08-16T17:56:17.686Z</time>
      </trkpt>
      <trkpt lat="41.90837" lon="43.472">
        <ele>755.076536</ele>
        <time>2021-08-16T17:56:26.422Z</time>
      </trkpt>
      <trkpt lat="41.90766" lon="43.4714">
        <ele>756.330201</ele>
        <time>2021-08-16T17:56:50.777Z</time>
      </trkpt>
      <trkpt lat="41.90739" lon="43.47098">
        <ele>756.566387</ele>
        <time>2021-08-16T17:57:01.699Z</time>
      </trkpt>
      <trkpt lat="41.9072" lon="43.47047">
        <ele>756.812333</ele>
        <time>2021-08-16T17:57:12.411Z</time>
      </trkpt>
      <trkpt lat="41.90646" lon="43.46904">
        <ele>757.293858</ele>
        <time>2021-08-16T17:57:41.909Z</time>
      </trkpt>
      <trkpt lat="41.90619" lon="43.468">
        <ele>757.357236</ele>
        <time>2021-08-16T17:58:00.053Z</time>
      </trkpt>
      <trkpt lat="41.90605" lon="43.46713">
        <ele>757.437831</ele>
        <time>2021-08-16T17:58:15.491Z</time>
      </trkpt>
      <trkpt lat="41.90601" lon="43.46613">
        <ele>757.598611</ele>
        <time>2021-08-16T17:58:33.169Z</time>
      </trkpt>
      <trkpt lat="41.90604" lon="43.46494">
        <ele>757.778229</ele>
        <time>2021-08-16T17:58:54.473Z</time>
      </trkpt>
      <trkpt lat="41.90587" lon="43.4602">
        <ele>757.135696</ele>
        <time>2021-08-16T18:00:11.298Z</time>
      </trkpt>
      <trkpt lat="41.90577" lon="43.45955">
        <ele>756.693954</ele>
        <time>2021-08-16T18:00:21.248Z</time>
      </trkpt>
      <trkpt lat="41.9056" lon="43.45895">
        <ele>756.242357</ele>
        <time>2021-08-16T18:00:30.872Z</time>
      </trkpt>
      <trkpt lat="41.90506" lon="43.45782">
        <ele>755.276253</ele>
        <time>2021-08-16T18:00:50.593Z</time>
      </trkpt>
      <trkpt lat="41.90445" lon="43.45713">
        <ele>754.411924</ele>
        <time>2021-08-16T18:01:06.074Z</time>
      </trkpt>
      <trkpt lat="41.90221" lon="43.45562">
        <ele>752.086309</ele>
        <time>2021-08-16T18:01:56.072Z</time>
      </trkpt>
      <trkpt lat="41.90171" lon="43.4554">
        <ele>751.915668</ele>
        <time>2021-08-16T18:02:07.157Z</time>
      </trkpt>
      <trkpt lat="41.90055" lon="43.45505">
        <ele>751.763554</ele>
        <time>2021-08-16T18:02:33.583Z</time>
      </trkpt>
      <trkpt lat="41.89957" lon="43.45444">
        <ele>752.003179</ele>
        <time>2021-08-16T18:02:58.322Z</time>
      </trkpt>
      <trkpt lat="41.89951" lon="43.4544">
        <ele>752.024716</ele>
        <time>2021-08-16T18:02:59.788Z</time>
      </trkpt>
      <trkpt lat="41.89942" lon="43.45431">
        <ele>752.060492</ele>
        <time>2021-08-16T18:03:02.417Z</time>
      </trkpt>
      <trkpt lat="41.89847" lon="43.45335">
        <ele>752.735095</ele>
        <time>2021-08-16T18:03:32.274Z</time>
      </trkpt>
      <trkpt lat="41.89811" lon="43.45292">
        <ele>753.227876</ele>
        <time>2021-08-16T18:03:45.102Z</time>
      </trkpt>
      <trkpt lat="41.89595" lon="43.44914">
        <ele>757.953979</ele>
        <time>2021-08-16T18:05:28.203Z</time>
      </trkpt>
      <trkpt lat="41.89505" lon="43.44779">
        <ele>760.183121</ele>
        <time>2021-08-16T18:06:09.744Z</time>
      </trkpt>
      <trkpt lat="41.89485" lon="43.44733">
        <ele>760.918567</ele>
        <time>2021-08-16T18:06:22.680Z</time>
      </trkpt>
      <trkpt lat="41.89474" lon="43.44679">
        <ele>761.696831</ele>
        <time>2021-08-16T18:06:36.718Z</time>
      </trkpt>
      <trkpt lat="41.89477" lon="43.44611">
        <ele>762.637456</ele>
        <time>2021-08-16T18:06:53.958Z</time>
      </trkpt>
      <trkpt lat="41.89474" lon="43.44574">
        <ele>762.854711</ele>
        <time>2021-08-16T18:07:02.268Z</time>
      </trkpt>
      <trkpt lat="41.89476" lon="43.44509">
        <ele>763.023743</ele>
        <time>2021-08-16T18:07:14.179Z</time>
      </trkpt>
      <trkpt lat="41.89476" lon="43.44507">
        <ele>763.029725</ele>
        <time>2021-08-16T18:07:14.988Z</time>
      </trkpt>
      <trkpt lat="41.89496" lon="43.44449">
        <ele>763.195589</ele>
        <time>2021-08-16T18:07:25.713Z</time>
      </trkpt>
      <trkpt lat="41.89494" lon="43.44435">
        <ele>763.232286</ele>
        <time>2021-08-16T18:07:27.916Z</time>
      </trkpt>
      <trkpt lat="41.89443" lon="43.44363">
        <ele>763.85208</ele>
        <time>2021-08-16T18:07:44.287Z</time>
      </trkpt>
      <trkpt lat="41.89439" lon="43.44357">
        <ele>763.973215</ele>
        <time>2021-08-16T18:07:45.890Z</time>
      </trkpt>
      <trkpt lat="41.89431" lon="43.44342">
        <ele>764.241682</ele>
        <time>2021-08-16T18:07:49.864Z</time>
      </trkpt>
      <trkpt lat="41.89408" lon="43.44371">
        <ele>764.887008</ele>
        <time>2021-08-16T18:07:59.048Z</time>
      </trkpt>
      <trkpt lat="41.89392" lon="43.44393">
        <ele>765.343014</ele>
        <time>2021-08-16T18:08:06.113Z</time>
      </trkpt>
      <trkpt lat="41.89353" lon="43.44364">
        <ele>766.248913</ele>
        <time>2021-08-16T18:08:21.406Z</time>
      </trkpt>
      <trkpt lat="41.89318" lon="43.44335">
        <ele>767.139314</ele>
        <time>2021-08-16T18:08:38.359Z</time>
      </trkpt>
      <trkpt lat="41.893" lon="43.44322">
        <ele>768.487954</ele>
        <time>2021-08-16T18:08:47.941Z</time>
      </trkpt>
      <trkpt lat="41.89344" lon="43.44216">
        <ele>774.44107</ele>
        <time>2021-08-16T18:09:36.968Z</time>
      </trkpt>
      <trkpt lat="41.8936" lon="43.44161">
        <ele>777.353044</ele>
        <time>2021-08-16T18:10:04.357Z</time>
      </trkpt>
      <trkpt lat="41.89364" lon="43.44119">
        <ele>779.708395</ele>
        <time>2021-08-16T18:10:23.490Z</time>
      </trkpt>
      <trkpt lat="41.89363" lon="43.44095">
        <ele>781.485047</ele>
        <time>2021-08-16T18:10:37.416Z</time>
      </trkpt>
      <trkpt lat="41.89359" lon="43.43992">
        <ele>789.178945</ele>
        <time>2021-08-16T18:11:35.617Z</time>
      </trkpt>
      <trkpt lat="41.89351" lon="43.43963">
        <ele>791.486663</ele>
        <time>2021-08-16T18:11:52.876Z</time>
      </trkpt>
      <trkpt lat="41.89328" lon="43.43937">
        <ele>794.510606</ele>
        <time>2021-08-16T18:12:16.046Z</time>
      </trkpt>
      <trkpt lat="41.89319" lon="43.43931">
        <ele>795.547873</ele>
        <time>2021-08-16T18:12:25.258Z</time>
      </trkpt>
      <trkpt lat="41.893" lon="43.43931">
        <ele>797.205967</ele>
        <time>2021-08-16T18:12:40.238Z</time>
      </trkpt>
      <trkpt lat="41.89264" lon="43.43936">
        <ele>799.076664</ele>
        <time>2021-08-16T18:13:05.611Z</time>
      </trkpt>
      <trkpt lat="41.89225" lon="43.43928">
        <ele>801.096353</ele>
        <time>2021-08-16T18:13:29.078Z</time>
      </trkpt>
      <trkpt lat="41.89198" lon="43.43938">
        <ele>802.541791</ele>
        <time>2021-08-16T18:13:44.138Z</time>
      </trkpt>
      <trkpt lat="41.89159" lon="43.43916">
        <ele>804.742981</ele>
        <time>2021-08-16T18:14:02.614Z</time>
      </trkpt>
      <trkpt lat="41.89094" lon="43.43907">
        <ele>803.533611</ele>
        <time>2021-08-16T18:14:15.381Z</time>
      </trkpt>
      <trkpt lat="41.89039" lon="43.43868">
        <ele>798.931697</ele>
        <time>2021-08-16T18:14:25.271Z</time>
      </trkpt>
      <trkpt lat="41.88967" lon="43.43777">
        <ele>791.329339</ele>
        <time>2021-08-16T18:14:39.579Z</time>
      </trkpt>
      <trkpt lat="41.88918" lon="43.4372">
        <ele>785.383856</ele>
        <time>2021-08-16T18:14:49.037Z</time>
      </trkpt>
      <trkpt lat="41.88911" lon="43.43711">
        <ele>784.508495</ele>
        <time>2021-08-16T18:14:50.428Z</time>
      </trkpt>
      <trkpt lat="41.88901" lon="43.43698">
        <ele>783.200236</ele>
        <time>2021-08-16T18:14:52.555Z</time>
      </trkpt>
      <trkpt lat="41.88891" lon="43.43679">
        <ele>781.655827</ele>
        <time>2021-08-16T18:14:55.085Z</time>
      </trkpt>
      <trkpt lat="41.88854" lon="43.43638">
        <ele>777.207887</ele>
        <time>2021-08-16T18:15:02.524Z</time>
      </trkpt>
      <trkpt lat="41.88736" lon="43.43533">
        <ele>775.564462</ele>
        <time>2021-08-16T18:15:31.367Z</time>
      </trkpt>
      <trkpt lat="41.88663" lon="43.43492">
        <ele>776.302539</ele>
        <time>2021-08-16T18:16:03.048Z</time>
      </trkpt>
      <trkpt lat="41.88645" lon="43.43477">
        <ele>776.987399</ele>
        <time>2021-08-16T18:16:11.620Z</time>
      </trkpt>
      <trkpt lat="41.88635" lon="43.43473">
        <ele>777.328984</ele>
        <time>2021-08-16T18:16:16.310Z</time>
      </trkpt>
      <trkpt lat="41.88518" lon="43.43387">
        <ele>781.763532</ele>
        <time>2021-08-16T18:17:10.095Z</time>
      </trkpt>
      <trkpt lat="41.88467" lon="43.43336">
        <ele>784.150511</ele>
        <time>2021-08-16T18:17:31.304Z</time>
      </trkpt>
      <trkpt lat="41.88364" lon="43.43255">
        <ele>789.446533</ele>
        <time>2021-08-16T18:18:25.641Z</time>
      </trkpt>
      <trkpt lat="41.88336" lon="43.43242">
        <ele>791.619925</ele>
        <time>2021-08-16T18:18:41.405Z</time>
      </trkpt>
      <trkpt lat="41.88282" lon="43.43218">
        <ele>795.936338</ele>
        <time>2021-08-16T18:19:16.690Z</time>
      </trkpt>
      <trkpt lat="41.8825" lon="43.43217">
        <ele>798.342168</ele>
        <time>2021-08-16T18:19:38.170Z</time>
      </trkpt>
      <trkpt lat="41.88199" lon="43.43201">
        <ele>802.363972</ele>
        <time>2021-08-16T18:20:16.101Z</time>
      </trkpt>
      <trkpt lat="41.88085" lon="43.43194">
        <ele>811.295067</ele>
        <time>2021-08-16T18:21:34.632Z</time>
      </trkpt>
      <trkpt lat="41.87935" lon="43.43157">
        <ele>818.097577</ele>
        <time>2021-08-16T18:22:47.130Z</time>
      </trkpt>
      <trkpt lat="41.8792" lon="43.43138">
        <ele>818.643819</ele>
        <time>2021-08-16T18:22:53.226Z</time>
      </trkpt>
      <trkpt lat="41.87857" lon="43.43107">
        <ele>820.091189</ele>
        <time>2021-08-16T18:23:08.801Z</time>
      </trkpt>
      <trkpt lat="41.87844" lon="43.43094">
        <ele>819.565388</ele>
        <time>2021-08-16T18:23:12.204Z</time>
      </trkpt>
      <trkpt lat="41.8779" lon="43.43009">
        <ele>816.942989</ele>
        <time>2021-08-16T18:23:27.110Z</time>
      </trkpt>
      <trkpt lat="41.87762" lon="43.42951">
        <ele>815.306802</ele>
        <time>2021-08-16T18:23:35.955Z</time>
      </trkpt>
      <trkpt lat="41.87753" lon="43.42949">
        <ele>815.013289</ele>
        <time>2021-08-16T18:23:37.548Z</time>
      </trkpt>
      <trkpt lat="41.87729" lon="43.42969">
        <ele>813.969693</ele>
        <time>2021-08-16T18:23:42.268Z</time>
      </trkpt>
      <trkpt lat="41.87724" lon="43.42964">
        <ele>813.725937</ele>
        <time>2021-08-16T18:23:43.254Z</time>
      </trkpt>
      <trkpt lat="41.87734" lon="43.42926">
        <ele>812.461742</ele>
        <time>2021-08-16T18:23:48.250Z</time>
      </trkpt>
      <trkpt lat="41.87705" lon="43.42837">
        <ele>809.397863</ele>
        <time>2021-08-16T18:24:00.421Z</time>
      </trkpt>
      <trkpt lat="41.87692" lon="43.42765">
        <ele>807.045102</ele>
        <time>2021-08-16T18:24:09.976Z</time>
      </trkpt>
      <trkpt lat="41.87685" lon="43.42717">
        <ele>806.881472</ele>
        <time>2021-08-16T18:24:16.508Z</time>
      </trkpt>
      <trkpt lat="41.8768" lon="43.42603">
        <ele>806.744806</ele>
        <time>2021-08-16T18:24:33.614Z</time>
      </trkpt>
      <trkpt lat="41.87663" lon="43.42492">
        <ele>807.719219</ele>
        <time>2021-08-16T18:25:07.050Z</time>
      </trkpt>
      <trkpt lat="41.87654" lon="43.42474">
        <ele>808.419288</ele>
        <time>2021-08-16T18:25:15.987Z</time>
      </trkpt>
      <trkpt lat="41.87644" lon="43.42454">
        <ele>809.272714</ele>
        <time>2021-08-16T18:25:24.634Z</time>
      </trkpt>
      <trkpt lat="41.87632" lon="43.42433">
        <ele>810.142072</ele>
        <time>2021-08-16T18:25:35.988Z</time>
      </trkpt>
      <trkpt lat="41.87592" lon="43.42393">
        <ele>812.405099</ele>
        <time>2021-08-16T18:26:00.346Z</time>
      </trkpt>
      <trkpt lat="41.87566" lon="43.4236">
        <ele>814.011581</ele>
        <time>2021-08-16T18:26:16.056Z</time>
      </trkpt>
      <trkpt lat="41.87563" lon="43.42351">
        <ele>814.351441</ele>
        <time>2021-08-16T18:26:20.140Z</time>
      </trkpt>
      <trkpt lat="41.87561" lon="43.42345">
        <ele>814.570649</ele>
        <time>2021-08-16T18:26:22.994Z</time>
      </trkpt>
      <trkpt lat="41.87558" lon="43.42335">
        <ele>814.787671</ele>
        <time>2021-08-16T18:26:26.335Z</time>
      </trkpt>
      <trkpt lat="41.87557" lon="43.42238">
        <ele>814.998536</ele>
        <time>2021-08-16T18:26:52.516Z</time>
      </trkpt>
      <trkpt lat="41.87553" lon="43.42208">
        <ele>815.063427</ele>
        <time>2021-08-16T18:26:58.225Z</time>
      </trkpt>
      <trkpt lat="41.87541" lon="43.4218">
        <ele>815.134348</ele>
        <time>2021-08-16T18:27:03.231Z</time>
      </trkpt>
      <trkpt lat="41.87526" lon="43.42164">
        <ele>815.189386</ele>
        <time>2021-08-16T18:27:06.866Z</time>
      </trkpt>
      <trkpt lat="41.87511" lon="43.42156">
        <ele>815.236562</ele>
        <time>2021-08-16T18:27:09.602Z</time>
      </trkpt>
      <trkpt lat="41.87478" lon="43.42153">
        <ele>815.20289</ele>
        <time>2021-08-16T18:27:15.503Z</time>
      </trkpt>
      <trkpt lat="41.87437" lon="43.4216">
        <ele>814.817474</ele>
        <time>2021-08-16T18:27:23.020Z</time>
      </trkpt>
      <trkpt lat="41.87423" lon="43.42163">
        <ele>814.679618</ele>
        <time>2021-08-16T18:27:25.769Z</time>
      </trkpt>
      <trkpt lat="41.87389" lon="43.4217">
        <ele>814.365786</ele>
        <time>2021-08-16T18:27:32.487Z</time>
      </trkpt>
      <trkpt lat="41.87351" lon="43.42207">
        <ele>813.929945</ele>
        <time>2021-08-16T18:27:44.044Z</time>
      </trkpt>
      <trkpt lat="41.8731" lon="43.42227">
        <ele>814.028586</ele>
        <time>2021-08-16T18:27:56.624Z</time>
      </trkpt>
      <trkpt lat="41.87268" lon="43.42257">
        <ele>815.660048</ele>
        <time>2021-08-16T18:28:13.233Z</time>
      </trkpt>
      <trkpt lat="41.87225" lon="43.42302">
        <ele>817.550604</ele>
        <time>2021-08-16T18:28:36.410Z</time>
      </trkpt>
      <trkpt lat="41.87171" lon="43.4232">
        <ele>819.472525</ele>
        <time>2021-08-16T18:29:01.749Z</time>
      </trkpt>
      <trkpt lat="41.87083" lon="43.4236">
        <ele>824.030565</ele>
        <time>2021-08-16T18:29:47.536Z</time>
      </trkpt>
      <trkpt lat="41.87025" lon="43.42373">
        <ele>827.042152</ele>
        <time>2021-08-16T18:30:16.593Z</time>
      </trkpt>
      <trkpt lat="41.86989" lon="43.42372">
        <ele>828.893148</ele>
        <time>2021-08-16T18:30:34.243Z</time>
      </trkpt>
      <trkpt lat="41.8697" lon="43.42381">
        <ele>829.845951</ele>
        <time>2021-08-16T18:30:43.589Z</time>
      </trkpt>
      <trkpt lat="41.86959" lon="43.42396">
        <ele>830.640577</ele>
        <time>2021-08-16T18:30:51.715Z</time>
      </trkpt>
      <trkpt lat="41.86942" lon="43.42396">
        <ele>831.418091</ele>
        <time>2021-08-16T18:30:59.317Z</time>
      </trkpt>
      <trkpt lat="41.8686" lon="43.42383">
        <ele>835.446928</ele>
        <time>2021-08-16T18:31:39.429Z</time>
      </trkpt>
      <trkpt lat="41.86725" lon="43.42314">
        <ele>840.642093</ele>
        <time>2021-08-16T18:32:44.514Z</time>
      </trkpt>
      <trkpt lat="41.86658" lon="43.423">
        <ele>842.672265</ele>
        <time>2021-08-16T18:33:09.181Z</time>
      </trkpt>
      <trkpt lat="41.86606" lon="43.42276">
        <ele>841.037184</ele>
        <time>2021-08-16T18:33:23.245Z</time>
      </trkpt>
      <trkpt lat="41.86553" lon="43.42231">
        <ele>837.858513</ele>
        <time>2021-08-16T18:33:33.365Z</time>
      </trkpt>
      <trkpt lat="41.86539" lon="43.42213">
        <ele>836.864569</ele>
        <time>2021-08-16T18:33:36.611Z</time>
      </trkpt>
      <trkpt lat="41.86524" lon="43.42186">
        <ele>835.584067</ele>
        <time>2021-08-16T18:33:40.381Z</time>
      </trkpt>
      <trkpt lat="41.86515" lon="43.42149">
        <ele>834.073956</ele>
        <time>2021-08-16T18:33:44.814Z</time>
      </trkpt>
      <trkpt lat="41.86499" lon="43.4214">
        <ele>832.413927</ele>
        <time>2021-08-16T18:33:47.501Z</time>
      </trkpt>
      <trkpt lat="41.86493" lon="43.42142">
        <ele>831.693318</ele>
        <time>2021-08-16T18:33:48.427Z</time>
      </trkpt>
      <trkpt lat="41.86501" lon="43.42109">
        <ele>828.920425</ele>
        <time>2021-08-16T18:33:52.386Z</time>
      </trkpt>
      <trkpt lat="41.86491" lon="43.42055">
        <ele>824.486872</ele>
        <time>2021-08-16T18:33:58.444Z</time>
      </trkpt>
      <trkpt lat="41.86431" lon="43.41971">
        <ele>815.161889</ele>
        <time>2021-08-16T18:34:10.988Z</time>
      </trkpt>
      <trkpt lat="41.86317" lon="43.41931">
        <ele>806.435101</ele>
        <time>2021-08-16T18:34:29.047Z</time>
      </trkpt>
      <trkpt lat="41.86278" lon="43.41922">
        <ele>803.497107</ele>
        <time>2021-08-16T18:34:35.632Z</time>
      </trkpt>
      <trkpt lat="41.86269" lon="43.41899">
        <ele>802.086842</ele>
        <time>2021-08-16T18:34:38.964Z</time>
      </trkpt>
      <trkpt lat="41.86249" lon="43.41822">
        <ele>798.846504</ele>
        <time>2021-08-16T18:34:49.277Z</time>
      </trkpt>
      <trkpt lat="41.8625" lon="43.41788">
        <ele>797.575556</ele>
        <time>2021-08-16T18:34:53.590Z</time>
      </trkpt>
      <trkpt lat="41.86268" lon="43.41718">
        <ele>794.808094</ele>
        <time>2021-08-16T18:35:02.630Z</time>
      </trkpt>
      <trkpt lat="41.86275" lon="43.41698">
        <ele>794.004836</ele>
        <time>2021-08-16T18:35:05.573Z</time>
      </trkpt>
      <trkpt lat="41.86248" lon="43.4163">
        <ele>791.113764</ele>
        <time>2021-08-16T18:35:14.995Z</time>
      </trkpt>
      <trkpt lat="41.8623" lon="43.41607">
        <ele>789.881224</ele>
        <time>2021-08-16T18:35:19.168Z</time>
      </trkpt>
      <trkpt lat="41.86222" lon="43.41595">
        <ele>789.254237</ele>
        <time>2021-08-16T18:35:21.037Z</time>
      </trkpt>
      <trkpt lat="41.86245" lon="43.41572">
        <ele>787.797029</ele>
        <time>2021-08-16T18:35:25.713Z</time>
      </trkpt>
      <trkpt lat="41.8625" lon="43.41567">
        <ele>787.502489</ele>
        <time>2021-08-16T18:35:26.591Z</time>
      </trkpt>
      <trkpt lat="41.86254" lon="43.41553">
        <ele>786.938508</ele>
        <time>2021-08-16T18:35:28.463Z</time>
      </trkpt>
      <trkpt lat="41.8625" lon="43.41548">
        <ele>786.658</ele>
        <time>2021-08-16T18:35:29.343Z</time>
      </trkpt>
      <trkpt lat="41.86146" lon="43.41382">
        <ele>782.181994</ele>
        <time>2021-08-16T18:35:57.895Z</time>
      </trkpt>
      <trkpt lat="41.86127" lon="43.41341">
        <ele>781.718213</ele>
        <time>2021-08-16T18:36:08.036Z</time>
      </trkpt>
      <trkpt lat="41.86122" lon="43.41346">
        <ele>781.639301</ele>
        <time>2021-08-16T18:36:09.823Z</time>
      </trkpt>
      <trkpt lat="41.86108" lon="43.4136">
        <ele>781.406698</ele>
        <time>2021-08-16T18:36:15.362Z</time>
      </trkpt>
      <trkpt lat="41.86076" lon="43.41387">
        <ele>781.293303</ele>
        <time>2021-08-16T18:36:26.461Z</time>
      </trkpt>
      <trkpt lat="41.86035" lon="43.41422">
        <ele>781.821793</ele>
        <time>2021-08-16T18:36:41.584Z</time>
      </trkpt>
      <trkpt lat="41.86017" lon="43.41442">
        <ele>782.082248</ele>
        <time>2021-08-16T18:36:49.706Z</time>
      </trkpt>
      <trkpt lat="41.86004" lon="43.41454">
        <ele>782.255009</ele>
        <time>2021-08-16T18:36:53.994Z</time>
      </trkpt>
      <trkpt lat="41.85964" lon="43.41495">
        <ele>782.806964</ele>
        <time>2021-08-16T18:37:07.314Z</time>
      </trkpt>
      <trkpt lat="41.85903" lon="43.41529">
        <ele>782.945476</ele>
        <time>2021-08-16T18:37:21.805Z</time>
      </trkpt>
      <trkpt lat="41.85879" lon="43.41537">
        <ele>782.848376</ele>
        <time>2021-08-16T18:37:26.752Z</time>
      </trkpt>
      <trkpt lat="41.85858" lon="43.41539">
        <ele>782.764594</ele>
        <time>2021-08-16T18:37:30.915Z</time>
      </trkpt>
      <trkpt lat="41.85797" lon="43.41527">
        <ele>782.518455</ele>
        <time>2021-08-16T18:37:43.463Z</time>
      </trkpt>
      <trkpt lat="41.85743" lon="43.41506">
        <ele>782.687912</ele>
        <time>2021-08-16T18:37:55.505Z</time>
      </trkpt>
      <trkpt lat="41.85709" lon="43.41465">
        <ele>783.271631</ele>
        <time>2021-08-16T18:38:07.491Z</time>
      </trkpt>
      <trkpt lat="41.85665" lon="43.41389">
        <ele>784.200049</ele>
        <time>2021-08-16T18:38:29.542Z</time>
      </trkpt>
      <trkpt lat="41.85651" lon="43.41379">
        <ele>784.403502</ele>
        <time>2021-08-16T18:38:34.869Z</time>
      </trkpt>
      <trkpt lat="41.85631" lon="43.41373">
        <ele>784.670143</ele>
        <time>2021-08-16T18:38:41.511Z</time>
      </trkpt>
      <trkpt lat="41.85607" lon="43.41366">
        <ele>785.268103</ele>
        <time>2021-08-16T18:38:49.897Z</time>
      </trkpt>
      <trkpt lat="41.85514" lon="43.41342">
        <ele>787.73488</ele>
        <time>2021-08-16T18:39:23.939Z</time>
      </trkpt>
      <trkpt lat="41.85435" lon="43.4133">
        <ele>789.562079</ele>
        <time>2021-08-16T18:39:53.031Z</time>
      </trkpt>
      <trkpt lat="41.85369" lon="43.41323">
        <ele>790.236554</ele>
        <time>2021-08-16T18:40:14.310Z</time>
      </trkpt>
      <trkpt lat="41.85349" lon="43.41322">
        <ele>790.431981</ele>
        <time>2021-08-16T18:40:19.632Z</time>
      </trkpt>
      <trkpt lat="41.85287" lon="43.41317">
        <ele>791.064178</ele>
        <time>2021-08-16T18:40:33.394Z</time>
      </trkpt>
      <trkpt lat="41.8523" lon="43.41313">
        <ele>790.829253</ele>
        <time>2021-08-16T18:40:44.959Z</time>
      </trkpt>
      <trkpt lat="41.85205" lon="43.41308">
        <ele>790.575891</ele>
        <time>2021-08-16T18:40:50.359Z</time>
      </trkpt>
      <trkpt lat="41.85196" lon="43.41305">
        <ele>790.485924</ele>
        <time>2021-08-16T18:40:51.952Z</time>
      </trkpt>
      <trkpt lat="41.85135" lon="43.41285">
        <ele>789.883112</ele>
        <time>2021-08-16T18:41:04.353Z</time>
      </trkpt>
      <trkpt lat="41.85038" lon="43.41279">
        <ele>789.042023</ele>
        <time>2021-08-16T18:41:23.107Z</time>
      </trkpt>
      <trkpt lat="41.85017" lon="43.4127">
        <ele>788.864106</ele>
        <time>2021-08-16T18:41:27.692Z</time>
      </trkpt>
      <trkpt lat="41.84997" lon="43.41256">
        <ele>788.68206</ele>
        <time>2021-08-16T18:41:32.575Z</time>
      </trkpt>
      <trkpt lat="41.84981" lon="43.41242">
        <ele>788.531474</ele>
        <time>2021-08-16T18:41:36.390Z</time>
      </trkpt>
      <trkpt lat="41.84962" lon="43.41217">
        <ele>788.317608</ele>
        <time>2021-08-16T18:41:41.955Z</time>
      </trkpt>
      <trkpt lat="41.84933" lon="43.41161">
        <ele>788.048202</ele>
        <time>2021-08-16T18:41:52.515Z</time>
      </trkpt>
      <trkpt lat="41.84891" lon="43.41038">
        <ele>788.011976</ele>
        <time>2021-08-16T18:42:14.023Z</time>
      </trkpt>
      <trkpt lat="41.84855" lon="43.40888">
        <ele>788.343469</ele>
        <time>2021-08-16T18:42:43.899Z</time>
      </trkpt>
      <trkpt lat="41.84819" lon="43.40713">
        <ele>789.231571</ele>
        <time>2021-08-16T18:43:18.490Z</time>
      </trkpt>
      <trkpt lat="41.84802" lon="43.40624">
        <ele>789.810003</ele>
        <time>2021-08-16T18:43:35.999Z</time>
      </trkpt>
      <trkpt lat="41.84789" lon="43.40563">
        <ele>790.207415</ele>
        <time>2021-08-16T18:43:47.214Z</time>
      </trkpt>
      <trkpt lat="41.84781" lon="43.40509">
        <ele>790.560205</ele>
        <time>2021-08-16T18:43:59.206Z</time>
      </trkpt>
      <trkpt lat="41.84779" lon="43.40485">
        <ele>790.749811</ele>
        <time>2021-08-16T18:44:04.154Z</time>
      </trkpt>
      <trkpt lat="41.84774" lon="43.40455">
        <ele>791.083925</ele>
        <time>2021-08-16T18:44:11.264Z</time>
      </trkpt>
      <trkpt lat="41.84763" lon="43.40414">
        <ele>791.568705</ele>
        <time>2021-08-16T18:44:22.467Z</time>
      </trkpt>
      <trkpt lat="41.84748" lon="43.40382">
        <ele>791.984069</ele>
        <time>2021-08-16T18:44:30.765Z</time>
      </trkpt>
      <trkpt lat="41.84744" lon="43.40373">
        <ele>792.089467</ele>
        <time>2021-08-16T18:44:34.009Z</time>
      </trkpt>
      <trkpt lat="41.84686" lon="43.40246">
        <ele>793.600444</ele>
        <time>2021-08-16T18:45:05.688Z</time>
      </trkpt>
      <trkpt lat="41.84653" lon="43.40144">
        <ele>794.435405</ele>
        <time>2021-08-16T18:45:23.382Z</time>
      </trkpt>
      <trkpt lat="41.84637" lon="43.40071">
        <ele>795.005442</ele>
        <time>2021-08-16T18:45:43.141Z</time>
      </trkpt>
      <trkpt lat="41.84634" lon="43.40045">
        <ele>795.175435</ele>
        <time>2021-08-16T18:45:50.060Z</time>
      </trkpt>
      <trkpt lat="41.84631" lon="43.40023">
        <ele>795.271945</ele>
        <time>2021-08-16T18:45:55.891Z</time>
      </trkpt>
      <trkpt lat="41.84628" lon="43.39993">
        <ele>795.401484</ele>
        <time>2021-08-16T18:46:02.165Z</time>
      </trkpt>
      <trkpt lat="41.84617" lon="43.39941">
        <ele>795.637103</ele>
        <time>2021-08-16T18:46:11.200Z</time>
      </trkpt>
      <trkpt lat="41.84594" lon="43.39858">
        <ele>796.019883</ele>
        <time>2021-08-16T18:46:25.230Z</time>
      </trkpt>
      <trkpt lat="41.84578" lon="43.39814">
        <ele>796.006598</ele>
        <time>2021-08-16T18:46:35.242Z</time>
      </trkpt>
      <trkpt lat="41.84575" lon="43.39804">
        <ele>795.858968</ele>
        <time>2021-08-16T18:46:37.277Z</time>
      </trkpt>
      <trkpt lat="41.8457" lon="43.39792">
        <ele>795.674537</ele>
        <time>2021-08-16T18:46:39.314Z</time>
      </trkpt>
      <trkpt lat="41.84542" lon="43.39728">
        <ele>794.649198</ele>
        <time>2021-08-16T18:46:51.499Z</time>
      </trkpt>
      <trkpt lat="41.84491" lon="43.3961">
        <ele>792.757389</ele>
        <time>2021-08-16T18:47:08.417Z</time>
      </trkpt>
      <trkpt lat="41.84447" lon="43.39501">
        <ele>790.681338</ele>
        <time>2021-08-16T18:47:25.459Z</time>
      </trkpt>
      <trkpt lat="41.84432" lon="43.39466">
        <ele>790.012485</ele>
        <time>2021-08-16T18:47:30.869Z</time>
      </trkpt>
      <trkpt lat="41.84411" lon="43.39413">
        <ele>788.999909</ele>
        <time>2021-08-16T18:47:39.077Z</time>
      </trkpt>
      <trkpt lat="41.84382" lon="43.39334">
        <ele>788.074879</ele>
        <time>2021-08-16T18:47:51.146Z</time>
      </trkpt>
      <trkpt lat="41.84378" lon="43.39325">
        <ele>787.969213</ele>
        <time>2021-08-16T18:47:52.682Z</time>
      </trkpt>
      <trkpt lat="41.84321" lon="43.39158">
        <ele>786.60169</ele>
        <time>2021-08-16T18:48:19.518Z</time>
      </trkpt>
      <trkpt lat="41.84307" lon="43.39091">
        <ele>786.884387</ele>
        <time>2021-08-16T18:48:32.983Z</time>
      </trkpt>
      <trkpt lat="41.84305" lon="43.39079">
        <ele>786.935755</ele>
        <time>2021-08-16T18:48:35.498Z</time>
      </trkpt>
      <trkpt lat="41.84299" lon="43.39052">
        <ele>787.052499</ele>
        <time>2021-08-16T18:48:41.186Z</time>
      </trkpt>
      <trkpt lat="41.84297" lon="43.3904">
        <ele>787.099794</ele>
        <time>2021-08-16T18:48:43.478Z</time>
      </trkpt>
      <trkpt lat="41.8427" lon="43.3891">
        <ele>787.963528</ele>
        <time>2021-08-16T18:49:11.226Z</time>
      </trkpt>
      <trkpt lat="41.84244" lon="43.38765">
        <ele>789.59003</ele>
        <time>2021-08-16T18:49:44.912Z</time>
      </trkpt>
      <trkpt lat="41.84243" lon="43.38746">
        <ele>789.793647</ele>
        <time>2021-08-16T18:49:49.456Z</time>
      </trkpt>
      <trkpt lat="41.84244" lon="43.38706">
        <ele>790.243877</ele>
        <time>2021-08-16T18:49:58.112Z</time>
      </trkpt>
      <trkpt lat="41.84245" lon="43.38695">
        <ele>790.388812</ele>
        <time>2021-08-16T18:50:01.099Z</time>
      </trkpt>
      <trkpt lat="41.84248" lon="43.38662">
        <ele>790.796167</ele>
        <time>2021-08-16T18:50:08.028Z</time>
      </trkpt>
      <trkpt lat="41.84262" lon="43.38593">
        <ele>791.677851</ele>
        <time>2021-08-16T18:50:25.113Z</time>
      </trkpt>
      <trkpt lat="41.84274" lon="43.3855">
        <ele>792.25081</ele>
        <time>2021-08-16T18:50:35.947Z</time>
      </trkpt>
      <trkpt lat="41.84278" lon="43.38532">
        <ele>792.478115</ele>
        <time>2021-08-16T18:50:40.220Z</time>
      </trkpt>
      <trkpt lat="41.84283" lon="43.38513">
        <ele>792.73214</ele>
        <time>2021-08-16T18:50:44.631Z</time>
      </trkpt>
      <trkpt lat="41.84294" lon="43.38471">
        <ele>793.151578</ele>
        <time>2021-08-16T18:50:54.220Z</time>
      </trkpt>
      <trkpt lat="41.84298" lon="43.38458">
        <ele>793.218744</ele>
        <time>2021-08-16T18:50:57.214Z</time>
      </trkpt>
      <trkpt lat="41.84305" lon="43.38446">
        <ele>793.288461</ele>
        <time>2021-08-16T18:51:00.669Z</time>
      </trkpt>
      <trkpt lat="41.84314" lon="43.38408">
        <ele>793.472221</ele>
        <time>2021-08-16T18:51:08.594Z</time>
      </trkpt>
      <trkpt lat="41.84314" lon="43.38374">
        <ele>793.631671</ele>
        <time>2021-08-16T18:51:15.540Z</time>
      </trkpt>
      <trkpt lat="41.84311" lon="43.38318">
        <ele>793.895358</ele>
        <time>2021-08-16T18:51:26.740Z</time>
      </trkpt>
      <trkpt lat="41.84302" lon="43.3827">
        <ele>794.123319</ele>
        <time>2021-08-16T18:51:35.001Z</time>
      </trkpt>
      <trkpt lat="41.84279" lon="43.38217">
        <ele>794.049751</ele>
        <time>2021-08-16T18:51:44.149Z</time>
      </trkpt>
      <trkpt lat="41.84255" lon="43.38172">
        <ele>793.87141</ele>
        <time>2021-08-16T18:51:52.278Z</time>
      </trkpt>
      <trkpt lat="41.84242" lon="43.3814">
        <ele>793.752007</ele>
        <time>2021-08-16T18:51:58.119Z</time>
      </trkpt>
      <trkpt lat="41.84238" lon="43.38133">
        <ele>793.724843</ele>
        <time>2021-08-16T18:51:59.320Z</time>
      </trkpt>
      <trkpt lat="41.84229" lon="43.38115">
        <ele>793.65356</ele>
        <time>2021-08-16T18:52:02.932Z</time>
      </trkpt>
      <trkpt lat="41.84216" lon="43.38089">
        <ele>793.551094</ele>
        <time>2021-08-16T18:52:07.810Z</time>
      </trkpt>
      <trkpt lat="41.84193" lon="43.38051">
        <ele>793.452131</ele>
        <time>2021-08-16T18:52:15.875Z</time>
      </trkpt>
      <trkpt lat="41.84161" lon="43.38004">
        <ele>793.841537</ele>
        <time>2021-08-16T18:52:26.625Z</time>
      </trkpt>
      <trkpt lat="41.84132" lon="43.37974">
        <ele>794.140604</ele>
        <time>2021-08-16T18:52:34.804Z</time>
      </trkpt>
      <trkpt lat="41.84083" lon="43.3793">
        <ele>794.624283</ele>
        <time>2021-08-16T18:52:51.254Z</time>
      </trkpt>
      <trkpt lat="41.84066" lon="43.37912">
        <ele>794.807318</ele>
        <time>2021-08-16T18:52:58.829Z</time>
      </trkpt>
      <trkpt lat="41.84052" lon="43.37902">
        <ele>795.021629</ele>
        <time>2021-08-16T18:53:03.683Z</time>
      </trkpt>
      <trkpt lat="41.84038" lon="43.37892">
        <ele>795.401789</ele>
        <time>2021-08-16T18:53:09.075Z</time>
      </trkpt>
      <trkpt lat="41.84033" lon="43.37888">
        <ele>795.535829</ele>
        <time>2021-08-16T18:53:10.810Z</time>
      </trkpt>
      <trkpt lat="41.84021" lon="43.3788">
        <ele>795.872636</ele>
        <time>2021-08-16T18:53:15.035Z</time>
      </trkpt>
      <trkpt lat="41.84005" lon="43.37875">
        <ele>796.273524</ele>
        <time>2021-08-16T18:53:20.763Z</time>
      </trkpt>
      <trkpt lat="41.83986" lon="43.37874">
        <ele>796.736926</ele>
        <time>2021-08-16T18:53:27.001Z</time>
      </trkpt>
      <trkpt lat="41.83976" lon="43.37874">
        <ele>796.985584</ele>
        <time>2021-08-16T18:53:31.118Z</time>
      </trkpt>
      <trkpt lat="41.83906" lon="43.37887">
        <ele>798.708991</ele>
        <time>2021-08-16T18:53:57.586Z</time>
      </trkpt>
      <trkpt lat="41.83887" lon="43.37887">
        <ele>799.152901</ele>
        <time>2021-08-16T18:54:04.503Z</time>
      </trkpt>
      <trkpt lat="41.83875" lon="43.37882">
        <ele>799.403728</ele>
        <time>2021-08-16T18:54:08.139Z</time>
      </trkpt>
      <trkpt lat="41.83869" lon="43.37879">
        <ele>799.495719</ele>
        <time>2021-08-16T18:54:10.323Z</time>
      </trkpt>
      <trkpt lat="41.83841" lon="43.37868">
        <ele>799.928907</ele>
        <time>2021-08-16T18:54:19.355Z</time>
      </trkpt>
      <trkpt lat="41.83827" lon="43.37859">
        <ele>800.16188</ele>
        <time>2021-08-16T18:54:24.544Z</time>
      </trkpt>
      <trkpt lat="41.83804" lon="43.37853">
        <ele>800.529259</ele>
        <time>2021-08-16T18:54:30.003Z</time>
      </trkpt>
      <trkpt lat="41.83795" lon="43.37852">
        <ele>800.654844</ele>
        <time>2021-08-16T18:54:33.001Z</time>
      </trkpt>
      <trkpt lat="41.83787" lon="43.37852">
        <ele>800.772895</ele>
        <time>2021-08-16T18:54:35.060Z</time>
      </trkpt>
      <trkpt lat="41.83784" lon="43.37851">
        <ele>800.825856</ele>
        <time>2021-08-16T18:54:35.788Z</time>
      </trkpt>
      <trkpt lat="41.8376" lon="43.37853">
        <ele>801.187401</ele>
        <time>2021-08-16T18:54:42.507Z</time>
      </trkpt>
      <trkpt lat="41.83746" lon="43.3786">
        <ele>801.412533</ele>
        <time>2021-08-16T18:54:47.726Z</time>
      </trkpt>
      <trkpt lat="41.83735" lon="43.37867">
        <ele>801.598017</ele>
        <time>2021-08-16T18:54:50.818Z</time>
      </trkpt>
      <trkpt lat="41.83731" lon="43.3787">
        <ele>801.672452</ele>
        <time>2021-08-16T18:54:51.912Z</time>
      </trkpt>
      <trkpt lat="41.83706" lon="43.37891">
        <ele>802.083133</ele>
        <time>2021-08-16T18:55:01.092Z</time>
      </trkpt>
      <trkpt lat="41.83699" lon="43.37896">
        <ele>802.175549</ele>
        <time>2021-08-16T18:55:02.877Z</time>
      </trkpt>
      <trkpt lat="41.83689" lon="43.37897">
        <ele>802.294408</ele>
        <time>2021-08-16T18:55:06.534Z</time>
      </trkpt>
      <trkpt lat="41.83675" lon="43.37895">
        <ele>802.469941</ele>
        <time>2021-08-16T18:55:10.313Z</time>
      </trkpt>
      <trkpt lat="41.83659" lon="43.3788">
        <ele>802.692111</ele>
        <time>2021-08-16T18:55:14.849Z</time>
      </trkpt>
      <trkpt lat="41.83653" lon="43.3787">
        <ele>802.806708</ele>
        <time>2021-08-16T18:55:17.669Z</time>
      </trkpt>
      <trkpt lat="41.83657" lon="43.37838">
        <ele>803.089231</ele>
        <time>2021-08-16T18:55:22.616Z</time>
      </trkpt>
      <trkpt lat="41.83659" lon="43.37823">
        <ele>803.227982</ele>
        <time>2021-08-16T18:55:26.341Z</time>
      </trkpt>
      <trkpt lat="41.8367" lon="43.37743">
        <ele>803.94208</ele>
        <time>2021-08-16T18:55:43.123Z</time>
      </trkpt>
      <trkpt lat="41.83659" lon="43.37545">
        <ele>806.424459</ele>
        <time>2021-08-16T18:56:33.007Z</time>
      </trkpt>
      <trkpt lat="41.83664" lon="43.37521">
        <ele>806.743264</ele>
        <time>2021-08-16T18:56:38.337Z</time>
      </trkpt>
      <trkpt lat="41.83686" lon="43.37468">
        <ele>807.255303</ele>
        <time>2021-08-16T18:56:50.645Z</time>
      </trkpt>
      <trkpt lat="41.83718" lon="43.37335">
        <ele>807.370472</ele>
        <time>2021-08-16T18:57:13.745Z</time>
      </trkpt>
      <trkpt lat="41.83721" lon="43.37301">
        <ele>807.398421</ele>
        <time>2021-08-16T18:57:18.944Z</time>
      </trkpt>
      <trkpt lat="41.83715" lon="43.37241">
        <ele>807.459868</ele>
        <time>2021-08-16T18:57:28.821Z</time>
      </trkpt>
      <trkpt lat="41.83701" lon="43.37188">
        <ele>807.544988</ele>
        <time>2021-08-16T18:57:37.939Z</time>
      </trkpt>
      <trkpt lat="41.83681" lon="43.37158">
        <ele>807.606631</ele>
        <time>2021-08-16T18:57:44.528Z</time>
      </trkpt>
      <trkpt lat="41.83677" lon="43.37153">
        <ele>807.617942</ele>
        <time>2021-08-16T18:57:45.840Z</time>
      </trkpt>
      <trkpt lat="41.83663" lon="43.37133">
        <ele>807.658819</ele>
        <time>2021-08-16T18:57:50.158Z</time>
      </trkpt>
      <trkpt lat="41.8365" lon="43.37117">
        <ele>807.694905</ele>
        <time>2021-08-16T18:57:54.496Z</time>
      </trkpt>
      <trkpt lat="41.83613" lon="43.37071">
        <ele>807.797265</ele>
        <time>2021-08-16T18:58:07.326Z</time>
      </trkpt>
      <trkpt lat="41.83552" lon="43.36981">
        <ele>808.834922</ele>
        <time>2021-08-16T18:58:33.202Z</time>
      </trkpt>
      <trkpt lat="41.83534" lon="43.36955">
        <ele>809.150577</ele>
        <time>2021-08-16T18:58:40.730Z</time>
      </trkpt>
      <trkpt lat="41.8352" lon="43.36938">
        <ele>809.359714</ele>
        <time>2021-08-16T18:58:45.795Z</time>
      </trkpt>
      <trkpt lat="41.8349" lon="43.3691">
        <ele>809.798896</ele>
        <time>2021-08-16T18:58:55.979Z</time>
      </trkpt>
      <trkpt lat="41.83459" lon="43.36895">
        <ele>810.284125</ele>
        <time>2021-08-16T18:59:05.385Z</time>
      </trkpt>
      <trkpt lat="41.83423" lon="43.36891">
        <ele>810.868589</ele>
        <time>2021-08-16T18:59:16.460Z</time>
      </trkpt>
      <trkpt lat="41.83411" lon="43.3689">
        <ele>811.073909</ele>
        <time>2021-08-16T18:59:20.406Z</time>
      </trkpt>
      <trkpt lat="41.83364" lon="43.3687">
        <ele>811.864019</ele>
        <time>2021-08-16T18:59:35.400Z</time>
      </trkpt>
      <trkpt lat="41.83342" lon="43.36842">
        <ele>812.356824</ele>
        <time>2021-08-16T18:59:44.572Z</time>
      </trkpt>
      <trkpt lat="41.83324" lon="43.36821">
        <ele>812.743801</ele>
        <time>2021-08-16T18:59:51.989Z</time>
      </trkpt>
      <trkpt lat="41.83294" lon="43.36785">
        <ele>813.519245</ele>
        <time>2021-08-16T19:00:04.468Z</time>
      </trkpt>
      <trkpt lat="41.83289" lon="43.3678">
        <ele>813.643154</ele>
        <time>2021-08-16T19:00:06.407Z</time>
      </trkpt>
      <trkpt lat="41.83115" lon="43.366">
        <ele>818.582065</ele>
        <time>2021-08-16T19:01:18.174Z</time>
      </trkpt>
      <trkpt lat="41.83102" lon="43.36573">
        <ele>819.213617</ele>
        <time>2021-08-16T19:01:26.361Z</time>
      </trkpt>
      <trkpt lat="41.83073" lon="43.36469">
        <ele>821.522638</ele>
        <time>2021-08-16T19:01:57.253Z</time>
      </trkpt>
      <trkpt lat="41.83002" lon="43.36321">
        <ele>826.889185</ele>
        <time>2021-08-16T19:02:55.147Z</time>
      </trkpt>
      <trkpt lat="41.82982" lon="43.36286">
        <ele>828.213127</ele>
        <time>2021-08-16T19:03:09.507Z</time>
      </trkpt>
      <trkpt lat="41.82956" lon="43.36258">
        <ele>829.118828</ele>
        <time>2021-08-16T19:03:23.916Z</time>
      </trkpt>
      <trkpt lat="41.8293" lon="43.36239">
        <ele>829.789341</ele>
        <time>2021-08-16T19:03:36.508Z</time>
      </trkpt>
      <trkpt lat="41.82854" lon="43.36187">
        <ele>831.72834</ele>
        <time>2021-08-16T19:04:05.544Z</time>
      </trkpt>
      <trkpt lat="41.82803" lon="43.36148">
        <ele>832.224274</ele>
        <time>2021-08-16T19:04:19.277Z</time>
      </trkpt>
      <trkpt lat="41.82778" lon="43.36125">
        <ele>831.566704</ele>
        <time>2021-08-16T19:04:25.299Z</time>
      </trkpt>
      <trkpt lat="41.82744" lon="43.36087">
        <ele>830.60601</ele>
        <time>2021-08-16T19:04:33.598Z</time>
      </trkpt>
      <trkpt lat="41.82738" lon="43.3607">
        <ele>830.294839</ele>
        <time>2021-08-16T19:04:36.115Z</time>
      </trkpt>
      <trkpt lat="41.82739" lon="43.36048">
        <ele>829.936479</ele>
        <time>2021-08-16T19:04:39.030Z</time>
      </trkpt>
      <trkpt lat="41.82756" lon="43.36002">
        <ele>829.098146</ele>
        <time>2021-08-16T19:04:45.547Z</time>
      </trkpt>
      <trkpt lat="41.82844" lon="43.35847">
        <ele>822.480613</ele>
        <time>2021-08-16T19:05:08.610Z</time>
      </trkpt>
      <trkpt lat="41.82855" lon="43.35817">
        <ele>821.238076</ele>
        <time>2021-08-16T19:05:12.676Z</time>
      </trkpt>
      <trkpt lat="41.82867" lon="43.35725">
        <ele>817.951761</ele>
        <time>2021-08-16T19:05:23.573Z</time>
      </trkpt>
      <trkpt lat="41.82867" lon="43.3571">
        <ele>817.435108</ele>
        <time>2021-08-16T19:05:25.213Z</time>
      </trkpt>
      <trkpt lat="41.82858" lon="43.35593">
        <ele>813.373626</ele>
        <time>2021-08-16T19:05:39.433Z</time>
      </trkpt>
      <trkpt lat="41.82851" lon="43.35452">
        <ele>810.360294</ele>
        <time>2021-08-16T19:05:57.289Z</time>
      </trkpt>
      <trkpt lat="41.82847" lon="43.35384">
        <ele>809.42915</ele>
        <time>2021-08-16T19:06:06.918Z</time>
      </trkpt>
      <trkpt lat="41.8284" lon="43.35308">
        <ele>808.37007</ele>
        <time>2021-08-16T19:06:18.881Z</time>
      </trkpt>
      <trkpt lat="41.82836" lon="43.35257">
        <ele>808.281057</ele>
        <time>2021-08-16T19:06:27.490Z</time>
      </trkpt>
      <trkpt lat="41.82831" lon="43.35204">
        <ele>808.293233</ele>
        <time>2021-08-16T19:06:37.213Z</time>
      </trkpt>
      <trkpt lat="41.82822" lon="43.35143">
        <ele>808.30766</ele>
        <time>2021-08-16T19:06:48.556Z</time>
      </trkpt>
      <trkpt lat="41.82812" lon="43.35104">
        <ele>808.317108</ele>
        <time>2021-08-16T19:06:55.336Z</time>
      </trkpt>
      <trkpt lat="41.82779" lon="43.35024">
        <ele>808.204632</ele>
        <time>2021-08-16T19:07:09.758Z</time>
      </trkpt>
      <trkpt lat="41.82753" lon="43.34983">
        <ele>808.07656</ele>
        <time>2021-08-16T19:07:18.437Z</time>
      </trkpt>
      <trkpt lat="41.82722" lon="43.3494">
        <ele>807.931634</ele>
        <time>2021-08-16T19:07:27.846Z</time>
      </trkpt>
      <trkpt lat="41.82707" lon="43.34922">
        <ele>807.866227</ele>
        <time>2021-08-16T19:07:32.005Z</time>
      </trkpt>
      <trkpt lat="41.82684" lon="43.34897">
        <ele>807.771957</ele>
        <time>2021-08-16T19:07:38.342Z</time>
      </trkpt>
      <trkpt lat="41.82657" lon="43.34878">
        <ele>807.883631</ele>
        <time>2021-08-16T19:07:44.974Z</time>
      </trkpt>
      <trkpt lat="41.82594" lon="43.34842">
        <ele>808.29483</ele>
        <time>2021-08-16T19:08:00.671Z</time>
      </trkpt>
      <trkpt lat="41.82545" lon="43.34813">
        <ele>808.612352</ele>
        <time>2021-08-16T19:08:15.845Z</time>
      </trkpt>
      <trkpt lat="41.82515" lon="43.34802">
        <ele>808.802459</ele>
        <time>2021-08-16T19:08:25.040Z</time>
      </trkpt>
      <trkpt lat="41.8247" lon="43.34808">
        <ele>809.159866</ele>
        <time>2021-08-16T19:08:37.776Z</time>
      </trkpt>
      <trkpt lat="41.82401" lon="43.34846">
        <ele>809.754525</ele>
        <time>2021-08-16T19:08:57.189Z</time>
      </trkpt>
      <trkpt lat="41.82391" lon="43.34851">
        <ele>809.842489</ele>
        <time>2021-08-16T19:08:59.894Z</time>
      </trkpt>
      <trkpt lat="41.82363" lon="43.34868">
        <ele>810.090652</ele>
        <time>2021-08-16T19:09:07.491Z</time>
      </trkpt>
      <trkpt lat="41.82301" lon="43.34908">
        <ele>810.466527</ele>
        <time>2021-08-16T19:09:24.504Z</time>
      </trkpt>
      <trkpt lat="41.82196" lon="43.34971">
        <ele>810.935185</ele>
        <time>2021-08-16T19:09:52.032Z</time>
      </trkpt>
      <trkpt lat="41.82161" lon="43.35">
        <ele>811.082359</ele>
        <time>2021-08-16T19:10:02.320Z</time>
      </trkpt>
      <trkpt lat="41.82079" lon="43.35082">
        <ele>811.413595</ele>
        <time>2021-08-16T19:10:27.638Z</time>
      </trkpt>
      <trkpt lat="41.82019" lon="43.35139">
        <ele>811.568588</ele>
        <time>2021-08-16T19:10:43.938Z</time>
      </trkpt>
      <trkpt lat="41.81952" lon="43.35201">
        <ele>811.467186</ele>
        <time>2021-08-16T19:11:01.514Z</time>
      </trkpt>
      <trkpt lat="41.81919" lon="43.35217">
        <ele>811.424225</ele>
        <time>2021-08-16T19:11:08.977Z</time>
      </trkpt>
      <trkpt lat="41.81871" lon="43.35223">
        <ele>811.388726</ele>
        <time>2021-08-16T19:11:19.227Z</time>
      </trkpt>
      <trkpt lat="41.81741" lon="43.35213">
        <ele>812.454289</ele>
        <time>2021-08-16T19:11:51.853Z</time>
      </trkpt>
      <trkpt lat="41.81712" lon="43.35196">
        <ele>812.70944</ele>
        <time>2021-08-16T19:12:01.120Z</time>
      </trkpt>
      <trkpt lat="41.81651" lon="43.35128">
        <ele>814.185976</ele>
        <time>2021-08-16T19:12:26.845Z</time>
      </trkpt>
      <trkpt lat="41.81623" lon="43.35084">
        <ele>815.10117</ele>
        <time>2021-08-16T19:12:41.739Z</time>
      </trkpt>
      <trkpt lat="41.81588" lon="43.35011">
        <ele>816.458944</ele>
        <time>2021-08-16T19:13:03.738Z</time>
      </trkpt>
      <trkpt lat="41.81553" lon="43.34933">
        <ele>817.443042</ele>
        <time>2021-08-16T19:13:25.586Z</time>
      </trkpt>
      <trkpt lat="41.81511" lon="43.34764">
        <ele>819.231193</ele>
        <time>2021-08-16T19:14:02.286Z</time>
      </trkpt>
      <trkpt lat="41.81483" lon="43.34696">
        <ele>819.892646</ele>
        <time>2021-08-16T19:14:16.419Z</time>
      </trkpt>
      <trkpt lat="41.81411" lon="43.34542">
        <ele>821.659283</ele>
        <time>2021-08-16T19:14:55.771Z</time>
      </trkpt>
      <trkpt lat="41.81399" lon="43.34507">
        <ele>822.215512</ele>
        <time>2021-08-16T19:15:05.216Z</time>
      </trkpt>
      <trkpt lat="41.81394" lon="43.34433">
        <ele>823.287672</ele>
        <time>2021-08-16T19:15:24.205Z</time>
      </trkpt>
      <trkpt lat="41.81439" lon="43.34119">
        <ele>827.460215</ele>
        <time>2021-08-16T19:16:40.234Z</time>
      </trkpt>
      <trkpt lat="41.81432" lon="43.34043">
        <ele>827.494827</ele>
        <time>2021-08-16T19:16:53.947Z</time>
      </trkpt>
      <trkpt lat="41.81417" lon="43.34008">
        <ele>827.396912</ele>
        <time>2021-08-16T19:17:00.508Z</time>
      </trkpt>
      <trkpt lat="41.814" lon="43.3398">
        <ele>827.308114</ele>
        <time>2021-08-16T19:17:06.229Z</time>
      </trkpt>
      <trkpt lat="41.81353" lon="43.33925">
        <ele>827.105944</ele>
        <time>2021-08-16T19:17:18.493Z</time>
      </trkpt>
      <trkpt lat="41.8127" lon="43.33844">
        <ele>825.807433</ele>
        <time>2021-08-16T19:17:38.285Z</time>
      </trkpt>
      <trkpt lat="41.81107" lon="43.33698">
        <ele>823.165225</ele>
        <time>2021-08-16T19:18:15.606Z</time>
      </trkpt>
      <trkpt lat="41.81074" lon="43.33675">
        <ele>822.694122</ele>
        <time>2021-08-16T19:18:22.904Z</time>
      </trkpt>
      <trkpt lat="41.81058" lon="43.33656">
        <ele>822.429967</ele>
        <time>2021-08-16T19:18:27.058Z</time>
      </trkpt>
      <trkpt lat="41.81048" lon="43.33633">
        <ele>822.201328</ele>
        <time>2021-08-16T19:18:31.050Z</time>
      </trkpt>
      <trkpt lat="41.81027" lon="43.33532">
        <ele>821.951663</ele>
        <time>2021-08-16T19:18:47.244Z</time>
      </trkpt>
      <trkpt lat="41.81012" lon="43.33497">
        <ele>821.854425</ele>
        <time>2021-08-16T19:18:53.828Z</time>
      </trkpt>
      <trkpt lat="41.80965" lon="43.33402">
        <ele>821.775003</ele>
        <time>2021-08-16T19:19:12.936Z</time>
      </trkpt>
      <trkpt lat="41.80939" lon="43.33319">
        <ele>822.333432</ele>
        <time>2021-08-16T19:19:29.687Z</time>
      </trkpt>
      <trkpt lat="41.80892" lon="43.33193">
        <ele>823.240369</ele>
        <time>2021-08-16T19:19:59.234Z</time>
      </trkpt>
      <trkpt lat="41.80824" lon="43.33078">
        <ele>824.651315</ele>
        <time>2021-08-16T19:20:31.684Z</time>
      </trkpt>
      <trkpt lat="41.80789" lon="43.32966">
        <ele>825.676957</ele>
        <time>2021-08-16T19:20:56.922Z</time>
      </trkpt>
      <trkpt lat="41.80726" lon="43.32872">
        <ele>826.469242</ele>
        <time>2021-08-16T19:21:21.594Z</time>
      </trkpt>
      <trkpt lat="41.80718" lon="43.32853">
        <ele>826.606171</ele>
        <time>2021-08-16T19:21:25.690Z</time>
      </trkpt>
      <trkpt lat="41.80722" lon="43.32723">
        <ele>827.388207</ele>
        <time>2021-08-16T19:21:51.004Z</time>
      </trkpt>
      <trkpt lat="41.80717" lon="43.32677">
        <ele>827.663882</ele>
        <time>2021-08-16T19:22:00.292Z</time>
      </trkpt>
      <trkpt lat="41.80708" lon="43.3263">
        <ele>827.946005</ele>
        <time>2021-08-16T19:22:09.762Z</time>
      </trkpt>
      <trkpt lat="41.80672" lon="43.32536">
        <ele>828.47213</ele>
        <time>2021-08-16T19:22:30.203Z</time>
      </trkpt>
      <trkpt lat="41.80642" lon="43.32488">
        <ele>828.676703</ele>
        <time>2021-08-16T19:22:42.195Z</time>
      </trkpt>
      <trkpt lat="41.8056" lon="43.32399">
        <ele>829.130514</ele>
        <time>2021-08-16T19:23:07.543Z</time>
      </trkpt>
      <trkpt lat="41.8039" lon="43.32181">
        <ele>829.711144</ele>
        <time>2021-08-16T19:24:00.876Z</time>
      </trkpt>
      <trkpt lat="41.80273" lon="43.31947">
        <ele>831.068816</ele>
        <time>2021-08-16T19:24:56.506Z</time>
      </trkpt>
      <trkpt lat="41.80238" lon="43.31893">
        <ele>831.444893</ele>
        <time>2021-08-16T19:25:10.804Z</time>
      </trkpt>
      <trkpt lat="41.80232" lon="43.31885">
        <ele>831.504474</ele>
        <time>2021-08-16T19:25:12.810Z</time>
      </trkpt>
      <trkpt lat="41.80219" lon="43.31866">
        <ele>831.643159</ele>
        <time>2021-08-16T19:25:17.731Z</time>
      </trkpt>
      <trkpt lat="41.80195" lon="43.31834">
        <ele>831.702123</ele>
        <time>2021-08-16T19:25:25.856Z</time>
      </trkpt>
      <trkpt lat="41.80034" lon="43.31551">
        <ele>831.342033</ele>
        <time>2021-08-16T19:26:21.996Z</time>
      </trkpt>
      <trkpt lat="41.7995" lon="43.31441">
        <ele>831.919151</ele>
        <time>2021-08-16T19:26:51.162Z</time>
      </trkpt>
      <trkpt lat="41.79913" lon="43.31384">
        <ele>832.679877</ele>
        <time>2021-08-16T19:27:07.763Z</time>
      </trkpt>
      <trkpt lat="41.79898" lon="43.31351">
        <ele>833.073258</ele>
        <time>2021-08-16T19:27:16.927Z</time>
      </trkpt>
      <trkpt lat="41.79838" lon="43.31155">
        <ele>834.89914</ele>
        <time>2021-08-16T19:28:06.143Z</time>
      </trkpt>
      <trkpt lat="41.79818" lon="43.31077">
        <ele>835.543683</ele>
        <time>2021-08-16T19:28:21.651Z</time>
      </trkpt>
      <trkpt lat="41.79769" lon="43.30768">
        <ele>834.704824</ele>
        <time>2021-08-16T19:29:10.083Z</time>
      </trkpt>
      <trkpt lat="41.79753" lon="43.30719">
        <ele>834.695155</ele>
        <time>2021-08-16T19:29:18.601Z</time>
      </trkpt>
      <trkpt lat="41.79676" lon="43.30536">
        <ele>834.722284</ele>
        <time>2021-08-16T19:29:56.234Z</time>
      </trkpt>
      <trkpt lat="41.79652" lon="43.3049">
        <ele>834.758669</ele>
        <time>2021-08-16T19:30:06.284Z</time>
      </trkpt>
      <trkpt lat="41.79617" lon="43.30452">
        <ele>834.798182</ele>
        <time>2021-08-16T19:30:16.339Z</time>
      </trkpt>
      <trkpt lat="41.79415" lon="43.30257">
        <ele>834.174664</ele>
        <time>2021-08-16T19:31:08.938Z</time>
      </trkpt>
      <trkpt lat="41.79387" lon="43.30232">
        <ele>834.195268</ele>
        <time>2021-08-16T19:31:16.245Z</time>
      </trkpt>
      <trkpt lat="41.79367" lon="43.30219">
        <ele>834.209095</ele>
        <time>2021-08-16T19:31:21.192Z</time>
      </trkpt>
      <trkpt lat="41.79337" lon="43.30212">
        <ele>834.227452</ele>
        <time>2021-08-16T19:31:27.871Z</time>
      </trkpt>
      <trkpt lat="41.79221" lon="43.30257">
        <ele>834.825892</ele>
        <time>2021-08-16T19:31:58.645Z</time>
      </trkpt>
      <trkpt lat="41.79182" lon="43.30266">
        <ele>835.176117</ele>
        <time>2021-08-16T19:32:09.084Z</time>
      </trkpt>
      <trkpt lat="41.79154" lon="43.30272">
        <ele>835.433711</ele>
        <time>2021-08-16T19:32:17.057Z</time>
      </trkpt>
      <trkpt lat="41.79088" lon="43.30277">
        <ele>836.067905</ele>
        <time>2021-08-16T19:32:35.391Z</time>
      </trkpt>
      <trkpt lat="41.79028" lon="43.3027">
        <ele>836.776423</ele>
        <time>2021-08-16T19:32:52.028Z</time>
      </trkpt>
      <trkpt lat="41.78988" lon="43.30258">
        <ele>837.258707</ele>
        <time>2021-08-16T19:33:03.233Z</time>
      </trkpt>
      <trkpt lat="41.78939" lon="43.30232">
        <ele>837.884714</ele>
        <time>2021-08-16T19:33:17.842Z</time>
      </trkpt>
      <trkpt lat="41.78887" lon="43.30187">
        <ele>838.955885</ele>
        <time>2021-08-16T19:33:37.212Z</time>
      </trkpt>
      <trkpt lat="41.78877" lon="43.30174">
        <ele>839.212121</ele>
        <time>2021-08-16T19:33:41.381Z</time>
      </trkpt>
      <trkpt lat="41.78869" lon="43.30159">
        <ele>839.458647</ele>
        <time>2021-08-16T19:33:46.156Z</time>
      </trkpt>
      <trkpt lat="41.78861" lon="43.30135">
        <ele>839.828579</ele>
        <time>2021-08-16T19:33:52.003Z</time>
      </trkpt>
      <trkpt lat="41.78853" lon="43.30105">
        <ele>840.264537</ele>
        <time>2021-08-16T19:33:59.727Z</time>
      </trkpt>
      <trkpt lat="41.78847" lon="43.3007">
        <ele>840.753152</ele>
        <time>2021-08-16T19:34:08.426Z</time>
      </trkpt>
      <trkpt lat="41.7885" lon="43.29964">
        <ele>842.049254</ele>
        <time>2021-08-16T19:34:34.167Z</time>
      </trkpt>
      <trkpt lat="41.78846" lon="43.29914">
        <ele>842.617136</ele>
        <time>2021-08-16T19:34:46.097Z</time>
      </trkpt>
      <trkpt lat="41.78821" lon="43.298">
        <ele>843.947558</ele>
        <time>2021-08-16T19:35:11.001Z</time>
      </trkpt>
      <trkpt lat="41.78808" lon="43.29764">
        <ele>844.242257</ele>
        <time>2021-08-16T19:35:18.738Z</time>
      </trkpt>
      <trkpt lat="41.78795" lon="43.29744">
        <ele>844.420024</ele>
        <time>2021-08-16T19:35:23.775Z</time>
      </trkpt>
      <trkpt lat="41.78732" lon="43.29675">
        <ele>845.156481</ele>
        <time>2021-08-16T19:35:45.100Z</time>
      </trkpt>
      <trkpt lat="41.7868" lon="43.29636">
        <ele>845.73495</ele>
        <time>2021-08-16T19:36:01.199Z</time>
      </trkpt>
      <trkpt lat="41.78581" lon="43.29588">
        <ele>847.193776</ele>
        <time>2021-08-16T19:36:31.284Z</time>
      </trkpt>
      <trkpt lat="41.78487" lon="43.29529">
        <ele>848.829479</ele>
        <time>2021-08-16T19:37:03.030Z</time>
      </trkpt>
      <trkpt lat="41.78379" lon="43.29434">
        <ele>851.310154</ele>
        <time>2021-08-16T19:37:44.022Z</time>
      </trkpt>
      <trkpt lat="41.78301" lon="43.29394">
        <ele>853.208694</ele>
        <time>2021-08-16T19:38:12.307Z</time>
      </trkpt>
      <trkpt lat="41.78266" lon="43.29385">
        <ele>854.050221</ele>
        <time>2021-08-16T19:38:24.688Z</time>
      </trkpt>
      <trkpt lat="41.782" lon="43.29388">
        <ele>855.604574</ele>
        <time>2021-08-16T19:38:47.615Z</time>
      </trkpt>
      <trkpt lat="41.78127" lon="43.29402">
        <ele>857.106665</ele>
        <time>2021-08-16T19:39:12.394Z</time>
      </trkpt>
      <trkpt lat="41.78057" lon="43.29417">
        <ele>858.501831</ele>
        <time>2021-08-16T19:39:35.042Z</time>
      </trkpt>
      <trkpt lat="41.78035" lon="43.29429">
        <ele>858.968546</ele>
        <time>2021-08-16T19:39:42.138Z</time>
      </trkpt>
      <trkpt lat="41.77971" lon="43.29517">
        <ele>860.749491</ele>
        <time>2021-08-16T19:40:09.752Z</time>
      </trkpt>
      <trkpt lat="41.77944" lon="43.29538">
        <ele>861.357422</ele>
        <time>2021-08-16T19:40:19.290Z</time>
      </trkpt>
      <trkpt lat="41.77907" lon="43.29533">
        <ele>862.076129</ele>
        <time>2021-08-16T19:40:31.017Z</time>
      </trkpt>
      <trkpt lat="41.77893" lon="43.29508">
        <ele>862.534477</ele>
        <time>2021-08-16T19:40:38.991Z</time>
      </trkpt>
      <trkpt lat="41.77893" lon="43.29488">
        <ele>862.826037</ele>
        <time>2021-08-16T19:40:44.157Z</time>
      </trkpt>
      <trkpt lat="41.77929" lon="43.29395">
        <ele>864.757174</ele>
        <time>2021-08-16T19:41:12.213Z</time>
      </trkpt>
      <trkpt lat="41.77958" lon="43.29287">
        <ele>866.916761</ele>
        <time>2021-08-16T19:41:42.817Z</time>
      </trkpt>
      <trkpt lat="41.77958" lon="43.29206">
        <ele>867.911522</ele>
        <time>2021-08-16T19:42:02.768Z</time>
      </trkpt>
      <trkpt lat="41.77944" lon="43.29119">
        <ele>868.736999</ele>
        <time>2021-08-16T19:42:22.427Z</time>
      </trkpt>
      <trkpt lat="41.77912" lon="43.29049">
        <ele>869.497346</ele>
        <time>2021-08-16T19:42:37.713Z</time>
      </trkpt>
      <trkpt lat="41.77854" lon="43.28954">
        <ele>869.929274</ele>
        <time>2021-08-16T19:42:58.884Z</time>
      </trkpt>
      <trkpt lat="41.77828" lon="43.28899">
        <ele>870.101332</ele>
        <time>2021-08-16T19:43:10.095Z</time>
      </trkpt>
      <trkpt lat="41.77807" lon="43.28843">
        <ele>870.272174</ele>
        <time>2021-08-16T19:43:21.901Z</time>
      </trkpt>
      <trkpt lat="41.77771" lon="43.2872">
        <ele>870.783888</ele>
        <time>2021-08-16T19:43:47.834Z</time>
      </trkpt>
      <trkpt lat="41.77758" lon="43.28697">
        <ele>870.893654</ele>
        <time>2021-08-16T19:43:53.325Z</time>
      </trkpt>
      <trkpt lat="41.77737" lon="43.28683">
        <ele>871.016271</ele>
        <time>2021-08-16T19:43:59.257Z</time>
      </trkpt>
      <trkpt lat="41.77638" lon="43.28695">
        <ele>870.697507</ele>
        <time>2021-08-16T19:44:21.613Z</time>
      </trkpt>
      <trkpt lat="41.77538" lon="43.28693">
        <ele>869.796883</ele>
        <time>2021-08-16T19:44:41.064Z</time>
      </trkpt>
      <trkpt lat="41.77506" lon="43.2868">
        <ele>869.387296</ele>
        <time>2021-08-16T19:44:47.319Z</time>
      </trkpt>
      <trkpt lat="41.7748" lon="43.28661">
        <ele>868.890532</ele>
        <time>2021-08-16T19:44:52.518Z</time>
      </trkpt>
      <trkpt lat="41.77436" lon="43.28607">
        <ele>867.853343</ele>
        <time>2021-08-16T19:45:03.207Z</time>
      </trkpt>
      <trkpt lat="41.7742" lon="43.28564">
        <ele>867.230553</ele>
        <time>2021-08-16T19:45:09.878Z</time>
      </trkpt>
      <trkpt lat="41.77419" lon="43.2853">
        <ele>866.798012</ele>
        <time>2021-08-16T19:45:14.810Z</time>
      </trkpt>
      <trkpt lat="41.77429" lon="43.28454">
        <ele>866.619987</ele>
        <time>2021-08-16T19:45:26.799Z</time>
      </trkpt>
      <trkpt lat="41.77441" lon="43.28415">
        <ele>866.712569</ele>
        <time>2021-08-16T19:45:33.877Z</time>
      </trkpt>
      <trkpt lat="41.77467" lon="43.28356">
        <ele>866.865403</ele>
        <time>2021-08-16T19:45:47.243Z</time>
      </trkpt>
      <trkpt lat="41.77495" lon="43.28295">
        <ele>867.023267</ele>
        <time>2021-08-16T19:46:01.526Z</time>
      </trkpt>
      <trkpt lat="41.77545" lon="43.2823">
        <ele>866.640748</ele>
        <time>2021-08-16T19:46:20.628Z</time>
      </trkpt>
      <trkpt lat="41.77581" lon="43.28165">
        <ele>866.278375</ele>
        <time>2021-08-16T19:46:33.635Z</time>
      </trkpt>
      <trkpt lat="41.77612" lon="43.28085">
        <ele>865.68378</ele>
        <time>2021-08-16T19:46:45.595Z</time>
      </trkpt>
      <trkpt lat="41.77623" lon="43.28037">
        <ele>864.933015</ele>
        <time>2021-08-16T19:46:51.858Z</time>
      </trkpt>
      <trkpt lat="41.77627" lon="43.27984">
        <ele>864.122717</ele>
        <time>2021-08-16T19:46:58.811Z</time>
      </trkpt>
      <trkpt lat="41.77623" lon="43.2786">
        <ele>862.468396</ele>
        <time>2021-08-16T19:47:15.962Z</time>
      </trkpt>
      <trkpt lat="41.77619" lon="43.27749">
        <ele>865.417427</ele>
        <time>2021-08-16T19:47:40.954Z</time>
      </trkpt>
      <trkpt lat="41.77616" lon="43.27678">
        <ele>867.325413</ele>
        <time>2021-08-16T19:48:05.018Z</time>
      </trkpt>
      <trkpt lat="41.77624" lon="43.27646">
        <ele>868.234176</ele>
        <time>2021-08-16T19:48:20.321Z</time>
      </trkpt>
      <trkpt lat="41.77638" lon="43.27622">
        <ele>869.394837</ele>
        <time>2021-08-16T19:48:32.850Z</time>
      </trkpt>
      <trkpt lat="41.77641" lon="43.27617">
        <ele>869.810602</ele>
        <time>2021-08-16T19:48:37.844Z</time>
      </trkpt>
      <trkpt lat="41.77901" lon="43.27235">
        <ele>899.475632</ele>
        <time>2021-08-16T19:52:46.385Z</time>
      </trkpt>
      <trkpt lat="41.77925" lon="43.27189">
        <ele>900.635977</ele>
        <time>2021-08-16T19:53:03.715Z</time>
      </trkpt>
      <trkpt lat="41.77962" lon="43.2708">
        <ele>903.107704</ele>
        <time>2021-08-16T19:53:28.178Z</time>
      </trkpt>
      <trkpt lat="41.7803" lon="43.26957">
        <ele>899.618632</ele>
        <time>2021-08-16T19:53:47.584Z</time>
      </trkpt>
      <trkpt lat="41.78064" lon="43.26907">
        <ele>897.792644</ele>
        <time>2021-08-16T19:53:55.498Z</time>
      </trkpt>
      <trkpt lat="41.78111" lon="43.26852">
        <ele>895.62684</ele>
        <time>2021-08-16T19:54:05.450Z</time>
      </trkpt>
      <trkpt lat="41.78128" lon="43.26836">
        <ele>894.912412</ele>
        <time>2021-08-16T19:54:08.835Z</time>
      </trkpt>
      <trkpt lat="41.78156" lon="43.26798">
        <ele>893.604219</ele>
        <time>2021-08-16T19:54:15.274Z</time>
      </trkpt>
      <trkpt lat="41.78165" lon="43.26777">
        <ele>892.980826</ele>
        <time>2021-08-16T19:54:18.460Z</time>
      </trkpt>
      <trkpt lat="41.78171" lon="43.26747">
        <ele>892.195305</ele>
        <time>2021-08-16T19:54:22.434Z</time>
      </trkpt>
      <trkpt lat="41.78184" lon="43.26509">
        <ele>889.677358</ele>
        <time>2021-08-16T19:54:58.380Z</time>
      </trkpt>
      <trkpt lat="41.78197" lon="43.26432">
        <ele>889.022345</ele>
        <time>2021-08-16T19:55:11.144Z</time>
      </trkpt>
      <trkpt lat="41.78214" lon="43.26363">
        <ele>887.99539</ele>
        <time>2021-08-16T19:55:21.963Z</time>
      </trkpt>
      <trkpt lat="41.78227" lon="43.26306">
        <ele>887.153682</ele>
        <time>2021-08-16T19:55:30.291Z</time>
      </trkpt>
      <trkpt lat="41.78237" lon="43.26209">
        <ele>885.676061</ele>
        <time>2021-08-16T19:55:42.958Z</time>
      </trkpt>
      <trkpt lat="41.78229" lon="43.26119">
        <ele>883.514613</ele>
        <time>2021-08-16T19:55:54.216Z</time>
      </trkpt>
      <trkpt lat="41.7821" lon="43.26018">
        <ele>881.020906</ele>
        <time>2021-08-16T19:56:07.190Z</time>
      </trkpt>
      <trkpt lat="41.78153" lon="43.25784">
        <ele>878.728578</ele>
        <time>2021-08-16T19:56:42.350Z</time>
      </trkpt>
      <trkpt lat="41.78117" lon="43.25482">
        <ele>881.814403</ele>
        <time>2021-08-16T19:57:56.732Z</time>
      </trkpt>
      <trkpt lat="41.78102" lon="43.25418">
        <ele>882.03994</ele>
        <time>2021-08-16T19:58:11.164Z</time>
      </trkpt>
      <trkpt lat="41.78081" lon="43.25388">
        <ele>882.179538</ele>
        <time>2021-08-16T19:58:19.023Z</time>
      </trkpt>
      <trkpt lat="41.78057" lon="43.25366">
        <ele>882.312546</ele>
        <time>2021-08-16T19:58:25.734Z</time>
      </trkpt>
      <trkpt lat="41.77879" lon="43.25225">
        <ele>880.333821</ele>
        <time>2021-08-16T19:59:05.430Z</time>
      </trkpt>
      <trkpt lat="41.77804" lon="43.25178">
        <ele>879.191295</ele>
        <time>2021-08-16T19:59:21.255Z</time>
      </trkpt>
      <trkpt lat="41.77733" lon="43.25141">
        <ele>878.133648</ele>
        <time>2021-08-16T19:59:35.910Z</time>
      </trkpt>
      <trkpt lat="41.77596" lon="43.25073">
        <ele>876.134944</ele>
        <time>2021-08-16T20:00:04.069Z</time>
      </trkpt>
      <trkpt lat="41.77564" lon="43.25057">
        <ele>875.675457</ele>
        <time>2021-08-16T20:00:10.417Z</time>
      </trkpt>
      <trkpt lat="41.77518" lon="43.25011">
        <ele>875.020212</ele>
        <time>2021-08-16T20:00:21.408Z</time>
      </trkpt>
      <trkpt lat="41.77487" lon="43.24976">
        <ele>874.736491</ele>
        <time>2021-08-16T20:00:29.521Z</time>
      </trkpt>
      <trkpt lat="41.77447" lon="43.24933">
        <ele>874.383764</ele>
        <time>2021-08-16T20:00:39.974Z</time>
      </trkpt>
      <trkpt lat="41.77412" lon="43.24909">
        <ele>874.116783</ele>
        <time>2021-08-16T20:00:48.192Z</time>
      </trkpt>
      <trkpt lat="41.77384" lon="43.24898">
        <ele>873.913008</ele>
        <time>2021-08-16T20:00:54.583Z</time>
      </trkpt>
      <trkpt lat="41.77354" lon="43.24889">
        <ele>874.030919</ele>
        <time>2021-08-16T20:01:01.486Z</time>
      </trkpt>
      <trkpt lat="41.77295" lon="43.24882">
        <ele>874.275338</ele>
        <time>2021-08-16T20:01:15.668Z</time>
      </trkpt>
      <trkpt lat="41.77224" lon="43.2489">
        <ele>874.570415</ele>
        <time>2021-08-16T20:01:34.001Z</time>
      </trkpt>
      <trkpt lat="41.77173" lon="43.24911">
        <ele>874.928106</ele>
        <time>2021-08-16T20:01:47.974Z</time>
      </trkpt>
      <trkpt lat="41.77113" lon="43.24952">
        <ele>875.473483</ele>
        <time>2021-08-16T20:02:05.270Z</time>
      </trkpt>
      <trkpt lat="41.77091" lon="43.24967">
        <ele>875.671758</ele>
        <time>2021-08-16T20:02:11.705Z</time>
      </trkpt>
      <trkpt lat="41.77056" lon="43.24986">
        <ele>875.978221</ele>
        <time>2021-08-16T20:02:21.781Z</time>
      </trkpt>
      <trkpt lat="41.77008" lon="43.24998">
        <ele>876.40177</ele>
        <time>2021-08-16T20:02:34.983Z</time>
      </trkpt>
      <trkpt lat="41.76982" lon="43.24996">
        <ele>876.635924</ele>
        <time>2021-08-16T20:02:41.977Z</time>
      </trkpt>
      <trkpt lat="41.76964" lon="43.24985">
        <ele>876.816714</ele>
        <time>2021-08-16T20:02:47.535Z</time>
      </trkpt>
      <trkpt lat="41.76944" lon="43.2497">
        <ele>877.023288</ele>
        <time>2021-08-16T20:02:53.530Z</time>
      </trkpt>
      <trkpt lat="41.76851" lon="43.24888">
        <ele>877.835569</ele>
        <time>2021-08-16T20:03:23.251Z</time>
      </trkpt>
      <trkpt lat="41.76577" lon="43.24661">
        <ele>878.506944</ele>
        <time>2021-08-16T20:04:37.040Z</time>
      </trkpt>
      <trkpt lat="41.76568" lon="43.24652">
        <ele>878.535105</ele>
        <time>2021-08-16T20:04:39.394Z</time>
      </trkpt>
      <trkpt lat="41.76532" lon="43.24598">
        <ele>878.744923</ele>
        <time>2021-08-16T20:04:52.120Z</time>
      </trkpt>
      <trkpt lat="41.76514" lon="43.24557">
        <ele>878.878463</ele>
        <time>2021-08-16T20:05:00.475Z</time>
      </trkpt>
      <trkpt lat="41.76478" lon="43.24422">
        <ele>879.385222</ele>
        <time>2021-08-16T20:05:27.169Z</time>
      </trkpt>
      <trkpt lat="41.76456" lon="43.24359">
        <ele>879.811911</ele>
        <time>2021-08-16T20:05:41.061Z</time>
      </trkpt>
      <trkpt lat="41.7642" lon="43.24279">
        <ele>880.378563</ele>
        <time>2021-08-16T20:05:59.468Z</time>
      </trkpt>
      <trkpt lat="41.76378" lon="43.24216">
        <ele>880.972886</ele>
        <time>2021-08-16T20:06:16.629Z</time>
      </trkpt>
      <trkpt lat="41.76366" lon="43.24188">
        <ele>881.228253</ele>
        <time>2021-08-16T20:06:23.037Z</time>
      </trkpt>
      <trkpt lat="41.76327" lon="43.24051">
        <ele>882.409161</ele>
        <time>2021-08-16T20:06:53.684Z</time>
      </trkpt>
      <trkpt lat="41.76325" lon="43.24026">
        <ele>882.61658</ele>
        <time>2021-08-16T20:06:59.321Z</time>
      </trkpt>
      <trkpt lat="41.76329" lon="43.2397">
        <ele>882.723357</ele>
        <time>2021-08-16T20:07:11.164Z</time>
      </trkpt>
      <trkpt lat="41.76346" lon="43.23815">
        <ele>883.025519</ele>
        <time>2021-08-16T20:07:38.248Z</time>
      </trkpt>
      <trkpt lat="41.76347" lon="43.23794">
        <ele>883.065907</ele>
        <time>2021-08-16T20:07:41.436Z</time>
      </trkpt>
      <trkpt lat="41.76348" lon="43.23769">
        <ele>882.915113</ele>
        <time>2021-08-16T20:07:45.374Z</time>
      </trkpt>
      <trkpt lat="41.76347" lon="43.23732">
        <ele>882.568316</ele>
        <time>2021-08-16T20:07:50.901Z</time>
      </trkpt>
      <trkpt lat="41.76338" lon="43.23691">
        <ele>882.171382</ele>
        <time>2021-08-16T20:07:57.034Z</time>
      </trkpt>
      <trkpt lat="41.76286" lon="43.23434">
        <ele>880.129024</ele>
        <time>2021-08-16T20:08:34.874Z</time>
      </trkpt>
      <trkpt lat="41.76248" lon="43.23289">
        <ele>879.673437</ele>
        <time>2021-08-16T20:08:59.959Z</time>
      </trkpt>
      <trkpt lat="41.76138" lon="43.23016">
        <ele>881.937392</ele>
        <time>2021-08-16T20:10:04.003Z</time>
      </trkpt>
      <trkpt lat="41.76126" lon="43.22974">
        <ele>882.36428</ele>
        <time>2021-08-16T20:10:13.898Z</time>
      </trkpt>
      <trkpt lat="41.76082" lon="43.22733">
        <ele>884.780181</ele>
        <time>2021-08-16T20:11:07.655Z</time>
      </trkpt>
      <trkpt lat="41.7608" lon="43.22696">
        <ele>885.147274</ele>
        <time>2021-08-16T20:11:15.595Z</time>
      </trkpt>
      <trkpt lat="41.76084" lon="43.22648">
        <ele>885.635936</ele>
        <time>2021-08-16T20:11:26.200Z</time>
      </trkpt>
      <trkpt lat="41.76123" lon="43.22376">
        <ele>888.454938</ele>
        <time>2021-08-16T20:12:27.155Z</time>
      </trkpt>
      <trkpt lat="41.76139" lon="43.22204">
        <ele>889.792794</ele>
        <time>2021-08-16T20:13:03.610Z</time>
      </trkpt>
      <trkpt lat="41.7614" lon="43.2214">
        <ele>889.962101</ele>
        <time>2021-08-16T20:13:15.525Z</time>
      </trkpt>
      <trkpt lat="41.76113" lon="43.21732">
        <ele>888.469441</ele>
        <time>2021-08-16T20:14:19.105Z</time>
      </trkpt>
      <trkpt lat="41.76101" lon="43.21666">
        <ele>888.091954</ele>
        <time>2021-08-16T20:14:29.304Z</time>
      </trkpt>
      <trkpt lat="41.76071" lon="43.21565">
        <ele>887.419691</ele>
        <time>2021-08-16T20:14:45.469Z</time>
      </trkpt>
      <trkpt lat="41.75982" lon="43.21382">
        <ele>886.535325</ele>
        <time>2021-08-16T20:15:18.945Z</time>
      </trkpt>
      <trkpt lat="41.75942" lon="43.21311">
        <ele>886.348027</ele>
        <time>2021-08-16T20:15:33.451Z</time>
      </trkpt>
      <trkpt lat="41.75868" lon="43.21213">
        <ele>886.5597</ele>
        <time>2021-08-16T20:15:58.231Z</time>
      </trkpt>
      <trkpt lat="41.75771" lon="43.21102">
        <ele>886.993467</ele>
        <time>2021-08-16T20:16:29.607Z</time>
      </trkpt>
      <trkpt lat="41.75744" lon="43.21077">
        <ele>887.033902</ele>
        <time>2021-08-16T20:16:37.482Z</time>
      </trkpt>
      <trkpt lat="41.75672" lon="43.21029">
        <ele>887.132767</ele>
        <time>2021-08-16T20:16:56.084Z</time>
      </trkpt>
      <trkpt lat="41.75459" lon="43.20911">
        <ele>887.020901</ele>
        <time>2021-08-16T20:17:45.790Z</time>
      </trkpt>
      <trkpt lat="41.75353" lon="43.20842">
        <ele>888.099996</ele>
        <time>2021-08-16T20:18:14.737Z</time>
      </trkpt>
      <trkpt lat="41.75302" lon="43.20796">
        <ele>888.821896</ele>
        <time>2021-08-16T20:18:33.995Z</time>
      </trkpt>
      <trkpt lat="41.7526" lon="43.20757">
        <ele>890.651216</ele>
        <time>2021-08-16T20:18:52.139Z</time>
      </trkpt>
      <trkpt lat="41.75223" lon="43.20722">
        <ele>892.267379</ele>
        <time>2021-08-16T20:19:09.990Z</time>
      </trkpt>
      <trkpt lat="41.7515" lon="43.20666">
        <ele>895.326862</ele>
        <time>2021-08-16T20:19:47.902Z</time>
      </trkpt>
      <trkpt lat="41.75122" lon="43.20653">
        <ele>896.728483</ele>
        <time>2021-08-16T20:20:02.473Z</time>
      </trkpt>
      <trkpt lat="41.74965" lon="43.20641">
        <ele>903.301614</ele>
        <time>2021-08-16T20:21:15.923Z</time>
      </trkpt>
      <trkpt lat="41.74931" lon="43.20635">
        <ele>903.22833</ele>
        <time>2021-08-16T20:21:27.465Z</time>
      </trkpt>
      <trkpt lat="41.74906" lon="43.20624">
        <ele>903.173116</ele>
        <time>2021-08-16T20:21:34.942Z</time>
      </trkpt>
      <trkpt lat="41.74873" lon="43.20609">
        <ele>903.099162</ele>
        <time>2021-08-16T20:21:42.575Z</time>
      </trkpt>
      <trkpt lat="41.74846" lon="43.20594">
        <ele>903.038811</ele>
        <time>2021-08-16T20:21:47.588Z</time>
      </trkpt>
      <trkpt lat="41.74801" lon="43.20546">
        <ele>902.201359</ele>
        <time>2021-08-16T20:21:57.232Z</time>
      </trkpt>
      <trkpt lat="41.74769" lon="43.20479">
        <ele>899.571045</ele>
        <time>2021-08-16T20:22:06.705Z</time>
      </trkpt>
      <trkpt lat="41.74746" lon="43.20422">
        <ele>897.408218</ele>
        <time>2021-08-16T20:22:14.098Z</time>
      </trkpt>
      <trkpt lat="41.747" lon="43.20319">
        <ele>894.392601</ele>
        <time>2021-08-16T20:22:29.043Z</time>
      </trkpt>
      <trkpt lat="41.7466" lon="43.20225">
        <ele>893.13523</ele>
        <time>2021-08-16T20:22:44.427Z</time>
      </trkpt>
      <trkpt lat="41.74624" lon="43.20145">
        <ele>892.146242</ele>
        <time>2021-08-16T20:22:59.785Z</time>
      </trkpt>
      <trkpt lat="41.74567" lon="43.20059">
        <ele>892.424982</ele>
        <time>2021-08-16T20:23:20.034Z</time>
      </trkpt>
      <trkpt lat="41.74528" lon="43.20015">
        <ele>892.591001</ele>
        <time>2021-08-16T20:23:32.612Z</time>
      </trkpt>
      <trkpt lat="41.74485" lon="43.19985">
        <ele>892.748986</ele>
        <time>2021-08-16T20:23:44.955Z</time>
      </trkpt>
      <trkpt lat="41.74455" lon="43.19949">
        <ele>892.872826</ele>
        <time>2021-08-16T20:23:54.602Z</time>
      </trkpt>
      <trkpt lat="41.7442" lon="43.19855">
        <ele>893.112963</ele>
        <time>2021-08-16T20:24:12.865Z</time>
      </trkpt>
      <trkpt lat="41.74419" lon="43.19846">
        <ele>893.134098</ele>
        <time>2021-08-16T20:24:14.879Z</time>
      </trkpt>
      <trkpt lat="41.74418" lon="43.1984">
        <ele>893.148231</ele>
        <time>2021-08-16T20:24:15.978Z</time>
      </trkpt>
      <trkpt lat="41.74413" lon="43.19812">
        <ele>893.216139</ele>
        <time>2021-08-16T20:24:20.789Z</time>
      </trkpt>
      <trkpt lat="41.74408" lon="43.1971">
        <ele>893.630276</ele>
        <time>2021-08-16T20:24:38.897Z</time>
      </trkpt>
      <trkpt lat="41.74438" lon="43.19446">
        <ele>895.231105</ele>
        <time>2021-08-16T20:25:31.203Z</time>
      </trkpt>
      <trkpt lat="41.74503" lon="43.19187">
        <ele>897.090825</ele>
        <time>2021-08-16T20:26:30.127Z</time>
      </trkpt>
      <trkpt lat="41.74515" lon="43.19127">
        <ele>897.425674</ele>
        <time>2021-08-16T20:26:41.198Z</time>
      </trkpt>
      <trkpt lat="41.74523" lon="43.18957">
        <ele>897.027111</ele>
        <time>2021-08-16T20:27:07.941Z</time>
      </trkpt>
      <trkpt lat="41.74532" lon="43.18892">
        <ele>896.694218</ele>
        <time>2021-08-16T20:27:17.799Z</time>
      </trkpt>
      <trkpt lat="41.74534" lon="43.18843">
        <ele>896.453511</ele>
        <time>2021-08-16T20:27:24.957Z</time>
      </trkpt>
      <trkpt lat="41.74528" lon="43.18797">
        <ele>896.290596</ele>
        <time>2021-08-16T20:27:32.004Z</time>
      </trkpt>
      <trkpt lat="41.74513" lon="43.18757">
        <ele>896.133095</ele>
        <time>2021-08-16T20:27:38.927Z</time>
      </trkpt>
      <trkpt lat="41.74462" lon="43.18677">
        <ele>895.767144</ele>
        <time>2021-08-16T20:27:55.380Z</time>
      </trkpt>
      <trkpt lat="41.74321" lon="43.18392">
        <ele>896.406169</ele>
        <time>2021-08-16T20:28:55.185Z</time>
      </trkpt>
      <trkpt lat="41.74261" lon="43.18311">
        <ele>897.245738</ele>
        <time>2021-08-16T20:29:19.616Z</time>
      </trkpt>
      <trkpt lat="41.74101" lon="43.18123">
        <ele>899.496984</ele>
        <time>2021-08-16T20:30:20.307Z</time>
      </trkpt>
      <trkpt lat="41.74055" lon="43.18037">
        <ele>899.871724</ele>
        <time>2021-08-16T20:30:38.679Z</time>
      </trkpt>
      <trkpt lat="41.74049" lon="43.1801">
        <ele>899.932855</ele>
        <time>2021-08-16T20:30:43.481Z</time>
      </trkpt>
      <trkpt lat="41.7405" lon="43.17988">
        <ele>899.981935</ele>
        <time>2021-08-16T20:30:47.364Z</time>
      </trkpt>
      <trkpt lat="41.74059" lon="43.17954">
        <ele>900.060181</ele>
        <time>2021-08-16T20:30:53.843Z</time>
      </trkpt>
      <trkpt lat="41.74062" lon="43.17934">
        <ele>900.105129</ele>
        <time>2021-08-16T20:30:57.399Z</time>
      </trkpt>
      <trkpt lat="41.7407" lon="43.17884">
        <ele>900.215026</ele>
        <time>2021-08-16T20:31:06.358Z</time>
      </trkpt>
      <trkpt lat="41.74084" lon="43.1779">
        <ele>900.588455</ele>
        <time>2021-08-16T20:31:23.287Z</time>
      </trkpt>
      <trkpt lat="41.74088" lon="43.17753">
        <ele>900.736101</ele>
        <time>2021-08-16T20:31:30.312Z</time>
      </trkpt>
      <trkpt lat="41.74087" lon="43.17723">
        <ele>900.856116</ele>
        <time>2021-08-16T20:31:36.219Z</time>
      </trkpt>
      <trkpt lat="41.74074" lon="43.17651">
        <ele>901.14693</ele>
        <time>2021-08-16T20:31:50.440Z</time>
      </trkpt>
      <trkpt lat="41.74041" lon="43.17582">
        <ele>901.510844</ele>
        <time>2021-08-16T20:32:05.992Z</time>
      </trkpt>
      <trkpt lat="41.73964" lon="43.17468">
        <ele>902.196014</ele>
        <time>2021-08-16T20:32:34.256Z</time>
      </trkpt>
      <trkpt lat="41.73786" lon="43.17246">
        <ele>904.021141</ele>
        <time>2021-08-16T20:33:39.586Z</time>
      </trkpt>
      <trkpt lat="41.73777" lon="43.17234">
        <ele>904.07517</ele>
        <time>2021-08-16T20:33:42.653Z</time>
      </trkpt>
      <trkpt lat="41.73702" lon="43.17148">
        <ele>904.488732</ele>
        <time>2021-08-16T20:34:05.666Z</time>
      </trkpt>
      <trkpt lat="41.73676" lon="43.17107">
        <ele>904.545536</ele>
        <time>2021-08-16T20:34:14.557Z</time>
      </trkpt>
      <trkpt lat="41.73616" lon="43.1699">
        <ele>904.543651</ele>
        <time>2021-08-16T20:34:37.600Z</time>
      </trkpt>
      <trkpt lat="41.73582" lon="43.16943">
        <ele>904.550074</ele>
        <time>2021-08-16T20:34:48.726Z</time>
      </trkpt>
      <trkpt lat="41.73477" lon="43.16859">
        <ele>905.067643</ele>
        <time>2021-08-16T20:35:18.148Z</time>
      </trkpt>
      <trkpt lat="41.73432" lon="43.16825">
        <ele>905.282735</ele>
        <time>2021-08-16T20:35:30.924Z</time>
      </trkpt>
      <trkpt lat="41.73396" lon="43.16802">
        <ele>905.744157</ele>
        <time>2021-08-16T20:35:41.395Z</time>
      </trkpt>
      <trkpt lat="41.73354" lon="43.16774">
        <ele>906.323354</ele>
        <time>2021-08-16T20:35:54.359Z</time>
      </trkpt>
      <trkpt lat="41.73292" lon="43.16712">
        <ele>907.280458</ele>
        <time>2021-08-16T20:36:17.433Z</time>
      </trkpt>
      <trkpt lat="41.73271" lon="43.16682">
        <ele>907.691808</ele>
        <time>2021-08-16T20:36:26.865Z</time>
      </trkpt>
      <trkpt lat="41.73219" lon="43.16597">
        <ele>908.915521</ele>
        <time>2021-08-16T20:36:51.725Z</time>
      </trkpt>
      <trkpt lat="41.73204" lon="43.16566">
        <ele>909.329849</ele>
        <time>2021-08-16T20:37:00.284Z</time>
      </trkpt>
      <trkpt lat="41.73193" lon="43.16535">
        <ele>909.711781</ele>
        <time>2021-08-16T20:37:08.139Z</time>
      </trkpt>
      <trkpt lat="41.7318" lon="43.16498">
        <ele>910.170871</ele>
        <time>2021-08-16T20:37:16.757Z</time>
      </trkpt>
      <trkpt lat="41.73159" lon="43.16447">
        <ele>910.537856</ele>
        <time>2021-08-16T20:37:28.534Z</time>
      </trkpt>
      <trkpt lat="41.73152" lon="43.16427">
        <ele>910.670689</ele>
        <time>2021-08-16T20:37:33.189Z</time>
      </trkpt>
      <trkpt lat="41.73136" lon="43.16392">
        <ele>910.906181</ele>
        <time>2021-08-16T20:37:40.908Z</time>
      </trkpt>
      <trkpt lat="41.73122" lon="43.1637">
        <ele>911.073178</ele>
        <time>2021-08-16T20:37:46.361Z</time>
      </trkpt>
      <trkpt lat="41.73115" lon="43.16359">
        <ele>911.15372</ele>
        <time>2021-08-16T20:37:48.999Z</time>
      </trkpt>
      <trkpt lat="41.73104" lon="43.16349">
        <ele>911.258521</ele>
        <time>2021-08-16T20:37:52.582Z</time>
      </trkpt>
      <trkpt lat="41.73097" lon="43.16338">
        <ele>911.344047</ele>
        <time>2021-08-16T20:37:55.145Z</time>
      </trkpt>
      <trkpt lat="41.73094" lon="43.16329">
        <ele>911.403005</ele>
        <time>2021-08-16T20:37:57.142Z</time>
      </trkpt>
      <trkpt lat="41.73076" lon="43.16287">
        <ele>911.658751</ele>
        <time>2021-08-16T20:38:06.201Z</time>
      </trkpt>
      <trkpt lat="41.73044" lon="43.16205">
        <ele>911.972714</ele>
        <time>2021-08-16T20:38:23.398Z</time>
      </trkpt>
      <trkpt lat="41.73014" lon="43.16124">
        <ele>912.276366</ele>
        <time>2021-08-16T20:38:40.539Z</time>
      </trkpt>
      <trkpt lat="41.72948" lon="43.15939">
        <ele>912.129484</ele>
        <time>2021-08-16T20:39:14.963Z</time>
      </trkpt>
      <trkpt lat="41.72933" lon="43.15915">
        <ele>912.067993</ele>
        <time>2021-08-16T20:39:19.693Z</time>
      </trkpt>
      <trkpt lat="41.72928" lon="43.15907">
        <ele>912.046216</ele>
        <time>2021-08-16T20:39:21.454Z</time>
      </trkpt>
      <trkpt lat="41.72915" lon="43.15889">
        <ele>911.997871</ele>
        <time>2021-08-16T20:39:25.003Z</time>
      </trkpt>
      <trkpt lat="41.72806" lon="43.15759">
        <ele>910.907449</ele>
        <time>2021-08-16T20:39:54.406Z</time>
      </trkpt>
      <trkpt lat="41.7268" lon="43.15612">
        <ele>910.105714</ele>
        <time>2021-08-16T20:40:29.144Z</time>
      </trkpt>
      <trkpt lat="41.72617" lon="43.15545">
        <ele>910.062835</ele>
        <time>2021-08-16T20:40:46.813Z</time>
      </trkpt>
      <trkpt lat="41.72603" lon="43.15529">
        <ele>910.212059</ele>
        <time>2021-08-16T20:40:50.993Z</time>
      </trkpt>
      <trkpt lat="41.72374" lon="43.15271">
        <ele>913.519702</ele>
        <time>2021-08-16T20:42:14.125Z</time>
      </trkpt>
      <trkpt lat="41.72358" lon="43.15247">
        <ele>913.881059</ele>
        <time>2021-08-16T20:42:21.909Z</time>
      </trkpt>
      <trkpt lat="41.72311" lon="43.15195">
        <ele>915.865858</ele>
        <time>2021-08-16T20:42:43.395Z</time>
      </trkpt>
      <trkpt lat="41.72206" lon="43.15078">
        <ele>920.320832</ele>
        <time>2021-08-16T20:43:39.272Z</time>
      </trkpt>
      <trkpt lat="41.72163" lon="43.1503">
        <ele>922.285933</ele>
        <time>2021-08-16T20:44:03.767Z</time>
      </trkpt>
      <trkpt lat="41.72099" lon="43.14962">
        <ele>925.147108</ele>
        <time>2021-08-16T20:44:36.688Z</time>
      </trkpt>
      <trkpt lat="41.72072" lon="43.14929">
        <ele>925.981949</ele>
        <time>2021-08-16T20:44:50.003Z</time>
      </trkpt>
      <trkpt lat="41.72041" lon="43.14895">
        <ele>926.145816</ele>
        <time>2021-08-16T20:45:02.158Z</time>
      </trkpt>
      <trkpt lat="41.72012" lon="43.14859">
        <ele>926.303744</ele>
        <time>2021-08-16T20:45:11.949Z</time>
      </trkpt>
      <trkpt lat="41.71963" lon="43.14804">
        <ele>926.56647</ele>
        <time>2021-08-16T20:45:25.764Z</time>
      </trkpt>
      <trkpt lat="41.7194" lon="43.14775">
        <ele>926.399769</ele>
        <time>2021-08-16T20:45:31.916Z</time>
      </trkpt>
      <trkpt lat="41.71822" lon="43.1463">
        <ele>922.19931</ele>
        <time>2021-08-16T20:45:59.687Z</time>
      </trkpt>
      <trkpt lat="41.71802" lon="43.14593">
        <ele>921.24955</ele>
        <time>2021-08-16T20:46:05.577Z</time>
      </trkpt>
      <trkpt lat="41.71789" lon="43.14502">
        <ele>919.328602</ele>
        <time>2021-08-16T20:46:17.417Z</time>
      </trkpt>
      <trkpt lat="41.71775" lon="43.14461">
        <ele>918.393119</ele>
        <time>2021-08-16T20:46:23.239Z</time>
      </trkpt>
      <trkpt lat="41.71751" lon="43.14431">
        <ele>917.476997</ele>
        <time>2021-08-16T20:46:29.005Z</time>
      </trkpt>
      <trkpt lat="41.71686" lon="43.14381">
        <ele>916.112958</ele>
        <time>2021-08-16T20:46:42.996Z</time>
      </trkpt>
      <trkpt lat="41.71613" lon="43.14362">
        <ele>915.021565</ele>
        <time>2021-08-16T20:46:57.436Z</time>
      </trkpt>
      <trkpt lat="41.71514" lon="43.14351">
        <ele>913.623177</ele>
        <time>2021-08-16T20:47:16.823Z</time>
      </trkpt>
      <trkpt lat="41.71258" lon="43.14316">
        <ele>910.620621</ele>
        <time>2021-08-16T20:48:06.027Z</time>
      </trkpt>
      <trkpt lat="41.70804" lon="43.14249">
        <ele>909.628954</ele>
        <time>2021-08-16T20:49:46.380Z</time>
      </trkpt>
      <trkpt lat="41.70755" lon="43.14231">
        <ele>909.599828</ele>
        <time>2021-08-16T20:49:57.495Z</time>
      </trkpt>
      <trkpt lat="41.70624" lon="43.14161">
        <ele>909.632519</ele>
        <time>2021-08-16T20:50:28.558Z</time>
      </trkpt>
      <trkpt lat="41.70443" lon="43.14057">
        <ele>910.191612</ele>
        <time>2021-08-16T20:51:14.897Z</time>
      </trkpt>
      <trkpt lat="41.70242" lon="43.13949">
        <ele>911.104069</ele>
        <time>2021-08-16T20:52:10.133Z</time>
      </trkpt>
      <trkpt lat="41.70113" lon="43.13877">
        <ele>911.235376</ele>
        <time>2021-08-16T20:52:40.478Z</time>
      </trkpt>
      <trkpt lat="41.70029" lon="43.13822">
        <ele>911.096621</ele>
        <time>2021-08-16T20:53:00.363Z</time>
      </trkpt>
      <trkpt lat="41.69829" lon="43.13659">
        <ele>911.925591</ele>
        <time>2021-08-16T20:53:56.881Z</time>
      </trkpt>
      <trkpt lat="41.69714" lon="43.13565">
        <ele>912.796432</ele>
        <time>2021-08-16T20:54:31.766Z</time>
      </trkpt>
      <trkpt lat="41.69673" lon="43.13533">
        <ele>913.189394</ele>
        <time>2021-08-16T20:54:43.823Z</time>
      </trkpt>
      <trkpt lat="41.69587" lon="43.13489">
        <ele>913.993327</ele>
        <time>2021-08-16T20:55:08.439Z</time>
      </trkpt>
      <trkpt lat="41.69575" lon="43.13478">
        <ele>914.121926</ele>
        <time>2021-08-16T20:55:12.264Z</time>
      </trkpt>
      <trkpt lat="41.69566" lon="43.13462">
        <ele>914.254806</ele>
        <time>2021-08-16T20:55:16.602Z</time>
      </trkpt>
      <trkpt lat="41.6955" lon="43.13407">
        <ele>914.762556</ele>
        <time>2021-08-16T20:55:28.524Z</time>
      </trkpt>
      <trkpt lat="41.69545" lon="43.13381">
        <ele>915.043314</ele>
        <time>2021-08-16T20:55:34.275Z</time>
      </trkpt>
      <trkpt lat="41.69536" lon="43.13351">
        <ele>915.370745</ele>
        <time>2021-08-16T20:55:40.883Z</time>
      </trkpt>
      <trkpt lat="41.69449" lon="43.13146">
        <ele>917.840709</ele>
        <time>2021-08-16T20:56:33.858Z</time>
      </trkpt>
      <trkpt lat="41.69434" lon="43.1304">
        <ele>918.999775</ele>
        <time>2021-08-16T20:56:57.751Z</time>
      </trkpt>
      <trkpt lat="41.69433" lon="43.12994">
        <ele>919.497641</ele>
        <time>2021-08-16T20:57:07.841Z</time>
      </trkpt>
      <trkpt lat="41.69433" lon="43.12968">
        <ele>919.582677</ele>
        <time>2021-08-16T20:57:13.446Z</time>
      </trkpt>
      <trkpt lat="41.69439" lon="43.12861">
        <ele>919.936987</ele>
        <time>2021-08-16T20:57:34.961Z</time>
      </trkpt>
      <trkpt lat="41.69444" lon="43.12755">
        <ele>920.285548</ele>
        <time>2021-08-16T20:57:52.560Z</time>
      </trkpt>
      <trkpt lat="41.69456" lon="43.12544">
        <ele>918.838626</ele>
        <time>2021-08-16T20:58:23.987Z</time>
      </trkpt>
      <trkpt lat="41.69453" lon="43.12428">
        <ele>918.153168</ele>
        <time>2021-08-16T20:58:41.057Z</time>
      </trkpt>
      <trkpt lat="41.69449" lon="43.12377">
        <ele>917.874051</ele>
        <time>2021-08-16T20:58:48.762Z</time>
      </trkpt>
      <trkpt lat="41.6943" lon="43.12259">
        <ele>917.30045</ele>
        <time>2021-08-16T20:59:07.842Z</time>
      </trkpt>
      <trkpt lat="41.69427" lon="43.12215">
        <ele>917.299933</ele>
        <time>2021-08-16T20:59:14.920Z</time>
      </trkpt>
      <trkpt lat="41.69427" lon="43.12187">
        <ele>917.299602</ele>
        <time>2021-08-16T20:59:19.512Z</time>
      </trkpt>
      <trkpt lat="41.6943" lon="43.12129">
        <ele>917.298906</ele>
        <time>2021-08-16T20:59:29.692Z</time>
      </trkpt>
      <trkpt lat="41.69438" lon="43.12037">
        <ele>917.297807</ele>
        <time>2021-08-16T20:59:45.735Z</time>
      </trkpt>
      <trkpt lat="41.69434" lon="43.12012">
        <ele>917.332249</ele>
        <time>2021-08-16T20:59:50.211Z</time>
      </trkpt>
      <trkpt lat="41.69371" lon="43.11777">
        <ele>917.649571</ele>
        <time>2021-08-16T21:00:33.327Z</time>
      </trkpt>
      <trkpt lat="41.69319" lon="43.11673">
        <ele>917.706788</ele>
        <time>2021-08-16T21:00:54.551Z</time>
      </trkpt>
      <trkpt lat="41.69242" lon="43.1156">
        <ele>917.700587</ele>
        <time>2021-08-16T21:01:19.964Z</time>
      </trkpt>
      <trkpt lat="41.69203" lon="43.1149">
        <ele>917.644862</ele>
        <time>2021-08-16T21:01:34.382Z</time>
      </trkpt>
      <trkpt lat="41.69137" lon="43.1136">
        <ele>917.525726</ele>
        <time>2021-08-16T21:01:59.950Z</time>
      </trkpt>
      <trkpt lat="41.69046" lon="43.11159">
        <ele>917.534176</ele>
        <time>2021-08-16T21:02:38.605Z</time>
      </trkpt>
      <trkpt lat="41.69015" lon="43.11073">
        <ele>917.758684</ele>
        <time>2021-08-16T21:02:55.494Z</time>
      </trkpt>
      <trkpt lat="41.69004" lon="43.11045">
        <ele>917.832607</ele>
        <time>2021-08-16T21:03:01.267Z</time>
      </trkpt>
      <trkpt lat="41.68989" lon="43.1099">
        <ele>918.040643</ele>
        <time>2021-08-16T21:03:12.473Z</time>
      </trkpt>
      <trkpt lat="41.68937" lon="43.10665">
        <ele>920.760971</ele>
        <time>2021-08-16T21:04:21.598Z</time>
      </trkpt>
      <trkpt lat="41.68902" lon="43.10513">
        <ele>922.26214</ele>
        <time>2021-08-16T21:04:55.306Z</time>
      </trkpt>
      <trkpt lat="41.68864" lon="43.10377">
        <ele>924.051897</ele>
        <time>2021-08-16T21:05:28.578Z</time>
      </trkpt>
      <trkpt lat="41.68849" lon="43.10295">
        <ele>925.048988</ele>
        <time>2021-08-16T21:05:48.367Z</time>
      </trkpt>
      <trkpt lat="41.68847" lon="43.10248">
        <ele>925.462449</ele>
        <time>2021-08-16T21:05:59.265Z</time>
      </trkpt>
      <trkpt lat="41.6886" lon="43.10217">
        <ele>925.781531</ele>
        <time>2021-08-16T21:06:07.462Z</time>
      </trkpt>
      <trkpt lat="41.68872" lon="43.10204">
        <ele>925.967289</ele>
        <time>2021-08-16T21:06:12.154Z</time>
      </trkpt>
      <trkpt lat="41.68967" lon="43.10145">
        <ele>927.026704</ele>
        <time>2021-08-16T21:06:40.266Z</time>
      </trkpt>
      <trkpt lat="41.69005" lon="43.101">
        <ele>926.776698</ele>
        <time>2021-08-16T21:06:51.328Z</time>
      </trkpt>
      <trkpt lat="41.6905" lon="43.09948">
        <ele>926.156263</ele>
        <time>2021-08-16T21:07:15.860Z</time>
      </trkpt>
      <trkpt lat="41.69085" lon="43.09894">
        <ele>925.679594</ele>
        <time>2021-08-16T21:07:26.358Z</time>
      </trkpt>
      <trkpt lat="41.69117" lon="43.09812">
        <ele>925.062867</ele>
        <time>2021-08-16T21:07:40.094Z</time>
      </trkpt>
      <trkpt lat="41.69126" lon="43.09699">
        <ele>924.55322</ele>
        <time>2021-08-16T21:07:57.469Z</time>
      </trkpt>
      <trkpt lat="41.69122" lon="43.09631">
        <ele>924.513535</ele>
        <time>2021-08-16T21:08:08.318Z</time>
      </trkpt>
      <trkpt lat="41.6911" lon="43.09583">
        <ele>924.483732</ele>
        <time>2021-08-16T21:08:16.668Z</time>
      </trkpt>
      <trkpt lat="41.69042" lon="43.09372">
        <ele>925.437842</ele>
        <time>2021-08-16T21:08:59.247Z</time>
      </trkpt>
      <trkpt lat="41.69027" lon="43.09311">
        <ele>925.865578</ele>
        <time>2021-08-16T21:09:13.374Z</time>
      </trkpt>
      <trkpt lat="41.69007" lon="43.09211">
        <ele>926.748866</ele>
        <time>2021-08-16T21:09:36.795Z</time>
      </trkpt>
      <trkpt lat="41.6901" lon="43.09165">
        <ele>927.169814</ele>
        <time>2021-08-16T21:09:47.136Z</time>
      </trkpt>
      <trkpt lat="41.69025" lon="43.09118">
        <ele>927.647988</ele>
        <time>2021-08-16T21:09:58.706Z</time>
      </trkpt>
      <trkpt lat="41.69202" lon="43.08716">
        <ele>929.348356</ele>
        <time>2021-08-16T21:11:24.161Z</time>
      </trkpt>
      <trkpt lat="41.69259" lon="43.08564">
        <ele>929.278871</ele>
        <time>2021-08-16T21:11:51.753Z</time>
      </trkpt>
      <trkpt lat="41.69279" lon="43.08491">
        <ele>929.096648</ele>
        <time>2021-08-16T21:12:03.998Z</time>
      </trkpt>
      <trkpt lat="41.69405" lon="43.07907">
        <ele>927.965164</ele>
        <time>2021-08-16T21:13:41.104Z</time>
      </trkpt>
      <trkpt lat="41.69466" lon="43.07627">
        <ele>928.746463</ele>
        <time>2021-08-16T21:14:36.955Z</time>
      </trkpt>
      <trkpt lat="41.69479" lon="43.07568">
        <ele>928.849449</ele>
        <time>2021-08-16T21:14:47.731Z</time>
      </trkpt>
      <trkpt lat="41.69499" lon="43.07473">
        <ele>928.865997</ele>
        <time>2021-08-16T21:15:03.721Z</time>
      </trkpt>
      <trkpt lat="41.69505" lon="43.07422">
        <ele>928.576444</ele>
        <time>2021-08-16T21:15:11.756Z</time>
      </trkpt>
      <trkpt lat="41.69505" lon="43.07398">
        <ele>928.442793</ele>
        <time>2021-08-16T21:15:15.433Z</time>
      </trkpt>
      <trkpt lat="41.69505" lon="43.07379">
        <ele>928.337021</ele>
        <time>2021-08-16T21:15:18.230Z</time>
      </trkpt>
      <trkpt lat="41.69499" lon="43.07338">
        <ele>928.105754</ele>
        <time>2021-08-16T21:15:24.466Z</time>
      </trkpt>
      <trkpt lat="41.69468" lon="43.0722">
        <ele>927.48177</ele>
        <time>2021-08-16T21:15:43.158Z</time>
      </trkpt>
      <trkpt lat="41.69418" lon="43.07091">
        <ele>926.941299</ele>
        <time>2021-08-16T21:16:05.672Z</time>
      </trkpt>
      <trkpt lat="41.69255" lon="43.06749">
        <ele>926.823633</ele>
        <time>2021-08-16T21:17:12.962Z</time>
      </trkpt>
      <trkpt lat="41.69251" lon="43.06742">
        <ele>926.833388</ele>
        <time>2021-08-16T21:17:14.569Z</time>
      </trkpt>
      <trkpt lat="41.69206" lon="43.06668">
        <ele>926.941909</ele>
        <time>2021-08-16T21:17:31.356Z</time>
      </trkpt>
      <trkpt lat="41.69148" lon="43.06581">
        <ele>927.406961</ele>
        <time>2021-08-16T21:17:52.835Z</time>
      </trkpt>
      <trkpt lat="41.69104" lon="43.06536">
        <ele>927.762851</ele>
        <time>2021-08-16T21:18:06.922Z</time>
      </trkpt>
      <trkpt lat="41.69072" lon="43.06522">
        <ele>927.97596</ele>
        <time>2021-08-16T21:18:15.512Z</time>
      </trkpt>
      <trkpt lat="41.69037" lon="43.06518">
        <ele>928.263745</ele>
        <time>2021-08-16T21:18:24.841Z</time>
      </trkpt>
      <trkpt lat="41.69005" lon="43.06514">
        <ele>928.643468</ele>
        <time>2021-08-16T21:18:33.467Z</time>
      </trkpt>
      <trkpt lat="41.68949" lon="43.06519">
        <ele>929.321452</ele>
        <time>2021-08-16T21:18:49.192Z</time>
      </trkpt>
      <trkpt lat="41.68846" lon="43.06542">
        <ele>930.95469</ele>
        <time>2021-08-16T21:19:19.335Z</time>
      </trkpt>
      <trkpt lat="41.68813" lon="43.06556">
        <ele>931.929827</ele>
        <time>2021-08-16T21:19:30.603Z</time>
      </trkpt>
      <trkpt lat="41.6875" lon="43.06604">
        <ele>933.96364</ele>
        <time>2021-08-16T21:19:56.429Z</time>
      </trkpt>
      <trkpt lat="41.68426" lon="43.06872">
        <ele>949.507488</ele>
        <time>2021-08-16T21:22:45.056Z</time>
      </trkpt>
      <trkpt lat="41.6838" lon="43.06916">
        <ele>951.224736</ele>
        <time>2021-08-16T21:23:07.239Z</time>
      </trkpt>
      <trkpt lat="41.68326" lon="43.06996">
        <ele>952.789973</ele>
        <time>2021-08-16T21:23:35.094Z</time>
      </trkpt>
      <trkpt lat="41.68267" lon="43.07109">
        <ele>953.593786</ele>
        <time>2021-08-16T21:24:02.516Z</time>
      </trkpt>
      <trkpt lat="41.68193" lon="43.07201">
        <ele>951.868144</ele>
        <time>2021-08-16T21:24:21.277Z</time>
      </trkpt>
      <trkpt lat="41.68182" lon="43.07221">
        <ele>951.546244</ele>
        <time>2021-08-16T21:24:24.699Z</time>
      </trkpt>
      <trkpt lat="41.68173" lon="43.07252">
        <ele>951.12788</ele>
        <time>2021-08-16T21:24:28.700Z</time>
      </trkpt>
      <trkpt lat="41.68143" lon="43.07328">
        <ele>948.234496</ele>
        <time>2021-08-16T21:24:39.284Z</time>
      </trkpt>
      <trkpt lat="41.68093" lon="43.07379">
        <ele>945.360089</ele>
        <time>2021-08-16T21:24:49.197Z</time>
      </trkpt>
      <trkpt lat="41.68078" lon="43.07388">
        <ele>944.604041</ele>
        <time>2021-08-16T21:24:51.688Z</time>
      </trkpt>
      <trkpt lat="41.68059" lon="43.07391">
        <ele>943.709951</ele>
        <time>2021-08-16T21:24:54.733Z</time>
      </trkpt>
      <trkpt lat="41.68038" lon="43.07386">
        <ele>942.766844</ele>
        <time>2021-08-16T21:24:58.096Z</time>
      </trkpt>
      <trkpt lat="41.68022" lon="43.07371">
        <ele>942.158307</ele>
        <time>2021-08-16T21:25:01.282Z</time>
      </trkpt>
      <trkpt lat="41.67995" lon="43.07325">
        <ele>940.812861</ele>
        <time>2021-08-16T21:25:08.533Z</time>
      </trkpt>
      <trkpt lat="41.67977" lon="43.07303">
        <ele>940.075586</ele>
        <time>2021-08-16T21:25:12.550Z</time>
      </trkpt>
      <trkpt lat="41.67948" lon="43.07277">
        <ele>938.996298</ele>
        <time>2021-08-16T21:25:18.683Z</time>
      </trkpt>
      <trkpt lat="41.67919" lon="43.07254">
        <ele>937.966452</ele>
        <time>2021-08-16T21:25:24.794Z</time>
      </trkpt>
      <trkpt lat="41.67886" lon="43.07216">
        <ele>937.289483</ele>
        <time>2021-08-16T21:25:33.098Z</time>
      </trkpt>
      <trkpt lat="41.67773" lon="43.0708">
        <ele>937.352313</ele>
        <time>2021-08-16T21:26:09.060Z</time>
      </trkpt>
      <trkpt lat="41.67762" lon="43.07068">
        <ele>937.416589</ele>
        <time>2021-08-16T21:26:13.352Z</time>
      </trkpt>
      <trkpt lat="41.67692" lon="43.07022">
        <ele>938.050932</ele>
        <time>2021-08-16T21:26:34.923Z</time>
      </trkpt>
      <trkpt lat="41.67675" lon="43.07001">
        <ele>938.246783</ele>
        <time>2021-08-16T21:26:41.651Z</time>
      </trkpt>
      <trkpt lat="41.67607" lon="43.06824">
        <ele>938.735183</ele>
        <time>2021-08-16T21:27:19.130Z</time>
      </trkpt>
      <trkpt lat="41.67566" lon="43.06782">
        <ele>938.675403</ele>
        <time>2021-08-16T21:27:30.154Z</time>
      </trkpt>
      <trkpt lat="41.67557" lon="43.06771">
        <ele>938.660474</ele>
        <time>2021-08-16T21:27:32.746Z</time>
      </trkpt>
      <trkpt lat="41.67539" lon="43.06749">
        <ele>938.6331</ele>
        <time>2021-08-16T21:27:37.632Z</time>
      </trkpt>
      <trkpt lat="41.67508" lon="43.06696">
        <ele>938.173134</ele>
        <time>2021-08-16T21:27:47.488Z</time>
      </trkpt>
      <trkpt lat="41.67415" lon="43.06524">
        <ele>936.340996</ele>
        <time>2021-08-16T21:28:17.982Z</time>
      </trkpt>
      <trkpt lat="41.67405" lon="43.06505">
        <ele>936.290384</ele>
        <time>2021-08-16T21:28:21.399Z</time>
      </trkpt>
      <trkpt lat="41.67382" lon="43.06464">
        <ele>936.18018</ele>
        <time>2021-08-16T21:28:29.285Z</time>
      </trkpt>
      <trkpt lat="41.67318" lon="43.0637">
        <ele>935.904419</ele>
        <time>2021-08-16T21:28:50.399Z</time>
      </trkpt>
      <trkpt lat="41.67246" lon="43.06252">
        <ele>937.017484</ele>
        <time>2021-08-16T21:29:20.991Z</time>
      </trkpt>
      <trkpt lat="41.67167" lon="43.06108">
        <ele>938.990771</ele>
        <time>2021-08-16T21:30:01.336Z</time>
      </trkpt>
      <trkpt lat="41.67004" lon="43.05801">
        <ele>944.847356</ele>
        <time>2021-08-16T21:31:34.377Z</time>
      </trkpt>
      <trkpt lat="41.66885" lon="43.05589">
        <ele>949.189195</ele>
        <time>2021-08-16T21:32:40.620Z</time>
      </trkpt>
      <trkpt lat="41.66721" lon="43.05307">
        <ele>954.280531</ele>
        <time>2021-08-16T21:34:04.934Z</time>
      </trkpt>
      <trkpt lat="41.6671" lon="43.05285">
        <ele>954.669756</ele>
        <time>2021-08-16T21:34:11.483Z</time>
      </trkpt>
      <trkpt lat="41.66701" lon="43.05265">
        <ele>955.002634</ele>
        <time>2021-08-16T21:34:16.800Z</time>
      </trkpt>
      <trkpt lat="41.66674" lon="43.05166">
        <ele>956.540647</ele>
        <time>2021-08-16T21:34:42.254Z</time>
      </trkpt>
      <trkpt lat="41.6659" lon="43.0462">
        <ele>965.255713</ele>
        <time>2021-08-16T21:36:57.557Z</time>
      </trkpt>
      <trkpt lat="41.66584" lon="43.04594">
        <ele>965.743448</ele>
        <time>2021-08-16T21:37:04.652Z</time>
      </trkpt>
      <trkpt lat="41.66569" lon="43.04558">
        <ele>966.474517</ele>
        <time>2021-08-16T21:37:15.262Z</time>
      </trkpt>
      <trkpt lat="41.66433" lon="43.04317">
        <ele>972.217963</ele>
        <time>2021-08-16T21:38:36.059Z</time>
      </trkpt>
      <trkpt lat="41.66381" lon="43.04209">
        <ele>973.531591</ele>
        <time>2021-08-16T21:39:06.991Z</time>
      </trkpt>
      <trkpt lat="41.66134" lon="43.03648">
        <ele>978.439195</ele>
        <time>2021-08-16T21:41:18.677Z</time>
      </trkpt>
      <trkpt lat="41.66083" lon="43.03502">
        <ele>978.000943</ele>
        <time>2021-08-16T21:41:44.048Z</time>
      </trkpt>
      <trkpt lat="41.65961" lon="43.03159">
        <ele>975.057297</ele>
        <time>2021-08-16T21:42:37.576Z</time>
      </trkpt>
      <trkpt lat="41.65889" lon="43.02955">
        <ele>976.11464</ele>
        <time>2021-08-16T21:43:26.482Z</time>
      </trkpt>
      <trkpt lat="41.65771" lon="43.02651">
        <ele>979.756343</ele>
        <time>2021-08-16T21:44:44.386Z</time>
      </trkpt>
      <trkpt lat="41.6572" lon="43.02499">
        <ele>980.673279</ele>
        <time>2021-08-16T21:45:14.511Z</time>
      </trkpt>
      <trkpt lat="41.65719" lon="43.02495">
        <ele>980.689741</ele>
        <time>2021-08-16T21:45:15.269Z</time>
      </trkpt>
      <trkpt lat="41.65674" lon="43.02357">
        <ele>981.366214</ele>
        <time>2021-08-16T21:45:42.466Z</time>
      </trkpt>
      <trkpt lat="41.65657" lon="43.02302">
        <ele>981.859995</ele>
        <time>2021-08-16T21:45:54.976Z</time>
      </trkpt>
      <trkpt lat="41.6564" lon="43.0225">
        <ele>982.321404</ele>
        <time>2021-08-16T21:46:07.135Z</time>
      </trkpt>
      <trkpt lat="41.65616" lon="43.02192">
        <ele>982.865939</ele>
        <time>2021-08-16T21:46:21.621Z</time>
      </trkpt>
      <trkpt lat="41.65601" lon="43.02153">
        <ele>983.161287</ele>
        <time>2021-08-16T21:46:31.228Z</time>
      </trkpt>
      <trkpt lat="41.65559" lon="43.02052">
        <ele>983.611603</ele>
        <time>2021-08-16T21:46:55.227Z</time>
      </trkpt>
      <trkpt lat="41.654" lon="43.01729">
        <ele>983.260165</ele>
        <time>2021-08-16T21:47:57.247Z</time>
      </trkpt>
      <trkpt lat="41.65275" lon="43.01476">
        <ele>982.480236</ele>
        <time>2021-08-16T21:48:43.457Z</time>
      </trkpt>
      <trkpt lat="41.65231" lon="43.01386">
        <ele>982.716135</ele>
        <time>2021-08-16T21:49:05.155Z</time>
      </trkpt>
      <trkpt lat="41.65223" lon="43.01368">
        <ele>982.76112</ele>
        <time>2021-08-16T21:49:09.552Z</time>
      </trkpt>
      <trkpt lat="41.65224" lon="43.01358">
        <ele>982.783817</ele>
        <time>2021-08-16T21:49:12.186Z</time>
      </trkpt>
      <trkpt lat="41.65222" lon="43.01323">
        <ele>982.88983</ele>
        <time>2021-08-16T21:49:19.723Z</time>
      </trkpt>
      <trkpt lat="41.65157" lon="43.01186">
        <ele>983.392871</ele>
        <time>2021-08-16T21:49:53.035Z</time>
      </trkpt>
      <trkpt lat="41.65134" lon="43.0115">
        <ele>983.521683</ele>
        <time>2021-08-16T21:50:00.644Z</time>
      </trkpt>
      <trkpt lat="41.65108" lon="43.01089">
        <ele>982.465125</ele>
        <time>2021-08-16T21:50:11.113Z</time>
      </trkpt>
      <trkpt lat="41.65035" lon="43.0095">
        <ele>979.907918</ele>
        <time>2021-08-16T21:50:34.780Z</time>
      </trkpt>
      <trkpt lat="41.65009" lon="43.00892">
        <ele>978.712052</ele>
        <time>2021-08-16T21:50:44.081Z</time>
      </trkpt>
      <trkpt lat="41.64964" lon="43.00796">
        <ele>976.708358</ele>
        <time>2021-08-16T21:51:00.245Z</time>
      </trkpt>
      <trkpt lat="41.64947" lon="43.00807">
        <ele>976.270836</ele>
        <time>2021-08-16T21:51:03.649Z</time>
      </trkpt>
      <trkpt lat="41.64939" lon="43.00797">
        <ele>976.017761</ele>
        <time>2021-08-16T21:51:05.637Z</time>
      </trkpt>
      <trkpt lat="41.64898" lon="43.00716">
        <ele>974.103163</ele>
        <time>2021-08-16T21:51:18.686Z</time>
      </trkpt>
      <trkpt lat="41.6488" lon="43.00664">
        <ele>972.959733</ele>
        <time>2021-08-16T21:51:26.266Z</time>
      </trkpt>
      <trkpt lat="41.6487" lon="43.00635">
        <ele>972.320094</ele>
        <time>2021-08-16T21:51:30.451Z</time>
      </trkpt>
      <trkpt lat="41.64865" lon="43.00614">
        <ele>971.885564</ele>
        <time>2021-08-16T21:51:33.372Z</time>
      </trkpt>
      <trkpt lat="41.64855" lon="43.00572">
        <ele>971.000055</ele>
        <time>2021-08-16T21:51:39.238Z</time>
      </trkpt>
      <trkpt lat="41.64738" lon="43.00262">
        <ele>963.107463</ele>
        <time>2021-08-16T21:52:23.931Z</time>
      </trkpt>
      <trkpt lat="41.64729" lon="43.00242">
        <ele>962.588068</ele>
        <time>2021-08-16T21:52:26.817Z</time>
      </trkpt>
      <trkpt lat="41.64695" lon="43.00202">
        <ele>961.181804</ele>
        <time>2021-08-16T21:52:34.622Z</time>
      </trkpt>
      <trkpt lat="41.6469" lon="43.00197">
        <ele>960.993957</ele>
        <time>2021-08-16T21:52:35.548Z</time>
      </trkpt>
      <trkpt lat="41.64664" lon="43.00173">
        <ele>960.022709</ele>
        <time>2021-08-16T21:52:41.172Z</time>
      </trkpt>
      <trkpt lat="41.64644" lon="43.00143">
        <ele>959.459634</ele>
        <time>2021-08-16T21:52:46.412Z</time>
      </trkpt>
      <trkpt lat="41.64643" lon="43.00139">
        <ele>959.408251</ele>
        <time>2021-08-16T21:52:47.046Z</time>
      </trkpt>
      <trkpt lat="41.64641" lon="43.00136">
        <ele>959.356221</ele>
        <time>2021-08-16T21:52:47.600Z</time>
      </trkpt>
      <trkpt lat="41.64639" lon="43.00133">
        <ele>959.303696</ele>
        <time>2021-08-16T21:52:48.080Z</time>
      </trkpt>
      <trkpt lat="41.64627" lon="43.00136">
        <ele>959.108688</ele>
        <time>2021-08-16T21:52:50.315Z</time>
      </trkpt>
      <trkpt lat="41.64626" lon="43.00138">
        <ele>959.07989</ele>
        <time>2021-08-16T21:52:50.587Z</time>
      </trkpt>
      <trkpt lat="41.64626" lon="43.0014">
        <ele>959.056369</ele>
        <time>2021-08-16T21:52:50.845Z</time>
      </trkpt>
      <trkpt lat="41.64617" lon="43.00149">
        <ele>958.873403</ele>
        <time>2021-08-16T21:52:52.983Z</time>
      </trkpt>
      <trkpt lat="41.64601" lon="43.00164">
        <ele>958.557178</ele>
        <time>2021-08-16T21:52:56.442Z</time>
      </trkpt>
      <trkpt lat="41.64592" lon="43.00168">
        <ele>958.404422</ele>
        <time>2021-08-16T21:52:58.114Z</time>
      </trkpt>
      <trkpt lat="41.64508" lon="43.00211">
        <ele>956.933974</ele>
        <time>2021-08-16T21:53:15.741Z</time>
      </trkpt>
      <trkpt lat="41.64455" lon="43.00242">
        <ele>957.605048</ele>
        <time>2021-08-16T21:53:30.351Z</time>
      </trkpt>
      <trkpt lat="41.64443" lon="43.00246">
        <ele>957.751778</ele>
        <time>2021-08-16T21:53:34.058Z</time>
      </trkpt>
      <trkpt lat="41.64432" lon="43.00251">
        <ele>957.894749</ele>
        <time>2021-08-16T21:53:37.567Z</time>
      </trkpt>
      <trkpt lat="41.64425" lon="43.00254">
        <ele>957.982755</ele>
        <time>2021-08-16T21:53:39.787Z</time>
      </trkpt>
      <trkpt lat="41.64421" lon="43.00253">
        <ele>958.030642</ele>
        <time>2021-08-16T21:53:40.997Z</time>
      </trkpt>
      <trkpt lat="41.64417" lon="43.00255">
        <ele>958.078682</ele>
        <time>2021-08-16T21:53:42.235Z</time>
      </trkpt>
      <trkpt lat="41.64402" lon="43.00251">
        <ele>958.254555</ele>
        <time>2021-08-16T21:53:46.776Z</time>
      </trkpt>
      <trkpt lat="41.64389" lon="43.00251">
        <ele>958.404629</ele>
        <time>2021-08-16T21:53:50.614Z</time>
      </trkpt>
      <trkpt lat="41.64353" lon="43.00243">
        <ele>958.844382</ele>
        <time>2021-08-16T21:54:02.241Z</time>
      </trkpt>
      <trkpt lat="41.64297" lon="43.00233">
        <ele>959.818953</ele>
        <time>2021-08-16T21:54:20.901Z</time>
      </trkpt>
      <trkpt lat="41.64262" lon="43.00227">
        <ele>960.521426</ele>
        <time>2021-08-16T21:54:32.781Z</time>
      </trkpt>
      <trkpt lat="41.64246" lon="43.00222">
        <ele>960.853001</ele>
        <time>2021-08-16T21:54:38.336Z</time>
      </trkpt>
      <trkpt lat="41.64212" lon="43.00216">
        <ele>961.540416</ele>
        <time>2021-08-16T21:54:49.754Z</time>
      </trkpt>
      <trkpt lat="41.64211" lon="43.00154">
        <ele>962.456132</ele>
        <time>2021-08-16T21:55:04.973Z</time>
      </trkpt>
      <trkpt lat="41.6417" lon="42.99911">
        <ele>964.625427</ele>
        <time>2021-08-16T21:55:58.874Z</time>
      </trkpt>
      <trkpt lat="41.64175" lon="42.99882">
        <ele>964.692817</ele>
        <time>2021-08-16T21:56:04.521Z</time>
      </trkpt>
      <trkpt lat="41.64165" lon="42.99824">
        <ele>964.77049</ele>
        <time>2021-08-16T21:56:15.477Z</time>
      </trkpt>
      <trkpt lat="41.6417" lon="42.99753">
        <ele>964.863771</ele>
        <time>2021-08-16T21:56:27.729Z</time>
      </trkpt>
      <trkpt lat="41.64177" lon="42.99664">
        <ele>965.004723</ele>
        <time>2021-08-16T21:56:42.898Z</time>
      </trkpt>
      <trkpt lat="41.64183" lon="42.99572">
        <ele>965.573957</ele>
        <time>2021-08-16T21:56:59.390Z</time>
      </trkpt>
      <trkpt lat="41.64076" lon="42.99555">
        <ele>966.478313</ele>
        <time>2021-08-16T21:57:29.602Z</time>
      </trkpt>
      <trkpt lat="41.63968" lon="42.99537">
        <ele>970.343731</ele>
        <time>2021-08-16T21:58:11.379Z</time>
      </trkpt>
      <trkpt lat="41.63975" lon="42.9946">
        <ele>972.397148</ele>
        <time>2021-08-16T21:58:39.712Z</time>
      </trkpt>
      <trkpt lat="41.63863" lon="42.99465">
        <ele>978.024789</ele>
        <time>2021-08-16T21:59:31.045Z</time>
      </trkpt>
      <trkpt lat="41.6388" lon="42.99406">
        <ele>980.472692</ele>
        <time>2021-08-16T21:59:55.124Z</time>
      </trkpt>
      <trkpt lat="41.63908" lon="42.99315">
        <ele>983.746138</ele>
        <time>2021-08-16T22:00:33.467Z</time>
      </trkpt>
      <trkpt lat="41.63914" lon="42.99282">
        <ele>984.709491</ele>
        <time>2021-08-16T22:00:44.895Z</time>
      </trkpt>
      <trkpt lat="41.6386" lon="42.99256">
        <ele>986.880472</ele>
        <time>2021-08-16T22:01:07.591Z</time>
      </trkpt>
      <trkpt lat="41.63796" lon="42.99225">
        <ele>989.175223</ele>
        <time>2021-08-16T22:01:33.015Z</time>
      </trkpt>
      <trkpt lat="41.63835" lon="42.99083">
        <ele>990.115801</ele>
        <time>2021-08-16T22:02:05.603Z</time>
      </trkpt>
      <trkpt lat="41.63878" lon="42.98932">
        <ele>990.372804</ele>
        <time>2021-08-16T22:02:31.886Z</time>
      </trkpt>
      <trkpt lat="41.63915" lon="42.98802">
        <ele>990.03843</ele>
        <time>2021-08-16T22:02:54.746Z</time>
      </trkpt>
      <trkpt lat="41.63934" lon="42.98733">
        <ele>989.968594</ele>
        <time>2021-08-16T22:03:05.773Z</time>
      </trkpt>
      <trkpt lat="41.63959" lon="42.98641">
        <ele>989.90873</ele>
        <time>2021-08-16T22:03:21.690Z</time>
      </trkpt>
      <trkpt lat="41.6398" lon="42.98569">
        <ele>989.861846</ele>
        <time>2021-08-16T22:03:35.167Z</time>
      </trkpt>
      <trkpt lat="41.63976" lon="42.98564">
        <ele>989.857307</ele>
        <time>2021-08-16T22:03:36.400Z</time>
      </trkpt>
      <trkpt lat="41.63967" lon="42.98559">
        <ele>989.963119</ele>
        <time>2021-08-16T22:03:39.599Z</time>
      </trkpt>
      <trkpt lat="41.63962" lon="42.98557">
        <ele>990.028141</ele>
        <time>2021-08-16T22:03:40.758Z</time>
      </trkpt>
      <trkpt lat="41.63943" lon="42.9858">
        <ele>990.315398</ele>
        <time>2021-08-16T22:03:46.815Z</time>
      </trkpt>
      <trkpt lat="41.6394" lon="42.98583">
        <ele>990.358333</ele>
        <time>2021-08-16T22:03:48.333Z</time>
      </trkpt>
      <trkpt lat="41.6391" lon="42.98618">
        <ele>990.813118</ele>
        <time>2021-08-16T22:03:58.355Z</time>
      </trkpt>
      <trkpt lat="41.63882" lon="42.9866">
        <ele>991.285188</ele>
        <time>2021-08-16T22:04:09.518Z</time>
      </trkpt>
      <trkpt lat="41.63868" lon="42.98706">
        <ele>991.707983</ele>
        <time>2021-08-16T22:04:21.183Z</time>
      </trkpt>
      <trkpt lat="41.6385" lon="42.98767">
        <ele>992.326034</ele>
        <time>2021-08-16T22:04:38.707Z</time>
      </trkpt>
      <trkpt lat="41.63811" lon="42.98903">
        <ele>993.745488</ele>
        <time>2021-08-16T22:05:12.026Z</time>
      </trkpt>
      <trkpt lat="41.63809" lon="42.98924">
        <ele>993.953847</ele>
        <time>2021-08-16T22:05:15.968Z</time>
      </trkpt>
      <trkpt lat="41.6378" lon="42.99028">
        <ele>993.636711</ele>
        <time>2021-08-16T22:05:34.115Z</time>
      </trkpt>
      <trkpt lat="41.63773" lon="42.99051">
        <ele>993.443377</ele>
        <time>2021-08-16T22:05:38.572Z</time>
      </trkpt>
      <trkpt lat="41.63835" lon="42.99083">
        <ele>992.75384</ele>
        <time>2021-08-16T22:05:52.914Z</time>
      </trkpt>
      <trkpt lat="41.63796" lon="42.99225">
        <ele>989.938942</ele>
        <time>2021-08-16T22:06:13.248Z</time>
      </trkpt>
      <trkpt lat="41.6386" lon="42.99256">
        <ele>987.803876</ele>
        <time>2021-08-16T22:06:25.416Z</time>
      </trkpt>
      <trkpt lat="41.63914" lon="42.99282">
        <ele>986.266335</ele>
        <time>2021-08-16T22:06:35.508Z</time>
      </trkpt>
      <trkpt lat="41.63908" lon="42.99315">
        <ele>985.722012</ele>
        <time>2021-08-16T22:06:39.964Z</time>
      </trkpt>
      <trkpt lat="41.6388" lon="42.99406">
        <ele>984.135291</ele>
        <time>2021-08-16T22:06:53.046Z</time>
      </trkpt>
      <trkpt lat="41.63863" lon="42.99465">
        <ele>983.121853</ele>
        <time>2021-08-16T22:07:02.075Z</time>
      </trkpt>
      <trkpt lat="41.63858" lon="42.99504">
        <ele>982.778869</ele>
        <time>2021-08-16T22:07:08.660Z</time>
      </trkpt>
      <trkpt lat="41.63855" lon="42.99691">
        <ele>981.868186</ele>
        <time>2021-08-16T22:07:38.084Z</time>
      </trkpt>
      <trkpt lat="41.63844" lon="42.99749">
        <ele>981.491338</ele>
        <time>2021-08-16T22:07:46.948Z</time>
      </trkpt>
      <trkpt lat="41.63833" lon="42.99821">
        <ele>980.949878</ele>
        <time>2021-08-16T22:07:57.661Z</time>
      </trkpt>
      <trkpt lat="41.63832" lon="42.99884">
        <ele>980.482293</ele>
        <time>2021-08-16T22:08:07.116Z</time>
      </trkpt>
      <trkpt lat="41.63831" lon="42.99927">
        <ele>980.165698</ele>
        <time>2021-08-16T22:08:13.569Z</time>
      </trkpt>
      <trkpt lat="41.6383" lon="42.99959">
        <ele>979.911391</ele>
        <time>2021-08-16T22:08:18.414Z</time>
      </trkpt>
      <trkpt lat="41.6383" lon="43.00003">
        <ele>979.358877</ele>
        <time>2021-08-16T22:08:24.951Z</time>
      </trkpt>
      <trkpt lat="41.63831" lon="43.00033">
        <ele>978.982567</ele>
        <time>2021-08-16T22:08:29.412Z</time>
      </trkpt>
      <trkpt lat="41.63834" lon="43.00062">
        <ele>978.614531</ele>
        <time>2021-08-16T22:08:33.867Z</time>
      </trkpt>
      <trkpt lat="41.63841" lon="43.00143">
        <ele>977.59993</ele>
        <time>2021-08-16T22:08:45.502Z</time>
      </trkpt>
      <trkpt lat="41.63846" lon="43.0021">
        <ele>976.495091</ele>
        <time>2021-08-16T22:08:54.331Z</time>
      </trkpt>
      <trkpt lat="41.63853" lon="43.00299">
        <ele>973.924837</ele>
        <time>2021-08-16T22:09:05.625Z</time>
      </trkpt>
      <trkpt lat="41.63853" lon="43.00303">
        <ele>973.820662</ele>
        <time>2021-08-16T22:09:06.010Z</time>
      </trkpt>
      <trkpt lat="41.6386" lon="43.00406">
        <ele>970.828444</ele>
        <time>2021-08-16T22:09:18.526Z</time>
      </trkpt>
      <trkpt lat="41.63877" lon="43.00681">
        <ele>963.433372</ele>
        <time>2021-08-16T22:09:52.867Z</time>
      </trkpt>
      <trkpt lat="41.63878" lon="43.00694">
        <ele>963.26593</ele>
        <time>2021-08-16T22:09:54.639Z</time>
      </trkpt>
      <trkpt lat="41.63914" lon="43.01183">
        <ele>958.543684</ele>
        <time>2021-08-16T22:11:06.327Z</time>
      </trkpt>
      <trkpt lat="41.63936" lon="43.01461">
        <ele>960.335473</ele>
        <time>2021-08-16T22:11:57.721Z</time>
      </trkpt>
      <trkpt lat="41.63944" lon="43.01485">
        <ele>960.884944</ele>
        <time>2021-08-16T22:12:04.578Z</time>
      </trkpt>
      <trkpt lat="41.63941" lon="43.01488">
        <ele>960.982336</ele>
        <time>2021-08-16T22:12:06.027Z</time>
      </trkpt>
      <trkpt lat="41.63939" lon="43.01496">
        <ele>961.178757</ele>
        <time>2021-08-16T22:12:08.612Z</time>
      </trkpt>
      <trkpt lat="41.63939" lon="43.01501">
        <ele>961.277049</ele>
        <time>2021-08-16T22:12:10.056Z</time>
      </trkpt>
      <trkpt lat="41.63941" lon="43.01505">
        <ele>961.377871</ele>
        <time>2021-08-16T22:12:11.277Z</time>
      </trkpt>
      <trkpt lat="41.63944" lon="43.01508">
        <ele>961.47885</ele>
        <time>2021-08-16T22:12:12.737Z</time>
      </trkpt>
      <trkpt lat="41.63947" lon="43.01509">
        <ele>961.577141</ele>
        <time>2021-08-16T22:12:13.945Z</time>
      </trkpt>
      <trkpt lat="41.63944" lon="43.01531">
        <ele>962.050966</ele>
        <time>2021-08-16T22:12:20.993Z</time>
      </trkpt>
      <trkpt lat="41.63945" lon="43.0155">
        <ele>962.464186</ele>
        <time>2021-08-16T22:12:27.084Z</time>
      </trkpt>
      <trkpt lat="41.63946" lon="43.01562">
        <ele>962.715622</ele>
        <time>2021-08-16T22:12:30.625Z</time>
      </trkpt>
      <trkpt lat="41.63954" lon="43.0164">
        <ele>964.617335</ele>
        <time>2021-08-16T22:12:56.942Z</time>
      </trkpt>
      <trkpt lat="41.63961" lon="43.01696">
        <ele>966.522383</ele>
        <time>2021-08-16T22:13:16.619Z</time>
      </trkpt>
      <trkpt lat="41.63966" lon="43.01737">
        <ele>967.910577</ele>
        <time>2021-08-16T22:13:31.222Z</time>
      </trkpt>
      <trkpt lat="41.63987" lon="43.01869">
        <ele>972.255874</ele>
        <time>2021-08-16T22:14:18.167Z</time>
      </trkpt>
      <trkpt lat="41.64016" lon="43.02065">
        <ele>975.432186</ele>
        <time>2021-08-16T22:15:06.303Z</time>
      </trkpt>
      <trkpt lat="41.64029" lon="43.02113">
        <ele>976.016387</ele>
        <time>2021-08-16T22:15:15.742Z</time>
      </trkpt>
      <trkpt lat="41.64041" lon="43.02158">
        <ele>976.255728</ele>
        <time>2021-08-16T22:15:24.905Z</time>
      </trkpt>
      <trkpt lat="41.64051" lon="43.02189">
        <ele>976.420567</ele>
        <time>2021-08-16T22:15:30.477Z</time>
      </trkpt>
      <trkpt lat="41.64063" lon="43.02221">
        <ele>976.598206</ele>
        <time>2021-08-16T22:15:37.106Z</time>
      </trkpt>
      <trkpt lat="41.64085" lon="43.02261">
        <ele>976.842935</ele>
        <time>2021-08-16T22:15:46.230Z</time>
      </trkpt>
      <trkpt lat="41.641" lon="43.02281">
        <ele>976.980043</ele>
        <time>2021-08-16T22:15:52.239Z</time>
      </trkpt>
      <trkpt lat="41.64145" lon="43.0235">
        <ele>977.985129</ele>
        <time>2021-08-16T22:16:09.680Z</time>
      </trkpt>
      <trkpt lat="41.64162" lon="43.024">
        <ele>978.720354</ele>
        <time>2021-08-16T22:16:22.393Z</time>
      </trkpt>
      <trkpt lat="41.64184" lon="43.02489">
        <ele>979.968793</ele>
        <time>2021-08-16T22:16:46.340Z</time>
      </trkpt>
      <trkpt lat="41.64206" lon="43.02565">
        <ele>981.649345</ele>
        <time>2021-08-16T22:17:07.678Z</time>
      </trkpt>
      <trkpt lat="41.64211" lon="43.02606">
        <ele>982.634495</ele>
        <time>2021-08-16T22:17:18.850Z</time>
      </trkpt>
      <trkpt lat="41.64202" lon="43.02644">
        <ele>983.589155</ele>
        <time>2021-08-16T22:17:29.919Z</time>
      </trkpt>
      <trkpt lat="41.64096" lon="43.02806">
        <ele>988.966759</ele>
        <time>2021-08-16T22:18:37.177Z</time>
      </trkpt>
      <trkpt lat="41.64005" lon="43.02952">
        <ele>992.917695</ele>
        <time>2021-08-16T22:19:31.124Z</time>
      </trkpt>
      <trkpt lat="41.63978" lon="43.02999">
        <ele>993.54401</ele>
        <time>2021-08-16T22:19:44.869Z</time>
      </trkpt>
      <trkpt lat="41.6395" lon="43.03056">
        <ele>994.261834</ele>
        <time>2021-08-16T22:19:58.536Z</time>
      </trkpt>
      <trkpt lat="41.63889" lon="43.0321">
        <ele>994.651446</ele>
        <time>2021-08-16T22:20:26.453Z</time>
      </trkpt>
      <trkpt lat="41.63773" lon="43.03557">
        <ele>994.208364</ele>
        <time>2021-08-16T22:21:28.983Z</time>
      </trkpt>
      <trkpt lat="41.63694" lon="43.0383">
        <ele>992.529015</ele>
        <time>2021-08-16T22:22:15.282Z</time>
      </trkpt>
      <trkpt lat="41.63643" lon="43.03944">
        <ele>990.641055</ele>
        <time>2021-08-16T22:22:33.707Z</time>
      </trkpt>
      <trkpt lat="41.63623" lon="43.03982">
        <ele>989.556657</ele>
        <time>2021-08-16T22:22:39.470Z</time>
      </trkpt>
      <trkpt lat="41.636" lon="43.04017">
        <ele>987.322425</ele>
        <time>2021-08-16T22:22:45.016Z</time>
      </trkpt>
      <trkpt lat="41.63589" lon="43.04037">
        <ele>986.138409</ele>
        <time>2021-08-16T22:22:47.848Z</time>
      </trkpt>
      <trkpt lat="41.63582" lon="43.04057">
        <ele>985.094893</ele>
        <time>2021-08-16T22:22:50.380Z</time>
      </trkpt>
      <trkpt lat="41.63575" lon="43.04093">
        <ele>983.304481</ele>
        <time>2021-08-16T22:22:54.569Z</time>
      </trkpt>
      <trkpt lat="41.63563" lon="43.04148">
        <ele>980.53838</ele>
        <time>2021-08-16T22:23:00.963Z</time>
      </trkpt>
      <trkpt lat="41.63545" lon="43.04199">
        <ele>977.635931</ele>
        <time>2021-08-16T22:23:07.090Z</time>
      </trkpt>
      <trkpt lat="41.63525" lon="43.04239">
        <ele>974.602504</ele>
        <time>2021-08-16T22:23:12.371Z</time>
      </trkpt>
      <trkpt lat="41.63503" lon="43.0427">
        <ele>971.968826</ele>
        <time>2021-08-16T22:23:16.913Z</time>
      </trkpt>
      <trkpt lat="41.63469" lon="43.04298">
        <ele>968.7034</ele>
        <time>2021-08-16T22:23:22.640Z</time>
      </trkpt>
      <trkpt lat="41.63353" lon="43.0435">
        <ele>961.176379</ele>
        <time>2021-08-16T22:23:40.914Z</time>
      </trkpt>
      <trkpt lat="41.63329" lon="43.04362">
        <ele>960.102372</ele>
        <time>2021-08-16T22:23:45.090Z</time>
      </trkpt>
      <trkpt lat="41.63301" lon="43.04376">
        <ele>958.82822</ele>
        <time>2021-08-16T22:23:50.215Z</time>
      </trkpt>
      <trkpt lat="41.63276" lon="43.04388">
        <ele>957.721199</ele>
        <time>2021-08-16T22:23:54.872Z</time>
      </trkpt>
      <trkpt lat="41.63251" lon="43.044">
        <ele>956.616293</ele>
        <time>2021-08-16T22:23:59.754Z</time>
      </trkpt>
      <trkpt lat="41.63209" lon="43.0442">
        <ele>956.249069</ele>
        <time>2021-08-16T22:24:08.624Z</time>
      </trkpt>
      <trkpt lat="41.63141" lon="43.04482">
        <ele>956.279964</ele>
        <time>2021-08-16T22:24:28.388Z</time>
      </trkpt>
      <trkpt lat="41.63075" lon="43.04614">
        <ele>956.981894</ele>
        <time>2021-08-16T22:24:59.041Z</time>
      </trkpt>
      <trkpt lat="41.6301" lon="43.047">
        <ele>958.074973</ele>
        <time>2021-08-16T22:25:26.648Z</time>
      </trkpt>
      <trkpt lat="41.62996" lon="43.04715">
        <ele>958.286319</ele>
        <time>2021-08-16T22:25:32.335Z</time>
      </trkpt>
      <trkpt lat="41.62972" lon="43.04744">
        <ele>958.360883</ele>
        <time>2021-08-16T22:25:42.873Z</time>
      </trkpt>
      <trkpt lat="41.62902" lon="43.04851">
        <ele>957.798692</ele>
        <time>2021-08-16T22:26:04.926Z</time>
      </trkpt>
      <trkpt lat="41.62879" lon="43.04886">
        <ele>957.617156</ele>
        <time>2021-08-16T22:26:11.759Z</time>
      </trkpt>
      <trkpt lat="41.62825" lon="43.04964">
        <ele>956.487617</ele>
        <time>2021-08-16T22:26:26.142Z</time>
      </trkpt>
      <trkpt lat="41.62779" lon="43.04966">
        <ele>955.669896</ele>
        <time>2021-08-16T22:26:34.637Z</time>
      </trkpt>
      <trkpt lat="41.62731" lon="43.04966">
        <ele>954.840288</ele>
        <time>2021-08-16T22:26:43.049Z</time>
      </trkpt>
      <trkpt lat="41.6263" lon="43.04932">
        <ele>954.283574</ele>
        <time>2021-08-16T22:27:05.350Z</time>
      </trkpt>
      <trkpt lat="41.62575" lon="43.04934">
        <ele>954.224187</ele>
        <time>2021-08-16T22:27:18.168Z</time>
      </trkpt>
      <trkpt lat="41.62545" lon="43.04928">
        <ele>954.190934</ele>
        <time>2021-08-16T22:27:25.361Z</time>
      </trkpt>
      <trkpt lat="41.62506" lon="43.04933">
        <ele>954.357638</ele>
        <time>2021-08-16T22:27:34.755Z</time>
      </trkpt>
      <trkpt lat="41.62487" lon="43.04922">
        <ele>954.5244</ele>
        <time>2021-08-16T22:27:39.537Z</time>
      </trkpt>
      <trkpt lat="41.62466" lon="43.04879">
        <ele>954.847905</ele>
        <time>2021-08-16T22:27:49.032Z</time>
      </trkpt>
      <trkpt lat="41.62456" lon="43.04847">
        <ele>955.060981</ele>
        <time>2021-08-16T22:27:55.671Z</time>
      </trkpt>
      <trkpt lat="41.62447" lon="43.04783">
        <ele>955.469635</ele>
        <time>2021-08-16T22:28:09.275Z</time>
      </trkpt>
      <trkpt lat="41.62448" lon="43.04708">
        <ele>956.268261</ele>
        <time>2021-08-16T22:28:26.096Z</time>
      </trkpt>
      <trkpt lat="41.62432" lon="43.04598">
        <ele>957.851692</ele>
        <time>2021-08-16T22:28:53.031Z</time>
      </trkpt>
      <trkpt lat="41.6242" lon="43.04561">
        <ele>958.423649</ele>
        <time>2021-08-16T22:29:02.988Z</time>
      </trkpt>
      <trkpt lat="41.6236" lon="43.04461">
        <ele>960.215025</ele>
        <time>2021-08-16T22:29:34.484Z</time>
      </trkpt>
      <trkpt lat="41.62347" lon="43.04404">
        <ele>961.06431</ele>
        <time>2021-08-16T22:29:49.063Z</time>
      </trkpt>
      <trkpt lat="41.62332" lon="43.0437">
        <ele>961.612218</ele>
        <time>2021-08-16T22:29:58.089Z</time>
      </trkpt>
      <trkpt lat="41.62309" lon="43.04341">
        <ele>962.206314</ele>
        <time>2021-08-16T22:30:07.668Z</time>
      </trkpt>
      <trkpt lat="41.62256" lon="43.04293">
        <ele>963.222137</ele>
        <time>2021-08-16T22:30:26.530Z</time>
      </trkpt>
      <trkpt lat="41.62232" lon="43.04231">
        <ele>964.000134</ele>
        <time>2021-08-16T22:30:42.114Z</time>
      </trkpt>
      <trkpt lat="41.62196" lon="43.04157">
        <ele>965.001603</ele>
        <time>2021-08-16T22:31:01.795Z</time>
      </trkpt>
      <trkpt lat="41.62182" lon="43.04138">
        <ele>965.319316</ele>
        <time>2021-08-16T22:31:07.439Z</time>
      </trkpt>
      <trkpt lat="41.62167" lon="43.04119">
        <ele>965.683257</ele>
        <time>2021-08-16T22:31:13.605Z</time>
      </trkpt>
      <trkpt lat="41.6215" lon="43.04104">
        <ele>966.045908</ele>
        <time>2021-08-16T22:31:19.747Z</time>
      </trkpt>
      <trkpt lat="41.62049" lon="43.04044">
        <ele>967.968805</ele>
        <time>2021-08-16T22:31:54.073Z</time>
      </trkpt>
      <trkpt lat="41.61961" lon="43.03963">
        <ele>970.43546</ele>
        <time>2021-08-16T22:32:29.427Z</time>
      </trkpt>
      <trkpt lat="41.61932" lon="43.03949">
        <ele>971.189792</ele>
        <time>2021-08-16T22:32:40.246Z</time>
      </trkpt>
      <trkpt lat="41.61857" lon="43.03941">
        <ele>973.030484</ele>
        <time>2021-08-16T22:33:07.504Z</time>
      </trkpt>
      <trkpt lat="41.61795" lon="43.03913">
        <ele>974.674196</ele>
        <time>2021-08-16T22:33:31.387Z</time>
      </trkpt>
      <trkpt lat="41.61722" lon="43.03946">
        <ele>976.618395</ele>
        <time>2021-08-16T22:33:57.867Z</time>
      </trkpt>
      <trkpt lat="41.61694" lon="43.03939">
        <ele>977.318827</ele>
        <time>2021-08-16T22:34:07.492Z</time>
      </trkpt>
      <trkpt lat="41.61584" lon="43.03848">
        <ele>979.901035</ele>
        <time>2021-08-16T22:34:48.362Z</time>
      </trkpt>
      <trkpt lat="41.6153" lon="43.03829">
        <ele>981.091164</ele>
        <time>2021-08-16T22:35:05.788Z</time>
      </trkpt>
      <trkpt lat="41.61461" lon="43.03771">
        <ele>983.372295</ele>
        <time>2021-08-16T22:35:33.454Z</time>
      </trkpt>
      <trkpt lat="41.61233" lon="43.03784">
        <ele>990.916153</ele>
        <time>2021-08-16T22:37:03.626Z</time>
      </trkpt>
      <trkpt lat="41.61175" lon="43.03805">
        <ele>993.274198</ele>
        <time>2021-08-16T22:37:29.397Z</time>
      </trkpt>
      <trkpt lat="41.61077" lon="43.0387">
        <ele>998.171305</ele>
        <time>2021-08-16T22:38:16.258Z</time>
      </trkpt>
      <trkpt lat="41.61034" lon="43.03859">
        <ele>1000.113361</ele>
        <time>2021-08-16T22:38:36.545Z</time>
      </trkpt>
      <trkpt lat="41.6096" lon="43.03867">
        <ele>1004.713115</ele>
        <time>2021-08-16T22:39:15.130Z</time>
      </trkpt>
      <trkpt lat="41.60941" lon="43.03879">
        <ele>1005.977726</ele>
        <time>2021-08-16T22:39:26.004Z</time>
      </trkpt>
      <trkpt lat="41.60865" lon="43.03989">
        <ele>1012.870119</ele>
        <time>2021-08-16T22:40:29.645Z</time>
      </trkpt>
      <trkpt lat="41.60846" lon="43.04002">
        <ele>1014.055837</ele>
        <time>2021-08-16T22:40:42.014Z</time>
      </trkpt>
      <trkpt lat="41.60795" lon="43.03999">
        <ele>1016.828323</ele>
        <time>2021-08-16T22:41:09.957Z</time>
      </trkpt>
      <trkpt lat="41.60762" lon="43.04018">
        <ele>1018.821374</ele>
        <time>2021-08-16T22:41:28.448Z</time>
      </trkpt>
      <trkpt lat="41.60747" lon="43.04044">
        <ele>1020.17956</ele>
        <time>2021-08-16T22:41:39.792Z</time>
      </trkpt>
      <trkpt lat="41.60737" lon="43.04095">
        <ele>1021.760138</ele>
        <time>2021-08-16T22:41:55.086Z</time>
      </trkpt>
      <trkpt lat="41.60725" lon="43.04191">
        <ele>1022.672282</ele>
        <time>2021-08-16T22:42:15.781Z</time>
      </trkpt>
      <trkpt lat="41.60727" lon="43.04248">
        <ele>1023.204815</ele>
        <time>2021-08-16T22:42:25.573Z</time>
      </trkpt>
      <trkpt lat="41.60722" lon="43.04277">
        <ele>1023.48397</ele>
        <time>2021-08-16T22:42:30.715Z</time>
      </trkpt>
      <trkpt lat="41.60705" lon="43.04287">
        <ele>1023.714947</ele>
        <time>2021-08-16T22:42:34.997Z</time>
      </trkpt>
      <trkpt lat="41.6066" lon="43.04274">
        <ele>1024.63864</ele>
        <time>2021-08-16T22:42:46.717Z</time>
      </trkpt>
      <trkpt lat="41.60625" lon="43.04278">
        <ele>1025.425028</ele>
        <time>2021-08-16T22:42:56.759Z</time>
      </trkpt>
      <trkpt lat="41.60555" lon="43.04292">
        <ele>1027.00678</ele>
        <time>2021-08-16T22:43:20.731Z</time>
      </trkpt>
      <trkpt lat="41.60528" lon="43.04306">
        <ele>1027.653227</ele>
        <time>2021-08-16T22:43:32.726Z</time>
      </trkpt>
      <trkpt lat="41.60475" lon="43.04312">
        <ele>1029.991992</ele>
        <time>2021-08-16T22:43:56.979Z</time>
      </trkpt>
      <trkpt lat="41.6037" lon="43.04345">
        <ele>1035.280584</ele>
        <time>2021-08-16T22:44:50.460Z</time>
      </trkpt>
      <trkpt lat="41.60325" lon="43.04414">
        <ele>1038.485209</ele>
        <time>2021-08-16T22:45:21.108Z</time>
      </trkpt>
      <trkpt lat="41.60296" lon="43.04493">
        <ele>1041.446964</ele>
        <time>2021-08-16T22:45:50.005Z</time>
      </trkpt>
      <trkpt lat="41.60266" lon="43.04522">
        <ele>1043.111334</ele>
        <time>2021-08-16T22:46:06.958Z</time>
      </trkpt>
      <trkpt lat="41.60195" lon="43.04613">
        <ele>1047.284454</ele>
        <time>2021-08-16T22:46:50.635Z</time>
      </trkpt>
      <trkpt lat="41.60185" lon="43.0466">
        <ele>1048.783298</ele>
        <time>2021-08-16T22:47:06.200Z</time>
      </trkpt>
      <trkpt lat="41.60174" lon="43.04684">
        <ele>1049.636481</ele>
        <time>2021-08-16T22:47:15.167Z</time>
      </trkpt>
      <trkpt lat="41.6016" lon="43.0469">
        <ele>1050.226655</ele>
        <time>2021-08-16T22:47:21.538Z</time>
      </trkpt>
      <trkpt lat="41.60116" lon="43.04687">
        <ele>1052.037618</ele>
        <time>2021-08-16T22:47:40.186Z</time>
      </trkpt>
      <trkpt lat="41.60098" lon="43.04706">
        <ele>1052.505185</ele>
        <time>2021-08-16T22:47:49.606Z</time>
      </trkpt>
      <trkpt lat="41.60079" lon="43.04744">
        <ele>1053.120625</ele>
        <time>2021-08-16T22:48:02.207Z</time>
      </trkpt>
      <trkpt lat="41.60074" lon="43.04786">
        <ele>1053.682823</ele>
        <time>2021-08-16T22:48:12.027Z</time>
      </trkpt>
      <trkpt lat="41.60075" lon="43.04834">
        <ele>1054.331819</ele>
        <time>2021-08-16T22:48:21.801Z</time>
      </trkpt>
      <trkpt lat="41.60067" lon="43.04861">
        <ele>1054.725418</ele>
        <time>2021-08-16T22:48:27.232Z</time>
      </trkpt>
      <trkpt lat="41.60051" lon="43.04875">
        <ele>1055.070158</ele>
        <time>2021-08-16T22:48:32.111Z</time>
      </trkpt>
      <trkpt lat="41.59974" lon="43.04978">
        <ele>1056.177596</ele>
        <time>2021-08-16T22:48:59.388Z</time>
      </trkpt>
      <trkpt lat="41.59958" lon="43.0499">
        <ele>1056.342304</ele>
        <time>2021-08-16T22:49:04.130Z</time>
      </trkpt>
      <trkpt lat="41.59904" lon="43.05004">
        <ele>1056.833841</ele>
        <time>2021-08-16T22:49:19.516Z</time>
      </trkpt>
      <trkpt lat="41.59745" lon="43.05173">
        <ele>1059.585033</ele>
        <time>2021-08-16T22:50:22.628Z</time>
      </trkpt>
      <trkpt lat="41.5968" lon="43.05255">
        <ele>1059.092464</ele>
        <time>2021-08-16T22:50:41.517Z</time>
      </trkpt>
      <trkpt lat="41.59667" lon="43.05299">
        <ele>1058.895669</ele>
        <time>2021-08-16T22:50:48.376Z</time>
      </trkpt>
      <trkpt lat="41.59645" lon="43.05349">
        <ele>1058.655824</ele>
        <time>2021-08-16T22:50:56.493Z</time>
      </trkpt>
      <trkpt lat="41.59611" lon="43.05395">
        <ele>1058.415937</ele>
        <time>2021-08-16T22:51:05.748Z</time>
      </trkpt>
      <trkpt lat="41.59578" lon="43.05425">
        <ele>1058.22544</ele>
        <time>2021-08-16T22:51:13.365Z</time>
      </trkpt>
      <trkpt lat="41.59545" lon="43.05445">
        <ele>1058.046298</ele>
        <time>2021-08-16T22:51:20.986Z</time>
      </trkpt>
      <trkpt lat="41.59494" lon="43.05456">
        <ele>1057.791883</ele>
        <time>2021-08-16T22:51:33.884Z</time>
      </trkpt>
      <trkpt lat="41.59444" lon="43.05512">
        <ele>1058.511782</ele>
        <time>2021-08-16T22:51:52.844Z</time>
      </trkpt>
      <trkpt lat="41.59414" lon="43.05532">
        <ele>1058.919596</ele>
        <time>2021-08-16T22:52:02.946Z</time>
      </trkpt>
      <trkpt lat="41.59389" lon="43.05566">
        <ele>1059.361394</ele>
        <time>2021-08-16T22:52:13.533Z</time>
      </trkpt>
      <trkpt lat="41.59348" lon="43.05639">
        <ele>1060.06586</ele>
        <time>2021-08-16T22:52:32.366Z</time>
      </trkpt>
      <trkpt lat="41.59326" lon="43.05657">
        <ele>1060.183313</ele>
        <time>2021-08-16T22:52:39.606Z</time>
      </trkpt>
      <trkpt lat="41.59288" lon="43.05664">
        <ele>1060.353052</ele>
        <time>2021-08-16T22:52:49.739Z</time>
      </trkpt>
      <trkpt lat="41.59238" lon="43.05694">
        <ele>1060.599063</ele>
        <time>2021-08-16T22:53:02.755Z</time>
      </trkpt>
      <trkpt lat="41.59185" lon="43.05754">
        <ele>1060.775253</ele>
        <time>2021-08-16T22:53:17.482Z</time>
      </trkpt>
      <trkpt lat="41.59144" lon="43.0578">
        <ele>1060.748148</ele>
        <time>2021-08-16T22:53:27.217Z</time>
      </trkpt>
      <trkpt lat="41.59105" lon="43.05779">
        <ele>1060.725001</ele>
        <time>2021-08-16T22:53:35.846Z</time>
      </trkpt>
      <trkpt lat="41.5905" lon="43.05749">
        <ele>1060.689556</ele>
        <time>2021-08-16T22:53:49.486Z</time>
      </trkpt>
      <trkpt lat="41.5902" lon="43.05749">
        <ele>1060.747566</ele>
        <time>2021-08-16T22:53:56.083Z</time>
      </trkpt>
      <trkpt lat="41.5891" lon="43.05799">
        <ele>1061.121209</ele>
        <time>2021-08-16T22:54:22.570Z</time>
      </trkpt>
      <trkpt lat="41.58823" lon="43.05816">
        <ele>1061.190862</ele>
        <time>2021-08-16T22:54:46.739Z</time>
      </trkpt>
      <trkpt lat="41.58798" lon="43.0581">
        <ele>1061.150315</ele>
        <time>2021-08-16T22:54:52.672Z</time>
      </trkpt>
      <trkpt lat="41.58755" lon="43.05773">
        <ele>1061.070645</ele>
        <time>2021-08-16T22:55:03.879Z</time>
      </trkpt>
      <trkpt lat="41.58739" lon="43.05766">
        <ele>1061.043159</ele>
        <time>2021-08-16T22:55:07.141Z</time>
      </trkpt>
      <trkpt lat="41.58704" lon="43.05775">
        <ele>1060.986945</ele>
        <time>2021-08-16T22:55:13.747Z</time>
      </trkpt>
      <trkpt lat="41.58685" lon="43.05789">
        <ele>1061.089509</ele>
        <time>2021-08-16T22:55:18.271Z</time>
      </trkpt>
      <trkpt lat="41.58684" lon="43.0583">
        <ele>1061.314829</ele>
        <time>2021-08-16T22:55:24.146Z</time>
      </trkpt>
      <trkpt lat="41.58691" lon="43.05892">
        <ele>1061.662779</ele>
        <time>2021-08-16T22:55:36.101Z</time>
      </trkpt>
      <trkpt lat="41.58699" lon="43.05957">
        <ele>1062.02466</ele>
        <time>2021-08-16T22:55:49.681Z</time>
      </trkpt>
      <trkpt lat="41.58709" lon="43.0604">
        <ele>1063.696083</ele>
        <time>2021-08-16T22:56:10.050Z</time>
      </trkpt>
      <trkpt lat="41.58711" lon="43.06059">
        <ele>1064.507246</ele>
        <time>2021-08-16T22:56:17.056Z</time>
      </trkpt>
      <trkpt lat="41.58717" lon="43.0611">
        <ele>1066.670343</ele>
        <time>2021-08-16T22:56:34.826Z</time>
      </trkpt>
      <trkpt lat="41.58707" lon="43.0615">
        <ele>1068.453477</ele>
        <time>2021-08-16T22:56:51.948Z</time>
      </trkpt>
      <trkpt lat="41.58663" lon="43.06256">
        <ele>1073.856698</ele>
        <time>2021-08-16T22:57:47.536Z</time>
      </trkpt>
      <trkpt lat="41.58639" lon="43.06285">
        <ele>1076.193298</ele>
        <time>2021-08-16T22:58:06.371Z</time>
      </trkpt>
      <trkpt lat="41.58559" lon="43.06444">
        <ele>1086.406126</ele>
        <time>2021-08-16T22:59:27.466Z</time>
      </trkpt>
      <trkpt lat="41.58465" lon="43.06536">
        <ele>1095.01312</ele>
        <time>2021-08-16T23:00:37.780Z</time>
      </trkpt>
      <trkpt lat="41.58429" lon="43.06564">
        <ele>1098.12784</ele>
        <time>2021-08-16T23:01:02.850Z</time>
      </trkpt>
      <trkpt lat="41.58398" lon="43.06588">
        <ele>1100.615174</ele>
        <time>2021-08-16T23:01:23.706Z</time>
      </trkpt>
      <trkpt lat="41.58201" lon="43.06716">
        <ele>1115.694053</ele>
        <time>2021-08-16T23:03:27.453Z</time>
      </trkpt>
      <trkpt lat="41.58176" lon="43.06765">
        <ele>1118.637758</ele>
        <time>2021-08-16T23:03:51.311Z</time>
      </trkpt>
      <trkpt lat="41.58122" lon="43.06926">
        <ele>1127.625034</ele>
        <time>2021-08-16T23:05:05.261Z</time>
      </trkpt>
      <trkpt lat="41.5812" lon="43.0693">
        <ele>1127.844873</ele>
        <time>2021-08-16T23:05:07.096Z</time>
      </trkpt>
      <trkpt lat="41.58068" lon="43.07046">
        <ele>1134.831657</ele>
        <time>2021-08-16T23:06:06.284Z</time>
      </trkpt>
      <trkpt lat="41.58058" lon="43.07062">
        <ele>1135.79103</ele>
        <time>2021-08-16T23:06:15.622Z</time>
      </trkpt>
      <trkpt lat="41.58039" lon="43.07072">
        <ele>1136.836139</ele>
        <time>2021-08-16T23:06:26.686Z</time>
      </trkpt>
      <trkpt lat="41.57966" lon="43.07101">
        <ele>1140.743879</ele>
        <time>2021-08-16T23:07:05.975Z</time>
      </trkpt>
      <trkpt lat="41.57958" lon="43.07113">
        <ele>1141.345748</ele>
        <time>2021-08-16T23:07:11.509Z</time>
      </trkpt>
      <trkpt lat="41.57921" lon="43.07132">
        <ele>1143.349478</ele>
        <time>2021-08-16T23:07:28.404Z</time>
      </trkpt>
      <trkpt lat="41.57839" lon="43.07168">
        <ele>1145.540793</ele>
        <time>2021-08-16T23:07:59.729Z</time>
      </trkpt>
      <trkpt lat="41.57837" lon="43.0717">
        <ele>1145.587427</ele>
        <time>2021-08-16T23:08:00.980Z</time>
      </trkpt>
      <trkpt lat="41.57836" lon="43.07171">
        <ele>1145.591137</ele>
        <time>2021-08-16T23:08:01.051Z</time>
      </trkpt>
      <trkpt lat="41.57827" lon="43.07176">
        <ele>1145.738114</ele>
        <time>2021-08-16T23:08:03.751Z</time>
      </trkpt>
      <trkpt lat="41.57738" lon="43.07224">
        <ele>1147.162327</ele>
        <time>2021-08-16T23:08:28.316Z</time>
      </trkpt>
      <trkpt lat="41.57692" lon="43.07249">
        <ele>1147.240679</ele>
        <time>2021-08-16T23:08:39.903Z</time>
      </trkpt>
      <trkpt lat="41.57649" lon="43.07277">
        <ele>1147.170459</ele>
        <time>2021-08-16T23:08:50.041Z</time>
      </trkpt>
      <trkpt lat="41.57556" lon="43.07316">
        <ele>1147.19153</ele>
        <time>2021-08-16T23:09:09.494Z</time>
      </trkpt>
      <trkpt lat="41.5745" lon="43.07366">
        <ele>1150.120333</ele>
        <time>2021-08-16T23:09:45.813Z</time>
      </trkpt>
      <trkpt lat="41.57481" lon="43.0748">
        <ele>1153.673736</ele>
        <time>2021-08-16T23:10:26.699Z</time>
      </trkpt>
      <trkpt lat="41.57483" lon="43.07497">
        <ele>1154.518707</ele>
        <time>2021-08-16T23:10:32.979Z</time>
      </trkpt>
      <trkpt lat="41.57481" lon="43.07509">
        <ele>1155.1264</ele>
        <time>2021-08-16T23:10:37.849Z</time>
      </trkpt>
      <trkpt lat="41.57474" lon="43.07526">
        <ele>1156.086999</ele>
        <time>2021-08-16T23:10:46.681Z</time>
      </trkpt>
      <trkpt lat="41.57467" lon="43.07548">
        <ele>1157.266478</ele>
        <time>2021-08-16T23:10:56.983Z</time>
      </trkpt>
      <trkpt lat="41.57468" lon="43.07562">
        <ele>1157.960226</ele>
        <time>2021-08-16T23:11:03.795Z</time>
      </trkpt>
      <trkpt lat="41.57472" lon="43.07575">
        <ele>1158.6847</ele>
        <time>2021-08-16T23:11:11.287Z</time>
      </trkpt>
      <trkpt lat="41.57492" lon="43.07604">
        <ele>1160.603266</ele>
        <time>2021-08-16T23:11:29.644Z</time>
      </trkpt>
      <trkpt lat="41.57519" lon="43.07667">
        <ele>1163.956878</ele>
        <time>2021-08-16T23:12:01.402Z</time>
      </trkpt>
      <trkpt lat="41.57529" lon="43.07707">
        <ele>1165.196418</ele>
        <time>2021-08-16T23:12:17.648Z</time>
      </trkpt>
      <trkpt lat="41.5754" lon="43.07767">
        <ele>1167.02824</ele>
        <time>2021-08-16T23:12:39.597Z</time>
      </trkpt>
      <trkpt lat="41.5755" lon="43.07826">
        <ele>1168.786338</ele>
        <time>2021-08-16T23:12:57.152Z</time>
      </trkpt>
      <trkpt lat="41.57556" lon="43.07844">
        <ele>1169.366868</ele>
        <time>2021-08-16T23:13:01.798Z</time>
      </trkpt>
      <trkpt lat="41.57518" lon="43.07956">
        <ele>1170.459724</ele>
        <time>2021-08-16T23:13:25.899Z</time>
      </trkpt>
      <trkpt lat="41.57514" lon="43.08001">
        <ele>1170.347197</ele>
        <time>2021-08-16T23:13:33.846Z</time>
      </trkpt>
      <trkpt lat="41.57516" lon="43.0804">
        <ele>1170.248019</ele>
        <time>2021-08-16T23:13:39.639Z</time>
      </trkpt>
      <trkpt lat="41.57517" lon="43.08075">
        <ele>1170.160761</ele>
        <time>2021-08-16T23:13:44.759Z</time>
      </trkpt>
      <trkpt lat="41.5752" lon="43.08091">
        <ele>1170.11882</ele>
        <time>2021-08-16T23:13:47.088Z</time>
      </trkpt>
      <trkpt lat="41.57531" lon="43.08127">
        <ele>1169.805488</ele>
        <time>2021-08-16T23:13:52.418Z</time>
      </trkpt>
      <trkpt lat="41.57547" lon="43.0815">
        <ele>1169.233055</ele>
        <time>2021-08-16T23:13:57.531Z</time>
      </trkpt>
      <trkpt lat="41.57564" lon="43.08171">
        <ele>1168.654923</ele>
        <time>2021-08-16T23:14:01.372Z</time>
      </trkpt>
      <trkpt lat="41.57568" lon="43.08183">
        <ele>1168.403051</ele>
        <time>2021-08-16T23:14:04.578Z</time>
      </trkpt>
      <trkpt lat="41.57568" lon="43.08192">
        <ele>1168.247255</ele>
        <time>2021-08-16T23:14:05.463Z</time>
      </trkpt>
      <trkpt lat="41.57563" lon="43.08199">
        <ele>1168.070225</ele>
        <time>2021-08-16T23:14:06.608Z</time>
      </trkpt>
      <trkpt lat="41.57515" lon="43.08212">
        <ele>1166.836846</ele>
        <time>2021-08-16T23:14:15.255Z</time>
      </trkpt>
      <trkpt lat="41.57504" lon="43.08221">
        <ele>1166.533996</ele>
        <time>2021-08-16T23:14:17.668Z</time>
      </trkpt>
      <trkpt lat="41.57478" lon="43.0827">
        <ele>1165.564426</ele>
        <time>2021-08-16T23:14:25.659Z</time>
      </trkpt>
      <trkpt lat="41.57462" lon="43.08317">
        <ele>1165.372539</ele>
        <time>2021-08-16T23:14:32.509Z</time>
      </trkpt>
      <trkpt lat="41.57458" lon="43.08338">
        <ele>1165.2941</ele>
        <time>2021-08-16T23:14:35.380Z</time>
      </trkpt>
      <trkpt lat="41.57451" lon="43.08348">
        <ele>1165.24296</ele>
        <time>2021-08-16T23:14:37.487Z</time>
      </trkpt>
      <trkpt lat="41.57408" lon="43.08382">
        <ele>1164.99517</ele>
        <time>2021-08-16T23:14:47.503Z</time>
      </trkpt>
      <trkpt lat="41.57396" lon="43.08414">
        <ele>1164.864278</ele>
        <time>2021-08-16T23:14:54.590Z</time>
      </trkpt>
      <trkpt lat="41.57395" lon="43.08443">
        <ele>1164.755876</ele>
        <time>2021-08-16T23:15:00.302Z</time>
      </trkpt>
      <trkpt lat="41.57376" lon="43.08536">
        <ele>1167.596815</ele>
        <time>2021-08-16T23:15:27.992Z</time>
      </trkpt>
      <trkpt lat="41.57409" lon="43.08602">
        <ele>1170.315956</ele>
        <time>2021-08-16T23:15:58.392Z</time>
      </trkpt>
      <trkpt lat="41.57413" lon="43.08621">
        <ele>1170.982244</ele>
        <time>2021-08-16T23:16:05.771Z</time>
      </trkpt>
      <trkpt lat="41.57405" lon="43.08695">
        <ele>1173.654186</ele>
        <time>2021-08-16T23:16:35.049Z</time>
      </trkpt>
      <trkpt lat="41.57421" lon="43.08753">
        <ele>1176.107178</ele>
        <time>2021-08-16T23:16:58.497Z</time>
      </trkpt>
      <trkpt lat="41.57424" lon="43.08772">
        <ele>1176.867877</ele>
        <time>2021-08-16T23:17:05.563Z</time>
      </trkpt>
      <trkpt lat="41.57421" lon="43.08826">
        <ele>1179.004293</ele>
        <time>2021-08-16T23:17:24.647Z</time>
      </trkpt>
      <trkpt lat="41.57422" lon="43.08846">
        <ele>1179.810673</ele>
        <time>2021-08-16T23:17:32.191Z</time>
      </trkpt>
      <trkpt lat="41.57425" lon="43.08896">
        <ele>1181.814289</ele>
        <time>2021-08-16T23:17:49.965Z</time>
      </trkpt>
      <trkpt lat="41.57448" lon="43.08981">
        <ele>1185.290813</ele>
        <time>2021-08-16T23:18:21.540Z</time>
      </trkpt>
      <trkpt lat="41.57473" lon="43.09037">
        <ele>1187.769445</ele>
        <time>2021-08-16T23:18:43.871Z</time>
      </trkpt>
      <trkpt lat="41.5751" lon="43.09069">
        <ele>1190.030514</ele>
        <time>2021-08-16T23:19:04.558Z</time>
      </trkpt>
      <trkpt lat="41.57523" lon="43.09087">
        <ele>1191.016029</ele>
        <time>2021-08-16T23:19:14.093Z</time>
      </trkpt>
      <trkpt lat="41.57527" lon="43.09105">
        <ele>1191.753743</ele>
        <time>2021-08-16T23:19:21.113Z</time>
      </trkpt>
      <trkpt lat="41.57523" lon="43.09158">
        <ele>1194.555197</ele>
        <time>2021-08-16T23:19:41.856Z</time>
      </trkpt>
      <trkpt lat="41.57533" lon="43.0922">
        <ele>1197.937409</ele>
        <time>2021-08-16T23:20:08.497Z</time>
      </trkpt>
      <trkpt lat="41.57563" lon="43.09319">
        <ele>1203.672457</ele>
        <time>2021-08-16T23:20:57.578Z</time>
      </trkpt>
      <trkpt lat="41.57581" lon="43.09335">
        <ele>1205.525697</ele>
        <time>2021-08-16T23:21:11.438Z</time>
      </trkpt>
      <trkpt lat="41.57626" lon="43.09351">
        <ele>1210.221979</ele>
        <time>2021-08-16T23:21:42.223Z</time>
      </trkpt>
      <trkpt lat="41.57645" lon="43.09375">
        <ele>1212.955665</ele>
        <time>2021-08-16T23:22:01.084Z</time>
      </trkpt>
      <trkpt lat="41.5767" lon="43.09435">
        <ele>1218.141006</ele>
        <time>2021-08-16T23:22:39.541Z</time>
      </trkpt>
      <trkpt lat="41.57675" lon="43.09483">
        <ele>1221.879354</ele>
        <time>2021-08-16T23:23:09.184Z</time>
      </trkpt>
      <trkpt lat="41.57692" lon="43.09546">
        <ele>1227.836768</ele>
        <time>2021-08-16T23:23:51.082Z</time>
      </trkpt>
      <trkpt lat="41.57727" lon="43.09609">
        <ele>1235.089315</ele>
        <time>2021-08-16T23:24:41.887Z</time>
      </trkpt>
      <trkpt lat="41.5774" lon="43.09642">
        <ele>1238.478116</ele>
        <time>2021-08-16T23:25:05.460Z</time>
      </trkpt>
      <trkpt lat="41.5775" lon="43.09743">
        <ele>1247.2901</ele>
        <time>2021-08-16T23:26:09.295Z</time>
      </trkpt>
      <trkpt lat="41.5774" lon="43.09802">
        <ele>1251.806105</ele>
        <time>2021-08-16T23:26:45.259Z</time>
      </trkpt>
      <trkpt lat="41.57759" lon="43.09858">
        <ele>1256.313409</ele>
        <time>2021-08-16T23:27:17.772Z</time>
      </trkpt>
      <trkpt lat="41.57769" lon="43.09958">
        <ele>1263.455793</ele>
        <time>2021-08-16T23:28:05.562Z</time>
      </trkpt>
      <trkpt lat="41.5779" lon="43.1002">
        <ele>1266.952075</ele>
        <time>2021-08-16T23:28:35.696Z</time>
      </trkpt>
      <trkpt lat="41.57785" lon="43.1004">
        <ele>1268.043608</ele>
        <time>2021-08-16T23:28:45.018Z</time>
      </trkpt>
      <trkpt lat="41.57751" lon="43.10084">
        <ele>1271.26988</ele>
        <time>2021-08-16T23:29:12.123Z</time>
      </trkpt>
      <trkpt lat="41.57739" lon="43.10105">
        <ele>1272.621913</ele>
        <time>2021-08-16T23:29:22.826Z</time>
      </trkpt>
      <trkpt lat="41.57736" lon="43.10119">
        <ele>1273.360999</ele>
        <time>2021-08-16T23:29:28.540Z</time>
      </trkpt>
      <trkpt lat="41.5775" lon="43.10145">
        <ele>1274.98229</ele>
        <time>2021-08-16T23:29:40.228Z</time>
      </trkpt>
      <trkpt lat="41.57805" lon="43.10183">
        <ele>1278.22584</ele>
        <time>2021-08-16T23:30:09.471Z</time>
      </trkpt>
      <trkpt lat="41.57859" lon="43.10197">
        <ele>1281.145682</ele>
        <time>2021-08-16T23:30:36.560Z</time>
      </trkpt>
      <trkpt lat="41.57892" lon="43.10232">
        <ele>1283.341369</ele>
        <time>2021-08-16T23:30:57.335Z</time>
      </trkpt>
      <trkpt lat="41.57895" lon="43.10242">
        <ele>1283.758854</ele>
        <time>2021-08-16T23:31:01.181Z</time>
      </trkpt>
      <trkpt lat="41.57888" lon="43.10255">
        <ele>1284.375325</ele>
        <time>2021-08-16T23:31:06.801Z</time>
      </trkpt>
      <trkpt lat="41.57848" lon="43.10246">
        <ele>1286.736233</ele>
        <time>2021-08-16T23:31:25.243Z</time>
      </trkpt>
      <trkpt lat="41.57827" lon="43.10259">
        <ele>1288.139992</ele>
        <time>2021-08-16T23:31:36.056Z</time>
      </trkpt>
      <trkpt lat="41.57807" lon="43.10323">
        <ele>1291.206182</ele>
        <time>2021-08-16T23:32:01.482Z</time>
      </trkpt>
      <trkpt lat="41.57792" lon="43.10356">
        <ele>1292.876063</ele>
        <time>2021-08-16T23:32:17.008Z</time>
      </trkpt>
      <trkpt lat="41.57787" lon="43.10384">
        <ele>1294.176971</ele>
        <time>2021-08-16T23:32:29.913Z</time>
      </trkpt>
      <trkpt lat="41.57787" lon="43.10419">
        <ele>1295.955356</ele>
        <time>2021-08-16T23:32:45.538Z</time>
      </trkpt>
      <trkpt lat="41.57765" lon="43.10483">
        <ele>1300.292606</ele>
        <time>2021-08-16T23:33:18.345Z</time>
      </trkpt>
      <trkpt lat="41.57761" lon="43.10511">
        <ele>1302.04106</ele>
        <time>2021-08-16T23:33:31.691Z</time>
      </trkpt>
      <trkpt lat="41.57762" lon="43.10564">
        <ele>1305.309447</ele>
        <time>2021-08-16T23:33:56.963Z</time>
      </trkpt>
      <trkpt lat="41.57768" lon="43.10584">
        <ele>1306.684047</ele>
        <time>2021-08-16T23:34:07.932Z</time>
      </trkpt>
      <trkpt lat="41.57801" lon="43.10637">
        <ele>1310.840319</ele>
        <time>2021-08-16T23:34:41.998Z</time>
      </trkpt>
      <trkpt lat="41.57816" lon="43.10705">
        <ele>1315.197419</ele>
        <time>2021-08-16T23:35:17.978Z</time>
      </trkpt>
      <trkpt lat="41.57811" lon="43.10723">
        <ele>1316.407336</ele>
        <time>2021-08-16T23:35:27.570Z</time>
      </trkpt>
      <trkpt lat="41.57771" lon="43.108">
        <ele>1322.137547</ele>
        <time>2021-08-16T23:36:10.968Z</time>
      </trkpt>
      <trkpt lat="41.57765" lon="43.10821">
        <ele>1323.510702</ele>
        <time>2021-08-16T23:36:21.020Z</time>
      </trkpt>
      <trkpt lat="41.57773" lon="43.10909">
        <ele>1328.139003</ele>
        <time>2021-08-16T23:36:59.073Z</time>
      </trkpt>
      <trkpt lat="41.5776" lon="43.10978">
        <ele>1331.70873</ele>
        <time>2021-08-16T23:37:29.099Z</time>
      </trkpt>
      <trkpt lat="41.57749" lon="43.11015">
        <ele>1333.693473</ele>
        <time>2021-08-16T23:37:45.209Z</time>
      </trkpt>
      <trkpt lat="41.57748" lon="43.11045">
        <ele>1335.249692</ele>
        <time>2021-08-16T23:37:57.425Z</time>
      </trkpt>
      <trkpt lat="41.57787" lon="43.11141">
        <ele>1340.479971</ele>
        <time>2021-08-16T23:38:40.497Z</time>
      </trkpt>
      <trkpt lat="41.57793" lon="43.11235">
        <ele>1344.881989</ele>
        <time>2021-08-16T23:39:18.629Z</time>
      </trkpt>
      <trkpt lat="41.57807" lon="43.11267">
        <ele>1346.625939</ele>
        <time>2021-08-16T23:39:33.895Z</time>
      </trkpt>
      <trkpt lat="41.57823" lon="43.11288">
        <ele>1348.0495</ele>
        <time>2021-08-16T23:39:46.217Z</time>
      </trkpt>
      <trkpt lat="41.57824" lon="43.11309">
        <ele>1348.971112</ele>
        <time>2021-08-16T23:39:54.363Z</time>
      </trkpt>
      <trkpt lat="41.57797" lon="43.11339">
        <ele>1351.077625</ele>
        <time>2021-08-16T23:40:12.773Z</time>
      </trkpt>
      <trkpt lat="41.57781" lon="43.11379">
        <ele>1353.138313</ele>
        <time>2021-08-16T23:40:30.796Z</time>
      </trkpt>
      <trkpt lat="41.57788" lon="43.11414">
        <ele>1354.765907</ele>
        <time>2021-08-16T23:40:45.146Z</time>
      </trkpt>
      <trkpt lat="41.57821" lon="43.11471">
        <ele>1358.030949</ele>
        <time>2021-08-16T23:41:13.522Z</time>
      </trkpt>
      <trkpt lat="41.57807" lon="43.11589">
        <ele>1362.825527</ele>
        <time>2021-08-16T23:41:57.967Z</time>
      </trkpt>
      <trkpt lat="41.57792" lon="43.1166">
        <ele>1365.734389</ele>
        <time>2021-08-16T23:42:24.135Z</time>
      </trkpt>
      <trkpt lat="41.57795" lon="43.117">
        <ele>1367.289367</ele>
        <time>2021-08-16T23:42:38.186Z</time>
      </trkpt>
      <trkpt lat="41.57807" lon="43.11732">
        <ele>1368.670958</ele>
        <time>2021-08-16T23:42:51.065Z</time>
      </trkpt>
      <trkpt lat="41.57822" lon="43.11756">
        <ele>1369.798149</ele>
        <time>2021-08-16T23:43:02.118Z</time>
      </trkpt>
      <trkpt lat="41.57868" lon="43.11793">
        <ele>1372.349976</ele>
        <time>2021-08-16T23:43:26.586Z</time>
      </trkpt>
      <trkpt lat="41.57887" lon="43.11827">
        <ele>1373.88698</ele>
        <time>2021-08-16T23:43:41.326Z</time>
      </trkpt>
      <trkpt lat="41.57894" lon="43.1187">
        <ele>1375.430307</ele>
        <time>2021-08-16T23:43:56.238Z</time>
      </trkpt>
      <trkpt lat="41.57885" lon="43.11944">
        <ele>1378.121549</ele>
        <time>2021-08-16T23:44:22.125Z</time>
      </trkpt>
      <trkpt lat="41.5789" lon="43.1198">
        <ele>1379.450002</ele>
        <time>2021-08-16T23:44:34.898Z</time>
      </trkpt>
      <trkpt lat="41.5788" lon="43.12034">
        <ele>1381.470479</ele>
        <time>2021-08-16T23:44:54.387Z</time>
      </trkpt>
      <trkpt lat="41.57875" lon="43.121">
        <ele>1383.863494</ele>
        <time>2021-08-16T23:45:17.328Z</time>
      </trkpt>
      <trkpt lat="41.57844" lon="43.12208">
        <ele>1387.983591</ele>
        <time>2021-08-16T23:45:58.178Z</time>
      </trkpt>
      <trkpt lat="41.57845" lon="43.12402">
        <ele>1394.687621</ele>
        <time>2021-08-16T23:47:04.287Z</time>
      </trkpt>
      <trkpt lat="41.57841" lon="43.12436">
        <ele>1395.68328</ele>
        <time>2021-08-16T23:47:15.213Z</time>
      </trkpt>
      <trkpt lat="41.57828" lon="43.12482">
        <ele>1397.150403</ele>
        <time>2021-08-16T23:47:31.007Z</time>
      </trkpt>
      <trkpt lat="41.57816" lon="43.12561">
        <ele>1399.553824</ele>
        <time>2021-08-16T23:47:56.111Z</time>
      </trkpt>
      <trkpt lat="41.57746" lon="43.12761">
        <ele>1405.709513</ele>
        <time>2021-08-16T23:49:00.825Z</time>
      </trkpt>
      <trkpt lat="41.57741" lon="43.12794">
        <ele>1406.638209</ele>
        <time>2021-08-16T23:49:11.206Z</time>
      </trkpt>
      <trkpt lat="41.57742" lon="43.12814">
        <ele>1407.173041</ele>
        <time>2021-08-16T23:49:17.812Z</time>
      </trkpt>
      <trkpt lat="41.57748" lon="43.12854">
        <ele>1408.701062</ele>
        <time>2021-08-16T23:49:31.245Z</time>
      </trkpt>
      <trkpt lat="41.57749" lon="43.12868">
        <ele>1409.304468</ele>
        <time>2021-08-16T23:49:35.149Z</time>
      </trkpt>
      <trkpt lat="41.57754" lon="43.12888">
        <ele>1410.240343</ele>
        <time>2021-08-16T23:49:42.021Z</time>
      </trkpt>
      <trkpt lat="41.57763" lon="43.129">
        <ele>1410.97959</ele>
        <time>2021-08-16T23:49:47.800Z</time>
      </trkpt>
      <trkpt lat="41.57789" lon="43.12919">
        <ele>1412.742374</ele>
        <time>2021-08-16T23:50:04.445Z</time>
      </trkpt>
      <trkpt lat="41.57804" lon="43.12933">
        <ele>1413.834054</ele>
        <time>2021-08-16T23:50:14.832Z</time>
      </trkpt>
      <trkpt lat="41.57815" lon="43.12949">
        <ele>1414.795153</ele>
        <time>2021-08-16T23:50:24.356Z</time>
      </trkpt>
      <trkpt lat="41.57824" lon="43.12995">
        <ele>1416.880479</ele>
        <time>2021-08-16T23:50:44.238Z</time>
      </trkpt>
      <trkpt lat="41.57829" lon="43.13061">
        <ele>1420.088187</ele>
        <time>2021-08-16T23:51:10.624Z</time>
      </trkpt>
      <trkpt lat="41.57833" lon="43.13069">
        <ele>1420.635752</ele>
        <time>2021-08-16T23:51:15.758Z</time>
      </trkpt>
      <trkpt lat="41.57842" lon="43.13088">
        <ele>1421.782468</ele>
        <time>2021-08-16T23:51:25.069Z</time>
      </trkpt>
      <trkpt lat="41.57846" lon="43.131">
        <ele>1422.511945</ele>
        <time>2021-08-16T23:51:30.428Z</time>
      </trkpt>
      <trkpt lat="41.57849" lon="43.13122">
        <ele>1423.699077</ele>
        <time>2021-08-16T23:51:42.778Z</time>
      </trkpt>
      <trkpt lat="41.57835" lon="43.13173">
        <ele>1426.573909</ele>
        <time>2021-08-16T23:52:06.494Z</time>
      </trkpt>
      <trkpt lat="41.57825" lon="43.13288">
        <ele>1432.26</ele>
        <time>2021-08-16T23:52:55.356Z</time>
      </trkpt>
      <trkpt lat="41.57826" lon="43.133">
        <ele>1432.752292</ele>
        <time>2021-08-16T23:52:59.927Z</time>
      </trkpt>
      <trkpt lat="41.57829" lon="43.13309">
        <ele>1433.13958</ele>
        <time>2021-08-16T23:53:04.428Z</time>
      </trkpt>
      <trkpt lat="41.57837" lon="43.1335">
        <ele>1434.887179</ele>
        <time>2021-08-16T23:53:19.269Z</time>
      </trkpt>
      <trkpt lat="41.57839" lon="43.13446">
        <ele>1438.761164</ele>
        <time>2021-08-16T23:53:53.282Z</time>
      </trkpt>
      <trkpt lat="41.57842" lon="43.13476">
        <ele>1439.986617</ele>
        <time>2021-08-16T23:54:03.473Z</time>
      </trkpt>
      <trkpt lat="41.57842" lon="43.13498">
        <ele>1440.854848</ele>
        <time>2021-08-16T23:54:12.311Z</time>
      </trkpt>
      <trkpt lat="41.5781" lon="43.13598">
        <ele>1444.34329</ele>
        <time>2021-08-16T23:54:48.000Z</time>
      </trkpt>
      <trkpt lat="41.57786" lon="43.13701">
        <ele>1447.84277</ele>
        <time>2021-08-16T23:55:22.634Z</time>
      </trkpt>
      <trkpt lat="41.57783" lon="43.13721">
        <ele>1448.47736</ele>
        <time>2021-08-16T23:55:28.122Z</time>
      </trkpt>
      <trkpt lat="41.57782" lon="43.13727">
        <ele>1448.733267</ele>
        <time>2021-08-16T23:55:30.590Z</time>
      </trkpt>
      <trkpt lat="41.57799" lon="43.13823">
        <ele>1452.693076</ele>
        <time>2021-08-16T23:56:02.405Z</time>
      </trkpt>
      <trkpt lat="41.57824" lon="43.13897">
        <ele>1455.967159</ele>
        <time>2021-08-16T23:56:34.091Z</time>
      </trkpt>
      <trkpt lat="41.57835" lon="43.13959">
        <ele>1458.695078</ele>
        <time>2021-08-16T23:57:01.018Z</time>
      </trkpt>
      <trkpt lat="41.57835" lon="43.13989">
        <ele>1460.473412</ele>
        <time>2021-08-16T23:57:13.306Z</time>
      </trkpt>
      <trkpt lat="41.57836" lon="43.14014">
        <ele>1461.911012</ele>
        <time>2021-08-16T23:57:24.614Z</time>
      </trkpt>
      <trkpt lat="41.57838" lon="43.14055">
        <ele>1464.314739</ele>
        <time>2021-08-16T23:57:42.153Z</time>
      </trkpt>
      <trkpt lat="41.57831" lon="43.141">
        <ele>1466.946636</ele>
        <time>2021-08-16T23:58:04.537Z</time>
      </trkpt>
      <trkpt lat="41.57812" lon="43.14125">
        <ele>1469.019207</ele>
        <time>2021-08-16T23:58:22.807Z</time>
      </trkpt>
      <trkpt lat="41.57774" lon="43.14161">
        <ele>1472.570274</ele>
        <time>2021-08-16T23:58:53.879Z</time>
      </trkpt>
      <trkpt lat="41.57761" lon="43.14181">
        <ele>1473.72272</ele>
        <time>2021-08-16T23:59:06.612Z</time>
      </trkpt>
      <trkpt lat="41.57756" lon="43.14199">
        <ele>1474.562519</ele>
        <time>2021-08-16T23:59:13.002Z</time>
      </trkpt>
      <trkpt lat="41.57755" lon="43.14215">
        <ele>1475.307274</ele>
        <time>2021-08-16T23:59:20.322Z</time>
      </trkpt>
      <trkpt lat="41.57758" lon="43.14225">
        <ele>1475.781435</ele>
        <time>2021-08-16T23:59:25.675Z</time>
      </trkpt>
      <trkpt lat="41.57781" lon="43.14227">
        <ele>1477.14087</ele>
        <time>2021-08-16T23:59:36.725Z</time>
      </trkpt>
      <trkpt lat="41.57951" lon="43.1415">
        <ele>1485.436447</ele>
        <time>2021-08-17T00:00:59.730Z</time>
      </trkpt>
      <trkpt lat="41.57983" lon="43.14154">
        <ele>1486.456792</ele>
        <time>2021-08-17T00:01:11.059Z</time>
      </trkpt>
      <trkpt lat="41.57996" lon="43.14169">
        <ele>1486.975192</ele>
        <time>2021-08-17T00:01:16.654Z</time>
      </trkpt>
      <trkpt lat="41.58009" lon="43.14211">
        <ele>1488.039305</ele>
        <time>2021-08-17T00:01:27.050Z</time>
      </trkpt>
      <trkpt lat="41.58001" lon="43.14297">
        <ele>1488.237603</ele>
        <time>2021-08-17T00:01:43.504Z</time>
      </trkpt>
      <trkpt lat="41.58001" lon="43.14357">
        <ele>1488.066217</ele>
        <time>2021-08-17T00:01:52.904Z</time>
      </trkpt>
      <trkpt lat="41.58007" lon="43.144">
        <ele>1487.938513</ele>
        <time>2021-08-17T00:01:59.666Z</time>
      </trkpt>
      <trkpt lat="41.58007" lon="43.14406">
        <ele>1487.921809</ele>
        <time>2021-08-17T00:02:00.396Z</time>
      </trkpt>
      <trkpt lat="41.58024" lon="43.14514">
        <ele>1487.251824</ele>
        <time>2021-08-17T00:02:16.285Z</time>
      </trkpt>
      <trkpt lat="41.58026" lon="43.14537">
        <ele>1487.010769</ele>
        <time>2021-08-17T00:02:19.658Z</time>
      </trkpt>
      <trkpt lat="41.5803" lon="43.14568">
        <ele>1486.694889</ele>
        <time>2021-08-17T00:02:24.036Z</time>
      </trkpt>
      <trkpt lat="41.5803" lon="43.14591">
        <ele>1486.463518</ele>
        <time>2021-08-17T00:02:27.270Z</time>
      </trkpt>
      <trkpt lat="41.58031" lon="43.14608">
        <ele>1486.285351</ele>
        <time>2021-08-17T00:02:29.734Z</time>
      </trkpt>
      <trkpt lat="41.5803" lon="43.14715">
        <ele>1485.229799</ele>
        <time>2021-08-17T00:02:45.407Z</time>
      </trkpt>
      <trkpt lat="41.58029" lon="43.14724">
        <ele>1485.15858</ele>
        <time>2021-08-17T00:02:46.798Z</time>
      </trkpt>
      <trkpt lat="41.58028" lon="43.14741">
        <ele>1485.034051</ele>
        <time>2021-08-17T00:02:49.465Z</time>
      </trkpt>
      <trkpt lat="41.58026" lon="43.14781">
        <ele>1484.742869</ele>
        <time>2021-08-17T00:02:55.280Z</time>
      </trkpt>
      <trkpt lat="41.58024" lon="43.14823">
        <ele>1484.433277</ele>
        <time>2021-08-17T00:03:01.484Z</time>
      </trkpt>
      <trkpt lat="41.58021" lon="43.14888">
        <ele>1483.96284</ele>
        <time>2021-08-17T00:03:11.222Z</time>
      </trkpt>
      <trkpt lat="41.58021" lon="43.14905">
        <ele>1483.837281</ele>
        <time>2021-08-17T00:03:13.661Z</time>
      </trkpt>
      <trkpt lat="41.58022" lon="43.14956">
        <ele>1483.519918</ele>
        <time>2021-08-17T00:03:21.503Z</time>
      </trkpt>
      <trkpt lat="41.58026" lon="43.1499">
        <ele>1483.447226</ele>
        <time>2021-08-17T00:03:26.901Z</time>
      </trkpt>
      <trkpt lat="41.58032" lon="43.15032">
        <ele>1483.359334</ele>
        <time>2021-08-17T00:03:33.474Z</time>
      </trkpt>
      <trkpt lat="41.58032" lon="43.15048">
        <ele>1483.324556</ele>
        <time>2021-08-17T00:03:35.868Z</time>
      </trkpt>
      <trkpt lat="41.58032" lon="43.15057">
        <ele>1483.305467</ele>
        <time>2021-08-17T00:03:37.593Z</time>
      </trkpt>
      <trkpt lat="41.58012" lon="43.15139">
        <ele>1483.125344</ele>
        <time>2021-08-17T00:03:51.746Z</time>
      </trkpt>
      <trkpt lat="41.57981" lon="43.15232">
        <ele>1482.955226</ele>
        <time>2021-08-17T00:04:09.700Z</time>
      </trkpt>
      <trkpt lat="41.57973" lon="43.1526">
        <ele>1482.913638</ele>
        <time>2021-08-17T00:04:15.621Z</time>
      </trkpt>
      <trkpt lat="41.57969" lon="43.15291">
        <ele>1482.870755</ele>
        <time>2021-08-17T00:04:20.720Z</time>
      </trkpt>
      <trkpt lat="41.57966" lon="43.1531">
        <ele>1482.844256</ele>
        <time>2021-08-17T00:04:24.136Z</time>
      </trkpt>
      <trkpt lat="41.57962" lon="43.15345">
        <ele>1482.794859</ele>
        <time>2021-08-17T00:04:29.756Z</time>
      </trkpt>
      <trkpt lat="41.57965" lon="43.15371">
        <ele>1482.758764</ele>
        <time>2021-08-17T00:04:33.708Z</time>
      </trkpt>
      <trkpt lat="41.57973" lon="43.15407">
        <ele>1482.702386</ele>
        <time>2021-08-17T00:04:39.732Z</time>
      </trkpt>
      <trkpt lat="41.57975" lon="43.15414">
        <ele>1482.613674</ele>
        <time>2021-08-17T00:04:40.688Z</time>
      </trkpt>
      <trkpt lat="41.57987" lon="43.15462">
        <ele>1481.982113</ele>
        <time>2021-08-17T00:04:48.261Z</time>
      </trkpt>
      <trkpt lat="41.57998" lon="43.15509">
        <ele>1481.354387</ele>
        <time>2021-08-17T00:04:55.307Z</time>
      </trkpt>
      <trkpt lat="41.58011" lon="43.15555">
        <ele>1480.747781</ele>
        <time>2021-08-17T00:05:01.937Z</time>
      </trkpt>
      <trkpt lat="41.5802" lon="43.156">
        <ele>1480.161628</ele>
        <time>2021-08-17T00:05:08.351Z</time>
      </trkpt>
      <trkpt lat="41.58023" lon="43.15668">
        <ele>1479.106559</ele>
        <time>2021-08-17T00:05:17.867Z</time>
      </trkpt>
      <trkpt lat="41.58023" lon="43.15673">
        <ele>1479.017199</ele>
        <time>2021-08-17T00:05:18.448Z</time>
      </trkpt>
      <trkpt lat="41.58018" lon="43.15726">
        <ele>1478.010441</ele>
        <time>2021-08-17T00:05:25.578Z</time>
      </trkpt>
      <trkpt lat="41.58011" lon="43.15828">
        <ele>1476.102406</ele>
        <time>2021-08-17T00:05:39.147Z</time>
      </trkpt>
      <trkpt lat="41.58003" lon="43.15881">
        <ele>1475.059058</ele>
        <time>2021-08-17T00:05:46.306Z</time>
      </trkpt>
      <trkpt lat="41.57999" lon="43.15902">
        <ele>1474.566495</ele>
        <time>2021-08-17T00:05:49.059Z</time>
      </trkpt>
      <trkpt lat="41.57996" lon="43.1596">
        <ele>1473.250297</ele>
        <time>2021-08-17T00:05:56.681Z</time>
      </trkpt>
      <trkpt lat="41.58002" lon="43.1614">
        <ele>1468.926926</ele>
        <time>2021-08-17T00:06:19.880Z</time>
      </trkpt>
      <trkpt lat="41.57978" lon="43.16274">
        <ele>1464.666343</ele>
        <time>2021-08-17T00:06:37.036Z</time>
      </trkpt>
      <trkpt lat="41.57976" lon="43.16313">
        <ele>1463.451301</ele>
        <time>2021-08-17T00:06:41.791Z</time>
      </trkpt>
      <trkpt lat="41.57986" lon="43.16476">
        <ele>1456.328797</ele>
        <time>2021-08-17T00:07:01.098Z</time>
      </trkpt>
      <trkpt lat="41.58005" lon="43.16672">
        <ele>1445.9154</ele>
        <time>2021-08-17T00:07:23.019Z</time>
      </trkpt>
      <trkpt lat="41.58005" lon="43.16713">
        <ele>1443.458254</ele>
        <time>2021-08-17T00:07:27.543Z</time>
      </trkpt>
      <trkpt lat="41.58007" lon="43.16731">
        <ele>1442.374738</ele>
        <time>2021-08-17T00:07:29.456Z</time>
      </trkpt>
      <trkpt lat="41.58023" lon="43.1676">
        <ele>1440.219782</ele>
        <time>2021-08-17T00:07:33.442Z</time>
      </trkpt>
      <trkpt lat="41.58028" lon="43.16778">
        <ele>1439.046876</ele>
        <time>2021-08-17T00:07:35.545Z</time>
      </trkpt>
      <trkpt lat="41.58026" lon="43.16796">
        <ele>1437.937656</ele>
        <time>2021-08-17T00:07:37.602Z</time>
      </trkpt>
      <trkpt lat="41.57995" lon="43.16859">
        <ele>1433.264027</ele>
        <time>2021-08-17T00:07:45.758Z</time>
      </trkpt>
      <trkpt lat="41.57969" lon="43.16969">
        <ele>1426.000484</ele>
        <time>2021-08-17T00:07:58.456Z</time>
      </trkpt>
      <trkpt lat="41.57967" lon="43.17029">
        <ele>1422.215286</ele>
        <time>2021-08-17T00:08:05.046Z</time>
      </trkpt>
      <trkpt lat="41.57974" lon="43.17056">
        <ele>1420.329018</ele>
        <time>2021-08-17T00:08:08.112Z</time>
      </trkpt>
      <trkpt lat="41.5801" lon="43.17169">
        <ele>1411.575957</ele>
        <time>2021-08-17T00:08:21.308Z</time>
      </trkpt>
      <trkpt lat="41.58025" lon="43.172">
        <ele>1408.945155</ele>
        <time>2021-08-17T00:08:25.265Z</time>
      </trkpt>
      <trkpt lat="41.58067" lon="43.17263">
        <ele>1402.919399</ele>
        <time>2021-08-17T00:08:34.233Z</time>
      </trkpt>
      <trkpt lat="41.58081" lon="43.1729">
        <ele>1400.573747</ele>
        <time>2021-08-17T00:08:37.650Z</time>
      </trkpt>
      <trkpt lat="41.58087" lon="43.17336">
        <ele>1397.154125</ele>
        <time>2021-08-17T00:08:42.639Z</time>
      </trkpt>
      <trkpt lat="41.58087" lon="43.17407">
        <ele>1391.946719</ele>
        <time>2021-08-17T00:08:50.235Z</time>
      </trkpt>
      <trkpt lat="41.58093" lon="43.17421">
        <ele>1390.776268</ele>
        <time>2021-08-17T00:08:51.954Z</time>
      </trkpt>
      <trkpt lat="41.58105" lon="43.17425">
        <ele>1389.52724</ele>
        <time>2021-08-17T00:08:53.789Z</time>
      </trkpt>
      <trkpt lat="41.58115" lon="43.17422">
        <ele>1388.5152</ele>
        <time>2021-08-17T00:08:55.266Z</time>
      </trkpt>
      <trkpt lat="41.5819" lon="43.17376">
        <ele>1381.397303</ele>
        <time>2021-08-17T00:09:07.097Z</time>
      </trkpt>
      <trkpt lat="41.58206" lon="43.17387">
        <ele>1379.941095</ele>
        <time>2021-08-17T00:09:09.618Z</time>
      </trkpt>
      <trkpt lat="41.58207" lon="43.17405">
        <ele>1378.797582</ele>
        <time>2021-08-17T00:09:11.611Z</time>
      </trkpt>
      <trkpt lat="41.58183" lon="43.17462">
        <ele>1374.70072</ele>
        <time>2021-08-17T00:09:18.807Z</time>
      </trkpt>
      <trkpt lat="41.58167" lon="43.17481">
        <ele>1372.92368</ele>
        <time>2021-08-17T00:09:21.964Z</time>
      </trkpt>
      <trkpt lat="41.58134" lon="43.17498">
        <ele>1370.361552</ele>
        <time>2021-08-17T00:09:27.248Z</time>
      </trkpt>
      <trkpt lat="41.58103" lon="43.17531">
        <ele>1367.806143</ele>
        <time>2021-08-17T00:09:33.362Z</time>
      </trkpt>
      <trkpt lat="41.58079" lon="43.17582">
        <ele>1364.957126</ele>
        <time>2021-08-17T00:09:40.252Z</time>
      </trkpt>
      <trkpt lat="41.58013" lon="43.17695">
        <ele>1358.14122</ele>
        <time>2021-08-17T00:09:56.772Z</time>
      </trkpt>
      <trkpt lat="41.57976" lon="43.17733">
        <ele>1355.115001</ele>
        <time>2021-08-17T00:10:04.040Z</time>
      </trkpt>
      <trkpt lat="41.57966" lon="43.1775">
        <ele>1354.102958</ele>
        <time>2021-08-17T00:10:06.460Z</time>
      </trkpt>
      <trkpt lat="41.57961" lon="43.17769">
        <ele>1353.12693</ele>
        <time>2021-08-17T00:10:08.772Z</time>
      </trkpt>
      <trkpt lat="41.57957" lon="43.17852">
        <ele>1349.083164</ele>
        <time>2021-08-17T00:10:18.215Z</time>
      </trkpt>
      <trkpt lat="41.57946" lon="43.17921">
        <ele>1344.736026</ele>
        <time>2021-08-17T00:10:25.976Z</time>
      </trkpt>
      <trkpt lat="41.57934" lon="43.17958">
        <ele>1342.153821</ele>
        <time>2021-08-17T00:10:30.390Z</time>
      </trkpt>
      <trkpt lat="41.57902" lon="43.18021">
        <ele>1337.198192</ele>
        <time>2021-08-17T00:10:38.781Z</time>
      </trkpt>
      <trkpt lat="41.5787" lon="43.18132">
        <ele>1328.8385</ele>
        <time>2021-08-17T00:10:51.398Z</time>
      </trkpt>
      <trkpt lat="41.57843" lon="43.182">
        <ele>1322.836753</ele>
        <time>2021-08-17T00:10:59.529Z</time>
      </trkpt>
      <trkpt lat="41.57814" lon="43.1831">
        <ele>1313.830831</ele>
        <time>2021-08-17T00:11:11.779Z</time>
      </trkpt>
      <trkpt lat="41.5781" lon="43.18337">
        <ele>1311.916504</ele>
        <time>2021-08-17T00:11:14.689Z</time>
      </trkpt>
      <trkpt lat="41.57813" lon="43.18361">
        <ele>1310.198772</ele>
        <time>2021-08-17T00:11:17.292Z</time>
      </trkpt>
      <trkpt lat="41.57839" lon="43.18433">
        <ele>1304.661446</ele>
        <time>2021-08-17T00:11:25.750Z</time>
      </trkpt>
      <trkpt lat="41.57882" lon="43.18605">
        <ele>1294.925492</ele>
        <time>2021-08-17T00:11:45.875Z</time>
      </trkpt>
      <trkpt lat="41.57882" lon="43.18684">
        <ele>1292.242971</ele>
        <time>2021-08-17T00:11:55.395Z</time>
      </trkpt>
      <trkpt lat="41.57892" lon="43.18831">
        <ele>1289.932715</ele>
        <time>2021-08-17T00:12:16.904Z</time>
      </trkpt>
      <trkpt lat="41.57892" lon="43.18844">
        <ele>1290.009596</ele>
        <time>2021-08-17T00:12:19.368Z</time>
      </trkpt>
      <trkpt lat="41.5789" lon="43.18879">
        <ele>1290.219441</ele>
        <time>2021-08-17T00:12:26.702Z</time>
      </trkpt>
      <trkpt lat="41.57888" lon="43.18923">
        <ele>1290.481759</ele>
        <time>2021-08-17T00:12:36.945Z</time>
      </trkpt>
      <trkpt lat="41.57892" lon="43.19025">
        <ele>1291.042297</ele>
        <time>2021-08-17T00:13:03.300Z</time>
      </trkpt>
      <trkpt lat="41.57882" lon="43.19097">
        <ele>1291.317569</ele>
        <time>2021-08-17T00:13:19.183Z</time>
      </trkpt>
      <trkpt lat="41.57881" lon="43.19139">
        <ele>1291.472809</ele>
        <time>2021-08-17T00:13:26.417Z</time>
      </trkpt>
      <trkpt lat="41.57883" lon="43.19161">
        <ele>1291.553879</ele>
        <time>2021-08-17T00:13:31.046Z</time>
      </trkpt>
      <trkpt lat="41.57887" lon="43.19199">
        <ele>1291.699104</ele>
        <time>2021-08-17T00:13:36.964Z</time>
      </trkpt>
      <trkpt lat="41.57888" lon="43.19224">
        <ele>1291.792407</ele>
        <time>2021-08-17T00:13:40.795Z</time>
      </trkpt>
      <trkpt lat="41.57882" lon="43.19247">
        <ele>1291.809711</ele>
        <time>2021-08-17T00:13:44.599Z</time>
      </trkpt>
      <trkpt lat="41.5787" lon="43.19266">
        <ele>1291.611889</ele>
        <time>2021-08-17T00:13:48.151Z</time>
      </trkpt>
      <trkpt lat="41.57863" lon="43.19276">
        <ele>1291.502617</ele>
        <time>2021-08-17T00:13:50.014Z</time>
      </trkpt>
      <trkpt lat="41.57819" lon="43.19344">
        <ele>1290.776219</ele>
        <time>2021-08-17T00:14:02.903Z</time>
      </trkpt>
      <trkpt lat="41.57737" lon="43.19422">
        <ele>1290.082696</ele>
        <time>2021-08-17T00:14:22.540Z</time>
      </trkpt>
      <trkpt lat="41.57647" lon="43.19542">
        <ele>1291.034025</ele>
        <time>2021-08-17T00:14:56.642Z</time>
      </trkpt>
      <trkpt lat="41.57614" lon="43.19634">
        <ele>1292.602309</ele>
        <time>2021-08-17T00:15:20.852Z</time>
      </trkpt>
      <trkpt lat="41.57575" lon="43.19722">
        <ele>1294.830723</ele>
        <time>2021-08-17T00:15:49.039Z</time>
      </trkpt>
      <trkpt lat="41.57572" lon="43.19739">
        <ele>1295.218098</ele>
        <time>2021-08-17T00:15:54.360Z</time>
      </trkpt>
      <trkpt lat="41.57581" lon="43.1977">
        <ele>1295.945562</ele>
        <time>2021-08-17T00:16:04.525Z</time>
      </trkpt>
      <trkpt lat="41.57604" lon="43.19779">
        <ele>1296.692488</ele>
        <time>2021-08-17T00:16:14.487Z</time>
      </trkpt>
      <trkpt lat="41.57655" lon="43.19778">
        <ele>1298.947332</ele>
        <time>2021-08-17T00:16:36.597Z</time>
      </trkpt>
      <trkpt lat="41.57728" lon="43.19792">
        <ele>1302.169085</ele>
        <time>2021-08-17T00:17:09.923Z</time>
      </trkpt>
      <trkpt lat="41.57842" lon="43.19776">
        <ele>1306.87803</ele>
        <time>2021-08-17T00:18:01.586Z</time>
      </trkpt>
      <trkpt lat="41.57868" lon="43.19778">
        <ele>1307.893912</ele>
        <time>2021-08-17T00:18:12.621Z</time>
      </trkpt>
      <trkpt lat="41.57876" lon="43.19791">
        <ele>1308.390976</ele>
        <time>2021-08-17T00:18:18.023Z</time>
      </trkpt>
      <trkpt lat="41.57895" lon="43.19847">
        <ele>1310.184453</ele>
        <time>2021-08-17T00:18:36.524Z</time>
      </trkpt>
      <trkpt lat="41.57912" lon="43.19865">
        <ele>1311.012574</ele>
        <time>2021-08-17T00:18:44.740Z</time>
      </trkpt>
      <trkpt lat="41.57967" lon="43.199">
        <ele>1312.974427</ele>
        <time>2021-08-17T00:19:07.309Z</time>
      </trkpt>
      <trkpt lat="41.58025" lon="43.19945">
        <ele>1315.002522</ele>
        <time>2021-08-17T00:19:31.595Z</time>
      </trkpt>
      <trkpt lat="41.58066" lon="43.19968">
        <ele>1316.339733</ele>
        <time>2021-08-17T00:19:47.963Z</time>
      </trkpt>
      <trkpt lat="41.58135" lon="43.19991">
        <ele>1319.105308</ele>
        <time>2021-08-17T00:20:15.895Z</time>
      </trkpt>
      <trkpt lat="41.58148" lon="43.2">
        <ele>1319.713996</ele>
        <time>2021-08-17T00:20:21.995Z</time>
      </trkpt>
      <trkpt lat="41.58157" lon="43.20026">
        <ele>1320.600667</ele>
        <time>2021-08-17T00:20:30.877Z</time>
      </trkpt>
      <trkpt lat="41.5814" lon="43.20117">
        <ele>1323.50453</ele>
        <time>2021-08-17T00:21:01.795Z</time>
      </trkpt>
      <trkpt lat="41.58121" lon="43.20142">
        <ele>1324.713099</ele>
        <time>2021-08-17T00:21:13.591Z</time>
      </trkpt>
      <trkpt lat="41.58091" lon="43.20157">
        <ele>1326.678601</ele>
        <time>2021-08-17T00:21:31.272Z</time>
      </trkpt>
      <trkpt lat="41.58031" lon="43.20217">
        <ele>1331.116393</ele>
        <time>2021-08-17T00:22:10.851Z</time>
      </trkpt>
      <trkpt lat="41.58005" lon="43.20257">
        <ele>1333.500433</ele>
        <time>2021-08-17T00:22:31.937Z</time>
      </trkpt>
      <trkpt lat="41.57999" lon="43.20271">
        <ele>1334.213304</ele>
        <time>2021-08-17T00:22:37.860Z</time>
      </trkpt>
      <trkpt lat="41.57995" lon="43.2029">
        <ele>1335.103098</ele>
        <time>2021-08-17T00:22:47.168Z</time>
      </trkpt>
      <trkpt lat="41.57956" lon="43.20424">
        <ele>1340.889205</ele>
        <time>2021-08-17T00:23:44.216Z</time>
      </trkpt>
      <trkpt lat="41.57949" lon="43.20434">
        <ele>1341.438188</ele>
        <time>2021-08-17T00:23:48.398Z</time>
      </trkpt>
      <trkpt lat="41.57928" lon="43.20443">
        <ele>1342.598275</ele>
        <time>2021-08-17T00:24:00.081Z</time>
      </trkpt>
      <trkpt lat="41.57852" lon="43.2043">
        <ele>1345.165781</ele>
        <time>2021-08-17T00:24:30.851Z</time>
      </trkpt>
      <trkpt lat="41.57833" lon="43.20434">
        <ele>1345.375989</ele>
        <time>2021-08-17T00:24:37.261Z</time>
      </trkpt>
      <trkpt lat="41.57825" lon="43.2044">
        <ele>1345.47588</ele>
        <time>2021-08-17T00:24:40.838Z</time>
      </trkpt>
      <trkpt lat="41.57784" lon="43.20475">
        <ele>1346.02178</ele>
        <time>2021-08-17T00:24:56.238Z</time>
      </trkpt>
      <trkpt lat="41.57759" lon="43.20506">
        <ele>1346.388015</ele>
        <time>2021-08-17T00:25:03.214Z</time>
      </trkpt>
      <trkpt lat="41.57705" lon="43.20596">
        <ele>1344.329018</ele>
        <time>2021-08-17T00:25:18.723Z</time>
      </trkpt>
      <trkpt lat="41.57694" lon="43.20624">
        <ele>1343.270988</ele>
        <time>2021-08-17T00:25:22.702Z</time>
      </trkpt>
      <trkpt lat="41.57688" lon="43.2065">
        <ele>1342.33949</ele>
        <time>2021-08-17T00:25:25.970Z</time>
      </trkpt>
      <trkpt lat="41.5767" lon="43.20765">
        <ele>1338.25021</ele>
        <time>2021-08-17T00:25:39.594Z</time>
      </trkpt>
      <trkpt lat="41.57675" lon="43.20932">
        <ele>1329.266594</ele>
        <time>2021-08-17T00:25:58.170Z</time>
      </trkpt>
      <trkpt lat="41.57665" lon="43.21009">
        <ele>1325.08729</ele>
        <time>2021-08-17T00:26:06.864Z</time>
      </trkpt>
      <trkpt lat="41.57645" lon="43.21117">
        <ele>1319.163093</ele>
        <time>2021-08-17T00:26:19.333Z</time>
      </trkpt>
      <trkpt lat="41.57643" lon="43.21179">
        <ele>1315.823577</ele>
        <time>2021-08-17T00:26:26.421Z</time>
      </trkpt>
      <trkpt lat="41.57589" lon="43.21319">
        <ele>1307.785108</ele>
        <time>2021-08-17T00:26:44.060Z</time>
      </trkpt>
      <trkpt lat="41.57557" lon="43.21435">
        <ele>1301.598598</ele>
        <time>2021-08-17T00:26:58.120Z</time>
      </trkpt>
      <trkpt lat="41.57547" lon="43.21458">
        <ele>1300.349993</ele>
        <time>2021-08-17T00:27:01.119Z</time>
      </trkpt>
      <trkpt lat="41.57526" lon="43.2148">
        <ele>1298.791467</ele>
        <time>2021-08-17T00:27:05.251Z</time>
      </trkpt>
      <trkpt lat="41.57486" lon="43.21519">
        <ele>1295.888401</ele>
        <time>2021-08-17T00:27:12.918Z</time>
      </trkpt>
      <trkpt lat="41.57438" lon="43.21586">
        <ele>1291.813925</ele>
        <time>2021-08-17T00:27:23.665Z</time>
      </trkpt>
      <trkpt lat="41.57427" lon="43.2162">
        <ele>1290.170933</ele>
        <time>2021-08-17T00:27:28.147Z</time>
      </trkpt>
      <trkpt lat="41.57418" lon="43.21824">
        <ele>1280.955225</ele>
        <time>2021-08-17T00:27:51.893Z</time>
      </trkpt>
      <trkpt lat="41.57412" lon="43.21856">
        <ele>1279.443558</ele>
        <time>2021-08-17T00:27:55.590Z</time>
      </trkpt>
      <trkpt lat="41.57396" lon="43.21886">
        <ele>1277.368868</ele>
        <time>2021-08-17T00:27:59.663Z</time>
      </trkpt>
      <trkpt lat="41.57377" lon="43.21908">
        <ele>1275.443529</ele>
        <time>2021-08-17T00:28:03.412Z</time>
      </trkpt>
      <trkpt lat="41.57255" lon="43.22002">
        <ele>1264.831714</ele>
        <time>2021-08-17T00:28:24.098Z</time>
      </trkpt>
      <trkpt lat="41.5723" lon="43.22029">
        <ele>1262.460137</ele>
        <time>2021-08-17T00:28:28.930Z</time>
      </trkpt>
      <trkpt lat="41.572" lon="43.22059">
        <ele>1259.758825</ele>
        <time>2021-08-17T00:28:34.450Z</time>
      </trkpt>
      <trkpt lat="41.5712" lon="43.22192">
        <ele>1250.808671</ele>
        <time>2021-08-17T00:28:53.620Z</time>
      </trkpt>
      <trkpt lat="41.57113" lon="43.22226">
        <ele>1249.136851</ele>
        <time>2021-08-17T00:28:57.665Z</time>
      </trkpt>
      <trkpt lat="41.57117" lon="43.22273">
        <ele>1246.947008</ele>
        <time>2021-08-17T00:29:02.990Z</time>
      </trkpt>
      <trkpt lat="41.57128" lon="43.22303">
        <ele>1245.354459</ele>
        <time>2021-08-17T00:29:06.881Z</time>
      </trkpt>
      <trkpt lat="41.57137" lon="43.2232">
        <ele>1244.382071</ele>
        <time>2021-08-17T00:29:09.267Z</time>
      </trkpt>
      <trkpt lat="41.57152" lon="43.22332">
        <ele>1243.301594</ele>
        <time>2021-08-17T00:29:11.915Z</time>
      </trkpt>
      <trkpt lat="41.57168" lon="43.22333">
        <ele>1242.318746</ele>
        <time>2021-08-17T00:29:14.332Z</time>
      </trkpt>
      <trkpt lat="41.57185" lon="43.22323">
        <ele>1241.155922</ele>
        <time>2021-08-17T00:29:17.292Z</time>
      </trkpt>
      <trkpt lat="41.57227" lon="43.22277">
        <ele>1238.088264</ele>
        <time>2021-08-17T00:29:25.758Z</time>
      </trkpt>
      <trkpt lat="41.57256" lon="43.22254">
        <ele>1236.181129</ele>
        <time>2021-08-17T00:29:31.058Z</time>
      </trkpt>
      <trkpt lat="41.57303" lon="43.22207">
        <ele>1232.86144</ele>
        <time>2021-08-17T00:29:40.337Z</time>
      </trkpt>
      <trkpt lat="41.57335" lon="43.22184">
        <ele>1230.715571</ele>
        <time>2021-08-17T00:29:45.995Z</time>
      </trkpt>
      <trkpt lat="41.57352" lon="43.22181">
        <ele>1229.572159</ele>
        <time>2021-08-17T00:29:48.559Z</time>
      </trkpt>
      <trkpt lat="41.57434" lon="43.22225">
        <ele>1223.748277</ele>
        <time>2021-08-17T00:30:01.863Z</time>
      </trkpt>
      <trkpt lat="41.57456" lon="43.22256">
        <ele>1221.65201</ele>
        <time>2021-08-17T00:30:06.681Z</time>
      </trkpt>
      <trkpt lat="41.57466" lon="43.22283">
        <ele>1220.18147</ele>
        <time>2021-08-17T00:30:09.998Z</time>
      </trkpt>
      <trkpt lat="41.57477" lon="43.22318">
        <ele>1218.399878</ele>
        <time>2021-08-17T00:30:14.349Z</time>
      </trkpt>
      <trkpt lat="41.57478" lon="43.22334">
        <ele>1217.638944</ele>
        <time>2021-08-17T00:30:16.276Z</time>
      </trkpt>
      <trkpt lat="41.57473" lon="43.22347">
        <ele>1216.984311</ele>
        <time>2021-08-17T00:30:17.965Z</time>
      </trkpt>
      <trkpt lat="41.5741" lon="43.22413">
        <ele>1212.121367</ele>
        <time>2021-08-17T00:30:30.128Z</time>
      </trkpt>
      <trkpt lat="41.57395" lon="43.22446">
        <ele>1210.357875</ele>
        <time>2021-08-17T00:30:34.607Z</time>
      </trkpt>
      <trkpt lat="41.57392" lon="43.2248">
        <ele>1208.782579</ele>
        <time>2021-08-17T00:30:38.738Z</time>
      </trkpt>
      <trkpt lat="41.57394" lon="43.22512">
        <ele>1207.186182</ele>
        <time>2021-08-17T00:30:42.563Z</time>
      </trkpt>
      <trkpt lat="41.574" lon="43.22536">
        <ele>1205.90446</ele>
        <time>2021-08-17T00:30:45.563Z</time>
      </trkpt>
      <trkpt lat="41.57424" lon="43.22577">
        <ele>1203.313414</ele>
        <time>2021-08-17T00:30:51.534Z</time>
      </trkpt>
      <trkpt lat="41.57588" lon="43.22698">
        <ele>1187.930012</ele>
        <time>2021-08-17T00:31:19.238Z</time>
      </trkpt>
      <trkpt lat="41.57636" lon="43.22773">
        <ele>1180.725169</ele>
        <time>2021-08-17T00:31:29.425Z</time>
      </trkpt>
      <trkpt lat="41.57647" lon="43.22805">
        <ele>1177.959179</ele>
        <time>2021-08-17T00:31:33.140Z</time>
      </trkpt>
      <trkpt lat="41.57668" lon="43.22931">
        <ele>1166.484794</ele>
        <time>2021-08-17T00:31:46.417Z</time>
      </trkpt>
      <trkpt lat="41.57664" lon="43.22949">
        <ele>1164.852088</ele>
        <time>2021-08-17T00:31:48.317Z</time>
      </trkpt>
      <trkpt lat="41.57624" lon="43.22995">
        <ele>1158.599859</ele>
        <time>2021-08-17T00:31:55.645Z</time>
      </trkpt>
      <trkpt lat="41.57612" lon="43.23039">
        <ele>1155.616687</ele>
        <time>2021-08-17T00:32:00.627Z</time>
      </trkpt>
      <trkpt lat="41.57609" lon="43.23075">
        <ele>1153.706944</ele>
        <time>2021-08-17T00:32:04.608Z</time>
      </trkpt>
      <trkpt lat="41.57612" lon="43.23093">
        <ele>1152.739832</ele>
        <time>2021-08-17T00:32:06.657Z</time>
      </trkpt>
      <trkpt lat="41.5763" lon="43.23129">
        <ele>1150.511972</ele>
        <time>2021-08-17T00:32:11.458Z</time>
      </trkpt>
      <trkpt lat="41.57645" lon="43.23145">
        <ele>1149.178949</ele>
        <time>2021-08-17T00:32:14.418Z</time>
      </trkpt>
      <trkpt lat="41.57676" lon="43.23148">
        <ele>1147.022172</ele>
        <time>2021-08-17T00:32:19.331Z</time>
      </trkpt>
      <trkpt lat="41.57686" lon="43.23146">
        <ele>1146.317043</ele>
        <time>2021-08-17T00:32:20.973Z</time>
      </trkpt>
      <trkpt lat="41.57711" lon="43.23123">
        <ele>1144.382982</ele>
        <time>2021-08-17T00:32:26.078Z</time>
      </trkpt>
      <trkpt lat="41.57739" lon="43.23107">
        <ele>1143.030813</ele>
        <time>2021-08-17T00:32:31.162Z</time>
      </trkpt>
      <trkpt lat="41.57788" lon="43.23098">
        <ele>1140.847179</ele>
        <time>2021-08-17T00:32:39.318Z</time>
      </trkpt>
      <trkpt lat="41.5781" lon="43.23101">
        <ele>1139.864009</ele>
        <time>2021-08-17T00:32:42.943Z</time>
      </trkpt>
      <trkpt lat="41.57819" lon="43.23113">
        <ele>1139.298504</ele>
        <time>2021-08-17T00:32:44.996Z</time>
      </trkpt>
      <trkpt lat="41.57827" lon="43.23138">
        <ele>1138.391046</ele>
        <time>2021-08-17T00:32:48.314Z</time>
      </trkpt>
      <trkpt lat="41.5781" lon="43.23241">
        <ele>1134.651995</ele>
        <time>2021-08-17T00:33:00.796Z</time>
      </trkpt>
      <trkpt lat="41.57808" lon="43.23263">
        <ele>1133.800793</ele>
        <time>2021-08-17T00:33:03.444Z</time>
      </trkpt>
      <trkpt lat="41.57814" lon="43.23286">
        <ele>1132.901178</ele>
        <time>2021-08-17T00:33:06.260Z</time>
      </trkpt>
      <trkpt lat="41.57822" lon="43.23307">
        <ele>1131.996818</ele>
        <time>2021-08-17T00:33:09.050Z</time>
      </trkpt>
      <trkpt lat="41.57875" lon="43.23393">
        <ele>1127.846292</ele>
        <time>2021-08-17T00:33:22.078Z</time>
      </trkpt>
      <trkpt lat="41.57914" lon="43.23444">
        <ele>1125.92307</ele>
        <time>2021-08-17T00:33:31.171Z</time>
      </trkpt>
      <trkpt lat="41.5793" lon="43.23451">
        <ele>1125.364882</ele>
        <time>2021-08-17T00:33:33.939Z</time>
      </trkpt>
      <trkpt lat="41.57958" lon="43.23452">
        <ele>1124.402801</ele>
        <time>2021-08-17T00:33:38.773Z</time>
      </trkpt>
      <trkpt lat="41.57971" lon="43.23443">
        <ele>1123.888779</ele>
        <time>2021-08-17T00:33:41.392Z</time>
      </trkpt>
      <trkpt lat="41.57992" lon="43.23393">
        <ele>1122.436576</ele>
        <time>2021-08-17T00:33:48.881Z</time>
      </trkpt>
      <trkpt lat="41.58018" lon="43.23366">
        <ele>1121.254187</ele>
        <time>2021-08-17T00:33:54.641Z</time>
      </trkpt>
      <trkpt lat="41.58034" lon="43.23338">
        <ele>1120.130039</ele>
        <time>2021-08-17T00:33:59.284Z</time>
      </trkpt>
      <trkpt lat="41.58034" lon="43.23316">
        <ele>1119.417021</ele>
        <time>2021-08-17T00:34:02.201Z</time>
      </trkpt>
      <trkpt lat="41.58018" lon="43.2326">
        <ele>1117.523806</ele>
        <time>2021-08-17T00:34:09.722Z</time>
      </trkpt>
      <trkpt lat="41.58015" lon="43.23235">
        <ele>1116.729641</ele>
        <time>2021-08-17T00:34:12.786Z</time>
      </trkpt>
      <trkpt lat="41.58017" lon="43.23209">
        <ele>1115.874532</ele>
        <time>2021-08-17T00:34:16.021Z</time>
      </trkpt>
      <trkpt lat="41.58026" lon="43.23185">
        <ele>1115.039121</ele>
        <time>2021-08-17T00:34:19.131Z</time>
      </trkpt>
      <trkpt lat="41.58052" lon="43.23154">
        <ele>1113.188135</ele>
        <time>2021-08-17T00:34:24.520Z</time>
      </trkpt>
      <trkpt lat="41.58066" lon="43.23154">
        <ele>1112.088765</ele>
        <time>2021-08-17T00:34:26.643Z</time>
      </trkpt>
      <trkpt lat="41.58087" lon="43.23164">
        <ele>1110.403173</ele>
        <time>2021-08-17T00:34:29.860Z</time>
      </trkpt>
      <trkpt lat="41.5811" lon="43.23235">
        <ele>1105.84863</ele>
        <time>2021-08-17T00:34:38.408Z</time>
      </trkpt>
      <trkpt lat="41.58121" lon="43.23245">
        <ele>1104.827288</ele>
        <time>2021-08-17T00:34:40.298Z</time>
      </trkpt>
      <trkpt lat="41.58141" lon="43.2325">
        <ele>1103.24254</ele>
        <time>2021-08-17T00:34:43.208Z</time>
      </trkpt>
      <trkpt lat="41.58175" lon="43.2324">
        <ele>1100.493001</ele>
        <time>2021-08-17T00:34:48.249Z</time>
      </trkpt>
      <trkpt lat="41.58236" lon="43.2325">
        <ele>1095.434179</ele>
        <time>2021-08-17T00:34:57.146Z</time>
      </trkpt>
      <trkpt lat="41.58257" lon="43.23259">
        <ele>1093.665462</ele>
        <time>2021-08-17T00:35:00.269Z</time>
      </trkpt>
      <trkpt lat="41.58266" lon="43.23269">
        <ele>1092.650483</ele>
        <time>2021-08-17T00:35:02.051Z</time>
      </trkpt>
      <trkpt lat="41.58273" lon="43.23291">
        <ele>1091.198319</ele>
        <time>2021-08-17T00:35:04.634Z</time>
      </trkpt>
      <trkpt lat="41.58273" lon="43.23307">
        <ele>1090.207869</ele>
        <time>2021-08-17T00:35:06.393Z</time>
      </trkpt>
      <trkpt lat="41.58266" lon="43.23326">
        <ele>1088.937173</ele>
        <time>2021-08-17T00:35:08.666Z</time>
      </trkpt>
      <trkpt lat="41.58252" lon="43.23352">
        <ele>1086.956814</ele>
        <time>2021-08-17T00:35:12.215Z</time>
      </trkpt>
      <trkpt lat="41.58145" lon="43.2348">
        <ele>1077.533123</ele>
        <time>2021-08-17T00:35:34.013Z</time>
      </trkpt>
      <trkpt lat="41.58052" lon="43.23627">
        <ele>1069.234396</ele>
        <time>2021-08-17T00:35:56.660Z</time>
      </trkpt>
      <trkpt lat="41.57907" lon="43.23772">
        <ele>1059.895232</ele>
        <time>2021-08-17T00:36:25.023Z</time>
      </trkpt>
      <trkpt lat="41.57878" lon="43.23797">
        <ele>1058.213306</ele>
        <time>2021-08-17T00:36:30.447Z</time>
      </trkpt>
      <trkpt lat="41.57837" lon="43.23818">
        <ele>1056.076595</ele>
        <time>2021-08-17T00:36:37.436Z</time>
      </trkpt>
      <trkpt lat="41.57792" lon="43.23817">
        <ele>1054.575982</ele>
        <time>2021-08-17T00:36:44.869Z</time>
      </trkpt>
      <trkpt lat="41.57723" lon="43.23803">
        <ele>1052.865633</ele>
        <time>2021-08-17T00:36:56.842Z</time>
      </trkpt>
      <trkpt lat="41.57653" lon="43.23809">
        <ele>1051.135024</ele>
        <time>2021-08-17T00:37:09.973Z</time>
      </trkpt>
      <trkpt lat="41.57436" lon="43.23868">
        <ele>1051.218639</ele>
        <time>2021-08-17T00:38:01.082Z</time>
      </trkpt>
      <trkpt lat="41.57254" lon="43.23934">
        <ele>1053.074637</ele>
        <time>2021-08-17T00:38:53.309Z</time>
      </trkpt>
      <trkpt lat="41.57206" lon="43.23944">
        <ele>1053.702051</ele>
        <time>2021-08-17T00:39:07.351Z</time>
      </trkpt>
      <trkpt lat="41.57156" lon="43.23939">
        <ele>1054.348344</ele>
        <time>2021-08-17T00:39:21.875Z</time>
      </trkpt>
      <trkpt lat="41.57121" lon="43.23923">
        <ele>1054.81827</ele>
        <time>2021-08-17T00:39:32.465Z</time>
      </trkpt>
      <trkpt lat="41.57052" lon="43.23859">
        <ele>1056.033224</ele>
        <time>2021-08-17T00:39:56.916Z</time>
      </trkpt>
      <trkpt lat="41.57027" lon="43.23829">
        <ele>1056.531002</ele>
        <time>2021-08-17T00:40:07.107Z</time>
      </trkpt>
      <trkpt lat="41.57007" lon="43.23819">
        <ele>1056.846874</ele>
        <time>2021-08-17T00:40:13.630Z</time>
      </trkpt>
      <trkpt lat="41.5693" lon="43.23821">
        <ele>1058.008565</ele>
        <time>2021-08-17T00:40:36.599Z</time>
      </trkpt>
      <trkpt lat="41.56865" lon="43.23839">
        <ele>1059.052169</ele>
        <time>2021-08-17T00:40:56.292Z</time>
      </trkpt>
      <trkpt lat="41.56759" lon="43.23884">
        <ele>1060.797771</ele>
        <time>2021-08-17T00:41:30.014Z</time>
      </trkpt>
      <trkpt lat="41.56727" lon="43.23907">
        <ele>1061.381079</ele>
        <time>2021-08-17T00:41:41.149Z</time>
      </trkpt>
      <trkpt lat="41.56707" lon="43.23934">
        <ele>1061.847424</ele>
        <time>2021-08-17T00:41:49.841Z</time>
      </trkpt>
      <trkpt lat="41.56697" lon="43.23951">
        <ele>1062.104314</ele>
        <time>2021-08-17T00:41:54.904Z</time>
      </trkpt>
      <trkpt lat="41.56654" lon="43.23988">
        <ele>1062.927871</ele>
        <time>2021-08-17T00:42:10.194Z</time>
      </trkpt>
      <trkpt lat="41.56621" lon="43.24024">
        <ele>1063.48722</ele>
        <time>2021-08-17T00:42:22.660Z</time>
      </trkpt>
      <trkpt lat="41.56562" lon="43.24103">
        <ele>1064.418521</ele>
        <time>2021-08-17T00:42:47.034Z</time>
      </trkpt>
      <trkpt lat="41.5646" lon="43.24254">
        <ele>1066.039103</ele>
        <time>2021-08-17T00:43:26.154Z</time>
      </trkpt>
      <trkpt lat="41.56412" lon="43.24299">
        <ele>1066.636144</ele>
        <time>2021-08-17T00:43:41.482Z</time>
      </trkpt>
      <trkpt lat="41.56331" lon="43.24344">
        <ele>1068.319336</ele>
        <time>2021-08-17T00:44:08.903Z</time>
      </trkpt>
      <trkpt lat="41.56302" lon="43.24366">
        <ele>1069.201077</ele>
        <time>2021-08-17T00:44:20.286Z</time>
      </trkpt>
      <trkpt lat="41.56262" lon="43.24405">
        <ele>1070.548642</ele>
        <time>2021-08-17T00:44:38.989Z</time>
      </trkpt>
      <trkpt lat="41.56201" lon="43.24461">
        <ele>1072.508623</ele>
        <time>2021-08-17T00:45:08.435Z</time>
      </trkpt>
      <trkpt lat="41.56184" lon="43.24487">
        <ele>1073.177267</ele>
        <time>2021-08-17T00:45:19.001Z</time>
      </trkpt>
      <trkpt lat="41.56153" lon="43.24581">
        <ele>1075.168757</ele>
        <time>2021-08-17T00:45:48.000Z</time>
      </trkpt>
      <trkpt lat="41.56142" lon="43.24629">
        <ele>1076.132563</ele>
        <time>2021-08-17T00:45:59.392Z</time>
      </trkpt>
      <trkpt lat="41.56132" lon="43.24734">
        <ele>1076.842331</ele>
        <time>2021-08-17T00:46:19.375Z</time>
      </trkpt>
      <trkpt lat="41.56124" lon="43.24763">
        <ele>1076.947771</ele>
        <time>2021-08-17T00:46:24.305Z</time>
      </trkpt>
      <trkpt lat="41.56135" lon="43.2487">
        <ele>1077.322416</ele>
        <time>2021-08-17T00:46:47.718Z</time>
      </trkpt>
      <trkpt lat="41.56166" lon="43.24967">
        <ele>1079.659748</ele>
        <time>2021-08-17T00:47:15.606Z</time>
      </trkpt>
      <trkpt lat="41.56173" lon="43.25008">
        <ele>1080.738246</ele>
        <time>2021-08-17T00:47:29.376Z</time>
      </trkpt>
      <trkpt lat="41.5617" lon="43.25045">
        <ele>1081.689452</ele>
        <time>2021-08-17T00:47:43.084Z</time>
      </trkpt>
      <trkpt lat="41.56139" lon="43.25213">
        <ele>1088.521666</ele>
        <time>2021-08-17T00:49:03.825Z</time>
      </trkpt>
      <trkpt lat="41.56141" lon="43.25326">
        <ele>1094.065343</ele>
        <time>2021-08-17T00:50:00.045Z</time>
      </trkpt>
      <trkpt lat="41.56135" lon="43.25422">
        <ele>1096.720481</ele>
        <time>2021-08-17T00:50:40.583Z</time>
      </trkpt>
      <trkpt lat="41.56143" lon="43.25532">
        <ele>1098.828668</ele>
        <time>2021-08-17T00:51:14.770Z</time>
      </trkpt>
      <trkpt lat="41.56188" lon="43.2575">
        <ele>1098.861677</ele>
        <time>2021-08-17T00:52:00.433Z</time>
      </trkpt>
      <trkpt lat="41.56209" lon="43.25824">
        <ele>1098.186365</ele>
        <time>2021-08-17T00:52:16.617Z</time>
      </trkpt>
      <trkpt lat="41.56206" lon="43.25872">
        <ele>1096.458869</ele>
        <time>2021-08-17T00:52:27.340Z</time>
      </trkpt>
      <trkpt lat="41.56219" lon="43.25918">
        <ele>1094.697526</ele>
        <time>2021-08-17T00:52:35.345Z</time>
      </trkpt>
      <trkpt lat="41.56223" lon="43.25967">
        <ele>1092.914679</ele>
        <time>2021-08-17T00:52:43.067Z</time>
      </trkpt>
      <trkpt lat="41.56221" lon="43.26003">
        <ele>1091.630158</ele>
        <time>2021-08-17T00:52:48.682Z</time>
      </trkpt>
      <trkpt lat="41.56226" lon="43.26037">
        <ele>1090.412186</ele>
        <time>2021-08-17T00:52:53.871Z</time>
      </trkpt>
      <trkpt lat="41.5623" lon="43.26045">
        <ele>1090.032877</ele>
        <time>2021-08-17T00:52:55.652Z</time>
      </trkpt>
      <trkpt lat="41.56236" lon="43.26048">
        <ele>1089.739518</ele>
        <time>2021-08-17T00:52:57.246Z</time>
      </trkpt>
      <trkpt lat="41.56284" lon="43.26062">
        <ele>1087.304287</ele>
        <time>2021-08-17T00:53:07.377Z</time>
      </trkpt>
      <trkpt lat="41.56288" lon="43.26071">
        <ele>1086.886696</ele>
        <time>2021-08-17T00:53:09.151Z</time>
      </trkpt>
      <trkpt lat="41.56291" lon="43.26113">
        <ele>1085.350874</ele>
        <time>2021-08-17T00:53:15.779Z</time>
      </trkpt>
      <trkpt lat="41.56296" lon="43.26132">
        <ele>1084.596954</ele>
        <time>2021-08-17T00:53:19.211Z</time>
      </trkpt>
      <trkpt lat="41.56307" lon="43.26162">
        <ele>1083.359968</ele>
        <time>2021-08-17T00:53:24.409Z</time>
      </trkpt>
      <trkpt lat="41.56325" lon="43.26174">
        <ele>1082.344797</ele>
        <time>2021-08-17T00:53:29.005Z</time>
      </trkpt>
      <trkpt lat="41.56346" lon="43.26181">
        <ele>1081.261683</ele>
        <time>2021-08-17T00:53:33.573Z</time>
      </trkpt>
      <trkpt lat="41.564" lon="43.26176">
        <ele>1081.005073</ele>
        <time>2021-08-17T00:53:50.812Z</time>
      </trkpt>
      <trkpt lat="41.56444" lon="43.26165">
        <ele>1081.197209</ele>
        <time>2021-08-17T00:54:09.632Z</time>
      </trkpt>
      <trkpt lat="41.56471" lon="43.26166">
        <ele>1081.308978</ele>
        <time>2021-08-17T00:54:20.136Z</time>
      </trkpt>
      <trkpt lat="41.56484" lon="43.26192">
        <ele>1081.407765</ele>
        <time>2021-08-17T00:54:27.797Z</time>
      </trkpt>
      <trkpt lat="41.56485" lon="43.26258">
        <ele>1081.412977</ele>
        <time>2021-08-17T00:54:43.590Z</time>
      </trkpt>
      <trkpt lat="41.56472" lon="43.26301">
        <ele>1080.751841</ele>
        <time>2021-08-17T00:54:50.897Z</time>
      </trkpt>
      <trkpt lat="41.56457" lon="43.26348">
        <ele>1080.037929</ele>
        <time>2021-08-17T00:54:58.194Z</time>
      </trkpt>
      <trkpt lat="41.56442" lon="43.26394">
        <ele>1079.325855</ele>
        <time>2021-08-17T00:55:05.036Z</time>
      </trkpt>
      <trkpt lat="41.56391" lon="43.26542">
        <ele>1077.036998</ele>
        <time>2021-08-17T00:55:25.425Z</time>
      </trkpt>
      <trkpt lat="41.56368" lon="43.26715">
        <ele>1075.001086</ele>
        <time>2021-08-17T00:55:50.991Z</time>
      </trkpt>
      <trkpt lat="41.56346" lon="43.2682">
        <ele>1076.176538</ele>
        <time>2021-08-17T00:56:13.720Z</time>
      </trkpt>
      <trkpt lat="41.56347" lon="43.26906">
        <ele>1077.095744</ele>
        <time>2021-08-17T00:56:35.661Z</time>
      </trkpt>
      <trkpt lat="41.56339" lon="43.26945">
        <ele>1077.633925</ele>
        <time>2021-08-17T00:56:47.268Z</time>
      </trkpt>
      <trkpt lat="41.56329" lon="43.26964">
        <ele>1078.066594</ele>
        <time>2021-08-17T00:56:53.659Z</time>
      </trkpt>
      <trkpt lat="41.56249" lon="43.2709">
        <ele>1081.207824</ele>
        <time>2021-08-17T00:57:38.669Z</time>
      </trkpt>
      <trkpt lat="41.56153" lon="43.27184">
        <ele>1083.443015</ele>
        <time>2021-08-17T00:58:14.313Z</time>
      </trkpt>
      <trkpt lat="41.56067" lon="43.27241">
        <ele>1085.177766</ele>
        <time>2021-08-17T00:58:41.569Z</time>
      </trkpt>
      <trkpt lat="41.56026" lon="43.2725">
        <ele>1086.946398</ele>
        <time>2021-08-17T00:58:56.548Z</time>
      </trkpt>
      <trkpt lat="41.55987" lon="43.27248">
        <ele>1088.602687</ele>
        <time>2021-08-17T00:59:12.000Z</time>
      </trkpt>
      <trkpt lat="41.55973" lon="43.27244">
        <ele>1089.205722</ele>
        <time>2021-08-17T00:59:17.238Z</time>
      </trkpt>
      <trkpt lat="41.55959" lon="43.27236">
        <ele>1089.842439</ele>
        <time>2021-08-17T00:59:25.073Z</time>
      </trkpt>
      <trkpt lat="41.55812" lon="43.27127">
        <ele>1098.605031</ele>
        <time>2021-08-17T01:00:55.699Z</time>
      </trkpt>
      <trkpt lat="41.55654" lon="43.26966">
        <ele>1107.552454</ele>
        <time>2021-08-17T01:02:31.316Z</time>
      </trkpt>
      <trkpt lat="41.55592" lon="43.26888">
        <ele>1109.172446</ele>
        <time>2021-08-17T01:02:54.625Z</time>
      </trkpt>
      <trkpt lat="41.5557" lon="43.26869">
        <ele>1108.727613</ele>
        <time>2021-08-17T01:03:00.201Z</time>
      </trkpt>
      <trkpt lat="41.55494" lon="43.26834">
        <ele>1107.394589</ele>
        <time>2021-08-17T01:03:14.796Z</time>
      </trkpt>
      <trkpt lat="41.55427" lon="43.26769">
        <ele>1105.185434</ele>
        <time>2021-08-17T01:03:28.592Z</time>
      </trkpt>
      <trkpt lat="41.55362" lon="43.26692">
        <ele>1101.85137</ele>
        <time>2021-08-17T01:03:42.829Z</time>
      </trkpt>
      <trkpt lat="41.55343" lon="43.26669">
        <ele>1100.870276</ele>
        <time>2021-08-17T01:03:47.008Z</time>
      </trkpt>
      <trkpt lat="41.55285" lon="43.26595">
        <ele>1098.288283</ele>
        <time>2021-08-17T01:04:00.525Z</time>
      </trkpt>
      <trkpt lat="41.55202" lon="43.26488">
        <ele>1095.014106</ele>
        <time>2021-08-17T01:04:20.675Z</time>
      </trkpt>
      <trkpt lat="41.55091" lon="43.26193">
        <ele>1091.449169</ele>
        <time>2021-08-17T01:05:08.198Z</time>
      </trkpt>
      <trkpt lat="41.5504" lon="43.26101">
        <ele>1090.753507</ele>
        <time>2021-08-17T01:05:25.909Z</time>
      </trkpt>
      <trkpt lat="41.55023" lon="43.2608">
        <ele>1090.568859</ele>
        <time>2021-08-17T01:05:30.679Z</time>
      </trkpt>
      <trkpt lat="41.5499" lon="43.26051">
        <ele>1090.419366</ele>
        <time>2021-08-17T01:05:39.172Z</time>
      </trkpt>
      <trkpt lat="41.54856" lon="43.25975">
        <ele>1090.39089</ele>
        <time>2021-08-17T01:06:11.244Z</time>
      </trkpt>
      <trkpt lat="41.54818" lon="43.25959">
        <ele>1090.760048</ele>
        <time>2021-08-17T01:06:20.729Z</time>
      </trkpt>
      <trkpt lat="41.54766" lon="43.25957">
        <ele>1091.470876</ele>
        <time>2021-08-17T01:06:34.345Z</time>
      </trkpt>
      <trkpt lat="41.54727" lon="43.25971">
        <ele>1092.020813</ele>
        <time>2021-08-17T01:06:45.896Z</time>
      </trkpt>
      <trkpt lat="41.54603" lon="43.26047">
        <ele>1095.699095</ele>
        <time>2021-08-17T01:07:33.132Z</time>
      </trkpt>
      <trkpt lat="41.54461" lon="43.261">
        <ele>1102.2136</ele>
        <time>2021-08-17T01:08:40.122Z</time>
      </trkpt>
      <trkpt lat="41.54325" lon="43.26175">
        <ele>1110.747366</ele>
        <time>2021-08-17T01:10:00.935Z</time>
      </trkpt>
      <trkpt lat="41.54276" lon="43.26184">
        <ele>1112.767495</ele>
        <time>2021-08-17T01:10:28.133Z</time>
      </trkpt>
      <trkpt lat="41.54204" lon="43.26182">
        <ele>1115.659898</ele>
        <time>2021-08-17T01:10:59.781Z</time>
      </trkpt>
      <trkpt lat="41.54126" lon="43.26151">
        <ele>1116.623792</ele>
        <time>2021-08-17T01:11:22.212Z</time>
      </trkpt>
      <trkpt lat="41.54094" lon="43.26124">
        <ele>1115.655158</ele>
        <time>2021-08-17T01:11:29.236Z</time>
      </trkpt>
      <trkpt lat="41.53967" lon="43.25931">
        <ele>1109.65739</ele>
        <time>2021-08-17T01:12:00.422Z</time>
      </trkpt>
      <trkpt lat="41.53937" lon="43.25871">
        <ele>1107.65411</ele>
        <time>2021-08-17T01:12:09.366Z</time>
      </trkpt>
      <trkpt lat="41.53919" lon="43.25844">
        <ele>1106.641034</ele>
        <time>2021-08-17T01:12:14.074Z</time>
      </trkpt>
      <trkpt lat="41.53888" lon="43.25828">
        <ele>1105.911296</ele>
        <time>2021-08-17T01:12:20.035Z</time>
      </trkpt>
      <trkpt lat="41.53856" lon="43.25832">
        <ele>1105.560036</ele>
        <time>2021-08-17T01:12:26.063Z</time>
      </trkpt>
      <trkpt lat="41.53721" lon="43.25886">
        <ele>1104.037729</ele>
        <time>2021-08-17T01:12:55.253Z</time>
      </trkpt>
      <trkpt lat="41.5361" lon="43.25909">
        <ele>1103.038104</ele>
        <time>2021-08-17T01:13:18.299Z</time>
      </trkpt>
      <trkpt lat="41.53578" lon="43.25922">
        <ele>1102.741371</ele>
        <time>2021-08-17T01:13:24.839Z</time>
      </trkpt>
      <trkpt lat="41.53248" lon="43.26127">
        <ele>1098.971901</ele>
        <time>2021-08-17T01:14:35.756Z</time>
      </trkpt>
      <trkpt lat="41.5322" lon="43.26138">
        <ele>1098.99084</ele>
        <time>2021-08-17T01:14:42.725Z</time>
      </trkpt>
      <trkpt lat="41.53186" lon="43.26143">
        <ele>1099.495851</ele>
        <time>2021-08-17T01:14:51.939Z</time>
      </trkpt>
      <trkpt lat="41.53137" lon="43.26137">
        <ele>1100.202421</ele>
        <time>2021-08-17T01:15:05.965Z</time>
      </trkpt>
      <trkpt lat="41.53105" lon="43.26123">
        <ele>1100.695706</ele>
        <time>2021-08-17T01:15:16.667Z</time>
      </trkpt>
      <trkpt lat="41.53031" lon="43.2608">
        <ele>1102.485882</ele>
        <time>2021-08-17T01:15:44.533Z</time>
      </trkpt>
      <trkpt lat="41.52979" lon="43.26057">
        <ele>1104.400727</ele>
        <time>2021-08-17T01:16:04.552Z</time>
      </trkpt>
      <trkpt lat="41.5292" lon="43.2605">
        <ele>1106.45376</ele>
        <time>2021-08-17T01:16:27.821Z</time>
      </trkpt>
      <trkpt lat="41.5285" lon="43.26062">
        <ele>1109.760759</ele>
        <time>2021-08-17T01:17:01.264Z</time>
      </trkpt>
      <trkpt lat="41.52816" lon="43.26062">
        <ele>1111.67952</ele>
        <time>2021-08-17T01:17:18.986Z</time>
      </trkpt>
      <trkpt lat="41.52771" lon="43.26047">
        <ele>1114.412061</ele>
        <time>2021-08-17T01:17:45.284Z</time>
      </trkpt>
      <trkpt lat="41.52654" lon="43.25993">
        <ele>1119.639304</ele>
        <time>2021-08-17T01:18:49.667Z</time>
      </trkpt>
      <trkpt lat="41.52393" lon="43.25917">
        <ele>1122.065908</ele>
        <time>2021-08-17T01:19:58.357Z</time>
      </trkpt>
      <trkpt lat="41.5233" lon="43.25931">
        <ele>1120.905946</ele>
        <time>2021-08-17T01:20:08.848Z</time>
      </trkpt>
      <trkpt lat="41.52256" lon="43.2597">
        <ele>1118.161131</ele>
        <time>2021-08-17T01:20:21.826Z</time>
      </trkpt>
      <trkpt lat="41.52218" lon="43.25979">
        <ele>1116.841668</ele>
        <time>2021-08-17T01:20:28.041Z</time>
      </trkpt>
      <trkpt lat="41.5218" lon="43.25979">
        <ele>1115.715909</ele>
        <time>2021-08-17T01:20:34.634Z</time>
      </trkpt>
      <trkpt lat="41.52088" lon="43.25966">
        <ele>1115.464313</ele>
        <time>2021-08-17T01:20:53.250Z</time>
      </trkpt>
      <trkpt lat="41.51941" lon="43.25964">
        <ele>1115.815016</ele>
        <time>2021-08-17T01:21:35.250Z</time>
      </trkpt>
      <trkpt lat="41.51848" lon="43.25925">
        <ele>1116.662478</ele>
        <time>2021-08-17T01:22:01.076Z</time>
      </trkpt>
      <trkpt lat="41.5179" lon="43.2591">
        <ele>1116.805428</ele>
        <time>2021-08-17T01:22:14.416Z</time>
      </trkpt>
      <trkpt lat="41.51747" lon="43.25905">
        <ele>1116.805487</ele>
        <time>2021-08-17T01:22:23.880Z</time>
      </trkpt>
      <trkpt lat="41.51724" lon="43.25909">
        <ele>1116.805518</ele>
        <time>2021-08-17T01:22:28.725Z</time>
      </trkpt>
      <trkpt lat="41.51694" lon="43.25924">
        <ele>1116.805561</ele>
        <time>2021-08-17T01:22:35.546Z</time>
      </trkpt>
      <trkpt lat="41.5166" lon="43.25954">
        <ele>1116.826948</ele>
        <time>2021-08-17T01:22:44.534Z</time>
      </trkpt>
      <trkpt lat="41.51641" lon="43.25993">
        <ele>1117.185917</ele>
        <time>2021-08-17T01:22:53.109Z</time>
      </trkpt>
      <trkpt lat="41.51632" lon="43.26066">
        <ele>1117.761087</ele>
        <time>2021-08-17T01:23:09.184Z</time>
      </trkpt>
      <trkpt lat="41.5162" lon="43.26086">
        <ele>1117.956908</ele>
        <time>2021-08-17T01:23:14.781Z</time>
      </trkpt>
      <trkpt lat="41.51568" lon="43.26116">
        <ele>1118.543511</ele>
        <time>2021-08-17T01:23:31.177Z</time>
      </trkpt>
      <trkpt lat="41.51504" lon="43.26168">
        <ele>1119.258015</ele>
        <time>2021-08-17T01:23:52.586Z</time>
      </trkpt>
      <trkpt lat="41.5147" lon="43.26177">
        <ele>1119.577118</ele>
        <time>2021-08-17T01:24:02.231Z</time>
      </trkpt>
      <trkpt lat="41.51419" lon="43.26176">
        <ele>1120.058261</ele>
        <time>2021-08-17T01:24:15.901Z</time>
      </trkpt>
      <trkpt lat="41.51396" lon="43.26175">
        <ele>1120.266692</ele>
        <time>2021-08-17T01:24:21.500Z</time>
      </trkpt>
      <trkpt lat="41.51324" lon="43.26206">
        <ele>1120.270261</ele>
        <time>2021-08-17T01:24:39.328Z</time>
      </trkpt>
      <trkpt lat="41.51278" lon="43.26229">
        <ele>1120.215362</ele>
        <time>2021-08-17T01:24:50.765Z</time>
      </trkpt>
      <trkpt lat="41.51252" lon="43.26266">
        <ele>1120.172414</ele>
        <time>2021-08-17T01:24:59.163Z</time>
      </trkpt>
      <trkpt lat="41.51233" lon="43.26284">
        <ele>1120.146773</ele>
        <time>2021-08-17T01:25:04.037Z</time>
      </trkpt>
      <trkpt lat="41.51191" lon="43.26289">
        <ele>1119.525401</ele>
        <time>2021-08-17T01:25:13.229Z</time>
      </trkpt>
      <trkpt lat="41.51162" lon="43.26304">
        <ele>1119.063704</ele>
        <time>2021-08-17T01:25:19.670Z</time>
      </trkpt>
      <trkpt lat="41.51156" lon="43.26278">
        <ele>1118.758673</ele>
        <time>2021-08-17T01:25:23.895Z</time>
      </trkpt>
      <trkpt lat="41.5115" lon="43.26261">
        <ele>1118.540392</ele>
        <time>2021-08-17T01:25:26.671Z</time>
      </trkpt>
      <trkpt lat="41.51133" lon="43.26246">
        <ele>1118.231427</ele>
        <time>2021-08-17T01:25:30.680Z</time>
      </trkpt>
      <trkpt lat="41.51087" lon="43.2623">
        <ele>1117.506288</ele>
        <time>2021-08-17T01:25:39.622Z</time>
      </trkpt>
      <trkpt lat="41.51067" lon="43.26234">
        <ele>1116.997395</ele>
        <time>2021-08-17T01:25:43.412Z</time>
      </trkpt>
      <trkpt lat="41.51045" lon="43.26257">
        <ele>1116.207676</ele>
        <time>2021-08-17T01:25:48.315Z</time>
      </trkpt>
      <trkpt lat="41.51036" lon="43.26228">
        <ele>1115.520074</ele>
        <time>2021-08-17T01:25:52.541Z</time>
      </trkpt>
      <trkpt lat="41.51021" lon="43.2622">
        <ele>1115.054468</ele>
        <time>2021-08-17T01:25:55.416Z</time>
      </trkpt>
      <trkpt lat="41.50994" lon="43.26179">
        <ele>1113.883462</ele>
        <time>2021-08-17T01:26:02.788Z</time>
      </trkpt>
      <trkpt lat="41.50974" lon="43.26154">
        <ele>1113.072996</ele>
        <time>2021-08-17T01:26:07.890Z</time>
      </trkpt>
      <trkpt lat="41.50977" lon="43.26131">
        <ele>1112.557108</ele>
        <time>2021-08-17T01:26:11.086Z</time>
      </trkpt>
      <trkpt lat="41.50961" lon="43.26133">
        <ele>1112.118338</ele>
        <time>2021-08-17T01:26:13.914Z</time>
      </trkpt>
      <trkpt lat="41.50843" lon="43.26153">
        <ele>1109.740882</ele>
        <time>2021-08-17T01:26:34.902Z</time>
      </trkpt>
      <trkpt lat="41.5082" lon="43.26151">
        <ele>1109.263566</ele>
        <time>2021-08-17T01:26:39.514Z</time>
      </trkpt>
      <trkpt lat="41.50725" lon="43.2612">
        <ele>1108.713669</ele>
        <time>2021-08-17T01:26:59.852Z</time>
      </trkpt>
      <trkpt lat="41.50596" lon="43.26108">
        <ele>1109.050785</ele>
        <time>2021-08-17T01:27:32.673Z</time>
      </trkpt>
      <trkpt lat="41.50564" lon="43.26118">
        <ele>1109.34311</ele>
        <time>2021-08-17T01:27:41.821Z</time>
      </trkpt>
      <trkpt lat="41.50501" lon="43.26173">
        <ele>1110.015532</ele>
        <time>2021-08-17T01:28:02.511Z</time>
      </trkpt>
      <trkpt lat="41.50466" lon="43.26195">
        <ele>1110.358023</ele>
        <time>2021-08-17T01:28:12.572Z</time>
      </trkpt>
      <trkpt lat="41.50435" lon="43.26211">
        <ele>1110.592992</ele>
        <time>2021-08-17T01:28:21.241Z</time>
      </trkpt>
      <trkpt lat="41.50372" lon="43.26244">
        <ele>1110.876554</ele>
        <time>2021-08-17T01:28:38.369Z</time>
      </trkpt>
      <trkpt lat="41.5035" lon="43.26261">
        <ele>1110.984026</ele>
        <time>2021-08-17T01:28:44.679Z</time>
      </trkpt>
      <trkpt lat="41.50332" lon="43.26273">
        <ele>1111.068492</ele>
        <time>2021-08-17T01:28:49.493Z</time>
      </trkpt>
      <trkpt lat="41.50312" lon="43.26291">
        <ele>1111.169077</ele>
        <time>2021-08-17T01:28:54.765Z</time>
      </trkpt>
      <trkpt lat="41.50294" lon="43.26303">
        <ele>1111.251906</ele>
        <time>2021-08-17T01:28:59.382Z</time>
      </trkpt>
      <trkpt lat="41.50237" lon="43.26345">
        <ele>1111.418222</ele>
        <time>2021-08-17T01:29:14.177Z</time>
      </trkpt>
      <trkpt lat="41.50199" lon="43.2636">
        <ele>1111.508099</ele>
        <time>2021-08-17T01:29:23.298Z</time>
      </trkpt>
      <trkpt lat="41.50162" lon="43.26352">
        <ele>1111.593676</ele>
        <time>2021-08-17T01:29:32.197Z</time>
      </trkpt>
      <trkpt lat="41.50064" lon="43.26302">
        <ele>1112.358228</ele>
        <time>2021-08-17T01:29:57.303Z</time>
      </trkpt>
      <trkpt lat="41.50021" lon="43.26301">
        <ele>1112.856509</ele>
        <time>2021-08-17T01:30:09.081Z</time>
      </trkpt>
      <trkpt lat="41.49936" lon="43.2631">
        <ele>1113.928226</ele>
        <time>2021-08-17T01:30:34.464Z</time>
      </trkpt>
      <trkpt lat="41.49816" lon="43.26333">
        <ele>1117.190212</ele>
        <time>2021-08-17T01:31:17.947Z</time>
      </trkpt>
      <trkpt lat="41.4976" lon="43.26355">
        <ele>1118.784901</ele>
        <time>2021-08-17T01:31:40.077Z</time>
      </trkpt>
      <trkpt lat="41.49731" lon="43.26376">
        <ele>1119.677247</ele>
        <time>2021-08-17T01:31:52.247Z</time>
      </trkpt>
      <trkpt lat="41.49718" lon="43.2639">
        <ele>1120.13266</ele>
        <time>2021-08-17T01:31:59.074Z</time>
      </trkpt>
      <trkpt lat="41.49692" lon="43.26419">
        <ele>1121.053546</ele>
        <time>2021-08-17T01:32:11.322Z</time>
      </trkpt>
      <trkpt lat="41.4967" lon="43.2645">
        <ele>1121.939095</ele>
        <time>2021-08-17T01:32:22.764Z</time>
      </trkpt>
      <trkpt lat="41.49617" lon="43.26541">
        <ele>1124.053183</ele>
        <time>2021-08-17T01:32:52.484Z</time>
      </trkpt>
      <trkpt lat="41.49607" lon="43.26551">
        <ele>1124.300693</ele>
        <time>2021-08-17T01:32:56.443Z</time>
      </trkpt>
      <trkpt lat="41.49437" lon="43.26624">
        <ele>1127.701009</ele>
        <time>2021-08-17T01:33:51.881Z</time>
      </trkpt>
      <trkpt lat="41.49257" lon="43.26675">
        <ele>1131.616966</ele>
        <time>2021-08-17T01:34:50.874Z</time>
      </trkpt>
      <trkpt lat="41.49195" lon="43.26683">
        <ele>1133.299586</ele>
        <time>2021-08-17T01:35:11.512Z</time>
      </trkpt>
      <trkpt lat="41.49105" lon="43.26684">
        <ele>1136.055076</ele>
        <time>2021-08-17T01:35:46.183Z</time>
      </trkpt>
      <trkpt lat="41.48995" lon="43.26711">
        <ele>1141.267101</ele>
        <time>2021-08-17T01:36:38.674Z</time>
      </trkpt>
      <trkpt lat="41.48972" lon="43.26719">
        <ele>1142.373793</ele>
        <time>2021-08-17T01:36:50.803Z</time>
      </trkpt>
      <trkpt lat="41.48955" lon="43.26735">
        <ele>1143.3284</ele>
        <time>2021-08-17T01:37:01.121Z</time>
      </trkpt>
      <trkpt lat="41.48922" lon="43.26779">
        <ele>1144.108789</ele>
        <time>2021-08-17T01:37:22.692Z</time>
      </trkpt>
      <trkpt lat="41.48898" lon="43.26799">
        <ele>1144.435497</ele>
        <time>2021-08-17T01:37:33.271Z</time>
      </trkpt>
      <trkpt lat="41.48854" lon="43.26817">
        <ele>1144.965538</ele>
        <time>2021-08-17T01:37:46.986Z</time>
      </trkpt>
      <trkpt lat="41.4881" lon="43.26822">
        <ele>1145.480918</ele>
        <time>2021-08-17T01:37:55.946Z</time>
      </trkpt>
      <trkpt lat="41.48711" lon="43.268">
        <ele>1142.595371</ele>
        <time>2021-08-17T01:38:12.627Z</time>
      </trkpt>
      <trkpt lat="41.48635" lon="43.26795">
        <ele>1139.572047</ele>
        <time>2021-08-17T01:38:24.813Z</time>
      </trkpt>
      <trkpt lat="41.48583" lon="43.2682">
        <ele>1137.782363</ele>
        <time>2021-08-17T01:38:33.680Z</time>
      </trkpt>
      <trkpt lat="41.48555" lon="43.26846">
        <ele>1136.844068</ele>
        <time>2021-08-17T01:38:39.524Z</time>
      </trkpt>
      <trkpt lat="41.48509" lon="43.26893">
        <ele>1135.283339</ele>
        <time>2021-08-17T01:38:49.809Z</time>
      </trkpt>
      <trkpt lat="41.48467" lon="43.26937">
        <ele>1133.851584</ele>
        <time>2021-08-17T01:38:59.691Z</time>
      </trkpt>
      <trkpt lat="41.48441" lon="43.26978">
        <ele>1133.350382</ele>
        <time>2021-08-17T01:39:07.924Z</time>
      </trkpt>
      <trkpt lat="41.48425" lon="43.2702">
        <ele>1132.992502</ele>
        <time>2021-08-17T01:39:14.908Z</time>
      </trkpt>
      <trkpt lat="41.48417" lon="43.27109">
        <ele>1132.29604</ele>
        <time>2021-08-17T01:39:27.945Z</time>
      </trkpt>
      <trkpt lat="41.48401" lon="43.27196">
        <ele>1131.850188</ele>
        <time>2021-08-17T01:39:41.742Z</time>
      </trkpt>
      <trkpt lat="41.48406" lon="43.2738">
        <ele>1131.740834</ele>
        <time>2021-08-17T01:40:12.763Z</time>
      </trkpt>
      <trkpt lat="41.48381" lon="43.27507">
        <ele>1132.456375</ele>
        <time>2021-08-17T01:40:36.751Z</time>
      </trkpt>
      <trkpt lat="41.48347" lon="43.27624">
        <ele>1133.287705</ele>
        <time>2021-08-17T01:41:02.664Z</time>
      </trkpt>
      <trkpt lat="41.48239" lon="43.27846">
        <ele>1137.552348</ele>
        <time>2021-08-17T01:42:08.843Z</time>
      </trkpt>
      <trkpt lat="41.48227" lon="43.2787">
        <ele>1138.10632</ele>
        <time>2021-08-17T01:42:17.086Z</time>
      </trkpt>
      <trkpt lat="41.48164" lon="43.28009">
        <ele>1141.138075</ele>
        <time>2021-08-17T01:43:00.429Z</time>
      </trkpt>
      <trkpt lat="41.48123" lon="43.28097">
        <ele>1142.33491</ele>
        <time>2021-08-17T01:43:25.485Z</time>
      </trkpt>
      <trkpt lat="41.48092" lon="43.28184">
        <ele>1143.162394</ele>
        <time>2021-08-17T01:43:45.288Z</time>
      </trkpt>
      <trkpt lat="41.48073" lon="43.28295">
        <ele>1143.864796</ele>
        <time>2021-08-17T01:44:05.725Z</time>
      </trkpt>
      <trkpt lat="41.48072" lon="43.28378">
        <ele>1144.070992</ele>
        <time>2021-08-17T01:44:20.227Z</time>
      </trkpt>
      <trkpt lat="41.48162" lon="43.28668">
        <ele>1144.983495</ele>
        <time>2021-08-17T01:45:16.509Z</time>
      </trkpt>
      <trkpt lat="41.48226" lon="43.29017">
        <ele>1147.549155</ele>
        <time>2021-08-17T01:46:27.997Z</time>
      </trkpt>
      <trkpt lat="41.48225" lon="43.29107">
        <ele>1148.597747</ele>
        <time>2021-08-17T01:46:48.899Z</time>
      </trkpt>
      <trkpt lat="41.48231" lon="43.29157">
        <ele>1149.195415</ele>
        <time>2021-08-17T01:47:01.361Z</time>
      </trkpt>
      <trkpt lat="41.48244" lon="43.29216">
        <ele>1149.975193</ele>
        <time>2021-08-17T01:47:16.480Z</time>
      </trkpt>
      <trkpt lat="41.48248" lon="43.29263">
        <ele>1150.611257</ele>
        <time>2021-08-17T01:47:28.180Z</time>
      </trkpt>
      <trkpt lat="41.48247" lon="43.29289">
        <ele>1150.951672</ele>
        <time>2021-08-17T01:47:34.269Z</time>
      </trkpt>
      <trkpt lat="41.48233" lon="43.29354">
        <ele>1151.854905</ele>
        <time>2021-08-17T01:47:49.664Z</time>
      </trkpt>
      <trkpt lat="41.48232" lon="43.2939">
        <ele>1152.33583</ele>
        <time>2021-08-17T01:47:57.744Z</time>
      </trkpt>
      <trkpt lat="41.48256" lon="43.29479">
        <ele>1153.530112</ele>
        <time>2021-08-17T01:48:18.391Z</time>
      </trkpt>
      <trkpt lat="41.48274" lon="43.29635">
        <ele>1155.510936</ele>
        <time>2021-08-17T01:48:53.634Z</time>
      </trkpt>
      <trkpt lat="41.48316" lon="43.29884">
        <ele>1160.702694</ele>
        <time>2021-08-17T01:50:02.870Z</time>
      </trkpt>
      <trkpt lat="41.48319" lon="43.30085">
        <ele>1165.906193</ele>
        <time>2021-08-17T01:51:03.488Z</time>
      </trkpt>
      <trkpt lat="41.48341" lon="43.30172">
        <ele>1168.135953</ele>
        <time>2021-08-17T01:51:31.177Z</time>
      </trkpt>
      <trkpt lat="41.48374" lon="43.30363">
        <ele>1172.73465</ele>
        <time>2021-08-17T01:52:25.465Z</time>
      </trkpt>
      <trkpt lat="41.48381" lon="43.30482">
        <ele>1175.668433</ele>
        <time>2021-08-17T01:52:58.329Z</time>
      </trkpt>
      <trkpt lat="41.4839" lon="43.30548">
        <ele>1177.330254</ele>
        <time>2021-08-17T01:53:18.158Z</time>
      </trkpt>
      <trkpt lat="41.48404" lon="43.30616">
        <ele>1179.507274</ele>
        <time>2021-08-17T01:53:40.254Z</time>
      </trkpt>
      <trkpt lat="41.48445" lon="43.30728">
        <ele>1184.216138</ele>
        <time>2021-08-17T01:54:23.783Z</time>
      </trkpt>
      <trkpt lat="41.48544" lon="43.30968">
        <ele>1195.624399</ele>
        <time>2021-08-17T01:56:11.461Z</time>
      </trkpt>
      <trkpt lat="41.48603" lon="43.31092">
        <ele>1200.590182</ele>
        <time>2021-08-17T01:57:03.701Z</time>
      </trkpt>
      <trkpt lat="41.48621" lon="43.31139">
        <ele>1202.100736</ele>
        <time>2021-08-17T01:57:20.315Z</time>
      </trkpt>
      <trkpt lat="41.48639" lon="43.31448">
        <ele>1208.274895</ele>
        <time>2021-08-17T01:58:40.092Z</time>
      </trkpt>
      <trkpt lat="41.48673" lon="43.31518">
        <ele>1208.933439</ele>
        <time>2021-08-17T01:58:57.191Z</time>
      </trkpt>
      <trkpt lat="41.48725" lon="43.31593">
        <ele>1209.465543</ele>
        <time>2021-08-17T01:59:16.772Z</time>
      </trkpt>
      <trkpt lat="41.48738" lon="43.31629">
        <ele>1209.66937</ele>
        <time>2021-08-17T01:59:23.771Z</time>
      </trkpt>
      <trkpt lat="41.48808" lon="43.31768">
        <ele>1209.510033</ele>
        <time>2021-08-17T01:59:52.097Z</time>
      </trkpt>
      <trkpt lat="41.48818" lon="43.31803">
        <ele>1209.413894</ele>
        <time>2021-08-17T01:59:57.997Z</time>
      </trkpt>
      <trkpt lat="41.48816" lon="43.31858">
        <ele>1209.271595</ele>
        <time>2021-08-17T02:00:06.481Z</time>
      </trkpt>
      <trkpt lat="41.48791" lon="43.31965">
        <ele>1208.176838</ele>
        <time>2021-08-17T02:00:22.638Z</time>
      </trkpt>
      <trkpt lat="41.48785" lon="43.32011">
        <ele>1207.669915</ele>
        <time>2021-08-17T02:00:29.164Z</time>
      </trkpt>
      <trkpt lat="41.48778" lon="43.32114">
        <ele>1206.637718</ele>
        <time>2021-08-17T02:00:43.752Z</time>
      </trkpt>
      <trkpt lat="41.48782" lon="43.32158">
        <ele>1206.693978</ele>
        <time>2021-08-17T02:00:50.106Z</time>
      </trkpt>
      <trkpt lat="41.48803" lon="43.32201">
        <ele>1206.760913</ele>
        <time>2021-08-17T02:00:58.113Z</time>
      </trkpt>
      <trkpt lat="41.4884" lon="43.32257">
        <ele>1206.85811</ele>
        <time>2021-08-17T02:01:11.729Z</time>
      </trkpt>
      <trkpt lat="41.48855" lon="43.32331">
        <ele>1207.280888</ele>
        <time>2021-08-17T02:01:28.776Z</time>
      </trkpt>
      <trkpt lat="41.48848" lon="43.32465">
        <ele>1210.521707</ele>
        <time>2021-08-17T02:02:06.573Z</time>
      </trkpt>
      <trkpt lat="41.48832" lon="43.32585">
        <ele>1213.612872</ele>
        <time>2021-08-17T02:02:45.866Z</time>
      </trkpt>
      <trkpt lat="41.48833" lon="43.32649">
        <ele>1215.523726</ele>
        <time>2021-08-17T02:03:07.246Z</time>
      </trkpt>
      <trkpt lat="41.48848" lon="43.32685">
        <ele>1216.744595</ele>
        <time>2021-08-17T02:03:20.565Z</time>
      </trkpt>
      <trkpt lat="41.48866" lon="43.32713">
        <ele>1217.848274</ele>
        <time>2021-08-17T02:03:32.272Z</time>
      </trkpt>
      <trkpt lat="41.48895" lon="43.32742">
        <ele>1219.280095</ele>
        <time>2021-08-17T02:03:46.962Z</time>
      </trkpt>
      <trkpt lat="41.48947" lon="43.32771">
        <ele>1220.728237</ele>
        <time>2021-08-17T02:04:08.372Z</time>
      </trkpt>
      <trkpt lat="41.48967" lon="43.32794">
        <ele>1221.289702</ele>
        <time>2021-08-17T02:04:17.738Z</time>
      </trkpt>
      <trkpt lat="41.48974" lon="43.32818">
        <ele>1221.705184</ele>
        <time>2021-08-17T02:04:24.479Z</time>
      </trkpt>
      <trkpt lat="41.48979" lon="43.32852">
        <ele>1222.258503</ele>
        <time>2021-08-17T02:04:33.131Z</time>
      </trkpt>
      <trkpt lat="41.4897" lon="43.32998">
        <ele>1223.828115</ele>
        <time>2021-08-17T02:05:03.221Z</time>
      </trkpt>
      <trkpt lat="41.48973" lon="43.33035">
        <ele>1223.932362</ele>
        <time>2021-08-17T02:05:09.886Z</time>
      </trkpt>
      <trkpt lat="41.48989" lon="43.33107">
        <ele>1224.14329</ele>
        <time>2021-08-17T02:05:22.870Z</time>
      </trkpt>
      <trkpt lat="41.49031" lon="43.33221">
        <ele>1224.384839</ele>
        <time>2021-08-17T02:05:44.048Z</time>
      </trkpt>
      <trkpt lat="41.4904" lon="43.33258">
        <ele>1224.414431</ele>
        <time>2021-08-17T02:05:50.349Z</time>
      </trkpt>
      <trkpt lat="41.49058" lon="43.33389">
        <ele>1224.51709</ele>
        <time>2021-08-17T02:06:12.925Z</time>
      </trkpt>
      <trkpt lat="41.49104" lon="43.33518">
        <ele>1225.826864</ele>
        <time>2021-08-17T02:06:41.173Z</time>
      </trkpt>
      <trkpt lat="41.49121" lon="43.33649">
        <ele>1227.44176</ele>
        <time>2021-08-17T02:07:12.890Z</time>
      </trkpt>
      <trkpt lat="41.49122" lon="43.33699">
        <ele>1228.535123</ele>
        <time>2021-08-17T02:07:26.413Z</time>
      </trkpt>
      <trkpt lat="41.49114" lon="43.33788">
        <ele>1230.494474</ele>
        <time>2021-08-17T02:07:52.238Z</time>
      </trkpt>
      <trkpt lat="41.49078" lon="43.33913">
        <ele>1233.420397</ele>
        <time>2021-08-17T02:08:30.931Z</time>
      </trkpt>
      <trkpt lat="41.49064" lon="43.33984">
        <ele>1235.012634</ele>
        <time>2021-08-17T02:08:51.343Z</time>
      </trkpt>
      <trkpt lat="41.49063" lon="43.34066">
        <ele>1236.795625</ele>
        <time>2021-08-17T02:09:13.340Z</time>
      </trkpt>
      <trkpt lat="41.49058" lon="43.34093">
        <ele>1237.415478</ele>
        <time>2021-08-17T02:09:20.883Z</time>
      </trkpt>
      <trkpt lat="41.49003" lon="43.34214">
        <ele>1240.388456</ele>
        <time>2021-08-17T02:09:58.199Z</time>
      </trkpt>
      <trkpt lat="41.48973" lon="43.34357">
        <ele>1243.616432</ele>
        <time>2021-08-17T02:10:40.121Z</time>
      </trkpt>
      <trkpt lat="41.48947" lon="43.34442">
        <ele>1245.697138</ele>
        <time>2021-08-17T02:11:06.654Z</time>
      </trkpt>
      <trkpt lat="41.48917" lon="43.34512">
        <ele>1247.536156</ele>
        <time>2021-08-17T02:11:29.176Z</time>
      </trkpt>
      <trkpt lat="41.48868" lon="43.34594">
        <ele>1249.293971</ele>
        <time>2021-08-17T02:11:56.252Z</time>
      </trkpt>
      <trkpt lat="41.48858" lon="43.3462">
        <ele>1249.762822</ele>
        <time>2021-08-17T02:12:03.938Z</time>
      </trkpt>
      <trkpt lat="41.48856" lon="43.34645">
        <ele>1250.167983</ele>
        <time>2021-08-17T02:12:10.031Z</time>
      </trkpt>
      <trkpt lat="41.48871" lon="43.34742">
        <ele>1251.72856</ele>
        <time>2021-08-17T02:12:32.565Z</time>
      </trkpt>
      <trkpt lat="41.4887" lon="43.34817">
        <ele>1252.826321</ele>
        <time>2021-08-17T02:12:49.769Z</time>
      </trkpt>
      <trkpt lat="41.48864" lon="43.34841">
        <ele>1253.203811</ele>
        <time>2021-08-17T02:12:55.599Z</time>
      </trkpt>
      <trkpt lat="41.48818" lon="43.3494">
        <ele>1254.891593</ele>
        <time>2021-08-17T02:13:23.844Z</time>
      </trkpt>
      <trkpt lat="41.4881" lon="43.34976">
        <ele>1255.591646</ele>
        <time>2021-08-17T02:13:33.422Z</time>
      </trkpt>
      <trkpt lat="41.48804" lon="43.35048">
        <ele>1257.322606</ele>
        <time>2021-08-17T02:13:52.674Z</time>
      </trkpt>
      <trkpt lat="41.48777" lon="43.35175">
        <ele>1260.46261</ele>
        <time>2021-08-17T02:14:31.774Z</time>
      </trkpt>
      <trkpt lat="41.48765" lon="43.35267">
        <ele>1263.161248</ele>
        <time>2021-08-17T02:15:01.468Z</time>
      </trkpt>
      <trkpt lat="41.48753" lon="43.35323">
        <ele>1264.951648</ele>
        <time>2021-08-17T02:15:20.741Z</time>
      </trkpt>
      <trkpt lat="41.48754" lon="43.35375">
        <ele>1266.521856</ele>
        <time>2021-08-17T02:15:37.588Z</time>
      </trkpt>
      <trkpt lat="41.48766" lon="43.35448">
        <ele>1268.674589</ele>
        <time>2021-08-17T02:16:01.416Z</time>
      </trkpt>
      <trkpt lat="41.4876" lon="43.35481">
        <ele>1269.488905</ele>
        <time>2021-08-17T02:16:11.973Z</time>
      </trkpt>
      <trkpt lat="41.48718" lon="43.35548">
        <ele>1271.583527</ele>
        <time>2021-08-17T02:16:37.702Z</time>
      </trkpt>
      <trkpt lat="41.48618" lon="43.35652">
        <ele>1275.14159</ele>
        <time>2021-08-17T02:17:22.233Z</time>
      </trkpt>
      <trkpt lat="41.4857" lon="43.35716">
        <ele>1276.701841</ele>
        <time>2021-08-17T02:17:44.275Z</time>
      </trkpt>
      <trkpt lat="41.48496" lon="43.35904">
        <ele>1280.823409</ele>
        <time>2021-08-17T02:18:37.378Z</time>
      </trkpt>
      <trkpt lat="41.48429" lon="43.36034">
        <ele>1284.503923</ele>
        <time>2021-08-17T02:19:23.747Z</time>
      </trkpt>
      <trkpt lat="41.48422" lon="43.3606">
        <ele>1285.30506</ele>
        <time>2021-08-17T02:19:32.541Z</time>
      </trkpt>
      <trkpt lat="41.48429" lon="43.3613">
        <ele>1287.317085</ele>
        <time>2021-08-17T02:19:55.324Z</time>
      </trkpt>
      <trkpt lat="41.48478" lon="43.36252">
        <ele>1290.921584</ele>
        <time>2021-08-17T02:20:38.847Z</time>
      </trkpt>
      <trkpt lat="41.48487" lon="43.3632">
        <ele>1292.347106</ele>
        <time>2021-08-17T02:20:58.652Z</time>
      </trkpt>
      <trkpt lat="41.4848" lon="43.36376">
        <ele>1293.539322</ele>
        <time>2021-08-17T02:21:14.000Z</time>
      </trkpt>
      <trkpt lat="41.48422" lon="43.36545">
        <ele>1295.992997</ele>
        <time>2021-08-17T02:21:55.819Z</time>
      </trkpt>
      <trkpt lat="41.48417" lon="43.36607">
        <ele>1296.54172</ele>
        <time>2021-08-17T02:22:07.828Z</time>
      </trkpt>
      <trkpt lat="41.48422" lon="43.3668">
        <ele>1297.208018</ele>
        <time>2021-08-17T02:22:21.582Z</time>
      </trkpt>
      <trkpt lat="41.48467" lon="43.36857">
        <ele>1299.098887</ele>
        <time>2021-08-17T02:23:01.823Z</time>
      </trkpt>
      <trkpt lat="41.48472" lon="43.36887">
        <ele>1299.419829</ele>
        <time>2021-08-17T02:23:09.359Z</time>
      </trkpt>
      <trkpt lat="41.48475" lon="43.36936">
        <ele>1300.209619</ele>
        <time>2021-08-17T02:23:21.406Z</time>
      </trkpt>
      <trkpt lat="41.48483" lon="43.37176">
        <ele>1304.300927</ele>
        <time>2021-08-17T02:24:24.173Z</time>
      </trkpt>
      <trkpt lat="41.48481" lon="43.37229">
        <ele>1305.089249</ele>
        <time>2021-08-17T02:24:36.918Z</time>
      </trkpt>
      <trkpt lat="41.4847" lon="43.37337">
        <ele>1306.731086</ele>
        <time>2021-08-17T02:25:02.633Z</time>
      </trkpt>
      <trkpt lat="41.48464" lon="43.37373">
        <ele>1307.278597</ele>
        <time>2021-08-17T02:25:11.058Z</time>
      </trkpt>
      <trkpt lat="41.48439" lon="43.37451">
        <ele>1308.555449</ele>
        <time>2021-08-17T02:25:30.550Z</time>
      </trkpt>
      <trkpt lat="41.48417" lon="43.37503">
        <ele>1309.45772</ele>
        <time>2021-08-17T02:25:44.767Z</time>
      </trkpt>
      <trkpt lat="41.48382" lon="43.37569">
        <ele>1310.672754</ele>
        <time>2021-08-17T02:26:04.346Z</time>
      </trkpt>
      <trkpt lat="41.4837" lon="43.37615">
        <ele>1311.784465</ele>
        <time>2021-08-17T02:26:16.775Z</time>
      </trkpt>
      <trkpt lat="41.48361" lon="43.37833">
        <ele>1317.553769</ele>
        <time>2021-08-17T02:27:23.152Z</time>
      </trkpt>
      <trkpt lat="41.48348" lon="43.37907">
        <ele>1320.002626</ele>
        <time>2021-08-17T02:27:49.685Z</time>
      </trkpt>
      <trkpt lat="41.48325" lon="43.37958">
        <ele>1321.920306</ele>
        <time>2021-08-17T02:28:10.682Z</time>
      </trkpt>
      <trkpt lat="41.483" lon="43.37998">
        <ele>1323.620953</ele>
        <time>2021-08-17T02:28:28.840Z</time>
      </trkpt>
      <trkpt lat="41.48202" lon="43.38174">
        <ele>1328.295671</ele>
        <time>2021-08-17T02:29:32.003Z</time>
      </trkpt>
      <trkpt lat="41.48148" lon="43.38252">
        <ele>1329.569266</ele>
        <time>2021-08-17T02:29:51.667Z</time>
      </trkpt>
      <trkpt lat="41.48137" lon="43.38334">
        <ele>1329.787175</ele>
        <time>2021-08-17T02:30:05.997Z</time>
      </trkpt>
      <trkpt lat="41.48132" lon="43.38361">
        <ele>1329.859699</ele>
        <time>2021-08-17T02:30:10.540Z</time>
      </trkpt>
      <trkpt lat="41.48122" lon="43.38391">
        <ele>1329.944441</ele>
        <time>2021-08-17T02:30:15.973Z</time>
      </trkpt>
      <trkpt lat="41.48094" lon="43.38435">
        <ele>1330.164662</ele>
        <time>2021-08-17T02:30:25.724Z</time>
      </trkpt>
      <trkpt lat="41.4807" lon="43.38488">
        <ele>1331.002031</ele>
        <time>2021-08-17T02:30:37.548Z</time>
      </trkpt>
      <trkpt lat="41.48058" lon="43.38606">
        <ele>1332.612991</ele>
        <time>2021-08-17T02:31:05.405Z</time>
      </trkpt>
      <trkpt lat="41.4803" lon="43.38779">
        <ele>1336.898647</ele>
        <time>2021-08-17T02:31:58.568Z</time>
      </trkpt>
      <trkpt lat="41.48008" lon="43.38846">
        <ele>1339.006179</ele>
        <time>2021-08-17T02:32:23.012Z</time>
      </trkpt>
      <trkpt lat="41.47984" lon="43.38905">
        <ele>1340.897594</ele>
        <time>2021-08-17T02:32:45.265Z</time>
      </trkpt>
      <trkpt lat="41.47965" lon="43.38939">
        <ele>1342.036736</ele>
        <time>2021-08-17T02:32:58.909Z</time>
      </trkpt>
      <trkpt lat="41.47921" lon="43.38987">
        <ele>1344.057194</ele>
        <time>2021-08-17T02:33:21.974Z</time>
      </trkpt>
      <trkpt lat="41.47886" lon="43.39043">
        <ele>1346.01274</ele>
        <time>2021-08-17T02:33:42.577Z</time>
      </trkpt>
      <trkpt lat="41.47876" lon="43.39067">
        <ele>1346.723904</ele>
        <time>2021-08-17T02:33:49.784Z</time>
      </trkpt>
      <trkpt lat="41.47834" lon="43.39244">
        <ele>1350.864504</ele>
        <time>2021-08-17T02:34:40.090Z</time>
      </trkpt>
      <trkpt lat="41.47817" lon="43.39282">
        <ele>1351.854104</ele>
        <time>2021-08-17T02:34:52.833Z</time>
      </trkpt>
      <trkpt lat="41.47713" lon="43.39454">
        <ele>1357.635151</ele>
        <time>2021-08-17T02:36:00.678Z</time>
      </trkpt>
      <trkpt lat="41.47685" lon="43.39484">
        <ele>1358.73232</ele>
        <time>2021-08-17T02:36:15.150Z</time>
      </trkpt>
      <trkpt lat="41.47505" lon="43.39531">
        <ele>1363.349017</ele>
        <time>2021-08-17T02:37:17.306Z</time>
      </trkpt>
      <trkpt lat="41.47476" lon="43.39554">
        <ele>1364.093474</ele>
        <time>2021-08-17T02:37:27.757Z</time>
      </trkpt>
      <trkpt lat="41.47424" lon="43.39623">
        <ele>1365.69701</ele>
        <time>2021-08-17T02:37:50.908Z</time>
      </trkpt>
      <trkpt lat="41.47265" lon="43.39791">
        <ele>1371.031586</ele>
        <time>2021-08-17T02:39:03.649Z</time>
      </trkpt>
      <trkpt lat="41.47174" lon="43.3992">
        <ele>1374.698276</ele>
        <time>2021-08-17T02:39:53.605Z</time>
      </trkpt>
      <trkpt lat="41.47066" lon="43.40054">
        <ele>1378.364396</ele>
        <time>2021-08-17T02:40:43.902Z</time>
      </trkpt>
      <trkpt lat="41.47026" lon="43.40121">
        <ele>1379.753202</ele>
        <time>2021-08-17T02:41:04.221Z</time>
      </trkpt>
      <trkpt lat="41.46997" lon="43.40187">
        <ele>1381.080047</ele>
        <time>2021-08-17T02:41:22.925Z</time>
      </trkpt>
      <trkpt lat="41.46932" lon="43.40448">
        <ele>1386.968891</ele>
        <time>2021-08-17T02:42:36.692Z</time>
      </trkpt>
      <trkpt lat="41.46877" lon="43.40599">
        <ele>1391.817247</ele>
        <time>2021-08-17T02:43:30.483Z</time>
      </trkpt>
      <trkpt lat="41.46869" lon="43.40647">
        <ele>1393.335384</ele>
        <time>2021-08-17T02:43:47.700Z</time>
      </trkpt>
      <trkpt lat="41.4687" lon="43.40765">
        <ele>1397.016205</ele>
        <time>2021-08-17T02:44:27.201Z</time>
      </trkpt>
      <trkpt lat="41.46865" lon="43.40801">
        <ele>1398.176845</ele>
        <time>2021-08-17T02:44:38.970Z</time>
      </trkpt>
      <trkpt lat="41.46846" lon="43.40863">
        <ele>1400.230796</ele>
        <time>2021-08-17T02:44:59.544Z</time>
      </trkpt>
      <trkpt lat="41.46815" lon="43.40922">
        <ele>1402.026562</ele>
        <time>2021-08-17T02:45:20.662Z</time>
      </trkpt>
      <trkpt lat="41.46752" lon="43.4099">
        <ele>1404.704086</ele>
        <time>2021-08-17T02:45:50.949Z</time>
      </trkpt>
      <trkpt lat="41.46732" lon="43.4102">
        <ele>1405.71228</ele>
        <time>2021-08-17T02:46:02.395Z</time>
      </trkpt>
      <trkpt lat="41.46717" lon="43.41053">
        <ele>1406.891387</ele>
        <time>2021-08-17T02:46:13.600Z</time>
      </trkpt>
      <trkpt lat="41.46705" lon="43.41119">
        <ele>1409.159012</ele>
        <time>2021-08-17T02:46:35.222Z</time>
      </trkpt>
      <trkpt lat="41.467" lon="43.41182">
        <ele>1411.247286</ele>
        <time>2021-08-17T02:46:56.701Z</time>
      </trkpt>
      <trkpt lat="41.46671" lon="43.41274">
        <ele>1414.582973</ele>
        <time>2021-08-17T02:47:32.629Z</time>
      </trkpt>
      <trkpt lat="41.46658" lon="43.41304">
        <ele>1415.82853</ele>
        <time>2021-08-17T02:47:45.450Z</time>
      </trkpt>
      <trkpt lat="41.46589" lon="43.4142">
        <ele>1421.121675</ele>
        <time>2021-08-17T02:48:38.313Z</time>
      </trkpt>
      <trkpt lat="41.4655" lon="43.41532">
        <ele>1424.205359</ele>
        <time>2021-08-17T02:49:15.793Z</time>
      </trkpt>
      <trkpt lat="41.46518" lon="43.41598">
        <ele>1425.781998</ele>
        <time>2021-08-17T02:49:36.027Z</time>
      </trkpt>
      <trkpt lat="41.46463" lon="43.4178">
        <ele>1428.677713</ele>
        <time>2021-08-17T02:50:19.917Z</time>
      </trkpt>
      <trkpt lat="41.46427" lon="43.41863">
        <ele>1429.754116</ele>
        <time>2021-08-17T02:50:40.703Z</time>
      </trkpt>
      <trkpt lat="41.46423" lon="43.41895">
        <ele>1430.158852</ele>
        <time>2021-08-17T02:50:48.207Z</time>
      </trkpt>
      <trkpt lat="41.46438" lon="43.42025">
        <ele>1432.213789</ele>
        <time>2021-08-17T02:51:20.247Z</time>
      </trkpt>
      <trkpt lat="41.46465" lon="43.42157">
        <ele>1434.58686</ele>
        <time>2021-08-17T02:51:54.357Z</time>
      </trkpt>
      <trkpt lat="41.46468" lon="43.42301">
        <ele>1437.80628</ele>
        <time>2021-08-17T02:52:34.905Z</time>
      </trkpt>
      <trkpt lat="41.46486" lon="43.42367">
        <ele>1439.463836</ele>
        <time>2021-08-17T02:52:55.467Z</time>
      </trkpt>
      <trkpt lat="41.46545" lon="43.42434">
        <ele>1442.546662</ele>
        <time>2021-08-17T02:53:26.118Z</time>
      </trkpt>
      <trkpt lat="41.46561" lon="43.42463">
        <ele>1443.631149</ele>
        <time>2021-08-17T02:53:37.834Z</time>
      </trkpt>
      <trkpt lat="41.46601" lon="43.4259">
        <ele>1447.981653</ele>
        <time>2021-08-17T02:54:24.787Z</time>
      </trkpt>
      <trkpt lat="41.46623" lon="43.42721">
        <ele>1452.608414</ele>
        <time>2021-08-17T02:55:09.986Z</time>
      </trkpt>
      <trkpt lat="41.46661" lon="43.42845">
        <ele>1456.999925</ele>
        <time>2021-08-17T02:55:56.827Z</time>
      </trkpt>
      <trkpt lat="41.46672" lon="43.42914">
        <ele>1459.202178</ele>
        <time>2021-08-17T02:56:19.947Z</time>
      </trkpt>
      <trkpt lat="41.46678" lon="43.43072">
        <ele>1463.705418</ele>
        <time>2021-08-17T02:57:07.294Z</time>
      </trkpt>
      <trkpt lat="41.4669" lon="43.43127">
        <ele>1465.099406</ele>
        <time>2021-08-17T02:57:23.480Z</time>
      </trkpt>
      <trkpt lat="41.46736" lon="43.43251">
        <ele>1468.532897</ele>
        <time>2021-08-17T02:58:03.170Z</time>
      </trkpt>
      <trkpt lat="41.4674" lon="43.43295">
        <ele>1469.625571</ele>
        <time>2021-08-17T02:58:15.933Z</time>
      </trkpt>
      <trkpt lat="41.46731" lon="43.43335">
        <ele>1470.637917</ele>
        <time>2021-08-17T02:58:27.996Z</time>
      </trkpt>
      <trkpt lat="41.46672" lon="43.43432">
        <ele>1473.704695</ele>
        <time>2021-08-17T02:59:04.325Z</time>
      </trkpt>
      <trkpt lat="41.4665" lon="43.43507">
        <ele>1475.778056</ele>
        <time>2021-08-17T02:59:27.693Z</time>
      </trkpt>
      <trkpt lat="41.46637" lon="43.43594">
        <ele>1478.095534</ele>
        <time>2021-08-17T02:59:54.002Z</time>
      </trkpt>
      <trkpt lat="41.46642" lon="43.43713">
        <ele>1481.419293</ele>
        <time>2021-08-17T03:00:30.382Z</time>
      </trkpt>
      <trkpt lat="41.46641" lon="43.43781">
        <ele>1483.597124</ele>
        <time>2021-08-17T03:00:52.089Z</time>
      </trkpt>
      <trkpt lat="41.46623" lon="43.43837">
        <ele>1485.533708</ele>
        <time>2021-08-17T03:01:12.615Z</time>
      </trkpt>
      <trkpt lat="41.46601" lon="43.43871">
        <ele>1486.985481</ele>
        <time>2021-08-17T03:01:28.185Z</time>
      </trkpt>
      <trkpt lat="41.4657" lon="43.43896">
        <ele>1488.507753</ele>
        <time>2021-08-17T03:01:44.067Z</time>
      </trkpt>
      <trkpt lat="41.46497" lon="43.43917">
        <ele>1491.770152</ele>
        <time>2021-08-17T03:02:17.143Z</time>
      </trkpt>
      <trkpt lat="41.46471" lon="43.43941">
        <ele>1493.121542</ele>
        <time>2021-08-17T03:02:30.820Z</time>
      </trkpt>
      <trkpt lat="41.46466" lon="43.43958">
        <ele>1493.746764</ele>
        <time>2021-08-17T03:02:36.940Z</time>
      </trkpt>
      <trkpt lat="41.46463" lon="43.43981">
        <ele>1494.485598</ele>
        <time>2021-08-17T03:02:44.609Z</time>
      </trkpt>
      <trkpt lat="41.46474" lon="43.44006">
        <ele>1495.440895</ele>
        <time>2021-08-17T03:02:54.194Z</time>
      </trkpt>
      <trkpt lat="41.46484" lon="43.44065">
        <ele>1497.177168</ele>
        <time>2021-08-17T03:03:14.158Z</time>
      </trkpt>
      <trkpt lat="41.46487" lon="43.44099">
        <ele>1498.143673</ele>
        <time>2021-08-17T03:03:24.854Z</time>
      </trkpt>
      <trkpt lat="41.46481" lon="43.44117">
        <ele>1498.702083</ele>
        <time>2021-08-17T03:03:31.134Z</time>
      </trkpt>
      <trkpt lat="41.46466" lon="43.44135">
        <ele>1499.451668</ele>
        <time>2021-08-17T03:03:38.947Z</time>
      </trkpt>
      <trkpt lat="41.46439" lon="43.44153">
        <ele>1500.59946</ele>
        <time>2021-08-17T03:03:51.232Z</time>
      </trkpt>
      <trkpt lat="41.4642" lon="43.44188">
        <ele>1501.813152</ele>
        <time>2021-08-17T03:04:04.179Z</time>
      </trkpt>
      <trkpt lat="41.46407" lon="43.44228">
        <ele>1502.806577</ele>
        <time>2021-08-17T03:04:17.081Z</time>
      </trkpt>
      <trkpt lat="41.46385" lon="43.44258">
        <ele>1503.580158</ele>
        <time>2021-08-17T03:04:29.252Z</time>
      </trkpt>
      <trkpt lat="41.4627" lon="43.44356">
        <ele>1506.828923</ele>
        <time>2021-08-17T03:05:14.811Z</time>
      </trkpt>
      <trkpt lat="41.46182" lon="43.44479">
        <ele>1508.465693</ele>
        <time>2021-08-17T03:05:50.144Z</time>
      </trkpt>
      <trkpt lat="41.46095" lon="43.4455">
        <ele>1510.090716</ele>
        <time>2021-08-17T03:06:18.535Z</time>
      </trkpt>
      <trkpt lat="41.46059" lon="43.44568">
        <ele>1510.804998</ele>
        <time>2021-08-17T03:06:30.263Z</time>
      </trkpt>
      <trkpt lat="41.46048" lon="43.44573">
        <ele>1511.012089</ele>
        <time>2021-08-17T03:06:34.041Z</time>
      </trkpt>
      <trkpt lat="41.46029" lon="43.44586">
        <ele>1511.402138</ele>
        <time>2021-08-17T03:06:40.673Z</time>
      </trkpt>
      <trkpt lat="41.45983" lon="43.44637">
        <ele>1512.582932</ele>
        <time>2021-08-17T03:07:01.354Z</time>
      </trkpt>
      <trkpt lat="41.45949" lon="43.44693">
        <ele>1514.177422</ele>
        <time>2021-08-17T03:07:21.626Z</time>
      </trkpt>
      <trkpt lat="41.45836" lon="43.44852">
        <ele>1518.742742</ele>
        <time>2021-08-17T03:08:23.471Z</time>
      </trkpt>
      <trkpt lat="41.4578" lon="43.4495">
        <ele>1520.94461</ele>
        <time>2021-08-17T03:08:54.117Z</time>
      </trkpt>
      <trkpt lat="41.45765" lon="43.44999">
        <ele>1521.888235</ele>
        <time>2021-08-17T03:09:06.902Z</time>
      </trkpt>
      <trkpt lat="41.45757" lon="43.45054">
        <ele>1523.019752</ele>
        <time>2021-08-17T03:09:20.179Z</time>
      </trkpt>
      <trkpt lat="41.4576" lon="43.45106">
        <ele>1524.091508</ele>
        <time>2021-08-17T03:09:33.273Z</time>
      </trkpt>
      <trkpt lat="41.45799" lon="43.45243">
        <ele>1527.203683</ele>
        <time>2021-08-17T03:10:13.954Z</time>
      </trkpt>
      <trkpt lat="41.45835" lon="43.45403">
        <ele>1532.536474</ele>
        <time>2021-08-17T03:11:09.530Z</time>
      </trkpt>
      <trkpt lat="41.45847" lon="43.45509">
        <ele>1536.126682</ele>
        <time>2021-08-17T03:11:46.266Z</time>
      </trkpt>
      <trkpt lat="41.45853" lon="43.45566">
        <ele>1538.154877</ele>
        <time>2021-08-17T03:12:05.569Z</time>
      </trkpt>
      <trkpt lat="41.45863" lon="43.45806">
        <ele>1547.782085</ele>
        <time>2021-08-17T03:13:28.993Z</time>
      </trkpt>
      <trkpt lat="41.45857" lon="43.45857">
        <ele>1550.182697</ele>
        <time>2021-08-17T03:13:50.688Z</time>
      </trkpt>
      <trkpt lat="41.45845" lon="43.45893">
        <ele>1551.978597</ele>
        <time>2021-08-17T03:14:07.630Z</time>
      </trkpt>
      <trkpt lat="41.45791" lon="43.46005">
        <ele>1558.312563</ele>
        <time>2021-08-17T03:15:09.209Z</time>
      </trkpt>
      <trkpt lat="41.45755" lon="43.46121">
        <ele>1564.351952</ele>
        <time>2021-08-17T03:16:01.676Z</time>
      </trkpt>
      <trkpt lat="41.45754" lon="43.46158">
        <ele>1565.785854</ele>
        <time>2021-08-17T03:16:14.396Z</time>
      </trkpt>
      <trkpt lat="41.45823" lon="43.46424">
        <ele>1572.998296</ele>
        <time>2021-08-17T03:17:19.457Z</time>
      </trkpt>
      <trkpt lat="41.4584" lon="43.46494">
        <ele>1577.198636</ele>
        <time>2021-08-17T03:17:48.149Z</time>
      </trkpt>
      <trkpt lat="41.45844" lon="43.46519">
        <ele>1578.679582</ele>
        <time>2021-08-17T03:18:01.354Z</time>
      </trkpt>
      <trkpt lat="41.45844" lon="43.4653">
        <ele>1579.308461</ele>
        <time>2021-08-17T03:18:06.942Z</time>
      </trkpt>
      <trkpt lat="41.45842" lon="43.46545">
        <ele>1580.13487</ele>
        <time>2021-08-17T03:18:14.283Z</time>
      </trkpt>
      <trkpt lat="41.4592" lon="43.46543">
        <ele>1588.874319</ele>
        <time>2021-08-17T03:19:21.031Z</time>
      </trkpt>
      <trkpt lat="41.4594" lon="43.46556">
        <ele>1592.758759</ele>
        <time>2021-08-17T03:19:44.677Z</time>
      </trkpt>
      <trkpt lat="41.4592" lon="43.46585">
        <ele>1597.785481</ele>
        <time>2021-08-17T03:20:17.873Z</time>
      </trkpt>
      <trkpt lat="41.4589" lon="43.46604">
        <ele>1603.358948</ele>
        <time>2021-08-17T03:20:57.015Z</time>
      </trkpt>
      <trkpt lat="41.45889" lon="43.46616">
        <ele>1604.804512</ele>
        <time>2021-08-17T03:21:07.758Z</time>
      </trkpt>
      <trkpt lat="41.45907" lon="43.46609">
        <ele>1608.018184</ele>
        <time>2021-08-17T03:21:30.440Z</time>
      </trkpt>
      <trkpt lat="41.45951" lon="43.46612">
        <ele>1615.361599</ele>
        <time>2021-08-17T03:22:22.343Z</time>
      </trkpt>
      <trkpt lat="41.45994" lon="43.46627">
        <ele>1622.634406</ele>
        <time>2021-08-17T03:23:13.589Z</time>
      </trkpt>
      <trkpt lat="41.45948" lon="43.46662">
        <ele>1631.260838</ele>
        <time>2021-08-17T03:24:09.164Z</time>
      </trkpt>
      <trkpt lat="41.45943" lon="43.46673">
        <ele>1632.840234</ele>
        <time>2021-08-17T03:24:19.060Z</time>
      </trkpt>
      <trkpt lat="41.45992" lon="43.46673">
        <ele>1640.697078</ele>
        <time>2021-08-17T03:25:05.921Z</time>
      </trkpt>
      <trkpt lat="41.4603" lon="43.46652">
        <ele>1646.012826</ele>
        <time>2021-08-17T03:25:45.236Z</time>
      </trkpt>
      <trkpt lat="41.46058" lon="43.46657">
        <ele>1649.078669</ele>
        <time>2021-08-17T03:26:09.874Z</time>
      </trkpt>
      <trkpt lat="41.46074" lon="43.46676">
        <ele>1651.436581</ele>
        <time>2021-08-17T03:26:28.496Z</time>
      </trkpt>
      <trkpt lat="41.46101" lon="43.46681">
        <ele>1654.383648</ele>
        <time>2021-08-17T03:26:49.822Z</time>
      </trkpt>
      <trkpt lat="41.46116" lon="43.4671">
        <ele>1657.273495</ele>
        <time>2021-08-17T03:27:08.075Z</time>
      </trkpt>
      <trkpt lat="41.46118" lon="43.4673">
        <ele>1658.850752</ele>
        <time>2021-08-17T03:27:18.665Z</time>
      </trkpt>
      <trkpt lat="41.46109" lon="43.4674">
        <ele>1660.086774</ele>
        <time>2021-08-17T03:27:24.936Z</time>
      </trkpt>
      <trkpt lat="41.46102" lon="43.46743">
        <ele>1660.920463</ele>
        <time>2021-08-17T03:27:29.595Z</time>
      </trkpt>
      <trkpt lat="41.46086" lon="43.46748">
        <ele>1662.699437</ele>
        <time>2021-08-17T03:27:40.862Z</time>
      </trkpt>
      <trkpt lat="41.46081" lon="43.46777">
        <ele>1663.90001</ele>
        <time>2021-08-17T03:27:53.314Z</time>
      </trkpt>
      <trkpt lat="41.46082" lon="43.46799">
        <ele>1664.741015</ele>
        <time>2021-08-17T03:28:03.792Z</time>
      </trkpt>
      <trkpt lat="41.46075" lon="43.46833">
        <ele>1666.07743</ele>
        <time>2021-08-17T03:28:18.026Z</time>
      </trkpt>
      <trkpt lat="41.46089" lon="43.46854">
        <ele>1667.141171</ele>
        <time>2021-08-17T03:28:28.130Z</time>
      </trkpt>
      <trkpt lat="41.46085" lon="43.46867">
        <ele>1667.669229</ele>
        <time>2021-08-17T03:28:33.371Z</time>
      </trkpt>
      <trkpt lat="41.46084" lon="43.46887">
        <ele>1668.446838</ele>
        <time>2021-08-17T03:28:41.309Z</time>
      </trkpt>
      <trkpt lat="41.46094" lon="43.46915">
        <ele>1669.646939</ele>
        <time>2021-08-17T03:28:50.845Z</time>
      </trkpt>
      <trkpt lat="41.46078" lon="43.46927">
        <ele>1670.546599</ele>
        <time>2021-08-17T03:28:56.977Z</time>
      </trkpt>
      <trkpt lat="41.4606" lon="43.4696">
        <ele>1672.079694</ele>
        <time>2021-08-17T03:29:08.784Z</time>
      </trkpt>
      <trkpt lat="41.46054" lon="43.46972">
        <ele>1672.311254</ele>
        <time>2021-08-17T03:29:12.428Z</time>
      </trkpt>
      <trkpt lat="41.46046" lon="43.46986">
        <ele>1672.588357</ele>
        <time>2021-08-17T03:29:17.581Z</time>
      </trkpt>
      <trkpt lat="41.46019" lon="43.47058">
        <ele>1673.912907</ele>
        <time>2021-08-17T03:29:38.172Z</time>
      </trkpt>
      <trkpt lat="41.46014" lon="43.47064">
        <ele>1674.049061</ele>
        <time>2021-08-17T03:29:40.341Z</time>
      </trkpt>
      <trkpt lat="41.45998" lon="43.47088">
        <ele>1674.581292</ele>
        <time>2021-08-17T03:29:48.291Z</time>
      </trkpt>
      <trkpt lat="41.45979" lon="43.47117">
        <ele>1675.197136</ele>
        <time>2021-08-17T03:29:57.162Z</time>
      </trkpt>
      <trkpt lat="41.45945" lon="43.47179">
        <ele>1676.372255</ele>
        <time>2021-08-17T03:30:14.761Z</time>
      </trkpt>
      <trkpt lat="41.45921" lon="43.47222">
        <ele>1677.086196</ele>
        <time>2021-08-17T03:30:27.197Z</time>
      </trkpt>
      <trkpt lat="41.45896" lon="43.47269">
        <ele>1677.880556</ele>
        <time>2021-08-17T03:30:41.304Z</time>
      </trkpt>
      <trkpt lat="41.45873" lon="43.47305">
        <ele>1678.513814</ele>
        <time>2021-08-17T03:30:52.425Z</time>
      </trkpt>
      <trkpt lat="41.45812" lon="43.47403">
        <ele>1679.69683</ele>
        <time>2021-08-17T03:31:21.661Z</time>
      </trkpt>
      <trkpt lat="41.45792" lon="43.47435">
        <ele>1679.978094</ele>
        <time>2021-08-17T03:31:30.726Z</time>
      </trkpt>
      <trkpt lat="41.4575" lon="43.47503">
        <ele>1680.554236</ele>
        <time>2021-08-17T03:31:47.714Z</time>
      </trkpt>
      <trkpt lat="41.45679" lon="43.4762">
        <ele>1680.026886</ele>
        <time>2021-08-17T03:32:11.336Z</time>
      </trkpt>
      <trkpt lat="41.45665" lon="43.47644">
        <ele>1679.837738</ele>
        <time>2021-08-17T03:32:15.675Z</time>
      </trkpt>
      <trkpt lat="41.45662" lon="43.47654">
        <ele>1679.76708</ele>
        <time>2021-08-17T03:32:17.281Z</time>
      </trkpt>
      <trkpt lat="41.45557" lon="43.47956">
        <ele>1677.853463</ele>
        <time>2021-08-17T03:33:05.676Z</time>
      </trkpt>
      <trkpt lat="41.45535" lon="43.48001">
        <ele>1678.922594</ele>
        <time>2021-08-17T03:33:18.776Z</time>
      </trkpt>
      <trkpt lat="41.45526" lon="43.4802">
        <ele>1679.366835</ele>
        <time>2021-08-17T03:33:24.723Z</time>
      </trkpt>
      <trkpt lat="41.45518" lon="43.48079">
        <ele>1680.548145</ele>
        <time>2021-08-17T03:33:41.610Z</time>
      </trkpt>
      <trkpt lat="41.45503" lon="43.48132">
        <ele>1681.666645</ele>
        <time>2021-08-17T03:33:59.608Z</time>
      </trkpt>
      <trkpt lat="41.45494" lon="43.48169">
        <ele>1682.451968</ele>
        <time>2021-08-17T03:34:13.514Z</time>
      </trkpt>
      <trkpt lat="41.45484" lon="43.48214">
        <ele>1683.547755</ele>
        <time>2021-08-17T03:34:30.525Z</time>
      </trkpt>
      <trkpt lat="41.45456" lon="43.4829">
        <ele>1685.505495</ele>
        <time>2021-08-17T03:34:56.723Z</time>
      </trkpt>
      <trkpt lat="41.45455" lon="43.48294">
        <ele>1685.591656</ele>
        <time>2021-08-17T03:34:58.725Z</time>
      </trkpt>
      <trkpt lat="41.45449" lon="43.48327">
        <ele>1686.378327</ele>
        <time>2021-08-17T03:35:07.283Z</time>
      </trkpt>
      <trkpt lat="41.45456" lon="43.48369">
        <ele>1687.381885</ele>
        <time>2021-08-17T03:35:17.842Z</time>
      </trkpt>
      <trkpt lat="41.45457" lon="43.48399">
        <ele>1687.939061</ele>
        <time>2021-08-17T03:35:24.784Z</time>
      </trkpt>
      <trkpt lat="41.45442" lon="43.48417">
        <ele>1687.969941</ele>
        <time>2021-08-17T03:35:29.804Z</time>
      </trkpt>
      <trkpt lat="41.45426" lon="43.48524">
        <ele>1688.093591</ele>
        <time>2021-08-17T03:35:52.595Z</time>
      </trkpt>
      <trkpt lat="41.45408" lon="43.48582">
        <ele>1688.164564</ele>
        <time>2021-08-17T03:36:02.635Z</time>
      </trkpt>
      <trkpt lat="41.45394" lon="43.48618">
        <ele>1688.127682</ele>
        <time>2021-08-17T03:36:08.811Z</time>
      </trkpt>
      <trkpt lat="41.4536" lon="43.48703">
        <ele>1687.055773</ele>
        <time>2021-08-17T03:36:22.919Z</time>
      </trkpt>
      <trkpt lat="41.45355" lon="43.48717">
        <ele>1686.890636</ele>
        <time>2021-08-17T03:36:25.133Z</time>
      </trkpt>
      <trkpt lat="41.45349" lon="43.48723">
        <ele>1686.782477</ele>
        <time>2021-08-17T03:36:26.590Z</time>
      </trkpt>
      <trkpt lat="41.45342" lon="43.48731">
        <ele>1686.637647</ele>
        <time>2021-08-17T03:36:28.372Z</time>
      </trkpt>
      <trkpt lat="41.45327" lon="43.48781">
        <ele>1686.043408</ele>
        <time>2021-08-17T03:36:36.456Z</time>
      </trkpt>
      <trkpt lat="41.45277" lon="43.48816">
        <ele>1685.442511</ele>
        <time>2021-08-17T03:36:47.946Z</time>
      </trkpt>
      <trkpt lat="41.45257" lon="43.48825">
        <ele>1685.356061</ele>
        <time>2021-08-17T03:36:52.254Z</time>
      </trkpt>
      <trkpt lat="41.45248" lon="43.48973">
        <ele>1684.915166</ele>
        <time>2021-08-17T03:37:15.468Z</time>
      </trkpt>
      <trkpt lat="41.45212" lon="43.48965">
        <ele>1684.94067</ele>
        <time>2021-08-17T03:37:25.233Z</time>
      </trkpt>
      <trkpt lat="41.44952" lon="43.48939">
        <ele>1687.883944</ele>
        <time>2021-08-17T03:38:40.703Z</time>
      </trkpt>
      <trkpt lat="41.44263" lon="43.48872">
        <ele>1692.684991</ele>
        <time>2021-08-17T03:41:36.418Z</time>
      </trkpt>
      <trkpt lat="41.43105" lon="43.48746">
        <ele>1701.599908</ele>
        <time>2021-08-17T03:46:39.297Z</time>
      </trkpt>
      <trkpt lat="41.42744" lon="43.48712">
        <ele>1703.82584</ele>
        <time>2021-08-17T03:48:13.490Z</time>
      </trkpt>
      <trkpt lat="41.42559" lon="43.48687">
        <ele>1702.283226</ele>
        <time>2021-08-17T03:48:50.806Z</time>
      </trkpt>
      <trkpt lat="41.4199" lon="43.48558">
        <ele>1689.709992</ele>
        <time>2021-08-17T03:50:35.524Z</time>
      </trkpt>
      <trkpt lat="41.41809" lon="43.48516">
        <ele>1682.59692</ele>
        <time>2021-08-17T03:51:05.323Z</time>
      </trkpt>
      <trkpt lat="41.41739" lon="43.48497">
        <ele>1680.846194</ele>
        <time>2021-08-17T03:51:16.920Z</time>
      </trkpt>
      <trkpt lat="41.41721" lon="43.48487">
        <ele>1680.366105</ele>
        <time>2021-08-17T03:51:19.972Z</time>
      </trkpt>
      <trkpt lat="41.41719" lon="43.48521">
        <ele>1679.740757</ele>
        <time>2021-08-17T03:51:25.304Z</time>
      </trkpt>
      <trkpt lat="41.41746" lon="43.48793">
        <ele>1681.739804</ele>
        <time>2021-08-17T03:52:32.881Z</time>
      </trkpt>
      <trkpt lat="41.41754" lon="43.4888">
        <ele>1683.825009</ele>
        <time>2021-08-17T03:53:02.803Z</time>
      </trkpt>
      <trkpt lat="41.41764" lon="43.48987">
        <ele>1686.916662</ele>
        <time>2021-08-17T03:53:40.232Z</time>
      </trkpt>
      <trkpt lat="41.4177" lon="43.49039">
        <ele>1688.410822</ele>
        <time>2021-08-17T03:53:57.378Z</time>
      </trkpt>
      <trkpt lat="41.41775" lon="43.49101">
        <ele>1690.048054</ele>
        <time>2021-08-17T03:54:16.406Z</time>
      </trkpt>
      <trkpt lat="41.41777" lon="43.49125">
        <ele>1690.63715</ele>
        <time>2021-08-17T03:54:23.756Z</time>
      </trkpt>
      <trkpt lat="41.41801" lon="43.49376">
        <ele>1696.801062</ele>
        <time>2021-08-17T03:55:41.874Z</time>
      </trkpt>
      <trkpt lat="41.41801" lon="43.49386">
        <ele>1697.047855</ele>
        <time>2021-08-17T03:55:45.439Z</time>
      </trkpt>
      <trkpt lat="41.4179" lon="43.49408">
        <ele>1697.654633</ele>
        <time>2021-08-17T03:55:53.904Z</time>
      </trkpt>
      <trkpt lat="41.41761" lon="43.4944">
        <ele>1698.796078</ele>
        <time>2021-08-17T03:56:08.528Z</time>
      </trkpt>
      <trkpt lat="41.41735" lon="43.49478">
        <ele>1699.98401</ele>
        <time>2021-08-17T03:56:23.151Z</time>
      </trkpt>
      <trkpt lat="41.41711" lon="43.49529">
        <ele>1700.321351</ele>
        <time>2021-08-17T03:56:39.185Z</time>
      </trkpt>
      <trkpt lat="41.41698" lon="43.49554">
        <ele>1700.15688</ele>
        <time>2021-08-17T03:56:47.094Z</time>
      </trkpt>
      <trkpt lat="41.41694" lon="43.49553">
        <ele>1700.131828</ele>
        <time>2021-08-17T03:56:47.877Z</time>
      </trkpt>
      <trkpt lat="41.41685" lon="43.4956">
        <ele>1700.058438</ele>
        <time>2021-08-17T03:56:50.187Z</time>
      </trkpt>
      <trkpt lat="41.41633" lon="43.49578">
        <ele>1699.669505</ele>
        <time>2021-08-17T03:57:01.971Z</time>
      </trkpt>
      <trkpt lat="41.41628" lon="43.49593">
        <ele>1699.580639</ele>
        <time>2021-08-17T03:57:04.502Z</time>
      </trkpt>
      <trkpt lat="41.41627" lon="43.49613">
        <ele>1699.468888</ele>
        <time>2021-08-17T03:57:07.486Z</time>
      </trkpt>
      <trkpt lat="41.41614" lon="43.4963">
        <ele>1699.33981</ele>
        <time>2021-08-17T03:57:10.436Z</time>
      </trkpt>
      <trkpt lat="41.41602" lon="43.4965">
        <ele>1698.996727</ele>
        <time>2021-08-17T03:57:13.977Z</time>
      </trkpt>
      <trkpt lat="41.41579" lon="43.4968">
        <ele>1697.137237</ele>
        <time>2021-08-17T03:57:19.310Z</time>
      </trkpt>
      <trkpt lat="41.41563" lon="43.49724">
        <ele>1694.99101</ele>
        <time>2021-08-17T03:57:25.335Z</time>
      </trkpt>
      <trkpt lat="41.41554" lon="43.4972">
        <ele>1694.423297</ele>
        <time>2021-08-17T03:57:26.768Z</time>
      </trkpt>
      <trkpt lat="41.41539" lon="43.49717">
        <ele>1693.554978</ele>
        <time>2021-08-17T03:57:29.335Z</time>
      </trkpt>
      <trkpt lat="41.41526" lon="43.4972">
        <ele>1692.775779</ele>
        <time>2021-08-17T03:57:31.527Z</time>
      </trkpt>
      <trkpt lat="41.41518" lon="43.49721">
        <ele>1692.33022</ele>
        <time>2021-08-17T03:57:32.634Z</time>
      </trkpt>
      <trkpt lat="41.41475" lon="43.4972">
        <ele>1689.831105</ele>
        <time>2021-08-17T03:57:39.465Z</time>
      </trkpt>
      <trkpt lat="41.41449" lon="43.49729">
        <ele>1688.750356</ele>
        <time>2021-08-17T03:57:43.613Z</time>
      </trkpt>
      <trkpt lat="41.41423" lon="43.49742">
        <ele>1688.510378</ele>
        <time>2021-08-17T03:57:48.570Z</time>
      </trkpt>
      <trkpt lat="41.41356" lon="43.49795">
        <ele>1687.846691</ele>
        <time>2021-08-17T03:58:02.884Z</time>
      </trkpt>
      <trkpt lat="41.4134" lon="43.498">
        <ele>1687.7047</ele>
        <time>2021-08-17T03:58:10.432Z</time>
      </trkpt>
      <trkpt lat="41.41323" lon="43.49815">
        <ele>1687.532233</ele>
        <time>2021-08-17T03:58:17.269Z</time>
      </trkpt>
      <trkpt lat="41.41316" lon="43.49825">
        <ele>1687.444429</ele>
        <time>2021-08-17T03:58:23.520Z</time>
      </trkpt>
      <trkpt lat="41.41297" lon="43.49849">
        <ele>1687.773074</ele>
        <time>2021-08-17T03:58:33.230Z</time>
      </trkpt>
      <trkpt lat="41.41265" lon="43.49915">
        <ele>1691.314294</ele>
        <time>2021-08-17T03:59:03.301Z</time>
      </trkpt>
      <trkpt lat="41.41248" lon="43.49933">
        <ele>1692.626043</ele>
        <time>2021-08-17T03:59:18.351Z</time>
      </trkpt>
      <trkpt lat="41.41223" lon="43.49944">
        <ele>1694.180942</ele>
        <time>2021-08-17T03:59:32.956Z</time>
      </trkpt>
      <trkpt lat="41.41206" lon="43.49955">
        <ele>1695.302337</ele>
        <time>2021-08-17T03:59:45.550Z</time>
      </trkpt>
      <trkpt lat="41.4119" lon="43.49973">
        <ele>1696.550878</ele>
        <time>2021-08-17T03:59:58.573Z</time>
      </trkpt>
      <trkpt lat="41.4117" lon="43.50013">
        <ele>1697.994359</ele>
        <time>2021-08-17T04:00:18.170Z</time>
      </trkpt>
      <trkpt lat="41.41155" lon="43.50027">
        <ele>1697.952608</ele>
        <time>2021-08-17T04:00:24.534Z</time>
      </trkpt>
      <trkpt lat="41.41146" lon="43.50034">
        <ele>1697.92889</ele>
        <time>2021-08-17T04:00:29.260Z</time>
      </trkpt>
      <trkpt lat="41.41126" lon="43.50049">
        <ele>1697.875867</ele>
        <time>2021-08-17T04:00:37.379Z</time>
      </trkpt>
      <trkpt lat="41.41101" lon="43.50067">
        <ele>1697.810902</ele>
        <time>2021-08-17T04:00:44.235Z</time>
      </trkpt>
      <trkpt lat="41.41094" lon="43.50078">
        <ele>1697.784676</ele>
        <time>2021-08-17T04:00:46.307Z</time>
      </trkpt>
      <trkpt lat="41.41084" lon="43.50083">
        <ele>1697.760797</ele>
        <time>2021-08-17T04:00:48.364Z</time>
      </trkpt>
      <trkpt lat="41.41052" lon="43.50097">
        <ele>1697.68237</ele>
        <time>2021-08-17T04:00:54.624Z</time>
      </trkpt>
      <trkpt lat="41.41035" lon="43.501">
        <ele>1697.642313</ele>
        <time>2021-08-17T04:00:57.840Z</time>
      </trkpt>
      <trkpt lat="41.41019" lon="43.50113">
        <ele>1697.426981</ele>
        <time>2021-08-17T04:01:01.004Z</time>
      </trkpt>
      <trkpt lat="41.40891" lon="43.50196">
        <ele>1688.203894</ele>
        <time>2021-08-17T04:01:23.182Z</time>
      </trkpt>
      <trkpt lat="41.40867" lon="43.50206">
        <ele>1686.575811</ele>
        <time>2021-08-17T04:01:27.200Z</time>
      </trkpt>
      <trkpt lat="41.40824" lon="43.50223">
        <ele>1684.649249</ele>
        <time>2021-08-17T04:01:34.502Z</time>
      </trkpt>
      <trkpt lat="41.4079" lon="43.50235">
        <ele>1683.286701</ele>
        <time>2021-08-17T04:01:40.571Z</time>
      </trkpt>
      <trkpt lat="41.40749" lon="43.5024">
        <ele>1681.749503</ele>
        <time>2021-08-17T04:01:47.629Z</time>
      </trkpt>
      <trkpt lat="41.40662" lon="43.50269">
        <ele>1678.751681</ele>
        <time>2021-08-17T04:02:04.410Z</time>
      </trkpt>
      <trkpt lat="41.40613" lon="43.50274">
        <ele>1677.7947</ele>
        <time>2021-08-17T04:02:14.481Z</time>
      </trkpt>
      <trkpt lat="41.40585" lon="43.50257">
        <ele>1677.214661</ele>
        <time>2021-08-17T04:02:20.908Z</time>
      </trkpt>
      <trkpt lat="41.40591" lon="43.50238">
        <ele>1676.918246</ele>
        <time>2021-08-17T04:02:24.029Z</time>
      </trkpt>
      <trkpt lat="41.40577" lon="43.50212">
        <ele>1676.463463</ele>
        <time>2021-08-17T04:02:28.304Z</time>
      </trkpt>
      <trkpt lat="41.4056" lon="43.50195">
        <ele>1676.041382</ele>
        <time>2021-08-17T04:02:32.274Z</time>
      </trkpt>
      <trkpt lat="41.40511" lon="43.50171">
        <ele>1675.355206</ele>
        <time>2021-08-17T04:02:41.731Z</time>
      </trkpt>
      <trkpt lat="41.40493" lon="43.50148">
        <ele>1675.105005</ele>
        <time>2021-08-17T04:02:46.305Z</time>
      </trkpt>
      <trkpt lat="41.40488" lon="43.5012">
        <ele>1674.889241</ele>
        <time>2021-08-17T04:02:50.330Z</time>
      </trkpt>
      <trkpt lat="41.40478" lon="43.50101">
        <ele>1674.717236</ele>
        <time>2021-08-17T04:02:53.511Z</time>
      </trkpt>
      <trkpt lat="41.40435" lon="43.50079">
        <ele>1674.251815</ele>
        <time>2021-08-17T04:03:03.045Z</time>
      </trkpt>
      <trkpt lat="41.40414" lon="43.50062">
        <ele>1674.006587</ele>
        <time>2021-08-17T04:03:08.228Z</time>
      </trkpt>
      <trkpt lat="41.40362" lon="43.49995">
        <ele>1676.604064</ele>
        <time>2021-08-17T04:03:27.964Z</time>
      </trkpt>
      <trkpt lat="41.40288" lon="43.49913">
        <ele>1680.911467</ele>
        <time>2021-08-17T04:04:18.364Z</time>
      </trkpt>
      <trkpt lat="41.40268" lon="43.49877">
        <ele>1682.789867</ele>
        <time>2021-08-17T04:04:38.447Z</time>
      </trkpt>
      <trkpt lat="41.40258" lon="43.49843">
        <ele>1684.941717</ele>
        <time>2021-08-17T04:04:55.885Z</time>
      </trkpt>
      <trkpt lat="41.40248" lon="43.49807">
        <ele>1687.19303</ele>
        <time>2021-08-17T04:05:14.637Z</time>
      </trkpt>
      <trkpt lat="41.40241" lon="43.49775">
        <ele>1689.158382</ele>
        <time>2021-08-17T04:05:30.179Z</time>
      </trkpt>
      <trkpt lat="41.40235" lon="43.49691">
        <ele>1694.142256</ele>
        <time>2021-08-17T04:06:10.651Z</time>
      </trkpt>
      <trkpt lat="41.40219" lon="43.49623">
        <ele>1697.643855</ele>
        <time>2021-08-17T04:06:44.371Z</time>
      </trkpt>
      <trkpt lat="41.40218" lon="43.49546">
        <ele>1700.713822</ele>
        <time>2021-08-17T04:07:12.709Z</time>
      </trkpt>
      <trkpt lat="41.40211" lon="43.49473">
        <ele>1703.69774</ele>
        <time>2021-08-17T04:07:38.006Z</time>
      </trkpt>
      <trkpt lat="41.40204" lon="43.4944">
        <ele>1705.063383</ele>
        <time>2021-08-17T04:07:48.630Z</time>
      </trkpt>
      <trkpt lat="41.40199" lon="43.49419">
        <ele>1705.882115</ele>
        <time>2021-08-17T04:07:55.844Z</time>
      </trkpt>
      <trkpt lat="41.40169" lon="43.49372">
        <ele>1707.510865</ele>
        <time>2021-08-17T04:08:13.867Z</time>
      </trkpt>
      <trkpt lat="41.40083" lon="43.4932">
        <ele>1710.779809</ele>
        <time>2021-08-17T04:08:51.250Z</time>
      </trkpt>
      <trkpt lat="41.40019" lon="43.49262">
        <ele>1713.368788</ele>
        <time>2021-08-17T04:09:20.531Z</time>
      </trkpt>
      <trkpt lat="41.39994" lon="43.49271">
        <ele>1714.213297</ele>
        <time>2021-08-17T04:09:31.326Z</time>
      </trkpt>
      <trkpt lat="41.39967" lon="43.49275">
        <ele>1715.116486</ele>
        <time>2021-08-17T04:09:42.987Z</time>
      </trkpt>
      <trkpt lat="41.399" lon="43.49259">
        <ele>1717.300845</ele>
        <time>2021-08-17T04:10:10.938Z</time>
      </trkpt>
      <trkpt lat="41.39889" lon="43.49265">
        <ele>1717.688452</ele>
        <time>2021-08-17T04:10:14.721Z</time>
      </trkpt>
      <trkpt lat="41.39852" lon="43.49258">
        <ele>1718.097098</ele>
        <time>2021-08-17T04:10:27.872Z</time>
      </trkpt>
      <trkpt lat="41.39791" lon="43.49265">
        <ele>1718.577488</ele>
        <time>2021-08-17T04:10:45.616Z</time>
      </trkpt>
      <trkpt lat="41.39787" lon="43.49256">
        <ele>1718.639862</ele>
        <time>2021-08-17T04:10:47.096Z</time>
      </trkpt>
      <trkpt lat="41.39769" lon="43.4921">
        <ele>1718.947369</ele>
        <time>2021-08-17T04:10:56.505Z</time>
      </trkpt>
      <trkpt lat="41.39765" lon="43.49188">
        <ele>1719.08047</ele>
        <time>2021-08-17T04:11:01.248Z</time>
      </trkpt>
      <trkpt lat="41.3977" lon="43.49156">
        <ele>1719.241368</ele>
        <time>2021-08-17T04:11:06.388Z</time>
      </trkpt>
      <trkpt lat="41.39758" lon="43.49077">
        <ele>1718.986255</ele>
        <time>2021-08-17T04:11:18.298Z</time>
      </trkpt>
      <trkpt lat="41.39743" lon="43.48955">
        <ele>1718.592416</ele>
        <time>2021-08-17T04:11:37.356Z</time>
      </trkpt>
      <trkpt lat="41.39734" lon="43.48889">
        <ele>1718.630908</ele>
        <time>2021-08-17T04:11:50.247Z</time>
      </trkpt>
      <trkpt lat="41.39668" lon="43.48901">
        <ele>1718.985448</ele>
        <time>2021-08-17T04:12:07.969Z</time>
      </trkpt>
      <trkpt lat="41.39625" lon="43.48909">
        <ele>1719.218741</ele>
        <time>2021-08-17T04:12:18.903Z</time>
      </trkpt>
      <trkpt lat="41.39592" lon="43.48915">
        <ele>1719.395926</ele>
        <time>2021-08-17T04:12:26.905Z</time>
      </trkpt>
      <trkpt lat="41.39496" lon="43.48935">
        <ele>1719.531538</ele>
        <time>2021-08-17T04:12:50.421Z</time>
      </trkpt>
      <trkpt lat="41.39448" lon="43.48944">
        <ele>1719.574948</ele>
        <time>2021-08-17T04:13:00.782Z</time>
      </trkpt>
      <trkpt lat="41.39392" lon="43.48956">
        <ele>1719.614129</ele>
        <time>2021-08-17T04:13:13.059Z</time>
      </trkpt>
      <trkpt lat="41.39315" lon="43.48973">
        <ele>1719.606251</ele>
        <time>2021-08-17T04:13:30.562Z</time>
      </trkpt>
      <trkpt lat="41.3917" lon="43.49002">
        <ele>1719.57093</ele>
        <time>2021-08-17T04:14:03.218Z</time>
      </trkpt>
      <trkpt lat="41.39066" lon="43.49022">
        <ele>1719.521926</ele>
        <time>2021-08-17T04:14:26.451Z</time>
      </trkpt>
      <trkpt lat="41.39054" lon="43.49025">
        <ele>1719.516491</ele>
        <time>2021-08-17T04:14:29.055Z</time>
      </trkpt>
      <trkpt lat="41.39001" lon="43.49032">
        <ele>1719.504824</ele>
        <time>2021-08-17T04:14:40.671Z</time>
      </trkpt>
      <trkpt lat="41.38892" lon="43.49057">
        <ele>1719.483968</ele>
        <time>2021-08-17T04:15:05.678Z</time>
      </trkpt>
      <trkpt lat="41.38866" lon="43.49062">
        <ele>1719.46701</ele>
        <time>2021-08-17T04:15:11.607Z</time>
      </trkpt>
      <trkpt lat="41.38517" lon="43.49129">
        <ele>1718.495499</ele>
        <time>2021-08-17T04:16:26.504Z</time>
      </trkpt>
      <trkpt lat="41.38451" lon="43.49137">
        <ele>1718.857753</ele>
        <time>2021-08-17T04:16:42.489Z</time>
      </trkpt>
      <trkpt lat="41.38385" lon="43.49149">
        <ele>1719.241852</ele>
        <time>2021-08-17T04:16:59.403Z</time>
      </trkpt>
      <trkpt lat="41.38364" lon="43.49153">
        <ele>1719.365999</ele>
        <time>2021-08-17T04:17:05.305Z</time>
      </trkpt>
      <trkpt lat="41.38338" lon="43.49158">
        <ele>1719.518689</ele>
        <time>2021-08-17T04:17:12.667Z</time>
      </trkpt>
      <trkpt lat="41.38324" lon="43.49161">
        <ele>1719.629603</ele>
        <time>2021-08-17T04:17:16.465Z</time>
      </trkpt>
      <trkpt lat="41.38314" lon="43.49163">
        <ele>1719.723882</ele>
        <time>2021-08-17T04:17:19.381Z</time>
      </trkpt>
      <trkpt lat="41.38306" lon="43.49164">
        <ele>1719.78614</ele>
        <time>2021-08-17T04:17:21.311Z</time>
      </trkpt>
      <trkpt lat="41.3829" lon="43.49167">
        <ele>1719.927815</ele>
        <time>2021-08-17T04:17:25.803Z</time>
      </trkpt>
      <trkpt lat="41.38276" lon="43.49169">
        <ele>1720.050464</ele>
        <time>2021-08-17T04:17:29.526Z</time>
      </trkpt>
      <trkpt lat="41.38258" lon="43.49173">
        <ele>1720.200305</ele>
        <time>2021-08-17T04:17:34.167Z</time>
      </trkpt>
      <trkpt lat="41.38184" lon="43.49187">
        <ele>1720.841297</ele>
        <time>2021-08-17T04:17:53.323Z</time>
      </trkpt>
      <trkpt lat="41.3815" lon="43.49194">
        <ele>1721.133717</ele>
        <time>2021-08-17T04:18:02.647Z</time>
      </trkpt>
      <trkpt lat="41.37994" lon="43.49225">
        <ele>1722.422457</ele>
        <time>2021-08-17T04:18:44.914Z</time>
      </trkpt>
      <trkpt lat="41.37897" lon="43.4924">
        <ele>1722.656056</ele>
        <time>2021-08-17T04:19:08.411Z</time>
      </trkpt>
      <trkpt lat="41.37834" lon="43.49252">
        <ele>1722.741654</ele>
        <time>2021-08-17T04:19:22.485Z</time>
      </trkpt>
      <trkpt lat="41.37825" lon="43.49254">
        <ele>1722.75409</ele>
        <time>2021-08-17T04:19:24.497Z</time>
      </trkpt>
      <trkpt lat="41.37789" lon="43.49261">
        <ele>1722.705788</ele>
        <time>2021-08-17T04:19:32.368Z</time>
      </trkpt>
      <trkpt lat="41.37757" lon="43.49266">
        <ele>1722.497474</ele>
        <time>2021-08-17T04:19:39.282Z</time>
      </trkpt>
      <trkpt lat="41.37746" lon="43.49269">
        <ele>1722.428184</ele>
        <time>2021-08-17T04:19:41.574Z</time>
      </trkpt>
      <trkpt lat="41.37601" lon="43.49298">
        <ele>1721.224306</ele>
        <time>2021-08-17T04:20:11.532Z</time>
      </trkpt>
      <trkpt lat="41.37553" lon="43.49316">
        <ele>1720.364685</ele>
        <time>2021-08-17T04:20:20.988Z</time>
      </trkpt>
      <trkpt lat="41.37454" lon="43.4938">
        <ele>1718.402449</ele>
        <time>2021-08-17T04:20:41.187Z</time>
      </trkpt>
      <trkpt lat="41.37406" lon="43.49412">
        <ele>1717.132149</ele>
        <time>2021-08-17T04:20:50.341Z</time>
      </trkpt>
      <trkpt lat="41.37339" lon="43.49456">
        <ele>1715.316603</ele>
        <time>2021-08-17T04:21:03.585Z</time>
      </trkpt>
      <trkpt lat="41.37273" lon="43.49495">
        <ele>1714.023389</ele>
        <time>2021-08-17T04:21:16.708Z</time>
      </trkpt>
      <trkpt lat="41.37153" lon="43.49574">
        <ele>1713.283355</ele>
        <time>2021-08-17T04:21:44.469Z</time>
      </trkpt>
      <trkpt lat="41.37102" lon="43.49605">
        <ele>1713.617933</ele>
        <time>2021-08-17T04:21:59.668Z</time>
      </trkpt>
      <trkpt lat="41.37064" lon="43.49623">
        <ele>1714.17115</ele>
        <time>2021-08-17T04:22:10.990Z</time>
      </trkpt>
      <trkpt lat="41.37039" lon="43.49626">
        <ele>1714.519305</ele>
        <time>2021-08-17T04:22:18.340Z</time>
      </trkpt>
      <trkpt lat="41.37007" lon="43.49624">
        <ele>1714.957551</ele>
        <time>2021-08-17T04:22:28.042Z</time>
      </trkpt>
      <trkpt lat="41.3695" lon="43.49617">
        <ele>1715.860232</ele>
        <time>2021-08-17T04:22:46.051Z</time>
      </trkpt>
      <trkpt lat="41.36914" lon="43.49618">
        <ele>1716.880865</ele>
        <time>2021-08-17T04:22:57.993Z</time>
      </trkpt>
      <trkpt lat="41.3684" lon="43.49624">
        <ele>1718.962133</ele>
        <time>2021-08-17T04:23:24.430Z</time>
      </trkpt>
      <trkpt lat="41.36787" lon="43.49633">
        <ele>1720.443083</ele>
        <time>2021-08-17T04:23:45.044Z</time>
      </trkpt>
      <trkpt lat="41.36771" lon="43.49636">
        <ele>1721.008263</ele>
        <time>2021-08-17T04:23:51.912Z</time>
      </trkpt>
      <trkpt lat="41.3675" lon="43.49638">
        <ele>1721.848874</ele>
        <time>2021-08-17T04:24:00.840Z</time>
      </trkpt>
      <trkpt lat="41.36575" lon="43.49671">
        <ele>1728.731792</ele>
        <time>2021-08-17T04:25:16.291Z</time>
      </trkpt>
      <trkpt lat="41.36459" lon="43.49698">
        <ele>1732.714652</ele>
        <time>2021-08-17T04:26:03.066Z</time>
      </trkpt>
      <trkpt lat="41.36432" lon="43.497">
        <ele>1733.654838</ele>
        <time>2021-08-17T04:26:13.192Z</time>
      </trkpt>
      <trkpt lat="41.36404" lon="43.49701">
        <ele>1734.357049</ele>
        <time>2021-08-17T04:26:22.945Z</time>
      </trkpt>
      <trkpt lat="41.36305" lon="43.49662">
        <ele>1736.511588</ele>
        <time>2021-08-17T04:26:56.980Z</time>
      </trkpt>
      <trkpt lat="41.3622" lon="43.49627">
        <ele>1738.238906</ele>
        <time>2021-08-17T04:27:23.988Z</time>
      </trkpt>
      <trkpt lat="41.36157" lon="43.49601">
        <ele>1739.300073</ele>
        <time>2021-08-17T04:27:43.303Z</time>
      </trkpt>
      <trkpt lat="41.36062" lon="43.49561">
        <ele>1740.946284</ele>
        <time>2021-08-17T04:28:14.017Z</time>
      </trkpt>
      <trkpt lat="41.35954" lon="43.49545">
        <ele>1742.887028</ele>
        <time>2021-08-17T04:28:48.539Z</time>
      </trkpt>
      <trkpt lat="41.35803" lon="43.49527">
        <ele>1745.236559</ele>
        <time>2021-08-17T04:29:34.133Z</time>
      </trkpt>
      <trkpt lat="41.35681" lon="43.49507">
        <ele>1746.988696</ele>
        <time>2021-08-17T04:30:08.901Z</time>
      </trkpt>
      <trkpt lat="41.34982" lon="43.49424">
        <ele>1757.078852</ele>
        <time>2021-08-17T04:33:35.146Z</time>
      </trkpt>
      <trkpt lat="41.34828" lon="43.49403">
        <ele>1760.00225</ele>
        <time>2021-08-17T04:34:25.073Z</time>
      </trkpt>
      <trkpt lat="41.3433" lon="43.49344">
        <ele>1769.840102</ele>
        <time>2021-08-17T04:37:05.912Z</time>
      </trkpt>
      <trkpt lat="41.33988" lon="43.49301">
        <ele>1775.498526</ele>
        <time>2021-08-17T04:38:49.175Z</time>
      </trkpt>
      <trkpt lat="41.33969" lon="43.49303">
        <ele>1775.814752</ele>
        <time>2021-08-17T04:38:55.186Z</time>
      </trkpt>
      <trkpt lat="41.33947" lon="43.49313">
        <ele>1776.195309</ele>
        <time>2021-08-17T04:39:02.326Z</time>
      </trkpt>
      <trkpt lat="41.33833" lon="43.49389">
        <ele>1778.884654</ele>
        <time>2021-08-17T04:39:43.164Z</time>
      </trkpt>
      <trkpt lat="41.3369" lon="43.49483">
        <ele>1782.972168</ele>
        <time>2021-08-17T04:40:38.611Z</time>
      </trkpt>
      <trkpt lat="41.33641" lon="43.49514">
        <ele>1784.537146</ele>
        <time>2021-08-17T04:40:58.919Z</time>
      </trkpt>
      <trkpt lat="41.33586" lon="43.49557">
        <ele>1786.338654</ele>
        <time>2021-08-17T04:41:24.089Z</time>
      </trkpt>
      <trkpt lat="41.33563" lon="43.49579">
        <ele>1787.140884</ele>
        <time>2021-08-17T04:41:35.356Z</time>
      </trkpt>
      <trkpt lat="41.33518" lon="43.49648">
        <ele>1789.04606</ele>
        <time>2021-08-17T04:42:01.355Z</time>
      </trkpt>
      <trkpt lat="41.33492" lon="43.49697">
        <ele>1790.296346</ele>
        <time>2021-08-17T04:42:17.335Z</time>
      </trkpt>
      <trkpt lat="41.33143" lon="43.50333">
        <ele>1795.86598</ele>
        <time>2021-08-17T04:44:55.503Z</time>
      </trkpt>
      <trkpt lat="41.33084" lon="43.50437">
        <ele>1796.279967</ele>
        <time>2021-08-17T04:45:19.344Z</time>
      </trkpt>
      <trkpt lat="41.32981" lon="43.50625">
        <ele>1796.513826</ele>
        <time>2021-08-17T04:45:57.962Z</time>
      </trkpt>
      <trkpt lat="41.32912" lon="43.50753">
        <ele>1797.20842</ele>
        <time>2021-08-17T04:46:26.082Z</time>
      </trkpt>
      <trkpt lat="41.32884" lon="43.50802">
        <ele>1797.623858</ele>
        <time>2021-08-17T04:46:38.926Z</time>
      </trkpt>
      <trkpt lat="41.32837" lon="43.5087">
        <ele>1798.334717</ele>
        <time>2021-08-17T04:46:59.269Z</time>
      </trkpt>
      <trkpt lat="41.32569" lon="43.51129">
        <ele>1804.357791</ele>
        <time>2021-08-17T04:48:42.983Z</time>
      </trkpt>
      <trkpt lat="41.32493" lon="43.51228">
        <ele>1806.618722</ele>
        <time>2021-08-17T04:49:18.758Z</time>
      </trkpt>
      <trkpt lat="41.32411" lon="43.51347">
        <ele>1809.115763</ele>
        <time>2021-08-17T04:49:58.885Z</time>
      </trkpt>
      <trkpt lat="41.32212" lon="43.51639">
        <ele>1813.925208</ele>
        <time>2021-08-17T04:51:28.169Z</time>
      </trkpt>
      <trkpt lat="41.32183" lon="43.51681">
        <ele>1814.554645</ele>
        <time>2021-08-17T04:51:41.062Z</time>
      </trkpt>
      <trkpt lat="41.32124" lon="43.5177">
        <ele>1815.608904</ele>
        <time>2021-08-17T04:52:07.022Z</time>
      </trkpt>
      <trkpt lat="41.32066" lon="43.51849">
        <ele>1816.580697</ele>
        <time>2021-08-17T04:52:29.564Z</time>
      </trkpt>
      <trkpt lat="41.31948" lon="43.52023">
        <ele>1817.733602</ele>
        <time>2021-08-17T04:53:13.751Z</time>
      </trkpt>
      <trkpt lat="41.31826" lon="43.52201">
        <ele>1819.034658</ele>
        <time>2021-08-17T04:54:00.640Z</time>
      </trkpt>
      <trkpt lat="41.31702" lon="43.52382">
        <ele>1820.883847</ele>
        <time>2021-08-17T04:54:49.986Z</time>
      </trkpt>
      <trkpt lat="41.3158" lon="43.52558">
        <ele>1824.295308</ele>
        <time>2021-08-17T04:55:48.173Z</time>
      </trkpt>
      <trkpt lat="41.3146" lon="43.52737">
        <ele>1827.895845</ele>
        <time>2021-08-17T04:56:46.571Z</time>
      </trkpt>
      <trkpt lat="41.31275" lon="43.53004">
        <ele>1832.201794</ele>
        <time>2021-08-17T04:58:09.756Z</time>
      </trkpt>
      <trkpt lat="41.30969" lon="43.53452">
        <ele>1837.622552</ele>
        <time>2021-08-17T05:00:17.136Z</time>
      </trkpt>
      <trkpt lat="41.30893" lon="43.53562">
        <ele>1838.624222</ele>
        <time>2021-08-17T05:00:47.028Z</time>
      </trkpt>
      <trkpt lat="41.30859" lon="43.53621">
        <ele>1839.131129</ele>
        <time>2021-08-17T05:01:01.866Z</time>
      </trkpt>
      <trkpt lat="41.30553" lon="43.54196">
        <ele>1844.000392</ele>
        <time>2021-08-17T05:03:22.686Z</time>
      </trkpt>
      <trkpt lat="41.30532" lon="43.54237">
        <ele>1844.646945</ele>
        <time>2021-08-17T05:03:34.566Z</time>
      </trkpt>
      <trkpt lat="41.30466" lon="43.54359">
        <ele>1846.911071</ele>
        <time>2021-08-17T05:04:12.329Z</time>
      </trkpt>
      <trkpt lat="41.30415" lon="43.54458">
        <ele>1848.351878</ele>
        <time>2021-08-17T05:04:41.801Z</time>
      </trkpt>
      <trkpt lat="41.30436" lon="43.54502">
        <ele>1848.855426</ele>
        <time>2021-08-17T05:04:53.546Z</time>
      </trkpt>
      <trkpt lat="41.3047" lon="43.54568">
        <ele>1849.626107</ele>
        <time>2021-08-17T05:05:09.907Z</time>
      </trkpt>
      <trkpt lat="41.30491" lon="43.54627">
        <ele>1850.095143</ele>
        <time>2021-08-17T05:05:21.634Z</time>
      </trkpt>
      <trkpt lat="41.3047" lon="43.54568">
        <ele>1850.312742</ele>
        <time>2021-08-17T05:05:32.753Z</time>
      </trkpt>
      <trkpt lat="41.30436" lon="43.54502">
        <ele>1850.582587</ele>
        <time>2021-08-17T05:05:46.790Z</time>
      </trkpt>
      <trkpt lat="41.30415" lon="43.54458">
        <ele>1850.758899</ele>
        <time>2021-08-17T05:05:56.335Z</time>
      </trkpt>
      <trkpt lat="41.30219" lon="43.54792">
        <ele>1854.35932</ele>
        <time>2021-08-17T05:07:26.669Z</time>
      </trkpt>
      <trkpt lat="41.29855" lon="43.55404">
        <ele>1861.308771</ele>
        <time>2021-08-17T05:10:10.123Z</time>
      </trkpt>
      <trkpt lat="41.29821" lon="43.55453">
        <ele>1862.691271</ele>
        <time>2021-08-17T05:10:26.558Z</time>
      </trkpt>
      <trkpt lat="41.2976" lon="43.55503">
        <ele>1864.859092</ele>
        <time>2021-08-17T05:10:52.494Z</time>
      </trkpt>
      <trkpt lat="41.29729" lon="43.55517">
        <ele>1865.854348</ele>
        <time>2021-08-17T05:11:05.420Z</time>
      </trkpt>
      <trkpt lat="41.29603" lon="43.55557">
        <ele>1871.664623</ele>
        <time>2021-08-17T05:12:04.093Z</time>
      </trkpt>
      <trkpt lat="41.29558" lon="43.55584">
        <ele>1874.109905</ele>
        <time>2021-08-17T05:12:29.358Z</time>
      </trkpt>
      <trkpt lat="41.29523" lon="43.55615">
        <ele>1876.087124</ele>
        <time>2021-08-17T05:12:50.443Z</time>
      </trkpt>
      <trkpt lat="41.29504" lon="43.5564">
        <ele>1877.038539</ele>
        <time>2021-08-17T05:13:03.165Z</time>
      </trkpt>
      <trkpt lat="41.29486" lon="43.55666">
        <ele>1877.996335</ele>
        <time>2021-08-17T05:13:16.184Z</time>
      </trkpt>
      <trkpt lat="41.29461" lon="43.55718">
        <ele>1879.656904</ele>
        <time>2021-08-17T05:13:36.304Z</time>
      </trkpt>
      <trkpt lat="41.29332" lon="43.56023">
        <ele>1884.754584</ele>
        <time>2021-08-17T05:14:55.874Z</time>
      </trkpt>
      <trkpt lat="41.29163" lon="43.56381">
        <ele>1883.911115</ele>
        <time>2021-08-17T05:16:02.692Z</time>
      </trkpt>
      <trkpt lat="41.29103" lon="43.56461">
        <ele>1884.13208</ele>
        <time>2021-08-17T05:16:21.165Z</time>
      </trkpt>
      <trkpt lat="41.28712" lon="43.56911">
        <ele>1888.289614</ele>
        <time>2021-08-17T05:18:37.077Z</time>
      </trkpt>
      <trkpt lat="41.28531" lon="43.57122">
        <ele>1893.265479</ele>
        <time>2021-08-17T05:19:58.300Z</time>
      </trkpt>
      <trkpt lat="41.28294" lon="43.57395">
        <ele>1900.834866</ele>
        <time>2021-08-17T05:21:42.535Z</time>
      </trkpt>
      <trkpt lat="41.2808" lon="43.57661">
        <ele>1911.49152</ele>
        <time>2021-08-17T05:23:43.853Z</time>
      </trkpt>
      <trkpt lat="41.27951" lon="43.57802">
        <ele>1917.730898</ele>
        <time>2021-08-17T05:24:53.332Z</time>
      </trkpt>
      <trkpt lat="41.27875" lon="43.5788">
        <ele>1920.593533</ele>
        <time>2021-08-17T05:25:31.286Z</time>
      </trkpt>
      <trkpt lat="41.27615" lon="43.58199">
        <ele>1927.11506</ele>
        <time>2021-08-17T05:27:25.573Z</time>
      </trkpt>
      <trkpt lat="41.27579" lon="43.58244">
        <ele>1927.055506</ele>
        <time>2021-08-17T05:27:35.748Z</time>
      </trkpt>
      <trkpt lat="41.27585" lon="43.58253">
        <ele>1927.044877</ele>
        <time>2021-08-17T05:27:37.495Z</time>
      </trkpt>
      <trkpt lat="41.27584" lon="43.58268">
        <ele>1927.030346</ele>
        <time>2021-08-17T05:27:40.012Z</time>
      </trkpt>
      <trkpt lat="41.27583" lon="43.58281">
        <ele>1927.01847</ele>
        <time>2021-08-17T05:27:41.983Z</time>
      </trkpt>
      <trkpt lat="41.27582" lon="43.58307">
        <ele>1926.995087</ele>
        <time>2021-08-17T05:27:45.818Z</time>
      </trkpt>
      <trkpt lat="41.2755" lon="43.58449">
        <ele>1926.498854</ele>
        <time>2021-08-17T05:28:07.851Z</time>
      </trkpt>
      <trkpt lat="41.27548" lon="43.58464">
        <ele>1926.435462</ele>
        <time>2021-08-17T05:28:10.350Z</time>
      </trkpt>
      <trkpt lat="41.27548" lon="43.58486">
        <ele>1926.347693</ele>
        <time>2021-08-17T05:28:13.845Z</time>
      </trkpt>
      <trkpt lat="41.27542" lon="43.58548">
        <ele>1926.092878</ele>
        <time>2021-08-17T05:28:26.313Z</time>
      </trkpt>
      <trkpt lat="41.27527" lon="43.58581">
        <ele>1926.120279</ele>
        <time>2021-08-17T05:28:34.134Z</time>
      </trkpt>
      <trkpt lat="41.2751" lon="43.58603">
        <ele>1926.452308</ele>
        <time>2021-08-17T05:28:40.546Z</time>
      </trkpt>
      <trkpt lat="41.27504" lon="43.58608">
        <ele>1926.564076</ele>
        <time>2021-08-17T05:28:42.571Z</time>
      </trkpt>
      <trkpt lat="41.27481" lon="43.58629">
        <ele>1926.951146</ele>
        <time>2021-08-17T05:28:50.944Z</time>
      </trkpt>
      <trkpt lat="41.27441" lon="43.58657">
        <ele>1927.585088</ele>
        <time>2021-08-17T05:29:04.583Z</time>
      </trkpt>
      <trkpt lat="41.27435" lon="43.58661">
        <ele>1927.681897</ele>
        <time>2021-08-17T05:29:07.421Z</time>
      </trkpt>
      <trkpt lat="41.27428" lon="43.58668">
        <ele>1927.802519</ele>
        <time>2021-08-17T05:29:09.842Z</time>
      </trkpt>
      <trkpt lat="41.27393" lon="43.58708">
        <ele>1928.463399</ele>
        <time>2021-08-17T05:29:24.888Z</time>
      </trkpt>
      <trkpt lat="41.2739" lon="43.58708">
        <ele>1928.495969</ele>
        <time>2021-08-17T05:29:25.541Z</time>
      </trkpt>
      <trkpt lat="41.27385" lon="43.58711">
        <ele>1928.57904</ele>
        <time>2021-08-17T05:29:27.280Z</time>
      </trkpt>
      <trkpt lat="41.27367" lon="43.58722">
        <ele>1928.859411</ele>
        <time>2021-08-17T05:29:33.980Z</time>
      </trkpt>
      <trkpt lat="41.27366" lon="43.58728">
        <ele>1928.922546</ele>
        <time>2021-08-17T05:29:35.588Z</time>
      </trkpt>
      <trkpt lat="41.27364" lon="43.58722">
        <ele>1928.990436</ele>
        <time>2021-08-17T05:29:37.244Z</time>
      </trkpt>
      <trkpt lat="41.27339" lon="43.58728">
        <ele>1929.35766</ele>
        <time>2021-08-17T05:29:45.166Z</time>
      </trkpt>
      <trkpt lat="41.27332" lon="43.58731">
        <ele>1929.463939</ele>
        <time>2021-08-17T05:29:47.528Z</time>
      </trkpt>
      <trkpt lat="41.27319" lon="43.58736">
        <ele>1929.660137</ele>
        <time>2021-08-17T05:29:51.771Z</time>
      </trkpt>
      <trkpt lat="41.27302" lon="43.58741">
        <ele>1929.908375</ele>
        <time>2021-08-17T05:29:56.889Z</time>
      </trkpt>
      <trkpt lat="41.27272" lon="43.58718">
        <ele>1930.407075</ele>
        <time>2021-08-17T05:30:06.520Z</time>
      </trkpt>
      <trkpt lat="41.27263" lon="43.58719">
        <ele>1930.533537</ele>
        <time>2021-08-17T05:30:09.220Z</time>
      </trkpt>
      <trkpt lat="41.27265" lon="43.58712">
        <ele>1930.608301</ele>
        <time>2021-08-17T05:30:10.610Z</time>
      </trkpt>
      <trkpt lat="41.27244" lon="43.58714">
        <ele>1930.904334</ele>
        <time>2021-08-17T05:30:15.862Z</time>
      </trkpt>
      <trkpt lat="41.27227" lon="43.58716">
        <ele>1931.154228</ele>
        <time>2021-08-17T05:30:21.261Z</time>
      </trkpt>
      <trkpt lat="41.27223" lon="43.58717">
        <ele>1931.21258</ele>
        <time>2021-08-17T05:30:22.442Z</time>
      </trkpt>
      <trkpt lat="41.27205" lon="43.58726">
        <ele>1931.510732</ele>
        <time>2021-08-17T05:30:28.000Z</time>
      </trkpt>
      <trkpt lat="41.27201" lon="43.58728">
        <ele>1931.570805</ele>
        <time>2021-08-17T05:30:29.395Z</time>
      </trkpt>
      <trkpt lat="41.27157" lon="43.58744">
        <ele>1932.275007</ele>
        <time>2021-08-17T05:30:44.136Z</time>
      </trkpt>
      <trkpt lat="41.27146" lon="43.58744">
        <ele>1932.442743</ele>
        <time>2021-08-17T05:30:47.618Z</time>
      </trkpt>
      <trkpt lat="41.2713" lon="43.58798">
        <ele>1933.10322</ele>
        <time>2021-08-17T05:31:01.534Z</time>
      </trkpt>
      <trkpt lat="41.27125" lon="43.58814">
        <ele>1933.304914</ele>
        <time>2021-08-17T05:31:05.966Z</time>
      </trkpt>
      <trkpt lat="41.27107" lon="43.58879">
        <ele>1933.982615</ele>
        <time>2021-08-17T05:31:21.428Z</time>
      </trkpt>
      <trkpt lat="41.27096" lon="43.58914">
        <ele>1934.227598</ele>
        <time>2021-08-17T05:31:30.085Z</time>
      </trkpt>
      <trkpt lat="41.27075" lon="43.58963">
        <ele>1934.578453</ele>
        <time>2021-08-17T05:31:42.038Z</time>
      </trkpt>
      <trkpt lat="41.27066" lon="43.58978">
        <ele>1934.701454</ele>
        <time>2021-08-17T05:31:46.588Z</time>
      </trkpt>
      <trkpt lat="41.27083" lon="43.58976">
        <ele>1934.839249</ele>
        <time>2021-08-17T05:31:51.166Z</time>
      </trkpt>
      <trkpt lat="41.27206" lon="43.59043">
        <ele>1934.706948</ele>
        <time>2021-08-17T05:32:22.426Z</time>
      </trkpt>
      <trkpt lat="41.27268" lon="43.59084">
        <ele>1934.074988</ele>
        <time>2021-08-17T05:32:36.298Z</time>
      </trkpt>
      <trkpt lat="41.27284" lon="43.59098">
        <ele>1933.896672</ele>
        <time>2021-08-17T05:32:40.027Z</time>
      </trkpt>
      <trkpt lat="41.27287" lon="43.59109">
        <ele>1933.817479</ele>
        <time>2021-08-17T05:32:41.796Z</time>
      </trkpt>
      <trkpt lat="41.27286" lon="43.5912">
        <ele>1933.739792</ele>
        <time>2021-08-17T05:32:43.520Z</time>
      </trkpt>
      <trkpt lat="41.27276" lon="43.59155">
        <ele>1933.274621</ele>
        <time>2021-08-17T05:32:48.912Z</time>
      </trkpt>
      <trkpt lat="41.27334" lon="43.59185">
        <ele>1932.186074</ele>
        <time>2021-08-17T05:33:00.835Z</time>
      </trkpt>
      <trkpt lat="41.27373" lon="43.59217">
        <ele>1931.380304</ele>
        <time>2021-08-17T05:33:09.804Z</time>
      </trkpt>
      <trkpt lat="41.2739" lon="43.59296">
        <ele>1930.283314</ele>
        <time>2021-08-17T05:33:21.967Z</time>
      </trkpt>
      <trkpt lat="41.27395" lon="43.59345">
        <ele>1929.587052</ele>
        <time>2021-08-17T05:33:29.430Z</time>
      </trkpt>
      <trkpt lat="41.27391" lon="43.59366">
        <ele>1929.287868</ele>
        <time>2021-08-17T05:33:32.723Z</time>
      </trkpt>
      <trkpt lat="41.27379" lon="43.59383">
        <ele>1928.960542</ele>
        <time>2021-08-17T05:33:36.139Z</time>
      </trkpt>
      <trkpt lat="41.27356" lon="43.59391">
        <ele>1928.501436</ele>
        <time>2021-08-17T05:33:40.943Z</time>
      </trkpt>
      <trkpt lat="41.27342" lon="43.59463">
        <ele>1927.467255</ele>
        <time>2021-08-17T05:33:51.099Z</time>
      </trkpt>
      <trkpt lat="41.27339" lon="43.59531">
        <ele>1926.123457</ele>
        <time>2021-08-17T05:34:00.332Z</time>
      </trkpt>
      <trkpt lat="41.2736" lon="43.5956">
        <ele>1925.23358</ele>
        <time>2021-08-17T05:34:05.720Z</time>
      </trkpt>
      <trkpt lat="41.27722" lon="43.59767">
        <ele>1914.166652</ele>
        <time>2021-08-17T05:35:13.445Z</time>
      </trkpt>
      <trkpt lat="41.27927" lon="43.59873">
        <ele>1910.070881</ele>
        <time>2021-08-17T05:35:54.419Z</time>
      </trkpt>
      <trkpt lat="41.28001" lon="43.59906">
        <ele>1909.189888</ele>
        <time>2021-08-17T05:36:10.116Z</time>
      </trkpt>
      <trkpt lat="41.28088" lon="43.59956">
        <ele>1908.474115</ele>
        <time>2021-08-17T05:36:29.757Z</time>
      </trkpt>
      <trkpt lat="41.28156" lon="43.60027">
        <ele>1907.580714</ele>
        <time>2021-08-17T05:36:47.379Z</time>
      </trkpt>
      <trkpt lat="41.28563" lon="43.60555">
        <ele>1899.996444</ele>
        <time>2021-08-17T05:38:36.213Z</time>
      </trkpt>
      <trkpt lat="41.28795" lon="43.60813">
        <ele>1897.369977</ele>
        <time>2021-08-17T05:39:37.792Z</time>
      </trkpt>
      <trkpt lat="41.28812" lon="43.60835">
        <ele>1897.166918</ele>
        <time>2021-08-17T05:39:42.649Z</time>
      </trkpt>
      <trkpt lat="41.28897" lon="43.6091">
        <ele>1896.293734</ele>
        <time>2021-08-17T05:40:03.093Z</time>
      </trkpt>
      <trkpt lat="41.28997" lon="43.60981">
        <ele>1895.597851</ele>
        <time>2021-08-17T05:40:25.787Z</time>
      </trkpt>
      <trkpt lat="41.29062" lon="43.61044">
        <ele>1895.218758</ele>
        <time>2021-08-17T05:40:42.754Z</time>
      </trkpt>
      <trkpt lat="41.29069" lon="43.6105">
        <ele>1895.181064</ele>
        <time>2021-08-17T05:40:44.606Z</time>
      </trkpt>
      <trkpt lat="41.29185" lon="43.6116">
        <ele>1895.330337</ele>
        <time>2021-08-17T05:41:18.223Z</time>
      </trkpt>
      <trkpt lat="41.29221" lon="43.61195">
        <ele>1895.419351</ele>
        <time>2021-08-17T05:41:29.552Z</time>
      </trkpt>
      <trkpt lat="41.29331" lon="43.61332">
        <ele>1895.091496</ele>
        <time>2021-08-17T05:42:02.193Z</time>
      </trkpt>
      <trkpt lat="41.2935" lon="43.61362">
        <ele>1895.01455</ele>
        <time>2021-08-17T05:42:08.370Z</time>
      </trkpt>
      <trkpt lat="41.29391" lon="43.61426">
        <ele>1894.301455</ele>
        <time>2021-08-17T05:42:21.177Z</time>
      </trkpt>
      <trkpt lat="41.29416" lon="43.61451">
        <ele>1893.887221</ele>
        <time>2021-08-17T05:42:27.368Z</time>
      </trkpt>
      <trkpt lat="41.29435" lon="43.61467">
        <ele>1893.584782</ele>
        <time>2021-08-17T05:42:31.695Z</time>
      </trkpt>
      <trkpt lat="41.29509" lon="43.61515">
        <ele>1892.37813</ele>
        <time>2021-08-17T05:42:47.024Z</time>
      </trkpt>
      <trkpt lat="41.29537" lon="43.61532">
        <ele>1891.560107</ele>
        <time>2021-08-17T05:42:52.692Z</time>
      </trkpt>
      <trkpt lat="41.29592" lon="43.61566">
        <ele>1889.957606</ele>
        <time>2021-08-17T05:43:03.248Z</time>
      </trkpt>
      <trkpt lat="41.29618" lon="43.61581">
        <ele>1889.203894</ele>
        <time>2021-08-17T05:43:08.271Z</time>
      </trkpt>
      <trkpt lat="41.2963" lon="43.61586">
        <ele>1888.888608</ele>
        <time>2021-08-17T05:43:10.296Z</time>
      </trkpt>
      <trkpt lat="41.2967" lon="43.61591">
        <ele>1887.818431</ele>
        <time>2021-08-17T05:43:17.249Z</time>
      </trkpt>
      <trkpt lat="41.29681" lon="43.61596">
        <ele>1887.531221</ele>
        <time>2021-08-17T05:43:19.330Z</time>
      </trkpt>
      <trkpt lat="41.29687" lon="43.61613">
        <ele>1887.198827</ele>
        <time>2021-08-17T05:43:21.612Z</time>
      </trkpt>
      <trkpt lat="41.29688" lon="43.61804">
        <ele>1883.785679</ele>
        <time>2021-08-17T05:43:46.939Z</time>
      </trkpt>
      <trkpt lat="41.29691" lon="43.61843">
        <ele>1883.529451</ele>
        <time>2021-08-17T05:43:53.151Z</time>
      </trkpt>
      <trkpt lat="41.29692" lon="43.6185">
        <ele>1883.532015</ele>
        <time>2021-08-17T05:43:54.314Z</time>
      </trkpt>
      <trkpt lat="41.29694" lon="43.61875">
        <ele>1883.541344</ele>
        <time>2021-08-17T05:43:58.574Z</time>
      </trkpt>
      <trkpt lat="41.29704" lon="43.61883">
        <ele>1883.5475</ele>
        <time>2021-08-17T05:44:01.280Z</time>
      </trkpt>
      <trkpt lat="41.29723" lon="43.61921">
        <ele>1883.564549</ele>
        <time>2021-08-17T05:44:09.643Z</time>
      </trkpt>
      <trkpt lat="41.29726" lon="43.6193">
        <ele>1883.568443</ele>
        <time>2021-08-17T05:44:11.706Z</time>
      </trkpt>
      <trkpt lat="41.29751" lon="43.62001">
        <ele>1883.597587</ele>
        <time>2021-08-17T05:44:25.767Z</time>
      </trkpt>
      <trkpt lat="41.29754" lon="43.62046">
        <ele>1883.593797</ele>
        <time>2021-08-17T05:44:34.677Z</time>
      </trkpt>
      <trkpt lat="41.29769" lon="43.62115">
        <ele>1883.503829</ele>
        <time>2021-08-17T05:44:48.245Z</time>
      </trkpt>
      <trkpt lat="41.29777" lon="43.62159">
        <ele>1883.447456</ele>
        <time>2021-08-17T05:44:56.462Z</time>
      </trkpt>
      <trkpt lat="41.29777" lon="43.62194">
        <ele>1883.403432</ele>
        <time>2021-08-17T05:45:02.374Z</time>
      </trkpt>
      <trkpt lat="41.29788" lon="43.6225">
        <ele>1883.330389</ele>
        <time>2021-08-17T05:45:11.610Z</time>
      </trkpt>
      <trkpt lat="41.29806" lon="43.62302">
        <ele>1882.951195</ele>
        <time>2021-08-17T05:45:20.262Z</time>
      </trkpt>
      <trkpt lat="41.29829" lon="43.62345">
        <ele>1882.496382</ele>
        <time>2021-08-17T05:45:27.996Z</time>
      </trkpt>
      <trkpt lat="41.29864" lon="43.62387">
        <ele>1881.938023</ele>
        <time>2021-08-17T05:45:37.908Z</time>
      </trkpt>
      <trkpt lat="41.29893" lon="43.62413">
        <ele>1881.527613</ele>
        <time>2021-08-17T05:45:45.202Z</time>
      </trkpt>
      <trkpt lat="41.29915" lon="43.62427">
        <ele>1881.252304</ele>
        <time>2021-08-17T05:45:50.057Z</time>
      </trkpt>
      <trkpt lat="41.29917" lon="43.62455">
        <ele>1880.964886</ele>
        <time>2021-08-17T05:45:54.597Z</time>
      </trkpt>
      <trkpt lat="41.29913" lon="43.62479">
        <ele>1880.721507</ele>
        <time>2021-08-17T05:45:58.340Z</time>
      </trkpt>
      <trkpt lat="41.29912" lon="43.62482">
        <ele>1880.685153</ele>
        <time>2021-08-17T05:45:58.878Z</time>
      </trkpt>
      <trkpt lat="41.29897" lon="43.62511">
        <ele>1880.33783</ele>
        <time>2021-08-17T05:46:03.881Z</time>
      </trkpt>
      <trkpt lat="41.29894" lon="43.62517">
        <ele>1880.26001</ele>
        <time>2021-08-17T05:46:05.015Z</time>
      </trkpt>
      <trkpt lat="41.29893" lon="43.6252">
        <ele>1880.225072</ele>
        <time>2021-08-17T05:46:05.521Z</time>
      </trkpt>
      <trkpt lat="41.29884" lon="43.62541">
        <ele>1879.982621</ele>
        <time>2021-08-17T05:46:08.994Z</time>
      </trkpt>
      <trkpt lat="41.29876" lon="43.62552">
        <ele>1879.823024</ele>
        <time>2021-08-17T05:46:11.276Z</time>
      </trkpt>
      <trkpt lat="41.29818" lon="43.62637">
        <ele>1878.651131</ele>
        <time>2021-08-17T05:46:27.819Z</time>
      </trkpt>
      <trkpt lat="41.29792" lon="43.62675">
        <ele>1878.07895</ele>
        <time>2021-08-17T05:46:34.967Z</time>
      </trkpt>
      <trkpt lat="41.29733" lon="43.62761">
        <ele>1876.756563</ele>
        <time>2021-08-17T05:46:51.381Z</time>
      </trkpt>
      <trkpt lat="41.2972" lon="43.62782">
        <ele>1876.446043</ele>
        <time>2021-08-17T05:46:55.299Z</time>
      </trkpt>
      <trkpt lat="41.29718" lon="43.62802">
        <ele>1876.221464</ele>
        <time>2021-08-17T05:46:58.184Z</time>
      </trkpt>
      <trkpt lat="41.29735" lon="43.62845">
        <ele>1876.02339</ele>
        <time>2021-08-17T05:47:05.368Z</time>
      </trkpt>
      <trkpt lat="41.29737" lon="43.62961">
        <ele>1875.823379</ele>
        <time>2021-08-17T05:47:23.764Z</time>
      </trkpt>
      <trkpt lat="41.29747" lon="43.63048">
        <ele>1875.680232</ele>
        <time>2021-08-17T05:47:39.785Z</time>
      </trkpt>
      <trkpt lat="41.29701" lon="43.63229">
        <ele>1876.942307</ele>
        <time>2021-08-17T05:48:19.272Z</time>
      </trkpt>
      <trkpt lat="41.29616" lon="43.63439">
        <ele>1878.157094</ele>
        <time>2021-08-17T05:49:06.388Z</time>
      </trkpt>
      <trkpt lat="41.29601" lon="43.63503">
        <ele>1878.392043</ele>
        <time>2021-08-17T05:49:17.717Z</time>
      </trkpt>
      <trkpt lat="41.29588" lon="43.63712">
        <ele>1878.494876</ele>
        <time>2021-08-17T05:49:52.609Z</time>
      </trkpt>
      <trkpt lat="41.2958" lon="43.63759">
        <ele>1878.652124</ele>
        <time>2021-08-17T05:50:01.165Z</time>
      </trkpt>
      <trkpt lat="41.29544" lon="43.63843">
        <ele>1879.040382</ele>
        <time>2021-08-17T05:50:19.009Z</time>
      </trkpt>
      <trkpt lat="41.29503" lon="43.63923">
        <ele>1879.434301</ele>
        <time>2021-08-17T05:50:38.141Z</time>
      </trkpt>
      <trkpt lat="41.29492" lon="43.6396">
        <ele>1879.643878</ele>
        <time>2021-08-17T05:50:46.176Z</time>
      </trkpt>
      <trkpt lat="41.29398" lon="43.64178">
        <ele>1880.899082</ele>
        <time>2021-08-17T05:51:35.500Z</time>
      </trkpt>
      <trkpt lat="41.29294" lon="43.64407">
        <ele>1881.813785</ele>
        <time>2021-08-17T05:52:21.744Z</time>
      </trkpt>
      <trkpt lat="41.29277" lon="43.64441">
        <ele>1882.094272</ele>
        <time>2021-08-17T05:52:29.007Z</time>
      </trkpt>
      <trkpt lat="41.29307" lon="43.64473">
        <ele>1882.445295</ele>
        <time>2021-08-17T05:52:38.916Z</time>
      </trkpt>
      <trkpt lat="41.29334" lon="43.64498">
        <ele>1882.740533</ele>
        <time>2021-08-17T05:52:48.123Z</time>
      </trkpt>
      <trkpt lat="41.29351" lon="43.64514">
        <ele>1882.9369</ele>
        <time>2021-08-17T05:52:54.810Z</time>
      </trkpt>
      <trkpt lat="41.29374" lon="43.64538">
        <ele>1884.091395</ele>
        <time>2021-08-17T05:53:05.352Z</time>
      </trkpt>
      <trkpt lat="41.29409" lon="43.64573">
        <ele>1885.957686</ele>
        <time>2021-08-17T05:53:21.962Z</time>
      </trkpt>
      <trkpt lat="41.29436" lon="43.646">
        <ele>1887.407567</ele>
        <time>2021-08-17T05:53:37.045Z</time>
      </trkpt>
      <trkpt lat="41.29472" lon="43.64635">
        <ele>1889.322131</ele>
        <time>2021-08-17T05:53:58.784Z</time>
      </trkpt>
      <trkpt lat="41.2948" lon="43.6465">
        <ele>1889.919796</ele>
        <time>2021-08-17T05:54:06.815Z</time>
      </trkpt>
      <trkpt lat="41.2949" lon="43.64689">
        <ele>1891.404623</ele>
        <time>2021-08-17T05:54:22.895Z</time>
      </trkpt>
      <trkpt lat="41.295" lon="43.64895">
        <ele>1900.248577</ele>
        <time>2021-08-17T05:55:45.552Z</time>
      </trkpt>
      <trkpt lat="41.29527" lon="43.65428">
        <ele>1914.024718</ele>
        <time>2021-08-17T05:58:22.152Z</time>
      </trkpt>
      <trkpt lat="41.29555" lon="43.65926">
        <ele>1922.303251</ele>
        <time>2021-08-17T06:00:27.040Z</time>
      </trkpt>
      <trkpt lat="41.29558" lon="43.65996">
        <ele>1923.072969</ele>
        <time>2021-08-17T06:00:42.232Z</time>
      </trkpt>
      <trkpt lat="41.29588" lon="43.66376">
        <ele>1927.004993</ele>
        <time>2021-08-17T06:02:01.235Z</time>
      </trkpt>
      <trkpt lat="41.29684" lon="43.67318">
        <ele>1946.852108</ele>
        <time>2021-08-17T06:06:19.779Z</time>
      </trkpt>
      <trkpt lat="41.29674" lon="43.67371">
        <ele>1948.805499</ele>
        <time>2021-08-17T06:06:37.560Z</time>
      </trkpt>
      <trkpt lat="41.29552" lon="43.6755">
        <ele>1958.383075</ele>
        <time>2021-08-17T06:08:07.831Z</time>
      </trkpt>
      <trkpt lat="41.29501" lon="43.67656">
        <ele>1964.205004</ele>
        <time>2021-08-17T06:08:59.589Z</time>
      </trkpt>
      <trkpt lat="41.2948" lon="43.67719">
        <ele>1967.422174</ele>
        <time>2021-08-17T06:09:28.687Z</time>
      </trkpt>
      <trkpt lat="41.29476" lon="43.67762">
        <ele>1969.391929</ele>
        <time>2021-08-17T06:09:46.598Z</time>
      </trkpt>
      <trkpt lat="41.29481" lon="43.67816">
        <ele>1971.921581</ele>
        <time>2021-08-17T06:10:09.084Z</time>
      </trkpt>
      <trkpt lat="41.29534" lon="43.67963">
        <ele>1978.827409</ele>
        <time>2021-08-17T06:11:10.830Z</time>
      </trkpt>
      <trkpt lat="41.2955" lon="43.68024">
        <ele>1981.126304</ele>
        <time>2021-08-17T06:11:33.426Z</time>
      </trkpt>
      <trkpt lat="41.29552" lon="43.68057">
        <ele>1982.302542</ele>
        <time>2021-08-17T06:11:44.688Z</time>
      </trkpt>
      <trkpt lat="41.29542" lon="43.68121">
        <ele>1984.608576</ele>
        <time>2021-08-17T06:12:06.179Z</time>
      </trkpt>
      <trkpt lat="41.29456" lon="43.68543">
        <ele>1996.854975</ele>
        <time>2021-08-17T06:14:21.639Z</time>
      </trkpt>
      <trkpt lat="41.29362" lon="43.69004">
        <ele>2006.710366</ele>
        <time>2021-08-17T06:16:28.651Z</time>
      </trkpt>
      <trkpt lat="41.2931" lon="43.69256">
        <ele>2011.468176</ele>
        <time>2021-08-17T06:17:38.656Z</time>
      </trkpt>
      <trkpt lat="41.29169" lon="43.69768">
        <ele>2018.178458</ele>
        <time>2021-08-17T06:19:36.768Z</time>
      </trkpt>
      <trkpt lat="41.29154" lon="43.69838">
        <ele>2020.390631</ele>
        <time>2021-08-17T06:19:58.383Z</time>
      </trkpt>
      <trkpt lat="41.29151" lon="43.69907">
        <ele>2022.485774</ele>
        <time>2021-08-17T06:20:21.592Z</time>
      </trkpt>
      <trkpt lat="41.29162" lon="43.70026">
        <ele>2026.656654</ele>
        <time>2021-08-17T06:21:08.141Z</time>
      </trkpt>
      <trkpt lat="41.29177" lon="43.70207">
        <ele>2034.086281</ele>
        <time>2021-08-17T06:22:16.932Z</time>
      </trkpt>
      <trkpt lat="41.29188" lon="43.70335">
        <ele>2037.790613</ele>
        <time>2021-08-17T06:22:58.708Z</time>
      </trkpt>
      <trkpt lat="41.29209" lon="43.70913">
        <ele>2051.323665</ele>
        <time>2021-08-17T06:25:40.182Z</time>
      </trkpt>
      <trkpt lat="41.29203" lon="43.71026">
        <ele>2052.937875</ele>
        <time>2021-08-17T06:26:10.696Z</time>
      </trkpt>
      <trkpt lat="41.29144" lon="43.7167">
        <ele>2060.015757</ele>
        <time>2021-08-17T06:28:35.537Z</time>
      </trkpt>
      <trkpt lat="41.29202" lon="43.72419">
        <ele>2052.657866</ele>
        <time>2021-08-17T06:30:25.644Z</time>
      </trkpt>
      <trkpt lat="41.29193" lon="43.72492">
        <ele>2050.749081</ele>
        <time>2021-08-17T06:30:35.030Z</time>
      </trkpt>
      <trkpt lat="41.29148" lon="43.7269">
        <ele>2044.89869</ele>
        <time>2021-08-17T06:30:59.974Z</time>
      </trkpt>
      <trkpt lat="41.29146" lon="43.72749">
        <ele>2043.064403</ele>
        <time>2021-08-17T06:31:07.184Z</time>
      </trkpt>
      <trkpt lat="41.29149" lon="43.72787">
        <ele>2041.879601</ele>
        <time>2021-08-17T06:31:11.947Z</time>
      </trkpt>
      <trkpt lat="41.2918" lon="43.72901">
        <ele>2039.641706</ele>
        <time>2021-08-17T06:31:27.779Z</time>
      </trkpt>
      <trkpt lat="41.29231" lon="43.73047">
        <ele>2037.673905</ele>
        <time>2021-08-17T06:31:51.588Z</time>
      </trkpt>
      <trkpt lat="41.29243" lon="43.73106">
        <ele>2037.989727</ele>
        <time>2021-08-17T06:32:02.053Z</time>
      </trkpt>
      <trkpt lat="41.29249" lon="43.73186">
        <ele>2038.407581</ele>
        <time>2021-08-17T06:32:17.453Z</time>
      </trkpt>
      <trkpt lat="41.29249" lon="43.7336">
        <ele>2039.991129</ele>
        <time>2021-08-17T06:32:56.559Z</time>
      </trkpt>
      <trkpt lat="41.2926" lon="43.7345">
        <ele>2041.229937</ele>
        <time>2021-08-17T06:33:19.287Z</time>
      </trkpt>
      <trkpt lat="41.29271" lon="43.73473">
        <ele>2041.605673</ele>
        <time>2021-08-17T06:33:26.331Z</time>
      </trkpt>
      <trkpt lat="41.29404" lon="43.73632">
        <ele>2043.753162</ele>
        <time>2021-08-17T06:34:20.615Z</time>
      </trkpt>
      <trkpt lat="41.29472" lon="43.73761">
        <ele>2042.026695</ele>
        <time>2021-08-17T06:34:44.136Z</time>
      </trkpt>
      <trkpt lat="41.29486" lon="43.73803">
        <ele>2041.226337</ele>
        <time>2021-08-17T06:34:50.026Z</time>
      </trkpt>
      <trkpt lat="41.29488" lon="43.73827">
        <ele>2040.794982</ele>
        <time>2021-08-17T06:34:53.098Z</time>
      </trkpt>
      <trkpt lat="41.2948" lon="43.73919">
        <ele>2038.319081</ele>
        <time>2021-08-17T06:35:04.515Z</time>
      </trkpt>
      <trkpt lat="41.29422" lon="43.74326">
        <ele>2021.735187</ele>
        <time>2021-08-17T06:35:53.304Z</time>
      </trkpt>
      <trkpt lat="41.29369" lon="43.74576">
        <ele>2011.462829</ele>
        <time>2021-08-17T06:36:24.019Z</time>
      </trkpt>
      <trkpt lat="41.29372" lon="43.74621">
        <ele>2010.321694</ele>
        <time>2021-08-17T06:36:29.491Z</time>
      </trkpt>
      <trkpt lat="41.29383" lon="43.74667">
        <ele>2009.154745</ele>
        <time>2021-08-17T06:36:35.511Z</time>
      </trkpt>
      <trkpt lat="41.29414" lon="43.74744">
        <ele>2007.057289</ele>
        <time>2021-08-17T06:36:46.687Z</time>
      </trkpt>
      <trkpt lat="41.29635" lon="43.75187">
        <ele>2000.992442</ele>
        <time>2021-08-17T06:38:03.672Z</time>
      </trkpt>
      <trkpt lat="41.29672" lon="43.75264">
        <ele>2001.0638</ele>
        <time>2021-08-17T06:38:19.430Z</time>
      </trkpt>
      <trkpt lat="41.29685" lon="43.75288">
        <ele>2001.120455</ele>
        <time>2021-08-17T06:38:24.958Z</time>
      </trkpt>
      <trkpt lat="41.29722" lon="43.75359">
        <ele>2001.289348</ele>
        <time>2021-08-17T06:38:41.360Z</time>
      </trkpt>
      <trkpt lat="41.29751" lon="43.75389">
        <ele>2001.389206</ele>
        <time>2021-08-17T06:38:50.983Z</time>
      </trkpt>
      <trkpt lat="41.30119" lon="43.7567">
        <ele>2002.823413</ele>
        <time>2021-08-17T06:40:31.422Z</time>
      </trkpt>
      <trkpt lat="41.3027" lon="43.75797">
        <ele>2003.904998</ele>
        <time>2021-08-17T06:41:16.133Z</time>
      </trkpt>
      <trkpt lat="41.30553" lon="43.76017">
        <ele>2007.252937</ele>
        <time>2021-08-17T06:42:46.266Z</time>
      </trkpt>
      <trkpt lat="41.3062" lon="43.76064">
        <ele>2008.291859</ele>
        <time>2021-08-17T06:43:08.194Z</time>
      </trkpt>
      <trkpt lat="41.30643" lon="43.76071">
        <ele>2008.606541</ele>
        <time>2021-08-17T06:43:15.015Z</time>
      </trkpt>
      <trkpt lat="41.30689" lon="43.7607">
        <ele>2009.235799</ele>
        <time>2021-08-17T06:43:28.769Z</time>
      </trkpt>
      <trkpt lat="41.30814" lon="43.76044">
        <ele>2010.863154</ele>
        <time>2021-08-17T06:44:07.491Z</time>
      </trkpt>
      <trkpt lat="41.30846" lon="43.76051">
        <ele>2011.275274</ele>
        <time>2021-08-17T06:44:15.678Z</time>
      </trkpt>
      <trkpt lat="41.30868" lon="43.7606">
        <ele>2011.520618</ele>
        <time>2021-08-17T06:44:22.221Z</time>
      </trkpt>
      <trkpt lat="41.30872" lon="43.76062">
        <ele>2011.522124</ele>
        <time>2021-08-17T06:44:23.083Z</time>
      </trkpt>
      <trkpt lat="41.30889" lon="43.76069">
        <ele>2011.528173</ele>
        <time>2021-08-17T06:44:27.168Z</time>
      </trkpt>
      <trkpt lat="41.30942" lon="43.76072">
        <ele>2011.546043</ele>
        <time>2021-08-17T06:44:38.798Z</time>
      </trkpt>
      <trkpt lat="41.3095" lon="43.7607">
        <ele>2011.548992</ele>
        <time>2021-08-17T06:44:40.420Z</time>
      </trkpt>
      <trkpt lat="41.30971" lon="43.76069">
        <ele>2011.556189</ele>
        <time>2021-08-17T06:44:45.797Z</time>
      </trkpt>
      <trkpt lat="41.30997" lon="43.76068">
        <ele>2011.565052</ele>
        <time>2021-08-17T06:44:51.283Z</time>
      </trkpt>
      <trkpt lat="41.31036" lon="43.76052">
        <ele>2011.578808</ele>
        <time>2021-08-17T06:45:00.041Z</time>
      </trkpt>
      <trkpt lat="41.31048" lon="43.76046">
        <ele>2011.699293</ele>
        <time>2021-08-17T06:45:02.679Z</time>
      </trkpt>
      <trkpt lat="41.31058" lon="43.76039">
        <ele>2011.870084</ele>
        <time>2021-08-17T06:45:05.026Z</time>
      </trkpt>
      <trkpt lat="41.31061" lon="43.76037">
        <ele>2011.922599</ele>
        <time>2021-08-17T06:45:05.908Z</time>
      </trkpt>
      <trkpt lat="41.31069" lon="43.76031">
        <ele>2012.048129</ele>
        <time>2021-08-17T06:45:08.278Z</time>
      </trkpt>
      <trkpt lat="41.31096" lon="43.76012">
        <ele>2012.508689</ele>
        <time>2021-08-17T06:45:15.788Z</time>
      </trkpt>
      <trkpt lat="41.31109" lon="43.76006">
        <ele>2012.711417</ele>
        <time>2021-08-17T06:45:19.502Z</time>
      </trkpt>
      <trkpt lat="41.31159" lon="43.75991">
        <ele>2013.477177</ele>
        <time>2021-08-17T06:45:35.898Z</time>
      </trkpt>
      <trkpt lat="41.31178" lon="43.75986">
        <ele>2013.761914</ele>
        <time>2021-08-17T06:45:43.105Z</time>
      </trkpt>
      <trkpt lat="41.31195" lon="43.7598">
        <ele>2014.022238</ele>
        <time>2021-08-17T06:45:49.279Z</time>
      </trkpt>
      <trkpt lat="41.31202" lon="43.75979">
        <ele>2014.121098</ele>
        <time>2021-08-17T06:45:51.728Z</time>
      </trkpt>
      <trkpt lat="41.31232" lon="43.7597">
        <ele>2014.803937</ele>
        <time>2021-08-17T06:46:03.473Z</time>
      </trkpt>
      <trkpt lat="41.31275" lon="43.75975">
        <ele>2015.884884</ele>
        <time>2021-08-17T06:46:18.791Z</time>
      </trkpt>
      <trkpt lat="41.31299" lon="43.75986">
        <ele>2016.50638</ele>
        <time>2021-08-17T06:46:27.063Z</time>
      </trkpt>
      <trkpt lat="41.31309" lon="43.75991">
        <ele>2016.761694</ele>
        <time>2021-08-17T06:46:30.405Z</time>
      </trkpt>
      <trkpt lat="41.31327" lon="43.75997">
        <ele>2017.227724</ele>
        <time>2021-08-17T06:46:36.552Z</time>
      </trkpt>
      <trkpt lat="41.31341" lon="43.75997">
        <ele>2017.590612</ele>
        <time>2021-08-17T06:46:40.979Z</time>
      </trkpt>
      <trkpt lat="41.31354" lon="43.75995">
        <ele>2017.904728</ele>
        <time>2021-08-17T06:46:45.482Z</time>
      </trkpt>
      <trkpt lat="41.31389" lon="43.75973">
        <ele>2018.850601</ele>
        <time>2021-08-17T06:46:59.167Z</time>
      </trkpt>
      <trkpt lat="41.31396" lon="43.75968">
        <ele>2019.011214</ele>
        <time>2021-08-17T06:47:01.827Z</time>
      </trkpt>
      <trkpt lat="41.3142" lon="43.75948">
        <ele>2019.598145</ele>
        <time>2021-08-17T06:47:12.415Z</time>
      </trkpt>
      <trkpt lat="41.31424" lon="43.75944">
        <ele>2019.706674</ele>
        <time>2021-08-17T06:47:14.441Z</time>
      </trkpt>
      <trkpt lat="41.31444" lon="43.75927">
        <ele>2020.20186</ele>
        <time>2021-08-17T06:47:22.420Z</time>
      </trkpt>
      <trkpt lat="41.31466" lon="43.75908">
        <ele>2020.747832</ele>
        <time>2021-08-17T06:47:30.781Z</time>
      </trkpt>
      <trkpt lat="41.31478" lon="43.75901">
        <ele>2021.022342</ele>
        <time>2021-08-17T06:47:34.330Z</time>
      </trkpt>
      <trkpt lat="41.31486" lon="43.75897">
        <ele>2021.203455</ele>
        <time>2021-08-17T06:47:37.296Z</time>
      </trkpt>
      <trkpt lat="41.31524" lon="43.75888">
        <ele>2022.002202</ele>
        <time>2021-08-17T06:47:48.618Z</time>
      </trkpt>
      <trkpt lat="41.31538" lon="43.75886">
        <ele>2022.292906</ele>
        <time>2021-08-17T06:47:53.198Z</time>
      </trkpt>
      <trkpt lat="41.31557" lon="43.75887">
        <ele>2022.587378</ele>
        <time>2021-08-17T06:47:58.982Z</time>
      </trkpt>
      <trkpt lat="41.31638" lon="43.75887">
        <ele>2023.489369</ele>
        <time>2021-08-17T06:48:25.141Z</time>
      </trkpt>
      <trkpt lat="41.31672" lon="43.75882">
        <ele>2023.867153</ele>
        <time>2021-08-17T06:48:34.149Z</time>
      </trkpt>
      <trkpt lat="41.31736" lon="43.75859">
        <ele>2024.45512</ele>
        <time>2021-08-17T06:48:49.223Z</time>
      </trkpt>
      <trkpt lat="41.3179" lon="43.75853">
        <ele>2024.389455</ele>
        <time>2021-08-17T06:49:00.913Z</time>
      </trkpt>
      <trkpt lat="41.3182" lon="43.75862">
        <ele>2024.352359</ele>
        <time>2021-08-17T06:49:07.622Z</time>
      </trkpt>
      <trkpt lat="41.31896" lon="43.75863">
        <ele>2024.262166</ele>
        <time>2021-08-17T06:49:24.013Z</time>
      </trkpt>
      <trkpt lat="41.31931" lon="43.75864">
        <ele>2024.216626</ele>
        <time>2021-08-17T06:49:31.876Z</time>
      </trkpt>
      <trkpt lat="41.31953" lon="43.75866">
        <ele>2024.188258</ele>
        <time>2021-08-17T06:49:36.899Z</time>
      </trkpt>
      <trkpt lat="41.31982" lon="43.75882">
        <ele>2024.146423</ele>
        <time>2021-08-17T06:49:44.425Z</time>
      </trkpt>
      <trkpt lat="41.32057" lon="43.75959">
        <ele>2024.022808</ele>
        <time>2021-08-17T06:50:04.982Z</time>
      </trkpt>
      <trkpt lat="41.32076" lon="43.75975">
        <ele>2023.785348</ele>
        <time>2021-08-17T06:50:09.669Z</time>
      </trkpt>
      <trkpt lat="41.32101" lon="43.75997">
        <ele>2023.427106</ele>
        <time>2021-08-17T06:50:15.645Z</time>
      </trkpt>
      <trkpt lat="41.32188" lon="43.76064">
        <ele>2022.207984</ele>
        <time>2021-08-17T06:50:34.954Z</time>
      </trkpt>
      <trkpt lat="41.32211" lon="43.76073">
        <ele>2021.92051</ele>
        <time>2021-08-17T06:50:39.325Z</time>
      </trkpt>
      <trkpt lat="41.32439" lon="43.761">
        <ele>2019.100514</ele>
        <time>2021-08-17T06:51:22.827Z</time>
      </trkpt>
      <trkpt lat="41.32484" lon="43.76104">
        <ele>2019.048664</ele>
        <time>2021-08-17T06:51:32.964Z</time>
      </trkpt>
      <trkpt lat="41.32547" lon="43.76112">
        <ele>2018.976477</ele>
        <time>2021-08-17T06:51:48.714Z</time>
      </trkpt>
      <trkpt lat="41.32858" lon="43.76191">
        <ele>2020.497076</ele>
        <time>2021-08-17T06:53:07.423Z</time>
      </trkpt>
      <trkpt lat="41.32952" lon="43.76222">
        <ele>2021.272975</ele>
        <time>2021-08-17T06:53:30.329Z</time>
      </trkpt>
      <trkpt lat="41.33626" lon="43.76409">
        <ele>2032.033064</ele>
        <time>2021-08-17T06:57:00.942Z</time>
      </trkpt>
      <trkpt lat="41.33823" lon="43.76478">
        <ele>2032.955986</ele>
        <time>2021-08-17T06:57:52.415Z</time>
      </trkpt>
      <trkpt lat="41.33875" lon="43.76484">
        <ele>2032.385695</ele>
        <time>2021-08-17T06:58:02.664Z</time>
      </trkpt>
      <trkpt lat="41.33901" lon="43.76467">
        <ele>2032.071659</ele>
        <time>2021-08-17T06:58:08.488Z</time>
      </trkpt>
      <trkpt lat="41.33906" lon="43.76458">
        <ele>2031.981281</ele>
        <time>2021-08-17T06:58:09.883Z</time>
      </trkpt>
      <trkpt lat="41.33935" lon="43.76397">
        <ele>2031.393034</ele>
        <time>2021-08-17T06:58:20.159Z</time>
      </trkpt>
      <trkpt lat="41.34051" lon="43.7619">
        <ele>2029.149759</ele>
        <time>2021-08-17T06:58:57.436Z</time>
      </trkpt>
      <trkpt lat="41.34065" lon="43.76166">
        <ele>2029.231728</ele>
        <time>2021-08-17T06:59:02.587Z</time>
      </trkpt>
      <trkpt lat="41.34143" lon="43.76028">
        <ele>2030.092787</ele>
        <time>2021-08-17T06:59:36.721Z</time>
      </trkpt>
      <trkpt lat="41.3428" lon="43.75769">
        <ele>2033.07682</ele>
        <time>2021-08-17T07:00:46.665Z</time>
      </trkpt>
      <trkpt lat="41.34289" lon="43.7575">
        <ele>2033.267981</ele>
        <time>2021-08-17T07:00:51.483Z</time>
      </trkpt>
      <trkpt lat="41.34321" lon="43.757">
        <ele>2033.83157</ele>
        <time>2021-08-17T07:01:04.302Z</time>
      </trkpt>
      <trkpt lat="41.34356" lon="43.75635">
        <ele>2034.526632</ele>
        <time>2021-08-17T07:01:20.976Z</time>
      </trkpt>
      <trkpt lat="41.34427" lon="43.75543">
        <ele>2036.698836</ele>
        <time>2021-08-17T07:01:49.879Z</time>
      </trkpt>
      <trkpt lat="41.34493" lon="43.7548">
        <ele>2038.773564</ele>
        <time>2021-08-17T07:02:18.146Z</time>
      </trkpt>
      <trkpt lat="41.34624" lon="43.75386">
        <ele>2045.705601</ele>
        <time>2021-08-17T07:03:27.874Z</time>
      </trkpt>
      <trkpt lat="41.3463" lon="43.75382">
        <ele>2046.059668</ele>
        <time>2021-08-17T07:03:32.272Z</time>
      </trkpt>
      <trkpt lat="41.34632" lon="43.75381">
        <ele>2046.168397</ele>
        <time>2021-08-17T07:03:34.589Z</time>
      </trkpt>
      <trkpt lat="41.34721" lon="43.7532">
        <ele>2051.177704</ele>
        <time>2021-08-17T07:04:23.452Z</time>
      </trkpt>
      <trkpt lat="41.34746" lon="43.75303">
        <ele>2052.545405</ele>
        <time>2021-08-17T07:04:38.295Z</time>
      </trkpt>
      <trkpt lat="41.34752" lon="43.75299">
        <ele>2052.899599</ele>
        <time>2021-08-17T07:04:41.331Z</time>
      </trkpt>
      <trkpt lat="41.34761" lon="43.75293">
        <ele>2053.366541</ele>
        <time>2021-08-17T07:04:48.388Z</time>
      </trkpt>
      <trkpt lat="41.34769" lon="43.75287">
        <ele>2053.820197</ele>
        <time>2021-08-17T07:04:52.442Z</time>
      </trkpt>
      <trkpt lat="41.34793" lon="43.75271">
        <ele>2055.149677</ele>
        <time>2021-08-17T07:05:03.773Z</time>
      </trkpt>
      <trkpt lat="41.34798" lon="43.75268">
        <ele>2055.417576</ele>
        <time>2021-08-17T07:05:06.116Z</time>
      </trkpt>
      <trkpt lat="41.34805" lon="43.75263">
        <ele>2055.845103</ele>
        <time>2021-08-17T07:05:09.794Z</time>
      </trkpt>
      <trkpt lat="41.34825" lon="43.75248">
        <ele>2056.962059</ele>
        <time>2021-08-17T07:05:19.025Z</time>
      </trkpt>
      <trkpt lat="41.34837" lon="43.75241">
        <ele>2057.551997</ele>
        <time>2021-08-17T07:05:24.336Z</time>
      </trkpt>
      <trkpt lat="41.34846" lon="43.75234">
        <ele>2057.754709</ele>
        <time>2021-08-17T07:05:27.814Z</time>
      </trkpt>
      <trkpt lat="41.34875" lon="43.75216">
        <ele>2058.401029</ele>
        <time>2021-08-17T07:05:40.131Z</time>
      </trkpt>
      <trkpt lat="41.34889" lon="43.75208">
        <ele>2058.712092</ele>
        <time>2021-08-17T07:05:45.445Z</time>
      </trkpt>
      <trkpt lat="41.34901" lon="43.75206">
        <ele>2058.961006</ele>
        <time>2021-08-17T07:05:49.747Z</time>
      </trkpt>
      <trkpt lat="41.34959" lon="43.75211">
        <ele>2060.132395</ele>
        <time>2021-08-17T07:06:07.363Z</time>
      </trkpt>
      <trkpt lat="41.34971" lon="43.75216">
        <ele>2060.397359</ele>
        <time>2021-08-17T07:06:11.309Z</time>
      </trkpt>
      <trkpt lat="41.34984" lon="43.7522">
        <ele>2060.672057</ele>
        <time>2021-08-17T07:06:14.589Z</time>
      </trkpt>
      <trkpt lat="41.35004" lon="43.75232">
        <ele>2061.10262</ele>
        <time>2021-08-17T07:06:20.645Z</time>
      </trkpt>
      <trkpt lat="41.35098" lon="43.75318">
        <ele>2062.473862</ele>
        <time>2021-08-17T07:06:49.029Z</time>
      </trkpt>
      <trkpt lat="41.3517" lon="43.75383">
        <ele>2063.827612</ele>
        <time>2021-08-17T07:07:16.231Z</time>
      </trkpt>
      <trkpt lat="41.35214" lon="43.75423">
        <ele>2065.358023</ele>
        <time>2021-08-17T07:07:35.725Z</time>
      </trkpt>
      <trkpt lat="41.35224" lon="43.75431">
        <ele>2065.703208</ele>
        <time>2021-08-17T07:07:40.266Z</time>
      </trkpt>
      <trkpt lat="41.35237" lon="43.75443">
        <ele>2066.174072</ele>
        <time>2021-08-17T07:07:46.507Z</time>
      </trkpt>
      <trkpt lat="41.35304" lon="43.75504">
        <ele>2068.522823</ele>
        <time>2021-08-17T07:08:18.623Z</time>
      </trkpt>
      <trkpt lat="41.35693" lon="43.75863">
        <ele>2080.408158</ele>
        <time>2021-08-17T07:11:07.180Z</time>
      </trkpt>
      <trkpt lat="41.35699" lon="43.7587">
        <ele>2080.556207</ele>
        <time>2021-08-17T07:11:09.357Z</time>
      </trkpt>
      <trkpt lat="41.35739" lon="43.75906">
        <ele>2081.42404</ele>
        <time>2021-08-17T07:11:22.283Z</time>
      </trkpt>
      <trkpt lat="41.36367" lon="43.76481">
        <ele>2078.853526</ele>
        <time>2021-08-17T07:14:03.190Z</time>
      </trkpt>
      <trkpt lat="41.36802" lon="43.76875">
        <ele>2078.882587</ele>
        <time>2021-08-17T07:15:59.768Z</time>
      </trkpt>
      <trkpt lat="41.36852" lon="43.76911">
        <ele>2079.401781</ele>
        <time>2021-08-17T07:16:14.482Z</time>
      </trkpt>
      <trkpt lat="41.36977" lon="43.76952">
        <ele>2080.76532</ele>
        <time>2021-08-17T07:16:51.230Z</time>
      </trkpt>
      <trkpt lat="41.37283" lon="43.77031">
        <ele>2085.976533</ele>
        <time>2021-08-17T07:18:27.788Z</time>
      </trkpt>
      <trkpt lat="41.37419" lon="43.77076">
        <ele>2087.726177</ele>
        <time>2021-08-17T07:19:08.719Z</time>
      </trkpt>
      <trkpt lat="41.37452" lon="43.77095">
        <ele>2088.148442</ele>
        <time>2021-08-17T07:19:18.445Z</time>
      </trkpt>
      <trkpt lat="41.37491" lon="43.77137">
        <ele>2088.468755</ele>
        <time>2021-08-17T07:19:31.161Z</time>
      </trkpt>
      <trkpt lat="41.3754" lon="43.77212">
        <ele>2088.516768</ele>
        <time>2021-08-17T07:19:48.928Z</time>
      </trkpt>
      <trkpt lat="41.37711" lon="43.77532">
        <ele>2087.736742</ele>
        <time>2021-08-17T07:20:51.167Z</time>
      </trkpt>
      <trkpt lat="41.3795" lon="43.77956">
        <ele>2086.544704</ele>
        <time>2021-08-17T07:22:16.621Z</time>
      </trkpt>
      <trkpt lat="41.38135" lon="43.78183">
        <ele>2085.576094</ele>
        <time>2021-08-17T07:23:11.000Z</time>
      </trkpt>
      <trkpt lat="41.38177" lon="43.78251">
        <ele>2084.863545</ele>
        <time>2021-08-17T07:23:23.965Z</time>
      </trkpt>
      <trkpt lat="41.38315" lon="43.7854">
        <ele>2080.047567</ele>
        <time>2021-08-17T07:24:11.061Z</time>
      </trkpt>
      <trkpt lat="41.38357" lon="43.78598">
        <ele>2078.847371</ele>
        <time>2021-08-17T07:24:22.212Z</time>
      </trkpt>
      <trkpt lat="41.38439" lon="43.78672">
        <ele>2077.847968</ele>
        <time>2021-08-17T07:24:40.690Z</time>
      </trkpt>
      <trkpt lat="41.38569" lon="43.78791">
        <ele>2078.136429</ele>
        <time>2021-08-17T07:25:15.704Z</time>
      </trkpt>
      <trkpt lat="41.38616" lon="43.78831">
        <ele>2079.090624</ele>
        <time>2021-08-17T07:25:33.391Z</time>
      </trkpt>
      <trkpt lat="41.38834" lon="43.7902">
        <ele>2086.221148</ele>
        <time>2021-08-17T07:27:14.252Z</time>
      </trkpt>
      <trkpt lat="41.38961" lon="43.79086">
        <ele>2088.861142</ele>
        <time>2021-08-17T07:27:57.295Z</time>
      </trkpt>
      <trkpt lat="41.3897" lon="43.79091">
        <ele>2089.042223</ele>
        <time>2021-08-17T07:28:00.356Z</time>
      </trkpt>
      <trkpt lat="41.38993" lon="43.79102">
        <ele>2089.34346</ele>
        <time>2021-08-17T07:28:06.762Z</time>
      </trkpt>
      <trkpt lat="41.39048" lon="43.79129">
        <ele>2089.530819</ele>
        <time>2021-08-17T07:28:21.618Z</time>
      </trkpt>
      <trkpt lat="41.39109" lon="43.7916">
        <ele>2089.743552</ele>
        <time>2021-08-17T07:28:36.960Z</time>
      </trkpt>
      <trkpt lat="41.39134" lon="43.79173">
        <ele>2089.831424</ele>
        <time>2021-08-17T07:28:42.653Z</time>
      </trkpt>
      <trkpt lat="41.39164" lon="43.79188">
        <ele>2089.839797</ele>
        <time>2021-08-17T07:28:49.448Z</time>
      </trkpt>
      <trkpt lat="41.39175" lon="43.79193">
        <ele>2089.802897</ele>
        <time>2021-08-17T07:28:51.700Z</time>
      </trkpt>
      <trkpt lat="41.39198" lon="43.79206">
        <ele>2089.714111</ele>
        <time>2021-08-17T07:28:57.137Z</time>
      </trkpt>
      <trkpt lat="41.39213" lon="43.79218">
        <ele>2089.655378</ele>
        <time>2021-08-17T07:29:00.710Z</time>
      </trkpt>
      <trkpt lat="41.39227" lon="43.7923">
        <ele>2089.59625</ele>
        <time>2021-08-17T07:29:04.206Z</time>
      </trkpt>
      <trkpt lat="41.39266" lon="43.79268">
        <ele>2089.430813</ele>
        <time>2021-08-17T07:29:13.982Z</time>
      </trkpt>
      <trkpt lat="41.39292" lon="43.79296">
        <ele>2089.315093</ele>
        <time>2021-08-17T07:29:21.029Z</time>
      </trkpt>
      <trkpt lat="41.39312" lon="43.79315">
        <ele>2089.4209</ele>
        <time>2021-08-17T07:29:26.753Z</time>
      </trkpt>
      <trkpt lat="41.39326" lon="43.79328">
        <ele>2089.643383</ele>
        <time>2021-08-17T07:29:31.107Z</time>
      </trkpt>
      <trkpt lat="41.39352" lon="43.79351">
        <ele>2090.05982</ele>
        <time>2021-08-17T07:29:38.981Z</time>
      </trkpt>
      <trkpt lat="41.3936" lon="43.79359">
        <ele>2090.197873</ele>
        <time>2021-08-17T07:29:41.874Z</time>
      </trkpt>
      <trkpt lat="41.39362" lon="43.79361">
        <ele>2090.232542</ele>
        <time>2021-08-17T07:29:42.485Z</time>
      </trkpt>
      <trkpt lat="41.39416" lon="43.7941">
        <ele>2091.109002</ele>
        <time>2021-08-17T07:30:01.827Z</time>
      </trkpt>
      <trkpt lat="41.39439" lon="43.79432">
        <ele>2091.494128</ele>
        <time>2021-08-17T07:30:10.968Z</time>
      </trkpt>
      <trkpt lat="41.39446" lon="43.79438">
        <ele>2091.602013</ele>
        <time>2021-08-17T07:30:14.109Z</time>
      </trkpt>
      <trkpt lat="41.39505" lon="43.79492">
        <ele>2093.714773</ele>
        <time>2021-08-17T07:30:40.932Z</time>
      </trkpt>
      <trkpt lat="41.39508" lon="43.79495">
        <ele>2093.817927</ele>
        <time>2021-08-17T07:30:42.371Z</time>
      </trkpt>
      <trkpt lat="41.39523" lon="43.79509">
        <ele>2094.383604</ele>
        <time>2021-08-17T07:30:48.994Z</time>
      </trkpt>
      <trkpt lat="41.39537" lon="43.79522">
        <ele>2094.921236</ele>
        <time>2021-08-17T07:30:56.244Z</time>
      </trkpt>
      <trkpt lat="41.39588" lon="43.79571">
        <ele>2096.868816</ele>
        <time>2021-08-17T07:31:20.498Z</time>
      </trkpt>
      <trkpt lat="41.39667" lon="43.79644">
        <ele>2099.748966</ele>
        <time>2021-08-17T07:31:57.000Z</time>
      </trkpt>
      <trkpt lat="41.39671" lon="43.79648">
        <ele>2099.90016</ele>
        <time>2021-08-17T07:31:59.299Z</time>
      </trkpt>
      <trkpt lat="41.39713" lon="43.79687">
        <ele>2101.440497</ele>
        <time>2021-08-17T07:32:18.055Z</time>
      </trkpt>
      <trkpt lat="41.39725" lon="43.79701">
        <ele>2101.920788</ele>
        <time>2021-08-17T07:32:23.683Z</time>
      </trkpt>
      <trkpt lat="41.39762" lon="43.79745">
        <ele>2103.136178</ele>
        <time>2021-08-17T07:32:41.793Z</time>
      </trkpt>
      <trkpt lat="41.39804" lon="43.79804">
        <ele>2104.304578</ele>
        <time>2021-08-17T07:33:02.626Z</time>
      </trkpt>
      <trkpt lat="41.39903" lon="43.79945">
        <ele>2106.366888</ele>
        <time>2021-08-17T07:33:44.297Z</time>
      </trkpt>
      <trkpt lat="41.39923" lon="43.79974">
        <ele>2106.52562</ele>
        <time>2021-08-17T07:33:51.619Z</time>
      </trkpt>
      <trkpt lat="41.3993" lon="43.79984">
        <ele>2106.584277</ele>
        <time>2021-08-17T07:33:54.249Z</time>
      </trkpt>
      <trkpt lat="41.39981" lon="43.80056">
        <ele>2106.989054</ele>
        <time>2021-08-17T07:34:11.665Z</time>
      </trkpt>
      <trkpt lat="41.40373" lon="43.80605">
        <ele>2105.600872</ele>
        <time>2021-08-17T07:36:13.619Z</time>
      </trkpt>
      <trkpt lat="41.40445" lon="43.8071">
        <ele>2105.566608</ele>
        <time>2021-08-17T07:36:37.561Z</time>
      </trkpt>
      <trkpt lat="41.40498" lon="43.80792">
        <ele>2105.450123</ele>
        <time>2021-08-17T07:36:55.685Z</time>
      </trkpt>
      <trkpt lat="41.40507" lon="43.80819">
        <ele>2105.353458</ele>
        <time>2021-08-17T07:37:00.563Z</time>
      </trkpt>
      <trkpt lat="41.40515" lon="43.80899">
        <ele>2105.093815</ele>
        <time>2021-08-17T07:37:13.323Z</time>
      </trkpt>
      <trkpt lat="41.40515" lon="43.81164">
        <ele>2103.93552</ele>
        <time>2021-08-17T07:37:54.222Z</time>
      </trkpt>
      <trkpt lat="41.40535" lon="43.81292">
        <ele>2103.292947</ele>
        <time>2021-08-17T07:38:14.565Z</time>
      </trkpt>
      <trkpt lat="41.4055" lon="43.81348">
        <ele>2103.015581</ele>
        <time>2021-08-17T07:38:23.812Z</time>
      </trkpt>
      <trkpt lat="41.40657" lon="43.8167">
        <ele>2101.374731</ele>
        <time>2021-08-17T07:39:18.439Z</time>
      </trkpt>
      <trkpt lat="41.40792" lon="43.82087">
        <ele>2099.325946</ele>
        <time>2021-08-17T07:40:28.250Z</time>
      </trkpt>
      <trkpt lat="41.40802" lon="43.82117">
        <ele>2099.205562</ele>
        <time>2021-08-17T07:40:33.686Z</time>
      </trkpt>
      <trkpt lat="41.40823" lon="43.82167">
        <ele>2099.560232</ele>
        <time>2021-08-17T07:40:43.998Z</time>
      </trkpt>
      <trkpt lat="41.41068" lon="43.82696">
        <ele>2103.622272</ele>
        <time>2021-08-17T07:42:52.725Z</time>
      </trkpt>
      <trkpt lat="41.4118" lon="43.82948">
        <ele>2103.431119</ele>
        <time>2021-08-17T07:43:39.818Z</time>
      </trkpt>
      <trkpt lat="41.41222" lon="43.83024">
        <ele>2103.456696</ele>
        <time>2021-08-17T07:43:54.764Z</time>
      </trkpt>
      <trkpt lat="41.41264" lon="43.83072">
        <ele>2103.47703</ele>
        <time>2021-08-17T07:44:07.290Z</time>
      </trkpt>
      <trkpt lat="41.41319" lon="43.83102">
        <ele>2103.606596</ele>
        <time>2021-08-17T07:44:21.720Z</time>
      </trkpt>
      <trkpt lat="41.41543" lon="43.83171">
        <ele>2105.519269</ele>
        <time>2021-08-17T07:45:24.900Z</time>
      </trkpt>
      <trkpt lat="41.41601" lon="43.83224">
        <ele>2105.94425</ele>
        <time>2021-08-17T07:45:42.724Z</time>
      </trkpt>
      <trkpt lat="41.41645" lon="43.83294">
        <ele>2106.03347</ele>
        <time>2021-08-17T07:45:58.303Z</time>
      </trkpt>
      <trkpt lat="41.41659" lon="43.8331">
        <ele>2105.867684</ele>
        <time>2021-08-17T07:46:02.239Z</time>
      </trkpt>
      <trkpt lat="41.417" lon="43.83325">
        <ele>2105.487033</ele>
        <time>2021-08-17T07:46:11.033Z</time>
      </trkpt>
      <trkpt lat="41.42239" lon="43.83361">
        <ele>2099.790873</ele>
        <time>2021-08-17T07:47:57.071Z</time>
      </trkpt>
      <trkpt lat="41.42299" lon="43.83381">
        <ele>2098.937718</ele>
        <time>2021-08-17T07:48:08.679Z</time>
      </trkpt>
      <trkpt lat="41.42995" lon="43.83743">
        <ele>2087.418705</ele>
        <time>2021-08-17T07:50:29.884Z</time>
      </trkpt>
      <trkpt lat="41.43122" lon="43.83802">
        <ele>2086.262261</ele>
        <time>2021-08-17T07:50:56.507Z</time>
      </trkpt>
      <trkpt lat="41.43225" lon="43.83851">
        <ele>2086.47136</ele>
        <time>2021-08-17T07:51:20.455Z</time>
      </trkpt>
      <trkpt lat="41.43299" lon="43.83901">
        <ele>2087.424</ele>
        <time>2021-08-17T07:51:43.837Z</time>
      </trkpt>
      <trkpt lat="41.43322" lon="43.83933">
        <ele>2087.808808</ele>
        <time>2021-08-17T07:51:54.272Z</time>
      </trkpt>
      <trkpt lat="41.43427" lon="43.84263">
        <ele>2097.841163</ele>
        <time>2021-08-17T07:53:39.552Z</time>
      </trkpt>
      <trkpt lat="41.43446" lon="43.84308">
        <ele>2099.805304</ele>
        <time>2021-08-17T07:53:59.444Z</time>
      </trkpt>
      <trkpt lat="41.43476" lon="43.84346">
        <ele>2101.940213</ele>
        <time>2021-08-17T07:54:22.633Z</time>
      </trkpt>
      <trkpt lat="41.4369" lon="43.84503">
        <ele>2116.94772</ele>
        <time>2021-08-17T07:56:47.430Z</time>
      </trkpt>
      <trkpt lat="41.44098" lon="43.8485">
        <ele>2126.886431</ele>
        <time>2021-08-17T07:59:16.115Z</time>
      </trkpt>
      <trkpt lat="41.44168" lon="43.84889">
        <ele>2125.61724</ele>
        <time>2021-08-17T07:59:30.634Z</time>
      </trkpt>
      <trkpt lat="41.44269" lon="43.84906">
        <ele>2123.460338</ele>
        <time>2021-08-17T07:59:48.336Z</time>
      </trkpt>
      <trkpt lat="41.44304" lon="43.84904">
        <ele>2122.720138</ele>
        <time>2021-08-17T07:59:54.181Z</time>
      </trkpt>
      <trkpt lat="41.44335" lon="43.84883">
        <ele>2121.966983</ele>
        <time>2021-08-17T08:00:00.092Z</time>
      </trkpt>
      <trkpt lat="41.44352" lon="43.84859">
        <ele>2121.432549</ele>
        <time>2021-08-17T08:00:04.317Z</time>
      </trkpt>
      <trkpt lat="41.44417" lon="43.84698">
        <ele>2119.967919</ele>
        <time>2021-08-17T08:00:30.591Z</time>
      </trkpt>
      <trkpt lat="41.44446" lon="43.84667">
        <ele>2120.577051</ele>
        <time>2021-08-17T08:00:41.137Z</time>
      </trkpt>
      <trkpt lat="41.4448" lon="43.84657">
        <ele>2121.139039</ele>
        <time>2021-08-17T08:00:52.359Z</time>
      </trkpt>
      <trkpt lat="41.44508" lon="43.84663">
        <ele>2121.599178</ele>
        <time>2021-08-17T08:01:02.660Z</time>
      </trkpt>
      <trkpt lat="41.44567" lon="43.84711">
        <ele>2123.566206</ele>
        <time>2021-08-17T08:01:31.565Z</time>
      </trkpt>
      <trkpt lat="41.44644" lon="43.84792">
        <ele>2127.970406</ele>
        <time>2021-08-17T08:02:17.176Z</time>
      </trkpt>
      <trkpt lat="41.44708" lon="43.84878">
        <ele>2131.730669</ele>
        <time>2021-08-17T08:02:58.031Z</time>
      </trkpt>
      <trkpt lat="41.44737" lon="43.84924">
        <ele>2133.38182</ele>
        <time>2021-08-17T08:03:17.281Z</time>
      </trkpt>
      <trkpt lat="41.44867" lon="43.8517">
        <ele>2140.136402</ele>
        <time>2021-08-17T08:04:41.645Z</time>
      </trkpt>
      <trkpt lat="41.44914" lon="43.85241">
        <ele>2141.433717</ele>
        <time>2021-08-17T08:05:03.488Z</time>
      </trkpt>
      <trkpt lat="41.44993" lon="43.85341">
        <ele>2141.531483</ele>
        <time>2021-08-17T08:05:29.455Z</time>
      </trkpt>
      <trkpt lat="41.45155" lon="43.85462">
        <ele>2140.354945</ele>
        <time>2021-08-17T08:06:05.318Z</time>
      </trkpt>
      <trkpt lat="41.45188" lon="43.85463">
        <ele>2140.054972</ele>
        <time>2021-08-17T08:06:11.968Z</time>
      </trkpt>
      <trkpt lat="41.45206" lon="43.85453">
        <ele>2140.093063</ele>
        <time>2021-08-17T08:06:16.080Z</time>
      </trkpt>
      <trkpt lat="41.4522" lon="43.85439">
        <ele>2140.420077</ele>
        <time>2021-08-17T08:06:21.093Z</time>
      </trkpt>
      <trkpt lat="41.45246" lon="43.85394">
        <ele>2141.237949</ele>
        <time>2021-08-17T08:06:33.032Z</time>
      </trkpt>
      <trkpt lat="41.45255" lon="43.85383">
        <ele>2141.45501</ele>
        <time>2021-08-17T08:06:36.001Z</time>
      </trkpt>
      <trkpt lat="41.45264" lon="43.85375">
        <ele>2141.665608</ele>
        <time>2021-08-17T08:06:40.568Z</time>
      </trkpt>
      <trkpt lat="41.45279" lon="43.85367">
        <ele>2141.979896</ele>
        <time>2021-08-17T08:06:45.937Z</time>
      </trkpt>
      <trkpt lat="41.45308" lon="43.85364">
        <ele>2142.530982</ele>
        <time>2021-08-17T08:06:56.341Z</time>
      </trkpt>
      <trkpt lat="41.45326" lon="43.85367">
        <ele>2142.870185</ele>
        <time>2021-08-17T08:07:03.089Z</time>
      </trkpt>
      <trkpt lat="41.45411" lon="43.85382">
        <ele>2144.473935</ele>
        <time>2021-08-17T08:07:37.409Z</time>
      </trkpt>
      <trkpt lat="41.45425" lon="43.85385">
        <ele>2144.720489</ele>
        <time>2021-08-17T08:07:43.083Z</time>
      </trkpt>
      <trkpt lat="41.45453" lon="43.8539">
        <ele>2145.235792</ele>
        <time>2021-08-17T08:07:52.218Z</time>
      </trkpt>
      <trkpt lat="41.45481" lon="43.85402">
        <ele>2145.790582</ele>
        <time>2021-08-17T08:08:01.930Z</time>
      </trkpt>
      <trkpt lat="41.45507" lon="43.85418">
        <ele>2146.31226</ele>
        <time>2021-08-17T08:08:09.495Z</time>
      </trkpt>
      <trkpt lat="41.45507" lon="43.85418">
        <ele>2146.316181</ele>
        <time>2021-08-17T08:08:09.540Z</time>
      </trkpt>
      <trkpt lat="41.45526" lon="43.85429">
        <ele>2146.633614</ele>
        <time>2021-08-17T08:08:14.459Z</time>
      </trkpt>
      <trkpt lat="41.45983" lon="43.85799">
        <ele>2132.835384</ele>
        <time>2021-08-17T08:09:48.148Z</time>
      </trkpt>
      <trkpt lat="41.46097" lon="43.859">
        <ele>2128.803513</ele>
        <time>2021-08-17T08:10:11.701Z</time>
      </trkpt>
      <trkpt lat="41.46133" lon="43.85948">
        <ele>2127.285776</ele>
        <time>2021-08-17T08:10:20.615Z</time>
      </trkpt>
      <trkpt lat="41.4618" lon="43.8607">
        <ele>2124.383152</ele>
        <time>2021-08-17T08:10:38.418Z</time>
      </trkpt>
      <trkpt lat="41.46206" lon="43.86106">
        <ele>2123.332467</ele>
        <time>2021-08-17T08:10:44.896Z</time>
      </trkpt>
      <trkpt lat="41.46243" lon="43.86127">
        <ele>2122.226576</ele>
        <time>2021-08-17T08:10:52.032Z</time>
      </trkpt>
      <trkpt lat="41.46291" lon="43.86135">
        <ele>2121.271388</ele>
        <time>2021-08-17T08:11:00.663Z</time>
      </trkpt>
      <trkpt lat="41.46341" lon="43.86107">
        <ele>2120.200722</ele>
        <time>2021-08-17T08:11:10.494Z</time>
      </trkpt>
      <trkpt lat="41.46759" lon="43.85771">
        <ele>2113.613594</ele>
        <time>2021-08-17T08:12:43.842Z</time>
      </trkpt>
      <trkpt lat="41.47302" lon="43.8528">
        <ele>2113.558701</ele>
        <time>2021-08-17T08:15:13.531Z</time>
      </trkpt>
      <trkpt lat="41.47433" lon="43.85187">
        <ele>2114.262392</ele>
        <time>2021-08-17T08:15:48.509Z</time>
      </trkpt>
      <trkpt lat="41.47634" lon="43.8506">
        <ele>2116.535249</ele>
        <time>2021-08-17T08:16:49.944Z</time>
      </trkpt>
      <trkpt lat="41.47742" lon="43.85036">
        <ele>2118.801439</ele>
        <time>2021-08-17T08:17:24.999Z</time>
      </trkpt>
      <trkpt lat="41.47817" lon="43.85033">
        <ele>2120.404592</ele>
        <time>2021-08-17T08:17:50.871Z</time>
      </trkpt>
      <trkpt lat="41.47928" lon="43.85052">
        <ele>2123.418554</ele>
        <time>2021-08-17T08:18:30.869Z</time>
      </trkpt>
      <trkpt lat="41.48012" lon="43.85093">
        <ele>2125.7797</ele>
        <time>2021-08-17T08:19:03.500Z</time>
      </trkpt>
      <trkpt lat="41.48104" lon="43.85164">
        <ele>2128.4049</ele>
        <time>2021-08-17T08:19:40.746Z</time>
      </trkpt>
      <trkpt lat="41.48421" lon="43.855">
        <ele>2136.93567</ele>
        <time>2021-08-17T08:21:52.773Z</time>
      </trkpt>
      <trkpt lat="41.48513" lon="43.85607">
        <ele>2138.943247</ele>
        <time>2021-08-17T08:22:30.736Z</time>
      </trkpt>
      <trkpt lat="41.48572" lon="43.8568">
        <ele>2140.068325</ele>
        <time>2021-08-17T08:22:54.271Z</time>
      </trkpt>
      <trkpt lat="41.4869" lon="43.85882">
        <ele>2141.351821</ele>
        <time>2021-08-17T08:23:43.523Z</time>
      </trkpt>
      <trkpt lat="41.49096" lon="43.86646">
        <ele>2143.169607</ele>
        <time>2021-08-17T08:26:22.500Z</time>
      </trkpt>
      <trkpt lat="41.49119" lon="43.86671">
        <ele>2144.249707</ele>
        <time>2021-08-17T08:26:33.003Z</time>
      </trkpt>
      <trkpt lat="41.4915" lon="43.86691">
        <ele>2145.514409</ele>
        <time>2021-08-17T08:26:46.398Z</time>
      </trkpt>
      <trkpt lat="41.49352" lon="43.86724">
        <ele>2154.262034</ele>
        <time>2021-08-17T08:28:23.742Z</time>
      </trkpt>
      <trkpt lat="41.49394" lon="43.86752">
        <ele>2156.559647</ele>
        <time>2021-08-17T08:28:46.199Z</time>
      </trkpt>
      <trkpt lat="41.49431" lon="43.86788">
        <ele>2158.214419</ele>
        <time>2021-08-17T08:29:06.394Z</time>
      </trkpt>
      <trkpt lat="41.49468" lon="43.86853">
        <ele>2159.265272</ele>
        <time>2021-08-17T08:29:31.246Z</time>
      </trkpt>
      <trkpt lat="41.49726" lon="43.87302">
        <ele>2163.88831</ele>
        <time>2021-08-17T08:31:27.769Z</time>
      </trkpt>
      <trkpt lat="41.49836" lon="43.87492">
        <ele>2158.29209</ele>
        <time>2021-08-17T08:31:57.688Z</time>
      </trkpt>
      <trkpt lat="41.49953" lon="43.87692">
        <ele>2149.653016</ele>
        <time>2021-08-17T08:32:27.938Z</time>
      </trkpt>
      <trkpt lat="41.50029" lon="43.87779">
        <ele>2146.764761</ele>
        <time>2021-08-17T08:32:44.528Z</time>
      </trkpt>
      <trkpt lat="41.50618" lon="43.88286">
        <ele>2132.353796</ele>
        <time>2021-08-17T08:34:53.644Z</time>
      </trkpt>
      <trkpt lat="41.50692" lon="43.88349">
        <ele>2131.457533</ele>
        <time>2021-08-17T08:35:11.831Z</time>
      </trkpt>
      <trkpt lat="41.50806" lon="43.88447">
        <ele>2130.143689</ele>
        <time>2021-08-17T08:35:39.790Z</time>
      </trkpt>
      <trkpt lat="41.51004" lon="43.88621">
        <ele>2127.183129</ele>
        <time>2021-08-17T08:36:25.522Z</time>
      </trkpt>
      <trkpt lat="41.51054" lon="43.88658">
        <ele>2126.261903</ele>
        <time>2021-08-17T08:36:36.399Z</time>
      </trkpt>
      <trkpt lat="41.51091" lon="43.88679">
        <ele>2125.547549</ele>
        <time>2021-08-17T08:36:43.981Z</time>
      </trkpt>
      <trkpt lat="41.5118" lon="43.88714">
        <ele>2123.890666</ele>
        <time>2021-08-17T08:37:01.172Z</time>
      </trkpt>
      <trkpt lat="41.5127" lon="43.88736">
        <ele>2121.158698</ele>
        <time>2021-08-17T08:37:17.502Z</time>
      </trkpt>
      <trkpt lat="41.5131" lon="43.88737">
        <ele>2119.905826</ele>
        <time>2021-08-17T08:37:24.205Z</time>
      </trkpt>
      <trkpt lat="41.51407" lon="43.88706">
        <ele>2116.117148</ele>
        <time>2021-08-17T08:37:40.593Z</time>
      </trkpt>
      <trkpt lat="41.51461" lon="43.88686">
        <ele>2113.428074</ele>
        <time>2021-08-17T08:37:49.494Z</time>
      </trkpt>
      <trkpt lat="41.51567" lon="43.88644">
        <ele>2108.093045</ele>
        <time>2021-08-17T08:38:06.958Z</time>
      </trkpt>
      <trkpt lat="41.51727" lon="43.8859">
        <ele>2100.37817</ele>
        <time>2021-08-17T08:38:33.298Z</time>
      </trkpt>
      <trkpt lat="41.52039" lon="43.88529">
        <ele>2090.813261</ele>
        <time>2021-08-17T08:39:27.539Z</time>
      </trkpt>
      <trkpt lat="41.52096" lon="43.88525">
        <ele>2089.491419</ele>
        <time>2021-08-17T08:39:38.032Z</time>
      </trkpt>
      <trkpt lat="41.52308" lon="43.88588">
        <ele>2085.451842</ele>
        <time>2021-08-17T08:40:19.192Z</time>
      </trkpt>
      <trkpt lat="41.5263" lon="43.88647">
        <ele>2076.893022</ele>
        <time>2021-08-17T08:41:16.374Z</time>
      </trkpt>
      <trkpt lat="41.53089" lon="43.88778">
        <ele>2058.891652</ele>
        <time>2021-08-17T08:42:34.061Z</time>
      </trkpt>
      <trkpt lat="41.53259" lon="43.88867">
        <ele>2049.983561</ele>
        <time>2021-08-17T08:43:03.211Z</time>
      </trkpt>
      <trkpt lat="41.5364" lon="43.89089">
        <ele>2026.897845</ele>
        <time>2021-08-17T08:44:07.714Z</time>
      </trkpt>
      <trkpt lat="41.53678" lon="43.89106">
        <ele>2025.240687</ele>
        <time>2021-08-17T08:44:14.031Z</time>
      </trkpt>
      <trkpt lat="41.53713" lon="43.89113">
        <ele>2023.720285</ele>
        <time>2021-08-17T08:44:19.917Z</time>
      </trkpt>
      <trkpt lat="41.53743" lon="43.89109">
        <ele>2022.474682</ele>
        <time>2021-08-17T08:44:24.788Z</time>
      </trkpt>
      <trkpt lat="41.53779" lon="43.89092">
        <ele>2020.868974</ele>
        <time>2021-08-17T08:44:31.174Z</time>
      </trkpt>
      <trkpt lat="41.53886" lon="43.89015">
        <ele>2016.079742</ele>
        <time>2021-08-17T08:44:51.974Z</time>
      </trkpt>
      <trkpt lat="41.53956" lon="43.88957">
        <ele>2012.918586</ele>
        <time>2021-08-17T08:45:05.388Z</time>
      </trkpt>
      <trkpt lat="41.54031" lon="43.88868">
        <ele>2006.645345</ele>
        <time>2021-08-17T08:45:21.063Z</time>
      </trkpt>
      <trkpt lat="41.54074" lon="43.88837">
        <ele>2003.619786</ele>
        <time>2021-08-17T08:45:28.327Z</time>
      </trkpt>
      <trkpt lat="41.54117" lon="43.88823">
        <ele>2000.485412</ele>
        <time>2021-08-17T08:45:34.895Z</time>
      </trkpt>
      <trkpt lat="41.54167" lon="43.88826">
        <ele>1996.171554</ele>
        <time>2021-08-17T08:45:42.206Z</time>
      </trkpt>
      <trkpt lat="41.54388" lon="43.88872">
        <ele>1976.514157</ele>
        <time>2021-08-17T08:46:14.469Z</time>
      </trkpt>
      <trkpt lat="41.54426" lon="43.88885">
        <ele>1972.991626</ele>
        <time>2021-08-17T08:46:20.150Z</time>
      </trkpt>
      <trkpt lat="41.5449" lon="43.88918">
        <ele>1966.75171</ele>
        <time>2021-08-17T08:46:29.962Z</time>
      </trkpt>
      <trkpt lat="41.54531" lon="43.88915">
        <ele>1962.929347</ele>
        <time>2021-08-17T08:46:35.869Z</time>
      </trkpt>
      <trkpt lat="41.54564" lon="43.88901">
        <ele>1959.705848</ele>
        <time>2021-08-17T08:46:40.815Z</time>
      </trkpt>
      <trkpt lat="41.546" lon="43.88895">
        <ele>1956.268721</ele>
        <time>2021-08-17T08:46:46.070Z</time>
      </trkpt>
      <trkpt lat="41.54629" lon="43.88901">
        <ele>1953.569984</ele>
        <time>2021-08-17T08:46:50.172Z</time>
      </trkpt>
      <trkpt lat="41.54659" lon="43.88918">
        <ele>1950.498993</ele>
        <time>2021-08-17T08:46:54.729Z</time>
      </trkpt>
      <trkpt lat="41.54747" lon="43.89009">
        <ele>1939.837078</ele>
        <time>2021-08-17T08:47:10.556Z</time>
      </trkpt>
      <trkpt lat="41.54829" lon="43.89078">
        <ele>1933.110533</ele>
        <time>2021-08-17T08:47:24.744Z</time>
      </trkpt>
      <trkpt lat="41.54863" lon="43.89092">
        <ele>1931.235745</ele>
        <time>2021-08-17T08:47:30.226Z</time>
      </trkpt>
      <trkpt lat="41.54958" lon="43.89103">
        <ele>1926.766076</ele>
        <time>2021-08-17T08:47:46.496Z</time>
      </trkpt>
      <trkpt lat="41.55012" lon="43.89098">
        <ele>1926.771321</ele>
        <time>2021-08-17T08:47:58.085Z</time>
      </trkpt>
      <trkpt lat="41.55032" lon="43.8908">
        <ele>1926.77361</ele>
        <time>2021-08-17T08:48:04.067Z</time>
      </trkpt>
      <trkpt lat="41.55043" lon="43.89059">
        <ele>1926.775527</ele>
        <time>2021-08-17T08:48:09.408Z</time>
      </trkpt>
      <trkpt lat="41.55052" lon="43.89034">
        <ele>1926.777523</ele>
        <time>2021-08-17T08:48:15.015Z</time>
      </trkpt>
      <trkpt lat="41.55056" lon="43.89">
        <ele>1926.780014</ele>
        <time>2021-08-17T08:48:22.192Z</time>
      </trkpt>
      <trkpt lat="41.55042" lon="43.88928">
        <ele>1926.506957</ele>
        <time>2021-08-17T08:48:38.636Z</time>
      </trkpt>
      <trkpt lat="41.54976" lon="43.88759">
        <ele>1925.189223</ele>
        <time>2021-08-17T08:49:07.421Z</time>
      </trkpt>
      <trkpt lat="41.54975" lon="43.88743">
        <ele>1924.852471</ele>
        <time>2021-08-17T08:49:09.380Z</time>
      </trkpt>
      <trkpt lat="41.54979" lon="43.88731">
        <ele>1924.233581</ele>
        <time>2021-08-17T08:49:10.993Z</time>
      </trkpt>
      <trkpt lat="41.54988" lon="43.88728">
        <ele>1923.633915</ele>
        <time>2021-08-17T08:49:12.537Z</time>
      </trkpt>
      <trkpt lat="41.55001" lon="43.88743">
        <ele>1922.500794</ele>
        <time>2021-08-17T08:49:15.406Z</time>
      </trkpt>
      <trkpt lat="41.55014" lon="43.8879">
        <ele>1920.188618</ele>
        <time>2021-08-17T08:49:21.146Z</time>
      </trkpt>
      <trkpt lat="41.5505" lon="43.88852">
        <ele>1916.510818</ele>
        <time>2021-08-17T08:49:29.918Z</time>
      </trkpt>
      <trkpt lat="41.55087" lon="43.8889">
        <ele>1913.370722</ele>
        <time>2021-08-17T08:49:36.809Z</time>
      </trkpt>
      <trkpt lat="41.55148" lon="43.88937">
        <ele>1906.700853</ele>
        <time>2021-08-17T08:49:46.768Z</time>
      </trkpt>
      <trkpt lat="41.55249" lon="43.89005">
        <ele>1895.920831</ele>
        <time>2021-08-17T08:50:02.837Z</time>
      </trkpt>
      <trkpt lat="41.55481" lon="43.89086">
        <ele>1874.28196</ele>
        <time>2021-08-17T08:50:37.351Z</time>
      </trkpt>
      <trkpt lat="41.55505" lon="43.89099">
        <ele>1872.118223</ele>
        <time>2021-08-17T08:50:41.105Z</time>
      </trkpt>
      <trkpt lat="41.55542" lon="43.89134">
        <ele>1868.328721</ele>
        <time>2021-08-17T08:50:47.712Z</time>
      </trkpt>
      <trkpt lat="41.55571" lon="43.89177">
        <ele>1864.611701</ele>
        <time>2021-08-17T08:50:54.210Z</time>
      </trkpt>
      <trkpt lat="41.55618" lon="43.89267">
        <ele>1857.966138</ele>
        <time>2021-08-17T08:51:06.213Z</time>
      </trkpt>
      <trkpt lat="41.55725" lon="43.89425">
        <ele>1844.542647</ele>
        <time>2021-08-17T08:51:29.516Z</time>
      </trkpt>
      <trkpt lat="41.55743" lon="43.89464">
        <ele>1841.552403</ele>
        <time>2021-08-17T08:51:34.442Z</time>
      </trkpt>
      <trkpt lat="41.55858" lon="43.89772">
        <ele>1818.116178</ele>
        <time>2021-08-17T08:52:11.608Z</time>
      </trkpt>
      <trkpt lat="41.55925" lon="43.89994">
        <ele>1799.727428</ele>
        <time>2021-08-17T08:52:37.008Z</time>
      </trkpt>
      <trkpt lat="41.55952" lon="43.90054">
        <ele>1793.52246</ele>
        <time>2021-08-17T08:52:44.327Z</time>
      </trkpt>
      <trkpt lat="41.55987" lon="43.90105">
        <ele>1787.267251</ele>
        <time>2021-08-17T08:52:51.539Z</time>
      </trkpt>
      <trkpt lat="41.56068" lon="43.90186">
        <ele>1775.128912</ele>
        <time>2021-08-17T08:53:05.360Z</time>
      </trkpt>
      <trkpt lat="41.56167" lon="43.90268">
        <ele>1760.859654</ele>
        <time>2021-08-17T08:53:21.345Z</time>
      </trkpt>
      <trkpt lat="41.5643" lon="43.90324">
        <ele>1734.707889</ele>
        <time>2021-08-17T08:53:59.026Z</time>
      </trkpt>
      <trkpt lat="41.56465" lon="43.90322">
        <ele>1732.501007</ele>
        <time>2021-08-17T08:54:04.385Z</time>
      </trkpt>
      <trkpt lat="41.56517" lon="43.90297">
        <ele>1728.929707</ele>
        <time>2021-08-17T08:54:13.419Z</time>
      </trkpt>
      <trkpt lat="41.56613" lon="43.9022">
        <ele>1721.768852</ele>
        <time>2021-08-17T08:54:31.223Z</time>
      </trkpt>
      <trkpt lat="41.5665" lon="43.90191">
        <ele>1719.036059</ele>
        <time>2021-08-17T08:54:37.813Z</time>
      </trkpt>
      <trkpt lat="41.5668" lon="43.90168">
        <ele>1716.77827</ele>
        <time>2021-08-17T08:54:43.106Z</time>
      </trkpt>
      <trkpt lat="41.56785" lon="43.90125">
        <ele>1707.24039</ele>
        <time>2021-08-17T08:54:58.952Z</time>
      </trkpt>
      <trkpt lat="41.56896" lon="43.90095">
        <ele>1696.126654</ele>
        <time>2021-08-17T08:55:14.898Z</time>
      </trkpt>
      <trkpt lat="41.57169" lon="43.90072">
        <ele>1667.589629</ele>
        <time>2021-08-17T08:55:53.269Z</time>
      </trkpt>
      <trkpt lat="41.57392" lon="43.90032">
        <ele>1646.659557</ele>
        <time>2021-08-17T08:56:25.541Z</time>
      </trkpt>
      <trkpt lat="41.57508" lon="43.90005">
        <ele>1636.68766</ele>
        <time>2021-08-17T08:56:42.803Z</time>
      </trkpt>
      <trkpt lat="41.57751" lon="43.89922">
        <ele>1615.853334</ele>
        <time>2021-08-17T08:57:19.391Z</time>
      </trkpt>
      <trkpt lat="41.57777" lon="43.89922">
        <ele>1613.738753</ele>
        <time>2021-08-17T08:57:23.059Z</time>
      </trkpt>
      <trkpt lat="41.57813" lon="43.89948">
        <ele>1610.23086</ele>
        <time>2021-08-17T08:57:29.101Z</time>
      </trkpt>
      <trkpt lat="41.57816" lon="43.89951">
        <ele>1609.933159</ele>
        <time>2021-08-17T08:57:29.572Z</time>
      </trkpt>
      <trkpt lat="41.57829" lon="43.89971">
        <ele>1608.243749</ele>
        <time>2021-08-17T08:57:32.480Z</time>
      </trkpt>
      <trkpt lat="41.5796" lon="43.90314">
        <ele>1584.559364</ele>
        <time>2021-08-17T08:58:14.752Z</time>
      </trkpt>
      <trkpt lat="41.57967" lon="43.9033">
        <ele>1583.517902</ele>
        <time>2021-08-17T08:58:16.710Z</time>
      </trkpt>
      <trkpt lat="41.58001" lon="43.90416">
        <ele>1578.090177</ele>
        <time>2021-08-17T08:58:27.558Z</time>
      </trkpt>
      <trkpt lat="41.58031" lon="43.9051">
        <ele>1572.414117</ele>
        <time>2021-08-17T08:58:38.954Z</time>
      </trkpt>
      <trkpt lat="41.58069" lon="43.90601">
        <ele>1567.577643</ele>
        <time>2021-08-17T08:58:50.715Z</time>
      </trkpt>
      <trkpt lat="41.58102" lon="43.90708">
        <ele>1562.657966</ele>
        <time>2021-08-17T08:59:04.251Z</time>
      </trkpt>
      <trkpt lat="41.58104" lon="43.90724">
        <ele>1561.987401</ele>
        <time>2021-08-17T08:59:06.015Z</time>
      </trkpt>
      <trkpt lat="41.5811" lon="43.90762">
        <ele>1560.385265</ele>
        <time>2021-08-17T08:59:10.920Z</time>
      </trkpt>
      <trkpt lat="41.58111" lon="43.90778">
        <ele>1560.058866</ele>
        <time>2021-08-17T08:59:12.814Z</time>
      </trkpt>
      <trkpt lat="41.58112" lon="43.90814">
        <ele>1559.308657</ele>
        <time>2021-08-17T08:59:17.310Z</time>
      </trkpt>
      <trkpt lat="41.58102" lon="43.90913">
        <ele>1557.229907</ele>
        <time>2021-08-17T08:59:30.249Z</time>
      </trkpt>
      <trkpt lat="41.58069" lon="43.91057">
        <ele>1554.392238</ele>
        <time>2021-08-17T08:59:51.799Z</time>
      </trkpt>
      <trkpt lat="41.58063" lon="43.911">
        <ele>1553.679765</ele>
        <time>2021-08-17T08:59:57.916Z</time>
      </trkpt>
      <trkpt lat="41.58063" lon="43.91139">
        <ele>1553.055025</ele>
        <time>2021-08-17T09:00:03.196Z</time>
      </trkpt>
      <trkpt lat="41.58067" lon="43.91181">
        <ele>1552.37662</ele>
        <time>2021-08-17T09:00:08.873Z</time>
      </trkpt>
      <trkpt lat="41.58074" lon="43.91253">
        <ele>1550.98194</ele>
        <time>2021-08-17T09:00:18.506Z</time>
      </trkpt>
      <trkpt lat="41.58087" lon="43.91373">
        <ele>1547.811038</ele>
        <time>2021-08-17T09:00:33.758Z</time>
      </trkpt>
      <trkpt lat="41.581" lon="43.91444">
        <ele>1545.896327</ele>
        <time>2021-08-17T09:00:42.823Z</time>
      </trkpt>
      <trkpt lat="41.58108" lon="43.91466">
        <ele>1545.275859</ele>
        <time>2021-08-17T09:00:45.862Z</time>
      </trkpt>
      <trkpt lat="41.58116" lon="43.91477">
        <ele>1544.879917</ele>
        <time>2021-08-17T09:00:47.826Z</time>
      </trkpt>
      <trkpt lat="41.58127" lon="43.91495">
        <ele>1544.289985</ele>
        <time>2021-08-17T09:00:50.788Z</time>
      </trkpt>
      <trkpt lat="41.58161" lon="43.91533">
        <ele>1542.82918</ele>
        <time>2021-08-17T09:00:58.229Z</time>
      </trkpt>
      <trkpt lat="41.58246" lon="43.9161">
        <ele>1539.393168</ele>
        <time>2021-08-17T09:01:15.763Z</time>
      </trkpt>
      <trkpt lat="41.58324" lon="43.91726">
        <ele>1536.205346</ele>
        <time>2021-08-17T09:01:36.301Z</time>
      </trkpt>
      <trkpt lat="41.58353" lon="43.91773">
        <ele>1534.94906</ele>
        <time>2021-08-17T09:01:44.436Z</time>
      </trkpt>
      <trkpt lat="41.5837" lon="43.91796">
        <ele>1534.295521</ele>
        <time>2021-08-17T09:01:48.624Z</time>
      </trkpt>
      <trkpt lat="41.58457" lon="43.9191">
        <ele>1531.17105</ele>
        <time>2021-08-17T09:02:09.961Z</time>
      </trkpt>
      <trkpt lat="41.58593" lon="43.92069">
        <ele>1527.751037</ele>
        <time>2021-08-17T09:02:42.938Z</time>
      </trkpt>
      <trkpt lat="41.58774" lon="43.92234">
        <ele>1526.183945</ele>
        <time>2021-08-17T09:03:28.648Z</time>
      </trkpt>
      <trkpt lat="41.58817" lon="43.9228">
        <ele>1526.529278</ele>
        <time>2021-08-17T09:03:41.068Z</time>
      </trkpt>
      <trkpt lat="41.58875" lon="43.92353">
        <ele>1527.329043</ele>
        <time>2021-08-17T09:04:01.227Z</time>
      </trkpt>
      <trkpt lat="41.58898" lon="43.92386">
        <ele>1527.670207</ele>
        <time>2021-08-17T09:04:11.859Z</time>
      </trkpt>
      <trkpt lat="41.58931" lon="43.92439">
        <ele>1528.81438</ele>
        <time>2021-08-17T09:04:29.274Z</time>
      </trkpt>
      <trkpt lat="41.58954" lon="43.92479">
        <ele>1530.096301</ele>
        <time>2021-08-17T09:04:43.870Z</time>
      </trkpt>
      <trkpt lat="41.58965" lon="43.92504">
        <ele>1530.832003</ele>
        <time>2021-08-17T09:04:52.094Z</time>
      </trkpt>
      <trkpt lat="41.58972" lon="43.92523">
        <ele>1531.368434</ele>
        <time>2021-08-17T09:04:58.716Z</time>
      </trkpt>
      <trkpt lat="41.58984" lon="43.92555">
        <ele>1532.257614</ele>
        <time>2021-08-17T09:05:09.418Z</time>
      </trkpt>
      <trkpt lat="41.58997" lon="43.92616">
        <ele>1533.884531</ele>
        <time>2021-08-17T09:05:29.774Z</time>
      </trkpt>
      <trkpt lat="41.58995" lon="43.92639">
        <ele>1534.487532</ele>
        <time>2021-08-17T09:05:36.600Z</time>
      </trkpt>
      <trkpt lat="41.58995" lon="43.92645">
        <ele>1534.672298</ele>
        <time>2021-08-17T09:05:39.294Z</time>
      </trkpt>
      <trkpt lat="41.58992" lon="43.92714">
        <ele>1536.570133</ele>
        <time>2021-08-17T09:06:02.354Z</time>
      </trkpt>
      <trkpt lat="41.58998" lon="43.92762">
        <ele>1537.922576</ele>
        <time>2021-08-17T09:06:17.000Z</time>
      </trkpt>
      <trkpt lat="41.59" lon="43.92795">
        <ele>1538.832103</ele>
        <time>2021-08-17T09:06:26.937Z</time>
      </trkpt>
      <trkpt lat="41.59" lon="43.92802">
        <ele>1539.016979</ele>
        <time>2021-08-17T09:06:29.264Z</time>
      </trkpt>
      <trkpt lat="41.58997" lon="43.92844">
        <ele>1540.193942</ele>
        <time>2021-08-17T09:06:41.562Z</time>
      </trkpt>
      <trkpt lat="41.58991" lon="43.92891">
        <ele>1541.141219</ele>
        <time>2021-08-17T09:06:53.593Z</time>
      </trkpt>
      <trkpt lat="41.58987" lon="43.92924">
        <ele>1541.667595</ele>
        <time>2021-08-17T09:07:03.059Z</time>
      </trkpt>
      <trkpt lat="41.5896" lon="43.93001">
        <ele>1542.986235</ele>
        <time>2021-08-17T09:07:26.040Z</time>
      </trkpt>
      <trkpt lat="41.58957" lon="43.93017">
        <ele>1543.241153</ele>
        <time>2021-08-17T09:07:29.886Z</time>
      </trkpt>
      <trkpt lat="41.58962" lon="43.93046">
        <ele>1543.700804</ele>
        <time>2021-08-17T09:07:36.316Z</time>
      </trkpt>
      <trkpt lat="41.58965" lon="43.93053">
        <ele>1543.843045</ele>
        <time>2021-08-17T09:07:38.270Z</time>
      </trkpt>
      <trkpt lat="41.58974" lon="43.93071">
        <ele>1544.172577</ele>
        <time>2021-08-17T09:07:42.355Z</time>
      </trkpt>
      <trkpt lat="41.58989" lon="43.93086">
        <ele>1544.45671</ele>
        <time>2021-08-17T09:07:47.331Z</time>
      </trkpt>
      <trkpt lat="41.58995" lon="43.93093">
        <ele>1544.505522</ele>
        <time>2021-08-17T09:07:49.450Z</time>
      </trkpt>
      <trkpt lat="41.59008" lon="43.93105">
        <ele>1544.59479</ele>
        <time>2021-08-17T09:07:52.642Z</time>
      </trkpt>
      <trkpt lat="41.59013" lon="43.93105">
        <ele>1544.622644</ele>
        <time>2021-08-17T09:07:54.190Z</time>
      </trkpt>
      <trkpt lat="41.59016" lon="43.93105">
        <ele>1544.640101</ele>
        <time>2021-08-17T09:07:54.892Z</time>
      </trkpt>
      <trkpt lat="41.59036" lon="43.93099">
        <ele>1544.758873</ele>
        <time>2021-08-17T09:07:59.252Z</time>
      </trkpt>
      <trkpt lat="41.59067" lon="43.93088">
        <ele>1544.946223</ele>
        <time>2021-08-17T09:08:07.126Z</time>
      </trkpt>
      <trkpt lat="41.59103" lon="43.93073">
        <ele>1545.166403</ele>
        <time>2021-08-17T09:08:16.269Z</time>
      </trkpt>
      <trkpt lat="41.59133" lon="43.93057">
        <ele>1545.35296</ele>
        <time>2021-08-17T09:08:25.252Z</time>
      </trkpt>
      <trkpt lat="41.59138" lon="43.93054">
        <ele>1545.386706</ele>
        <time>2021-08-17T09:08:26.407Z</time>
      </trkpt>
      <trkpt lat="41.5915" lon="43.93048">
        <ele>1545.459499</ele>
        <time>2021-08-17T09:08:30.080Z</time>
      </trkpt>
      <trkpt lat="41.59174" lon="43.93043">
        <ele>1545.780068</ele>
        <time>2021-08-17T09:08:36.168Z</time>
      </trkpt>
      <trkpt lat="41.592" lon="43.93053">
        <ele>1546.13199</ele>
        <time>2021-08-17T09:08:43.632Z</time>
      </trkpt>
      <trkpt lat="41.59206" lon="43.93057">
        <ele>1546.216241</ele>
        <time>2021-08-17T09:08:45.031Z</time>
      </trkpt>
      <trkpt lat="41.59219" lon="43.93067">
        <ele>1546.407177</ele>
        <time>2021-08-17T09:08:49.059Z</time>
      </trkpt>
      <trkpt lat="41.59237" lon="43.93088">
        <ele>1546.719133</ele>
        <time>2021-08-17T09:08:56.074Z</time>
      </trkpt>
      <trkpt lat="41.59259" lon="43.93117">
        <ele>1547.12665</ele>
        <time>2021-08-17T09:09:06.129Z</time>
      </trkpt>
      <trkpt lat="41.59284" lon="43.93146">
        <ele>1547.551851</ele>
        <time>2021-08-17T09:09:16.633Z</time>
      </trkpt>
      <trkpt lat="41.5932" lon="43.93208">
        <ele>1547.670376</ele>
        <time>2021-08-17T09:09:34.129Z</time>
      </trkpt>
      <trkpt lat="41.59322" lon="43.93213">
        <ele>1547.656123</ele>
        <time>2021-08-17T09:09:35.924Z</time>
      </trkpt>
      <trkpt lat="41.59326" lon="43.93226">
        <ele>1547.620212</ele>
        <time>2021-08-17T09:09:38.643Z</time>
      </trkpt>
      <trkpt lat="41.59329" lon="43.93232">
        <ele>1547.600638</ele>
        <time>2021-08-17T09:09:39.959Z</time>
      </trkpt>
      <trkpt lat="41.59346" lon="43.93327">
        <ele>1547.346951</ele>
        <time>2021-08-17T09:09:55.276Z</time>
      </trkpt>
      <trkpt lat="41.59347" lon="43.9334">
        <ele>1547.31134</ele>
        <time>2021-08-17T09:09:57.178Z</time>
      </trkpt>
      <trkpt lat="41.59354" lon="43.93395">
        <ele>1547.078733</ele>
        <time>2021-08-17T09:10:04.723Z</time>
      </trkpt>
      <trkpt lat="41.59359" lon="43.9347">
        <ele>1545.470224</ele>
        <time>2021-08-17T09:10:14.551Z</time>
      </trkpt>
      <trkpt lat="41.5936" lon="43.93488">
        <ele>1545.085692</ele>
        <time>2021-08-17T09:10:16.919Z</time>
      </trkpt>
      <trkpt lat="41.5936" lon="43.93514">
        <ele>1544.536916</ele>
        <time>2021-08-17T09:10:20.199Z</time>
      </trkpt>
      <trkpt lat="41.59353" lon="43.9358">
        <ele>1543.130866</ele>
        <time>2021-08-17T09:10:28.729Z</time>
      </trkpt>
      <trkpt lat="41.59347" lon="43.93624">
        <ele>1542.183764</ele>
        <time>2021-08-17T09:10:34.446Z</time>
      </trkpt>
      <trkpt lat="41.59345" lon="43.93645">
        <ele>1541.878445</ele>
        <time>2021-08-17T09:10:37.215Z</time>
      </trkpt>
      <trkpt lat="41.59346" lon="43.93743">
        <ele>1540.645914</ele>
        <time>2021-08-17T09:10:50.532Z</time>
      </trkpt>
      <trkpt lat="41.59347" lon="43.93753">
        <ele>1540.518401</ele>
        <time>2021-08-17T09:10:51.956Z</time>
      </trkpt>
      <trkpt lat="41.59354" lon="43.93815">
        <ele>1539.730302</ele>
        <time>2021-08-17T09:11:00.982Z</time>
      </trkpt>
      <trkpt lat="41.5936" lon="43.93868">
        <ele>1539.065063</ele>
        <time>2021-08-17T09:11:09.172Z</time>
      </trkpt>
      <trkpt lat="41.59406" lon="43.9407">
        <ele>1538.199248</ele>
        <time>2021-08-17T09:11:43.591Z</time>
      </trkpt>
      <trkpt lat="41.59412" lon="43.94095">
        <ele>1538.091613</ele>
        <time>2021-08-17T09:11:47.506Z</time>
      </trkpt>
      <trkpt lat="41.59423" lon="43.94134">
        <ele>1537.397649</ele>
        <time>2021-08-17T09:11:53.354Z</time>
      </trkpt>
      <trkpt lat="41.59436" lon="43.94189">
        <ele>1536.395218</ele>
        <time>2021-08-17T09:12:01.217Z</time>
      </trkpt>
      <trkpt lat="41.59448" lon="43.94238">
        <ele>1535.485512</ele>
        <time>2021-08-17T09:12:08.201Z</time>
      </trkpt>
      <trkpt lat="41.59453" lon="43.94266">
        <ele>1534.998876</ele>
        <time>2021-08-17T09:12:11.889Z</time>
      </trkpt>
      <trkpt lat="41.59451" lon="43.94291">
        <ele>1534.557305</ele>
        <time>2021-08-17T09:12:15.136Z</time>
      </trkpt>
      <trkpt lat="41.59443" lon="43.94315">
        <ele>1534.089429</ele>
        <time>2021-08-17T09:12:18.605Z</time>
      </trkpt>
      <trkpt lat="41.59425" lon="43.94348">
        <ele>1533.339694</ele>
        <time>2021-08-17T09:12:23.570Z</time>
      </trkpt>
      <trkpt lat="41.59354" lon="43.94453">
        <ele>1530.571965</ele>
        <time>2021-08-17T09:12:41.731Z</time>
      </trkpt>
      <trkpt lat="41.59276" lon="43.9462">
        <ele>1529.034096</ele>
        <time>2021-08-17T09:13:10.846Z</time>
      </trkpt>
      <trkpt lat="41.59238" lon="43.94755">
        <ele>1529.25674</ele>
        <time>2021-08-17T09:13:39.080Z</time>
      </trkpt>
      <trkpt lat="41.5923" lon="43.94801">
        <ele>1529.854147</ele>
        <time>2021-08-17T09:13:49.760Z</time>
      </trkpt>
      <trkpt lat="41.59228" lon="43.94843">
        <ele>1530.391497</ele>
        <time>2021-08-17T09:14:00.039Z</time>
      </trkpt>
      <trkpt lat="41.59291" lon="43.95217">
        <ele>1535.102957</ele>
        <time>2021-08-17T09:15:31.751Z</time>
      </trkpt>
      <trkpt lat="41.59305" lon="43.95265">
        <ele>1535.093447</ele>
        <time>2021-08-17T09:15:40.659Z</time>
      </trkpt>
      <trkpt lat="41.59359" lon="43.95361">
        <ele>1535.07131</ele>
        <time>2021-08-17T09:15:59.629Z</time>
      </trkpt>
      <trkpt lat="41.59389" lon="43.95403">
        <ele>1535.007161</ele>
        <time>2021-08-17T09:16:08.382Z</time>
      </trkpt>
      <trkpt lat="41.59509" lon="43.95493">
        <ele>1534.140907</ele>
        <time>2021-08-17T09:16:36.292Z</time>
      </trkpt>
      <trkpt lat="41.59526" lon="43.95532">
        <ele>1533.936034</ele>
        <time>2021-08-17T09:16:43.521Z</time>
      </trkpt>
      <trkpt lat="41.59527" lon="43.95579">
        <ele>1534.134651</ele>
        <time>2021-08-17T09:16:51.439Z</time>
      </trkpt>
      <trkpt lat="41.59527" lon="43.95596">
        <ele>1534.209613</ele>
        <time>2021-08-17T09:16:54.537Z</time>
      </trkpt>
      <trkpt lat="41.59524" lon="43.95658">
        <ele>1534.472734</ele>
        <time>2021-08-17T09:17:06.030Z</time>
      </trkpt>
      <trkpt lat="41.59523" lon="43.95726">
        <ele>1534.758106</ele>
        <time>2021-08-17T09:17:19.229Z</time>
      </trkpt>
      <trkpt lat="41.59523" lon="43.95752">
        <ele>1534.87071</ele>
        <time>2021-08-17T09:17:24.987Z</time>
      </trkpt>
      <trkpt lat="41.59525" lon="43.95778">
        <ele>1535.037155</ele>
        <time>2021-08-17T09:17:30.405Z</time>
      </trkpt>
      <trkpt lat="41.59532" lon="43.95832">
        <ele>1535.691952</ele>
        <time>2021-08-17T09:17:42.403Z</time>
      </trkpt>
      <trkpt lat="41.59544" lon="43.95949">
        <ele>1537.125997</ele>
        <time>2021-08-17T09:18:11.057Z</time>
      </trkpt>
      <trkpt lat="41.59547" lon="43.9598">
        <ele>1537.503416</ele>
        <time>2021-08-17T09:18:18.093Z</time>
      </trkpt>
      <trkpt lat="41.59546" lon="43.96022">
        <ele>1537.960205</ele>
        <time>2021-08-17T09:18:26.995Z</time>
      </trkpt>
      <trkpt lat="41.59541" lon="43.9604">
        <ele>1538.1196</ele>
        <time>2021-08-17T09:18:31.257Z</time>
      </trkpt>
      <trkpt lat="41.59537" lon="43.9605">
        <ele>1538.220402</ele>
        <time>2021-08-17T09:18:33.651Z</time>
      </trkpt>
      <trkpt lat="41.59534" lon="43.96061">
        <ele>1538.316582</ele>
        <time>2021-08-17T09:18:36.019Z</time>
      </trkpt>
      <trkpt lat="41.59523" lon="43.96099">
        <ele>1538.652433</ele>
        <time>2021-08-17T09:18:44.655Z</time>
      </trkpt>
      <trkpt lat="41.59518" lon="43.96126">
        <ele>1538.87828</ele>
        <time>2021-08-17T09:18:50.345Z</time>
      </trkpt>
      <trkpt lat="41.59515" lon="43.96138">
        <ele>1538.982743</ele>
        <time>2021-08-17T09:18:52.961Z</time>
      </trkpt>
      <trkpt lat="41.59508" lon="43.96164">
        <ele>1539.215452</ele>
        <time>2021-08-17T09:18:58.743Z</time>
      </trkpt>
      <trkpt lat="41.59499" lon="43.96189">
        <ele>1539.441072</ele>
        <time>2021-08-17T09:19:05.017Z</time>
      </trkpt>
      <trkpt lat="41.59492" lon="43.96202">
        <ele>1539.576389</ele>
        <time>2021-08-17T09:19:08.236Z</time>
      </trkpt>
      <trkpt lat="41.59486" lon="43.96212">
        <ele>1539.681184</ele>
        <time>2021-08-17T09:19:11.007Z</time>
      </trkpt>
      <trkpt lat="41.59463" lon="43.96248">
        <ele>1539.813803</ele>
        <time>2021-08-17T09:19:20.055Z</time>
      </trkpt>
      <trkpt lat="41.59448" lon="43.96271">
        <ele>1539.772497</ele>
        <time>2021-08-17T09:19:25.594Z</time>
      </trkpt>
      <trkpt lat="41.59418" lon="43.96321">
        <ele>1539.684709</ele>
        <time>2021-08-17T09:19:36.095Z</time>
      </trkpt>
      <trkpt lat="41.59411" lon="43.96339">
        <ele>1539.656615</ele>
        <time>2021-08-17T09:19:40.027Z</time>
      </trkpt>
      <trkpt lat="41.59403" lon="43.96356">
        <ele>1539.629175</ele>
        <time>2021-08-17T09:19:43.106Z</time>
      </trkpt>
      <trkpt lat="41.59401" lon="43.96363">
        <ele>1539.619379</ele>
        <time>2021-08-17T09:19:44.228Z</time>
      </trkpt>
      <trkpt lat="41.59386" lon="43.96407">
        <ele>1539.553057</ele>
        <time>2021-08-17T09:19:51.735Z</time>
      </trkpt>
      <trkpt lat="41.59367" lon="43.96461">
        <ele>1538.8306</ele>
        <time>2021-08-17T09:20:00.535Z</time>
      </trkpt>
      <trkpt lat="41.59341" lon="43.96536">
        <ele>1537.305491</ele>
        <time>2021-08-17T09:20:11.684Z</time>
      </trkpt>
      <trkpt lat="41.59329" lon="43.96573">
        <ele>1536.559162</ele>
        <time>2021-08-17T09:20:16.810Z</time>
      </trkpt>
      <trkpt lat="41.59305" lon="43.96654">
        <ele>1534.992905</ele>
        <time>2021-08-17T09:20:27.879Z</time>
      </trkpt>
      <trkpt lat="41.59272" lon="43.96765">
        <ele>1533.750278</ele>
        <time>2021-08-17T09:20:43.705Z</time>
      </trkpt>
      <trkpt lat="41.59271" lon="43.96785">
        <ele>1533.546653</ele>
        <time>2021-08-17T09:20:46.500Z</time>
      </trkpt>
      <trkpt lat="41.59273" lon="43.968">
        <ele>1533.387944</ele>
        <time>2021-08-17T09:20:48.818Z</time>
      </trkpt>
      <trkpt lat="41.59277" lon="43.96816">
        <ele>1533.207937</ele>
        <time>2021-08-17T09:20:52.148Z</time>
      </trkpt>
      <trkpt lat="41.59283" lon="43.96829">
        <ele>1533.055972</ele>
        <time>2021-08-17T09:20:54.479Z</time>
      </trkpt>
      <trkpt lat="41.59296" lon="43.9685">
        <ele>1532.765548</ele>
        <time>2021-08-17T09:20:59.799Z</time>
      </trkpt>
      <trkpt lat="41.59314" lon="43.96883">
        <ele>1532.797593</ele>
        <time>2021-08-17T09:21:07.605Z</time>
      </trkpt>
      <trkpt lat="41.59329" lon="43.96906">
        <ele>1533.131907</ele>
        <time>2021-08-17T09:21:14.172Z</time>
      </trkpt>
      <trkpt lat="41.59351" lon="43.96956">
        <ele>1533.745956</ele>
        <time>2021-08-17T09:21:26.037Z</time>
      </trkpt>
      <trkpt lat="41.59353" lon="43.9697">
        <ele>1533.903099</ele>
        <time>2021-08-17T09:21:29.822Z</time>
      </trkpt>
      <trkpt lat="41.59356" lon="43.96984">
        <ele>1534.064077</ele>
        <time>2021-08-17T09:21:33.628Z</time>
      </trkpt>
      <trkpt lat="41.59366" lon="43.97035">
        <ele>1534.638204</ele>
        <time>2021-08-17T09:21:46.733Z</time>
      </trkpt>
      <trkpt lat="41.59377" lon="43.97085">
        <ele>1535.185324</ele>
        <time>2021-08-17T09:21:59.575Z</time>
      </trkpt>
      <trkpt lat="41.59424" lon="43.9724">
        <ele>1536.015989</ele>
        <time>2021-08-17T09:22:32.463Z</time>
      </trkpt>
      <trkpt lat="41.59442" lon="43.97294">
        <ele>1536.310305</ele>
        <time>2021-08-17T09:22:41.707Z</time>
      </trkpt>
      <trkpt lat="41.59448" lon="43.97314">
        <ele>1536.367341</ele>
        <time>2021-08-17T09:22:45.229Z</time>
      </trkpt>
      <trkpt lat="41.59459" lon="43.97346">
        <ele>1536.376865</ele>
        <time>2021-08-17T09:22:51.045Z</time>
      </trkpt>
      <trkpt lat="41.59474" lon="43.9739">
        <ele>1536.390092</ele>
        <time>2021-08-17T09:22:59.822Z</time>
      </trkpt>
      <trkpt lat="41.59484" lon="43.97421">
        <ele>1536.399232</ele>
        <time>2021-08-17T09:23:06.457Z</time>
      </trkpt>
      <trkpt lat="41.5949" lon="43.9744">
        <ele>1536.404829</ele>
        <time>2021-08-17T09:23:10.469Z</time>
      </trkpt>
      <trkpt lat="41.595" lon="43.97471">
        <ele>1536.413977</ele>
        <time>2021-08-17T09:23:16.424Z</time>
      </trkpt>
      <trkpt lat="41.59537" lon="43.97577">
        <ele>1536.147673</ele>
        <time>2021-08-17T09:23:34.551Z</time>
      </trkpt>
      <trkpt lat="41.59539" lon="43.97581">
        <ele>1536.126791</ele>
        <time>2021-08-17T09:23:35.287Z</time>
      </trkpt>
      <trkpt lat="41.59553" lon="43.97624">
        <ele>1535.900667</ele>
        <time>2021-08-17T09:23:42.294Z</time>
      </trkpt>
      <trkpt lat="41.5957" lon="43.97676">
        <ele>1535.621541</ele>
        <time>2021-08-17T09:23:51.324Z</time>
      </trkpt>
      <trkpt lat="41.59595" lon="43.97762">
        <ele>1535.264718</ele>
        <time>2021-08-17T09:24:05.383Z</time>
      </trkpt>
      <trkpt lat="41.59611" lon="43.97813">
        <ele>1535.251918</ele>
        <time>2021-08-17T09:24:13.467Z</time>
      </trkpt>
      <trkpt lat="41.59749" lon="43.98263">
        <ele>1535.904249</ele>
        <time>2021-08-17T09:25:42.059Z</time>
      </trkpt>
      <trkpt lat="41.59781" lon="43.98404">
        <ele>1535.841936</ele>
        <time>2021-08-17T09:26:05.920Z</time>
      </trkpt>
      <trkpt lat="41.59851" lon="43.98995">
        <ele>1534.817046</ele>
        <time>2021-08-17T09:27:40.755Z</time>
      </trkpt>
      <trkpt lat="41.59884" lon="43.99311">
        <ele>1536.91417</ele>
        <time>2021-08-17T09:28:48.151Z</time>
      </trkpt>
      <trkpt lat="41.59916" lon="43.99551">
        <ele>1538.45708</ele>
        <time>2021-08-17T09:29:38.019Z</time>
      </trkpt>
      <trkpt lat="41.59923" lon="43.99594">
        <ele>1538.700478</ele>
        <time>2021-08-17T09:29:45.699Z</time>
      </trkpt>
      <trkpt lat="41.59926" lon="43.99615">
        <ele>1538.773905</ele>
        <time>2021-08-17T09:29:49.184Z</time>
      </trkpt>
      <trkpt lat="41.59977" lon="43.99915">
        <ele>1539.486124</ele>
        <time>2021-08-17T09:30:41.166Z</time>
      </trkpt>
      <trkpt lat="41.59994" lon="44.00016">
        <ele>1540.159838</ele>
        <time>2021-08-17T09:31:03.369Z</time>
      </trkpt>
      <trkpt lat="41.59996" lon="44.00042">
        <ele>1540.332784</ele>
        <time>2021-08-17T09:31:09.874Z</time>
      </trkpt>
      <trkpt lat="41.6" lon="44.00118">
        <ele>1540.664151</ele>
        <time>2021-08-17T09:31:26.090Z</time>
      </trkpt>
      <trkpt lat="41.59996" lon="44.00388">
        <ele>1540.705102</ele>
        <time>2021-08-17T09:32:12.217Z</time>
      </trkpt>
      <trkpt lat="41.59995" lon="44.00393">
        <ele>1540.671195</ele>
        <time>2021-08-17T09:32:12.830Z</time>
      </trkpt>
      <trkpt lat="41.59989" lon="44.00461">
        <ele>1540.20707</ele>
        <time>2021-08-17T09:32:22.977Z</time>
      </trkpt>
      <trkpt lat="41.59973" lon="44.00616">
        <ele>1538.935684</ele>
        <time>2021-08-17T09:32:45.392Z</time>
      </trkpt>
      <trkpt lat="41.59955" lon="44.00833">
        <ele>1536.666018</ele>
        <time>2021-08-17T09:33:16.917Z</time>
      </trkpt>
      <trkpt lat="41.59942" lon="44.00978">
        <ele>1535.146257</ele>
        <time>2021-08-17T09:33:37.700Z</time>
      </trkpt>
      <trkpt lat="41.59928" lon="44.01092">
        <ele>1534.242588</ele>
        <time>2021-08-17T09:33:54.780Z</time>
      </trkpt>
      <trkpt lat="41.59923" lon="44.01127">
        <ele>1534.053275</ele>
        <time>2021-08-17T09:34:00.048Z</time>
      </trkpt>
      <trkpt lat="41.59913" lon="44.01193">
        <ele>1533.685024</ele>
        <time>2021-08-17T09:34:10.495Z</time>
      </trkpt>
      <trkpt lat="41.59892" lon="44.01456">
        <ele>1533.274666</ele>
        <time>2021-08-17T09:34:53.056Z</time>
      </trkpt>
      <trkpt lat="41.59886" lon="44.01505">
        <ele>1533.275569</ele>
        <time>2021-08-17T09:35:02.477Z</time>
      </trkpt>
      <trkpt lat="41.5988" lon="44.01586">
        <ele>1533.984666</ele>
        <time>2021-08-17T09:35:18.797Z</time>
      </trkpt>
      <trkpt lat="41.59879" lon="44.016">
        <ele>1534.11676</ele>
        <time>2021-08-17T09:35:21.893Z</time>
      </trkpt>
      <trkpt lat="41.59875" lon="44.01634">
        <ele>1534.420918</ele>
        <time>2021-08-17T09:35:29.087Z</time>
      </trkpt>
      <trkpt lat="41.59869" lon="44.017">
        <ele>1535.024337</ele>
        <time>2021-08-17T09:35:44.133Z</time>
      </trkpt>
      <trkpt lat="41.59839" lon="44.01995">
        <ele>1537.883219</ele>
        <time>2021-08-17T09:36:51.063Z</time>
      </trkpt>
      <trkpt lat="41.59781" lon="44.02381">
        <ele>1536.963656</ele>
        <time>2021-08-17T09:37:53.001Z</time>
      </trkpt>
      <trkpt lat="41.5978" lon="44.024">
        <ele>1536.88815</ele>
        <time>2021-08-17T09:37:55.886Z</time>
      </trkpt>
      <trkpt lat="41.59782" lon="44.02455">
        <ele>1536.679616</ele>
        <time>2021-08-17T09:38:04.544Z</time>
      </trkpt>
      <trkpt lat="41.59799" lon="44.02543">
        <ele>1536.708362</ele>
        <time>2021-08-17T09:38:18.943Z</time>
      </trkpt>
      <trkpt lat="41.59832" lon="44.02636">
        <ele>1536.75495</ele>
        <time>2021-08-17T09:38:36.913Z</time>
      </trkpt>
      <trkpt lat="41.60138" lon="44.03317">
        <ele>1540.364309</ele>
        <time>2021-08-17T09:41:07.828Z</time>
      </trkpt>
      <trkpt lat="41.60243" lon="44.03524">
        <ele>1541.971423</ele>
        <time>2021-08-17T09:41:57.834Z</time>
      </trkpt>
      <trkpt lat="41.60381" lon="44.03755">
        <ele>1543.994962</ele>
        <time>2021-08-17T09:42:59.029Z</time>
      </trkpt>
      <trkpt lat="41.60455" lon="44.03869">
        <ele>1544.712655</ele>
        <time>2021-08-17T09:43:27.281Z</time>
      </trkpt>
      <trkpt lat="41.60485" lon="44.03917">
        <ele>1544.16929</ele>
        <time>2021-08-17T09:43:37.837Z</time>
      </trkpt>
      <trkpt lat="41.60541" lon="44.04003">
        <ele>1543.143182</ele>
        <time>2021-08-17T09:43:54.478Z</time>
      </trkpt>
      <trkpt lat="41.60593" lon="44.04075">
        <ele>1541.882249</ele>
        <time>2021-08-17T09:44:07.683Z</time>
      </trkpt>
      <trkpt lat="41.606" lon="44.04087">
        <ele>1541.582601</ele>
        <time>2021-08-17T09:44:09.722Z</time>
      </trkpt>
      <trkpt lat="41.60601" lon="44.04091">
        <ele>1541.487571</ele>
        <time>2021-08-17T09:44:10.361Z</time>
      </trkpt>
      <trkpt lat="41.60602" lon="44.04099">
        <ele>1541.347428</ele>
        <time>2021-08-17T09:44:11.187Z</time>
      </trkpt>
      <trkpt lat="41.606" lon="44.04113">
        <ele>1541.062449</ele>
        <time>2021-08-17T09:44:13.153Z</time>
      </trkpt>
      <trkpt lat="41.60577" lon="44.04181">
        <ele>1539.583238</ele>
        <time>2021-08-17T09:44:23.007Z</time>
      </trkpt>
      <trkpt lat="41.60533" lon="44.04312">
        <ele>1537.351637</ele>
        <time>2021-08-17T09:44:41.838Z</time>
      </trkpt>
      <trkpt lat="41.60468" lon="44.04509">
        <ele>1535.779971</ele>
        <time>2021-08-17T09:45:14.599Z</time>
      </trkpt>
      <trkpt lat="41.60446" lon="44.04578">
        <ele>1535.981863</ele>
        <time>2021-08-17T09:45:28.356Z</time>
      </trkpt>
      <trkpt lat="41.60405" lon="44.04702">
        <ele>1536.345743</ele>
        <time>2021-08-17T09:45:54.498Z</time>
      </trkpt>
      <trkpt lat="41.60391" lon="44.04742">
        <ele>1536.578608</ele>
        <time>2021-08-17T09:46:03.297Z</time>
      </trkpt>
      <trkpt lat="41.60347" lon="44.04874">
        <ele>1537.348786</ele>
        <time>2021-08-17T09:46:31.748Z</time>
      </trkpt>
      <trkpt lat="41.60297" lon="44.05024">
        <ele>1537.482888</ele>
        <time>2021-08-17T09:47:01.643Z</time>
      </trkpt>
      <trkpt lat="41.60276" lon="44.05085">
        <ele>1537.39433</ele>
        <time>2021-08-17T09:47:12.888Z</time>
      </trkpt>
      <trkpt lat="41.60185" lon="44.05363">
        <ele>1534.697517</ele>
        <time>2021-08-17T09:47:56.867Z</time>
      </trkpt>
      <trkpt lat="41.60182" lon="44.05371">
        <ele>1534.540329</ele>
        <time>2021-08-17T09:47:58.062Z</time>
      </trkpt>
      <trkpt lat="41.60182" lon="44.05385">
        <ele>1534.31567</ele>
        <time>2021-08-17T09:47:59.791Z</time>
      </trkpt>
      <trkpt lat="41.60186" lon="44.05391">
        <ele>1534.182738</ele>
        <time>2021-08-17T09:48:00.863Z</time>
      </trkpt>
      <trkpt lat="41.60209" lon="44.05408">
        <ele>1533.583853</ele>
        <time>2021-08-17T09:48:05.613Z</time>
      </trkpt>
      <trkpt lat="41.60252" lon="44.05433">
        <ele>1532.541161</ele>
        <time>2021-08-17T09:48:13.744Z</time>
      </trkpt>
      <trkpt lat="41.603" lon="44.05454">
        <ele>1531.409376</ele>
        <time>2021-08-17T09:48:22.744Z</time>
      </trkpt>
      <trkpt lat="41.60329" lon="44.05484">
        <ele>1530.647302</ele>
        <time>2021-08-17T09:48:29.306Z</time>
      </trkpt>
      <trkpt lat="41.60332" lon="44.055">
        <ele>1530.574155</ele>
        <time>2021-08-17T09:48:31.623Z</time>
      </trkpt>
      <trkpt lat="41.60331" lon="44.05531">
        <ele>1530.432156</ele>
        <time>2021-08-17T09:48:36.238Z</time>
      </trkpt>
      <trkpt lat="41.60277" lon="44.06124">
        <ele>1528.05834</ele>
        <time>2021-08-17T09:50:10.709Z</time>
      </trkpt>
      <trkpt lat="41.60272" lon="44.06179">
        <ele>1527.910463</ele>
        <time>2021-08-17T09:50:19.525Z</time>
      </trkpt>
      <trkpt lat="41.60271" lon="44.06194">
        <ele>1527.870195</ele>
        <time>2021-08-17T09:50:21.959Z</time>
      </trkpt>
      <trkpt lat="41.60269" lon="44.06218">
        <ele>1527.977769</ele>
        <time>2021-08-17T09:50:25.695Z</time>
      </trkpt>
      <trkpt lat="41.60263" lon="44.06288">
        <ele>1528.320932</ele>
        <time>2021-08-17T09:50:38.068Z</time>
      </trkpt>
      <trkpt lat="41.6026" lon="44.06343">
        <ele>1528.588042</ele>
        <time>2021-08-17T09:50:48.704Z</time>
      </trkpt>
      <trkpt lat="41.60259" lon="44.06382">
        <ele>1528.779014</ele>
        <time>2021-08-17T09:50:56.755Z</time>
      </trkpt>
      <trkpt lat="41.6026" lon="44.06411">
        <ele>1528.92041</ele>
        <time>2021-08-17T09:51:02.487Z</time>
      </trkpt>
      <trkpt lat="41.60263" lon="44.06562">
        <ele>1531.046324</ele>
        <time>2021-08-17T09:51:38.025Z</time>
      </trkpt>
      <trkpt lat="41.60251" lon="44.06804">
        <ele>1535.136909</ele>
        <time>2021-08-17T09:52:42.290Z</time>
      </trkpt>
      <trkpt lat="41.60243" lon="44.06869">
        <ele>1536.298958</ele>
        <time>2021-08-17T09:52:58.755Z</time>
      </trkpt>
      <trkpt lat="41.60235" lon="44.06922">
        <ele>1537.205917</ele>
        <time>2021-08-17T09:53:12.044Z</time>
      </trkpt>
      <trkpt lat="41.60222" lon="44.07003">
        <ele>1538.125409</ele>
        <time>2021-08-17T09:53:30.801Z</time>
      </trkpt>
      <trkpt lat="41.60203" lon="44.0711">
        <ele>1539.365049</ele>
        <time>2021-08-17T09:53:54.727Z</time>
      </trkpt>
      <trkpt lat="41.60177" lon="44.07229">
        <ele>1540.828764</ele>
        <time>2021-08-17T09:54:20.606Z</time>
      </trkpt>
      <trkpt lat="41.6017" lon="44.07254">
        <ele>1541.141506</ele>
        <time>2021-08-17T09:54:26.904Z</time>
      </trkpt>
      <trkpt lat="41.60162" lon="44.07273">
        <ele>1541.407603</ele>
        <time>2021-08-17T09:54:31.512Z</time>
      </trkpt>
      <trkpt lat="41.60156" lon="44.07282">
        <ele>1541.551217</ele>
        <time>2021-08-17T09:54:35.086Z</time>
      </trkpt>
      <trkpt lat="41.60138" lon="44.07303">
        <ele>1541.923674</ele>
        <time>2021-08-17T09:54:42.012Z</time>
      </trkpt>
      <trkpt lat="41.60058" lon="44.0736">
        <ele>1542.606004</ele>
        <time>2021-08-17T09:55:12.219Z</time>
      </trkpt>
      <trkpt lat="41.59982" lon="44.07408">
        <ele>1542.44368</ele>
        <time>2021-08-17T09:55:33.987Z</time>
      </trkpt>
      <trkpt lat="41.59953" lon="44.07427">
        <ele>1542.381852</ele>
        <time>2021-08-17T09:55:39.870Z</time>
      </trkpt>
      <trkpt lat="41.59885" lon="44.07466">
        <ele>1538.456779</ele>
        <time>2021-08-17T09:55:52.137Z</time>
      </trkpt>
      <trkpt lat="41.59813" lon="44.07505">
        <ele>1532.93162</ele>
        <time>2021-08-17T09:56:03.396Z</time>
      </trkpt>
      <trkpt lat="41.59759" lon="44.07535">
        <ele>1528.693752</ele>
        <time>2021-08-17T09:56:11.684Z</time>
      </trkpt>
      <trkpt lat="41.59745" lon="44.07545">
        <ele>1527.506549</ele>
        <time>2021-08-17T09:56:14.070Z</time>
      </trkpt>
      <trkpt lat="41.59736" lon="44.07567">
        <ele>1526.181239</ele>
        <time>2021-08-17T09:56:16.607Z</time>
      </trkpt>
      <trkpt lat="41.59733" lon="44.07581">
        <ele>1525.354726</ele>
        <time>2021-08-17T09:56:18.274Z</time>
      </trkpt>
      <trkpt lat="41.59734" lon="44.076">
        <ele>1524.337156</ele>
        <time>2021-08-17T09:56:20.303Z</time>
      </trkpt>
      <trkpt lat="41.59744" lon="44.07662">
        <ele>1520.8885</ele>
        <time>2021-08-17T09:56:27.189Z</time>
      </trkpt>
      <trkpt lat="41.59827" lon="44.08139">
        <ele>1505.419987</ele>
        <time>2021-08-17T09:57:29.073Z</time>
      </trkpt>
      <trkpt lat="41.59867" lon="44.08381">
        <ele>1496.432098</ele>
        <time>2021-08-17T09:57:59.555Z</time>
      </trkpt>
      <trkpt lat="41.59917" lon="44.08663">
        <ele>1481.270621</ele>
        <time>2021-08-17T09:58:31.430Z</time>
      </trkpt>
      <trkpt lat="41.59956" lon="44.08883">
        <ele>1473.170205</ele>
        <time>2021-08-17T09:58:58.451Z</time>
      </trkpt>
      <trkpt lat="41.59958" lon="44.08893">
        <ele>1472.843218</ele>
        <time>2021-08-17T09:58:59.770Z</time>
      </trkpt>
      <trkpt lat="41.59973" lon="44.08987">
        <ele>1471.279583</ele>
        <time>2021-08-17T09:59:13.307Z</time>
      </trkpt>
      <trkpt lat="41.59982" lon="44.09033">
        <ele>1470.7758</ele>
        <time>2021-08-17T09:59:20.200Z</time>
      </trkpt>
      <trkpt lat="41.59989" lon="44.09071">
        <ele>1470.365036</ele>
        <time>2021-08-17T09:59:25.955Z</time>
      </trkpt>
      <trkpt lat="41.60025" lon="44.09245">
        <ele>1468.972826</ele>
        <time>2021-08-17T09:59:53.769Z</time>
      </trkpt>
      <trkpt lat="41.60037" lon="44.09315">
        <ele>1468.589842</ele>
        <time>2021-08-17T10:00:04.672Z</time>
      </trkpt>
      <trkpt lat="41.60052" lon="44.09403">
        <ele>1468.121816</ele>
        <time>2021-08-17T10:00:18.424Z</time>
      </trkpt>
      <trkpt lat="41.60056" lon="44.09421">
        <ele>1468.031863</ele>
        <time>2021-08-17T10:00:21.266Z</time>
      </trkpt>
      <trkpt lat="41.60074" lon="44.09532">
        <ele>1467.483442</ele>
        <time>2021-08-17T10:00:38.748Z</time>
      </trkpt>
      <trkpt lat="41.60092" lon="44.09629">
        <ele>1466.984413</ele>
        <time>2021-08-17T10:00:54.624Z</time>
      </trkpt>
      <trkpt lat="41.60101" lon="44.09684">
        <ele>1466.635607</ele>
        <time>2021-08-17T10:01:03.246Z</time>
      </trkpt>
      <trkpt lat="41.60104" lon="44.09701">
        <ele>1466.525411</ele>
        <time>2021-08-17T10:01:05.896Z</time>
      </trkpt>
      <trkpt lat="41.60116" lon="44.09765">
        <ele>1466.118343</ele>
        <time>2021-08-17T10:01:15.707Z</time>
      </trkpt>
      <trkpt lat="41.60153" lon="44.09993">
        <ele>1464.780409</ele>
        <time>2021-08-17T10:01:51.007Z</time>
      </trkpt>
      <trkpt lat="41.6016" lon="44.10027">
        <ele>1464.586886</ele>
        <time>2021-08-17T10:01:56.235Z</time>
      </trkpt>
      <trkpt lat="41.60169" lon="44.10071">
        <ele>1464.335725</ele>
        <time>2021-08-17T10:02:03.207Z</time>
      </trkpt>
      <trkpt lat="41.60186" lon="44.10163">
        <ele>1464.417878</ele>
        <time>2021-08-17T10:02:18.482Z</time>
      </trkpt>
      <trkpt lat="41.6019" lon="44.10187">
        <ele>1464.464995</ele>
        <time>2021-08-17T10:02:22.829Z</time>
      </trkpt>
      <trkpt lat="41.6019" lon="44.10213">
        <ele>1464.513878</ele>
        <time>2021-08-17T10:02:27.385Z</time>
      </trkpt>
      <trkpt lat="41.60176" lon="44.1037">
        <ele>1465.03927</ele>
        <time>2021-08-17T10:02:58.246Z</time>
      </trkpt>
      <trkpt lat="41.60171" lon="44.10418">
        <ele>1465.354198</ele>
        <time>2021-08-17T10:03:07.941Z</time>
      </trkpt>
      <trkpt lat="41.60171" lon="44.1046">
        <ele>1465.628159</ele>
        <time>2021-08-17T10:03:15.627Z</time>
      </trkpt>
      <trkpt lat="41.60174" lon="44.10481">
        <ele>1465.768868</ele>
        <time>2021-08-17T10:03:20.277Z</time>
      </trkpt>
      <trkpt lat="41.60183" lon="44.10497">
        <ele>1465.896983</ele>
        <time>2021-08-17T10:03:23.538Z</time>
      </trkpt>
      <trkpt lat="41.6019" lon="44.10509">
        <ele>1465.997675</ele>
        <time>2021-08-17T10:03:26.659Z</time>
      </trkpt>
      <trkpt lat="41.60208" lon="44.10529">
        <ele>1466.194807</ele>
        <time>2021-08-17T10:03:32.539Z</time>
      </trkpt>
      <trkpt lat="41.6022" lon="44.10534">
        <ele>1466.39022</ele>
        <time>2021-08-17T10:03:36.396Z</time>
      </trkpt>
      <trkpt lat="41.60232" lon="44.10539">
        <ele>1466.762579</ele>
        <time>2021-08-17T10:03:40.232Z</time>
      </trkpt>
      <trkpt lat="41.60261" lon="44.10539">
        <ele>1467.660582</ele>
        <time>2021-08-17T10:03:49.120Z</time>
      </trkpt>
      <trkpt lat="41.60286" lon="44.10535">
        <ele>1468.435864</ele>
        <time>2021-08-17T10:03:57.693Z</time>
      </trkpt>
      <trkpt lat="41.60331" lon="44.10534">
        <ele>1469.835768</ele>
        <time>2021-08-17T10:04:16.088Z</time>
      </trkpt>
      <trkpt lat="41.60351" lon="44.10538">
        <ele>1470.468085</ele>
        <time>2021-08-17T10:04:24.175Z</time>
      </trkpt>
      <trkpt lat="41.60378" lon="44.10552">
        <ele>1471.368514</ele>
        <time>2021-08-17T10:04:36.163Z</time>
      </trkpt>
      <trkpt lat="41.60393" lon="44.10563">
        <ele>1471.932589</ele>
        <time>2021-08-17T10:04:42.637Z</time>
      </trkpt>
      <trkpt lat="41.60402" lon="44.10575">
        <ele>1472.66616</ele>
        <time>2021-08-17T10:04:49.248Z</time>
      </trkpt>
      <trkpt lat="41.60422" lon="44.10618">
        <ele>1474.828188</ele>
        <time>2021-08-17T10:05:07.727Z</time>
      </trkpt>
      <trkpt lat="41.60447" lon="44.10697">
        <ele>1478.516096</ele>
        <time>2021-08-17T10:05:42.308Z</time>
      </trkpt>
      <trkpt lat="41.60482" lon="44.10791">
        <ele>1483.060976</ele>
        <time>2021-08-17T10:06:25.050Z</time>
      </trkpt>
      <trkpt lat="41.60486" lon="44.10801">
        <ele>1483.585172</ele>
        <time>2021-08-17T10:06:29.330Z</time>
      </trkpt>
      <trkpt lat="41.60501" lon="44.10844">
        <ele>1485.759977</ele>
        <time>2021-08-17T10:06:46.692Z</time>
      </trkpt>
      <trkpt lat="41.60507" lon="44.10862">
        <ele>1486.67365</ele>
        <time>2021-08-17T10:06:53.956Z</time>
      </trkpt>
      <trkpt lat="41.6051" lon="44.10871">
        <ele>1487.123909</ele>
        <time>2021-08-17T10:06:58.034Z</time>
      </trkpt>
      <trkpt lat="41.60518" lon="44.10963">
        <ele>1491.345132</ele>
        <time>2021-08-17T10:07:34.214Z</time>
      </trkpt>
      <trkpt lat="41.60527" lon="44.10999">
        <ele>1493.099909</ele>
        <time>2021-08-17T10:07:49.480Z</time>
      </trkpt>
      <trkpt lat="41.60609" lon="44.11273">
        <ele>1509.448371</ele>
        <time>2021-08-17T10:09:59.100Z</time>
      </trkpt>
      <trkpt lat="41.60641" lon="44.11328">
        <ele>1513.845647</ele>
        <time>2021-08-17T10:10:32.936Z</time>
      </trkpt>
      <trkpt lat="41.6077" lon="44.1152">
        <ele>1530.440476</ele>
        <time>2021-08-17T10:12:42.618Z</time>
      </trkpt>
      <trkpt lat="41.6078" lon="44.11574">
        <ele>1534.079061</ele>
        <time>2021-08-17T10:13:09.558Z</time>
      </trkpt>
      <trkpt lat="41.60782" lon="44.11663">
        <ele>1539.490388</ele>
        <time>2021-08-17T10:13:52.679Z</time>
      </trkpt>
      <trkpt lat="41.60789" lon="44.11712">
        <ele>1542.292214</ele>
        <time>2021-08-17T10:14:16.221Z</time>
      </trkpt>
      <trkpt lat="41.60811" lon="44.11767">
        <ele>1545.769229</ele>
        <time>2021-08-17T10:14:44.088Z</time>
      </trkpt>
      <trkpt lat="41.60857" lon="44.1184">
        <ele>1551.015337</ele>
        <time>2021-08-17T10:15:25.143Z</time>
      </trkpt>
      <trkpt lat="41.61034" lon="44.12136">
        <ele>1566.659019</ele>
        <time>2021-08-17T10:17:46.056Z</time>
      </trkpt>
      <trkpt lat="41.61098" lon="44.12239">
        <ele>1571.67933</ele>
        <time>2021-08-17T10:18:32.805Z</time>
      </trkpt>
      <trkpt lat="41.61342" lon="44.12558">
        <ele>1586.603003</ele>
        <time>2021-08-17T10:21:04.212Z</time>
      </trkpt>
      <trkpt lat="41.61444" lon="44.12713">
        <ele>1592.034561</ele>
        <time>2021-08-17T10:22:04.672Z</time>
      </trkpt>
      <trkpt lat="41.61484" lon="44.12793">
        <ele>1594.292994</ele>
        <time>2021-08-17T10:22:31.887Z</time>
      </trkpt>
      <trkpt lat="41.61498" lon="44.12825">
        <ele>1595.146558</ele>
        <time>2021-08-17T10:22:42.514Z</time>
      </trkpt>
      <trkpt lat="41.61554" lon="44.12959">
        <ele>1598.566143</ele>
        <time>2021-08-17T10:23:25.184Z</time>
      </trkpt>
      <trkpt lat="41.61648" lon="44.1319">
        <ele>1603.191844</ele>
        <time>2021-08-17T10:24:34.003Z</time>
      </trkpt>
      <trkpt lat="41.61687" lon="44.1329">
        <ele>1604.390509</ele>
        <time>2021-08-17T10:24:59.928Z</time>
      </trkpt>
      <trkpt lat="41.61728" lon="44.13387">
        <ele>1604.899183</ele>
        <time>2021-08-17T10:25:20.353Z</time>
      </trkpt>
      <trkpt lat="41.61769" lon="44.13482">
        <ele>1604.034766</ele>
        <time>2021-08-17T10:25:36.883Z</time>
      </trkpt>
      <trkpt lat="41.6182" lon="44.13606">
        <ele>1602.475084</ele>
        <time>2021-08-17T10:25:56.236Z</time>
      </trkpt>
      <trkpt lat="41.61909" lon="44.13899">
        <ele>1597.202257</ele>
        <time>2021-08-17T10:26:38.656Z</time>
      </trkpt>
      <trkpt lat="41.61935" lon="44.13973">
        <ele>1595.935536</ele>
        <time>2021-08-17T10:26:49.869Z</time>
      </trkpt>
      <trkpt lat="41.61937" lon="44.13979">
        <ele>1595.833954</ele>
        <time>2021-08-17T10:26:50.698Z</time>
      </trkpt>
      <trkpt lat="41.61989" lon="44.14107">
        <ele>1595.013175</ele>
        <time>2021-08-17T10:27:11.812Z</time>
      </trkpt>
      <trkpt lat="41.62001" lon="44.14129">
        <ele>1594.929454</ele>
        <time>2021-08-17T10:27:16.150Z</time>
      </trkpt>
      <trkpt lat="41.62023" lon="44.14155">
        <ele>1594.80922</ele>
        <time>2021-08-17T10:27:22.557Z</time>
      </trkpt>
      <trkpt lat="41.62038" lon="44.14173">
        <ele>1594.725031</ele>
        <time>2021-08-17T10:27:27.779Z</time>
      </trkpt>
      <trkpt lat="41.62079" lon="44.14201">
        <ele>1595.071218</ele>
        <time>2021-08-17T10:27:40.239Z</time>
      </trkpt>
      <trkpt lat="41.62286" lon="44.14291">
        <ele>1599.365158</ele>
        <time>2021-08-17T10:28:52.682Z</time>
      </trkpt>
      <trkpt lat="41.6259" lon="44.14476">
        <ele>1605.789954</ele>
        <time>2021-08-17T10:30:42.354Z</time>
      </trkpt>
      <trkpt lat="41.62627" lon="44.14499">
        <ele>1605.966885</ele>
        <time>2021-08-17T10:30:53.082Z</time>
      </trkpt>
      <trkpt lat="41.62696" lon="44.14575">
        <ele>1606.349978</ele>
        <time>2021-08-17T10:31:12.690Z</time>
      </trkpt>
      <trkpt lat="41.62765" lon="44.14613">
        <ele>1605.281552</ele>
        <time>2021-08-17T10:31:27.229Z</time>
      </trkpt>
      <trkpt lat="41.62825" lon="44.14676">
        <ele>1603.814373</ele>
        <time>2021-08-17T10:31:41.564Z</time>
      </trkpt>
      <trkpt lat="41.62905" lon="44.14709">
        <ele>1600.586435</ele>
        <time>2021-08-17T10:31:55.876Z</time>
      </trkpt>
      <trkpt lat="41.62944" lon="44.14736">
        <ele>1597.958964</ele>
        <time>2021-08-17T10:32:03.084Z</time>
      </trkpt>
      <trkpt lat="41.63353" lon="44.15231">
        <ele>1565.494736</ele>
        <time>2021-08-17T10:33:26.988Z</time>
      </trkpt>
      <trkpt lat="41.63456" lon="44.15373">
        <ele>1558.906666</ele>
        <time>2021-08-17T10:33:50.928Z</time>
      </trkpt>
      <trkpt lat="41.6353" lon="44.15502">
        <ele>1555.192772</ele>
        <time>2021-08-17T10:34:12.615Z</time>
      </trkpt>
      <trkpt lat="41.63597" lon="44.15635">
        <ele>1553.017109</ele>
        <time>2021-08-17T10:34:35.155Z</time>
      </trkpt>
      <trkpt lat="41.63727" lon="44.15951">
        <ele>1548.074989</ele>
        <time>2021-08-17T10:35:25.508Z</time>
      </trkpt>
      <trkpt lat="41.63775" lon="44.16033">
        <ele>1546.509147</ele>
        <time>2021-08-17T10:35:39.565Z</time>
      </trkpt>
      <trkpt lat="41.63827" lon="44.16097">
        <ele>1545.176698</ele>
        <time>2021-08-17T10:35:52.413Z</time>
      </trkpt>
      <trkpt lat="41.63853" lon="44.16122">
        <ele>1545.24014</ele>
        <time>2021-08-17T10:35:58.468Z</time>
      </trkpt>
      <trkpt lat="41.63882" lon="44.1615">
        <ele>1545.310344</ele>
        <time>2021-08-17T10:36:05.620Z</time>
      </trkpt>
      <trkpt lat="41.63908" lon="44.16179">
        <ele>1545.377765</ele>
        <time>2021-08-17T10:36:13.076Z</time>
      </trkpt>
      <trkpt lat="41.63921" lon="44.162">
        <ele>1545.418028</ele>
        <time>2021-08-17T10:36:18.148Z</time>
      </trkpt>
      <trkpt lat="41.63945" lon="44.16264">
        <ele>1545.52401</ele>
        <time>2021-08-17T10:36:33.319Z</time>
      </trkpt>
      <trkpt lat="41.63983" lon="44.1641">
        <ele>1550.646452</ele>
        <time>2021-08-17T10:37:22.884Z</time>
      </trkpt>
      <trkpt lat="41.63991" lon="44.16523">
        <ele>1554.644412</ele>
        <time>2021-08-17T10:38:07.390Z</time>
      </trkpt>
      <trkpt lat="41.64002" lon="44.16599">
        <ele>1557.814847</ele>
        <time>2021-08-17T10:38:37.616Z</time>
      </trkpt>
      <trkpt lat="41.64002" lon="44.16644">
        <ele>1559.653097</ele>
        <time>2021-08-17T10:38:54.926Z</time>
      </trkpt>
      <trkpt lat="41.63997" lon="44.16704">
        <ele>1562.16979</ele>
        <time>2021-08-17T10:39:17.799Z</time>
      </trkpt>
      <trkpt lat="41.64023" lon="44.1703">
        <ele>1572.403958</ele>
        <time>2021-08-17T10:41:02.704Z</time>
      </trkpt>
      <trkpt lat="41.64056" lon="44.17259">
        <ele>1578.182759</ele>
        <time>2021-08-17T10:42:10.200Z</time>
      </trkpt>
      <trkpt lat="41.64057" lon="44.17403">
        <ele>1580.995767</ele>
        <time>2021-08-17T10:42:48.305Z</time>
      </trkpt>
      <trkpt lat="41.64064" lon="44.1749">
        <ele>1582.429099</ele>
        <time>2021-08-17T10:43:09.646Z</time>
      </trkpt>
      <trkpt lat="41.64062" lon="44.17554">
        <ele>1583.235763</ele>
        <time>2021-08-17T10:43:24.395Z</time>
      </trkpt>
      <trkpt lat="41.64044" lon="44.177">
        <ele>1585.135252</ele>
        <time>2021-08-17T10:43:56.846Z</time>
      </trkpt>
      <trkpt lat="41.64042" lon="44.17822">
        <ele>1587.177006</ele>
        <time>2021-08-17T10:44:25.595Z</time>
      </trkpt>
      <trkpt lat="41.64051" lon="44.17911">
        <ele>1588.672934</ele>
        <time>2021-08-17T10:44:48.642Z</time>
      </trkpt>
      <trkpt lat="41.64066" lon="44.17998">
        <ele>1591.086419</ele>
        <time>2021-08-17T10:45:15.172Z</time>
      </trkpt>
      <trkpt lat="41.6409" lon="44.18082">
        <ele>1593.707845</ele>
        <time>2021-08-17T10:45:44.726Z</time>
      </trkpt>
      <trkpt lat="41.6411" lon="44.18133">
        <ele>1595.431296</ele>
        <time>2021-08-17T10:46:04.085Z</time>
      </trkpt>
      <trkpt lat="41.64128" lon="44.18174">
        <ele>1596.612961</ele>
        <time>2021-08-17T10:46:19.124Z</time>
      </trkpt>
      <trkpt lat="41.64136" lon="44.18192">
        <ele>1597.076253</ele>
        <time>2021-08-17T10:46:26.235Z</time>
      </trkpt>
      <trkpt lat="41.64131" lon="44.18267">
        <ele>1598.668792</ele>
        <time>2021-08-17T10:46:49.023Z</time>
      </trkpt>
      <trkpt lat="41.6412" lon="44.18436">
        <ele>1601.755394</ele>
        <time>2021-08-17T10:47:30.549Z</time>
      </trkpt>
      <trkpt lat="41.64118" lon="44.18482">
        <ele>1602.254692</ele>
        <time>2021-08-17T10:47:40.267Z</time>
      </trkpt>
      <trkpt lat="41.64117" lon="44.18512">
        <ele>1602.574161</ele>
        <time>2021-08-17T10:47:46.333Z</time>
      </trkpt>
      <trkpt lat="41.64116" lon="44.18574">
        <ele>1603.252338</ele>
        <time>2021-08-17T10:47:59.677Z</time>
      </trkpt>
      <trkpt lat="41.64151" lon="44.1857">
        <ele>1603.756413</ele>
        <time>2021-08-17T10:48:10.883Z</time>
      </trkpt>
      <trkpt lat="41.64165" lon="44.18569">
        <ele>1604.052092</ele>
        <time>2021-08-17T10:48:15.461Z</time>
      </trkpt>
      <trkpt lat="41.64168" lon="44.18577">
        <ele>1604.20252</ele>
        <time>2021-08-17T10:48:17.638Z</time>
      </trkpt>
      <trkpt lat="41.64184" lon="44.1864">
        <ele>1605.351645</ele>
        <time>2021-08-17T10:48:34.673Z</time>
      </trkpt>
      <trkpt lat="41.64193" lon="44.18709">
        <ele>1606.556725</ele>
        <time>2021-08-17T10:48:53.888Z</time>
      </trkpt>
      <trkpt lat="41.64199" lon="44.18723">
        <ele>1606.834898</ele>
        <time>2021-08-17T10:48:58.655Z</time>
      </trkpt>
      <trkpt lat="41.64205" lon="44.18745">
        <ele>1607.227486</ele>
        <time>2021-08-17T10:49:04.371Z</time>
      </trkpt>
      <trkpt lat="41.64221" lon="44.1882">
        <ele>1608.514837</ele>
        <time>2021-08-17T10:49:24.837Z</time>
      </trkpt>
      <trkpt lat="41.64225" lon="44.18887">
        <ele>1609.564884</ele>
        <time>2021-08-17T10:49:41.721Z</time>
      </trkpt>
      <trkpt lat="41.64226" lon="44.18906">
        <ele>1609.850366</ele>
        <time>2021-08-17T10:49:46.780Z</time>
      </trkpt>
      <trkpt lat="41.64229" lon="44.18937">
        <ele>1610.339333</ele>
        <time>2021-08-17T10:49:54.329Z</time>
      </trkpt>
      <trkpt lat="41.64233" lon="44.18969">
        <ele>1610.8512</ele>
        <time>2021-08-17T10:50:02.396Z</time>
      </trkpt>
      <trkpt lat="41.64242" lon="44.19122">
        <ele>1613.130909</ele>
        <time>2021-08-17T10:50:39.974Z</time>
      </trkpt>
      <trkpt lat="41.64246" lon="44.19175">
        <ele>1613.901286</ele>
        <time>2021-08-17T10:50:53.643Z</time>
      </trkpt>
      <trkpt lat="41.64247" lon="44.19182">
        <ele>1614.012342</ele>
        <time>2021-08-17T10:50:55.548Z</time>
      </trkpt>
      <trkpt lat="41.64248" lon="44.19189">
        <ele>1614.114127</ele>
        <time>2021-08-17T10:50:57.289Z</time>
      </trkpt>
      <trkpt lat="41.64287" lon="44.19182">
        <ele>1614.886815</ele>
        <time>2021-08-17T10:51:10.342Z</time>
      </trkpt>
      <trkpt lat="41.64351" lon="44.19176">
        <ele>1615.709397</ele>
        <time>2021-08-17T10:51:30.449Z</time>
      </trkpt>
      <trkpt lat="41.64451" lon="44.19155">
        <ele>1616.821579</ele>
        <time>2021-08-17T10:51:59.315Z</time>
      </trkpt>
      <trkpt lat="41.64484" lon="44.19145">
        <ele>1617.135543</ele>
        <time>2021-08-17T10:52:07.936Z</time>
      </trkpt>
      <trkpt lat="41.64502" lon="44.19212">
        <ele>1617.07657</ele>
        <time>2021-08-17T10:52:20.266Z</time>
      </trkpt>
      <trkpt lat="41.64519" lon="44.19293">
        <ele>1617.005904</ele>
        <time>2021-08-17T10:52:34.229Z</time>
      </trkpt>
      <trkpt lat="41.64553" lon="44.1945">
        <ele>1616.230231</ele>
        <time>2021-08-17T10:52:59.673Z</time>
      </trkpt>
      <trkpt lat="41.64696" lon="44.20349">
        <ele>1608.72103</ele>
        <time>2021-08-17T10:55:14.060Z</time>
      </trkpt>
      <trkpt lat="41.64721" lon="44.20502">
        <ele>1608.233227</ele>
        <time>2021-08-17T10:55:39.171Z</time>
      </trkpt>
      <trkpt lat="41.64745" lon="44.20658">
        <ele>1608.397498</ele>
        <time>2021-08-17T10:56:06.365Z</time>
      </trkpt>
      <trkpt lat="41.64779" lon="44.20944">
        <ele>1609.511056</ele>
        <time>2021-08-17T10:57:00.647Z</time>
      </trkpt>
      <trkpt lat="41.6481" lon="44.21282">
        <ele>1611.278499</ele>
        <time>2021-08-17T10:58:07.905Z</time>
      </trkpt>
      <trkpt lat="41.64859" lon="44.21672">
        <ele>1611.402991</ele>
        <time>2021-08-17T10:59:14.891Z</time>
      </trkpt>
      <trkpt lat="41.6493" lon="44.22097">
        <ele>1609.328496</ele>
        <time>2021-08-17T11:00:21.570Z</time>
      </trkpt>
      <trkpt lat="41.65004" lon="44.22454">
        <ele>1607.271748</ele>
        <time>2021-08-17T11:01:17.507Z</time>
      </trkpt>
      <trkpt lat="41.65018" lon="44.22512">
        <ele>1607.270776</ele>
        <time>2021-08-17T11:01:27.564Z</time>
      </trkpt>
      <trkpt lat="41.65026" lon="44.22541">
        <ele>1607.270288</ele>
        <time>2021-08-17T11:01:33.016Z</time>
      </trkpt>
      <trkpt lat="41.6505" lon="44.22624">
        <ele>1607.268884</ele>
        <time>2021-08-17T11:01:48.524Z</time>
      </trkpt>
      <trkpt lat="41.65076" lon="44.22705">
        <ele>1607.319298</ele>
        <time>2021-08-17T11:02:04.422Z</time>
      </trkpt>
      <trkpt lat="41.65136" lon="44.22867">
        <ele>1607.503028</ele>
        <time>2021-08-17T11:02:35.148Z</time>
      </trkpt>
      <trkpt lat="41.65185" lon="44.22979">
        <ele>1607.590083</ele>
        <time>2021-08-17T11:02:57.088Z</time>
      </trkpt>
      <trkpt lat="41.65267" lon="44.23147">
        <ele>1607.862764</ele>
        <time>2021-08-17T11:03:30.875Z</time>
      </trkpt>
      <trkpt lat="41.65296" lon="44.23216">
        <ele>1608.054513</ele>
        <time>2021-08-17T11:03:45.029Z</time>
      </trkpt>
      <trkpt lat="41.65318" lon="44.2328">
        <ele>1608.226407</ele>
        <time>2021-08-17T11:03:58.074Z</time>
      </trkpt>
      <trkpt lat="41.6533" lon="44.23314">
        <ele>1608.433327</ele>
        <time>2021-08-17T11:04:05.474Z</time>
      </trkpt>
      <trkpt lat="41.65375" lon="44.235">
        <ele>1609.72866</ele>
        <time>2021-08-17T11:04:44.892Z</time>
      </trkpt>
      <trkpt lat="41.65396" lon="44.23641">
        <ele>1610.807</ele>
        <time>2021-08-17T11:05:14.240Z</time>
      </trkpt>
      <trkpt lat="41.65502" lon="44.24765">
        <ele>1619.576006</ele>
        <time>2021-08-17T11:09:06.725Z</time>
      </trkpt>
      <trkpt lat="41.65507" lon="44.24969">
        <ele>1621.351777</ele>
        <time>2021-08-17T11:09:49.740Z</time>
      </trkpt>
      <trkpt lat="41.65498" lon="44.25139">
        <ele>1622.708162</ele>
        <time>2021-08-17T11:10:25.222Z</time>
      </trkpt>
      <trkpt lat="41.65483" lon="44.2529">
        <ele>1623.723477</ele>
        <time>2021-08-17T11:10:55.637Z</time>
      </trkpt>
      <trkpt lat="41.65436" lon="44.2556">
        <ele>1625.554527</ele>
        <time>2021-08-17T11:11:49.546Z</time>
      </trkpt>
      <trkpt lat="41.65422" lon="44.25665">
        <ele>1626.3478</ele>
        <time>2021-08-17T11:12:12.016Z</time>
      </trkpt>
      <trkpt lat="41.65347" lon="44.26383">
        <ele>1633.715892</ele>
        <time>2021-08-17T11:14:51.968Z</time>
      </trkpt>
      <trkpt lat="41.6534" lon="44.26479">
        <ele>1633.349553</ele>
        <time>2021-08-17T11:15:07.972Z</time>
      </trkpt>
      <trkpt lat="41.65341" lon="44.26521">
        <ele>1633.18969</ele>
        <time>2021-08-17T11:15:14.322Z</time>
      </trkpt>
      <trkpt lat="41.65356" lon="44.26599">
        <ele>1632.886191</ele>
        <time>2021-08-17T11:15:25.976Z</time>
      </trkpt>
      <trkpt lat="41.65374" lon="44.26652">
        <ele>1632.44807</ele>
        <time>2021-08-17T11:15:34.357Z</time>
      </trkpt>
      <trkpt lat="41.6539" lon="44.26689">
        <ele>1632.070608</ele>
        <time>2021-08-17T11:15:40.352Z</time>
      </trkpt>
      <trkpt lat="41.65546" lon="44.26991">
        <ele>1629.920348</ele>
        <time>2021-08-17T11:16:35.115Z</time>
      </trkpt>
      <trkpt lat="41.65701" lon="44.27308">
        <ele>1632.842294</ele>
        <time>2021-08-17T11:17:58.435Z</time>
      </trkpt>
      <trkpt lat="41.65838" lon="44.27607">
        <ele>1634.342484</ele>
        <time>2021-08-17T11:19:04.459Z</time>
      </trkpt>
      <trkpt lat="41.65859" lon="44.27663">
        <ele>1633.978659</ele>
        <time>2021-08-17T11:19:13.891Z</time>
      </trkpt>
      <trkpt lat="41.65878" lon="44.27721">
        <ele>1633.307978</ele>
        <time>2021-08-17T11:19:23.289Z</time>
      </trkpt>
      <trkpt lat="41.65896" lon="44.27778">
        <ele>1632.664259</ele>
        <time>2021-08-17T11:19:32.010Z</time>
      </trkpt>
      <trkpt lat="41.65917" lon="44.27827">
        <ele>1632.080427</ele>
        <time>2021-08-17T11:19:39.719Z</time>
      </trkpt>
      <trkpt lat="41.66001" lon="44.27903">
        <ele>1629.336769</ele>
        <time>2021-08-17T11:19:57.897Z</time>
      </trkpt>
      <trkpt lat="41.66033" lon="44.27944">
        <ele>1628.059481</ele>
        <time>2021-08-17T11:20:05.552Z</time>
      </trkpt>
      <trkpt lat="41.66052" lon="44.27985">
        <ele>1626.998388</ele>
        <time>2021-08-17T11:20:11.734Z</time>
      </trkpt>
      <trkpt lat="41.66069" lon="44.28051">
        <ele>1624.533373</ele>
        <time>2021-08-17T11:20:20.315Z</time>
      </trkpt>
      <trkpt lat="41.66097" lon="44.28374">
        <ele>1610.543713</ele>
        <time>2021-08-17T11:20:58.074Z</time>
      </trkpt>
      <trkpt lat="41.66091" lon="44.2846">
        <ele>1606.441195</ele>
        <time>2021-08-17T11:21:07.764Z</time>
      </trkpt>
      <trkpt lat="41.66078" lon="44.28556">
        <ele>1601.169836</ele>
        <time>2021-08-17T11:21:18.713Z</time>
      </trkpt>
      <trkpt lat="41.66084" lon="44.28695">
        <ele>1593.55343</ele>
        <time>2021-08-17T11:21:34.094Z</time>
      </trkpt>
      <trkpt lat="41.66075" lon="44.2879">
        <ele>1588.89123</ele>
        <time>2021-08-17T11:21:44.799Z</time>
      </trkpt>
      <trkpt lat="41.66081" lon="44.28898">
        <ele>1583.78523</ele>
        <time>2021-08-17T11:21:57.248Z</time>
      </trkpt>
      <trkpt lat="41.66079" lon="44.28949">
        <ele>1581.39083</ele>
        <time>2021-08-17T11:22:03.264Z</time>
      </trkpt>
      <trkpt lat="41.66065" lon="44.29034">
        <ele>1579.086491</ele>
        <time>2021-08-17T11:22:13.807Z</time>
      </trkpt>
      <trkpt lat="41.66064" lon="44.29068">
        <ele>1578.227933</ele>
        <time>2021-08-17T11:22:18.124Z</time>
      </trkpt>
      <trkpt lat="41.66081" lon="44.2912">
        <ele>1576.775232</ele>
        <time>2021-08-17T11:22:25.623Z</time>
      </trkpt>
      <trkpt lat="41.66117" lon="44.29171">
        <ele>1575.01989</ele>
        <time>2021-08-17T11:22:34.903Z</time>
      </trkpt>
      <trkpt lat="41.66136" lon="44.29219">
        <ele>1573.868123</ele>
        <time>2021-08-17T11:22:42.275Z</time>
      </trkpt>
      <trkpt lat="41.66141" lon="44.29243">
        <ele>1573.338843</ele>
        <time>2021-08-17T11:22:45.687Z</time>
      </trkpt>
      <trkpt lat="41.66169" lon="44.29578">
        <ele>1565.732222</ele>
        <time>2021-08-17T11:23:29.072Z</time>
      </trkpt>
      <trkpt lat="41.66176" lon="44.29622">
        <ele>1564.663884</ele>
        <time>2021-08-17T11:23:34.710Z</time>
      </trkpt>
      <trkpt lat="41.66187" lon="44.29649">
        <ele>1564.021121</ele>
        <time>2021-08-17T11:23:38.579Z</time>
      </trkpt>
      <trkpt lat="41.66204" lon="44.29671">
        <ele>1563.487743</ele>
        <time>2021-08-17T11:23:42.672Z</time>
      </trkpt>
      <trkpt lat="41.66316" lon="44.29747">
        <ele>1560.697585</ele>
        <time>2021-08-17T11:24:05.304Z</time>
      </trkpt>
      <trkpt lat="41.66452" lon="44.29906">
        <ele>1558.561261</ele>
        <time>2021-08-17T11:24:42.149Z</time>
      </trkpt>
      <trkpt lat="41.6649" lon="44.29962">
        <ele>1557.435661</ele>
        <time>2021-08-17T11:24:52.909Z</time>
      </trkpt>
      <trkpt lat="41.66496" lon="44.29986">
        <ele>1556.953028</ele>
        <time>2021-08-17T11:24:56.411Z</time>
      </trkpt>
      <trkpt lat="41.66486" lon="44.30085">
        <ele>1555.058781</ele>
        <time>2021-08-17T11:25:09.489Z</time>
      </trkpt>
      <trkpt lat="41.66536" lon="44.3025">
        <ele>1550.946054</ele>
        <time>2021-08-17T11:25:31.884Z</time>
      </trkpt>
      <trkpt lat="41.66545" lon="44.30302">
        <ele>1549.572132</ele>
        <time>2021-08-17T11:25:38.617Z</time>
      </trkpt>
      <trkpt lat="41.66549" lon="44.30373">
        <ele>1547.741446</ele>
        <time>2021-08-17T11:25:47.651Z</time>
      </trkpt>
      <trkpt lat="41.66543" lon="44.30538">
        <ele>1543.693638</ele>
        <time>2021-08-17T11:26:08.760Z</time>
      </trkpt>
      <trkpt lat="41.6655" lon="44.306">
        <ele>1542.155495</ele>
        <time>2021-08-17T11:26:16.860Z</time>
      </trkpt>
      <trkpt lat="41.66574" lon="44.30674">
        <ele>1540.03737</ele>
        <time>2021-08-17T11:26:27.023Z</time>
      </trkpt>
      <trkpt lat="41.66633" lon="44.30797">
        <ele>1536.066104</ele>
        <time>2021-08-17T11:26:45.494Z</time>
      </trkpt>
      <trkpt lat="41.66642" lon="44.30822">
        <ele>1535.317043</ele>
        <time>2021-08-17T11:26:48.992Z</time>
      </trkpt>
      <trkpt lat="41.66653" lon="44.30858">
        <ele>1533.887748</ele>
        <time>2021-08-17T11:26:53.767Z</time>
      </trkpt>
      <trkpt lat="41.6666" lon="44.30931">
        <ele>1531.067938</ele>
        <time>2021-08-17T11:27:02.486Z</time>
      </trkpt>
      <trkpt lat="41.66654" lon="44.3101">
        <ele>1528.065292</ele>
        <time>2021-08-17T11:27:11.676Z</time>
      </trkpt>
      <trkpt lat="41.6665" lon="44.31046">
        <ele>1526.654465</ele>
        <time>2021-08-17T11:27:16.085Z</time>
      </trkpt>
      <trkpt lat="41.66647" lon="44.31061">
        <ele>1526.087947</ele>
        <time>2021-08-17T11:27:17.738Z</time>
      </trkpt>
      <trkpt lat="41.66643" lon="44.31109">
        <ele>1524.086562</ele>
        <time>2021-08-17T11:27:23.404Z</time>
      </trkpt>
      <trkpt lat="41.66646" lon="44.31136">
        <ele>1522.960678</ele>
        <time>2021-08-17T11:27:26.666Z</time>
      </trkpt>
      <trkpt lat="41.66691" lon="44.31254">
        <ele>1517.428578</ele>
        <time>2021-08-17T11:27:41.960Z</time>
      </trkpt>
      <trkpt lat="41.66701" lon="44.31337">
        <ele>1514.284507</ele>
        <time>2021-08-17T11:27:52.097Z</time>
      </trkpt>
      <trkpt lat="41.66713" lon="44.31391">
        <ele>1512.34624</ele>
        <time>2021-08-17T11:27:58.914Z</time>
      </trkpt>
      <trkpt lat="41.6673" lon="44.31421">
        <ele>1511.071541</ele>
        <time>2021-08-17T11:28:03.394Z</time>
      </trkpt>
      <trkpt lat="41.66825" lon="44.31525">
        <ele>1505.72179</ele>
        <time>2021-08-17T11:28:23.384Z</time>
      </trkpt>
      <trkpt lat="41.66843" lon="44.31557">
        <ele>1504.545477</ele>
        <time>2021-08-17T11:28:28.225Z</time>
      </trkpt>
      <trkpt lat="41.66848" lon="44.31592">
        <ele>1503.475826</ele>
        <time>2021-08-17T11:28:32.639Z</time>
      </trkpt>
      <trkpt lat="41.66842" lon="44.31649">
        <ele>1501.781495</ele>
        <time>2021-08-17T11:28:39.673Z</time>
      </trkpt>
      <trkpt lat="41.66843" lon="44.31706">
        <ele>1500.26408</ele>
        <time>2021-08-17T11:28:46.875Z</time>
      </trkpt>
      <trkpt lat="41.66862" lon="44.31829">
        <ele>1497.979157</ele>
        <time>2021-08-17T11:29:03.381Z</time>
      </trkpt>
      <trkpt lat="41.66879" lon="44.31879">
        <ele>1496.990239</ele>
        <time>2021-08-17T11:29:10.959Z</time>
      </trkpt>
      <trkpt lat="41.66919" lon="44.3196">
        <ele>1495.235054</ele>
        <time>2021-08-17T11:29:24.973Z</time>
      </trkpt>
      <trkpt lat="41.66937" lon="44.3201">
        <ele>1494.254731</ele>
        <time>2021-08-17T11:29:32.803Z</time>
      </trkpt>
      <trkpt lat="41.6694" lon="44.32073">
        <ele>1493.140328</ele>
        <time>2021-08-17T11:29:41.446Z</time>
      </trkpt>
      <trkpt lat="41.66936" lon="44.32113">
        <ele>1492.428823</ele>
        <time>2021-08-17T11:29:46.734Z</time>
      </trkpt>
      <trkpt lat="41.66918" lon="44.3215">
        <ele>1491.263027</ele>
        <time>2021-08-17T11:29:52.308Z</time>
      </trkpt>
      <trkpt lat="41.66857" lon="44.32219">
        <ele>1486.919238</ele>
        <time>2021-08-17T11:30:04.854Z</time>
      </trkpt>
      <trkpt lat="41.66846" lon="44.32245">
        <ele>1485.671731</ele>
        <time>2021-08-17T11:30:08.352Z</time>
      </trkpt>
      <trkpt lat="41.66843" lon="44.32269">
        <ele>1484.711826</ele>
        <time>2021-08-17T11:30:11.022Z</time>
      </trkpt>
      <trkpt lat="41.66844" lon="44.32297">
        <ele>1483.541781</ele>
        <time>2021-08-17T11:30:14.269Z</time>
      </trkpt>
      <trkpt lat="41.66857" lon="44.32352">
        <ele>1481.103445</ele>
        <time>2021-08-17T11:30:20.750Z</time>
      </trkpt>
      <trkpt lat="41.6687" lon="44.32442">
        <ele>1476.934624</ele>
        <time>2021-08-17T11:30:31.162Z</time>
      </trkpt>
      <trkpt lat="41.66858" lon="44.3262">
        <ele>1469.13378</ele>
        <time>2021-08-17T11:30:51.939Z</time>
      </trkpt>
      <trkpt lat="41.66878" lon="44.32703">
        <ele>1465.748831</ele>
        <time>2021-08-17T11:31:02.289Z</time>
      </trkpt>
      <trkpt lat="41.66883" lon="44.3275">
        <ele>1463.875225</ele>
        <time>2021-08-17T11:31:08.013Z</time>
      </trkpt>
      <trkpt lat="41.66876" lon="44.32805">
        <ele>1461.682197</ele>
        <time>2021-08-17T11:31:14.654Z</time>
      </trkpt>
      <trkpt lat="41.66843" lon="44.3288">
        <ele>1457.83439</ele>
        <time>2021-08-17T11:31:24.743Z</time>
      </trkpt>
      <trkpt lat="41.66826" lon="44.32946">
        <ele>1454.72752</ele>
        <time>2021-08-17T11:31:32.767Z</time>
      </trkpt>
      <trkpt lat="41.6683" lon="44.3301">
        <ele>1451.836438</ele>
        <time>2021-08-17T11:31:40.195Z</time>
      </trkpt>
      <trkpt lat="41.66841" lon="44.3306">
        <ele>1449.40704</ele>
        <time>2021-08-17T11:31:46.070Z</time>
      </trkpt>
      <trkpt lat="41.66847" lon="44.33118">
        <ele>1446.553023</ele>
        <time>2021-08-17T11:31:52.736Z</time>
      </trkpt>
      <trkpt lat="41.66835" lon="44.33218">
        <ele>1441.638133</ele>
        <time>2021-08-17T11:32:04.192Z</time>
      </trkpt>
      <trkpt lat="41.66841" lon="44.33241">
        <ele>1440.432792</ele>
        <time>2021-08-17T11:32:07.006Z</time>
      </trkpt>
      <trkpt lat="41.66876" lon="44.33289">
        <ele>1437.631212</ele>
        <time>2021-08-17T11:32:14.584Z</time>
      </trkpt>
      <trkpt lat="41.6689" lon="44.33318">
        <ele>1436.265918</ele>
        <time>2021-08-17T11:32:18.629Z</time>
      </trkpt>
      <trkpt lat="41.66925" lon="44.33442">
        <ele>1431.111642</ele>
        <time>2021-08-17T11:32:34.193Z</time>
      </trkpt>
      <trkpt lat="41.66974" lon="44.33565">
        <ele>1428.611652</ele>
        <time>2021-08-17T11:32:51.890Z</time>
      </trkpt>
      <trkpt lat="41.67006" lon="44.33623">
        <ele>1427.75831</ele>
        <time>2021-08-17T11:33:03.133Z</time>
      </trkpt>
      <trkpt lat="41.67018" lon="44.33636">
        <ele>1427.512028</ele>
        <time>2021-08-17T11:33:06.313Z</time>
      </trkpt>
      <trkpt lat="41.67049" lon="44.33652">
        <ele>1427.091814</ele>
        <time>2021-08-17T11:33:15.100Z</time>
      </trkpt>
      <trkpt lat="41.67059" lon="44.33651">
        <ele>1427.194528</ele>
        <time>2021-08-17T11:33:17.242Z</time>
      </trkpt>
      <trkpt lat="41.67072" lon="44.33646">
        <ele>1427.337807</ele>
        <time>2021-08-17T11:33:22.202Z</time>
      </trkpt>
      <trkpt lat="41.67169" lon="44.33556">
        <ele>1428.572165</ele>
        <time>2021-08-17T11:33:58.064Z</time>
      </trkpt>
      <trkpt lat="41.67235" lon="44.33509">
        <ele>1427.87647</ele>
        <time>2021-08-17T11:34:15.731Z</time>
      </trkpt>
      <trkpt lat="41.6725" lon="44.33491">
        <ele>1427.373602</ele>
        <time>2021-08-17T11:34:19.414Z</time>
      </trkpt>
      <trkpt lat="41.67277" lon="44.3344">
        <ele>1426.163053</ele>
        <time>2021-08-17T11:34:27.746Z</time>
      </trkpt>
      <trkpt lat="41.67288" lon="44.33438">
        <ele>1425.875539</ele>
        <time>2021-08-17T11:34:29.597Z</time>
      </trkpt>
      <trkpt lat="41.67298" lon="44.33444">
        <ele>1425.569697</ele>
        <time>2021-08-17T11:34:31.559Z</time>
      </trkpt>
      <trkpt lat="41.67312" lon="44.33487">
        <ele>1424.670462</ele>
        <time>2021-08-17T11:34:37.212Z</time>
      </trkpt>
      <trkpt lat="41.67303" lon="44.33647">
        <ele>1418.540883</ele>
        <time>2021-08-17T11:34:55.842Z</time>
      </trkpt>
      <trkpt lat="41.67317" lon="44.33684">
        <ele>1416.843159</ele>
        <time>2021-08-17T11:35:00.619Z</time>
      </trkpt>
      <trkpt lat="41.67359" lon="44.33731">
        <ele>1413.949639</ele>
        <time>2021-08-17T11:35:09.289Z</time>
      </trkpt>
      <trkpt lat="41.67364" lon="44.33739">
        <ele>1413.601698</ele>
        <time>2021-08-17T11:35:10.511Z</time>
      </trkpt>
      <trkpt lat="41.67369" lon="44.33751">
        <ele>1413.161287</ele>
        <time>2021-08-17T11:35:12.006Z</time>
      </trkpt>
      <trkpt lat="41.67371" lon="44.33785">
        <ele>1412.024366</ele>
        <time>2021-08-17T11:35:16.210Z</time>
      </trkpt>
      <trkpt lat="41.67344" lon="44.33954">
        <ele>1406.309953</ele>
        <time>2021-08-17T11:35:37.349Z</time>
      </trkpt>
      <trkpt lat="41.67345" lon="44.33992">
        <ele>1405.07936</ele>
        <time>2021-08-17T11:35:42.106Z</time>
      </trkpt>
      <trkpt lat="41.67355" lon="44.34018">
        <ele>1404.127234</ele>
        <time>2021-08-17T11:35:45.748Z</time>
      </trkpt>
      <trkpt lat="41.67415" lon="44.3408">
        <ele>1400.871608</ele>
        <time>2021-08-17T11:35:58.127Z</time>
      </trkpt>
      <trkpt lat="41.6743" lon="44.34115">
        <ele>1399.580209</ele>
        <time>2021-08-17T11:36:03.041Z</time>
      </trkpt>
      <trkpt lat="41.67432" lon="44.34126">
        <ele>1399.199981</ele>
        <time>2021-08-17T11:36:04.425Z</time>
      </trkpt>
      <trkpt lat="41.67434" lon="44.34156">
        <ele>1398.101864</ele>
        <time>2021-08-17T11:36:08.075Z</time>
      </trkpt>
      <trkpt lat="41.67442" lon="44.34192">
        <ele>1396.607135</ele>
        <time>2021-08-17T11:36:12.460Z</time>
      </trkpt>
      <trkpt lat="41.67452" lon="44.3421">
        <ele>1395.674935</ele>
        <time>2021-08-17T11:36:15.204Z</time>
      </trkpt>
      <trkpt lat="41.67476" lon="44.34235">
        <ele>1394.029841</ele>
        <time>2021-08-17T11:36:19.958Z</time>
      </trkpt>
      <trkpt lat="41.67507" lon="44.34245">
        <ele>1392.283601</ele>
        <time>2021-08-17T11:36:24.911Z</time>
      </trkpt>
      <trkpt lat="41.67529" lon="44.34242">
        <ele>1391.116637</ele>
        <time>2021-08-17T11:36:28.195Z</time>
      </trkpt>
      <trkpt lat="41.67571" lon="44.34223">
        <ele>1388.655616</ele>
        <time>2021-08-17T11:36:35.184Z</time>
      </trkpt>
      <trkpt lat="41.67586" lon="44.34231">
        <ele>1387.685722</ele>
        <time>2021-08-17T11:36:37.664Z</time>
      </trkpt>
      <trkpt lat="41.67594" lon="44.34245">
        <ele>1386.850826</ele>
        <time>2021-08-17T11:36:39.777Z</time>
      </trkpt>
      <trkpt lat="41.67621" lon="44.3438">
        <ele>1380.463398</ele>
        <time>2021-08-17T11:36:55.730Z</time>
      </trkpt>
      <trkpt lat="41.67629" lon="44.34449">
        <ele>1377.363364</ele>
        <time>2021-08-17T11:37:03.685Z</time>
      </trkpt>
      <trkpt lat="41.67628" lon="44.34477">
        <ele>1376.232475</ele>
        <time>2021-08-17T11:37:06.882Z</time>
      </trkpt>
      <trkpt lat="41.67613" lon="44.3456">
        <ele>1372.72294</ele>
        <time>2021-08-17T11:37:16.909Z</time>
      </trkpt>
      <trkpt lat="41.67612" lon="44.34708">
        <ele>1366.780642</ele>
        <time>2021-08-17T11:37:34.377Z</time>
      </trkpt>
      <trkpt lat="41.67617" lon="44.34747">
        <ele>1365.210869</ele>
        <time>2021-08-17T11:37:39.209Z</time>
      </trkpt>
      <trkpt lat="41.67638" lon="44.34781">
        <ele>1363.514583</ele>
        <time>2021-08-17T11:37:44.427Z</time>
      </trkpt>
      <trkpt lat="41.67742" lon="44.34856">
        <ele>1356.805964</ele>
        <time>2021-08-17T11:38:02.872Z</time>
      </trkpt>
      <trkpt lat="41.67756" lon="44.34888">
        <ele>1354.767055</ele>
        <time>2021-08-17T11:38:07.116Z</time>
      </trkpt>
      <trkpt lat="41.67754" lon="44.34924">
        <ele>1352.812782</ele>
        <time>2021-08-17T11:38:11.153Z</time>
      </trkpt>
      <trkpt lat="41.67708" lon="44.35039">
        <ele>1345.673558</ele>
        <time>2021-08-17T11:38:25.576Z</time>
      </trkpt>
      <trkpt lat="41.67617" lon="44.35227">
        <ele>1331.259783</ele>
        <time>2021-08-17T11:38:49.720Z</time>
      </trkpt>
      <trkpt lat="41.67548" lon="44.35358">
        <ele>1322.4925</ele>
        <time>2021-08-17T11:39:07.383Z</time>
      </trkpt>
      <trkpt lat="41.67363" lon="44.35682">
        <ele>1304.419366</ele>
        <time>2021-08-17T11:39:54.556Z</time>
      </trkpt>
      <trkpt lat="41.67269" lon="44.35929">
        <ele>1294.920534</ele>
        <time>2021-08-17T11:40:28.450Z</time>
      </trkpt>
      <trkpt lat="41.6722" lon="44.35999">
        <ele>1291.794411</ele>
        <time>2021-08-17T11:40:40.186Z</time>
      </trkpt>
      <trkpt lat="41.67193" lon="44.36051">
        <ele>1289.648039</ele>
        <time>2021-08-17T11:40:47.822Z</time>
      </trkpt>
      <trkpt lat="41.67167" lon="44.36158">
        <ele>1285.554454</ele>
        <time>2021-08-17T11:41:01.260Z</time>
      </trkpt>
      <trkpt lat="41.67157" lon="44.36178">
        <ele>1284.68774</ele>
        <time>2021-08-17T11:41:04.095Z</time>
      </trkpt>
      <trkpt lat="41.67089" lon="44.36252">
        <ele>1280.306072</ele>
        <time>2021-08-17T11:41:18.050Z</time>
      </trkpt>
      <trkpt lat="41.67069" lon="44.36279">
        <ele>1278.806954</ele>
        <time>2021-08-17T11:41:22.547Z</time>
      </trkpt>
      <trkpt lat="41.67033" lon="44.36351">
        <ele>1275.444802</ele>
        <time>2021-08-17T11:41:32.604Z</time>
      </trkpt>
      <trkpt lat="41.6701" lon="44.36416">
        <ele>1272.618644</ele>
        <time>2021-08-17T11:41:41.141Z</time>
      </trkpt>
      <trkpt lat="41.66999" lon="44.3645">
        <ele>1271.255379</ele>
        <time>2021-08-17T11:41:45.531Z</time>
      </trkpt>
      <trkpt lat="41.66975" lon="44.36531">
        <ele>1268.101131</ele>
        <time>2021-08-17T11:41:55.972Z</time>
      </trkpt>
      <trkpt lat="41.66892" lon="44.36862">
        <ele>1255.610361</ele>
        <time>2021-08-17T11:42:37.931Z</time>
      </trkpt>
      <trkpt lat="41.66861" lon="44.36907">
        <ele>1253.006481</ele>
        <time>2021-08-17T11:42:45.104Z</time>
      </trkpt>
      <trkpt lat="41.6684" lon="44.36925">
        <ele>1251.508093</ele>
        <time>2021-08-17T11:42:48.977Z</time>
      </trkpt>
      <trkpt lat="41.6682" lon="44.36931">
        <ele>1250.255872</ele>
        <time>2021-08-17T11:42:52.181Z</time>
      </trkpt>
      <trkpt lat="41.66793" lon="44.36923">
        <ele>1248.620609</ele>
        <time>2021-08-17T11:42:56.379Z</time>
      </trkpt>
      <trkpt lat="41.66766" lon="44.36925">
        <ele>1246.991765</ele>
        <time>2021-08-17T11:43:00.525Z</time>
      </trkpt>
      <trkpt lat="41.66748" lon="44.36941">
        <ele>1245.749035</ele>
        <time>2021-08-17T11:43:03.681Z</time>
      </trkpt>
      <trkpt lat="41.66734" lon="44.36971">
        <ele>1244.157959</ele>
        <time>2021-08-17T11:43:07.757Z</time>
      </trkpt>
      <trkpt lat="41.66719" lon="44.3703">
        <ele>1241.452793</ele>
        <time>2021-08-17T11:43:14.856Z</time>
      </trkpt>
      <trkpt lat="41.667" lon="44.37166">
        <ele>1235.385206</ele>
        <time>2021-08-17T11:43:30.986Z</time>
      </trkpt>
      <trkpt lat="41.66616" lon="44.37368">
        <ele>1225.690495</ele>
        <time>2021-08-17T11:43:58.066Z</time>
      </trkpt>
      <trkpt lat="41.66552" lon="44.37554">
        <ele>1215.934127</ele>
        <time>2021-08-17T11:44:21.574Z</time>
      </trkpt>
      <trkpt lat="41.66525" lon="44.37632">
        <ele>1211.738694</ele>
        <time>2021-08-17T11:44:31.069Z</time>
      </trkpt>
      <trkpt lat="41.66509" lon="44.37679">
        <ele>1208.850889</ele>
        <time>2021-08-17T11:44:36.914Z</time>
      </trkpt>
      <trkpt lat="41.66467" lon="44.378">
        <ele>1201.515732</ele>
        <time>2021-08-17T11:44:51.759Z</time>
      </trkpt>
      <trkpt lat="41.66458" lon="44.37841">
        <ele>1199.232183</ele>
        <time>2021-08-17T11:44:56.359Z</time>
      </trkpt>
      <trkpt lat="41.66454" lon="44.37899">
        <ele>1196.31643</ele>
        <time>2021-08-17T11:45:02.988Z</time>
      </trkpt>
      <trkpt lat="41.66461" lon="44.3794">
        <ele>1194.266516</ele>
        <time>2021-08-17T11:45:07.815Z</time>
      </trkpt>
      <trkpt lat="41.66471" lon="44.37965">
        <ele>1192.906521</ele>
        <time>2021-08-17T11:45:11.013Z</time>
      </trkpt>
      <trkpt lat="41.66506" lon="44.38011">
        <ele>1189.698918</ele>
        <time>2021-08-17T11:45:18.591Z</time>
      </trkpt>
      <trkpt lat="41.66527" lon="44.38047">
        <ele>1187.478848</ele>
        <time>2021-08-17T11:45:23.811Z</time>
      </trkpt>
      <trkpt lat="41.66531" lon="44.38062">
        <ele>1186.763678</ele>
        <time>2021-08-17T11:45:25.558Z</time>
      </trkpt>
      <trkpt lat="41.6652" lon="44.38176">
        <ele>1181.733196</ele>
        <time>2021-08-17T11:45:38.735Z</time>
      </trkpt>
      <trkpt lat="41.66521" lon="44.38266">
        <ele>1177.792293</ele>
        <time>2021-08-17T11:45:49.174Z</time>
      </trkpt>
      <trkpt lat="41.66497" lon="44.38395">
        <ele>1174.009475</ele>
        <time>2021-08-17T11:46:05.013Z</time>
      </trkpt>
      <trkpt lat="41.66498" lon="44.38431">
        <ele>1173.152456</ele>
        <time>2021-08-17T11:46:09.541Z</time>
      </trkpt>
      <trkpt lat="41.66513" lon="44.38511">
        <ele>1171.183079</ele>
        <time>2021-08-17T11:46:20.689Z</time>
      </trkpt>
      <trkpt lat="41.66516" lon="44.38649">
        <ele>1172.039525</ele>
        <time>2021-08-17T11:46:46.175Z</time>
      </trkpt>
      <trkpt lat="41.66529" lon="44.38673">
        <ele>1172.367793</ele>
        <time>2021-08-17T11:46:53.746Z</time>
      </trkpt>
      <trkpt lat="41.6655" lon="44.38677">
        <ele>1172.69516</ele>
        <time>2021-08-17T11:47:01.535Z</time>
      </trkpt>
      <trkpt lat="41.66563" lon="44.3867">
        <ele>1172.902934</ele>
        <time>2021-08-17T11:47:06.853Z</time>
      </trkpt>
      <trkpt lat="41.66647" lon="44.38566">
        <ele>1175.414665</ele>
        <time>2021-08-17T11:47:51.711Z</time>
      </trkpt>
      <trkpt lat="41.66758" lon="44.38354">
        <ele>1177.599098</ele>
        <time>2021-08-17T11:48:51.927Z</time>
      </trkpt>
      <trkpt lat="41.66823" lon="44.38268">
        <ele>1177.041364</ele>
        <time>2021-08-17T11:49:08.834Z</time>
      </trkpt>
      <trkpt lat="41.66886" lon="44.38134">
        <ele>1170.86493</ele>
        <time>2021-08-17T11:49:27.730Z</time>
      </trkpt>
      <trkpt lat="41.66953" lon="44.38042">
        <ele>1164.737467</ele>
        <time>2021-08-17T11:49:42.182Z</time>
      </trkpt>
      <trkpt lat="41.67055" lon="44.37927">
        <ele>1154.143612</ele>
        <time>2021-08-17T11:50:01.615Z</time>
      </trkpt>
      <trkpt lat="41.67123" lon="44.37834">
        <ele>1146.736427</ele>
        <time>2021-08-17T11:50:15.760Z</time>
      </trkpt>
      <trkpt lat="41.67138" lon="44.37845">
        <ele>1145.398855</ele>
        <time>2021-08-17T11:50:18.357Z</time>
      </trkpt>
      <trkpt lat="41.67134" lon="44.37869">
        <ele>1144.028468</ele>
        <time>2021-08-17T11:50:21.035Z</time>
      </trkpt>
      <trkpt lat="41.67095" lon="44.37944">
        <ele>1139.136067</ele>
        <time>2021-08-17T11:50:31.391Z</time>
      </trkpt>
      <trkpt lat="41.66992" lon="44.38094">
        <ele>1131.106387</ele>
        <time>2021-08-17T11:50:55.444Z</time>
      </trkpt>
      <trkpt lat="41.6697" lon="44.3814">
        <ele>1129.189276</ele>
        <time>2021-08-17T11:51:02.085Z</time>
      </trkpt>
      <trkpt lat="41.66944" lon="44.3821">
        <ele>1126.595879</ele>
        <time>2021-08-17T11:51:11.581Z</time>
      </trkpt>
      <trkpt lat="41.66892" lon="44.38386">
        <ele>1120.788525</ele>
        <time>2021-08-17T11:51:34.671Z</time>
      </trkpt>
      <trkpt lat="41.66869" lon="44.38445">
        <ele>1119.023481</ele>
        <time>2021-08-17T11:51:43.116Z</time>
      </trkpt>
      <trkpt lat="41.66856" lon="44.38461">
        <ele>1118.385147</ele>
        <time>2021-08-17T11:51:46.233Z</time>
      </trkpt>
      <trkpt lat="41.66796" lon="44.38495">
        <ele>1116.094402</ele>
        <time>2021-08-17T11:51:57.607Z</time>
      </trkpt>
      <trkpt lat="41.66781" lon="44.38516">
        <ele>1114.673613</ele>
        <time>2021-08-17T11:52:01.240Z</time>
      </trkpt>
      <trkpt lat="41.66766" lon="44.38547">
        <ele>1112.843369</ele>
        <time>2021-08-17T11:52:05.733Z</time>
      </trkpt>
      <trkpt lat="41.66736" lon="44.38648">
        <ele>1107.475984</ele>
        <time>2021-08-17T11:52:18.084Z</time>
      </trkpt>
      <trkpt lat="41.66736" lon="44.38656">
        <ele>1107.103624</ele>
        <time>2021-08-17T11:52:18.910Z</time>
      </trkpt>
      <trkpt lat="41.66744" lon="44.38657">
        <ele>1106.574979</ele>
        <time>2021-08-17T11:52:20.068Z</time>
      </trkpt>
      <trkpt lat="41.66781" lon="44.38562">
        <ele>1099.651017</ele>
        <time>2021-08-17T11:52:31.503Z</time>
      </trkpt>
      <trkpt lat="41.66811" lon="44.38529">
        <ele>1095.600974</ele>
        <time>2021-08-17T11:52:36.982Z</time>
      </trkpt>
      <trkpt lat="41.66844" lon="44.38528">
        <ele>1092.158904</ele>
        <time>2021-08-17T11:52:41.588Z</time>
      </trkpt>
      <trkpt lat="41.6686" lon="44.38536">
        <ele>1090.431173</ele>
        <time>2021-08-17T11:52:43.889Z</time>
      </trkpt>
      <trkpt lat="41.6689" lon="44.38571">
        <ele>1086.343005</ele>
        <time>2021-08-17T11:52:49.411Z</time>
      </trkpt>
      <trkpt lat="41.66915" lon="44.38567">
        <ele>1083.959318</ele>
        <time>2021-08-17T11:52:53.013Z</time>
      </trkpt>
      <trkpt lat="41.6693" lon="44.38556">
        <ele>1082.411785</ele>
        <time>2021-08-17T11:52:55.505Z</time>
      </trkpt>
      <trkpt lat="41.66951" lon="44.38513">
        <ele>1078.980258</ele>
        <time>2021-08-17T11:53:01.146Z</time>
      </trkpt>
      <trkpt lat="41.6696" lon="44.38442">
        <ele>1074.157416</ele>
        <time>2021-08-17T11:53:09.068Z</time>
      </trkpt>
      <trkpt lat="41.66972" lon="44.38407">
        <ele>1071.521693</ele>
        <time>2021-08-17T11:53:13.278Z</time>
      </trkpt>
      <trkpt lat="41.67062" lon="44.38347">
        <ele>1062.161785</ele>
        <time>2021-08-17T11:53:27.524Z</time>
      </trkpt>
      <trkpt lat="41.67076" lon="44.38339">
        <ele>1060.726569</ele>
        <time>2021-08-17T11:53:29.600Z</time>
      </trkpt>
      <trkpt lat="41.67113" lon="44.38316">
        <ele>1056.862054</ele>
        <time>2021-08-17T11:53:35.575Z</time>
      </trkpt>
      <trkpt lat="41.67146" lon="44.38303">
        <ele>1053.635807</ele>
        <time>2021-08-17T11:53:40.550Z</time>
      </trkpt>
      <trkpt lat="41.67175" lon="44.38294">
        <ele>1051.486881</ele>
        <time>2021-08-17T11:53:44.911Z</time>
      </trkpt>
      <trkpt lat="41.67201" lon="44.3828">
        <ele>1049.933813</ele>
        <time>2021-08-17T11:53:49.020Z</time>
      </trkpt>
      <trkpt lat="41.67221" lon="44.38261">
        <ele>1048.565074</ele>
        <time>2021-08-17T11:53:52.558Z</time>
      </trkpt>
      <trkpt lat="41.67253" lon="44.38203">
        <ele>1045.504893</ele>
        <time>2021-08-17T11:54:01.327Z</time>
      </trkpt>
      <trkpt lat="41.67443" lon="44.37937">
        <ele>1034.045697</ele>
        <time>2021-08-17T11:54:47.975Z</time>
      </trkpt>
      <trkpt lat="41.67486" lon="44.37874">
        <ele>1030.605486</ele>
        <time>2021-08-17T11:54:57.914Z</time>
      </trkpt>
      <trkpt lat="41.67497" lon="44.37878">
        <ele>1030.028062</ele>
        <time>2021-08-17T11:54:59.482Z</time>
      </trkpt>
      <trkpt lat="41.67506" lon="44.37886">
        <ele>1029.440418</ele>
        <time>2021-08-17T11:55:01.322Z</time>
      </trkpt>
      <trkpt lat="41.67506" lon="44.37925">
        <ele>1027.865203</ele>
        <time>2021-08-17T11:55:05.944Z</time>
      </trkpt>
      <trkpt lat="41.6751" lon="44.37941">
        <ele>1027.185492</ele>
        <time>2021-08-17T11:55:08.087Z</time>
      </trkpt>
      <trkpt lat="41.67549" lon="44.3795">
        <ele>1025.585115</ele>
        <time>2021-08-17T11:55:14.507Z</time>
      </trkpt>
      <trkpt lat="41.67561" lon="44.37966">
        <ele>1025.032756</ele>
        <time>2021-08-17T11:55:17.016Z</time>
      </trkpt>
      <trkpt lat="41.6757" lon="44.38003">
        <ele>1024.058389</ele>
        <time>2021-08-17T11:55:22.049Z</time>
      </trkpt>
      <trkpt lat="41.67574" lon="44.38048">
        <ele>1022.91958</ele>
        <time>2021-08-17T11:55:28.021Z</time>
      </trkpt>
      <trkpt lat="41.67568" lon="44.38113">
        <ele>1021.276139</ele>
        <time>2021-08-17T11:55:37.533Z</time>
      </trkpt>
      <trkpt lat="41.67571" lon="44.3812">
        <ele>1021.072339</ele>
        <time>2021-08-17T11:55:38.755Z</time>
      </trkpt>
      <trkpt lat="41.67577" lon="44.38117">
        <ele>1020.872379</ele>
        <time>2021-08-17T11:55:39.947Z</time>
      </trkpt>
      <trkpt lat="41.67579" lon="44.38116">
        <ele>1020.793484</ele>
        <time>2021-08-17T11:55:41.151Z</time>
      </trkpt>
      <trkpt lat="41.67521" lon="44.38276">
        <ele>1020.522331</ele>
        <time>2021-08-17T11:56:10.675Z</time>
      </trkpt>
      <trkpt lat="41.67457" lon="44.38453">
        <ele>1021.205838</ele>
        <time>2021-08-17T11:56:48.298Z</time>
      </trkpt>
      <trkpt lat="41.67383" lon="44.38656">
        <ele>1021.528385</ele>
        <time>2021-08-17T11:57:32.713Z</time>
      </trkpt>
      <trkpt lat="41.67376" lon="44.38674">
        <ele>1021.465439</ele>
        <time>2021-08-17T11:57:36.337Z</time>
      </trkpt>
      <trkpt lat="41.67372" lon="44.38685">
        <ele>1021.431093</ele>
        <time>2021-08-17T11:57:39.036Z</time>
      </trkpt>
      <trkpt lat="41.67324" lon="44.38814">
        <ele>1020.143276</ele>
        <time>2021-08-17T11:57:59.380Z</time>
      </trkpt>
      <trkpt lat="41.67306" lon="44.38844">
        <ele>1019.245439</ele>
        <time>2021-08-17T11:58:04.116Z</time>
      </trkpt>
      <trkpt lat="41.67294" lon="44.38854">
        <ele>1018.800045</ele>
        <time>2021-08-17T11:58:06.497Z</time>
      </trkpt>
      <trkpt lat="41.67283" lon="44.38861">
        <ele>1018.399926</ele>
        <time>2021-08-17T11:58:08.327Z</time>
      </trkpt>
      <trkpt lat="41.67207" lon="44.38882">
        <ele>1015.938136</ele>
        <time>2021-08-17T11:58:21.521Z</time>
      </trkpt>
      <trkpt lat="41.67187" lon="44.38896">
        <ele>1015.252161</ele>
        <time>2021-08-17T11:58:25.585Z</time>
      </trkpt>
      <trkpt lat="41.67172" lon="44.38917">
        <ele>1014.703849</ele>
        <time>2021-08-17T11:58:29.402Z</time>
      </trkpt>
      <trkpt lat="41.67164" lon="44.38937">
        <ele>1014.278447</ele>
        <time>2021-08-17T11:58:32.180Z</time>
      </trkpt>
      <trkpt lat="41.6716" lon="44.38953">
        <ele>1013.97392</ele>
        <time>2021-08-17T11:58:34.187Z</time>
      </trkpt>
      <trkpt lat="41.67156" lon="44.38987">
        <ele>1013.347128</ele>
        <time>2021-08-17T11:58:38.907Z</time>
      </trkpt>
      <trkpt lat="41.67155" lon="44.39041">
        <ele>1012.348719</ele>
        <time>2021-08-17T11:58:46.314Z</time>
      </trkpt>
      <trkpt lat="41.67148" lon="44.39065">
        <ele>1011.859477</ele>
        <time>2021-08-17T11:58:50.130Z</time>
      </trkpt>
      <trkpt lat="41.67139" lon="44.39076">
        <ele>1011.565129</ele>
        <time>2021-08-17T11:58:52.332Z</time>
      </trkpt>
      <trkpt lat="41.66988" lon="44.39078">
        <ele>1007.359585</ele>
        <time>2021-08-17T11:59:19.452Z</time>
      </trkpt>
      <trkpt lat="41.6694" lon="44.39096">
        <ele>1005.915179</ele>
        <time>2021-08-17T11:59:27.659Z</time>
      </trkpt>
      <trkpt lat="41.66927" lon="44.39111">
        <ele>1005.335299</ele>
        <time>2021-08-17T11:59:30.435Z</time>
      </trkpt>
      <trkpt lat="41.66869" lon="44.39273">
        <ele>1000.492208</ele>
        <time>2021-08-17T11:59:52.635Z</time>
      </trkpt>
      <trkpt lat="41.66833" lon="44.39301">
        <ele>999.149361</ele>
        <time>2021-08-17T11:59:59.873Z</time>
      </trkpt>
      <trkpt lat="41.66811" lon="44.3933">
        <ele>998.665563</ele>
        <time>2021-08-17T12:00:05.434Z</time>
      </trkpt>
      <trkpt lat="41.66806" lon="44.39348">
        <ele>998.440392</ele>
        <time>2021-08-17T12:00:08.115Z</time>
      </trkpt>
      <trkpt lat="41.66796" lon="44.39455">
        <ele>997.177449</ele>
        <time>2021-08-17T12:00:23.970Z</time>
      </trkpt>
      <trkpt lat="41.6679" lon="44.39478">
        <ele>996.90265</ele>
        <time>2021-08-17T12:00:27.589Z</time>
      </trkpt>
      <trkpt lat="41.66716" lon="44.39655">
        <ele>995.389185</ele>
        <time>2021-08-17T12:00:58.812Z</time>
      </trkpt>
      <trkpt lat="41.66691" lon="44.39734">
        <ele>994.694851</ele>
        <time>2021-08-17T12:01:11.690Z</time>
      </trkpt>
      <trkpt lat="41.66664" lon="44.39775">
        <ele>993.759579</ele>
        <time>2021-08-17T12:01:19.434Z</time>
      </trkpt>
      <trkpt lat="41.66586" lon="44.39824">
        <ele>991.798467</ele>
        <time>2021-08-17T12:01:34.811Z</time>
      </trkpt>
      <trkpt lat="41.66449" lon="44.40048">
        <ele>985.532091</ele>
        <time>2021-08-17T12:02:11.874Z</time>
      </trkpt>
      <trkpt lat="41.66427" lon="44.40107">
        <ele>984.177839</ele>
        <time>2021-08-17T12:02:20.422Z</time>
      </trkpt>
      <trkpt lat="41.66414" lon="44.40167">
        <ele>982.921513</ele>
        <time>2021-08-17T12:02:28.594Z</time>
      </trkpt>
      <trkpt lat="41.66382" lon="44.40455">
        <ele>977.540189</ele>
        <time>2021-08-17T12:03:07.375Z</time>
      </trkpt>
      <trkpt lat="41.66369" lon="44.40524">
        <ele>976.302798</ele>
        <time>2021-08-17T12:03:17.085Z</time>
      </trkpt>
      <trkpt lat="41.66344" lon="44.40582">
        <ele>975.325776</ele>
        <time>2021-08-17T12:03:26.296Z</time>
      </trkpt>
      <trkpt lat="41.66286" lon="44.40666">
        <ele>973.673928</ele>
        <time>2021-08-17T12:03:42.014Z</time>
      </trkpt>
      <trkpt lat="41.66192" lon="44.40772">
        <ele>971.554179</ele>
        <time>2021-08-17T12:04:04.953Z</time>
      </trkpt>
      <trkpt lat="41.6615" lon="44.40801">
        <ele>970.798854</ele>
        <time>2021-08-17T12:04:13.906Z</time>
      </trkpt>
      <trkpt lat="41.66133" lon="44.40825">
        <ele>970.404663</ele>
        <time>2021-08-17T12:04:18.628Z</time>
      </trkpt>
      <trkpt lat="41.66135" lon="44.40902">
        <ele>969.605813</ele>
        <time>2021-08-17T12:04:29.777Z</time>
      </trkpt>
      <trkpt lat="41.66111" lon="44.41022">
        <ele>968.526061</ele>
        <time>2021-08-17T12:04:48.128Z</time>
      </trkpt>
      <trkpt lat="41.66101" lon="44.41149">
        <ele>967.23281</ele>
        <time>2021-08-17T12:05:06.770Z</time>
      </trkpt>
      <trkpt lat="41.66081" lon="44.41219">
        <ele>966.298961</ele>
        <time>2021-08-17T12:05:17.586Z</time>
      </trkpt>
      <trkpt lat="41.66057" lon="44.41253">
        <ele>965.707286</ele>
        <time>2021-08-17T12:05:24.245Z</time>
      </trkpt>
      <trkpt lat="41.66048" lon="44.41261">
        <ele>965.52906</ele>
        <time>2021-08-17T12:05:26.209Z</time>
      </trkpt>
      <trkpt lat="41.66045" lon="44.41263">
        <ele>965.479164</ele>
        <time>2021-08-17T12:05:26.676Z</time>
      </trkpt>
      <trkpt lat="41.65919" lon="44.41334">
        <ele>962.454111</ele>
        <time>2021-08-17T12:05:51.559Z</time>
      </trkpt>
      <trkpt lat="41.6591" lon="44.41347">
        <ele>962.149243</ele>
        <time>2021-08-17T12:05:53.684Z</time>
      </trkpt>
      <trkpt lat="41.65901" lon="44.41458">
        <ele>960.124402</ele>
        <time>2021-08-17T12:06:08.543Z</time>
      </trkpt>
      <trkpt lat="41.65895" lon="44.4148">
        <ele>959.711922</ele>
        <time>2021-08-17T12:06:11.572Z</time>
      </trkpt>
      <trkpt lat="41.65837" lon="44.41609">
        <ele>957.017343</ele>
        <time>2021-08-17T12:06:31.434Z</time>
      </trkpt>
      <trkpt lat="41.65816" lon="44.4167">
        <ele>955.997816</ele>
        <time>2021-08-17T12:06:40.643Z</time>
      </trkpt>
      <trkpt lat="41.65744" lon="44.42078">
        <ele>953.156986</ele>
        <time>2021-08-17T12:07:43.906Z</time>
      </trkpt>
      <trkpt lat="41.65732" lon="44.42116">
        <ele>952.941601</ele>
        <time>2021-08-17T12:07:50.871Z</time>
      </trkpt>
      <trkpt lat="41.65679" lon="44.42238">
        <ele>952.242773</ele>
        <time>2021-08-17T12:08:13.730Z</time>
      </trkpt>
      <trkpt lat="41.65676" lon="44.42269">
        <ele>952.085686</ele>
        <time>2021-08-17T12:08:18.608Z</time>
      </trkpt>
      <trkpt lat="41.65683" lon="44.42341">
        <ele>951.672534</ele>
        <time>2021-08-17T12:08:29.278Z</time>
      </trkpt>
      <trkpt lat="41.65677" lon="44.42372">
        <ele>950.932442</ele>
        <time>2021-08-17T12:08:33.748Z</time>
      </trkpt>
      <trkpt lat="41.65664" lon="44.42399">
        <ele>950.204886</ele>
        <time>2021-08-17T12:08:38.029Z</time>
      </trkpt>
      <trkpt lat="41.65618" lon="44.42464">
        <ele>948.135068</ele>
        <time>2021-08-17T12:08:49.605Z</time>
      </trkpt>
      <trkpt lat="41.65522" lon="44.42523">
        <ele>944.571646</ele>
        <time>2021-08-17T12:09:06.756Z</time>
      </trkpt>
      <trkpt lat="41.65433" lon="44.42601">
        <ele>940.472751</ele>
        <time>2021-08-17T12:09:24.313Z</time>
      </trkpt>
      <trkpt lat="41.6533" lon="44.4272">
        <ele>937.031987</ele>
        <time>2021-08-17T12:09:48.010Z</time>
      </trkpt>
      <trkpt lat="41.65142" lon="44.42924">
        <ele>933.669534</ele>
        <time>2021-08-17T12:10:35.419Z</time>
      </trkpt>
      <trkpt lat="41.65102" lon="44.42979">
        <ele>933.313372</ele>
        <time>2021-08-17T12:10:47.652Z</time>
      </trkpt>
      <trkpt lat="41.65085" lon="44.43012">
        <ele>933.158777</ele>
        <time>2021-08-17T12:10:54.274Z</time>
      </trkpt>
      <trkpt lat="41.65031" lon="44.43154">
        <ele>932.432095</ele>
        <time>2021-08-17T12:11:19.286Z</time>
      </trkpt>
      <trkpt lat="41.65011" lon="44.43179">
        <ele>932.046148</ele>
        <time>2021-08-17T12:11:24.701Z</time>
      </trkpt>
      <trkpt lat="41.64961" lon="44.43215">
        <ele>931.237771</ele>
        <time>2021-08-17T12:11:35.550Z</time>
      </trkpt>
      <trkpt lat="41.64928" lon="44.43267">
        <ele>930.513694</ele>
        <time>2021-08-17T12:11:45.071Z</time>
      </trkpt>
      <trkpt lat="41.64899" lon="44.43324">
        <ele>929.777469</ele>
        <time>2021-08-17T12:11:54.513Z</time>
      </trkpt>
      <trkpt lat="41.64836" lon="44.43467">
        <ele>927.998414</ele>
        <time>2021-08-17T12:12:17.991Z</time>
      </trkpt>
      <trkpt lat="41.64751" lon="44.43683">
        <ele>926.644568</ele>
        <time>2021-08-17T12:12:56.031Z</time>
      </trkpt>
      <trkpt lat="41.6471" lon="44.43754">
        <ele>926.381019</ele>
        <time>2021-08-17T12:13:10.110Z</time>
      </trkpt>
      <trkpt lat="41.64694" lon="44.43792">
        <ele>926.313442</ele>
        <time>2021-08-17T12:13:16.738Z</time>
      </trkpt>
      <trkpt lat="41.64676" lon="44.43893">
        <ele>926.150033</ele>
        <time>2021-08-17T12:13:33.479Z</time>
      </trkpt>
      <trkpt lat="41.64647" lon="44.43974">
        <ele>926.325881</ele>
        <time>2021-08-17T12:13:49.148Z</time>
      </trkpt>
      <trkpt lat="41.64608" lon="44.44214">
        <ele>927.52053</ele>
        <time>2021-08-17T12:14:40.076Z</time>
      </trkpt>
      <trkpt lat="41.64504" lon="44.44623">
        <ele>926.772908</ele>
        <time>2021-08-17T12:15:49.594Z</time>
      </trkpt>
      <trkpt lat="41.645" lon="44.44633">
        <ele>926.666504</ele>
        <time>2021-08-17T12:15:51.322Z</time>
      </trkpt>
      <trkpt lat="41.64493" lon="44.44653">
        <ele>926.438103</ele>
        <time>2021-08-17T12:15:54.109Z</time>
      </trkpt>
      <trkpt lat="41.64331" lon="44.45088">
        <ele>921.60701</ele>
        <time>2021-08-17T12:17:03.531Z</time>
      </trkpt>
      <trkpt lat="41.64303" lon="44.45174">
        <ele>921.266393</ele>
        <time>2021-08-17T12:17:21.108Z</time>
      </trkpt>
      <trkpt lat="41.64277" lon="44.45298">
        <ele>920.515344</ele>
        <time>2021-08-17T12:17:41.486Z</time>
      </trkpt>
      <trkpt lat="41.64269" lon="44.45314">
        <ele>920.13974</ele>
        <time>2021-08-17T12:17:43.939Z</time>
      </trkpt>
      <trkpt lat="41.6426" lon="44.45321">
        <ele>919.863474</ele>
        <time>2021-08-17T12:17:45.820Z</time>
      </trkpt>
      <trkpt lat="41.64254" lon="44.45322">
        <ele>919.704257</ele>
        <time>2021-08-17T12:17:48.623Z</time>
      </trkpt>
      <trkpt lat="41.64228" lon="44.45321">
        <ele>919.028242</ele>
        <time>2021-08-17T12:17:52.917Z</time>
      </trkpt>
      <trkpt lat="41.64199" lon="44.45322">
        <ele>918.278753</ele>
        <time>2021-08-17T12:17:58.111Z</time>
      </trkpt>
      <trkpt lat="41.64185" lon="44.4533">
        <ele>917.874684</ele>
        <time>2021-08-17T12:18:00.970Z</time>
      </trkpt>
      <trkpt lat="41.64156" lon="44.45353">
        <ele>916.986364</ele>
        <time>2021-08-17T12:18:06.596Z</time>
      </trkpt>
      <trkpt lat="41.64132" lon="44.45384">
        <ele>916.101646</ele>
        <time>2021-08-17T12:18:11.982Z</time>
      </trkpt>
      <trkpt lat="41.64044" lon="44.45515">
        <ele>910.942376</ele>
        <time>2021-08-17T12:18:33.744Z</time>
      </trkpt>
      <trkpt lat="41.64017" lon="44.45573">
        <ele>908.975064</ele>
        <time>2021-08-17T12:18:42.295Z</time>
      </trkpt>
      <trkpt lat="41.63994" lon="44.45639">
        <ele>906.796609</ele>
        <time>2021-08-17T12:18:51.427Z</time>
      </trkpt>
      <trkpt lat="41.63977" lon="44.45664">
        <ele>905.756688</ele>
        <time>2021-08-17T12:18:55.715Z</time>
      </trkpt>
      <trkpt lat="41.63942" lon="44.45681">
        <ele>904.270218</ele>
        <time>2021-08-17T12:19:01.757Z</time>
      </trkpt>
      <trkpt lat="41.6387" lon="44.45683">
        <ele>901.476259</ele>
        <time>2021-08-17T12:19:13.366Z</time>
      </trkpt>
      <trkpt lat="41.6386" lon="44.45686">
        <ele>901.108323</ele>
        <time>2021-08-17T12:19:15.130Z</time>
      </trkpt>
      <trkpt lat="41.63841" lon="44.45707">
        <ele>900.310499</ele>
        <time>2021-08-17T12:19:18.969Z</time>
      </trkpt>
      <trkpt lat="41.6383" lon="44.45738">
        <ele>899.422227</ele>
        <time>2021-08-17T12:19:23.317Z</time>
      </trkpt>
      <trkpt lat="41.63793" lon="44.45896">
        <ele>895.584324</ele>
        <time>2021-08-17T12:19:44.847Z</time>
      </trkpt>
      <trkpt lat="41.63779" lon="44.45981">
        <ele>894.579314</ele>
        <time>2021-08-17T12:19:57.440Z</time>
      </trkpt>
      <trkpt lat="41.63769" lon="44.46013">
        <ele>894.171315</ele>
        <time>2021-08-17T12:20:02.740Z</time>
      </trkpt>
      <trkpt lat="41.63751" lon="44.46041">
        <ele>893.740977</ele>
        <time>2021-08-17T12:20:08.276Z</time>
      </trkpt>
      <trkpt lat="41.63732" lon="44.46059">
        <ele>893.379028</ele>
        <time>2021-08-17T12:20:12.882Z</time>
      </trkpt>
      <trkpt lat="41.63681" lon="44.46077">
        <ele>892.111679</ele>
        <time>2021-08-17T12:20:22.840Z</time>
      </trkpt>
      <trkpt lat="41.63632" lon="44.46083">
        <ele>890.692303</ele>
        <time>2021-08-17T12:20:31.367Z</time>
      </trkpt>
      <trkpt lat="41.63607" lon="44.46111">
        <ele>889.73313</ele>
        <time>2021-08-17T12:20:37.020Z</time>
      </trkpt>
      <trkpt lat="41.636" lon="44.46128">
        <ele>889.315184</ele>
        <time>2021-08-17T12:20:39.440Z</time>
      </trkpt>
      <trkpt lat="41.63588" lon="44.46212">
        <ele>887.312917</ele>
        <time>2021-08-17T12:20:50.111Z</time>
      </trkpt>
      <trkpt lat="41.63577" lon="44.46254">
        <ele>885.976988</ele>
        <time>2021-08-17T12:20:55.519Z</time>
      </trkpt>
      <trkpt lat="41.63556" lon="44.46291">
        <ele>884.567957</ele>
        <time>2021-08-17T12:21:01.160Z</time>
      </trkpt>
      <trkpt lat="41.63494" lon="44.46362">
        <ele>881.263734</ele>
        <time>2021-08-17T12:21:14.501Z</time>
      </trkpt>
      <trkpt lat="41.63476" lon="44.464">
        <ele>880.068569</ele>
        <time>2021-08-17T12:21:20.210Z</time>
      </trkpt>
      <trkpt lat="41.63434" lon="44.46558">
        <ele>876.370989</ele>
        <time>2021-08-17T12:21:41.829Z</time>
      </trkpt>
      <trkpt lat="41.63409" lon="44.46681">
        <ele>874.535056</ele>
        <time>2021-08-17T12:21:59.212Z</time>
      </trkpt>
      <trkpt lat="41.63366" lon="44.4682">
        <ele>873.11353</ele>
        <time>2021-08-17T12:22:21.718Z</time>
      </trkpt>
      <trkpt lat="41.63354" lon="44.4684">
        <ele>872.958639</ele>
        <time>2021-08-17T12:22:25.781Z</time>
      </trkpt>
      <trkpt lat="41.63344" lon="44.46849">
        <ele>872.931617</ele>
        <time>2021-08-17T12:22:28.263Z</time>
      </trkpt>
      <trkpt lat="41.63286" lon="44.46867">
        <ele>872.79669</ele>
        <time>2021-08-17T12:22:41.335Z</time>
      </trkpt>
      <trkpt lat="41.63274" lon="44.46879">
        <ele>872.762199</ele>
        <time>2021-08-17T12:22:44.549Z</time>
      </trkpt>
      <trkpt lat="41.63262" lon="44.4691">
        <ele>872.702596</ele>
        <time>2021-08-17T12:22:50.391Z</time>
      </trkpt>
      <trkpt lat="41.63247" lon="44.46968">
        <ele>872.597182</ele>
        <time>2021-08-17T12:23:00.435Z</time>
      </trkpt>
      <trkpt lat="41.63243" lon="44.46985">
        <ele>872.569645</ele>
        <time>2021-08-17T12:23:03.536Z</time>
      </trkpt>
      <trkpt lat="41.63222" lon="44.47053">
        <ele>872.674643</ele>
        <time>2021-08-17T12:23:15.257Z</time>
      </trkpt>
      <trkpt lat="41.63197" lon="44.47101">
        <ele>872.758438</ele>
        <time>2021-08-17T12:23:25.078Z</time>
      </trkpt>
      <trkpt lat="41.63176" lon="44.47125">
        <ele>872.812194</ele>
        <time>2021-08-17T12:23:32.320Z</time>
      </trkpt>
      <trkpt lat="41.6313" lon="44.47162">
        <ele>872.919636</ele>
        <time>2021-08-17T12:23:44.898Z</time>
      </trkpt>
      <trkpt lat="41.63119" lon="44.47178">
        <ele>873.103128</ele>
        <time>2021-08-17T12:23:49.653Z</time>
      </trkpt>
      <trkpt lat="41.63112" lon="44.47196">
        <ele>873.268857</ele>
        <time>2021-08-17T12:23:52.666Z</time>
      </trkpt>
      <trkpt lat="41.63108" lon="44.47214">
        <ele>873.424376</ele>
        <time>2021-08-17T12:23:57.646Z</time>
      </trkpt>
      <trkpt lat="41.63094" lon="44.47288">
        <ele>874.058421</ele>
        <time>2021-08-17T12:24:12.101Z</time>
      </trkpt>
      <trkpt lat="41.63046" lon="44.47358">
        <ele>874.836764</ele>
        <time>2021-08-17T12:24:33.283Z</time>
      </trkpt>
      <trkpt lat="41.63034" lon="44.47392">
        <ele>875.223511</ele>
        <time>2021-08-17T12:24:43.280Z</time>
      </trkpt>
      <trkpt lat="41.63018" lon="44.47606">
        <ele>877.407734</ele>
        <time>2021-08-17T12:25:31.010Z</time>
      </trkpt>
      <trkpt lat="41.63013" lon="44.47624">
        <ele>877.272592</ele>
        <time>2021-08-17T12:25:35.921Z</time>
      </trkpt>
      <trkpt lat="41.63007" lon="44.4764">
        <ele>877.143836</ele>
        <time>2021-08-17T12:25:38.317Z</time>
      </trkpt>
      <trkpt lat="41.62993" lon="44.47664">
        <ele>876.916795</ele>
        <time>2021-08-17T12:25:44.083Z</time>
      </trkpt>
      <trkpt lat="41.62959" lon="44.47684">
        <ele>876.560521</ele>
        <time>2021-08-17T12:25:51.245Z</time>
      </trkpt>
      <trkpt lat="41.62939" lon="44.47706">
        <ele>876.306526</ele>
        <time>2021-08-17T12:25:55.940Z</time>
      </trkpt>
      <trkpt lat="41.62858" lon="44.47847">
        <ele>875.74181</ele>
        <time>2021-08-17T12:26:20.532Z</time>
      </trkpt>
      <trkpt lat="41.62852" lon="44.47865">
        <ele>875.750968</ele>
        <time>2021-08-17T12:26:23.421Z</time>
      </trkpt>
      <trkpt lat="41.62855" lon="44.47895">
        <ele>875.765117</ele>
        <time>2021-08-17T12:26:28.161Z</time>
      </trkpt>
      <trkpt lat="41.62881" lon="44.47963">
        <ele>875.801244</ele>
        <time>2021-08-17T12:26:43.058Z</time>
      </trkpt>
      <trkpt lat="41.6288" lon="44.47994">
        <ele>876.299684</ele>
        <time>2021-08-17T12:26:50.371Z</time>
      </trkpt>
      <trkpt lat="41.62871" lon="44.48018">
        <ele>877.495293</ele>
        <time>2021-08-17T12:26:58.754Z</time>
      </trkpt>
      <trkpt lat="41.6285" lon="44.48046">
        <ele>879.349364</ele>
        <time>2021-08-17T12:27:15.163Z</time>
      </trkpt>
      <trkpt lat="41.62833" lon="44.48058">
        <ele>880.51643</ele>
        <time>2021-08-17T12:27:29.079Z</time>
      </trkpt>
      <trkpt lat="41.62806" lon="44.48054">
        <ele>882.213432</ele>
        <time>2021-08-17T12:27:45.568Z</time>
      </trkpt>
      <trkpt lat="41.62772" lon="44.48037">
        <ele>884.489404</ele>
        <time>2021-08-17T12:28:08.167Z</time>
      </trkpt>
      <trkpt lat="41.62765" lon="44.48039">
        <ele>884.887723</ele>
        <time>2021-08-17T12:28:12.023Z</time>
      </trkpt>
      <trkpt lat="41.62758" lon="44.48055">
        <ele>885.748778</ele>
        <time>2021-08-17T12:28:17.870Z</time>
      </trkpt>
      <trkpt lat="41.62759" lon="44.48067">
        <ele>886.293731</ele>
        <time>2021-08-17T12:28:21.852Z</time>
      </trkpt>
      <trkpt lat="41.62763" lon="44.48077">
        <ele>886.82112</ele>
        <time>2021-08-17T12:28:31.230Z</time>
      </trkpt>
      <trkpt lat="41.62793" lon="44.48159">
        <ele>887.586212</ele>
        <time>2021-08-17T12:29:03.589Z</time>
      </trkpt>
      <trkpt lat="41.62809" lon="44.48228">
        <ele>888.11145</ele>
        <time>2021-08-17T12:29:20.840Z</time>
      </trkpt>
      <trkpt lat="41.62808" lon="44.48305">
        <ele>888.661954</ele>
        <time>2021-08-17T12:29:30.808Z</time>
      </trkpt>
      <trkpt lat="41.62798" lon="44.48352">
        <ele>885.535307</ele>
        <time>2021-08-17T12:29:36.175Z</time>
      </trkpt>
      <trkpt lat="41.62786" lon="44.48383">
        <ele>883.189693</ele>
        <time>2021-08-17T12:29:39.801Z</time>
      </trkpt>
      <trkpt lat="41.62751" lon="44.4843">
        <ele>878.651647</ele>
        <time>2021-08-17T12:29:46.728Z</time>
      </trkpt>
      <trkpt lat="41.6272" lon="44.48444">
        <ele>875.650843</ele>
        <time>2021-08-17T12:29:51.297Z</time>
      </trkpt>
      <trkpt lat="41.627" lon="44.48438">
        <ele>873.740484</ele>
        <time>2021-08-17T12:29:54.238Z</time>
      </trkpt>
      <trkpt lat="41.62667" lon="44.4841">
        <ele>871.841492</ele>
        <time>2021-08-17T12:29:59.763Z</time>
      </trkpt>
      <trkpt lat="41.62658" lon="44.48417">
        <ele>871.643144</ele>
        <time>2021-08-17T12:30:01.365Z</time>
      </trkpt>
      <trkpt lat="41.6266" lon="44.48435">
        <ele>871.3946</ele>
        <time>2021-08-17T12:30:03.449Z</time>
      </trkpt>
      <trkpt lat="41.62705" lon="44.48493">
        <ele>870.274691</ele>
        <time>2021-08-17T12:30:13.702Z</time>
      </trkpt>
      <trkpt lat="41.62718" lon="44.48515">
        <ele>869.90059</ele>
        <time>2021-08-17T12:30:18.236Z</time>
      </trkpt>
      <trkpt lat="41.6272" lon="44.4853">
        <ele>869.69385</ele>
        <time>2021-08-17T12:30:20.919Z</time>
      </trkpt>
      <trkpt lat="41.62716" lon="44.48555">
        <ele>869.345732</ele>
        <time>2021-08-17T12:30:32.226Z</time>
      </trkpt>
      <trkpt lat="41.62703" lon="44.4858">
        <ele>869.340438</ele>
        <time>2021-08-17T12:30:43.608Z</time>
      </trkpt>
      <trkpt lat="41.62695" lon="44.4861">
        <ele>871.690949</ele>
        <time>2021-08-17T12:31:02.383Z</time>
      </trkpt>
      <trkpt lat="41.6269" lon="44.48723">
        <ele>879.911188</ele>
        <time>2021-08-17T12:32:02.646Z</time>
      </trkpt>
      <trkpt lat="41.6269" lon="44.48742">
        <ele>881.355798</ele>
        <time>2021-08-17T12:32:16.879Z</time>
      </trkpt>
      <trkpt lat="41.6269" lon="44.48756">
        <ele>882.311428</ele>
        <time>2021-08-17T12:32:24.652Z</time>
      </trkpt>
      <trkpt lat="41.62678" lon="44.48861">
        <ele>889.764339</ele>
        <time>2021-08-17T12:33:24.421Z</time>
      </trkpt>
      <trkpt lat="41.6269" lon="44.48958">
        <ele>896.311995</ele>
        <time>2021-08-17T12:34:18.238Z</time>
      </trkpt>
      <trkpt lat="41.62689" lon="44.48986">
        <ele>898.200353</ele>
        <time>2021-08-17T12:34:29.417Z</time>
      </trkpt>
      <trkpt lat="41.62662" lon="44.49064">
        <ele>903.845727</ele>
        <time>2021-08-17T12:35:05.209Z</time>
      </trkpt>
      <trkpt lat="41.62656" lon="44.49137">
        <ele>908.414013</ele>
        <time>2021-08-17T12:35:36.987Z</time>
      </trkpt>
      <trkpt lat="41.62635" lon="44.49195">
        <ele>912.44238</ele>
        <time>2021-08-17T12:36:09.657Z</time>
      </trkpt>
      <trkpt lat="41.62635" lon="44.4924">
        <ele>915.29204</ele>
        <time>2021-08-17T12:36:33.602Z</time>
      </trkpt>
      <trkpt lat="41.6263" lon="44.49262">
        <ele>916.689536</ele>
        <time>2021-08-17T12:36:44.371Z</time>
      </trkpt>
      <trkpt lat="41.62613" lon="44.49289">
        <ele>919.220254</ele>
        <time>2021-08-17T12:37:03.188Z</time>
      </trkpt>
      <trkpt lat="41.6258" lon="44.49322">
        <ele>923.206537</ele>
        <time>2021-08-17T12:37:30.230Z</time>
      </trkpt>
      <trkpt lat="41.6257" lon="44.49334">
        <ele>924.549315</ele>
        <time>2021-08-17T12:37:44.091Z</time>
      </trkpt>
      <trkpt lat="41.6256" lon="44.49349">
        <ele>926.026967</ele>
        <time>2021-08-17T12:37:53.267Z</time>
      </trkpt>
      <trkpt lat="41.62557" lon="44.49377">
        <ele>928.106258</ele>
        <time>2021-08-17T12:38:11.343Z</time>
      </trkpt>
      <trkpt lat="41.6256" lon="44.49392">
        <ele>929.240263</ele>
        <time>2021-08-17T12:38:18.172Z</time>
      </trkpt>
      <trkpt lat="41.62589" lon="44.49447">
        <ele>934.236493</ele>
        <time>2021-08-17T12:38:53.725Z</time>
      </trkpt>
      <trkpt lat="41.62599" lon="44.49478">
        <ele>936.181971</ele>
        <time>2021-08-17T12:39:11.582Z</time>
      </trkpt>
      <trkpt lat="41.62599" lon="44.49492">
        <ele>936.851665</ele>
        <time>2021-08-17T12:39:18.636Z</time>
      </trkpt>
      <trkpt lat="41.62596" lon="44.49507">
        <ele>937.553421</ele>
        <time>2021-08-17T12:39:29.472Z</time>
      </trkpt>
      <trkpt lat="41.62581" lon="44.49523">
        <ele>938.752571</ele>
        <time>2021-08-17T12:39:39.506Z</time>
      </trkpt>
      <trkpt lat="41.62524" lon="44.49532">
        <ele>942.365918</ele>
        <time>2021-08-17T12:40:11.412Z</time>
      </trkpt>
      <trkpt lat="41.62495" lon="44.49544">
        <ele>944.237754</ele>
        <time>2021-08-17T12:40:26.201Z</time>
      </trkpt>
      <trkpt lat="41.62461" lon="44.49581">
        <ele>946.596693</ele>
        <time>2021-08-17T12:40:43.728Z</time>
      </trkpt>
      <trkpt lat="41.62434" lon="44.49632">
        <ele>946.667898</ele>
        <time>2021-08-17T12:40:55.776Z</time>
      </trkpt>
      <trkpt lat="41.62427" lon="44.4965">
        <ele>946.691714</ele>
        <time>2021-08-17T12:41:00.523Z</time>
      </trkpt>
      <trkpt lat="41.62422" lon="44.49669">
        <ele>946.714479</ele>
        <time>2021-08-17T12:41:03.210Z</time>
      </trkpt>
      <trkpt lat="41.62422" lon="44.49716">
        <ele>946.767716</ele>
        <time>2021-08-17T12:41:10.672Z</time>
      </trkpt>
      <trkpt lat="41.62439" lon="44.49771">
        <ele>946.834402</ele>
        <time>2021-08-17T12:41:19.512Z</time>
      </trkpt>
      <trkpt lat="41.62455" lon="44.49809">
        <ele>946.867443</ele>
        <time>2021-08-17T12:41:25.710Z</time>
      </trkpt>
      <trkpt lat="41.62466" lon="44.49854">
        <ele>946.883248</ele>
        <time>2021-08-17T12:41:32.323Z</time>
      </trkpt>
      <trkpt lat="41.62467" lon="44.4987">
        <ele>946.888924</ele>
        <time>2021-08-17T12:41:35.010Z</time>
      </trkpt>
      <trkpt lat="41.62466" lon="44.49885">
        <ele>946.893711</ele>
        <time>2021-08-17T12:41:37.545Z</time>
      </trkpt>
      <trkpt lat="41.6245" lon="44.49905">
        <ele>946.903523</ele>
        <time>2021-08-17T12:41:42.295Z</time>
      </trkpt>
      <trkpt lat="41.62422" lon="44.49922">
        <ele>946.917405</ele>
        <time>2021-08-17T12:41:49.947Z</time>
      </trkpt>
      <trkpt lat="41.62366" lon="44.49969">
        <ele>947.11363</ele>
        <time>2021-08-17T12:42:08.891Z</time>
      </trkpt>
      <trkpt lat="41.62342" lon="44.50001">
        <ele>947.541916</ele>
        <time>2021-08-17T12:42:19.746Z</time>
      </trkpt>
      <trkpt lat="41.62272" lon="44.50147">
        <ele>949.1989</ele>
        <time>2021-08-17T12:42:58.174Z</time>
      </trkpt>
      <trkpt lat="41.62168" lon="44.50316">
        <ele>948.857501</ele>
        <time>2021-08-17T12:43:33.611Z</time>
      </trkpt>
      <trkpt lat="41.62156" lon="44.50354">
        <ele>948.8352</ele>
        <time>2021-08-17T12:43:39.519Z</time>
      </trkpt>
      <trkpt lat="41.62154" lon="44.50426">
        <ele>948.934041</ele>
        <time>2021-08-17T12:43:49.914Z</time>
      </trkpt>
      <trkpt lat="41.62166" lon="44.50552">
        <ele>949.107698</ele>
        <time>2021-08-17T12:44:14.755Z</time>
      </trkpt>
      <trkpt lat="41.62188" lon="44.50616">
        <ele>949.829126</ele>
        <time>2021-08-17T12:44:29.728Z</time>
      </trkpt>
      <trkpt lat="41.62193" lon="44.50631">
        <ele>950.075037</ele>
        <time>2021-08-17T12:44:33.375Z</time>
      </trkpt>
      <trkpt lat="41.62197" lon="44.5065">
        <ele>950.371572</ele>
        <time>2021-08-17T12:44:38.495Z</time>
      </trkpt>
      <trkpt lat="41.62196" lon="44.50665">
        <ele>950.610901</ele>
        <time>2021-08-17T12:44:42.171Z</time>
      </trkpt>
      <trkpt lat="41.62185" lon="44.50694">
        <ele>951.098218</ele>
        <time>2021-08-17T12:44:50.629Z</time>
      </trkpt>
      <trkpt lat="41.62174" lon="44.50703">
        <ele>951.364484</ele>
        <time>2021-08-17T12:44:54.844Z</time>
      </trkpt>
      <trkpt lat="41.62096" lon="44.50722">
        <ele>953.063494</ele>
        <time>2021-08-17T12:45:22.685Z</time>
      </trkpt>
      <trkpt lat="41.62055" lon="44.50752">
        <ele>954.49201</ele>
        <time>2021-08-17T12:45:38.233Z</time>
      </trkpt>
      <trkpt lat="41.62045" lon="44.50766">
        <ele>954.931616</ele>
        <time>2021-08-17T12:45:42.545Z</time>
      </trkpt>
      <trkpt lat="41.62024" lon="44.50827">
        <ele>956.462274</ele>
        <time>2021-08-17T12:46:00.878Z</time>
      </trkpt>
      <trkpt lat="41.62011" lon="44.50849">
        <ele>957.122548</ele>
        <time>2021-08-17T12:46:09.522Z</time>
      </trkpt>
      <trkpt lat="41.61982" lon="44.50857">
        <ele>958.011845</ele>
        <time>2021-08-17T12:46:21.728Z</time>
      </trkpt>
      <trkpt lat="41.61957" lon="44.5083">
        <ele>959.676342</ele>
        <time>2021-08-17T12:46:36.039Z</time>
      </trkpt>
      <trkpt lat="41.61921" lon="44.50752">
        <ele>963.690581</ele>
        <time>2021-08-17T12:47:08.232Z</time>
      </trkpt>
      <trkpt lat="41.61909" lon="44.50677">
        <ele>967.051514</ele>
        <time>2021-08-17T12:47:40.258Z</time>
      </trkpt>
      <trkpt lat="41.6191" lon="44.50631">
        <ele>969.156793</ele>
        <time>2021-08-17T12:48:01.102Z</time>
      </trkpt>
      <trkpt lat="41.61906" lon="44.50621">
        <ele>969.839842</ele>
        <time>2021-08-17T12:48:06.483Z</time>
      </trkpt>
      <trkpt lat="41.61897" lon="44.50619">
        <ele>970.517291</ele>
        <time>2021-08-17T12:48:11.828Z</time>
      </trkpt>
      <trkpt lat="41.61827" lon="44.50806">
        <ele>982.793443</ele>
        <time>2021-08-17T12:49:49.382Z</time>
      </trkpt>
      <trkpt lat="41.61824" lon="44.50832">
        <ele>984.137285</ele>
        <time>2021-08-17T12:50:02.084Z</time>
      </trkpt>
      <trkpt lat="41.61845" lon="44.50897">
        <ele>987.487261</ele>
        <time>2021-08-17T12:50:33.444Z</time>
      </trkpt>
      <trkpt lat="41.61845" lon="44.50919">
        <ele>988.535107</ele>
        <time>2021-08-17T12:50:42.657Z</time>
      </trkpt>
      <trkpt lat="41.61831" lon="44.50935">
        <ele>989.733292</ele>
        <time>2021-08-17T12:50:53.027Z</time>
      </trkpt>
      <trkpt lat="41.61821" lon="44.50935">
        <ele>990.411865</ele>
        <time>2021-08-17T12:50:58.600Z</time>
      </trkpt>
      <trkpt lat="41.61804" lon="44.50918">
        <ele>991.750593</ele>
        <time>2021-08-17T12:51:09.340Z</time>
      </trkpt>
      <trkpt lat="41.61768" lon="44.50847">
        <ele>995.37032</ele>
        <time>2021-08-17T12:51:39.071Z</time>
      </trkpt>
      <trkpt lat="41.6176" lon="44.50819">
        <ele>996.280993</ele>
        <time>2021-08-17T12:51:48.383Z</time>
      </trkpt>
      <trkpt lat="41.61765" lon="44.50787">
        <ele>997.288962</ele>
        <time>2021-08-17T12:51:57.997Z</time>
      </trkpt>
      <trkpt lat="41.61831" lon="44.50594">
        <ele>1004.235459</ele>
        <time>2021-08-17T12:53:04.554Z</time>
      </trkpt>
      <trkpt lat="41.6183" lon="44.50583">
        <ele>1004.646243</ele>
        <time>2021-08-17T12:53:09.240Z</time>
      </trkpt>
      <trkpt lat="41.61825" lon="44.50581">
        <ele>1004.898547</ele>
        <time>2021-08-17T12:53:11.389Z</time>
      </trkpt>
      <trkpt lat="41.61809" lon="44.50599">
        <ele>1005.902108</ele>
        <time>2021-08-17T12:53:19.670Z</time>
      </trkpt>
      <trkpt lat="41.61804" lon="44.50609">
        <ele>1006.387319</ele>
        <time>2021-08-17T12:53:25.651Z</time>
      </trkpt>
      <trkpt lat="41.6179" lon="44.50636">
        <ele>1007.61136</ele>
        <time>2021-08-17T12:53:36.407Z</time>
      </trkpt>
      <trkpt lat="41.61758" lon="44.5068">
        <ele>1009.920932</ele>
        <time>2021-08-17T12:54:00.722Z</time>
      </trkpt>
      <trkpt lat="41.61727" lon="44.50704">
        <ele>1011.460735</ele>
        <time>2021-08-17T12:54:18.921Z</time>
      </trkpt>
      <trkpt lat="41.6168" lon="44.50723">
        <ele>1013.249961</ele>
        <time>2021-08-17T12:54:43.994Z</time>
      </trkpt>
      <trkpt lat="41.61587" lon="44.50742">
        <ele>1016.64039</ele>
        <time>2021-08-17T12:55:19.891Z</time>
      </trkpt>
      <trkpt lat="41.61515" lon="44.50748">
        <ele>1016.632637</ele>
        <time>2021-08-17T12:55:38.343Z</time>
      </trkpt>
      <trkpt lat="41.6143" lon="44.50746">
        <ele>1015.359358</ele>
        <time>2021-08-17T12:55:53.849Z</time>
      </trkpt>
      <trkpt lat="41.61383" lon="44.50756">
        <ele>1014.595225</ele>
        <time>2021-08-17T12:56:01.818Z</time>
      </trkpt>
      <trkpt lat="41.61353" lon="44.50774">
        <ele>1013.692706</ele>
        <time>2021-08-17T12:56:07.268Z</time>
      </trkpt>
      <trkpt lat="41.61293" lon="44.50825">
        <ele>1011.77494</ele>
        <time>2021-08-17T12:56:18.858Z</time>
      </trkpt>
      <trkpt lat="41.61204" lon="44.50866">
        <ele>1010.591017</ele>
        <time>2021-08-17T12:56:36.457Z</time>
      </trkpt>
      <trkpt lat="41.61172" lon="44.50878">
        <ele>1011.778119</ele>
        <time>2021-08-17T12:56:47.558Z</time>
      </trkpt>
      <trkpt lat="41.61182" lon="44.5089">
        <ele>1012.246308</ele>
        <time>2021-08-17T12:56:53.439Z</time>
      </trkpt>
      <trkpt lat="41.612" lon="44.50893">
        <ele>1012.894273</ele>
        <time>2021-08-17T12:57:00.215Z</time>
      </trkpt>
      <trkpt lat="41.61243" lon="44.50886">
        <ele>1014.380707</ele>
        <time>2021-08-17T12:57:19.949Z</time>
      </trkpt>
      <trkpt lat="41.613" lon="44.50891">
        <ele>1016.666271</ele>
        <time>2021-08-17T12:57:50.032Z</time>
      </trkpt>
      <trkpt lat="41.61316" lon="44.50893">
        <ele>1017.826346</ele>
        <time>2021-08-17T12:58:00.060Z</time>
      </trkpt>
      <trkpt lat="41.61337" lon="44.50893">
        <ele>1019.327532</ele>
        <time>2021-08-17T12:58:13.179Z</time>
      </trkpt>
      <trkpt lat="41.61408" lon="44.50869">
        <ele>1024.487006</ele>
        <time>2021-08-17T12:58:58.551Z</time>
      </trkpt>
      <trkpt lat="41.61439" lon="44.50869">
        <ele>1026.667974</ele>
        <time>2021-08-17T12:59:16.767Z</time>
      </trkpt>
      <trkpt lat="41.61459" lon="44.50875">
        <ele>1028.112463</ele>
        <time>2021-08-17T12:59:28.665Z</time>
      </trkpt>
      <trkpt lat="41.61468" lon="44.50886">
        <ele>1028.919891</ele>
        <time>2021-08-17T12:59:34.764Z</time>
      </trkpt>
      <trkpt lat="41.61473" lon="44.50901">
        <ele>1029.475081</ele>
        <time>2021-08-17T12:59:41.030Z</time>
      </trkpt>
      <trkpt lat="41.61469" lon="44.50916">
        <ele>1029.99281</ele>
        <time>2021-08-17T12:59:46.901Z</time>
      </trkpt>
      <trkpt lat="41.61418" lon="44.51001">
        <ele>1033.578221</ele>
        <time>2021-08-17T13:00:23.853Z</time>
      </trkpt>
      <trkpt lat="41.61411" lon="44.5102">
        <ele>1034.24631</ele>
        <time>2021-08-17T13:00:30.139Z</time>
      </trkpt>
      <trkpt lat="41.61413" lon="44.51039">
        <ele>1034.897516</ele>
        <time>2021-08-17T13:00:36.204Z</time>
      </trkpt>
      <trkpt lat="41.6144" lon="44.51069">
        <ele>1036.436714</ele>
        <time>2021-08-17T13:00:49.394Z</time>
      </trkpt>
      <trkpt lat="41.61504" lon="44.51076">
        <ele>1038.937835</ele>
        <time>2021-08-17T13:01:11.988Z</time>
      </trkpt>
      <trkpt lat="41.61527" lon="44.51092">
        <ele>1039.919818</ele>
        <time>2021-08-17T13:01:21.424Z</time>
      </trkpt>
      <trkpt lat="41.61565" lon="44.51151">
        <ele>1042.15375</ele>
        <time>2021-08-17T13:01:46.024Z</time>
      </trkpt>
      <trkpt lat="41.61583" lon="44.51198">
        <ele>1043.694478</ele>
        <time>2021-08-17T13:02:05.510Z</time>
      </trkpt>
      <trkpt lat="41.61597" lon="44.51243">
        <ele>1045.549264</ele>
        <time>2021-08-17T13:02:23.739Z</time>
      </trkpt>
      <trkpt lat="41.61613" lon="44.51292">
        <ele>1047.623206</ele>
        <time>2021-08-17T13:02:44.197Z</time>
      </trkpt>
      <trkpt lat="41.61628" lon="44.51338">
        <ele>1049.518162</ele>
        <time>2021-08-17T13:03:02.917Z</time>
      </trkpt>
      <trkpt lat="41.61632" lon="44.51349">
        <ele>1050.003462</ele>
        <time>2021-08-17T13:03:08.615Z</time>
      </trkpt>
      <trkpt lat="41.61655" lon="44.51405">
        <ele>1052.426779</ele>
        <time>2021-08-17T13:03:32.012Z</time>
      </trkpt>
      <trkpt lat="41.61793" lon="44.51654">
        <ele>1058.929743</ele>
        <time>2021-08-17T13:04:52.242Z</time>
      </trkpt>
      <trkpt lat="41.61819" lon="44.51716">
        <ele>1060.250558</ele>
        <time>2021-08-17T13:05:08.448Z</time>
      </trkpt>
      <trkpt lat="41.61831" lon="44.51765">
        <ele>1061.202533</ele>
        <time>2021-08-17T13:05:21.148Z</time>
      </trkpt>
      <trkpt lat="41.61834" lon="44.51808">
        <ele>1062.00719</ele>
        <time>2021-08-17T13:05:32.432Z</time>
      </trkpt>
      <trkpt lat="41.61838" lon="44.52055">
        <ele>1069.831355</ele>
        <time>2021-08-17T13:06:53.010Z</time>
      </trkpt>
      <trkpt lat="41.61852" lon="44.52145">
        <ele>1074.013001</ele>
        <time>2021-08-17T13:07:29.323Z</time>
      </trkpt>
      <trkpt lat="41.61884" lon="44.5223">
        <ele>1078.43284</ele>
        <time>2021-08-17T13:08:08.064Z</time>
      </trkpt>
      <trkpt lat="41.61904" lon="44.52315">
        <ele>1082.765446</ele>
        <time>2021-08-17T13:08:45.422Z</time>
      </trkpt>
      <trkpt lat="41.62069" lon="44.5265">
        <ele>1104.433773</ele>
        <time>2021-08-17T13:11:41.191Z</time>
      </trkpt>
      <trkpt lat="41.62073" lon="44.52657">
        <ele>1104.880145</ele>
        <time>2021-08-17T13:11:46.331Z</time>
      </trkpt>
      <trkpt lat="41.62103" lon="44.52726">
        <ele>1108.88633</ele>
        <time>2021-08-17T13:12:20.451Z</time>
      </trkpt>
      <trkpt lat="41.62119" lon="44.52788">
        <ele>1111.726466</ele>
        <time>2021-08-17T13:12:48.795Z</time>
      </trkpt>
      <trkpt lat="41.62138" lon="44.53029">
        <ele>1121.654491</ele>
        <time>2021-08-17T13:14:13.715Z</time>
      </trkpt>
      <trkpt lat="41.62143" lon="44.53046">
        <ele>1122.348502</ele>
        <time>2021-08-17T13:14:19.744Z</time>
      </trkpt>
      <trkpt lat="41.6215" lon="44.53056">
        <ele>1122.821848</ele>
        <time>2021-08-17T13:14:23.997Z</time>
      </trkpt>
      <trkpt lat="41.62185" lon="44.53071">
        <ele>1124.643679</ele>
        <time>2021-08-17T13:14:39.657Z</time>
      </trkpt>
      <trkpt lat="41.62208" lon="44.5306">
        <ele>1125.817854</ele>
        <time>2021-08-17T13:14:50.231Z</time>
      </trkpt>
      <trkpt lat="41.62236" lon="44.53035">
        <ele>1128.069529</ele>
        <time>2021-08-17T13:15:07.909Z</time>
      </trkpt>
      <trkpt lat="41.62322" lon="44.52965">
        <ele>1136.492889</ele>
        <time>2021-08-17T13:16:08.045Z</time>
      </trkpt>
      <trkpt lat="41.62376" lon="44.52925">
        <ele>1141.642838</ele>
        <time>2021-08-17T13:16:53.376Z</time>
      </trkpt>
      <trkpt lat="41.62414" lon="44.52888">
        <ele>1147.728968</ele>
        <time>2021-08-17T13:17:32.794Z</time>
      </trkpt>
      <trkpt lat="41.62439" lon="44.52884">
        <ele>1150.940704</ele>
        <time>2021-08-17T13:17:54.943Z</time>
      </trkpt>
      <trkpt lat="41.62501" lon="44.52906">
        <ele>1159.319657</ele>
        <time>2021-08-17T13:18:54.451Z</time>
      </trkpt>
      <trkpt lat="41.62544" lon="44.52893">
        <ele>1165.031002</ele>
        <time>2021-08-17T13:19:34.003Z</time>
      </trkpt>
      <trkpt lat="41.62578" lon="44.52872">
        <ele>1169.830664</ele>
        <time>2021-08-17T13:20:07.763Z</time>
      </trkpt>
      <trkpt lat="41.62617" lon="44.5287">
        <ele>1174.744824</ele>
        <time>2021-08-17T13:20:42.408Z</time>
      </trkpt>
      <trkpt lat="41.62633" lon="44.5288">
        <ele>1177.009983</ele>
        <time>2021-08-17T13:20:58.134Z</time>
      </trkpt>
      <trkpt lat="41.62665" lon="44.52884">
        <ele>1181.160848</ele>
        <time>2021-08-17T13:21:26.253Z</time>
      </trkpt>
      <trkpt lat="41.62703" lon="44.52853">
        <ele>1186.820413</ele>
        <time>2021-08-17T13:22:02.755Z</time>
      </trkpt>
      <trkpt lat="41.62752" lon="44.52825">
        <ele>1192.205619</ele>
        <time>2021-08-17T13:22:44.767Z</time>
      </trkpt>
      <trkpt lat="41.62781" lon="44.52819">
        <ele>1194.886549</ele>
        <time>2021-08-17T13:23:06.135Z</time>
      </trkpt>
      <trkpt lat="41.62813" lon="44.5282">
        <ele>1197.902731</ele>
        <time>2021-08-17T13:23:29.063Z</time>
      </trkpt>
      <trkpt lat="41.62836" lon="44.52832">
        <ele>1200.229319</ele>
        <time>2021-08-17T13:23:45.935Z</time>
      </trkpt>
      <trkpt lat="41.62851" lon="44.52853">
        <ele>1202.273964</ele>
        <time>2021-08-17T13:24:00.221Z</time>
      </trkpt>
      <trkpt lat="41.62878" lon="44.52866">
        <ele>1204.956916</ele>
        <time>2021-08-17T13:24:17.268Z</time>
      </trkpt>
      <trkpt lat="41.62915" lon="44.52842">
        <ele>1206.056005</ele>
        <time>2021-08-17T13:24:38.381Z</time>
      </trkpt>
      <trkpt lat="41.62931" lon="44.5284">
        <ele>1206.457234</ele>
        <time>2021-08-17T13:24:45.112Z</time>
      </trkpt>
      <trkpt lat="41.62953" lon="44.52817">
        <ele>1207.193356</ele>
        <time>2021-08-17T13:24:56.378Z</time>
      </trkpt>
      <trkpt lat="41.62956" lon="44.52781">
        <ele>1207.896947</ele>
        <time>2021-08-17T13:25:05.700Z</time>
      </trkpt>
      <trkpt lat="41.62967" lon="44.52756">
        <ele>1208.455451</ele>
        <time>2021-08-17T13:25:12.018Z</time>
      </trkpt>
      <trkpt lat="41.63015" lon="44.52749">
        <ele>1209.554856</ele>
        <time>2021-08-17T13:25:23.206Z</time>
      </trkpt>
      <trkpt lat="41.63048" lon="44.52723">
        <ele>1207.931776</ele>
        <time>2021-08-17T13:25:29.582Z</time>
      </trkpt>
      <trkpt lat="41.63059" lon="44.52688">
        <ele>1206.726528</ele>
        <time>2021-08-17T13:25:34.060Z</time>
      </trkpt>
      <trkpt lat="41.6307" lon="44.52682">
        <ele>1206.254535</ele>
        <time>2021-08-17T13:25:35.784Z</time>
      </trkpt>
      <trkpt lat="41.63074" lon="44.52698">
        <ele>1205.702116</ele>
        <time>2021-08-17T13:25:37.794Z</time>
      </trkpt>
      <trkpt lat="41.63074" lon="44.52741">
        <ele>1204.342184</ele>
        <time>2021-08-17T13:25:42.704Z</time>
      </trkpt>
      <trkpt lat="41.63087" lon="44.52764">
        <ele>1203.445781</ele>
        <time>2021-08-17T13:25:45.959Z</time>
      </trkpt>
      <trkpt lat="41.63111" lon="44.52773">
        <ele>1202.397393</ele>
        <time>2021-08-17T13:25:49.860Z</time>
      </trkpt>
      <trkpt lat="41.6313" lon="44.52773">
        <ele>1201.957024</ele>
        <time>2021-08-17T13:25:52.998Z</time>
      </trkpt>
      <trkpt lat="41.63231" lon="44.52769">
        <ele>1201.216199</ele>
        <time>2021-08-17T13:26:11.293Z</time>
      </trkpt>
      <trkpt lat="41.63276" lon="44.52767">
        <ele>1200.887574</ele>
        <time>2021-08-17T13:26:22.582Z</time>
      </trkpt>
      <trkpt lat="41.63306" lon="44.52758">
        <ele>1201.14035</ele>
        <time>2021-08-17T13:26:35.811Z</time>
      </trkpt>
      <trkpt lat="41.63332" lon="44.52733">
        <ele>1202.825077</ele>
        <time>2021-08-17T13:26:50.679Z</time>
      </trkpt>
      <trkpt lat="41.63352" lon="44.52704">
        <ele>1204.414496</ele>
        <time>2021-08-17T13:27:05.652Z</time>
      </trkpt>
      <trkpt lat="41.63373" lon="44.52661">
        <ele>1206.497456</ele>
        <time>2021-08-17T13:27:26.639Z</time>
      </trkpt>
      <trkpt lat="41.63402" lon="44.52569">
        <ele>1210.474877</ele>
        <time>2021-08-17T13:28:06.376Z</time>
      </trkpt>
      <trkpt lat="41.63427" lon="44.52492">
        <ele>1213.393447</ele>
        <time>2021-08-17T13:28:37.570Z</time>
      </trkpt>
      <trkpt lat="41.63439" lon="44.52454">
        <ele>1214.839083</ele>
        <time>2021-08-17T13:28:52.704Z</time>
      </trkpt>
      <trkpt lat="41.63455" lon="44.52425">
        <ele>1216.07474</ele>
        <time>2021-08-17T13:29:04.669Z</time>
      </trkpt>
      <trkpt lat="41.63464" lon="44.52428">
        <ele>1216.49914</ele>
        <time>2021-08-17T13:29:08.633Z</time>
      </trkpt>
      <trkpt lat="41.63473" lon="44.5244">
        <ele>1217.091079</ele>
        <time>2021-08-17T13:29:13.895Z</time>
      </trkpt>
      <trkpt lat="41.63513" lon="44.52513">
        <ele>1219.037243</ele>
        <time>2021-08-17T13:29:39.520Z</time>
      </trkpt>
      <trkpt lat="41.63537" lon="44.52538">
        <ele>1219.297629</ele>
        <time>2021-08-17T13:29:50.189Z</time>
      </trkpt>
      <trkpt lat="41.63546" lon="44.52559">
        <ele>1219.452039</ele>
        <time>2021-08-17T13:29:54.985Z</time>
      </trkpt>
      <trkpt lat="41.63562" lon="44.52621">
        <ele>1219.8724</ele>
        <time>2021-08-17T13:30:06.366Z</time>
      </trkpt>
      <trkpt lat="41.63588" lon="44.5267">
        <ele>1220.253297</ele>
        <time>2021-08-17T13:30:15.431Z</time>
      </trkpt>
      <trkpt lat="41.63603" lon="44.5275">
        <ele>1219.429517</ele>
        <time>2021-08-17T13:30:27.054Z</time>
      </trkpt>
      <trkpt lat="41.63614" lon="44.52854">
        <ele>1218.209116</ele>
        <time>2021-08-17T13:30:41.241Z</time>
      </trkpt>
      <trkpt lat="41.63659" lon="44.53056">
        <ele>1216.899406</ele>
        <time>2021-08-17T13:31:12.694Z</time>
      </trkpt>
      <trkpt lat="41.63706" lon="44.53178">
        <ele>1216.093415</ele>
        <time>2021-08-17T13:31:37.191Z</time>
      </trkpt>
      <trkpt lat="41.63719" lon="44.5319">
        <ele>1215.890216</ele>
        <time>2021-08-17T13:31:41.192Z</time>
      </trkpt>
      <trkpt lat="41.63732" lon="44.53194">
        <ele>1215.731081</ele>
        <time>2021-08-17T13:31:44.346Z</time>
      </trkpt>
      <trkpt lat="41.6375" lon="44.53185">
        <ele>1215.490233</ele>
        <time>2021-08-17T13:31:48.969Z</time>
      </trkpt>
      <trkpt lat="41.6377" lon="44.53159">
        <ele>1215.136629</ele>
        <time>2021-08-17T13:31:55.434Z</time>
      </trkpt>
      <trkpt lat="41.63798" lon="44.53091">
        <ele>1214.407534</ele>
        <time>2021-08-17T13:32:05.435Z</time>
      </trkpt>
      <trkpt lat="41.63819" lon="44.53055">
        <ele>1213.119839</ele>
        <time>2021-08-17T13:32:11.052Z</time>
      </trkpt>
      <trkpt lat="41.63835" lon="44.53036">
        <ele>1212.049315</ele>
        <time>2021-08-17T13:32:14.412Z</time>
      </trkpt>
      <trkpt lat="41.63863" lon="44.53025">
        <ele>1210.607931</ele>
        <time>2021-08-17T13:32:19.206Z</time>
      </trkpt>
      <trkpt lat="41.6387" lon="44.53022">
        <ele>1210.279194</ele>
        <time>2021-08-17T13:32:20.116Z</time>
      </trkpt>
      <trkpt lat="41.6398" lon="44.52972">
        <ele>1205.594309</ele>
        <time>2021-08-17T13:32:38.390Z</time>
      </trkpt>
      <trkpt lat="41.64029" lon="44.52962">
        <ele>1206.057931</ele>
        <time>2021-08-17T13:32:46.698Z</time>
      </trkpt>
      <trkpt lat="41.64298" lon="44.52902">
        <ele>1214.305765</ele>
        <time>2021-08-17T13:34:44.066Z</time>
      </trkpt>
      <trkpt lat="41.64332" lon="44.52882">
        <ele>1216.157569</ele>
        <time>2021-08-17T13:35:03.688Z</time>
      </trkpt>
      <trkpt lat="41.64362" lon="44.52866">
        <ele>1217.892238</ele>
        <time>2021-08-17T13:35:20.311Z</time>
      </trkpt>
      <trkpt lat="41.64398" lon="44.5283">
        <ele>1220.322046</ele>
        <time>2021-08-17T13:35:42.977Z</time>
      </trkpt>
      <trkpt lat="41.64415" lon="44.5283">
        <ele>1221.26521</ele>
        <time>2021-08-17T13:35:51.816Z</time>
      </trkpt>
      <trkpt lat="41.64454" lon="44.52872">
        <ele>1223.993959</ele>
        <time>2021-08-17T13:36:16.939Z</time>
      </trkpt>
      <trkpt lat="41.64475" lon="44.52932">
        <ele>1226.945958</ele>
        <time>2021-08-17T13:36:39.232Z</time>
      </trkpt>
      <trkpt lat="41.64498" lon="44.53019">
        <ele>1231.24048</ele>
        <time>2021-08-17T13:37:11.886Z</time>
      </trkpt>
      <trkpt lat="41.64531" lon="44.53051">
        <ele>1233.818591</ele>
        <time>2021-08-17T13:37:34.763Z</time>
      </trkpt>
      <trkpt lat="41.64556" lon="44.53059">
        <ele>1235.403938</ele>
        <time>2021-08-17T13:37:52.057Z</time>
      </trkpt>
      <trkpt lat="41.64594" lon="44.53052">
        <ele>1238.470353</ele>
        <time>2021-08-17T13:38:16.934Z</time>
      </trkpt>
      <trkpt lat="41.6469" lon="44.53004">
        <ele>1247.520419</ele>
        <time>2021-08-17T13:39:23.226Z</time>
      </trkpt>
      <trkpt lat="41.6469" lon="44.53004">
        <ele>1247.520419</ele>
        <time>2021-08-17T13:39:23.774Z</time>
      </trkpt>
      <trkpt lat="41.64775" lon="44.52961">
        <ele>1255.504629</ele>
        <time>2021-08-17T13:40:25.858Z</time>
      </trkpt>
      <trkpt lat="41.64854" lon="44.52908">
        <ele>1263.16152</ele>
        <time>2021-08-17T13:41:24.996Z</time>
      </trkpt>
      <trkpt lat="41.64911" lon="44.52881">
        <ele>1268.282984</ele>
        <time>2021-08-17T13:42:02.914Z</time>
      </trkpt>
      <trkpt lat="41.65021" lon="44.52848">
        <ele>1275.758216</ele>
        <time>2021-08-17T13:43:09.486Z</time>
      </trkpt>
      <trkpt lat="41.6546" lon="44.52673">
        <ele>1298.837661</ele>
        <time>2021-08-17T13:46:41.978Z</time>
      </trkpt>
      <trkpt lat="41.65543" lon="44.52623">
        <ele>1302.908352</ele>
        <time>2021-08-17T13:47:21.980Z</time>
      </trkpt>
      <trkpt lat="41.65611" lon="44.52558">
        <ele>1306.639798</ele>
        <time>2021-08-17T13:47:59.123Z</time>
      </trkpt>
      <trkpt lat="41.65699" lon="44.52453">
        <ele>1311.767268</ele>
        <time>2021-08-17T13:48:51.725Z</time>
      </trkpt>
      <trkpt lat="41.65795" lon="44.52307">
        <ele>1316.649635</ele>
        <time>2021-08-17T13:49:53.657Z</time>
      </trkpt>
      <trkpt lat="41.65841" lon="44.52219">
        <ele>1318.314346</ele>
        <time>2021-08-17T13:50:19.525Z</time>
      </trkpt>
      <trkpt lat="41.65892" lon="44.52151">
        <ele>1317.164851</ele>
        <time>2021-08-17T13:50:34.130Z</time>
      </trkpt>
      <trkpt lat="41.65909" lon="44.52139">
        <ele>1316.862291</ele>
        <time>2021-08-17T13:50:37.405Z</time>
      </trkpt>
      <trkpt lat="41.65927" lon="44.52136">
        <ele>1316.578176</ele>
        <time>2021-08-17T13:50:40.795Z</time>
      </trkpt>
      <trkpt lat="41.65946" lon="44.52141">
        <ele>1316.264967</ele>
        <time>2021-08-17T13:50:44.017Z</time>
      </trkpt>
      <trkpt lat="41.66146" lon="44.52343">
        <ele>1308.049008</ele>
        <time>2021-08-17T13:51:25.062Z</time>
      </trkpt>
      <trkpt lat="41.66179" lon="44.52395">
        <ele>1307.288087</ele>
        <time>2021-08-17T13:51:34.631Z</time>
      </trkpt>
      <trkpt lat="41.66183" lon="44.52408">
        <ele>1307.134265</ele>
        <time>2021-08-17T13:51:36.625Z</time>
      </trkpt>
      <trkpt lat="41.6621" lon="44.52573">
        <ele>1306.146239</ele>
        <time>2021-08-17T13:52:05.164Z</time>
      </trkpt>
      <trkpt lat="41.66219" lon="44.52595">
        <ele>1306.241286</ele>
        <time>2021-08-17T13:52:10.171Z</time>
      </trkpt>
      <trkpt lat="41.6628" lon="44.52742">
        <ele>1306.792592</ele>
        <time>2021-08-17T13:52:43.388Z</time>
      </trkpt>
      <trkpt lat="41.66299" lon="44.52836">
        <ele>1306.458635</ele>
        <time>2021-08-17T13:52:58.949Z</time>
      </trkpt>
      <trkpt lat="41.66297" lon="44.52891">
        <ele>1306.268961</ele>
        <time>2021-08-17T13:53:07.482Z</time>
      </trkpt>
      <trkpt lat="41.66293" lon="44.52931">
        <ele>1306.130806</ele>
        <time>2021-08-17T13:53:13.500Z</time>
      </trkpt>
      <trkpt lat="41.66298" lon="44.52973">
        <ele>1305.995307</ele>
        <time>2021-08-17T13:53:19.691Z</time>
      </trkpt>
      <trkpt lat="41.66312" lon="44.52994">
        <ele>1305.934771</ele>
        <time>2021-08-17T13:53:23.895Z</time>
      </trkpt>
      <trkpt lat="41.66346" lon="44.53031">
        <ele>1305.808306</ele>
        <time>2021-08-17T13:53:32.487Z</time>
      </trkpt>
      <trkpt lat="41.66437" lon="44.53095">
        <ele>1305.515562</ele>
        <time>2021-08-17T13:53:54.903Z</time>
      </trkpt>
      <trkpt lat="41.66467" lon="44.53137">
        <ele>1305.997475</ele>
        <time>2021-08-17T13:54:06.784Z</time>
      </trkpt>
      <trkpt lat="41.66484" lon="44.5316">
        <ele>1306.349643</ele>
        <time>2021-08-17T13:54:14.654Z</time>
      </trkpt>
      <trkpt lat="41.66505" lon="44.53243">
        <ele>1307.286351</ele>
        <time>2021-08-17T13:54:35.474Z</time>
      </trkpt>
      <trkpt lat="41.66523" lon="44.53272">
        <ele>1307.687708</ele>
        <time>2021-08-17T13:54:44.349Z</time>
      </trkpt>
      <trkpt lat="41.66498" lon="44.53341">
        <ele>1307.788342</ele>
        <time>2021-08-17T13:55:01.639Z</time>
      </trkpt>
      <trkpt lat="41.66476" lon="44.5343">
        <ele>1307.167611</ele>
        <time>2021-08-17T13:55:17.942Z</time>
      </trkpt>
      <trkpt lat="41.66459" lon="44.53673">
        <ele>1302.503239</ele>
        <time>2021-08-17T13:55:49.393Z</time>
      </trkpt>
      <trkpt lat="41.6646" lon="44.53725">
        <ele>1301.024009</ele>
        <time>2021-08-17T13:55:55.552Z</time>
      </trkpt>
      <trkpt lat="41.66494" lon="44.5383">
        <ele>1297.249147</ele>
        <time>2021-08-17T13:56:09.359Z</time>
      </trkpt>
      <trkpt lat="41.66507" lon="44.53906">
        <ele>1294.447266</ele>
        <time>2021-08-17T13:56:18.754Z</time>
      </trkpt>
      <trkpt lat="41.66511" lon="44.54036">
        <ele>1289.777478</ele>
        <time>2021-08-17T13:56:34.130Z</time>
      </trkpt>
      <trkpt lat="41.66508" lon="44.54054">
        <ele>1289.156994</ele>
        <time>2021-08-17T13:56:36.303Z</time>
      </trkpt>
      <trkpt lat="41.66503" lon="44.54075">
        <ele>1288.384314</ele>
        <time>2021-08-17T13:56:38.978Z</time>
      </trkpt>
      <trkpt lat="41.6648" lon="44.54071">
        <ele>1287.30277</ele>
        <time>2021-08-17T13:56:42.884Z</time>
      </trkpt>
      <trkpt lat="41.66442" lon="44.54062">
        <ele>1285.53697</ele>
        <time>2021-08-17T13:56:49.289Z</time>
      </trkpt>
      <trkpt lat="41.66424" lon="44.54062">
        <ele>1284.705881</ele>
        <time>2021-08-17T13:56:52.207Z</time>
      </trkpt>
      <trkpt lat="41.66393" lon="44.54082">
        <ele>1283.119246</ele>
        <time>2021-08-17T13:56:57.923Z</time>
      </trkpt>
      <trkpt lat="41.6638" lon="44.54101">
        <ele>1282.650048</ele>
        <time>2021-08-17T13:57:01.406Z</time>
      </trkpt>
      <trkpt lat="41.66354" lon="44.54173">
        <ele>1283.231613</ele>
        <time>2021-08-17T13:57:12.802Z</time>
      </trkpt>
      <trkpt lat="41.66344" lon="44.54247">
        <ele>1283.78303</ele>
        <time>2021-08-17T13:57:29.596Z</time>
      </trkpt>
      <trkpt lat="41.66337" lon="44.54263">
        <ele>1283.919997</ele>
        <time>2021-08-17T13:57:35.413Z</time>
      </trkpt>
      <trkpt lat="41.66338" lon="44.54281">
        <ele>1284.053983</ele>
        <time>2021-08-17T13:57:40.872Z</time>
      </trkpt>
      <trkpt lat="41.66343" lon="44.54307">
        <ele>1284.252372</ele>
        <time>2021-08-17T13:57:51.118Z</time>
      </trkpt>
      <trkpt lat="41.66331" lon="44.54337">
        <ele>1285.623939</ele>
        <time>2021-08-17T13:58:03.983Z</time>
      </trkpt>
      <trkpt lat="41.66328" lon="44.54376">
        <ele>1287.878351</ele>
        <time>2021-08-17T13:58:19.955Z</time>
      </trkpt>
      <trkpt lat="41.66346" lon="44.5445">
        <ele>1292.392785</ele>
        <time>2021-08-17T13:58:57.520Z</time>
      </trkpt>
      <trkpt lat="41.66371" lon="44.54496">
        <ele>1295.732978</ele>
        <time>2021-08-17T13:59:29.331Z</time>
      </trkpt>
      <trkpt lat="41.66389" lon="44.54615">
        <ele>1302.450841</ele>
        <time>2021-08-17T14:00:28.074Z</time>
      </trkpt>
      <trkpt lat="41.66391" lon="44.54682">
        <ele>1306.056904</ele>
        <time>2021-08-17T14:00:57.940Z</time>
      </trkpt>
      <trkpt lat="41.66386" lon="44.54688">
        <ele>1306.571512</ele>
        <time>2021-08-17T14:01:01.893Z</time>
      </trkpt>
      <trkpt lat="41.66336" lon="44.54745">
        <ele>1311.302796</ele>
        <time>2021-08-17T14:01:36.972Z</time>
      </trkpt>
      <trkpt lat="41.66305" lon="44.5482">
        <ele>1314.566667</ele>
        <time>2021-08-17T14:02:08.518Z</time>
      </trkpt>
      <trkpt lat="41.66258" lon="44.55005">
        <ele>1322.017857</ele>
        <time>2021-08-17T14:03:15.752Z</time>
      </trkpt>
      <trkpt lat="41.66219" lon="44.55105">
        <ele>1326.239412</ele>
        <time>2021-08-17T14:03:56.463Z</time>
      </trkpt>
      <trkpt lat="41.66194" lon="44.55188">
        <ele>1329.570378</ele>
        <time>2021-08-17T14:04:27.939Z</time>
      </trkpt>
      <trkpt lat="41.6614" lon="44.55437">
        <ele>1339.646456</ele>
        <time>2021-08-17T14:05:59.480Z</time>
      </trkpt>
      <trkpt lat="41.66132" lon="44.55548">
        <ele>1345.007703</ele>
        <time>2021-08-17T14:06:44.318Z</time>
      </trkpt>
      <trkpt lat="41.66142" lon="44.55674">
        <ele>1350.938256</ele>
        <time>2021-08-17T14:07:39.300Z</time>
      </trkpt>
      <trkpt lat="41.66142" lon="44.55692">
        <ele>1351.653401</ele>
        <time>2021-08-17T14:07:47.378Z</time>
      </trkpt>
      <trkpt lat="41.66135" lon="44.55711">
        <ele>1352.430564</ele>
        <time>2021-08-17T14:07:56.183Z</time>
      </trkpt>
      <trkpt lat="41.66116" lon="44.55732">
        <ele>1353.709252</ele>
        <time>2021-08-17T14:08:10.193Z</time>
      </trkpt>
      <trkpt lat="41.66049" lon="44.55776">
        <ele>1357.458978</ele>
        <time>2021-08-17T14:08:46.084Z</time>
      </trkpt>
      <trkpt lat="41.6599" lon="44.55805">
        <ele>1359.22863</ele>
        <time>2021-08-17T14:09:08.424Z</time>
      </trkpt>
      <trkpt lat="41.65965" lon="44.55826">
        <ele>1359.005444</ele>
        <time>2021-08-17T14:09:16.094Z</time>
      </trkpt>
      <trkpt lat="41.65938" lon="44.55863">
        <ele>1358.721537</ele>
        <time>2021-08-17T14:09:24.083Z</time>
      </trkpt>
      <trkpt lat="41.65874" lon="44.55992">
        <ele>1357.154956</ele>
        <time>2021-08-17T14:09:44.337Z</time>
      </trkpt>
      <trkpt lat="41.65855" lon="44.56044">
        <ele>1355.7867</ele>
        <time>2021-08-17T14:09:51.451Z</time>
      </trkpt>
      <trkpt lat="41.65837" lon="44.56111">
        <ele>1354.06269</ele>
        <time>2021-08-17T14:10:00.521Z</time>
      </trkpt>
      <trkpt lat="41.65834" lon="44.56147">
        <ele>1353.197987</ele>
        <time>2021-08-17T14:10:05.179Z</time>
      </trkpt>
      <trkpt lat="41.65839" lon="44.56247">
        <ele>1351.586813</ele>
        <time>2021-08-17T14:10:18.424Z</time>
      </trkpt>
      <trkpt lat="41.65829" lon="44.56276">
        <ele>1351.220825</ele>
        <time>2021-08-17T14:10:22.742Z</time>
      </trkpt>
      <trkpt lat="41.65799" lon="44.56329">
        <ele>1350.444679</ele>
        <time>2021-08-17T14:10:32.150Z</time>
      </trkpt>
      <trkpt lat="41.65754" lon="44.56368">
        <ele>1349.610847</ele>
        <time>2021-08-17T14:10:42.949Z</time>
      </trkpt>
      <trkpt lat="41.65712" lon="44.56391">
        <ele>1350.455333</ele>
        <time>2021-08-17T14:10:53.292Z</time>
      </trkpt>
      <trkpt lat="41.65664" lon="44.56406">
        <ele>1351.60405</ele>
        <time>2021-08-17T14:11:07.119Z</time>
      </trkpt>
      <trkpt lat="41.65644" lon="44.56424">
        <ele>1352.1708</ele>
        <time>2021-08-17T14:11:14.792Z</time>
      </trkpt>
      <trkpt lat="41.65626" lon="44.56457">
        <ele>1352.878358</ele>
        <time>2021-08-17T14:11:25.485Z</time>
      </trkpt>
      <trkpt lat="41.65564" lon="44.56608">
        <ele>1360.405127</ele>
        <time>2021-08-17T14:12:34.948Z</time>
      </trkpt>
      <trkpt lat="41.65546" lon="44.56619">
        <ele>1361.85298</ele>
        <time>2021-08-17T14:12:48.524Z</time>
      </trkpt>
      <trkpt lat="41.65505" lon="44.56603">
        <ele>1364.983345</ele>
        <time>2021-08-17T14:13:16.278Z</time>
      </trkpt>
      <trkpt lat="41.65483" lon="44.56578">
        <ele>1367.001956</ele>
        <time>2021-08-17T14:13:35.203Z</time>
      </trkpt>
      <trkpt lat="41.65468" lon="44.56552">
        <ele>1368.841739</ele>
        <time>2021-08-17T14:13:51.221Z</time>
      </trkpt>
      <trkpt lat="41.65434" lon="44.56474">
        <ele>1373.736201</ele>
        <time>2021-08-17T14:14:32.422Z</time>
      </trkpt>
      <trkpt lat="41.65416" lon="44.56443">
        <ele>1375.86676</ele>
        <time>2021-08-17T14:14:49.117Z</time>
      </trkpt>
      <trkpt lat="41.65358" lon="44.564">
        <ele>1380.615937</ele>
        <time>2021-08-17T14:15:23.883Z</time>
      </trkpt>
      <trkpt lat="41.65298" lon="44.56316">
        <ele>1386.614124</ele>
        <time>2021-08-17T14:16:08.285Z</time>
      </trkpt>
      <trkpt lat="41.65285" lon="44.56304">
        <ele>1387.687705</ele>
        <time>2021-08-17T14:16:19.521Z</time>
      </trkpt>
      <trkpt lat="41.65277" lon="44.56303">
        <ele>1388.275935</ele>
        <time>2021-08-17T14:16:23.516Z</time>
      </trkpt>
      <trkpt lat="41.65269" lon="44.56313">
        <ele>1388.977942</ele>
        <time>2021-08-17T14:16:28.467Z</time>
      </trkpt>
      <trkpt lat="41.65268" lon="44.56324">
        <ele>1389.568012</ele>
        <time>2021-08-17T14:16:32.295Z</time>
      </trkpt>
      <trkpt lat="41.6527" lon="44.56331">
        <ele>1389.948813</ele>
        <time>2021-08-17T14:16:39.426Z</time>
      </trkpt>
      <trkpt lat="41.65312" lon="44.56424">
        <ele>1395.814911</ele>
        <time>2021-08-17T14:17:29.580Z</time>
      </trkpt>
      <trkpt lat="41.6534" lon="44.5652">
        <ele>1401.539357</ele>
        <time>2021-08-17T14:18:19.096Z</time>
      </trkpt>
      <trkpt lat="41.65344" lon="44.56621">
        <ele>1406.623065</ele>
        <time>2021-08-17T14:18:58.824Z</time>
      </trkpt>
      <trkpt lat="41.65351" lon="44.5665">
        <ele>1407.722566</ele>
        <time>2021-08-17T14:19:09.841Z</time>
      </trkpt>
      <trkpt lat="41.65366" lon="44.56673">
        <ele>1408.842447</ele>
        <time>2021-08-17T14:19:20.689Z</time>
      </trkpt>
      <trkpt lat="41.65403" lon="44.56696">
        <ele>1410.81107</ele>
        <time>2021-08-17T14:19:38.648Z</time>
      </trkpt>
      <trkpt lat="41.65419" lon="44.56719">
        <ele>1411.943062</ele>
        <time>2021-08-17T14:19:48.601Z</time>
      </trkpt>
      <trkpt lat="41.65424" lon="44.56747">
        <ele>1413.00591</ele>
        <time>2021-08-17T14:19:57.956Z</time>
      </trkpt>
      <trkpt lat="41.65425" lon="44.56774">
        <ele>1413.983564</ele>
        <time>2021-08-17T14:20:06.660Z</time>
      </trkpt>
      <trkpt lat="41.65421" lon="44.56802">
        <ele>1415.050785</ele>
        <time>2021-08-17T14:20:16.053Z</time>
      </trkpt>
      <trkpt lat="41.65378" lon="44.56899">
        <ele>1419.23077</ele>
        <time>2021-08-17T14:20:54.855Z</time>
      </trkpt>
      <trkpt lat="41.65352" lon="44.57033">
        <ele>1424.244769</ele>
        <time>2021-08-17T14:21:46.238Z</time>
      </trkpt>
      <trkpt lat="41.65347" lon="44.57093">
        <ele>1426.155334</ele>
        <time>2021-08-17T14:22:08.706Z</time>
      </trkpt>
      <trkpt lat="41.65354" lon="44.57153">
        <ele>1428.065794</ele>
        <time>2021-08-17T14:22:29.823Z</time>
      </trkpt>
      <trkpt lat="41.65379" lon="44.57274">
        <ele>1430.474913</ele>
        <time>2021-08-17T14:23:06.413Z</time>
      </trkpt>
      <trkpt lat="41.65442" lon="44.57417">
        <ele>1428.510689</ele>
        <time>2021-08-17T14:23:30.633Z</time>
      </trkpt>
      <trkpt lat="41.65509" lon="44.57596">
        <ele>1417.646841</ele>
        <time>2021-08-17T14:23:52.974Z</time>
      </trkpt>
      <trkpt lat="41.6557" lon="44.57807">
        <ele>1400.031664</ele>
        <time>2021-08-17T14:24:16.424Z</time>
      </trkpt>
      <trkpt lat="41.65576" lon="44.57854">
        <ele>1396.053416</ele>
        <time>2021-08-17T14:24:21.343Z</time>
      </trkpt>
      <trkpt lat="41.65581" lon="44.57856">
        <ele>1395.463823</ele>
        <time>2021-08-17T14:24:22.074Z</time>
      </trkpt>
      <trkpt lat="41.65589" lon="44.57869">
        <ele>1394.013555</ele>
        <time>2021-08-17T14:24:24.000Z</time>
      </trkpt>
      <trkpt lat="41.65614" lon="44.57996">
        <ele>1387.125831</ele>
        <time>2021-08-17T14:24:38.932Z</time>
      </trkpt>
      <trkpt lat="41.65617" lon="44.58054">
        <ele>1384.500424</ele>
        <time>2021-08-17T14:24:45.889Z</time>
      </trkpt>
      <trkpt lat="41.65614" lon="44.5814">
        <ele>1381.004229</ele>
        <time>2021-08-17T14:24:58.679Z</time>
      </trkpt>
      <trkpt lat="41.6562" lon="44.58193">
        <ele>1380.356075</ele>
        <time>2021-08-17T14:25:06.995Z</time>
      </trkpt>
      <trkpt lat="41.65613" lon="44.58208">
        <ele>1380.140129</ele>
        <time>2021-08-17T14:25:09.692Z</time>
      </trkpt>
      <trkpt lat="41.65604" lon="44.58216">
        <ele>1379.971102</ele>
        <time>2021-08-17T14:25:11.560Z</time>
      </trkpt>
      <trkpt lat="41.65612" lon="44.58325">
        <ele>1378.642794</ele>
        <time>2021-08-17T14:25:27.317Z</time>
      </trkpt>
      <trkpt lat="41.65622" lon="44.58461">
        <ele>1375.858528</ele>
        <time>2021-08-17T14:25:46.193Z</time>
      </trkpt>
      <trkpt lat="41.65618" lon="44.58513">
        <ele>1374.668861</ele>
        <time>2021-08-17T14:25:52.781Z</time>
      </trkpt>
      <trkpt lat="41.65608" lon="44.5856">
        <ele>1373.541287</ele>
        <time>2021-08-17T14:25:58.629Z</time>
      </trkpt>
      <trkpt lat="41.65578" lon="44.58638">
        <ele>1371.555564</ele>
        <time>2021-08-17T14:26:09.375Z</time>
      </trkpt>
      <trkpt lat="41.65525" lon="44.58832">
        <ele>1366.852641</ele>
        <time>2021-08-17T14:26:36.691Z</time>
      </trkpt>
      <trkpt lat="41.65518" lon="44.58882">
        <ele>1365.370999</ele>
        <time>2021-08-17T14:26:43.656Z</time>
      </trkpt>
      <trkpt lat="41.65522" lon="44.58932">
        <ele>1363.927482</ele>
        <time>2021-08-17T14:26:50.155Z</time>
      </trkpt>
      <trkpt lat="41.65552" lon="44.59053">
        <ele>1360.173886</ele>
        <time>2021-08-17T14:27:05.534Z</time>
      </trkpt>
      <trkpt lat="41.6556" lon="44.59118">
        <ele>1356.466584</ele>
        <time>2021-08-17T14:27:13.140Z</time>
      </trkpt>
      <trkpt lat="41.65565" lon="44.59288">
        <ele>1347.012821</ele>
        <time>2021-08-17T14:27:31.699Z</time>
      </trkpt>
      <trkpt lat="41.65575" lon="44.59363">
        <ele>1342.753589</ele>
        <time>2021-08-17T14:27:39.950Z</time>
      </trkpt>
      <trkpt lat="41.65581" lon="44.59417">
        <ele>1339.655495</ele>
        <time>2021-08-17T14:27:46.004Z</time>
      </trkpt>
      <trkpt lat="41.65639" lon="44.59616">
        <ele>1329.119758</ele>
        <time>2021-08-17T14:28:10.119Z</time>
      </trkpt>
      <trkpt lat="41.65656" lon="44.5968">
        <ele>1326.282877</ele>
        <time>2021-08-17T14:28:18.158Z</time>
      </trkpt>
      <trkpt lat="41.65708" lon="44.59858">
        <ele>1320.736087</ele>
        <time>2021-08-17T14:28:41.481Z</time>
      </trkpt>
      <trkpt lat="41.65711" lon="44.59869">
        <ele>1320.489263</ele>
        <time>2021-08-17T14:28:42.857Z</time>
      </trkpt>
      <trkpt lat="41.65713" lon="44.5988">
        <ele>1320.252765</ele>
        <time>2021-08-17T14:28:44.383Z</time>
      </trkpt>
      <trkpt lat="41.65754" lon="44.60054">
        <ele>1318.413697</ele>
        <time>2021-08-17T14:29:11.308Z</time>
      </trkpt>
      <trkpt lat="41.65772" lon="44.60152">
        <ele>1318.719014</ele>
        <time>2021-08-17T14:29:32.600Z</time>
      </trkpt>
      <trkpt lat="41.65781" lon="44.60182">
        <ele>1318.816308</ele>
        <time>2021-08-17T14:29:39.464Z</time>
      </trkpt>
      <trkpt lat="41.6579" lon="44.60201">
        <ele>1318.894058</ele>
        <time>2021-08-17T14:29:44.568Z</time>
      </trkpt>
      <trkpt lat="41.65803" lon="44.60225">
        <ele>1319.34252</ele>
        <time>2021-08-17T14:29:50.893Z</time>
      </trkpt>
      <trkpt lat="41.65811" lon="44.60237">
        <ele>1319.587348</ele>
        <time>2021-08-17T14:29:54.584Z</time>
      </trkpt>
      <trkpt lat="41.65816" lon="44.60244">
        <ele>1319.749073</ele>
        <time>2021-08-17T14:29:57.247Z</time>
      </trkpt>
      <trkpt lat="41.65831" lon="44.60262">
        <ele>1320.155663</ele>
        <time>2021-08-17T14:30:03.408Z</time>
      </trkpt>
      <trkpt lat="41.65923" lon="44.60359">
        <ele>1322.534689</ele>
        <time>2021-08-17T14:30:40.265Z</time>
      </trkpt>
      <trkpt lat="41.65925" lon="44.60389">
        <ele>1323.772041</ele>
        <time>2021-08-17T14:30:48.936Z</time>
      </trkpt>
      <trkpt lat="41.6594" lon="44.60538">
        <ele>1329.982822</ele>
        <time>2021-08-17T14:31:44.390Z</time>
      </trkpt>
      <trkpt lat="41.65941" lon="44.60549">
        <ele>1330.401236</ele>
        <time>2021-08-17T14:31:48.974Z</time>
      </trkpt>
      <trkpt lat="41.65963" lon="44.60528">
        <ele>1331.865445</ele>
        <time>2021-08-17T14:32:05.115Z</time>
      </trkpt>
      <trkpt lat="41.65965" lon="44.60547">
        <ele>1332.776379</ele>
        <time>2021-08-17T14:32:13.777Z</time>
      </trkpt>
      <trkpt lat="41.65975" lon="44.60606">
        <ele>1337.263959</ele>
        <time>2021-08-17T14:32:44.300Z</time>
      </trkpt>
      <trkpt lat="41.66003" lon="44.60712">
        <ele>1345.548739</ele>
        <time>2021-08-17T14:33:48.578Z</time>
      </trkpt>
      <trkpt lat="41.66005" lon="44.60757">
        <ele>1348.843163</ele>
        <time>2021-08-17T14:34:14.262Z</time>
      </trkpt>
      <trkpt lat="41.65972" lon="44.60882">
        <ele>1357.641139</ele>
        <time>2021-08-17T14:35:25.363Z</time>
      </trkpt>
      <trkpt lat="41.6589" lon="44.61111">
        <ele>1372.634511</ele>
        <time>2021-08-17T14:37:18.454Z</time>
      </trkpt>
      <trkpt lat="41.65882" lon="44.61143">
        <ele>1374.414369</ele>
        <time>2021-08-17T14:37:31.993Z</time>
      </trkpt>
      <trkpt lat="41.65875" lon="44.61184">
        <ele>1376.691294</ele>
        <time>2021-08-17T14:37:49.270Z</time>
      </trkpt>
      <trkpt lat="41.65885" lon="44.61241">
        <ele>1379.967876</ele>
        <time>2021-08-17T14:38:13.966Z</time>
      </trkpt>
      <trkpt lat="41.65938" lon="44.61386">
        <ele>1389.601526</ele>
        <time>2021-08-17T14:39:28.432Z</time>
      </trkpt>
      <trkpt lat="41.6596" lon="44.61497">
        <ele>1396.351914</ele>
        <time>2021-08-17T14:40:26.422Z</time>
      </trkpt>
      <trkpt lat="41.65964" lon="44.61538">
        <ele>1398.764628</ele>
        <time>2021-08-17T14:40:47.001Z</time>
      </trkpt>
      <trkpt lat="41.65956" lon="44.61609">
        <ele>1402.940136</ele>
        <time>2021-08-17T14:41:21.210Z</time>
      </trkpt>
      <trkpt lat="41.65924" lon="44.61707">
        <ele>1408.254609</ele>
        <time>2021-08-17T14:42:04.401Z</time>
      </trkpt>
      <trkpt lat="41.65909" lon="44.61795">
        <ele>1411.235365</ele>
        <time>2021-08-17T14:42:33.659Z</time>
      </trkpt>
      <trkpt lat="41.65909" lon="44.61818">
        <ele>1411.995927</ele>
        <time>2021-08-17T14:42:40.222Z</time>
      </trkpt>
      <trkpt lat="41.65907" lon="44.61949">
        <ele>1416.522737</ele>
        <time>2021-08-17T14:43:20.059Z</time>
      </trkpt>
      <trkpt lat="41.65904" lon="44.62015">
        <ele>1419.069312</ele>
        <time>2021-08-17T14:43:41.834Z</time>
      </trkpt>
      <trkpt lat="41.65891" lon="44.62291">
        <ele>1429.564529</ele>
        <time>2021-08-17T14:45:30.127Z</time>
      </trkpt>
      <trkpt lat="41.65888" lon="44.62351">
        <ele>1431.794609</ele>
        <time>2021-08-17T14:45:50.530Z</time>
      </trkpt>
      <trkpt lat="41.6589" lon="44.62427">
        <ele>1433.586669</ele>
        <time>2021-08-17T14:46:13.359Z</time>
      </trkpt>
      <trkpt lat="41.65922" lon="44.62642">
        <ele>1435.156612</ele>
        <time>2021-08-17T14:46:54.261Z</time>
      </trkpt>
      <trkpt lat="41.6593" lon="44.6267">
        <ele>1434.955082</ele>
        <time>2021-08-17T14:46:58.656Z</time>
      </trkpt>
      <trkpt lat="41.65989" lon="44.62794">
        <ele>1433.973648</ele>
        <time>2021-08-17T14:47:20.048Z</time>
      </trkpt>
      <trkpt lat="41.6601" lon="44.62859">
        <ele>1433.472647</ele>
        <time>2021-08-17T14:47:30.439Z</time>
      </trkpt>
      <trkpt lat="41.66043" lon="44.63085">
        <ele>1431.306206</ele>
        <time>2021-08-17T14:48:05.585Z</time>
      </trkpt>
      <trkpt lat="41.66064" lon="44.63145">
        <ele>1428.883278</ele>
        <time>2021-08-17T14:48:14.308Z</time>
      </trkpt>
      <trkpt lat="41.66095" lon="44.63214">
        <ele>1425.88683</ele>
        <time>2021-08-17T14:48:24.232Z</time>
      </trkpt>
      <trkpt lat="41.66104" lon="44.63248">
        <ele>1424.528623</ele>
        <time>2021-08-17T14:48:28.521Z</time>
      </trkpt>
      <trkpt lat="41.66135" lon="44.63438">
        <ele>1410.844467</ele>
        <time>2021-08-17T14:48:49.041Z</time>
      </trkpt>
      <trkpt lat="41.6616" lon="44.63529">
        <ele>1403.165024</ele>
        <time>2021-08-17T14:48:58.958Z</time>
      </trkpt>
      <trkpt lat="41.66178" lon="44.63579">
        <ele>1399.416616</ele>
        <time>2021-08-17T14:49:04.821Z</time>
      </trkpt>
      <trkpt lat="41.66191" lon="44.63612">
        <ele>1396.940327</ele>
        <time>2021-08-17T14:49:08.733Z</time>
      </trkpt>
      <trkpt lat="41.66217" lon="44.6365">
        <ele>1393.533985</ele>
        <time>2021-08-17T14:49:14.167Z</time>
      </trkpt>
      <trkpt lat="41.66297" lon="44.63712">
        <ele>1386.328449</ele>
        <time>2021-08-17T14:49:28.321Z</time>
      </trkpt>
      <trkpt lat="41.66379" lon="44.63807">
        <ele>1381.514367</ele>
        <time>2021-08-17T14:49:46.291Z</time>
      </trkpt>
      <trkpt lat="41.66421" lon="44.63827">
        <ele>1379.520651</ele>
        <time>2021-08-17T14:49:53.752Z</time>
      </trkpt>
      <trkpt lat="41.66454" lon="44.63835">
        <ele>1377.690478</ele>
        <time>2021-08-17T14:49:59.291Z</time>
      </trkpt>
      <trkpt lat="41.66597" lon="44.63844">
        <ele>1369.662261</ele>
        <time>2021-08-17T14:50:21.557Z</time>
      </trkpt>
      <trkpt lat="41.66614" lon="44.63854">
        <ele>1368.285473</ele>
        <time>2021-08-17T14:50:24.266Z</time>
      </trkpt>
      <trkpt lat="41.66637" lon="44.63881">
        <ele>1365.665786</ele>
        <time>2021-08-17T14:50:28.814Z</time>
      </trkpt>
      <trkpt lat="41.6665" lon="44.63922">
        <ele>1362.861115</ele>
        <time>2021-08-17T14:50:33.659Z</time>
      </trkpt>
      <trkpt lat="41.66648" lon="44.63965">
        <ele>1360.108449</ele>
        <time>2021-08-17T14:50:38.374Z</time>
      </trkpt>
      <trkpt lat="41.66562" lon="44.64302">
        <ele>1336.01048</ele>
        <time>2021-08-17T14:51:16.535Z</time>
      </trkpt>
      <trkpt lat="41.66527" lon="44.64373">
        <ele>1330.766432</ele>
        <time>2021-08-17T14:51:25.800Z</time>
      </trkpt>
      <trkpt lat="41.66516" lon="44.64411">
        <ele>1328.265868</ele>
        <time>2021-08-17T14:51:30.264Z</time>
      </trkpt>
      <trkpt lat="41.66507" lon="44.64554">
        <ele>1320.174045</ele>
        <time>2021-08-17T14:51:46.206Z</time>
      </trkpt>
      <trkpt lat="41.6651" lon="44.64583">
        <ele>1318.82392</ele>
        <time>2021-08-17T14:51:49.472Z</time>
      </trkpt>
      <trkpt lat="41.6654" lon="44.64657">
        <ele>1314.873861</ele>
        <time>2021-08-17T14:51:59.130Z</time>
      </trkpt>
      <trkpt lat="41.66556" lon="44.64678">
        <ele>1313.523528</ele>
        <time>2021-08-17T14:52:02.492Z</time>
      </trkpt>
      <trkpt lat="41.66629" lon="44.64743">
        <ele>1309.523166</ele>
        <time>2021-08-17T14:52:16.498Z</time>
      </trkpt>
      <trkpt lat="41.66711" lon="44.64831">
        <ele>1306.002771</ele>
        <time>2021-08-17T14:52:34.841Z</time>
      </trkpt>
      <trkpt lat="41.66728" lon="44.64839">
        <ele>1305.382808</ele>
        <time>2021-08-17T14:52:38.229Z</time>
      </trkpt>
      <trkpt lat="41.66777" lon="44.64837">
        <ele>1303.932108</ele>
        <time>2021-08-17T14:52:47.149Z</time>
      </trkpt>
      <trkpt lat="41.66804" lon="44.64831">
        <ele>1303.154353</ele>
        <time>2021-08-17T14:52:51.981Z</time>
      </trkpt>
      <trkpt lat="41.66841" lon="44.64811">
        <ele>1301.993783</ele>
        <time>2021-08-17T14:52:59.081Z</time>
      </trkpt>
      <trkpt lat="41.66857" lon="44.64801">
        <ele>1301.464035</ele>
        <time>2021-08-17T14:53:02.340Z</time>
      </trkpt>
      <trkpt lat="41.66888" lon="44.64779">
        <ele>1300.45501</ele>
        <time>2021-08-17T14:53:08.397Z</time>
      </trkpt>
      <trkpt lat="41.66995" lon="44.64713">
        <ele>1294.929533</ele>
        <time>2021-08-17T14:53:27.110Z</time>
      </trkpt>
      <trkpt lat="41.67031" lon="44.64707">
        <ele>1293.121777</ele>
        <time>2021-08-17T14:53:32.666Z</time>
      </trkpt>
      <trkpt lat="41.67038" lon="44.6471">
        <ele>1292.743863</ele>
        <time>2021-08-17T14:53:33.841Z</time>
      </trkpt>
      <trkpt lat="41.67052" lon="44.6473">
        <ele>1291.76615</ele>
        <time>2021-08-17T14:53:37.002Z</time>
      </trkpt>
      <trkpt lat="41.67054" lon="44.64743">
        <ele>1291.262271</ele>
        <time>2021-08-17T14:53:38.486Z</time>
      </trkpt>
      <trkpt lat="41.67053" lon="44.64759">
        <ele>1290.768556</ele>
        <time>2021-08-17T14:53:40.468Z</time>
      </trkpt>
      <trkpt lat="41.67045" lon="44.64941">
        <ele>1286.118291</ele>
        <time>2021-08-17T14:54:02.733Z</time>
      </trkpt>
      <trkpt lat="41.67044" lon="44.65021">
        <ele>1285.301175</ele>
        <time>2021-08-17T14:54:14.676Z</time>
      </trkpt>
      <trkpt lat="41.67038" lon="44.65418">
        <ele>1293.278057</ele>
        <time>2021-08-17T14:55:58.715Z</time>
      </trkpt>
      <trkpt lat="41.67044" lon="44.65482">
        <ele>1295.583951</ele>
        <time>2021-08-17T14:56:25.337Z</time>
      </trkpt>
      <trkpt lat="41.67054" lon="44.65538">
        <ele>1299.621053</ele>
        <time>2021-08-17T14:56:52.133Z</time>
      </trkpt>
      <trkpt lat="41.67061" lon="44.65584">
        <ele>1302.915293</ele>
        <time>2021-08-17T14:57:15.981Z</time>
      </trkpt>
      <trkpt lat="41.6708" lon="44.6602">
        <ele>1335.311953</ele>
        <time>2021-08-17T15:01:28.744Z</time>
      </trkpt>
      <trkpt lat="41.67083" lon="44.66097">
        <ele>1339.644059</ele>
        <time>2021-08-17T15:02:04.750Z</time>
      </trkpt>
      <trkpt lat="41.67071" lon="44.66216">
        <ele>1344.829005</ele>
        <time>2021-08-17T15:02:46.778Z</time>
      </trkpt>
      <trkpt lat="41.67072" lon="44.66241">
        <ele>1344.865252</ele>
        <time>2021-08-17T15:02:53.349Z</time>
      </trkpt>
      <trkpt lat="41.671" lon="44.66321">
        <ele>1344.987701</ele>
        <time>2021-08-17T15:03:09.675Z</time>
      </trkpt>
      <trkpt lat="41.67128" lon="44.66461">
        <ele>1344.119378</ele>
        <time>2021-08-17T15:03:29.099Z</time>
      </trkpt>
      <trkpt lat="41.6717" lon="44.66594">
        <ele>1340.892845</ele>
        <time>2021-08-17T15:03:46.791Z</time>
      </trkpt>
      <trkpt lat="41.67203" lon="44.66743">
        <ele>1340.810392</ele>
        <time>2021-08-17T15:04:09.677Z</time>
      </trkpt>
      <trkpt lat="41.67216" lon="44.66805">
        <ele>1341.461625</ele>
        <time>2021-08-17T15:04:25.064Z</time>
      </trkpt>
      <trkpt lat="41.67228" lon="44.66846">
        <ele>1341.911336</ele>
        <time>2021-08-17T15:04:38.321Z</time>
      </trkpt>
      <trkpt lat="41.67315" lon="44.67061">
        <ele>1349.674637</ele>
        <time>2021-08-17T15:06:07.570Z</time>
      </trkpt>
      <trkpt lat="41.67362" lon="44.67151">
        <ele>1350.491452</ele>
        <time>2021-08-17T15:06:35.875Z</time>
      </trkpt>
      <trkpt lat="41.67372" lon="44.67176">
        <ele>1350.490576</ele>
        <time>2021-08-17T15:06:41.381Z</time>
      </trkpt>
      <trkpt lat="41.67392" lon="44.6728">
        <ele>1350.487312</ele>
        <time>2021-08-17T15:06:57.132Z</time>
      </trkpt>
      <trkpt lat="41.67496" lon="44.6746">
        <ele>1342.880653</ele>
        <time>2021-08-17T15:07:24.272Z</time>
      </trkpt>
      <trkpt lat="41.67507" lon="44.67513">
        <ele>1340.563293</ele>
        <time>2021-08-17T15:07:30.570Z</time>
      </trkpt>
      <trkpt lat="41.67512" lon="44.67561">
        <ele>1338.174487</ele>
        <time>2021-08-17T15:07:36.041Z</time>
      </trkpt>
      <trkpt lat="41.67515" lon="44.67584">
        <ele>1336.994267</ele>
        <time>2021-08-17T15:07:38.734Z</time>
      </trkpt>
      <trkpt lat="41.67526" lon="44.67655">
        <ele>1333.39807</ele>
        <time>2021-08-17T15:07:46.930Z</time>
      </trkpt>
      <trkpt lat="41.67541" lon="44.67708">
        <ele>1330.614978</ele>
        <time>2021-08-17T15:07:53.251Z</time>
      </trkpt>
      <trkpt lat="41.67613" lon="44.67897">
        <ele>1319.160261</ele>
        <time>2021-08-17T15:08:17.120Z</time>
      </trkpt>
      <trkpt lat="41.67642" lon="44.67949">
        <ele>1315.305492</ele>
        <time>2021-08-17T15:08:24.144Z</time>
      </trkpt>
      <trkpt lat="41.67658" lon="44.67971">
        <ele>1312.889035</ele>
        <time>2021-08-17T15:08:27.646Z</time>
      </trkpt>
      <trkpt lat="41.67678" lon="44.68003">
        <ele>1309.684614</ele>
        <time>2021-08-17T15:08:32.240Z</time>
      </trkpt>
      <trkpt lat="41.67754" lon="44.68062">
        <ele>1300.786397</ele>
        <time>2021-08-17T15:08:44.557Z</time>
      </trkpt>
      <trkpt lat="41.67797" lon="44.68168">
        <ele>1289.380755</ele>
        <time>2021-08-17T15:08:56.741Z</time>
      </trkpt>
      <trkpt lat="41.67811" lon="44.68185">
        <ele>1286.852643</ele>
        <time>2021-08-17T15:08:59.423Z</time>
      </trkpt>
      <trkpt lat="41.67818" lon="44.68188">
        <ele>1285.752715</ele>
        <time>2021-08-17T15:09:00.526Z</time>
      </trkpt>
      <trkpt lat="41.67828" lon="44.68188">
        <ele>1284.447852</ele>
        <time>2021-08-17T15:09:01.775Z</time>
      </trkpt>
      <trkpt lat="41.67923" lon="44.68149">
        <ele>1271.627561</ele>
        <time>2021-08-17T15:09:15.368Z</time>
      </trkpt>
      <trkpt lat="41.67948" lon="44.68153">
        <ele>1269.046434</ele>
        <time>2021-08-17T15:09:18.700Z</time>
      </trkpt>
      <trkpt lat="41.67958" lon="44.6817">
        <ele>1267.327254</ele>
        <time>2021-08-17T15:09:20.901Z</time>
      </trkpt>
      <trkpt lat="41.6796" lon="44.68197">
        <ele>1265.212009</ele>
        <time>2021-08-17T15:09:23.721Z</time>
      </trkpt>
      <trkpt lat="41.67957" lon="44.68217">
        <ele>1263.566777</ele>
        <time>2021-08-17T15:09:26.033Z</time>
      </trkpt>
      <trkpt lat="41.67912" lon="44.68463">
        <ele>1245.22924</ele>
        <time>2021-08-17T15:09:53.735Z</time>
      </trkpt>
      <trkpt lat="41.67907" lon="44.68501">
        <ele>1242.613363</ele>
        <time>2021-08-17T15:09:57.772Z</time>
      </trkpt>
      <trkpt lat="41.67908" lon="44.68574">
        <ele>1237.733547</ele>
        <time>2021-08-17T15:10:05.571Z</time>
      </trkpt>
      <trkpt lat="41.67905" lon="44.68662">
        <ele>1232.063509</ele>
        <time>2021-08-17T15:10:14.932Z</time>
      </trkpt>
      <trkpt lat="41.67909" lon="44.68672">
        <ele>1231.317533</ele>
        <time>2021-08-17T15:10:16.201Z</time>
      </trkpt>
      <trkpt lat="41.67911" lon="44.68676">
        <ele>1231.027701</ele>
        <time>2021-08-17T15:10:16.652Z</time>
      </trkpt>
      <trkpt lat="41.67916" lon="44.68678">
        <ele>1230.545318</ele>
        <time>2021-08-17T15:10:17.475Z</time>
      </trkpt>
      <trkpt lat="41.67925" lon="44.68678">
        <ele>1229.809131</ele>
        <time>2021-08-17T15:10:18.760Z</time>
      </trkpt>
      <trkpt lat="41.67937" lon="44.68664">
        <ele>1228.387112</ele>
        <time>2021-08-17T15:10:21.224Z</time>
      </trkpt>
      <trkpt lat="41.67959" lon="44.68571">
        <ele>1222.431981</ele>
        <time>2021-08-17T15:10:32.129Z</time>
      </trkpt>
      <trkpt lat="41.67976" lon="44.68523">
        <ele>1220.049851</ele>
        <time>2021-08-17T15:10:38.060Z</time>
      </trkpt>
      <trkpt lat="41.68062" lon="44.6833">
        <ele>1210.039087</ele>
        <time>2021-08-17T15:11:04.345Z</time>
      </trkpt>
      <trkpt lat="41.68066" lon="44.68324">
        <ele>1209.629909</ele>
        <time>2021-08-17T15:11:05.326Z</time>
      </trkpt>
      <trkpt lat="41.68078" lon="44.68321">
        <ele>1208.884964</ele>
        <time>2021-08-17T15:11:07.251Z</time>
      </trkpt>
      <trkpt lat="41.68082" lon="44.68328">
        <ele>1208.498858</ele>
        <time>2021-08-17T15:11:08.304Z</time>
      </trkpt>
      <trkpt lat="41.68082" lon="44.68343">
        <ele>1207.84032</ele>
        <time>2021-08-17T15:11:10.051Z</time>
      </trkpt>
      <trkpt lat="41.68079" lon="44.68355">
        <ele>1207.277591</ele>
        <time>2021-08-17T15:11:11.388Z</time>
      </trkpt>
      <trkpt lat="41.68059" lon="44.68427">
        <ele>1203.815763</ele>
        <time>2021-08-17T15:11:20.385Z</time>
      </trkpt>
      <trkpt lat="41.68058" lon="44.68434">
        <ele>1203.483518</ele>
        <time>2021-08-17T15:11:21.221Z</time>
      </trkpt>
      <trkpt lat="41.68041" lon="44.6853">
        <ele>1198.315343</ele>
        <time>2021-08-17T15:11:32.383Z</time>
      </trkpt>
      <trkpt lat="41.68028" lon="44.68667">
        <ele>1190.391558</ele>
        <time>2021-08-17T15:11:47.789Z</time>
      </trkpt>
      <trkpt lat="41.68041" lon="44.68821">
        <ele>1178.326302</ele>
        <time>2021-08-17T15:12:04.319Z</time>
      </trkpt>
      <trkpt lat="41.68035" lon="44.68924">
        <ele>1169.523001</ele>
        <time>2021-08-17T15:12:14.869Z</time>
      </trkpt>
      <trkpt lat="41.6803" lon="44.6896">
        <ele>1166.284274</ele>
        <time>2021-08-17T15:12:18.592Z</time>
      </trkpt>
      <trkpt lat="41.68028" lon="44.68973">
        <ele>1164.929658</ele>
        <time>2021-08-17T15:12:20.032Z</time>
      </trkpt>
      <trkpt lat="41.68025" lon="44.68988">
        <ele>1163.411379</ele>
        <time>2021-08-17T15:12:21.554Z</time>
      </trkpt>
      <trkpt lat="41.68019" lon="44.69041">
        <ele>1158.107901</ele>
        <time>2021-08-17T15:12:27.054Z</time>
      </trkpt>
      <trkpt lat="41.68019" lon="44.69173">
        <ele>1144.940607</ele>
        <time>2021-08-17T15:12:40.514Z</time>
      </trkpt>
      <trkpt lat="41.68028" lon="44.69222">
        <ele>1140.785734</ele>
        <time>2021-08-17T15:12:45.750Z</time>
      </trkpt>
      <trkpt lat="41.68035" lon="44.69239">
        <ele>1139.365152</ele>
        <time>2021-08-17T15:12:47.785Z</time>
      </trkpt>
      <trkpt lat="41.68049" lon="44.69255">
        <ele>1137.591556</ele>
        <time>2021-08-17T15:12:50.474Z</time>
      </trkpt>
      <trkpt lat="41.68058" lon="44.69262">
        <ele>1136.563951</ele>
        <time>2021-08-17T15:12:51.900Z</time>
      </trkpt>
      <trkpt lat="41.68063" lon="44.69265">
        <ele>1136.094155</ele>
        <time>2021-08-17T15:12:52.609Z</time>
      </trkpt>
      <trkpt lat="41.68072" lon="44.69271">
        <ele>1135.096758</ele>
        <time>2021-08-17T15:12:54.147Z</time>
      </trkpt>
      <trkpt lat="41.68077" lon="44.69273">
        <ele>1134.555114</ele>
        <time>2021-08-17T15:12:54.976Z</time>
      </trkpt>
      <trkpt lat="41.68101" lon="44.69283">
        <ele>1132.170714</ele>
        <time>2021-08-17T15:12:58.427Z</time>
      </trkpt>
      <trkpt lat="41.6811" lon="44.69285">
        <ele>1131.200838</ele>
        <time>2021-08-17T15:12:59.957Z</time>
      </trkpt>
      <trkpt lat="41.68133" lon="44.69289">
        <ele>1128.945088</ele>
        <time>2021-08-17T15:13:03.242Z</time>
      </trkpt>
      <trkpt lat="41.6815" lon="44.69288">
        <ele>1127.306006</ele>
        <time>2021-08-17T15:13:05.837Z</time>
      </trkpt>
      <trkpt lat="41.68165" lon="44.69281">
        <ele>1125.791627</ele>
        <time>2021-08-17T15:13:08.012Z</time>
      </trkpt>
      <trkpt lat="41.68178" lon="44.69269">
        <ele>1124.716101</ele>
        <time>2021-08-17T15:13:10.482Z</time>
      </trkpt>
      <trkpt lat="41.68191" lon="44.6925">
        <ele>1123.487263</ele>
        <time>2021-08-17T15:13:13.196Z</time>
      </trkpt>
      <trkpt lat="41.68275" lon="44.69062">
        <ele>1112.849098</ele>
        <time>2021-08-17T15:13:38.659Z</time>
      </trkpt>
      <trkpt lat="41.68286" lon="44.6905">
        <ele>1111.890801</ele>
        <time>2021-08-17T15:13:40.838Z</time>
      </trkpt>
      <trkpt lat="41.68318" lon="44.69037">
        <ele>1109.611782</ele>
        <time>2021-08-17T15:13:45.941Z</time>
      </trkpt>
      <trkpt lat="41.68326" lon="44.69041">
        <ele>1109.011076</ele>
        <time>2021-08-17T15:13:47.176Z</time>
      </trkpt>
      <trkpt lat="41.68333" lon="44.69045">
        <ele>1108.520454</ele>
        <time>2021-08-17T15:13:48.260Z</time>
      </trkpt>
      <trkpt lat="41.68356" lon="44.69067">
        <ele>1106.604019</ele>
        <time>2021-08-17T15:13:52.492Z</time>
      </trkpt>
      <trkpt lat="41.68363" lon="44.69088">
        <ele>1105.421959</ele>
        <time>2021-08-17T15:13:55.134Z</time>
      </trkpt>
      <trkpt lat="41.68375" lon="44.6917">
        <ele>1101.075135</ele>
        <time>2021-08-17T15:14:04.427Z</time>
      </trkpt>
      <trkpt lat="41.68384" lon="44.69184">
        <ele>1100.024558</ele>
        <time>2021-08-17T15:14:06.506Z</time>
      </trkpt>
      <trkpt lat="41.68391" lon="44.69194">
        <ele>1099.20629</ele>
        <time>2021-08-17T15:14:08.055Z</time>
      </trkpt>
      <trkpt lat="41.68413" lon="44.69202">
        <ele>1097.442738</ele>
        <time>2021-08-17T15:14:11.403Z</time>
      </trkpt>
      <trkpt lat="41.68442" lon="44.69191">
        <ele>1095.129403</ele>
        <time>2021-08-17T15:14:15.747Z</time>
      </trkpt>
      <trkpt lat="41.68456" lon="44.69164">
        <ele>1093.203071</ele>
        <time>2021-08-17T15:14:19.406Z</time>
      </trkpt>
      <trkpt lat="41.68477" lon="44.69076">
        <ele>1087.862218</ele>
        <time>2021-08-17T15:14:29.649Z</time>
      </trkpt>
      <trkpt lat="41.68492" lon="44.6906">
        <ele>1086.639045</ele>
        <time>2021-08-17T15:14:32.469Z</time>
      </trkpt>
      <trkpt lat="41.68503" lon="44.6906">
        <ele>1085.94708</ele>
        <time>2021-08-17T15:14:34.165Z</time>
      </trkpt>
      <trkpt lat="41.68512" lon="44.69063">
        <ele>1085.341531</ele>
        <time>2021-08-17T15:14:35.507Z</time>
      </trkpt>
      <trkpt lat="41.68519" lon="44.69071">
        <ele>1084.748788</ele>
        <time>2021-08-17T15:14:36.900Z</time>
      </trkpt>
      <trkpt lat="41.68525" lon="44.69082">
        <ele>1084.112383</ele>
        <time>2021-08-17T15:14:38.488Z</time>
      </trkpt>
      <trkpt lat="41.68529" lon="44.69108">
        <ele>1082.808129</ele>
        <time>2021-08-17T15:14:41.538Z</time>
      </trkpt>
      <trkpt lat="41.68493" lon="44.69406">
        <ele>1067.538557</ele>
        <time>2021-08-17T15:15:16.523Z</time>
      </trkpt>
      <trkpt lat="41.68498" lon="44.69452">
        <ele>1065.090359</ele>
        <time>2021-08-17T15:15:21.593Z</time>
      </trkpt>
      <trkpt lat="41.68506" lon="44.69474">
        <ele>1063.792201</ele>
        <time>2021-08-17T15:15:24.240Z</time>
      </trkpt>
      <trkpt lat="41.68517" lon="44.69495">
        <ele>1061.681461</ele>
        <time>2021-08-17T15:15:26.926Z</time>
      </trkpt>
      <trkpt lat="41.68528" lon="44.69509">
        <ele>1059.979363</ele>
        <time>2021-08-17T15:15:28.940Z</time>
      </trkpt>
      <trkpt lat="41.68538" lon="44.69524">
        <ele>1058.153261</ele>
        <time>2021-08-17T15:15:31.108Z</time>
      </trkpt>
      <trkpt lat="41.68572" lon="44.69564">
        <ele>1052.767512</ele>
        <time>2021-08-17T15:15:37.437Z</time>
      </trkpt>
      <trkpt lat="41.68605" lon="44.69612">
        <ele>1047.041003</ele>
        <time>2021-08-17T15:15:44.079Z</time>
      </trkpt>
      <trkpt lat="41.68618" lon="44.69628">
        <ele>1045.002959</ele>
        <time>2021-08-17T15:15:46.446Z</time>
      </trkpt>
      <trkpt lat="41.68629" lon="44.69636">
        <ele>1043.559999</ele>
        <time>2021-08-17T15:15:48.097Z</time>
      </trkpt>
      <trkpt lat="41.68676" lon="44.6965">
        <ele>1038.008329</ele>
        <time>2021-08-17T15:15:54.807Z</time>
      </trkpt>
      <trkpt lat="41.68733" lon="44.69657">
        <ele>1031.54677</ele>
        <time>2021-08-17T15:16:02.732Z</time>
      </trkpt>
      <trkpt lat="41.68738" lon="44.69658">
        <ele>1031.003864</ele>
        <time>2021-08-17T15:16:03.368Z</time>
      </trkpt>
      <trkpt lat="41.68817" lon="44.69664">
        <ele>1022.035686</ele>
        <time>2021-08-17T15:16:14.586Z</time>
      </trkpt>
      <trkpt lat="41.68822" lon="44.69664">
        <ele>1021.612435</ele>
        <time>2021-08-17T15:16:15.258Z</time>
      </trkpt>
      <trkpt lat="41.69021" lon="44.69682">
        <ele>1005.990309</ele>
        <time>2021-08-17T15:16:44.619Z</time>
      </trkpt>
      <trkpt lat="41.69055" lon="44.69677">
        <ele>1003.977288</ele>
        <time>2021-08-17T15:16:50.036Z</time>
      </trkpt>
      <trkpt lat="41.69071" lon="44.6967">
        <ele>1003.015164</ele>
        <time>2021-08-17T15:16:52.549Z</time>
      </trkpt>
      <trkpt lat="41.6908" lon="44.69664">
        <ele>1002.401372</ele>
        <time>2021-08-17T15:16:54.228Z</time>
      </trkpt>
      <trkpt lat="41.69185" lon="44.69577">
        <ele>994.82364</ele>
        <time>2021-08-17T15:17:13.511Z</time>
      </trkpt>
      <trkpt lat="41.69258" lon="44.69518">
        <ele>988.725251</ele>
        <time>2021-08-17T15:17:26.455Z</time>
      </trkpt>
      <trkpt lat="41.69317" lon="44.69471">
        <ele>983.719314</ele>
        <time>2021-08-17T15:17:36.684Z</time>
      </trkpt>
      <trkpt lat="41.69331" lon="44.6946">
        <ele>982.08856</ele>
        <time>2021-08-17T15:17:38.866Z</time>
      </trkpt>
      <trkpt lat="41.69341" lon="44.69452">
        <ele>980.96697</ele>
        <time>2021-08-17T15:17:40.538Z</time>
      </trkpt>
      <trkpt lat="41.69363" lon="44.69434">
        <ele>978.345747</ele>
        <time>2021-08-17T15:17:44.165Z</time>
      </trkpt>
      <trkpt lat="41.69378" lon="44.69421">
        <ele>976.548761</ele>
        <time>2021-08-17T15:17:46.788Z</time>
      </trkpt>
      <trkpt lat="41.69399" lon="44.69414">
        <ele>974.30052</ele>
        <time>2021-08-17T15:17:49.872Z</time>
      </trkpt>
      <trkpt lat="41.69426" lon="44.6942">
        <ele>971.621915</ele>
        <time>2021-08-17T15:17:53.611Z</time>
      </trkpt>
      <trkpt lat="41.69454" lon="44.69434">
        <ele>968.51158</ele>
        <time>2021-08-17T15:17:57.981Z</time>
      </trkpt>
      <trkpt lat="41.69461" lon="44.6944">
        <ele>967.696668</ele>
        <time>2021-08-17T15:17:59.054Z</time>
      </trkpt>
      <trkpt lat="41.69461" lon="44.6944">
        <ele>967.696668</ele>
        <time>2021-08-17T15:17:59.073Z</time>
      </trkpt>
      <trkpt lat="41.69471" lon="44.69448">
        <ele>966.512936</ele>
        <time>2021-08-17T15:18:00.795Z</time>
      </trkpt>
      <trkpt lat="41.69492" lon="44.69482">
        <ele>963.613633</ele>
        <time>2021-08-17T15:18:05.405Z</time>
      </trkpt>
      <trkpt lat="41.69496" lon="44.69499">
        <ele>962.516977</ele>
        <time>2021-08-17T15:18:07.275Z</time>
      </trkpt>
      <trkpt lat="41.69509" lon="44.69563">
        <ele>958.245065</ele>
        <time>2021-08-17T15:18:14.419Z</time>
      </trkpt>
      <trkpt lat="41.69538" lon="44.69712">
        <ele>949.388866</ele>
        <time>2021-08-17T15:18:31.553Z</time>
      </trkpt>
      <trkpt lat="41.6954" lon="44.69717">
        <ele>949.190744</ele>
        <time>2021-08-17T15:18:32.257Z</time>
      </trkpt>
      <trkpt lat="41.69543" lon="44.69734">
        <ele>948.602202</ele>
        <time>2021-08-17T15:18:34.297Z</time>
      </trkpt>
      <trkpt lat="41.69545" lon="44.69742">
        <ele>948.305618</ele>
        <time>2021-08-17T15:18:35.314Z</time>
      </trkpt>
      <trkpt lat="41.69551" lon="44.69774">
        <ele>947.198904</ele>
        <time>2021-08-17T15:18:39.217Z</time>
      </trkpt>
      <trkpt lat="41.69564" lon="44.69829">
        <ele>945.244428</ele>
        <time>2021-08-17T15:18:46.190Z</time>
      </trkpt>
      <trkpt lat="41.69567" lon="44.69841">
        <ele>944.82198</ele>
        <time>2021-08-17T15:18:47.741Z</time>
      </trkpt>
      <trkpt lat="41.69569" lon="44.6985">
        <ele>944.490233</ele>
        <time>2021-08-17T15:18:48.942Z</time>
      </trkpt>
      <trkpt lat="41.69571" lon="44.69854">
        <ele>944.316631</ele>
        <time>2021-08-17T15:18:49.609Z</time>
      </trkpt>
      <trkpt lat="41.69574" lon="44.69866">
        <ele>943.893924</ele>
        <time>2021-08-17T15:18:51.213Z</time>
      </trkpt>
      <trkpt lat="41.69578" lon="44.69874">
        <ele>943.569545</ele>
        <time>2021-08-17T15:18:52.399Z</time>
      </trkpt>
      <trkpt lat="41.69601" lon="44.69914">
        <ele>942.148203</ele>
        <time>2021-08-17T15:18:59.042Z</time>
      </trkpt>
      <trkpt lat="41.69617" lon="44.69938">
        <ele>941.773998</ele>
        <time>2021-08-17T15:19:03.390Z</time>
      </trkpt>
      <trkpt lat="41.69642" lon="44.6997">
        <ele>941.246808</ele>
        <time>2021-08-17T15:19:09.652Z</time>
      </trkpt>
      <trkpt lat="41.69666" lon="44.70005">
        <ele>940.69592</ele>
        <time>2021-08-17T15:19:16.376Z</time>
      </trkpt>
      <trkpt lat="41.69704" lon="44.70053">
        <ele>939.874267</ele>
        <time>2021-08-17T15:19:27.047Z</time>
      </trkpt>
      <trkpt lat="41.6971" lon="44.70058">
        <ele>939.769017</ele>
        <time>2021-08-17T15:19:28.338Z</time>
      </trkpt>
      <trkpt lat="41.69716" lon="44.70062">
        <ele>939.66417</ele>
        <time>2021-08-17T15:19:29.699Z</time>
      </trkpt>
      <trkpt lat="41.69718" lon="44.70064">
        <ele>939.629133</ele>
        <time>2021-08-17T15:19:30.180Z</time>
      </trkpt>
      <trkpt lat="41.69726" lon="44.70069">
        <ele>939.496851</ele>
        <time>2021-08-17T15:19:32.147Z</time>
      </trkpt>
      <trkpt lat="41.69753" lon="44.70087">
        <ele>939.246128</ele>
        <time>2021-08-17T15:19:38.434Z</time>
      </trkpt>
      <trkpt lat="41.69807" lon="44.70119">
        <ele>938.753504</ele>
        <time>2021-08-17T15:19:50.784Z</time>
      </trkpt>
      <trkpt lat="41.69835" lon="44.70135">
        <ele>938.49928</ele>
        <time>2021-08-17T15:19:57.130Z</time>
      </trkpt>
      <trkpt lat="41.69851" lon="44.70147">
        <ele>938.342268</ele>
        <time>2021-08-17T15:20:00.872Z</time>
      </trkpt>
      <trkpt lat="41.69866" lon="44.70162">
        <ele>938.184719</ele>
        <time>2021-08-17T15:20:04.685Z</time>
      </trkpt>
      <trkpt lat="41.69879" lon="44.70177">
        <ele>938.044135</ele>
        <time>2021-08-17T15:20:07.980Z</time>
      </trkpt>
      <trkpt lat="41.69885" lon="44.70191">
        <ele>937.720425</ele>
        <time>2021-08-17T15:20:10.515Z</time>
      </trkpt>
      <trkpt lat="41.69888" lon="44.70203">
        <ele>937.398677</ele>
        <time>2021-08-17T15:20:12.254Z</time>
      </trkpt>
      <trkpt lat="41.69903" lon="44.70245">
        <ele>936.169356</ele>
        <time>2021-08-17T15:20:18.544Z</time>
      </trkpt>
      <trkpt lat="41.69934" lon="44.7034">
        <ele>933.430317</ele>
        <time>2021-08-17T15:20:31.512Z</time>
      </trkpt>
      <trkpt lat="41.6995" lon="44.70378">
        <ele>932.269312</ele>
        <time>2021-08-17T15:20:36.726Z</time>
      </trkpt>
      <trkpt lat="41.69973" lon="44.7044">
        <ele>929.461386</ele>
        <time>2021-08-17T15:20:44.798Z</time>
      </trkpt>
      <trkpt lat="41.69984" lon="44.70473">
        <ele>927.700333</ele>
        <time>2021-08-17T15:20:49.001Z</time>
      </trkpt>
      <trkpt lat="41.69993" lon="44.70494">
        <ele>926.587544</ele>
        <time>2021-08-17T15:20:51.628Z</time>
      </trkpt>
      <trkpt lat="41.69998" lon="44.705">
        <ele>926.107679</ele>
        <time>2021-08-17T15:20:52.748Z</time>
      </trkpt>
      <trkpt lat="41.70016" lon="44.70502">
        <ele>924.942366</ele>
        <time>2021-08-17T15:20:55.516Z</time>
      </trkpt>
      <trkpt lat="41.70031" lon="44.70496">
        <ele>923.978819</ele>
        <time>2021-08-17T15:20:57.756Z</time>
      </trkpt>
      <trkpt lat="41.70057" lon="44.70481">
        <ele>922.13627</ele>
        <time>2021-08-17T15:21:02.036Z</time>
      </trkpt>
      <trkpt lat="41.70161" lon="44.70371">
        <ele>913.727611</ele>
        <time>2021-08-17T15:21:21.932Z</time>
      </trkpt>
      <trkpt lat="41.70216" lon="44.70302">
        <ele>908.95303</ele>
        <time>2021-08-17T15:21:33.677Z</time>
      </trkpt>
      <trkpt lat="41.70236" lon="44.70263">
        <ele>906.578894</ele>
        <time>2021-08-17T15:21:39.264Z</time>
      </trkpt>
      <trkpt lat="41.70247" lon="44.70224">
        <ele>904.466698</ele>
        <time>2021-08-17T15:21:44.027Z</time>
      </trkpt>
      <trkpt lat="41.7026" lon="44.70149">
        <ele>900.524367</ele>
        <time>2021-08-17T15:21:52.547Z</time>
      </trkpt>
      <trkpt lat="41.70263" lon="44.70099">
        <ele>897.942044</ele>
        <time>2021-08-17T15:21:58.185Z</time>
      </trkpt>
      <trkpt lat="41.70272" lon="44.70081">
        <ele>896.862999</ele>
        <time>2021-08-17T15:22:00.776Z</time>
      </trkpt>
      <trkpt lat="41.70282" lon="44.70071">
        <ele>895.881697</ele>
        <time>2021-08-17T15:22:02.639Z</time>
      </trkpt>
      <trkpt lat="41.70282" lon="44.70071">
        <ele>895.881697</ele>
        <time>2021-08-17T15:22:02.856Z</time>
      </trkpt>
      <trkpt lat="41.70282" lon="44.70071">
        <ele>895.881697</ele>
        <time>2021-08-17T15:22:02.878Z</time>
      </trkpt>
      <trkpt lat="41.70291" lon="44.70069">
        <ele>895.050561</ele>
        <time>2021-08-17T15:22:04.132Z</time>
      </trkpt>
      <trkpt lat="41.70313" lon="44.7008">
        <ele>892.9367</ele>
        <time>2021-08-17T15:22:07.908Z</time>
      </trkpt>
      <trkpt lat="41.70315" lon="44.70085">
        <ele>892.493432</ele>
        <time>2021-08-17T15:22:08.580Z</time>
      </trkpt>
      <trkpt lat="41.70319" lon="44.70092">
        <ele>891.929867</ele>
        <time>2021-08-17T15:22:09.412Z</time>
      </trkpt>
      <trkpt lat="41.70342" lon="44.70205">
        <ele>883.877851</ele>
        <time>2021-08-17T15:22:22.054Z</time>
      </trkpt>
      <trkpt lat="41.70361" lon="44.70242">
        <ele>880.845265</ele>
        <time>2021-08-17T15:22:26.707Z</time>
      </trkpt>
      <trkpt lat="41.70376" lon="44.70253">
        <ele>879.129552</ele>
        <time>2021-08-17T15:22:29.160Z</time>
      </trkpt>
      <trkpt lat="41.70394" lon="44.70263">
        <ele>876.916161</ele>
        <time>2021-08-17T15:22:31.901Z</time>
      </trkpt>
      <trkpt lat="41.70401" lon="44.70264">
        <ele>876.132253</ele>
        <time>2021-08-17T15:22:32.962Z</time>
      </trkpt>
      <trkpt lat="41.70422" lon="44.70262">
        <ele>873.758956</ele>
        <time>2021-08-17T15:22:35.807Z</time>
      </trkpt>
      <trkpt lat="41.70516" lon="44.70241">
        <ele>862.803586</ele>
        <time>2021-08-17T15:22:49.132Z</time>
      </trkpt>
      <trkpt lat="41.70545" lon="44.7024">
        <ele>859.466137</ele>
        <time>2021-08-17T15:22:53.141Z</time>
      </trkpt>
      <trkpt lat="41.70554" lon="44.70248">
        <ele>858.2968</ele>
        <time>2021-08-17T15:22:54.506Z</time>
      </trkpt>
      <trkpt lat="41.70563" lon="44.7026">
        <ele>856.845466</ele>
        <time>2021-08-17T15:22:56.231Z</time>
      </trkpt>
      <trkpt lat="41.70627" lon="44.70443">
        <ele>839.51699</ele>
        <time>2021-08-17T15:23:17.226Z</time>
      </trkpt>
      <trkpt lat="41.70652" lon="44.70569">
        <ele>830.557897</ele>
        <time>2021-08-17T15:23:31.289Z</time>
      </trkpt>
      <trkpt lat="41.70666" lon="44.706">
        <ele>828.158546</ele>
        <time>2021-08-17T15:23:35.176Z</time>
      </trkpt>
      <trkpt lat="41.70725" lon="44.70616">
        <ele>822.740594</ele>
        <time>2021-08-17T15:23:43.974Z</time>
      </trkpt>
      <trkpt lat="41.70754" lon="44.70608">
        <ele>820.270831</ele>
        <time>2021-08-17T15:23:48.386Z</time>
      </trkpt>
      <trkpt lat="41.70812" lon="44.70575">
        <ele>815.125862</ele>
        <time>2021-08-17T15:23:57.635Z</time>
      </trkpt>
      <trkpt lat="41.70836" lon="44.70586">
        <ele>813.01567</ele>
        <time>2021-08-17T15:24:01.403Z</time>
      </trkpt>
      <trkpt lat="41.70852" lon="44.70611">
        <ele>811.045969</ele>
        <time>2021-08-17T15:24:04.923Z</time>
      </trkpt>
      <trkpt lat="41.70856" lon="44.70626">
        <ele>810.06118</ele>
        <time>2021-08-17T15:24:06.671Z</time>
      </trkpt>
      <trkpt lat="41.70852" lon="44.70663">
        <ele>807.747411</ele>
        <time>2021-08-17T15:24:10.792Z</time>
      </trkpt>
      <trkpt lat="41.7079" lon="44.7082">
        <ele>796.880705</ele>
        <time>2021-08-17T15:24:30.147Z</time>
      </trkpt>
      <trkpt lat="41.70785" lon="44.70857">
        <ele>794.565819</ele>
        <time>2021-08-17T15:24:34.354Z</time>
      </trkpt>
      <trkpt lat="41.7079" lon="44.70882">
        <ele>792.994638</ele>
        <time>2021-08-17T15:24:37.209Z</time>
      </trkpt>
      <trkpt lat="41.7081" lon="44.70894">
        <ele>791.341334</ele>
        <time>2021-08-17T15:24:40.471Z</time>
      </trkpt>
      <trkpt lat="41.70827" lon="44.70894">
        <ele>790.009862</ele>
        <time>2021-08-17T15:24:42.999Z</time>
      </trkpt>
      <trkpt lat="41.70878" lon="44.70864">
        <ele>785.828301</ele>
        <time>2021-08-17T15:24:51.124Z</time>
      </trkpt>
      <trkpt lat="41.70905" lon="44.70857">
        <ele>783.727427</ele>
        <time>2021-08-17T15:24:55.234Z</time>
      </trkpt>
      <trkpt lat="41.70921" lon="44.70859">
        <ele>782.471212</ele>
        <time>2021-08-17T15:24:57.796Z</time>
      </trkpt>
      <trkpt lat="41.70928" lon="44.7087">
        <ele>781.646265</ele>
        <time>2021-08-17T15:24:59.373Z</time>
      </trkpt>
      <trkpt lat="41.70935" lon="44.70887">
        <ele>780.60806</ele>
        <time>2021-08-17T15:25:01.473Z</time>
      </trkpt>
      <trkpt lat="41.70936" lon="44.70905">
        <ele>779.573088</ele>
        <time>2021-08-17T15:25:03.550Z</time>
      </trkpt>
      <trkpt lat="41.70936" lon="44.70931">
        <ele>778.305189</ele>
        <time>2021-08-17T15:25:06.378Z</time>
      </trkpt>
      <trkpt lat="41.70925" lon="44.7101">
        <ele>774.380367</ele>
        <time>2021-08-17T15:25:15.444Z</time>
      </trkpt>
      <trkpt lat="41.70913" lon="44.7106">
        <ele>771.81166</ele>
        <time>2021-08-17T15:25:21.402Z</time>
      </trkpt>
      <trkpt lat="41.70898" lon="44.71112">
        <ele>769.122647</ele>
        <time>2021-08-17T15:25:27.642Z</time>
      </trkpt>
      <trkpt lat="41.70885" lon="44.71149">
        <ele>767.420474</ele>
        <time>2021-08-17T15:25:32.609Z</time>
      </trkpt>
      <trkpt lat="41.70863" lon="44.71197">
        <ele>765.981201</ele>
        <time>2021-08-17T15:25:39.381Z</time>
      </trkpt>
      <trkpt lat="41.70865" lon="44.71228">
        <ele>765.156026</ele>
        <time>2021-08-17T15:25:43.328Z</time>
      </trkpt>
      <trkpt lat="41.70871" lon="44.71249">
        <ele>764.586005</ele>
        <time>2021-08-17T15:25:46.061Z</time>
      </trkpt>
      <trkpt lat="41.70883" lon="44.7126">
        <ele>764.053587</ele>
        <time>2021-08-17T15:25:48.622Z</time>
      </trkpt>
      <trkpt lat="41.70898" lon="44.71267">
        <ele>763.51555</ele>
        <time>2021-08-17T15:25:51.305Z</time>
      </trkpt>
      <trkpt lat="41.70913" lon="44.71267">
        <ele>762.986227</ele>
        <time>2021-08-17T15:25:54.008Z</time>
      </trkpt>
      <trkpt lat="41.70927" lon="44.71264">
        <ele>762.505371</ele>
        <time>2021-08-17T15:25:56.519Z</time>
      </trkpt>
      <trkpt lat="41.7094" lon="44.71252">
        <ele>761.93817</ele>
        <time>2021-08-17T15:25:59.476Z</time>
      </trkpt>
      <trkpt lat="41.70963" lon="44.71212">
        <ele>761.124493</ele>
        <time>2021-08-17T15:26:06.568Z</time>
      </trkpt>
      <trkpt lat="41.70966" lon="44.71206">
        <ele>761.050315</ele>
        <time>2021-08-17T15:26:07.479Z</time>
      </trkpt>
      <trkpt lat="41.70985" lon="44.71152">
        <ele>760.39512</ele>
        <time>2021-08-17T15:26:15.956Z</time>
      </trkpt>
      <trkpt lat="41.70997" lon="44.71107">
        <ele>759.870869</ele>
        <time>2021-08-17T15:26:23.253Z</time>
      </trkpt>
      <trkpt lat="41.71006" lon="44.71067">
        <ele>759.417416</ele>
        <time>2021-08-17T15:26:29.497Z</time>
      </trkpt>
      <trkpt lat="41.71028" lon="44.70959">
        <ele>757.330716</ele>
        <time>2021-08-17T15:26:45.508Z</time>
      </trkpt>
      <trkpt lat="41.71038" lon="44.70853">
        <ele>754.705414</ele>
        <time>2021-08-17T15:26:59.152Z</time>
      </trkpt>
      <trkpt lat="41.71074" lon="44.70687">
        <ele>748.644241</ele>
        <time>2021-08-17T15:27:19.591Z</time>
      </trkpt>
      <trkpt lat="41.7109" lon="44.70653">
        <ele>746.926461</ele>
        <time>2021-08-17T15:27:24.204Z</time>
      </trkpt>
      <trkpt lat="41.71118" lon="44.7063">
        <ele>745.061763</ele>
        <time>2021-08-17T15:27:29.171Z</time>
      </trkpt>
      <trkpt lat="41.71143" lon="44.70596">
        <ele>743.033741</ele>
        <time>2021-08-17T15:27:34.619Z</time>
      </trkpt>
      <trkpt lat="41.7118" lon="44.70389">
        <ele>734.463079</ele>
        <time>2021-08-17T15:27:59.661Z</time>
      </trkpt>
      <trkpt lat="41.71208" lon="44.70293">
        <ele>730.65738</ele>
        <time>2021-08-17T15:28:11.772Z</time>
      </trkpt>
      <trkpt lat="41.71218" lon="44.70231">
        <ele>728.381297</ele>
        <time>2021-08-17T15:28:19.481Z</time>
      </trkpt>
      <trkpt lat="41.71219" lon="44.7022">
        <ele>727.999048</ele>
        <time>2021-08-17T15:28:20.671Z</time>
      </trkpt>
      <trkpt lat="41.71225" lon="44.70168">
        <ele>726.099091</ele>
        <time>2021-08-17T15:28:27.144Z</time>
      </trkpt>
      <trkpt lat="41.71232" lon="44.7011">
        <ele>723.969934</ele>
        <time>2021-08-17T15:28:34.286Z</time>
      </trkpt>
      <trkpt lat="41.71248" lon="44.69908">
        <ele>715.970911</ele>
        <time>2021-08-17T15:28:58.698Z</time>
      </trkpt>
      <trkpt lat="41.71255" lon="44.69876">
        <ele>714.488648</ele>
        <time>2021-08-17T15:29:02.505Z</time>
      </trkpt>
      <trkpt lat="41.71291" lon="44.6976">
        <ele>705.860007</ele>
        <time>2021-08-17T15:29:16.024Z</time>
      </trkpt>
      <trkpt lat="41.7131" lon="44.69725">
        <ele>702.931353</ele>
        <time>2021-08-17T15:29:20.536Z</time>
      </trkpt>
      <trkpt lat="41.71322" lon="44.69717">
        <ele>701.726114</ele>
        <time>2021-08-17T15:29:22.522Z</time>
      </trkpt>
      <trkpt lat="41.71329" lon="44.69715">
        <ele>701.096539</ele>
        <time>2021-08-17T15:29:23.447Z</time>
      </trkpt>
      <trkpt lat="41.71338" lon="44.69713">
        <ele>700.243633</ele>
        <time>2021-08-17T15:29:24.720Z</time>
      </trkpt>
      <trkpt lat="41.71367" lon="44.69725">
        <ele>697.649817</ele>
        <time>2021-08-17T15:29:29.066Z</time>
      </trkpt>
      <trkpt lat="41.71379" lon="44.69744">
        <ele>696.248012</ele>
        <time>2021-08-17T15:29:31.770Z</time>
      </trkpt>
      <trkpt lat="41.7139" lon="44.69765">
        <ele>694.835735</ele>
        <time>2021-08-17T15:29:34.433Z</time>
      </trkpt>
      <trkpt lat="41.71401" lon="44.69816">
        <ele>691.832556</ele>
        <time>2021-08-17T15:29:40.147Z</time>
      </trkpt>
      <trkpt lat="41.71401" lon="44.69976">
        <ele>683.756688</ele>
        <time>2021-08-17T15:29:58.689Z</time>
      </trkpt>
      <trkpt lat="41.71401" lon="44.69987">
        <ele>683.383836</ele>
        <time>2021-08-17T15:30:00.091Z</time>
      </trkpt>
      <trkpt lat="41.7141" lon="44.7008">
        <ele>680.353219</ele>
        <time>2021-08-17T15:30:12.228Z</time>
      </trkpt>
      <trkpt lat="41.71386" lon="44.70166">
        <ele>677.349303</ele>
        <time>2021-08-17T15:30:23.663Z</time>
      </trkpt>
      <trkpt lat="41.71365" lon="44.70484">
        <ele>661.518841</ele>
        <time>2021-08-17T15:30:59.877Z</time>
      </trkpt>
      <trkpt lat="41.71381" lon="44.70595">
        <ele>654.728036</ele>
        <time>2021-08-17T15:31:12.090Z</time>
      </trkpt>
      <trkpt lat="41.71379" lon="44.70665">
        <ele>650.467411</ele>
        <time>2021-08-17T15:31:19.704Z</time>
      </trkpt>
      <trkpt lat="41.71366" lon="44.70738">
        <ele>645.860819</ele>
        <time>2021-08-17T15:31:27.805Z</time>
      </trkpt>
      <trkpt lat="41.71332" lon="44.70837">
        <ele>639.142235</ele>
        <time>2021-08-17T15:31:39.807Z</time>
      </trkpt>
      <trkpt lat="41.7132" lon="44.70888">
        <ele>635.922705</ele>
        <time>2021-08-17T15:31:45.648Z</time>
      </trkpt>
      <trkpt lat="41.71304" lon="44.71035">
        <ele>627.081965</ele>
        <time>2021-08-17T15:32:02.140Z</time>
      </trkpt>
      <trkpt lat="41.71299" lon="44.71337">
        <ele>607.995671</ele>
        <time>2021-08-17T15:32:35.019Z</time>
      </trkpt>
      <trkpt lat="41.71305" lon="44.71505">
        <ele>596.814886</ele>
        <time>2021-08-17T15:32:53.119Z</time>
      </trkpt>
      <trkpt lat="41.71305" lon="44.71737">
        <ele>581.170156</ele>
        <time>2021-08-17T15:33:18.205Z</time>
      </trkpt>
      <trkpt lat="41.71302" lon="44.71771">
        <ele>578.904081</ele>
        <time>2021-08-17T15:33:21.833Z</time>
      </trkpt>
      <trkpt lat="41.71273" lon="44.71994">
        <ele>563.588837</ele>
        <time>2021-08-17T15:33:46.366Z</time>
      </trkpt>
      <trkpt lat="41.7126" lon="44.72098">
        <ele>556.557247</ele>
        <time>2021-08-17T15:33:57.663Z</time>
      </trkpt>
      <trkpt lat="41.71259" lon="44.72118">
        <ele>555.266149</ele>
        <time>2021-08-17T15:33:59.765Z</time>
      </trkpt>
      <trkpt lat="41.71257" lon="44.72136">
        <ele>554.073948</ele>
        <time>2021-08-17T15:34:01.801Z</time>
      </trkpt>
      <trkpt lat="41.71256" lon="44.72153">
        <ele>552.958551</ele>
        <time>2021-08-17T15:34:03.668Z</time>
      </trkpt>
      <trkpt lat="41.71255" lon="44.72168">
        <ele>552.03647</ele>
        <time>2021-08-17T15:34:05.180Z</time>
      </trkpt>
      <trkpt lat="41.71253" lon="44.7227">
        <ele>545.411819</ele>
        <time>2021-08-17T15:34:16.314Z</time>
      </trkpt>
      <trkpt lat="41.7125" lon="44.72311">
        <ele>542.806394</ele>
        <time>2021-08-17T15:34:20.706Z</time>
      </trkpt>
      <trkpt lat="41.71243" lon="44.72345">
        <ele>541.824711</ele>
        <time>2021-08-17T15:34:24.727Z</time>
      </trkpt>
      <trkpt lat="41.71232" lon="44.72378">
        <ele>541.097976</ele>
        <time>2021-08-17T15:34:29.000Z</time>
      </trkpt>
      <trkpt lat="41.71213" lon="44.72416">
        <ele>540.192018</ele>
        <time>2021-08-17T15:34:34.608Z</time>
      </trkpt>
      <trkpt lat="41.71192" lon="44.72462">
        <ele>539.12498</ele>
        <time>2021-08-17T15:34:41.710Z</time>
      </trkpt>
      <trkpt lat="41.71094" lon="44.72669">
        <ele>539.863246</ele>
        <time>2021-08-17T15:35:39.834Z</time>
      </trkpt>
      <trkpt lat="41.71079" lon="44.72704">
        <ele>540.393612</ele>
        <time>2021-08-17T15:35:50.229Z</time>
      </trkpt>
      <trkpt lat="41.71058" lon="44.72748">
        <ele>540.577665</ele>
        <time>2021-08-17T15:36:02.629Z</time>
      </trkpt>
      <trkpt lat="41.71051" lon="44.72767">
        <ele>540.330097</ele>
        <time>2021-08-17T15:36:07.038Z</time>
      </trkpt>
      <trkpt lat="41.71044" lon="44.72801">
        <ele>539.934866</ele>
        <time>2021-08-17T15:36:14.029Z</time>
      </trkpt>
      <trkpt lat="41.71039" lon="44.72823">
        <ele>539.671655</ele>
        <time>2021-08-17T15:36:17.425Z</time>
      </trkpt>
      <trkpt lat="41.71024" lon="44.73016">
        <ele>536.519618</ele>
        <time>2021-08-17T15:36:42.145Z</time>
      </trkpt>
      <trkpt lat="41.71021" lon="44.73052">
        <ele>535.470861</ele>
        <time>2021-08-17T15:36:46.554Z</time>
      </trkpt>
      <trkpt lat="41.71016" lon="44.73087">
        <ele>534.440513</ele>
        <time>2021-08-17T15:36:51.026Z</time>
      </trkpt>
      <trkpt lat="41.71013" lon="44.73107">
        <ele>533.830853</ele>
        <time>2021-08-17T15:36:53.630Z</time>
      </trkpt>
      <trkpt lat="41.71008" lon="44.73155">
        <ele>532.434974</ele>
        <time>2021-08-17T15:36:59.390Z</time>
      </trkpt>
      <trkpt lat="41.71003" lon="44.73195">
        <ele>531.256454</ele>
        <time>2021-08-17T15:37:04.236Z</time>
      </trkpt>
      <trkpt lat="41.71002" lon="44.73206">
        <ele>531.009862</ele>
        <time>2021-08-17T15:37:05.583Z</time>
      </trkpt>
      <trkpt lat="41.70995" lon="44.73263">
        <ele>530.342731</ele>
        <time>2021-08-17T15:37:12.873Z</time>
      </trkpt>
      <trkpt lat="41.70989" lon="44.73293">
        <ele>529.980453</ele>
        <time>2021-08-17T15:37:17.077Z</time>
      </trkpt>
      <trkpt lat="41.70982" lon="44.73319">
        <ele>529.671271</ele>
        <time>2021-08-17T15:37:21.748Z</time>
      </trkpt>
      <trkpt lat="41.70977" lon="44.7333">
        <ele>529.527036</ele>
        <time>2021-08-17T15:37:23.533Z</time>
      </trkpt>
      <trkpt lat="41.70971" lon="44.73344">
        <ele>529.337142</ele>
        <time>2021-08-17T15:37:25.817Z</time>
      </trkpt>
      <trkpt lat="41.70954" lon="44.73364">
        <ele>528.992857</ele>
        <time>2021-08-17T15:37:31.465Z</time>
      </trkpt>
      <trkpt lat="41.70939" lon="44.7337">
        <ele>528.739895</ele>
        <time>2021-08-17T15:37:34.583Z</time>
      </trkpt>
      <trkpt lat="41.7092" lon="44.73371">
        <ele>528.451337</ele>
        <time>2021-08-17T15:37:39.599Z</time>
      </trkpt>
      <trkpt lat="41.70894" lon="44.73371">
        <ele>528.68424</ele>
        <time>2021-08-17T15:37:45.506Z</time>
      </trkpt>
      <trkpt lat="41.70875" lon="44.73371">
        <ele>529.145453</ele>
        <time>2021-08-17T15:37:49.338Z</time>
      </trkpt>
      <trkpt lat="41.70866" lon="44.73373">
        <ele>529.35337</ele>
        <time>2021-08-17T15:37:51.156Z</time>
      </trkpt>
      <trkpt lat="41.70838" lon="44.73385">
        <ele>530.083808</ele>
        <time>2021-08-17T15:38:01.153Z</time>
      </trkpt>
      <trkpt lat="41.7076" lon="44.7343">
        <ele>532.158029</ele>
        <time>2021-08-17T15:38:35.736Z</time>
      </trkpt>
      <trkpt lat="41.7074" lon="44.73461">
        <ele>533.028914</ele>
        <time>2021-08-17T15:38:49.023Z</time>
      </trkpt>
      <trkpt lat="41.70727" lon="44.73492">
        <ele>533.995701</ele>
        <time>2021-08-17T15:39:00.506Z</time>
      </trkpt>
      <trkpt lat="41.70721" lon="44.73497">
        <ele>534.237926</ele>
        <time>2021-08-17T15:39:02.760Z</time>
      </trkpt>
      <trkpt lat="41.70697" lon="44.7353">
        <ele>535.489959</ele>
        <time>2021-08-17T15:39:14.929Z</time>
      </trkpt>
      <trkpt lat="41.70627" lon="44.73547">
        <ele>538.066094</ele>
        <time>2021-08-17T15:39:42.515Z</time>
      </trkpt>
      <trkpt lat="41.70586" lon="44.73574">
        <ele>539.825942</ele>
        <time>2021-08-17T15:40:02.732Z</time>
      </trkpt>
      <trkpt lat="41.7058" lon="44.73585">
        <ele>540.264386</ele>
        <time>2021-08-17T15:40:07.536Z</time>
      </trkpt>
      <trkpt lat="41.70578" lon="44.73595">
        <ele>540.606738</ele>
        <time>2021-08-17T15:40:11.091Z</time>
      </trkpt>
      <trkpt lat="41.70578" lon="44.73613">
        <ele>541.196433</ele>
        <time>2021-08-17T15:40:16.958Z</time>
      </trkpt>
      <trkpt lat="41.70581" lon="44.73626">
        <ele>541.65201</ele>
        <time>2021-08-17T15:40:21.500Z</time>
      </trkpt>
      <trkpt lat="41.70599" lon="44.73662">
        <ele>543.047327</ele>
        <time>2021-08-17T15:40:36.151Z</time>
      </trkpt>
      <trkpt lat="41.70618" lon="44.7368">
        <ele>544.080473</ele>
        <time>2021-08-17T15:40:47.413Z</time>
      </trkpt>
      <trkpt lat="41.70674" lon="44.73718">
        <ele>546.833875</ele>
        <time>2021-08-17T15:41:15.880Z</time>
      </trkpt>
      <trkpt lat="41.70721" lon="44.73748">
        <ele>547.074171</ele>
        <time>2021-08-17T15:41:36.842Z</time>
      </trkpt>
      <trkpt lat="41.70756" lon="44.73781">
        <ele>547.049899</ele>
        <time>2021-08-17T15:41:50.202Z</time>
      </trkpt>
      <trkpt lat="41.70779" lon="44.73821">
        <ele>547.02866</ele>
        <time>2021-08-17T15:41:58.024Z</time>
      </trkpt>
      <trkpt lat="41.70806" lon="44.73883">
        <ele>546.991865</ele>
        <time>2021-08-17T15:42:07.523Z</time>
      </trkpt>
      <trkpt lat="41.70917" lon="44.74064">
        <ele>534.476978</ele>
        <time>2021-08-17T15:42:33.539Z</time>
      </trkpt>
      <trkpt lat="41.70927" lon="44.74081">
        <ele>533.068172</ele>
        <time>2021-08-17T15:42:35.682Z</time>
      </trkpt>
      <trkpt lat="41.70943" lon="44.74112">
        <ele>530.169807</ele>
        <time>2021-08-17T15:42:39.831Z</time>
      </trkpt>
      <trkpt lat="41.7096" lon="44.74143">
        <ele>527.361571</ele>
        <time>2021-08-17T15:42:43.829Z</time>
      </trkpt>
      <trkpt lat="41.70974" lon="44.74166">
        <ele>525.145702</ele>
        <time>2021-08-17T15:42:46.931Z</time>
      </trkpt>
      <trkpt lat="41.70985" lon="44.74186">
        <ele>523.235877</ele>
        <time>2021-08-17T15:42:49.686Z</time>
      </trkpt>
      <trkpt lat="41.71007" lon="44.74226">
        <ele>519.535817</ele>
        <time>2021-08-17T15:42:54.855Z</time>
      </trkpt>
      <trkpt lat="41.71014" lon="44.74238">
        <ele>518.433542</ele>
        <time>2021-08-17T15:42:56.366Z</time>
      </trkpt>
      <trkpt lat="41.7102" lon="44.74249">
        <ele>517.385005</ele>
        <time>2021-08-17T15:42:57.890Z</time>
      </trkpt>
      <trkpt lat="41.71076" lon="44.74347">
        <ele>509.303429</ele>
        <time>2021-08-17T15:43:10.966Z</time>
      </trkpt>
      <trkpt lat="41.71083" lon="44.7436">
        <ele>508.210465</ele>
        <time>2021-08-17T15:43:12.865Z</time>
      </trkpt>
      <trkpt lat="41.71095" lon="44.74381">
        <ele>506.509031</ele>
        <time>2021-08-17T15:43:15.707Z</time>
      </trkpt>
      <trkpt lat="41.71113" lon="44.74428">
        <ele>503.1645</ele>
        <time>2021-08-17T15:43:21.462Z</time>
      </trkpt>
      <trkpt lat="41.71121" lon="44.74468">
        <ele>500.537752</ele>
        <time>2021-08-17T15:43:26.066Z</time>
      </trkpt>
      <trkpt lat="41.71139" lon="44.7465">
        <ele>492.551111</ele>
        <time>2021-08-17T15:43:47.050Z</time>
      </trkpt>
      <trkpt lat="41.71141" lon="44.7467">
        <ele>491.682911</ele>
        <time>2021-08-17T15:43:49.457Z</time>
      </trkpt>
      <trkpt lat="41.71144" lon="44.74702">
        <ele>490.273301</ele>
        <time>2021-08-17T15:43:53.504Z</time>
      </trkpt>
      <trkpt lat="41.71154" lon="44.74799">
        <ele>488.431912</ele>
        <time>2021-08-17T15:44:06.297Z</time>
      </trkpt>
      <trkpt lat="41.71159" lon="44.74836">
        <ele>487.759033</ele>
        <time>2021-08-17T15:44:11.304Z</time>
      </trkpt>
      <trkpt lat="41.71164" lon="44.74905">
        <ele>486.509483</ele>
        <time>2021-08-17T15:44:20.681Z</time>
      </trkpt>
      <trkpt lat="41.71164" lon="44.74907">
        <ele>486.478347</ele>
        <time>2021-08-17T15:44:21.136Z</time>
      </trkpt>
      <trkpt lat="41.71169" lon="44.74958">
        <ele>485.697072</ele>
        <time>2021-08-17T15:44:28.666Z</time>
      </trkpt>
      <trkpt lat="41.71174" lon="44.75012">
        <ele>485.302263</ele>
        <time>2021-08-17T15:44:36.921Z</time>
      </trkpt>
      <trkpt lat="41.71181" lon="44.75102">
        <ele>484.643071</ele>
        <time>2021-08-17T15:44:50.865Z</time>
      </trkpt>
      <trkpt lat="41.71179" lon="44.75184">
        <ele>484.04518</ele>
        <time>2021-08-17T15:45:03.380Z</time>
      </trkpt>
      <trkpt lat="41.71177" lon="44.75317">
        <ele>483.502002</ele>
        <time>2021-08-17T15:45:24.822Z</time>
      </trkpt>
      <trkpt lat="41.71171" lon="44.75358">
        <ele>483.331719</ele>
        <time>2021-08-17T15:45:32.006Z</time>
      </trkpt>
      <trkpt lat="41.71168" lon="44.75365">
        <ele>483.30099</ele>
        <time>2021-08-17T15:45:33.220Z</time>
      </trkpt>
      <trkpt lat="41.71167" lon="44.75372">
        <ele>483.272857</ele>
        <time>2021-08-17T15:45:34.222Z</time>
      </trkpt>
      <trkpt lat="41.71163" lon="44.75397">
        <ele>483.165596</ele>
        <time>2021-08-17T15:45:38.473Z</time>
      </trkpt>
      <trkpt lat="41.71161" lon="44.75397">
        <ele>483.156262</ele>
        <time>2021-08-17T15:45:38.815Z</time>
      </trkpt>
      <trkpt lat="41.71159" lon="44.75413">
        <ele>483.090535</ele>
        <time>2021-08-17T15:45:41.489Z</time>
      </trkpt>
      <trkpt lat="41.71155" lon="44.75433">
        <ele>483.017782</ele>
        <time>2021-08-17T15:45:44.861Z</time>
      </trkpt>
      <trkpt lat="41.71138" lon="44.75547">
        <ele>482.632349</ele>
        <time>2021-08-17T15:46:04.108Z</time>
      </trkpt>
      <trkpt lat="41.71138" lon="44.75552">
        <ele>482.618094</ele>
        <time>2021-08-17T15:46:04.800Z</time>
      </trkpt>
      <trkpt lat="41.71137" lon="44.75559">
        <ele>482.593188</ele>
        <time>2021-08-17T15:46:05.932Z</time>
      </trkpt>
      <trkpt lat="41.71086" lon="44.75876">
        <ele>481.502005</ele>
        <time>2021-08-17T15:46:59.126Z</time>
      </trkpt>
      <trkpt lat="41.71082" lon="44.759">
        <ele>481.396691</ele>
        <time>2021-08-17T15:47:03.338Z</time>
      </trkpt>
      <trkpt lat="41.7108" lon="44.7591">
        <ele>481.340018</ele>
        <time>2021-08-17T15:47:05.015Z</time>
      </trkpt>
      <trkpt lat="41.71069" lon="44.75972">
        <ele>480.996384</ele>
        <time>2021-08-17T15:47:15.563Z</time>
      </trkpt>
      <trkpt lat="41.71041" lon="44.76128">
        <ele>480.121991</ele>
        <time>2021-08-17T15:47:40.635Z</time>
      </trkpt>
      <trkpt lat="41.71035" lon="44.76145">
        <ele>480.001783</ele>
        <time>2021-08-17T15:47:43.586Z</time>
      </trkpt>
      <trkpt lat="41.71033" lon="44.76152">
        <ele>479.95741</ele>
        <time>2021-08-17T15:47:44.913Z</time>
      </trkpt>
      <trkpt lat="41.71027" lon="44.76185">
        <ele>479.754992</ele>
        <time>2021-08-17T15:47:50.422Z</time>
      </trkpt>
      <trkpt lat="41.71027" lon="44.76189">
        <ele>479.730881</ele>
        <time>2021-08-17T15:47:50.939Z</time>
      </trkpt>
      <trkpt lat="41.71027" lon="44.76194">
        <ele>479.70098</ele>
        <time>2021-08-17T15:47:51.655Z</time>
      </trkpt>
      <trkpt lat="41.71023" lon="44.76233">
        <ele>479.458979</ele>
        <time>2021-08-17T15:47:58.388Z</time>
      </trkpt>
      <trkpt lat="41.71024" lon="44.76235">
        <ele>479.449196</ele>
        <time>2021-08-17T15:47:58.570Z</time>
      </trkpt>
      <trkpt lat="41.71022" lon="44.76246">
        <ele>479.380366</ele>
        <time>2021-08-17T15:48:00.345Z</time>
      </trkpt>
      <trkpt lat="41.71021" lon="44.76264">
        <ele>479.266982</ele>
        <time>2021-08-17T15:48:03.550Z</time>
      </trkpt>
      <trkpt lat="41.71021" lon="44.76269">
        <ele>479.241379</ele>
        <time>2021-08-17T15:48:04.193Z</time>
      </trkpt>
      <trkpt lat="41.71022" lon="44.7627">
        <ele>479.228469</ele>
        <time>2021-08-17T15:48:04.577Z</time>
      </trkpt>
      <trkpt lat="41.71023" lon="44.76309">
        <ele>478.994354</ele>
        <time>2021-08-17T15:48:10.603Z</time>
      </trkpt>
      <trkpt lat="41.71022" lon="44.7633">
        <ele>478.866234</ele>
        <time>2021-08-17T15:48:13.843Z</time>
      </trkpt>
      <trkpt lat="41.71019" lon="44.76354">
        <ele>478.720394</ele>
        <time>2021-08-17T15:48:17.600Z</time>
      </trkpt>
      <trkpt lat="41.7101" lon="44.76449">
        <ele>477.667745</ele>
        <time>2021-08-17T15:48:32.550Z</time>
      </trkpt>
      <trkpt lat="41.71005" lon="44.76492">
        <ele>477.181919</ele>
        <time>2021-08-17T15:48:39.152Z</time>
      </trkpt>
      <trkpt lat="41.71004" lon="44.76502">
        <ele>477.061175</ele>
        <time>2021-08-17T15:48:40.646Z</time>
      </trkpt>
      <trkpt lat="41.70987" lon="44.76639">
        <ele>475.374107</ele>
        <time>2021-08-17T15:49:00.681Z</time>
      </trkpt>
      <trkpt lat="41.70985" lon="44.76663">
        <ele>475.033701</ele>
        <time>2021-08-17T15:49:03.991Z</time>
      </trkpt>
      <trkpt lat="41.70978" lon="44.7672">
        <ele>474.205877</ele>
        <time>2021-08-17T15:49:12.221Z</time>
      </trkpt>
      <trkpt lat="41.70976" lon="44.76732">
        <ele>474.038027</ele>
        <time>2021-08-17T15:49:13.879Z</time>
      </trkpt>
      <trkpt lat="41.70973" lon="44.76753">
        <ele>473.729669</ele>
        <time>2021-08-17T15:49:16.938Z</time>
      </trkpt>
      <trkpt lat="41.70965" lon="44.768">
        <ele>473.045671</ele>
        <time>2021-08-17T15:49:23.928Z</time>
      </trkpt>
      <trkpt lat="41.7096" lon="44.76828">
        <ele>472.627828</ele>
        <time>2021-08-17T15:49:28.376Z</time>
      </trkpt>
      <trkpt lat="41.70954" lon="44.76863">
        <ele>472.34075</ele>
        <time>2021-08-17T15:49:33.655Z</time>
      </trkpt>
      <trkpt lat="41.70953" lon="44.76865">
        <ele>472.322464</ele>
        <time>2021-08-17T15:49:34.080Z</time>
      </trkpt>
      <trkpt lat="41.70947" lon="44.7688">
        <ele>472.21936</ele>
        <time>2021-08-17T15:49:36.648Z</time>
      </trkpt>
      <trkpt lat="41.70936" lon="44.76943">
        <ele>471.810896</ele>
        <time>2021-08-17T15:49:47.042Z</time>
      </trkpt>
      <trkpt lat="41.70935" lon="44.76949">
        <ele>471.772174</ele>
        <time>2021-08-17T15:49:48.042Z</time>
      </trkpt>
      <trkpt lat="41.70935" lon="44.76953">
        <ele>471.7488</ele>
        <time>2021-08-17T15:49:48.661Z</time>
      </trkpt>
      <trkpt lat="41.70936" lon="44.76955">
        <ele>471.732936</ele>
        <time>2021-08-17T15:49:49.063Z</time>
      </trkpt>
      <trkpt lat="41.70937" lon="44.76959">
        <ele>471.704159</ele>
        <time>2021-08-17T15:49:49.919Z</time>
      </trkpt>
      <trkpt lat="41.70934" lon="44.76977">
        <ele>471.593532</ele>
        <time>2021-08-17T15:49:52.888Z</time>
      </trkpt>
      <trkpt lat="41.70932" lon="44.76988">
        <ele>471.522333</ele>
        <time>2021-08-17T15:49:54.797Z</time>
      </trkpt>
      <trkpt lat="41.70927" lon="44.77022">
        <ele>471.301944</ele>
        <time>2021-08-17T15:50:00.777Z</time>
      </trkpt>
      <trkpt lat="41.70923" lon="44.77046">
        <ele>471.152653</ele>
        <time>2021-08-17T15:50:04.742Z</time>
      </trkpt>
      <trkpt lat="41.70881" lon="44.77286">
        <ele>468.70776</ele>
        <time>2021-08-17T15:50:42.333Z</time>
      </trkpt>
      <trkpt lat="41.70881" lon="44.77288">
        <ele>468.693311</ele>
        <time>2021-08-17T15:50:42.489Z</time>
      </trkpt>
      <trkpt lat="41.70881" lon="44.77299">
        <ele>468.577955</ele>
        <time>2021-08-17T15:50:44.148Z</time>
      </trkpt>
      <trkpt lat="41.7088" lon="44.77337">
        <ele>467.998865</ele>
        <time>2021-08-17T15:50:49.438Z</time>
      </trkpt>
      <trkpt lat="41.70882" lon="44.77372">
        <ele>467.43722</ele>
        <time>2021-08-17T15:50:54.481Z</time>
      </trkpt>
      <trkpt lat="41.70908" lon="44.7749">
        <ele>465.47551</ele>
        <time>2021-08-17T15:51:11.967Z</time>
      </trkpt>
      <trkpt lat="41.70911" lon="44.77496">
        <ele>465.364224</ele>
        <time>2021-08-17T15:51:12.870Z</time>
      </trkpt>
      <trkpt lat="41.70916" lon="44.77526">
        <ele>464.8721</ele>
        <time>2021-08-17T15:51:17.238Z</time>
      </trkpt>
      <trkpt lat="41.7094" lon="44.77697">
        <ele>462.507481</ele>
        <time>2021-08-17T15:51:42.312Z</time>
      </trkpt>
      <trkpt lat="41.70941" lon="44.77707">
        <ele>462.377562</ele>
        <time>2021-08-17T15:51:43.817Z</time>
      </trkpt>
      <trkpt lat="41.70942" lon="44.7772">
        <ele>462.196807</ele>
        <time>2021-08-17T15:51:45.764Z</time>
      </trkpt>
      <trkpt lat="41.70939" lon="44.77767">
        <ele>461.570986</ele>
        <time>2021-08-17T15:51:52.918Z</time>
      </trkpt>
      <trkpt lat="41.70937" lon="44.77778">
        <ele>461.443178</ele>
        <time>2021-08-17T15:51:54.516Z</time>
      </trkpt>
      <trkpt lat="41.70934" lon="44.77793">
        <ele>461.345049</ele>
        <time>2021-08-17T15:51:57.076Z</time>
      </trkpt>
      <trkpt lat="41.70919" lon="44.77847">
        <ele>460.983495</ele>
        <time>2021-08-17T15:52:05.900Z</time>
      </trkpt>
      <trkpt lat="41.70918" lon="44.7785">
        <ele>460.964369</ele>
        <time>2021-08-17T15:52:06.301Z</time>
      </trkpt>
      <trkpt lat="41.70917" lon="44.77857">
        <ele>460.913609</ele>
        <time>2021-08-17T15:52:07.566Z</time>
      </trkpt>
      <trkpt lat="41.70903" lon="44.77916">
        <ele>460.529625</ele>
        <time>2021-08-17T15:52:16.768Z</time>
      </trkpt>
      <trkpt lat="41.70908" lon="44.77923">
        <ele>460.468178</ele>
        <time>2021-08-17T15:52:18.321Z</time>
      </trkpt>
      <trkpt lat="41.70904" lon="44.77945">
        <ele>460.330541</ele>
        <time>2021-08-17T15:52:22.046Z</time>
      </trkpt>
      <trkpt lat="41.70898" lon="44.77975">
        <ele>460.132228</ele>
        <time>2021-08-17T15:52:26.999Z</time>
      </trkpt>
      <trkpt lat="41.70897" lon="44.77988">
        <ele>460.05003</ele>
        <time>2021-08-17T15:52:29.027Z</time>
      </trkpt>
      <trkpt lat="41.70859" lon="44.78135">
        <ele>460.129586</ele>
        <time>2021-08-17T15:52:58.208Z</time>
      </trkpt>
      <trkpt lat="41.70847" lon="44.78171">
        <ele>460.180511</ele>
        <time>2021-08-17T15:53:05.547Z</time>
      </trkpt>
      <trkpt lat="41.70839" lon="44.78194">
        <ele>460.213899</ele>
        <time>2021-08-17T15:53:09.980Z</time>
      </trkpt>
      <trkpt lat="41.70825" lon="44.78232">
        <ele>460.197108</ele>
        <time>2021-08-17T15:53:16.841Z</time>
      </trkpt>
      <trkpt lat="41.70822" lon="44.78242">
        <ele>460.051999</ele>
        <time>2021-08-17T15:53:18.678Z</time>
      </trkpt>
      <trkpt lat="41.70818" lon="44.78252">
        <ele>459.9193</ele>
        <time>2021-08-17T15:53:20.312Z</time>
      </trkpt>
      <trkpt lat="41.70792" lon="44.78325">
        <ele>458.902142</ele>
        <time>2021-08-17T15:53:32.216Z</time>
      </trkpt>
      <trkpt lat="41.70767" lon="44.78394">
        <ele>457.93535</ele>
        <time>2021-08-17T15:53:42.920Z</time>
      </trkpt>
      <trkpt lat="41.70744" lon="44.78454">
        <ele>456.955131</ele>
        <time>2021-08-17T15:53:51.626Z</time>
      </trkpt>
      <trkpt lat="41.70733" lon="44.78485">
        <ele>456.07935</ele>
        <time>2021-08-17T15:53:55.963Z</time>
      </trkpt>
      <trkpt lat="41.70708" lon="44.7855">
        <ele>454.25008</ele>
        <time>2021-08-17T15:54:05.025Z</time>
      </trkpt>
      <trkpt lat="41.70692" lon="44.7859">
        <ele>453.123551</ele>
        <time>2021-08-17T15:54:10.673Z</time>
      </trkpt>
      <trkpt lat="41.70685" lon="44.78609">
        <ele>452.588512</ele>
        <time>2021-08-17T15:54:13.354Z</time>
      </trkpt>
      <trkpt lat="41.70664" lon="44.7866">
        <ele>451.137925</ele>
        <time>2021-08-17T15:54:20.966Z</time>
      </trkpt>
      <trkpt lat="41.70654" lon="44.78682">
        <ele>450.692465</ele>
        <time>2021-08-17T15:54:24.339Z</time>
      </trkpt>
      <trkpt lat="41.70648" lon="44.78698">
        <ele>450.369875</ele>
        <time>2021-08-17T15:54:26.684Z</time>
      </trkpt>
      <trkpt lat="41.70644" lon="44.78704">
        <ele>450.240053</ele>
        <time>2021-08-17T15:54:27.679Z</time>
      </trkpt>
      <trkpt lat="41.70639" lon="44.78714">
        <ele>450.025619</ele>
        <time>2021-08-17T15:54:29.307Z</time>
      </trkpt>
      <trkpt lat="41.70631" lon="44.78728">
        <ele>449.713794</ele>
        <time>2021-08-17T15:54:31.619Z</time>
      </trkpt>
      <trkpt lat="41.70614" lon="44.78755">
        <ele>449.084326</ele>
        <time>2021-08-17T15:54:36.275Z</time>
      </trkpt>
      <trkpt lat="41.7061" lon="44.7876">
        <ele>448.96283</ele>
        <time>2021-08-17T15:54:37.238Z</time>
      </trkpt>
      <trkpt lat="41.70602" lon="44.78773">
        <ele>448.656785</ele>
        <time>2021-08-17T15:54:39.470Z</time>
      </trkpt>
      <trkpt lat="41.70566" lon="44.7883">
        <ele>447.353116</ele>
        <time>2021-08-17T15:54:49.821Z</time>
      </trkpt>
      <trkpt lat="41.70536" lon="44.78875">
        <ele>446.293316</ele>
        <time>2021-08-17T15:54:58.234Z</time>
      </trkpt>
      <trkpt lat="41.70528" lon="44.78887">
        <ele>446.022691</ele>
        <time>2021-08-17T15:55:00.308Z</time>
      </trkpt>
      <trkpt lat="41.70488" lon="44.78948">
        <ele>444.607694</ele>
        <time>2021-08-17T15:55:12.652Z</time>
      </trkpt>
      <trkpt lat="41.70435" lon="44.78999">
        <ele>443.095244</ele>
        <time>2021-08-17T15:55:23.984Z</time>
      </trkpt>
      <trkpt lat="41.70422" lon="44.79009">
        <ele>442.706728</ele>
        <time>2021-08-17T15:55:26.452Z</time>
      </trkpt>
      <trkpt lat="41.70403" lon="44.79023">
        <ele>441.2613</ele>
        <time>2021-08-17T15:55:29.919Z</time>
      </trkpt>
      <trkpt lat="41.70391" lon="44.79031">
        <ele>440.331381</ele>
        <time>2021-08-17T15:55:32.321Z</time>
      </trkpt>
      <trkpt lat="41.70387" lon="44.79035">
        <ele>440.049942</ele>
        <time>2021-08-17T15:55:33.039Z</time>
      </trkpt>
      <trkpt lat="41.70385" lon="44.79041">
        <ele>439.743695</ele>
        <time>2021-08-17T15:55:33.813Z</time>
      </trkpt>
      <trkpt lat="41.70385" lon="44.7905">
        <ele>439.284179</ele>
        <time>2021-08-17T15:55:34.838Z</time>
      </trkpt>
      <trkpt lat="41.70387" lon="44.79052">
        <ele>439.125724</ele>
        <time>2021-08-17T15:55:35.171Z</time>
      </trkpt>
      <trkpt lat="41.70388" lon="44.79055">
        <ele>438.955417</ele>
        <time>2021-08-17T15:55:35.531Z</time>
      </trkpt>
      <trkpt lat="41.70417" lon="44.79105">
        <ele>435.863317</ele>
        <time>2021-08-17T15:55:42.603Z</time>
      </trkpt>
      <trkpt lat="41.70449" lon="44.79161">
        <ele>432.3472</ele>
        <time>2021-08-17T15:55:50.916Z</time>
      </trkpt>
      <trkpt lat="41.70456" lon="44.79167">
        <ele>431.844104</ele>
        <time>2021-08-17T15:55:52.022Z</time>
      </trkpt>
      <trkpt lat="41.70476" lon="44.79183">
        <ele>430.111501</ele>
        <time>2021-08-17T15:55:55.688Z</time>
      </trkpt>
      <trkpt lat="41.70489" lon="44.79182">
        <ele>428.969233</ele>
        <time>2021-08-17T15:55:57.623Z</time>
      </trkpt>
      <trkpt lat="41.70495" lon="44.79182">
        <ele>428.449792</ele>
        <time>2021-08-17T15:55:58.496Z</time>
      </trkpt>
      <trkpt lat="41.70502" lon="44.79181">
        <ele>427.870643</ele>
        <time>2021-08-17T15:55:59.466Z</time>
      </trkpt>
      <trkpt lat="41.70504" lon="44.7918">
        <ele>427.650915</ele>
        <time>2021-08-17T15:55:59.805Z</time>
      </trkpt>
      <trkpt lat="41.7061" lon="44.79138">
        <ele>418.127319</ele>
        <time>2021-08-17T15:56:15.623Z</time>
      </trkpt>
      <trkpt lat="41.70649" lon="44.79128">
        <ele>415.013195</ele>
        <time>2021-08-17T15:56:21.413Z</time>
      </trkpt>
      <trkpt lat="41.7068" lon="44.79107">
        <ele>413.630419</ele>
        <time>2021-08-17T15:56:26.798Z</time>
      </trkpt>
      <trkpt lat="41.70704" lon="44.79103">
        <ele>412.678051</ele>
        <time>2021-08-17T15:56:30.781Z</time>
      </trkpt>
      <trkpt lat="41.70711" lon="44.79109">
        <ele>412.346293</ele>
        <time>2021-08-17T15:56:32.018Z</time>
      </trkpt>
      <trkpt lat="41.70718" lon="44.79118">
        <ele>411.979262</ele>
        <time>2021-08-17T15:56:33.517Z</time>
      </trkpt>
      <trkpt lat="41.70726" lon="44.79134">
        <ele>411.393366</ele>
        <time>2021-08-17T15:56:36.162Z</time>
      </trkpt>
      <trkpt lat="41.70733" lon="44.7915">
        <ele>410.867925</ele>
        <time>2021-08-17T15:56:38.282Z</time>
      </trkpt>
      <trkpt lat="41.7073" lon="44.79152">
        <ele>410.739971</ele>
        <time>2021-08-17T15:56:38.820Z</time>
      </trkpt>
      <trkpt lat="41.70728" lon="44.79155">
        <ele>410.616572</ele>
        <time>2021-08-17T15:56:39.352Z</time>
      </trkpt>
      <trkpt lat="41.70727" lon="44.79159">
        <ele>410.490523</ele>
        <time>2021-08-17T15:56:39.894Z</time>
      </trkpt>
      <trkpt lat="41.70726" lon="44.79163">
        <ele>410.365598</ele>
        <time>2021-08-17T15:56:40.520Z</time>
      </trkpt>
      <trkpt lat="41.70726" lon="44.79168">
        <ele>410.224044</ele>
        <time>2021-08-17T15:56:41.152Z</time>
      </trkpt>
      <trkpt lat="41.70735" lon="44.79182">
        <ele>409.686785</ele>
        <time>2021-08-17T15:56:43.734Z</time>
      </trkpt>
      <trkpt lat="41.70738" lon="44.79182">
        <ele>409.542689</ele>
        <time>2021-08-17T15:56:44.272Z</time>
      </trkpt>
      <trkpt lat="41.7074" lon="44.79182">
        <ele>409.495305</ele>
        <time>2021-08-17T15:56:44.483Z</time>
      </trkpt>
      <trkpt lat="41.70741" lon="44.79182">
        <ele>409.443634</ele>
        <time>2021-08-17T15:56:44.723Z</time>
      </trkpt>
      <trkpt lat="41.70742" lon="44.79182">
        <ele>409.394805</ele>
        <time>2021-08-17T15:56:44.982Z</time>
      </trkpt>
      <trkpt lat="41.70746" lon="44.79191">
        <ele>409.082926</ele>
        <time>2021-08-17T15:56:46.496Z</time>
      </trkpt>
      <trkpt lat="41.70808" lon="44.79347">
        <ele>409.696791</ele>
        <time>2021-08-17T15:57:18.837Z</time>
      </trkpt>
      <trkpt lat="41.70815" lon="44.79364">
        <ele>409.894451</ele>
        <time>2021-08-17T15:57:24.528Z</time>
      </trkpt>
      <trkpt lat="41.70821" lon="44.79379">
        <ele>410.06734</ele>
        <time>2021-08-17T15:57:29.638Z</time>
      </trkpt>
      <trkpt lat="41.70825" lon="44.79389">
        <ele>410.184015</ele>
        <time>2021-08-17T15:57:33.137Z</time>
      </trkpt>
      <trkpt lat="41.70846" lon="44.79444">
        <ele>410.876239</ele>
        <time>2021-08-17T15:57:51.365Z</time>
      </trkpt>
      <trkpt lat="41.70847" lon="44.79445">
        <ele>410.889918</ele>
        <time>2021-08-17T15:57:51.662Z</time>
      </trkpt>
      <trkpt lat="41.70867" lon="44.79498">
        <ele>411.707178</ele>
        <time>2021-08-17T15:58:07.472Z</time>
      </trkpt>
      <trkpt lat="41.70872" lon="44.79511">
        <ele>411.919248</ele>
        <time>2021-08-17T15:58:11.409Z</time>
      </trkpt>
      <trkpt lat="41.70875" lon="44.79518">
        <ele>412.027938</ele>
        <time>2021-08-17T15:58:13.409Z</time>
      </trkpt>
      <trkpt lat="41.7088" lon="44.7953">
        <ele>412.215975</ele>
        <time>2021-08-17T15:58:16.970Z</time>
      </trkpt>
      <trkpt lat="41.70933" lon="44.79662">
        <ele>414.059219</ele>
        <time>2021-08-17T15:58:47.895Z</time>
      </trkpt>
      <trkpt lat="41.7095" lon="44.79706">
        <ele>414.191831</ele>
        <time>2021-08-17T15:58:57.262Z</time>
      </trkpt>
      <trkpt lat="41.7095" lon="44.79711">
        <ele>414.205505</ele>
        <time>2021-08-17T15:58:58.129Z</time>
      </trkpt>
      <trkpt lat="41.70946" lon="44.79727">
        <ele>414.251743</ele>
        <time>2021-08-17T15:59:01.374Z</time>
      </trkpt>
      <trkpt lat="41.70941" lon="44.79735">
        <ele>414.281727</ele>
        <time>2021-08-17T15:59:03.358Z</time>
      </trkpt>
      <trkpt lat="41.70936" lon="44.79738">
        <ele>414.302434</ele>
        <time>2021-08-17T15:59:04.572Z</time>
      </trkpt>
      <trkpt lat="41.7092" lon="44.79752">
        <ele>414.372374</ele>
        <time>2021-08-17T15:59:09.100Z</time>
      </trkpt>
      <trkpt lat="41.70918" lon="44.79755">
        <ele>414.381414</ele>
        <time>2021-08-17T15:59:09.588Z</time>
      </trkpt>
      <trkpt lat="41.70918" lon="44.79758">
        <ele>414.391336</ele>
        <time>2021-08-17T15:59:10.351Z</time>
      </trkpt>
      <trkpt lat="41.70923" lon="44.79768">
        <ele>414.42477</ele>
        <time>2021-08-17T15:59:12.252Z</time>
      </trkpt>
      <trkpt lat="41.70933" lon="44.79766">
        <ele>414.462543</ele>
        <time>2021-08-17T15:59:14.446Z</time>
      </trkpt>
      <trkpt lat="41.70941" lon="44.79761">
        <ele>414.492035</ele>
        <time>2021-08-17T15:59:16.528Z</time>
      </trkpt>
      <trkpt lat="41.70945" lon="44.79758">
        <ele>414.508596</ele>
        <time>2021-08-17T15:59:17.498Z</time>
      </trkpt>
      <trkpt lat="41.70949" lon="44.79757">
        <ele>414.524175</ele>
        <time>2021-08-17T15:59:18.583Z</time>
      </trkpt>
      <trkpt lat="41.70968" lon="44.79763">
        <ele>414.597062</ele>
        <time>2021-08-17T15:59:22.844Z</time>
      </trkpt>
      <trkpt lat="41.70972" lon="44.79769">
        <ele>414.618908</ele>
        <time>2021-08-17T15:59:24.499Z</time>
      </trkpt>
      <trkpt lat="41.71022" lon="44.79885">
        <ele>415.438777</ele>
        <time>2021-08-17T15:59:47.615Z</time>
      </trkpt>
      <trkpt lat="41.71064" lon="44.79982">
        <ele>416.171962</ele>
        <time>2021-08-17T16:00:11.795Z</time>
      </trkpt>
      <trkpt lat="41.71096" lon="44.80056">
        <ele>417.483115</ele>
        <time>2021-08-17T16:00:33.111Z</time>
      </trkpt>
      <trkpt lat="41.711" lon="44.80068">
        <ele>417.699515</ele>
        <time>2021-08-17T16:00:36.839Z</time>
      </trkpt>
      <trkpt lat="41.71137" lon="44.80151">
        <ele>419.275122</ele>
        <time>2021-08-17T16:01:02.097Z</time>
      </trkpt>
      <trkpt lat="41.71143" lon="44.80163">
        <ele>419.504049</ele>
        <time>2021-08-17T16:01:06.074Z</time>
      </trkpt>
      <trkpt lat="41.71008" lon="44.8026">
        <ele>420.149133</ele>
        <time>2021-08-17T16:01:51.966Z</time>
      </trkpt>
      <trkpt lat="41.70962" lon="44.80292">
        <ele>420.149133</ele>
        <time>2021-08-17T16:02:04.121Z</time>
      </trkpt>
    </trkseg>
  </trk>
</gpx>